<?xml version="1.0" encoding="UTF-8" standalone="no" ?>
<gpx xmlns="http://www.topografix.com/GPX/1/1" xmlns:xsi="http://www.w3.org/2001/XMLSchema-instance" xsi:schemaLocation="http://www.topografix.com/GPX/1/1 http://www.topografix.com/GPX/1/1/gpx.xsd" version="1.1" creator="VisuGPX - https://www.visugpx.com">
  <metadata>
    <name>77 CCC Flémalle - Wasseige - Flémalle</name>
    <desc><![CDATA[Randonnée au départ de l'Auto 5 de Flémalle.
Flémalle - Mons - Cahottes - Haneffe - Viemme - Borlez - Les Waleffes - Tourinne - Braives - Avennes - Moxhe - Ambresin - Wasseiges - Branchon - Merdorp - Grand-Hallet - Avernas-le-Bauduin - Trognée - Boelhe - Geer - Ligney - Omal - Celles - Haneffe - Jeneffe - Lexhy - Cahottes - Mons-lez-Liège - Jemeppe - Flémalle.]]></desc>
  </metadata>
  <trk>
    <name><![CDATA[77 CCC]]></name>
    <extensions>
      <line xmlns="http://www.topografix.com/GPX/gpx_style/0/2">
        <color>0000FF</color>
        <width>4</width>
      </line>
    </extensions>
    <trkseg>
      <trkpt lat="50.60418" lon="5.4842">
        <ele>65.1</ele>
        <time>2019-10-02T07:02:04.000Z</time>
      </trkpt>
      <trkpt lat="50.60418" lon="5.4842">
        <ele>65.1</ele>
        <time>2019-10-02T07:02:04.000Z</time>
      </trkpt>
      <trkpt lat="50.60405" lon="5.48438">
        <ele>65</ele>
        <time>2019-10-02T07:02:09.000Z</time>
      </trkpt>
      <trkpt lat="50.6035" lon="5.48518">
        <ele>63.7</ele>
        <time>2019-10-02T07:02:12.000Z</time>
      </trkpt>
      <trkpt lat="50.60365" lon="5.48548">
        <ele>63.5</ele>
        <time>2019-10-02T07:02:14.000Z</time>
      </trkpt>
      <trkpt lat="50.60372" lon="5.48535">
        <ele>63.5</ele>
        <time>2019-10-02T07:02:15.000Z</time>
      </trkpt>
      <trkpt lat="50.60428" lon="5.48465">
        <ele>65.1</ele>
        <time>2019-10-02T07:02:17.000Z</time>
      </trkpt>
      <trkpt lat="50.60488" lon="5.48394">
        <ele>66.7</ele>
        <time>2019-10-02T07:02:20.000Z</time>
      </trkpt>
      <trkpt lat="50.60495" lon="5.48395">
        <ele>66.8</ele>
        <time>2019-10-02T07:02:24.000Z</time>
      </trkpt>
      <trkpt lat="50.60504" lon="5.48386">
        <ele>67.4</ele>
        <time>2019-10-02T07:02:25.000Z</time>
      </trkpt>
      <trkpt lat="50.60504" lon="5.48373">
        <ele>67.5</ele>
        <time>2019-10-02T07:02:26.000Z</time>
      </trkpt>
      <trkpt lat="50.60596" lon="5.48304">
        <ele>68.2</ele>
        <time>2019-10-02T07:02:27.000Z</time>
      </trkpt>
      <trkpt lat="50.60616" lon="5.48286">
        <ele>68.3</ele>
        <time>2019-10-02T07:02:29.000Z</time>
      </trkpt>
      <trkpt lat="50.60643" lon="5.48261">
        <ele>68.5</ele>
        <time>2019-10-02T07:02:30.000Z</time>
      </trkpt>
      <trkpt lat="50.60677" lon="5.48221">
        <ele>70.5</ele>
        <time>2019-10-02T07:02:34.000Z</time>
      </trkpt>
      <trkpt lat="50.60679" lon="5.48207">
        <ele>70.9</ele>
        <time>2019-10-02T07:02:35.000Z</time>
      </trkpt>
      <trkpt lat="50.60679" lon="5.48194">
        <ele>71.1</ele>
        <time>2019-10-02T07:02:36.000Z</time>
      </trkpt>
      <trkpt lat="50.60659" lon="5.48143">
        <ele>70.4</ele>
        <time>2019-10-02T07:03:07.000Z</time>
      </trkpt>
      <trkpt lat="50.60636" lon="5.48089">
        <ele>70.2</ele>
        <time>2019-10-02T07:03:11.000Z</time>
      </trkpt>
      <trkpt lat="50.60615" lon="5.48044">
        <ele>70.4</ele>
        <time>2019-10-02T07:03:12.000Z</time>
      </trkpt>
      <trkpt lat="50.60592" lon="5.47997">
        <ele>70.5</ele>
        <time>2019-10-02T07:03:14.000Z</time>
      </trkpt>
      <trkpt lat="50.60659" lon="5.47913">
        <ele>72.2</ele>
        <time>2019-10-02T07:03:16.000Z</time>
      </trkpt>
      <trkpt lat="50.60667" lon="5.47915">
        <ele>72.2</ele>
        <time>2019-10-02T07:03:17.000Z</time>
      </trkpt>
      <trkpt lat="50.60672" lon="5.47905">
        <ele>73.4</ele>
        <time>2019-10-02T07:03:20.000Z</time>
      </trkpt>
      <trkpt lat="50.60755" lon="5.47871">
        <ele>79.8</ele>
        <time>2019-10-02T07:03:40.000Z</time>
      </trkpt>
      <trkpt lat="50.60823" lon="5.4784">
        <ele>80.4</ele>
        <time>2019-10-02T07:05:13.000Z</time>
      </trkpt>
      <trkpt lat="50.60842" lon="5.47826">
        <ele>81.1</ele>
        <time>2019-10-02T07:06:34.000Z</time>
      </trkpt>
      <trkpt lat="50.60871" lon="5.47798">
        <ele>82.7</ele>
        <time>2019-10-02T07:06:35.000Z</time>
      </trkpt>
      <trkpt lat="50.60899" lon="5.47787">
        <ele>83.1</ele>
        <time>2019-10-02T07:06:38.000Z</time>
      </trkpt>
      <trkpt lat="50.60926" lon="5.47791">
        <ele>85.2</ele>
        <time>2019-10-02T07:06:39.000Z</time>
      </trkpt>
      <trkpt lat="50.60947" lon="5.47806">
        <ele>85.5</ele>
        <time>2019-10-02T07:06:40.000Z</time>
      </trkpt>
      <trkpt lat="50.60966" lon="5.47825">
        <ele>85.7</ele>
        <time>2019-10-02T07:06:45.000Z</time>
      </trkpt>
      <trkpt lat="50.60989" lon="5.47858">
        <ele>89.1</ele>
        <time>2019-10-02T07:06:46.000Z</time>
      </trkpt>
      <trkpt lat="50.61011" lon="5.4788">
        <ele>91.8</ele>
        <time>2019-10-02T07:06:49.000Z</time>
      </trkpt>
      <trkpt lat="50.61039" lon="5.479">
        <ele>93</ele>
        <time>2019-10-02T07:06:53.000Z</time>
      </trkpt>
      <trkpt lat="50.6108" lon="5.47911">
        <ele>95.2</ele>
        <time>2019-10-02T07:06:56.000Z</time>
      </trkpt>
      <trkpt lat="50.61128" lon="5.47901">
        <ele>96</ele>
        <time>2019-10-02T07:06:58.000Z</time>
      </trkpt>
      <trkpt lat="50.61175" lon="5.4789">
        <ele>96.8</ele>
        <time>2019-10-02T07:07:03.000Z</time>
      </trkpt>
      <trkpt lat="50.61202" lon="5.47899">
        <ele>96.5</ele>
        <time>2019-10-02T07:07:10.000Z</time>
      </trkpt>
      <trkpt lat="50.61233" lon="5.47911">
        <ele>95.5</ele>
        <time>2019-10-02T07:07:17.000Z</time>
      </trkpt>
      <trkpt lat="50.61298" lon="5.4794">
        <ele>92.7</ele>
        <time>2019-10-02T07:07:19.000Z</time>
      </trkpt>
      <trkpt lat="50.6136" lon="5.47976">
        <ele>92</ele>
        <time>2019-10-02T07:07:24.000Z</time>
      </trkpt>
      <trkpt lat="50.61439" lon="5.47991">
        <ele>94.5</ele>
        <time>2019-10-02T07:07:28.000Z</time>
      </trkpt>
      <trkpt lat="50.61457" lon="5.47972">
        <ele>95.2</ele>
        <time>2019-10-02T07:07:31.000Z</time>
      </trkpt>
      <trkpt lat="50.61468" lon="5.4794">
        <ele>95.6</ele>
        <time>2019-10-02T07:07:34.000Z</time>
      </trkpt>
      <trkpt lat="50.61479" lon="5.47899">
        <ele>96.1</ele>
        <time>2019-10-02T07:07:38.000Z</time>
      </trkpt>
      <trkpt lat="50.61485" lon="5.47811">
        <ele>96.6</ele>
        <time>2019-10-02T07:07:43.000Z</time>
      </trkpt>
      <trkpt lat="50.61491" lon="5.47767">
        <ele>96.8</ele>
        <time>2019-10-02T07:07:45.000Z</time>
      </trkpt>
      <trkpt lat="50.61508" lon="5.4773">
        <ele>98.4</ele>
        <time>2019-10-02T07:07:50.000Z</time>
      </trkpt>
      <trkpt lat="50.61535" lon="5.47686">
        <ele>99</ele>
        <time>2019-10-02T07:07:53.000Z</time>
      </trkpt>
      <trkpt lat="50.61556" lon="5.47644">
        <ele>99.9</ele>
        <time>2019-10-02T07:08:49.000Z</time>
      </trkpt>
      <trkpt lat="50.61562" lon="5.47624">
        <ele>100.3</ele>
        <time>2019-10-02T07:08:54.000Z</time>
      </trkpt>
      <trkpt lat="50.61557" lon="5.47589">
        <ele>100.9</ele>
        <time>2019-10-02T07:08:55.000Z</time>
      </trkpt>
      <trkpt lat="50.61529" lon="5.47484">
        <ele>106.8</ele>
        <time>2019-10-02T07:08:59.000Z</time>
      </trkpt>
      <trkpt lat="50.61506" lon="5.47391">
        <ele>109.3</ele>
        <time>2019-10-02T07:09:04.000Z</time>
      </trkpt>
      <trkpt lat="50.61489" lon="5.47299">
        <ele>112.2</ele>
        <time>2019-10-02T07:09:10.000Z</time>
      </trkpt>
      <trkpt lat="50.61483" lon="5.47281">
        <ele>112.6</ele>
        <time>2019-10-02T07:09:11.000Z</time>
      </trkpt>
      <trkpt lat="50.61478" lon="5.47269">
        <ele>112.7</ele>
        <time>2019-10-02T07:09:14.000Z</time>
      </trkpt>
      <trkpt lat="50.61483" lon="5.47249">
        <ele>113.4</ele>
        <time>2019-10-02T07:09:21.000Z</time>
      </trkpt>
      <trkpt lat="50.61513" lon="5.47235">
        <ele>113.9</ele>
        <time>2019-10-02T07:09:24.000Z</time>
      </trkpt>
      <trkpt lat="50.61545" lon="5.4722">
        <ele>115.4</ele>
        <time>2019-10-02T07:09:27.000Z</time>
      </trkpt>
      <trkpt lat="50.61558" lon="5.47201">
        <ele>116.1</ele>
        <time>2019-10-02T07:09:30.000Z</time>
      </trkpt>
      <trkpt lat="50.61566" lon="5.47167">
        <ele>117.3</ele>
        <time>2019-10-02T07:09:37.000Z</time>
      </trkpt>
      <trkpt lat="50.61573" lon="5.47049">
        <ele>124.1</ele>
        <time>2019-10-02T07:09:43.000Z</time>
      </trkpt>
      <trkpt lat="50.6158" lon="5.46924">
        <ele>128.8</ele>
        <time>2019-10-02T07:09:49.000Z</time>
      </trkpt>
      <trkpt lat="50.6158" lon="5.46884">
        <ele>130.1</ele>
        <time>2019-10-02T07:09:51.000Z</time>
      </trkpt>
      <trkpt lat="50.61573" lon="5.4685">
        <ele>130</ele>
        <time>2019-10-02T07:09:54.000Z</time>
      </trkpt>
      <trkpt lat="50.61542" lon="5.4673">
        <ele>134.7</ele>
        <time>2019-10-02T07:09:58.000Z</time>
      </trkpt>
      <trkpt lat="50.61504" lon="5.4658">
        <ele>140.5</ele>
        <time>2019-10-02T07:09:59.000Z</time>
      </trkpt>
      <trkpt lat="50.61504" lon="5.46543">
        <ele>142.4</ele>
        <time>2019-10-02T07:10:02.000Z</time>
      </trkpt>
      <trkpt lat="50.61514" lon="5.46511">
        <ele>143.4</ele>
        <time>2019-10-02T07:10:04.000Z</time>
      </trkpt>
      <trkpt lat="50.61587" lon="5.46337">
        <ele>149.2</ele>
        <time>2019-10-02T07:10:12.000Z</time>
      </trkpt>
      <trkpt lat="50.61617" lon="5.46262">
        <ele>151.4</ele>
        <time>2019-10-02T07:10:15.000Z</time>
      </trkpt>
      <trkpt lat="50.6163" lon="5.46245">
        <ele>153.3</ele>
        <time>2019-10-02T07:10:20.000Z</time>
      </trkpt>
      <trkpt lat="50.61646" lon="5.46232">
        <ele>154.2</ele>
        <time>2019-10-02T07:10:28.000Z</time>
      </trkpt>
      <trkpt lat="50.61666" lon="5.46232">
        <ele>154.9</ele>
        <time>2019-10-02T07:10:35.000Z</time>
      </trkpt>
      <trkpt lat="50.61729" lon="5.46246">
        <ele>162.8</ele>
        <time>2019-10-02T07:10:41.000Z</time>
      </trkpt>
      <trkpt lat="50.61743" lon="5.46243">
        <ele>163.9</ele>
        <time>2019-10-02T07:10:45.000Z</time>
      </trkpt>
      <trkpt lat="50.61764" lon="5.46224">
        <ele>166.3</ele>
        <time>2019-10-02T07:10:47.000Z</time>
      </trkpt>
      <trkpt lat="50.61825" lon="5.46162">
        <ele>168.4</ele>
        <time>2019-10-02T07:10:50.000Z</time>
      </trkpt>
      <trkpt lat="50.61845" lon="5.46149">
        <ele>170.5</ele>
        <time>2019-10-02T07:10:53.000Z</time>
      </trkpt>
      <trkpt lat="50.61851" lon="5.4616">
        <ele>170.5</ele>
        <time>2019-10-02T07:10:54.000Z</time>
      </trkpt>
      <trkpt lat="50.61859" lon="5.4616">
        <ele>171</ele>
        <time>2019-10-02T07:10:55.000Z</time>
      </trkpt>
      <trkpt lat="50.61864" lon="5.46146">
        <ele>171.3</ele>
        <time>2019-10-02T07:10:58.000Z</time>
      </trkpt>
      <trkpt lat="50.61882" lon="5.46149">
        <ele>172.1</ele>
        <time>2019-10-02T07:10:59.000Z</time>
      </trkpt>
      <trkpt lat="50.62021" lon="5.4608">
        <ele>179.5</ele>
        <time>2019-10-02T07:11:03.000Z</time>
      </trkpt>
      <trkpt lat="50.62087" lon="5.46045">
        <ele>182.1</ele>
        <time>2019-10-02T07:11:04.000Z</time>
      </trkpt>
      <trkpt lat="50.62107" lon="5.46034">
        <ele>181.9</ele>
        <time>2019-10-02T07:11:08.000Z</time>
      </trkpt>
      <trkpt lat="50.62125" lon="5.46016">
        <ele>181.7</ele>
        <time>2019-10-02T07:11:09.000Z</time>
      </trkpt>
      <trkpt lat="50.62148" lon="5.46007">
        <ele>181.5</ele>
        <time>2019-10-02T07:11:11.000Z</time>
      </trkpt>
      <trkpt lat="50.62191" lon="5.45999">
        <ele>180.7</ele>
        <time>2019-10-02T07:11:14.000Z</time>
      </trkpt>
      <trkpt lat="50.62235" lon="5.45991">
        <ele>180.8</ele>
        <time>2019-10-02T07:11:17.000Z</time>
      </trkpt>
      <trkpt lat="50.62255" lon="5.45982">
        <ele>181.1</ele>
        <time>2019-10-02T07:11:18.000Z</time>
      </trkpt>
      <trkpt lat="50.62295" lon="5.45961">
        <ele>187.80000305176</ele>
        <time>2019-10-02T07:11:21.000Z</time>
        <extensions>
          <gpxtpx:TrackPointExtension xmlns:gpxtpx="http://www.garmin.com/xmlschemas/TrackPointExtension/v1">
            <gpxtpx:hr>91</gpxtpx:hr>
          </gpxtpx:TrackPointExtension>
        </extensions>
      </trkpt>
      <trkpt lat="50.62319" lon="5.45948">
        <ele>187.60000610352</ele>
        <time>2019-10-02T07:11:22.000Z</time>
        <extensions>
          <gpxtpx:TrackPointExtension xmlns:gpxtpx="http://www.garmin.com/xmlschemas/TrackPointExtension/v1">
            <gpxtpx:hr>88</gpxtpx:hr>
          </gpxtpx:TrackPointExtension>
        </extensions>
      </trkpt>
      <trkpt lat="50.62335" lon="5.45939">
        <ele>187.60000610352</ele>
        <time>2019-10-02T07:11:26.000Z</time>
        <extensions>
          <gpxtpx:TrackPointExtension xmlns:gpxtpx="http://www.garmin.com/xmlschemas/TrackPointExtension/v1">
            <gpxtpx:hr>86</gpxtpx:hr>
          </gpxtpx:TrackPointExtension>
        </extensions>
      </trkpt>
      <trkpt lat="50.62346" lon="5.45933">
        <ele>187.60000610352</ele>
        <time>2019-10-02T07:11:27.000Z</time>
        <extensions>
          <gpxtpx:TrackPointExtension xmlns:gpxtpx="http://www.garmin.com/xmlschemas/TrackPointExtension/v1">
            <gpxtpx:hr>85</gpxtpx:hr>
          </gpxtpx:TrackPointExtension>
        </extensions>
      </trkpt>
      <trkpt lat="50.62352" lon="5.4593">
        <ele>187.60000610352</ele>
        <time>2019-10-02T07:11:28.000Z</time>
        <extensions>
          <gpxtpx:TrackPointExtension xmlns:gpxtpx="http://www.garmin.com/xmlschemas/TrackPointExtension/v1">
            <gpxtpx:hr>85</gpxtpx:hr>
          </gpxtpx:TrackPointExtension>
        </extensions>
      </trkpt>
      <trkpt lat="50.62363" lon="5.45923">
        <ele>187.60000610352</ele>
        <time>2019-10-02T07:11:29.000Z</time>
        <extensions>
          <gpxtpx:TrackPointExtension xmlns:gpxtpx="http://www.garmin.com/xmlschemas/TrackPointExtension/v1">
            <gpxtpx:hr>84</gpxtpx:hr>
          </gpxtpx:TrackPointExtension>
        </extensions>
      </trkpt>
      <trkpt lat="50.62381" lon="5.45914">
        <ele>187.19999694824</ele>
        <time>2019-10-02T07:11:33.000Z</time>
        <extensions>
          <gpxtpx:TrackPointExtension xmlns:gpxtpx="http://www.garmin.com/xmlschemas/TrackPointExtension/v1">
            <gpxtpx:hr>84</gpxtpx:hr>
          </gpxtpx:TrackPointExtension>
        </extensions>
      </trkpt>
      <trkpt lat="50.62407" lon="5.459">
        <ele>186.39999389648</ele>
        <time>2019-10-02T07:11:39.000Z</time>
        <extensions>
          <gpxtpx:TrackPointExtension xmlns:gpxtpx="http://www.garmin.com/xmlschemas/TrackPointExtension/v1">
            <gpxtpx:hr>81</gpxtpx:hr>
          </gpxtpx:TrackPointExtension>
        </extensions>
      </trkpt>
      <trkpt lat="50.62413" lon="5.45897">
        <ele>186.19999694824</ele>
        <time>2019-10-02T07:11:40.000Z</time>
        <extensions>
          <gpxtpx:TrackPointExtension xmlns:gpxtpx="http://www.garmin.com/xmlschemas/TrackPointExtension/v1">
            <gpxtpx:hr>80</gpxtpx:hr>
          </gpxtpx:TrackPointExtension>
        </extensions>
      </trkpt>
      <trkpt lat="50.6242" lon="5.45894">
        <ele>186.19999694824</ele>
        <time>2019-10-02T07:11:41.000Z</time>
        <extensions>
          <gpxtpx:TrackPointExtension xmlns:gpxtpx="http://www.garmin.com/xmlschemas/TrackPointExtension/v1">
            <gpxtpx:hr>78</gpxtpx:hr>
          </gpxtpx:TrackPointExtension>
        </extensions>
      </trkpt>
      <trkpt lat="50.62426" lon="5.45892">
        <ele>186</ele>
        <time>2019-10-02T07:11:50.000Z</time>
        <extensions>
          <gpxtpx:TrackPointExtension xmlns:gpxtpx="http://www.garmin.com/xmlschemas/TrackPointExtension/v1">
            <gpxtpx:hr>78</gpxtpx:hr>
          </gpxtpx:TrackPointExtension>
        </extensions>
      </trkpt>
      <trkpt lat="50.62439" lon="5.45888">
        <ele>185.60000610352</ele>
        <time>2019-10-02T07:11:57.000Z</time>
        <extensions>
          <gpxtpx:TrackPointExtension xmlns:gpxtpx="http://www.garmin.com/xmlschemas/TrackPointExtension/v1">
            <gpxtpx:hr>76</gpxtpx:hr>
          </gpxtpx:TrackPointExtension>
        </extensions>
      </trkpt>
      <trkpt lat="50.62446" lon="5.45886">
        <ele>185.60000610352</ele>
        <time>2019-10-02T07:11:58.000Z</time>
        <extensions>
          <gpxtpx:TrackPointExtension xmlns:gpxtpx="http://www.garmin.com/xmlschemas/TrackPointExtension/v1">
            <gpxtpx:hr>76</gpxtpx:hr>
          </gpxtpx:TrackPointExtension>
        </extensions>
      </trkpt>
      <trkpt lat="50.62467" lon="5.45871">
        <ele>185.19999694824</ele>
        <time>2019-10-02T07:12:01.000Z</time>
        <extensions>
          <gpxtpx:TrackPointExtension xmlns:gpxtpx="http://www.garmin.com/xmlschemas/TrackPointExtension/v1">
            <gpxtpx:hr>78</gpxtpx:hr>
          </gpxtpx:TrackPointExtension>
        </extensions>
      </trkpt>
      <trkpt lat="50.62472" lon="5.45866">
        <ele>185.19999694824</ele>
        <time>2019-10-02T07:12:02.000Z</time>
        <extensions>
          <gpxtpx:TrackPointExtension xmlns:gpxtpx="http://www.garmin.com/xmlschemas/TrackPointExtension/v1">
            <gpxtpx:hr>78</gpxtpx:hr>
          </gpxtpx:TrackPointExtension>
        </extensions>
      </trkpt>
      <trkpt lat="50.62477" lon="5.45861">
        <ele>185</ele>
        <time>2019-10-02T07:12:06.000Z</time>
        <extensions>
          <gpxtpx:TrackPointExtension xmlns:gpxtpx="http://www.garmin.com/xmlschemas/TrackPointExtension/v1">
            <gpxtpx:hr>79</gpxtpx:hr>
          </gpxtpx:TrackPointExtension>
        </extensions>
      </trkpt>
      <trkpt lat="50.62498" lon="5.45834">
        <ele>179.9</ele>
        <time>2019-10-02T07:12:10.000Z</time>
      </trkpt>
      <trkpt lat="50.62493" lon="5.45821">
        <ele>181</ele>
        <time>2019-10-02T07:12:11.000Z</time>
      </trkpt>
      <trkpt lat="50.62483" lon="5.45802">
        <ele>181.7</ele>
        <time>2019-10-02T07:12:14.000Z</time>
      </trkpt>
      <trkpt lat="50.6247" lon="5.4579">
        <ele>182.1</ele>
        <time>2019-10-02T07:12:16.000Z</time>
      </trkpt>
      <trkpt lat="50.62453" lon="5.45775">
        <ele>182.5</ele>
        <time>2019-10-02T07:12:17.000Z</time>
      </trkpt>
      <trkpt lat="50.62436" lon="5.45749">
        <ele>183.5</ele>
        <time>2019-10-02T07:12:19.000Z</time>
      </trkpt>
      <trkpt lat="50.6243" lon="5.45737">
        <ele>186.39999389648</ele>
        <time>2019-10-02T07:12:26.000Z</time>
        <extensions>
          <gpxtpx:TrackPointExtension xmlns:gpxtpx="http://www.garmin.com/xmlschemas/TrackPointExtension/v1">
            <gpxtpx:hr>101</gpxtpx:hr>
          </gpxtpx:TrackPointExtension>
        </extensions>
      </trkpt>
      <trkpt lat="50.62418" lon="5.4572">
        <ele>187.19999694824</ele>
        <time>2019-10-02T07:12:35.000Z</time>
        <extensions>
          <gpxtpx:TrackPointExtension xmlns:gpxtpx="http://www.garmin.com/xmlschemas/TrackPointExtension/v1">
            <gpxtpx:hr>105</gpxtpx:hr>
          </gpxtpx:TrackPointExtension>
        </extensions>
      </trkpt>
      <trkpt lat="50.62409" lon="5.45707">
        <ele>187.39999389648</ele>
        <time>2019-10-02T07:12:43.000Z</time>
        <extensions>
          <gpxtpx:TrackPointExtension xmlns:gpxtpx="http://www.garmin.com/xmlschemas/TrackPointExtension/v1">
            <gpxtpx:hr>108</gpxtpx:hr>
          </gpxtpx:TrackPointExtension>
        </extensions>
      </trkpt>
      <trkpt lat="50.62401" lon="5.45695">
        <ele>187.80000305176</ele>
        <time>2019-10-02T07:12:52.000Z</time>
        <extensions>
          <gpxtpx:TrackPointExtension xmlns:gpxtpx="http://www.garmin.com/xmlschemas/TrackPointExtension/v1">
            <gpxtpx:hr>111</gpxtpx:hr>
          </gpxtpx:TrackPointExtension>
        </extensions>
      </trkpt>
      <trkpt lat="50.62393" lon="5.45681">
        <ele>188.19999694824</ele>
        <time>2019-10-02T07:12:55.000Z</time>
        <extensions>
          <gpxtpx:TrackPointExtension xmlns:gpxtpx="http://www.garmin.com/xmlschemas/TrackPointExtension/v1">
            <gpxtpx:hr>114</gpxtpx:hr>
          </gpxtpx:TrackPointExtension>
        </extensions>
      </trkpt>
      <trkpt lat="50.62383" lon="5.45665">
        <ele>184</ele>
        <time>2019-10-02T07:12:57.000Z</time>
      </trkpt>
      <trkpt lat="50.62353" lon="5.45617">
        <ele>184</ele>
        <time>2019-10-02T07:12:59.000Z</time>
      </trkpt>
      <trkpt lat="50.62339" lon="5.45593">
        <ele>184</ele>
        <time>2019-10-02T07:13:07.000Z</time>
      </trkpt>
      <trkpt lat="50.62337" lon="5.45571">
        <ele>184.2</ele>
        <time>2019-10-02T07:13:08.000Z</time>
      </trkpt>
      <trkpt lat="50.62335" lon="5.45541">
        <ele>184.5</ele>
        <time>2019-10-02T07:13:12.000Z</time>
      </trkpt>
      <trkpt lat="50.62331" lon="5.45463">
        <ele>184.1</ele>
        <time>2019-10-02T07:13:15.000Z</time>
      </trkpt>
      <trkpt lat="50.6233" lon="5.45402">
        <ele>186.2</ele>
        <time>2019-10-02T07:13:24.000Z</time>
      </trkpt>
      <trkpt lat="50.62328" lon="5.45347">
        <ele>187.3</ele>
        <time>2019-10-02T07:13:33.000Z</time>
      </trkpt>
      <trkpt lat="50.62326" lon="5.45303">
        <ele>186.7</ele>
        <time>2019-10-02T07:13:36.000Z</time>
      </trkpt>
      <trkpt lat="50.62323" lon="5.45234">
        <ele>185.9</ele>
        <time>2019-10-02T07:13:43.000Z</time>
      </trkpt>
      <trkpt lat="50.62322" lon="5.45201">
        <ele>185.8</ele>
        <time>2019-10-02T07:13:50.000Z</time>
      </trkpt>
      <trkpt lat="50.6232" lon="5.45144">
        <ele>186.1</ele>
        <time>2019-10-02T07:13:51.000Z</time>
      </trkpt>
      <trkpt lat="50.62317" lon="5.45046">
        <ele>186.8</ele>
        <time>2019-10-02T07:13:53.000Z</time>
      </trkpt>
      <trkpt lat="50.62317" lon="5.44989">
        <ele>187.4</ele>
        <time>2019-10-02T07:13:59.000Z</time>
      </trkpt>
      <trkpt lat="50.62322" lon="5.44916">
        <ele>187.9</ele>
        <time>2019-10-02T07:14:02.000Z</time>
      </trkpt>
      <trkpt lat="50.62324" lon="5.44877">
        <ele>187.7</ele>
        <time>2019-10-02T07:14:03.000Z</time>
      </trkpt>
      <trkpt lat="50.6233" lon="5.4483">
        <ele>187.7</ele>
        <time>2019-10-02T07:14:09.000Z</time>
      </trkpt>
      <trkpt lat="50.62333" lon="5.44791">
        <ele>187.1</ele>
        <time>2019-10-02T07:14:13.000Z</time>
      </trkpt>
      <trkpt lat="50.62337" lon="5.44748">
        <ele>188.1</ele>
        <time>2019-10-02T07:14:17.000Z</time>
      </trkpt>
      <trkpt lat="50.62345" lon="5.44662">
        <ele>189.1</ele>
        <time>2019-10-02T07:14:22.000Z</time>
      </trkpt>
      <trkpt lat="50.62352" lon="5.44612">
        <ele>189</ele>
        <time>2019-10-02T07:14:23.000Z</time>
      </trkpt>
      <trkpt lat="50.62353" lon="5.44582">
        <ele>188.2</ele>
        <time>2019-10-02T07:14:27.000Z</time>
      </trkpt>
      <trkpt lat="50.62355" lon="5.44532">
        <ele>187.8</ele>
        <time>2019-10-02T07:14:31.000Z</time>
      </trkpt>
      <trkpt lat="50.62354" lon="5.445">
        <ele>187.3</ele>
        <time>2019-10-02T07:14:34.000Z</time>
      </trkpt>
      <trkpt lat="50.62351" lon="5.44456">
        <ele>186.3</ele>
        <time>2019-10-02T07:14:41.000Z</time>
      </trkpt>
      <trkpt lat="50.62348" lon="5.44412">
        <ele>185.3</ele>
        <time>2019-10-02T07:14:44.000Z</time>
      </trkpt>
      <trkpt lat="50.62344" lon="5.44385">
        <ele>186</ele>
        <time>2019-10-02T07:14:49.000Z</time>
      </trkpt>
      <trkpt lat="50.62339" lon="5.4434">
        <ele>186.2</ele>
        <time>2019-10-02T07:14:51.000Z</time>
      </trkpt>
      <trkpt lat="50.62333" lon="5.4431">
        <ele>186.4</ele>
        <time>2019-10-02T07:14:54.000Z</time>
      </trkpt>
      <trkpt lat="50.62326" lon="5.44277">
        <ele>186.6</ele>
        <time>2019-10-02T07:15:01.000Z</time>
      </trkpt>
      <trkpt lat="50.6232" lon="5.44253">
        <ele>186.8</ele>
        <time>2019-10-02T07:15:02.000Z</time>
      </trkpt>
      <trkpt lat="50.62315" lon="5.44231">
        <ele>186.3</ele>
        <time>2019-10-02T07:15:07.000Z</time>
      </trkpt>
      <trkpt lat="50.62306" lon="5.44197">
        <ele>186</ele>
        <time>2019-10-02T07:15:09.000Z</time>
      </trkpt>
      <trkpt lat="50.62304" lon="5.44181">
        <ele>185.9</ele>
        <time>2019-10-02T07:15:11.000Z</time>
      </trkpt>
      <trkpt lat="50.62304" lon="5.44168">
        <ele>185.9</ele>
        <time>2019-10-02T07:15:16.000Z</time>
      </trkpt>
      <trkpt lat="50.62306" lon="5.4415">
        <ele>192.80000305176</ele>
        <time>2019-10-02T07:15:17.000Z</time>
        <extensions>
          <gpxtpx:TrackPointExtension xmlns:gpxtpx="http://www.garmin.com/xmlschemas/TrackPointExtension/v1">
            <gpxtpx:hr>87</gpxtpx:hr>
          </gpxtpx:TrackPointExtension>
        </extensions>
      </trkpt>
      <trkpt lat="50.62307" lon="5.4414">
        <ele>192.60000610352</ele>
        <time>2019-10-02T07:15:20.000Z</time>
        <extensions>
          <gpxtpx:TrackPointExtension xmlns:gpxtpx="http://www.garmin.com/xmlschemas/TrackPointExtension/v1">
            <gpxtpx:hr>87</gpxtpx:hr>
          </gpxtpx:TrackPointExtension>
        </extensions>
      </trkpt>
      <trkpt lat="50.62315" lon="5.44111">
        <ele>192.39999389648</ele>
        <time>2019-10-02T07:15:22.000Z</time>
        <extensions>
          <gpxtpx:TrackPointExtension xmlns:gpxtpx="http://www.garmin.com/xmlschemas/TrackPointExtension/v1">
            <gpxtpx:hr>85</gpxtpx:hr>
          </gpxtpx:TrackPointExtension>
        </extensions>
      </trkpt>
      <trkpt lat="50.6232" lon="5.44103">
        <ele>192.39999389648</ele>
        <time>2019-10-02T07:15:25.000Z</time>
        <extensions>
          <gpxtpx:TrackPointExtension xmlns:gpxtpx="http://www.garmin.com/xmlschemas/TrackPointExtension/v1">
            <gpxtpx:hr>84</gpxtpx:hr>
          </gpxtpx:TrackPointExtension>
        </extensions>
      </trkpt>
      <trkpt lat="50.62324" lon="5.44095">
        <ele>192.19999694824</ele>
        <time>2019-10-02T07:15:29.000Z</time>
        <extensions>
          <gpxtpx:TrackPointExtension xmlns:gpxtpx="http://www.garmin.com/xmlschemas/TrackPointExtension/v1">
            <gpxtpx:hr>84</gpxtpx:hr>
          </gpxtpx:TrackPointExtension>
        </extensions>
      </trkpt>
      <trkpt lat="50.62344" lon="5.44058">
        <ele>191.39999389648</ele>
        <time>2019-10-02T07:15:34.000Z</time>
        <extensions>
          <gpxtpx:TrackPointExtension xmlns:gpxtpx="http://www.garmin.com/xmlschemas/TrackPointExtension/v1">
            <gpxtpx:hr>83</gpxtpx:hr>
          </gpxtpx:TrackPointExtension>
        </extensions>
      </trkpt>
      <trkpt lat="50.62348" lon="5.44051">
        <ele>191.19999694824</ele>
        <time>2019-10-02T07:15:37.000Z</time>
        <extensions>
          <gpxtpx:TrackPointExtension xmlns:gpxtpx="http://www.garmin.com/xmlschemas/TrackPointExtension/v1">
            <gpxtpx:hr>83</gpxtpx:hr>
          </gpxtpx:TrackPointExtension>
        </extensions>
      </trkpt>
      <trkpt lat="50.6236" lon="5.4403">
        <ele>191</ele>
        <time>2019-10-02T07:16:02.000Z</time>
        <extensions>
          <gpxtpx:TrackPointExtension xmlns:gpxtpx="http://www.garmin.com/xmlschemas/TrackPointExtension/v1">
            <gpxtpx:hr>86</gpxtpx:hr>
          </gpxtpx:TrackPointExtension>
        </extensions>
      </trkpt>
      <trkpt lat="50.6237" lon="5.44013">
        <ele>186</ele>
        <time>2019-10-02T07:16:15.000Z</time>
      </trkpt>
      <trkpt lat="50.62372" lon="5.43999">
        <ele>190.80000305176</ele>
        <time>2019-10-02T07:16:16.000Z</time>
        <extensions>
          <gpxtpx:TrackPointExtension xmlns:gpxtpx="http://www.garmin.com/xmlschemas/TrackPointExtension/v1">
            <gpxtpx:hr>88</gpxtpx:hr>
          </gpxtpx:TrackPointExtension>
        </extensions>
      </trkpt>
      <trkpt lat="50.62373" lon="5.43973">
        <ele>190.80000305176</ele>
        <time>2019-10-02T07:16:21.000Z</time>
        <extensions>
          <gpxtpx:TrackPointExtension xmlns:gpxtpx="http://www.garmin.com/xmlschemas/TrackPointExtension/v1">
            <gpxtpx:hr>87</gpxtpx:hr>
          </gpxtpx:TrackPointExtension>
        </extensions>
      </trkpt>
      <trkpt lat="50.62368" lon="5.43953">
        <ele>185.2</ele>
        <time>2019-10-02T07:16:23.000Z</time>
      </trkpt>
      <trkpt lat="50.62359" lon="5.43909">
        <ele>184.2</ele>
        <time>2019-10-02T07:16:24.000Z</time>
      </trkpt>
      <trkpt lat="50.62344" lon="5.43844">
        <ele>183.1</ele>
        <time>2019-10-02T07:16:26.000Z</time>
      </trkpt>
      <trkpt lat="50.62333" lon="5.43792">
        <ele>181.1</ele>
        <time>2019-10-02T07:16:30.000Z</time>
      </trkpt>
      <trkpt lat="50.62327" lon="5.43768">
        <ele>182</ele>
        <time>2019-10-02T07:16:31.000Z</time>
      </trkpt>
      <trkpt lat="50.62313" lon="5.43729">
        <ele>183.3</ele>
        <time>2019-10-02T07:16:46.000Z</time>
      </trkpt>
      <trkpt lat="50.62302" lon="5.43699">
        <ele>183.5</ele>
        <time>2019-10-02T07:16:50.000Z</time>
      </trkpt>
      <trkpt lat="50.62294" lon="5.43675">
        <ele>188.60000610352</ele>
        <time>2019-10-02T07:16:56.000Z</time>
        <extensions>
          <gpxtpx:TrackPointExtension xmlns:gpxtpx="http://www.garmin.com/xmlschemas/TrackPointExtension/v1">
            <gpxtpx:hr>95</gpxtpx:hr>
          </gpxtpx:TrackPointExtension>
        </extensions>
      </trkpt>
      <trkpt lat="50.62287" lon="5.43659">
        <ele>186.2</ele>
        <time>2019-10-02T07:17:06.000Z</time>
      </trkpt>
      <trkpt lat="50.62276" lon="5.43629">
        <ele>189.60000610352</ele>
        <time>2019-10-02T07:17:07.000Z</time>
        <extensions>
          <gpxtpx:TrackPointExtension xmlns:gpxtpx="http://www.garmin.com/xmlschemas/TrackPointExtension/v1">
            <gpxtpx:hr>99</gpxtpx:hr>
          </gpxtpx:TrackPointExtension>
        </extensions>
      </trkpt>
      <trkpt lat="50.62265" lon="5.43602">
        <ele>190.19999694824</ele>
        <time>2019-10-02T07:17:08.000Z</time>
        <extensions>
          <gpxtpx:TrackPointExtension xmlns:gpxtpx="http://www.garmin.com/xmlschemas/TrackPointExtension/v1">
            <gpxtpx:hr>99</gpxtpx:hr>
          </gpxtpx:TrackPointExtension>
        </extensions>
      </trkpt>
      <trkpt lat="50.62261" lon="5.43593">
        <ele>190.39999389648</ele>
        <time>2019-10-02T07:17:18.000Z</time>
        <extensions>
          <gpxtpx:TrackPointExtension xmlns:gpxtpx="http://www.garmin.com/xmlschemas/TrackPointExtension/v1">
            <gpxtpx:hr>100</gpxtpx:hr>
          </gpxtpx:TrackPointExtension>
        </extensions>
      </trkpt>
      <trkpt lat="50.62253" lon="5.43571">
        <ele>191.19999694824</ele>
        <time>2019-10-02T07:17:19.000Z</time>
        <extensions>
          <gpxtpx:TrackPointExtension xmlns:gpxtpx="http://www.garmin.com/xmlschemas/TrackPointExtension/v1">
            <gpxtpx:hr>101</gpxtpx:hr>
          </gpxtpx:TrackPointExtension>
        </extensions>
      </trkpt>
      <trkpt lat="50.62248" lon="5.43558">
        <ele>191.60000610352</ele>
        <time>2019-10-02T07:17:25.000Z</time>
        <extensions>
          <gpxtpx:TrackPointExtension xmlns:gpxtpx="http://www.garmin.com/xmlschemas/TrackPointExtension/v1">
            <gpxtpx:hr>103</gpxtpx:hr>
          </gpxtpx:TrackPointExtension>
        </extensions>
      </trkpt>
      <trkpt lat="50.62238" lon="5.43535">
        <ele>188.1</ele>
        <time>2019-10-02T07:18:10.000Z</time>
      </trkpt>
      <trkpt lat="50.62228" lon="5.43508">
        <ele>188.6</ele>
        <time>2019-10-02T07:18:14.000Z</time>
      </trkpt>
      <trkpt lat="50.62233" lon="5.43493">
        <ele>193.60000610352</ele>
        <time>2019-10-02T07:18:40.000Z</time>
        <extensions>
          <gpxtpx:TrackPointExtension xmlns:gpxtpx="http://www.garmin.com/xmlschemas/TrackPointExtension/v1">
            <gpxtpx:hr>103</gpxtpx:hr>
          </gpxtpx:TrackPointExtension>
        </extensions>
      </trkpt>
      <trkpt lat="50.62231" lon="5.43476">
        <ele>189.8</ele>
        <time>2019-10-02T07:18:43.000Z</time>
      </trkpt>
      <trkpt lat="50.62223" lon="5.43468">
        <ele>189.6</ele>
        <time>2019-10-02T07:18:52.000Z</time>
      </trkpt>
      <trkpt lat="50.62212" lon="5.43466">
        <ele>189.3</ele>
        <time>2019-10-02T07:19:03.000Z</time>
      </trkpt>
      <trkpt lat="50.62208" lon="5.43456">
        <ele>194.80000305176</ele>
        <time>2019-10-02T07:19:12.000Z</time>
        <extensions>
          <gpxtpx:TrackPointExtension xmlns:gpxtpx="http://www.garmin.com/xmlschemas/TrackPointExtension/v1">
            <gpxtpx:hr>106</gpxtpx:hr>
          </gpxtpx:TrackPointExtension>
        </extensions>
      </trkpt>
      <trkpt lat="50.62195" lon="5.4342">
        <ele>195.39999389648</ele>
        <time>2019-10-02T07:19:14.000Z</time>
        <extensions>
          <gpxtpx:TrackPointExtension xmlns:gpxtpx="http://www.garmin.com/xmlschemas/TrackPointExtension/v1">
            <gpxtpx:hr>108</gpxtpx:hr>
          </gpxtpx:TrackPointExtension>
        </extensions>
      </trkpt>
      <trkpt lat="50.62181" lon="5.43379">
        <ele>195.60000610352</ele>
        <time>2019-10-02T07:19:23.000Z</time>
        <extensions>
          <gpxtpx:TrackPointExtension xmlns:gpxtpx="http://www.garmin.com/xmlschemas/TrackPointExtension/v1">
            <gpxtpx:hr>111</gpxtpx:hr>
          </gpxtpx:TrackPointExtension>
        </extensions>
      </trkpt>
      <trkpt lat="50.62179" lon="5.43372">
        <ele>195.60000610352</ele>
        <time>2019-10-02T07:19:28.000Z</time>
        <extensions>
          <gpxtpx:TrackPointExtension xmlns:gpxtpx="http://www.garmin.com/xmlschemas/TrackPointExtension/v1">
            <gpxtpx:hr>111</gpxtpx:hr>
          </gpxtpx:TrackPointExtension>
        </extensions>
      </trkpt>
      <trkpt lat="50.62171" lon="5.43353">
        <ele>195.60000610352</ele>
        <time>2019-10-02T07:19:30.000Z</time>
        <extensions>
          <gpxtpx:TrackPointExtension xmlns:gpxtpx="http://www.garmin.com/xmlschemas/TrackPointExtension/v1">
            <gpxtpx:hr>114</gpxtpx:hr>
          </gpxtpx:TrackPointExtension>
        </extensions>
      </trkpt>
      <trkpt lat="50.62167" lon="5.4334">
        <ele>195.80000305176</ele>
        <time>2019-10-02T07:19:32.000Z</time>
        <extensions>
          <gpxtpx:TrackPointExtension xmlns:gpxtpx="http://www.garmin.com/xmlschemas/TrackPointExtension/v1">
            <gpxtpx:hr>116</gpxtpx:hr>
          </gpxtpx:TrackPointExtension>
        </extensions>
      </trkpt>
      <trkpt lat="50.62155" lon="5.43311">
        <ele>196.60000610352</ele>
        <time>2019-10-02T07:19:33.000Z</time>
        <extensions>
          <gpxtpx:TrackPointExtension xmlns:gpxtpx="http://www.garmin.com/xmlschemas/TrackPointExtension/v1">
            <gpxtpx:hr>119</gpxtpx:hr>
          </gpxtpx:TrackPointExtension>
        </extensions>
      </trkpt>
      <trkpt lat="50.62146" lon="5.43296">
        <ele>196.80000305176</ele>
        <time>2019-10-02T07:19:40.000Z</time>
        <extensions>
          <gpxtpx:TrackPointExtension xmlns:gpxtpx="http://www.garmin.com/xmlschemas/TrackPointExtension/v1">
            <gpxtpx:hr>120</gpxtpx:hr>
          </gpxtpx:TrackPointExtension>
        </extensions>
      </trkpt>
      <trkpt lat="50.62138" lon="5.43287">
        <ele>191.9</ele>
        <time>2019-10-02T07:19:42.000Z</time>
      </trkpt>
      <trkpt lat="50.62127" lon="5.43276">
        <ele>191.8</ele>
        <time>2019-10-02T07:19:48.000Z</time>
      </trkpt>
      <trkpt lat="50.621" lon="5.43248">
        <ele>191.8</ele>
        <time>2019-10-02T07:19:57.000Z</time>
      </trkpt>
      <trkpt lat="50.62071" lon="5.43215">
        <ele>190.1</ele>
        <time>2019-10-02T07:19:59.000Z</time>
      </trkpt>
      <trkpt lat="50.6204" lon="5.43186">
        <ele>190.3</ele>
        <time>2019-10-02T07:20:01.000Z</time>
      </trkpt>
      <trkpt lat="50.62026" lon="5.43175">
        <ele>190.3</ele>
        <time>2019-10-02T07:20:05.000Z</time>
      </trkpt>
      <trkpt lat="50.62012" lon="5.43165">
        <ele>191.8</ele>
        <time>2019-10-02T07:20:14.000Z</time>
      </trkpt>
      <trkpt lat="50.6199" lon="5.43152">
        <ele>197</ele>
        <time>2019-10-02T07:20:15.000Z</time>
        <extensions>
          <gpxtpx:TrackPointExtension xmlns:gpxtpx="http://www.garmin.com/xmlschemas/TrackPointExtension/v1">
            <gpxtpx:hr>114</gpxtpx:hr>
          </gpxtpx:TrackPointExtension>
        </extensions>
      </trkpt>
      <trkpt lat="50.61986" lon="5.43149">
        <ele>197</ele>
        <time>2019-10-02T07:20:24.000Z</time>
        <extensions>
          <gpxtpx:TrackPointExtension xmlns:gpxtpx="http://www.garmin.com/xmlschemas/TrackPointExtension/v1">
            <gpxtpx:hr>113</gpxtpx:hr>
          </gpxtpx:TrackPointExtension>
        </extensions>
      </trkpt>
      <trkpt lat="50.61972" lon="5.43137">
        <ele>197.19999694824</ele>
        <time>2019-10-02T07:20:26.000Z</time>
        <extensions>
          <gpxtpx:TrackPointExtension xmlns:gpxtpx="http://www.garmin.com/xmlschemas/TrackPointExtension/v1">
            <gpxtpx:hr>110</gpxtpx:hr>
          </gpxtpx:TrackPointExtension>
        </extensions>
      </trkpt>
      <trkpt lat="50.61959" lon="5.43127">
        <ele>190</ele>
        <time>2019-10-02T07:20:33.000Z</time>
      </trkpt>
      <trkpt lat="50.61939" lon="5.431">
        <ele>189.7</ele>
        <time>2019-10-02T07:20:36.000Z</time>
      </trkpt>
      <trkpt lat="50.61919" lon="5.43074">
        <ele>190.2</ele>
        <time>2019-10-02T07:20:44.000Z</time>
      </trkpt>
      <trkpt lat="50.61901" lon="5.43048">
        <ele>189.4</ele>
        <time>2019-10-02T07:20:52.000Z</time>
      </trkpt>
      <trkpt lat="50.61868" lon="5.43">
        <ele>191.8</ele>
        <time>2019-10-02T07:20:57.000Z</time>
      </trkpt>
      <trkpt lat="50.61839" lon="5.42959">
        <ele>191.8</ele>
        <time>2019-10-02T07:21:00.000Z</time>
      </trkpt>
      <trkpt lat="50.61806" lon="5.42925">
        <ele>196.60000610352</ele>
        <time>2019-10-02T07:21:01.000Z</time>
        <extensions>
          <gpxtpx:TrackPointExtension xmlns:gpxtpx="http://www.garmin.com/xmlschemas/TrackPointExtension/v1">
            <gpxtpx:hr>100</gpxtpx:hr>
          </gpxtpx:TrackPointExtension>
        </extensions>
      </trkpt>
      <trkpt lat="50.61784" lon="5.42902">
        <ele>196.60000610352</ele>
        <time>2019-10-02T07:21:07.000Z</time>
        <extensions>
          <gpxtpx:TrackPointExtension xmlns:gpxtpx="http://www.garmin.com/xmlschemas/TrackPointExtension/v1">
            <gpxtpx:hr>97</gpxtpx:hr>
          </gpxtpx:TrackPointExtension>
        </extensions>
      </trkpt>
      <trkpt lat="50.61776" lon="5.42886">
        <ele>196.39999389648</ele>
        <time>2019-10-02T07:21:09.000Z</time>
        <extensions>
          <gpxtpx:TrackPointExtension xmlns:gpxtpx="http://www.garmin.com/xmlschemas/TrackPointExtension/v1">
            <gpxtpx:hr>95</gpxtpx:hr>
          </gpxtpx:TrackPointExtension>
        </extensions>
      </trkpt>
      <trkpt lat="50.61769" lon="5.42875">
        <ele>187</ele>
        <time>2019-10-02T07:22:17.000Z</time>
      </trkpt>
      <trkpt lat="50.61769" lon="5.42857">
        <ele>186.6</ele>
        <time>2019-10-02T07:22:19.000Z</time>
      </trkpt>
      <trkpt lat="50.61776" lon="5.42824">
        <ele>195.39999389648</ele>
        <time>2019-10-02T07:22:28.000Z</time>
        <extensions>
          <gpxtpx:TrackPointExtension xmlns:gpxtpx="http://www.garmin.com/xmlschemas/TrackPointExtension/v1">
            <gpxtpx:hr>91</gpxtpx:hr>
          </gpxtpx:TrackPointExtension>
        </extensions>
      </trkpt>
      <trkpt lat="50.6178" lon="5.42814">
        <ele>195</ele>
        <time>2019-10-02T07:22:37.000Z</time>
        <extensions>
          <gpxtpx:TrackPointExtension xmlns:gpxtpx="http://www.garmin.com/xmlschemas/TrackPointExtension/v1">
            <gpxtpx:hr>90</gpxtpx:hr>
          </gpxtpx:TrackPointExtension>
        </extensions>
      </trkpt>
      <trkpt lat="50.61784" lon="5.42803">
        <ele>194.80000305176</ele>
        <time>2019-10-02T07:22:38.000Z</time>
        <extensions>
          <gpxtpx:TrackPointExtension xmlns:gpxtpx="http://www.garmin.com/xmlschemas/TrackPointExtension/v1">
            <gpxtpx:hr>90</gpxtpx:hr>
          </gpxtpx:TrackPointExtension>
        </extensions>
      </trkpt>
      <trkpt lat="50.61797" lon="5.42771">
        <ele>193.60000610352</ele>
        <time>2019-10-02T07:22:46.000Z</time>
        <extensions>
          <gpxtpx:TrackPointExtension xmlns:gpxtpx="http://www.garmin.com/xmlschemas/TrackPointExtension/v1">
            <gpxtpx:hr>91</gpxtpx:hr>
          </gpxtpx:TrackPointExtension>
        </extensions>
      </trkpt>
      <trkpt lat="50.618" lon="5.42759">
        <ele>193.39999389648</ele>
        <time>2019-10-02T07:22:47.000Z</time>
        <extensions>
          <gpxtpx:TrackPointExtension xmlns:gpxtpx="http://www.garmin.com/xmlschemas/TrackPointExtension/v1">
            <gpxtpx:hr>91</gpxtpx:hr>
          </gpxtpx:TrackPointExtension>
        </extensions>
      </trkpt>
      <trkpt lat="50.6181" lon="5.4271">
        <ele>192.39999389648</ele>
        <time>2019-10-02T07:22:55.000Z</time>
        <extensions>
          <gpxtpx:TrackPointExtension xmlns:gpxtpx="http://www.garmin.com/xmlschemas/TrackPointExtension/v1">
            <gpxtpx:hr>93</gpxtpx:hr>
          </gpxtpx:TrackPointExtension>
        </extensions>
      </trkpt>
      <trkpt lat="50.61812" lon="5.42699">
        <ele>192</ele>
        <time>2019-10-02T07:22:56.000Z</time>
        <extensions>
          <gpxtpx:TrackPointExtension xmlns:gpxtpx="http://www.garmin.com/xmlschemas/TrackPointExtension/v1">
            <gpxtpx:hr>93</gpxtpx:hr>
          </gpxtpx:TrackPointExtension>
        </extensions>
      </trkpt>
      <trkpt lat="50.61818" lon="5.42658">
        <ele>191.39999389648</ele>
        <time>2019-10-02T07:23:02.000Z</time>
        <extensions>
          <gpxtpx:TrackPointExtension xmlns:gpxtpx="http://www.garmin.com/xmlschemas/TrackPointExtension/v1">
            <gpxtpx:hr>94</gpxtpx:hr>
          </gpxtpx:TrackPointExtension>
        </extensions>
      </trkpt>
      <trkpt lat="50.61819" lon="5.42649">
        <ele>191.19999694824</ele>
        <time>2019-10-02T07:23:05.000Z</time>
        <extensions>
          <gpxtpx:TrackPointExtension xmlns:gpxtpx="http://www.garmin.com/xmlschemas/TrackPointExtension/v1">
            <gpxtpx:hr>94</gpxtpx:hr>
          </gpxtpx:TrackPointExtension>
        </extensions>
      </trkpt>
      <trkpt lat="50.61819" lon="5.4263">
        <ele>191.19999694824</ele>
        <time>2019-10-02T07:23:14.000Z</time>
        <extensions>
          <gpxtpx:TrackPointExtension xmlns:gpxtpx="http://www.garmin.com/xmlschemas/TrackPointExtension/v1">
            <gpxtpx:hr>95</gpxtpx:hr>
          </gpxtpx:TrackPointExtension>
        </extensions>
      </trkpt>
      <trkpt lat="50.61816" lon="5.42604">
        <ele>191.19999694824</ele>
        <time>2019-10-02T07:23:16.000Z</time>
        <extensions>
          <gpxtpx:TrackPointExtension xmlns:gpxtpx="http://www.garmin.com/xmlschemas/TrackPointExtension/v1">
            <gpxtpx:hr>99</gpxtpx:hr>
          </gpxtpx:TrackPointExtension>
        </extensions>
      </trkpt>
      <trkpt lat="50.61811" lon="5.42579">
        <ele>191.60000610352</ele>
        <time>2019-10-02T07:23:23.000Z</time>
        <extensions>
          <gpxtpx:TrackPointExtension xmlns:gpxtpx="http://www.garmin.com/xmlschemas/TrackPointExtension/v1">
            <gpxtpx:hr>102</gpxtpx:hr>
          </gpxtpx:TrackPointExtension>
        </extensions>
      </trkpt>
      <trkpt lat="50.6181" lon="5.42571">
        <ele>191.80000305176</ele>
        <time>2019-10-02T07:23:29.000Z</time>
        <extensions>
          <gpxtpx:TrackPointExtension xmlns:gpxtpx="http://www.garmin.com/xmlschemas/TrackPointExtension/v1">
            <gpxtpx:hr>103</gpxtpx:hr>
          </gpxtpx:TrackPointExtension>
        </extensions>
      </trkpt>
      <trkpt lat="50.61809" lon="5.42546">
        <ele>192.39999389648</ele>
        <time>2019-10-02T07:23:38.000Z</time>
        <extensions>
          <gpxtpx:TrackPointExtension xmlns:gpxtpx="http://www.garmin.com/xmlschemas/TrackPointExtension/v1">
            <gpxtpx:hr>106</gpxtpx:hr>
          </gpxtpx:TrackPointExtension>
        </extensions>
      </trkpt>
      <trkpt lat="50.6181" lon="5.42538">
        <ele>192.60000610352</ele>
        <time>2019-10-02T07:23:39.000Z</time>
        <extensions>
          <gpxtpx:TrackPointExtension xmlns:gpxtpx="http://www.garmin.com/xmlschemas/TrackPointExtension/v1">
            <gpxtpx:hr>107</gpxtpx:hr>
          </gpxtpx:TrackPointExtension>
        </extensions>
      </trkpt>
      <trkpt lat="50.61813" lon="5.42508">
        <ele>193.39999389648</ele>
        <time>2019-10-02T07:23:46.000Z</time>
        <extensions>
          <gpxtpx:TrackPointExtension xmlns:gpxtpx="http://www.garmin.com/xmlschemas/TrackPointExtension/v1">
            <gpxtpx:hr>110</gpxtpx:hr>
          </gpxtpx:TrackPointExtension>
        </extensions>
      </trkpt>
      <trkpt lat="50.61815" lon="5.425">
        <ele>193.80000305176</ele>
        <time>2019-10-02T07:23:49.000Z</time>
        <extensions>
          <gpxtpx:TrackPointExtension xmlns:gpxtpx="http://www.garmin.com/xmlschemas/TrackPointExtension/v1">
            <gpxtpx:hr>112</gpxtpx:hr>
          </gpxtpx:TrackPointExtension>
        </extensions>
      </trkpt>
      <trkpt lat="50.61816" lon="5.42493">
        <ele>194</ele>
        <time>2019-10-02T07:23:59.000Z</time>
        <extensions>
          <gpxtpx:TrackPointExtension xmlns:gpxtpx="http://www.garmin.com/xmlschemas/TrackPointExtension/v1">
            <gpxtpx:hr>113</gpxtpx:hr>
          </gpxtpx:TrackPointExtension>
        </extensions>
      </trkpt>
      <trkpt lat="50.61817" lon="5.42485">
        <ele>194.19999694824</ele>
        <time>2019-10-02T07:24:00.000Z</time>
        <extensions>
          <gpxtpx:TrackPointExtension xmlns:gpxtpx="http://www.garmin.com/xmlschemas/TrackPointExtension/v1">
            <gpxtpx:hr>114</gpxtpx:hr>
          </gpxtpx:TrackPointExtension>
        </extensions>
      </trkpt>
      <trkpt lat="50.61825" lon="5.42456">
        <ele>194.80000305176</ele>
        <time>2019-10-02T07:24:09.000Z</time>
        <extensions>
          <gpxtpx:TrackPointExtension xmlns:gpxtpx="http://www.garmin.com/xmlschemas/TrackPointExtension/v1">
            <gpxtpx:hr>117</gpxtpx:hr>
          </gpxtpx:TrackPointExtension>
        </extensions>
      </trkpt>
      <trkpt lat="50.61841" lon="5.42416">
        <ele>195.80000305176</ele>
        <time>2019-10-02T07:24:10.000Z</time>
        <extensions>
          <gpxtpx:TrackPointExtension xmlns:gpxtpx="http://www.garmin.com/xmlschemas/TrackPointExtension/v1">
            <gpxtpx:hr>120</gpxtpx:hr>
          </gpxtpx:TrackPointExtension>
        </extensions>
      </trkpt>
      <trkpt lat="50.61844" lon="5.42409">
        <ele>196</ele>
        <time>2019-10-02T07:24:14.000Z</time>
        <extensions>
          <gpxtpx:TrackPointExtension xmlns:gpxtpx="http://www.garmin.com/xmlschemas/TrackPointExtension/v1">
            <gpxtpx:hr>120</gpxtpx:hr>
          </gpxtpx:TrackPointExtension>
        </extensions>
      </trkpt>
      <trkpt lat="50.61847" lon="5.42402">
        <ele>196</ele>
        <time>2019-10-02T07:24:17.000Z</time>
        <extensions>
          <gpxtpx:TrackPointExtension xmlns:gpxtpx="http://www.garmin.com/xmlschemas/TrackPointExtension/v1">
            <gpxtpx:hr>120</gpxtpx:hr>
          </gpxtpx:TrackPointExtension>
        </extensions>
      </trkpt>
      <trkpt lat="50.61876" lon="5.42334">
        <ele>196.39999389648</ele>
        <time>2019-10-02T07:24:19.000Z</time>
        <extensions>
          <gpxtpx:TrackPointExtension xmlns:gpxtpx="http://www.garmin.com/xmlschemas/TrackPointExtension/v1">
            <gpxtpx:hr>121</gpxtpx:hr>
          </gpxtpx:TrackPointExtension>
        </extensions>
      </trkpt>
      <trkpt lat="50.61901" lon="5.42273">
        <ele>195.19999694824</ele>
        <time>2019-10-02T07:24:20.000Z</time>
        <extensions>
          <gpxtpx:TrackPointExtension xmlns:gpxtpx="http://www.garmin.com/xmlschemas/TrackPointExtension/v1">
            <gpxtpx:hr>119</gpxtpx:hr>
          </gpxtpx:TrackPointExtension>
        </extensions>
      </trkpt>
      <trkpt lat="50.61903" lon="5.42263">
        <ele>195.19999694824</ele>
        <time>2019-10-02T07:24:23.000Z</time>
        <extensions>
          <gpxtpx:TrackPointExtension xmlns:gpxtpx="http://www.garmin.com/xmlschemas/TrackPointExtension/v1">
            <gpxtpx:hr>119</gpxtpx:hr>
          </gpxtpx:TrackPointExtension>
        </extensions>
      </trkpt>
      <trkpt lat="50.61906" lon="5.42231">
        <ele>194.80000305176</ele>
        <time>2019-10-02T07:24:28.000Z</time>
        <extensions>
          <gpxtpx:TrackPointExtension xmlns:gpxtpx="http://www.garmin.com/xmlschemas/TrackPointExtension/v1">
            <gpxtpx:hr>117</gpxtpx:hr>
          </gpxtpx:TrackPointExtension>
        </extensions>
      </trkpt>
      <trkpt lat="50.61906" lon="5.4222">
        <ele>194.60000610352</ele>
        <time>2019-10-02T07:24:29.000Z</time>
        <extensions>
          <gpxtpx:TrackPointExtension xmlns:gpxtpx="http://www.garmin.com/xmlschemas/TrackPointExtension/v1">
            <gpxtpx:hr>116</gpxtpx:hr>
          </gpxtpx:TrackPointExtension>
        </extensions>
      </trkpt>
      <trkpt lat="50.61905" lon="5.42175">
        <ele>187.2</ele>
        <time>2019-10-02T07:24:37.000Z</time>
      </trkpt>
      <trkpt lat="50.61902" lon="5.42116">
        <ele>185</ele>
        <time>2019-10-02T07:24:45.000Z</time>
      </trkpt>
      <trkpt lat="50.61898" lon="5.42074">
        <ele>185</ele>
        <time>2019-10-02T07:24:53.000Z</time>
      </trkpt>
      <trkpt lat="50.61895" lon="5.42032">
        <ele>185.1</ele>
        <time>2019-10-02T07:24:59.000Z</time>
      </trkpt>
      <trkpt lat="50.61888" lon="5.41967">
        <ele>186.1</ele>
        <time>2019-10-02T07:25:04.000Z</time>
      </trkpt>
      <trkpt lat="50.61891" lon="5.41909">
        <ele>186.6</ele>
        <time>2019-10-02T07:25:06.000Z</time>
      </trkpt>
      <trkpt lat="50.61894" lon="5.41872">
        <ele>186.6</ele>
        <time>2019-10-02T07:25:13.000Z</time>
      </trkpt>
      <trkpt lat="50.61898" lon="5.41835">
        <ele>186.7</ele>
        <time>2019-10-02T07:25:21.000Z</time>
      </trkpt>
      <trkpt lat="50.619" lon="5.418">
        <ele>186.5</ele>
        <time>2019-10-02T07:25:22.000Z</time>
      </trkpt>
      <trkpt lat="50.61905" lon="5.41757">
        <ele>187</ele>
        <time>2019-10-02T07:25:24.000Z</time>
      </trkpt>
      <trkpt lat="50.6191" lon="5.41731">
        <ele>191.39999389648</ele>
        <time>2019-10-02T07:25:27.000Z</time>
        <extensions>
          <gpxtpx:TrackPointExtension xmlns:gpxtpx="http://www.garmin.com/xmlschemas/TrackPointExtension/v1">
            <gpxtpx:hr>105</gpxtpx:hr>
          </gpxtpx:TrackPointExtension>
        </extensions>
      </trkpt>
      <trkpt lat="50.61917" lon="5.41704">
        <ele>191</ele>
        <time>2019-10-02T07:25:30.000Z</time>
        <extensions>
          <gpxtpx:TrackPointExtension xmlns:gpxtpx="http://www.garmin.com/xmlschemas/TrackPointExtension/v1">
            <gpxtpx:hr>105</gpxtpx:hr>
          </gpxtpx:TrackPointExtension>
        </extensions>
      </trkpt>
      <trkpt lat="50.61924" lon="5.41689">
        <ele>191</ele>
        <time>2019-10-02T07:25:35.000Z</time>
        <extensions>
          <gpxtpx:TrackPointExtension xmlns:gpxtpx="http://www.garmin.com/xmlschemas/TrackPointExtension/v1">
            <gpxtpx:hr>105</gpxtpx:hr>
          </gpxtpx:TrackPointExtension>
        </extensions>
      </trkpt>
      <trkpt lat="50.61933" lon="5.41675">
        <ele>190.80000305176</ele>
        <time>2019-10-02T07:25:39.000Z</time>
        <extensions>
          <gpxtpx:TrackPointExtension xmlns:gpxtpx="http://www.garmin.com/xmlschemas/TrackPointExtension/v1">
            <gpxtpx:hr>104</gpxtpx:hr>
          </gpxtpx:TrackPointExtension>
        </extensions>
      </trkpt>
      <trkpt lat="50.61947" lon="5.41657">
        <ele>190.80000305176</ele>
        <time>2019-10-02T07:25:44.000Z</time>
        <extensions>
          <gpxtpx:TrackPointExtension xmlns:gpxtpx="http://www.garmin.com/xmlschemas/TrackPointExtension/v1">
            <gpxtpx:hr>102</gpxtpx:hr>
          </gpxtpx:TrackPointExtension>
        </extensions>
      </trkpt>
      <trkpt lat="50.61969" lon="5.41628">
        <ele>190.60000610352</ele>
        <time>2019-10-02T07:25:47.000Z</time>
        <extensions>
          <gpxtpx:TrackPointExtension xmlns:gpxtpx="http://www.garmin.com/xmlschemas/TrackPointExtension/v1">
            <gpxtpx:hr>101</gpxtpx:hr>
          </gpxtpx:TrackPointExtension>
        </extensions>
      </trkpt>
      <trkpt lat="50.61974" lon="5.41622">
        <ele>190.60000610352</ele>
        <time>2019-10-02T07:25:55.000Z</time>
        <extensions>
          <gpxtpx:TrackPointExtension xmlns:gpxtpx="http://www.garmin.com/xmlschemas/TrackPointExtension/v1">
            <gpxtpx:hr>101</gpxtpx:hr>
          </gpxtpx:TrackPointExtension>
        </extensions>
      </trkpt>
      <trkpt lat="50.61993" lon="5.41598">
        <ele>190.60000610352</ele>
        <time>2019-10-02T07:26:00.000Z</time>
        <extensions>
          <gpxtpx:TrackPointExtension xmlns:gpxtpx="http://www.garmin.com/xmlschemas/TrackPointExtension/v1">
            <gpxtpx:hr>101</gpxtpx:hr>
          </gpxtpx:TrackPointExtension>
        </extensions>
      </trkpt>
      <trkpt lat="50.62008" lon="5.41579">
        <ele>190.39999389648</ele>
        <time>2019-10-02T07:26:05.000Z</time>
        <extensions>
          <gpxtpx:TrackPointExtension xmlns:gpxtpx="http://www.garmin.com/xmlschemas/TrackPointExtension/v1">
            <gpxtpx:hr>102</gpxtpx:hr>
          </gpxtpx:TrackPointExtension>
        </extensions>
      </trkpt>
      <trkpt lat="50.6205" lon="5.41521">
        <ele>190</ele>
        <time>2019-10-02T07:26:11.000Z</time>
        <extensions>
          <gpxtpx:TrackPointExtension xmlns:gpxtpx="http://www.garmin.com/xmlschemas/TrackPointExtension/v1">
            <gpxtpx:hr>101</gpxtpx:hr>
          </gpxtpx:TrackPointExtension>
        </extensions>
      </trkpt>
      <trkpt lat="50.62093" lon="5.41466">
        <ele>189.60000610352</ele>
        <time>2019-10-02T07:26:15.000Z</time>
        <extensions>
          <gpxtpx:TrackPointExtension xmlns:gpxtpx="http://www.garmin.com/xmlschemas/TrackPointExtension/v1">
            <gpxtpx:hr>101</gpxtpx:hr>
          </gpxtpx:TrackPointExtension>
        </extensions>
      </trkpt>
      <trkpt lat="50.62107" lon="5.41448">
        <ele>189.39999389648</ele>
        <time>2019-10-02T07:26:22.000Z</time>
        <extensions>
          <gpxtpx:TrackPointExtension xmlns:gpxtpx="http://www.garmin.com/xmlschemas/TrackPointExtension/v1">
            <gpxtpx:hr>101</gpxtpx:hr>
          </gpxtpx:TrackPointExtension>
        </extensions>
      </trkpt>
      <trkpt lat="50.62141" lon="5.41404">
        <ele>189.19999694824</ele>
        <time>2019-10-02T07:26:25.000Z</time>
        <extensions>
          <gpxtpx:TrackPointExtension xmlns:gpxtpx="http://www.garmin.com/xmlschemas/TrackPointExtension/v1">
            <gpxtpx:hr>98</gpxtpx:hr>
          </gpxtpx:TrackPointExtension>
        </extensions>
      </trkpt>
      <trkpt lat="50.62176" lon="5.41359">
        <ele>188.60000610352</ele>
        <time>2019-10-02T07:26:29.000Z</time>
        <extensions>
          <gpxtpx:TrackPointExtension xmlns:gpxtpx="http://www.garmin.com/xmlschemas/TrackPointExtension/v1">
            <gpxtpx:hr>95</gpxtpx:hr>
          </gpxtpx:TrackPointExtension>
        </extensions>
      </trkpt>
      <trkpt lat="50.62181" lon="5.41353">
        <ele>188.39999389648</ele>
        <time>2019-10-02T07:26:33.000Z</time>
        <extensions>
          <gpxtpx:TrackPointExtension xmlns:gpxtpx="http://www.garmin.com/xmlschemas/TrackPointExtension/v1">
            <gpxtpx:hr>95</gpxtpx:hr>
          </gpxtpx:TrackPointExtension>
        </extensions>
      </trkpt>
      <trkpt lat="50.62191" lon="5.4134">
        <ele>187.80000305176</ele>
        <time>2019-10-02T07:26:34.000Z</time>
        <extensions>
          <gpxtpx:TrackPointExtension xmlns:gpxtpx="http://www.garmin.com/xmlschemas/TrackPointExtension/v1">
            <gpxtpx:hr>94</gpxtpx:hr>
          </gpxtpx:TrackPointExtension>
        </extensions>
      </trkpt>
      <trkpt lat="50.62201" lon="5.41326">
        <ele>187.60000610352</ele>
        <time>2019-10-02T07:26:38.000Z</time>
        <extensions>
          <gpxtpx:TrackPointExtension xmlns:gpxtpx="http://www.garmin.com/xmlschemas/TrackPointExtension/v1">
            <gpxtpx:hr>91</gpxtpx:hr>
          </gpxtpx:TrackPointExtension>
        </extensions>
      </trkpt>
      <trkpt lat="50.62212" lon="5.41313">
        <ele>187.39999389648</ele>
        <time>2019-10-02T07:26:40.000Z</time>
        <extensions>
          <gpxtpx:TrackPointExtension xmlns:gpxtpx="http://www.garmin.com/xmlschemas/TrackPointExtension/v1">
            <gpxtpx:hr>90</gpxtpx:hr>
          </gpxtpx:TrackPointExtension>
        </extensions>
      </trkpt>
      <trkpt lat="50.62222" lon="5.413">
        <ele>187</ele>
        <time>2019-10-02T07:26:43.000Z</time>
        <extensions>
          <gpxtpx:TrackPointExtension xmlns:gpxtpx="http://www.garmin.com/xmlschemas/TrackPointExtension/v1">
            <gpxtpx:hr>90</gpxtpx:hr>
          </gpxtpx:TrackPointExtension>
        </extensions>
      </trkpt>
      <trkpt lat="50.62238" lon="5.4128">
        <ele>186.60000610352</ele>
        <time>2019-10-02T07:26:50.000Z</time>
        <extensions>
          <gpxtpx:TrackPointExtension xmlns:gpxtpx="http://www.garmin.com/xmlschemas/TrackPointExtension/v1">
            <gpxtpx:hr>88</gpxtpx:hr>
          </gpxtpx:TrackPointExtension>
        </extensions>
      </trkpt>
      <trkpt lat="50.62243" lon="5.41273">
        <ele>186.39999389648</ele>
        <time>2019-10-02T07:26:52.000Z</time>
        <extensions>
          <gpxtpx:TrackPointExtension xmlns:gpxtpx="http://www.garmin.com/xmlschemas/TrackPointExtension/v1">
            <gpxtpx:hr>87</gpxtpx:hr>
          </gpxtpx:TrackPointExtension>
        </extensions>
      </trkpt>
      <trkpt lat="50.62275" lon="5.4123">
        <ele>185.19999694824</ele>
        <time>2019-10-02T07:26:55.000Z</time>
        <extensions>
          <gpxtpx:TrackPointExtension xmlns:gpxtpx="http://www.garmin.com/xmlschemas/TrackPointExtension/v1">
            <gpxtpx:hr>85</gpxtpx:hr>
          </gpxtpx:TrackPointExtension>
        </extensions>
      </trkpt>
      <trkpt lat="50.62292" lon="5.41208">
        <ele>184.60000610352</ele>
        <time>2019-10-02T07:27:01.000Z</time>
        <extensions>
          <gpxtpx:TrackPointExtension xmlns:gpxtpx="http://www.garmin.com/xmlschemas/TrackPointExtension/v1">
            <gpxtpx:hr>83</gpxtpx:hr>
          </gpxtpx:TrackPointExtension>
        </extensions>
      </trkpt>
      <trkpt lat="50.62297" lon="5.41201">
        <ele>184.19999694824</ele>
        <time>2019-10-02T07:27:03.000Z</time>
        <extensions>
          <gpxtpx:TrackPointExtension xmlns:gpxtpx="http://www.garmin.com/xmlschemas/TrackPointExtension/v1">
            <gpxtpx:hr>83</gpxtpx:hr>
          </gpxtpx:TrackPointExtension>
        </extensions>
      </trkpt>
      <trkpt lat="50.62319" lon="5.41172">
        <ele>183.19999694824</ele>
        <time>2019-10-02T07:27:12.000Z</time>
        <extensions>
          <gpxtpx:TrackPointExtension xmlns:gpxtpx="http://www.garmin.com/xmlschemas/TrackPointExtension/v1">
            <gpxtpx:hr>81</gpxtpx:hr>
          </gpxtpx:TrackPointExtension>
        </extensions>
      </trkpt>
      <trkpt lat="50.62346" lon="5.41137">
        <ele>182</ele>
        <time>2019-10-02T07:27:14.000Z</time>
        <extensions>
          <gpxtpx:TrackPointExtension xmlns:gpxtpx="http://www.garmin.com/xmlschemas/TrackPointExtension/v1">
            <gpxtpx:hr>80</gpxtpx:hr>
          </gpxtpx:TrackPointExtension>
        </extensions>
      </trkpt>
      <trkpt lat="50.62352" lon="5.4113">
        <ele>181.80000305176</ele>
        <time>2019-10-02T07:27:22.000Z</time>
        <extensions>
          <gpxtpx:TrackPointExtension xmlns:gpxtpx="http://www.garmin.com/xmlschemas/TrackPointExtension/v1">
            <gpxtpx:hr>80</gpxtpx:hr>
          </gpxtpx:TrackPointExtension>
        </extensions>
      </trkpt>
      <trkpt lat="50.62372" lon="5.41103">
        <ele>180.80000305176</ele>
        <time>2019-10-02T07:27:26.000Z</time>
        <extensions>
          <gpxtpx:TrackPointExtension xmlns:gpxtpx="http://www.garmin.com/xmlschemas/TrackPointExtension/v1">
            <gpxtpx:hr>79</gpxtpx:hr>
          </gpxtpx:TrackPointExtension>
        </extensions>
      </trkpt>
      <trkpt lat="50.62392" lon="5.41078">
        <ele>180.19999694824</ele>
        <time>2019-10-02T07:30:00.000Z</time>
        <extensions>
          <gpxtpx:TrackPointExtension xmlns:gpxtpx="http://www.garmin.com/xmlschemas/TrackPointExtension/v1">
            <gpxtpx:hr>81</gpxtpx:hr>
          </gpxtpx:TrackPointExtension>
        </extensions>
      </trkpt>
      <trkpt lat="50.62406" lon="5.41059">
        <ele>179.60000610352</ele>
        <time>2019-10-02T07:30:15.000Z</time>
        <extensions>
          <gpxtpx:TrackPointExtension xmlns:gpxtpx="http://www.garmin.com/xmlschemas/TrackPointExtension/v1">
            <gpxtpx:hr>83</gpxtpx:hr>
          </gpxtpx:TrackPointExtension>
        </extensions>
      </trkpt>
      <trkpt lat="50.62441" lon="5.41015">
        <ele>178.80000305176</ele>
        <time>2019-10-02T07:30:54.000Z</time>
        <extensions>
          <gpxtpx:TrackPointExtension xmlns:gpxtpx="http://www.garmin.com/xmlschemas/TrackPointExtension/v1">
            <gpxtpx:hr>82</gpxtpx:hr>
          </gpxtpx:TrackPointExtension>
        </extensions>
      </trkpt>
      <trkpt lat="50.62457" lon="5.40995">
        <ele>178.60000610352</ele>
        <time>2019-10-02T07:31:24.000Z</time>
        <extensions>
          <gpxtpx:TrackPointExtension xmlns:gpxtpx="http://www.garmin.com/xmlschemas/TrackPointExtension/v1">
            <gpxtpx:hr>81</gpxtpx:hr>
          </gpxtpx:TrackPointExtension>
        </extensions>
      </trkpt>
      <trkpt lat="50.62482" lon="5.40961">
        <ele>177.60000610352</ele>
        <time>2019-10-02T07:31:25.000Z</time>
        <extensions>
          <gpxtpx:TrackPointExtension xmlns:gpxtpx="http://www.garmin.com/xmlschemas/TrackPointExtension/v1">
            <gpxtpx:hr>81</gpxtpx:hr>
          </gpxtpx:TrackPointExtension>
        </extensions>
      </trkpt>
      <trkpt lat="50.62492" lon="5.40948">
        <ele>177</ele>
        <time>2019-10-02T07:31:26.000Z</time>
        <extensions>
          <gpxtpx:TrackPointExtension xmlns:gpxtpx="http://www.garmin.com/xmlschemas/TrackPointExtension/v1">
            <gpxtpx:hr>81</gpxtpx:hr>
          </gpxtpx:TrackPointExtension>
        </extensions>
      </trkpt>
      <trkpt lat="50.62508" lon="5.40928">
        <ele>176.39999389648</ele>
        <time>2019-10-02T07:31:27.000Z</time>
        <extensions>
          <gpxtpx:TrackPointExtension xmlns:gpxtpx="http://www.garmin.com/xmlschemas/TrackPointExtension/v1">
            <gpxtpx:hr>80</gpxtpx:hr>
          </gpxtpx:TrackPointExtension>
        </extensions>
      </trkpt>
      <trkpt lat="50.62544" lon="5.4088">
        <ele>175.19999694824</ele>
        <time>2019-10-02T07:31:29.000Z</time>
        <extensions>
          <gpxtpx:TrackPointExtension xmlns:gpxtpx="http://www.garmin.com/xmlschemas/TrackPointExtension/v1">
            <gpxtpx:hr>82</gpxtpx:hr>
          </gpxtpx:TrackPointExtension>
        </extensions>
      </trkpt>
      <trkpt lat="50.62549" lon="5.40873">
        <ele>175.19999694824</ele>
        <time>2019-10-02T07:31:30.000Z</time>
        <extensions>
          <gpxtpx:TrackPointExtension xmlns:gpxtpx="http://www.garmin.com/xmlschemas/TrackPointExtension/v1">
            <gpxtpx:hr>83</gpxtpx:hr>
          </gpxtpx:TrackPointExtension>
        </extensions>
      </trkpt>
      <trkpt lat="50.62575" lon="5.4084">
        <ele>174.19999694824</ele>
        <time>2019-10-02T07:31:32.000Z</time>
        <extensions>
          <gpxtpx:TrackPointExtension xmlns:gpxtpx="http://www.garmin.com/xmlschemas/TrackPointExtension/v1">
            <gpxtpx:hr>84</gpxtpx:hr>
          </gpxtpx:TrackPointExtension>
        </extensions>
      </trkpt>
      <trkpt lat="50.62585" lon="5.40826">
        <ele>173.60000610352</ele>
        <time>2019-10-02T07:31:37.000Z</time>
        <extensions>
          <gpxtpx:TrackPointExtension xmlns:gpxtpx="http://www.garmin.com/xmlschemas/TrackPointExtension/v1">
            <gpxtpx:hr>84</gpxtpx:hr>
          </gpxtpx:TrackPointExtension>
        </extensions>
      </trkpt>
      <trkpt lat="50.62595" lon="5.40813">
        <ele>173.19999694824</ele>
        <time>2019-10-02T07:31:38.000Z</time>
        <extensions>
          <gpxtpx:TrackPointExtension xmlns:gpxtpx="http://www.garmin.com/xmlschemas/TrackPointExtension/v1">
            <gpxtpx:hr>83</gpxtpx:hr>
          </gpxtpx:TrackPointExtension>
        </extensions>
      </trkpt>
      <trkpt lat="50.62622" lon="5.40778">
        <ele>172.19999694824</ele>
        <time>2019-10-02T07:31:42.000Z</time>
        <extensions>
          <gpxtpx:TrackPointExtension xmlns:gpxtpx="http://www.garmin.com/xmlschemas/TrackPointExtension/v1">
            <gpxtpx:hr>80</gpxtpx:hr>
          </gpxtpx:TrackPointExtension>
        </extensions>
      </trkpt>
      <trkpt lat="50.62627" lon="5.40771">
        <ele>172.19999694824</ele>
        <time>2019-10-02T07:31:47.000Z</time>
        <extensions>
          <gpxtpx:TrackPointExtension xmlns:gpxtpx="http://www.garmin.com/xmlschemas/TrackPointExtension/v1">
            <gpxtpx:hr>80</gpxtpx:hr>
          </gpxtpx:TrackPointExtension>
        </extensions>
      </trkpt>
      <trkpt lat="50.62644" lon="5.4075">
        <ele>171.60000610352</ele>
        <time>2019-10-02T07:31:48.000Z</time>
        <extensions>
          <gpxtpx:TrackPointExtension xmlns:gpxtpx="http://www.garmin.com/xmlschemas/TrackPointExtension/v1">
            <gpxtpx:hr>81</gpxtpx:hr>
          </gpxtpx:TrackPointExtension>
        </extensions>
      </trkpt>
      <trkpt lat="50.62655" lon="5.40735">
        <ele>171.19999694824</ele>
        <time>2019-10-02T07:31:51.000Z</time>
        <extensions>
          <gpxtpx:TrackPointExtension xmlns:gpxtpx="http://www.garmin.com/xmlschemas/TrackPointExtension/v1">
            <gpxtpx:hr>81</gpxtpx:hr>
          </gpxtpx:TrackPointExtension>
        </extensions>
      </trkpt>
      <trkpt lat="50.62672" lon="5.40714">
        <ele>169.80000305176</ele>
        <time>2019-10-02T07:31:54.000Z</time>
        <extensions>
          <gpxtpx:TrackPointExtension xmlns:gpxtpx="http://www.garmin.com/xmlschemas/TrackPointExtension/v1">
            <gpxtpx:hr>81</gpxtpx:hr>
          </gpxtpx:TrackPointExtension>
        </extensions>
      </trkpt>
      <trkpt lat="50.62694" lon="5.40685">
        <ele>168.80000305176</ele>
        <time>2019-10-02T07:31:55.000Z</time>
        <extensions>
          <gpxtpx:TrackPointExtension xmlns:gpxtpx="http://www.garmin.com/xmlschemas/TrackPointExtension/v1">
            <gpxtpx:hr>81</gpxtpx:hr>
          </gpxtpx:TrackPointExtension>
        </extensions>
      </trkpt>
      <trkpt lat="50.6272" lon="5.40651">
        <ele>167.60000610352</ele>
        <time>2019-10-02T07:32:00.000Z</time>
        <extensions>
          <gpxtpx:TrackPointExtension xmlns:gpxtpx="http://www.garmin.com/xmlschemas/TrackPointExtension/v1">
            <gpxtpx:hr>82</gpxtpx:hr>
          </gpxtpx:TrackPointExtension>
        </extensions>
      </trkpt>
      <trkpt lat="50.62736" lon="5.40631">
        <ele>167</ele>
        <time>2019-10-02T07:32:05.000Z</time>
        <extensions>
          <gpxtpx:TrackPointExtension xmlns:gpxtpx="http://www.garmin.com/xmlschemas/TrackPointExtension/v1">
            <gpxtpx:hr>81</gpxtpx:hr>
          </gpxtpx:TrackPointExtension>
        </extensions>
      </trkpt>
      <trkpt lat="50.62746" lon="5.40618">
        <ele>166.39999389648</ele>
        <time>2019-10-02T07:33:21.000Z</time>
        <extensions>
          <gpxtpx:TrackPointExtension xmlns:gpxtpx="http://www.garmin.com/xmlschemas/TrackPointExtension/v1">
            <gpxtpx:hr>81</gpxtpx:hr>
          </gpxtpx:TrackPointExtension>
        </extensions>
      </trkpt>
      <trkpt lat="50.62771" lon="5.40577">
        <ele>156.7</ele>
        <time>2019-10-02T07:33:25.000Z</time>
      </trkpt>
      <trkpt lat="50.62782" lon="5.40565">
        <ele>156.3</ele>
        <time>2019-10-02T07:33:26.000Z</time>
      </trkpt>
      <trkpt lat="50.62809" lon="5.40529">
        <ele>155.7</ele>
        <time>2019-10-02T07:33:28.000Z</time>
      </trkpt>
      <trkpt lat="50.62838" lon="5.40492">
        <ele>156.4</ele>
        <time>2019-10-02T07:33:35.000Z</time>
      </trkpt>
      <trkpt lat="50.62865" lon="5.40456">
        <ele>159</ele>
        <time>2019-10-02T07:34:13.000Z</time>
      </trkpt>
      <trkpt lat="50.62901" lon="5.40411">
        <ele>162.6</ele>
        <time>2019-10-02T07:34:14.000Z</time>
      </trkpt>
      <trkpt lat="50.62932" lon="5.4037">
        <ele>163</ele>
        <time>2019-10-02T07:34:32.000Z</time>
      </trkpt>
      <trkpt lat="50.62953" lon="5.40342">
        <ele>162.6</ele>
        <time>2019-10-02T07:34:36.000Z</time>
      </trkpt>
      <trkpt lat="50.62981" lon="5.40304">
        <ele>161.2</ele>
        <time>2019-10-02T07:34:39.000Z</time>
      </trkpt>
      <trkpt lat="50.63008" lon="5.40271">
        <ele>158.2</ele>
        <time>2019-10-02T07:34:43.000Z</time>
      </trkpt>
      <trkpt lat="50.63026" lon="5.40247">
        <ele>159.3</ele>
        <time>2019-10-02T07:34:46.000Z</time>
      </trkpt>
      <trkpt lat="50.63052" lon="5.40212">
        <ele>159.1</ele>
        <time>2019-10-02T07:34:54.000Z</time>
      </trkpt>
      <trkpt lat="50.63073" lon="5.40187">
        <ele>159.5</ele>
        <time>2019-10-02T07:35:03.000Z</time>
      </trkpt>
      <trkpt lat="50.63092" lon="5.40162">
        <ele>159.7</ele>
        <time>2019-10-02T07:35:07.000Z</time>
      </trkpt>
      <trkpt lat="50.63121" lon="5.40126">
        <ele>159.1</ele>
        <time>2019-10-02T07:35:12.000Z</time>
      </trkpt>
      <trkpt lat="50.63168" lon="5.40064">
        <ele>158.5</ele>
        <time>2019-10-02T07:35:15.000Z</time>
      </trkpt>
      <trkpt lat="50.63203" lon="5.40018">
        <ele>160</ele>
        <time>2019-10-02T07:35:17.000Z</time>
      </trkpt>
      <trkpt lat="50.63221" lon="5.39995">
        <ele>161.1</ele>
        <time>2019-10-02T07:35:20.000Z</time>
      </trkpt>
      <trkpt lat="50.63251" lon="5.39957">
        <ele>162.2</ele>
        <time>2019-10-02T07:35:22.000Z</time>
      </trkpt>
      <trkpt lat="50.63268" lon="5.39934">
        <ele>162.2</ele>
        <time>2019-10-02T07:35:24.000Z</time>
      </trkpt>
      <trkpt lat="50.633" lon="5.39892">
        <ele>163</ele>
        <time>2019-10-02T07:35:31.000Z</time>
      </trkpt>
      <trkpt lat="50.6332" lon="5.39865">
        <ele>163.5</ele>
        <time>2019-10-02T07:35:37.000Z</time>
      </trkpt>
      <trkpt lat="50.63342" lon="5.39836">
        <ele>164.7</ele>
        <time>2019-10-02T07:35:39.000Z</time>
      </trkpt>
      <trkpt lat="50.63367" lon="5.39806">
        <ele>163.9</ele>
        <time>2019-10-02T07:35:41.000Z</time>
      </trkpt>
      <trkpt lat="50.63387" lon="5.39779">
        <ele>163.7</ele>
        <time>2019-10-02T07:35:47.000Z</time>
      </trkpt>
      <trkpt lat="50.63409" lon="5.39751">
        <ele>164</ele>
        <time>2019-10-02T07:35:54.000Z</time>
      </trkpt>
      <trkpt lat="50.63428" lon="5.39727">
        <ele>165.4</ele>
        <time>2019-10-02T07:35:56.000Z</time>
      </trkpt>
      <trkpt lat="50.63458" lon="5.39686">
        <ele>166.2</ele>
        <time>2019-10-02T07:36:01.000Z</time>
      </trkpt>
      <trkpt lat="50.63475" lon="5.39664">
        <ele>166.6</ele>
        <time>2019-10-02T07:36:05.000Z</time>
      </trkpt>
      <trkpt lat="50.63503" lon="5.39632">
        <ele>166.39999389648</ele>
        <time>2019-10-02T07:36:07.000Z</time>
        <extensions>
          <gpxtpx:TrackPointExtension xmlns:gpxtpx="http://www.garmin.com/xmlschemas/TrackPointExtension/v1">
            <gpxtpx:hr>122</gpxtpx:hr>
          </gpxtpx:TrackPointExtension>
        </extensions>
      </trkpt>
      <trkpt lat="50.63505" lon="5.3962">
        <ele>165.9</ele>
        <time>2019-10-02T07:36:11.000Z</time>
      </trkpt>
      <trkpt lat="50.63507" lon="5.39608">
        <ele>165.7</ele>
        <time>2019-10-02T07:36:13.000Z</time>
      </trkpt>
      <trkpt lat="50.63515" lon="5.39601">
        <ele>165.6</ele>
        <time>2019-10-02T07:36:16.000Z</time>
      </trkpt>
      <trkpt lat="50.63517" lon="5.39585">
        <ele>165.4</ele>
        <time>2019-10-02T07:36:18.000Z</time>
      </trkpt>
      <trkpt lat="50.63515" lon="5.39559">
        <ele>167.19999694824</ele>
        <time>2019-10-02T07:36:24.000Z</time>
        <extensions>
          <gpxtpx:TrackPointExtension xmlns:gpxtpx="http://www.garmin.com/xmlschemas/TrackPointExtension/v1">
            <gpxtpx:hr>118</gpxtpx:hr>
          </gpxtpx:TrackPointExtension>
        </extensions>
      </trkpt>
      <trkpt lat="50.6351" lon="5.39504">
        <ele>163.4</ele>
        <time>2019-10-02T07:36:33.000Z</time>
      </trkpt>
      <trkpt lat="50.63508" lon="5.39467">
        <ele>163</ele>
        <time>2019-10-02T07:36:41.000Z</time>
      </trkpt>
      <trkpt lat="50.63498" lon="5.39358">
        <ele>161.4</ele>
        <time>2019-10-02T07:36:50.000Z</time>
      </trkpt>
      <trkpt lat="50.63492" lon="5.39293">
        <ele>160.9</ele>
        <time>2019-10-02T07:36:58.000Z</time>
      </trkpt>
      <trkpt lat="50.63485" lon="5.39212">
        <ele>161</ele>
        <time>2019-10-02T07:37:06.000Z</time>
      </trkpt>
      <trkpt lat="50.63481" lon="5.39157">
        <ele>161.7</ele>
        <time>2019-10-02T07:37:13.000Z</time>
      </trkpt>
      <trkpt lat="50.63475" lon="5.39086">
        <ele>162.3</ele>
        <time>2019-10-02T07:37:15.000Z</time>
      </trkpt>
      <trkpt lat="50.63468" lon="5.38988">
        <ele>163.3</ele>
        <time>2019-10-02T07:37:20.000Z</time>
      </trkpt>
      <trkpt lat="50.63463" lon="5.38922">
        <ele>168.19999694824</ele>
        <time>2019-10-02T07:37:24.000Z</time>
        <extensions>
          <gpxtpx:TrackPointExtension xmlns:gpxtpx="http://www.garmin.com/xmlschemas/TrackPointExtension/v1">
            <gpxtpx:hr>108</gpxtpx:hr>
          </gpxtpx:TrackPointExtension>
        </extensions>
      </trkpt>
      <trkpt lat="50.63461" lon="5.38896">
        <ele>162.7</ele>
        <time>2019-10-02T07:37:33.000Z</time>
      </trkpt>
      <trkpt lat="50.63455" lon="5.38827">
        <ele>161.6</ele>
        <time>2019-10-02T07:37:39.000Z</time>
      </trkpt>
      <trkpt lat="50.63449" lon="5.38747">
        <ele>162.1</ele>
        <time>2019-10-02T07:37:48.000Z</time>
      </trkpt>
      <trkpt lat="50.63446" lon="5.38702">
        <ele>162.2</ele>
        <time>2019-10-02T07:37:50.000Z</time>
      </trkpt>
      <trkpt lat="50.63438" lon="5.38604">
        <ele>162.3</ele>
        <time>2019-10-02T07:37:59.000Z</time>
      </trkpt>
      <trkpt lat="50.63427" lon="5.38472">
        <ele>163.5</ele>
        <time>2019-10-02T07:38:01.000Z</time>
      </trkpt>
      <trkpt lat="50.63423" lon="5.38423">
        <ele>163.9</ele>
        <time>2019-10-02T07:38:08.000Z</time>
      </trkpt>
      <trkpt lat="50.63419" lon="5.38373">
        <ele>164.5</ele>
        <time>2019-10-02T07:38:15.000Z</time>
      </trkpt>
      <trkpt lat="50.63414" lon="5.38296">
        <ele>165.8</ele>
        <time>2019-10-02T07:38:17.000Z</time>
      </trkpt>
      <trkpt lat="50.63408" lon="5.38213">
        <ele>166.8</ele>
        <time>2019-10-02T07:38:22.000Z</time>
      </trkpt>
      <trkpt lat="50.63402" lon="5.38138">
        <ele>167.6</ele>
        <time>2019-10-02T07:38:26.000Z</time>
      </trkpt>
      <trkpt lat="50.63399" lon="5.38071">
        <ele>169.80000305176</ele>
        <time>2019-10-02T07:38:28.000Z</time>
        <extensions>
          <gpxtpx:TrackPointExtension xmlns:gpxtpx="http://www.garmin.com/xmlschemas/TrackPointExtension/v1">
            <gpxtpx:hr>123</gpxtpx:hr>
          </gpxtpx:TrackPointExtension>
        </extensions>
      </trkpt>
      <trkpt lat="50.63398" lon="5.38053">
        <ele>169.80000305176</ele>
        <time>2019-10-02T07:38:29.000Z</time>
        <extensions>
          <gpxtpx:TrackPointExtension xmlns:gpxtpx="http://www.garmin.com/xmlschemas/TrackPointExtension/v1">
            <gpxtpx:hr>124</gpxtpx:hr>
          </gpxtpx:TrackPointExtension>
        </extensions>
      </trkpt>
      <trkpt lat="50.63393" lon="5.37982">
        <ele>170.60000610352</ele>
        <time>2019-10-02T07:38:33.000Z</time>
        <extensions>
          <gpxtpx:TrackPointExtension xmlns:gpxtpx="http://www.garmin.com/xmlschemas/TrackPointExtension/v1">
            <gpxtpx:hr>127</gpxtpx:hr>
          </gpxtpx:TrackPointExtension>
        </extensions>
      </trkpt>
      <trkpt lat="50.63391" lon="5.37964">
        <ele>170.80000305176</ele>
        <time>2019-10-02T07:38:38.000Z</time>
        <extensions>
          <gpxtpx:TrackPointExtension xmlns:gpxtpx="http://www.garmin.com/xmlschemas/TrackPointExtension/v1">
            <gpxtpx:hr>127</gpxtpx:hr>
          </gpxtpx:TrackPointExtension>
        </extensions>
      </trkpt>
      <trkpt lat="50.63388" lon="5.37917">
        <ele>171.80000305176</ele>
        <time>2019-10-02T07:38:41.000Z</time>
        <extensions>
          <gpxtpx:TrackPointExtension xmlns:gpxtpx="http://www.garmin.com/xmlschemas/TrackPointExtension/v1">
            <gpxtpx:hr>129</gpxtpx:hr>
          </gpxtpx:TrackPointExtension>
        </extensions>
      </trkpt>
      <trkpt lat="50.63383" lon="5.37861">
        <ele>172.39999389648</ele>
        <time>2019-10-02T07:38:49.000Z</time>
        <extensions>
          <gpxtpx:TrackPointExtension xmlns:gpxtpx="http://www.garmin.com/xmlschemas/TrackPointExtension/v1">
            <gpxtpx:hr>129</gpxtpx:hr>
          </gpxtpx:TrackPointExtension>
        </extensions>
      </trkpt>
      <trkpt lat="50.63378" lon="5.37786">
        <ele>172.60000610352</ele>
        <time>2019-10-02T07:39:54.000Z</time>
        <extensions>
          <gpxtpx:TrackPointExtension xmlns:gpxtpx="http://www.garmin.com/xmlschemas/TrackPointExtension/v1">
            <gpxtpx:hr>130</gpxtpx:hr>
          </gpxtpx:TrackPointExtension>
        </extensions>
      </trkpt>
      <trkpt lat="50.63377" lon="5.37777">
        <ele>172.60000610352</ele>
        <time>2019-10-02T07:39:57.000Z</time>
        <extensions>
          <gpxtpx:TrackPointExtension xmlns:gpxtpx="http://www.garmin.com/xmlschemas/TrackPointExtension/v1">
            <gpxtpx:hr>130</gpxtpx:hr>
          </gpxtpx:TrackPointExtension>
        </extensions>
      </trkpt>
      <trkpt lat="50.63371" lon="5.37691">
        <ele>173.80000305176</ele>
        <time>2019-10-02T07:39:59.000Z</time>
        <extensions>
          <gpxtpx:TrackPointExtension xmlns:gpxtpx="http://www.garmin.com/xmlschemas/TrackPointExtension/v1">
            <gpxtpx:hr>132</gpxtpx:hr>
          </gpxtpx:TrackPointExtension>
        </extensions>
      </trkpt>
      <trkpt lat="50.63367" lon="5.37648">
        <ele>174.80000305176</ele>
        <time>2019-10-02T07:40:06.000Z</time>
        <extensions>
          <gpxtpx:TrackPointExtension xmlns:gpxtpx="http://www.garmin.com/xmlschemas/TrackPointExtension/v1">
            <gpxtpx:hr>134</gpxtpx:hr>
          </gpxtpx:TrackPointExtension>
        </extensions>
      </trkpt>
      <trkpt lat="50.63364" lon="5.37614">
        <ele>175.80000305176</ele>
        <time>2019-10-02T07:40:11.000Z</time>
        <extensions>
          <gpxtpx:TrackPointExtension xmlns:gpxtpx="http://www.garmin.com/xmlschemas/TrackPointExtension/v1">
            <gpxtpx:hr>134</gpxtpx:hr>
          </gpxtpx:TrackPointExtension>
        </extensions>
      </trkpt>
      <trkpt lat="50.63363" lon="5.37605">
        <ele>175.80000305176</ele>
        <time>2019-10-02T07:40:15.000Z</time>
        <extensions>
          <gpxtpx:TrackPointExtension xmlns:gpxtpx="http://www.garmin.com/xmlschemas/TrackPointExtension/v1">
            <gpxtpx:hr>135</gpxtpx:hr>
          </gpxtpx:TrackPointExtension>
        </extensions>
      </trkpt>
      <trkpt lat="50.63358" lon="5.37545">
        <ele>176.80000305176</ele>
        <time>2019-10-02T07:40:23.000Z</time>
        <extensions>
          <gpxtpx:TrackPointExtension xmlns:gpxtpx="http://www.garmin.com/xmlschemas/TrackPointExtension/v1">
            <gpxtpx:hr>136</gpxtpx:hr>
          </gpxtpx:TrackPointExtension>
        </extensions>
      </trkpt>
      <trkpt lat="50.63356" lon="5.37527">
        <ele>177.39999389648</ele>
        <time>2019-10-02T07:40:32.000Z</time>
        <extensions>
          <gpxtpx:TrackPointExtension xmlns:gpxtpx="http://www.garmin.com/xmlschemas/TrackPointExtension/v1">
            <gpxtpx:hr>136</gpxtpx:hr>
          </gpxtpx:TrackPointExtension>
        </extensions>
      </trkpt>
      <trkpt lat="50.6335" lon="5.37443">
        <ele>178.19999694824</ele>
        <time>2019-10-02T07:40:34.000Z</time>
        <extensions>
          <gpxtpx:TrackPointExtension xmlns:gpxtpx="http://www.garmin.com/xmlschemas/TrackPointExtension/v1">
            <gpxtpx:hr>137</gpxtpx:hr>
          </gpxtpx:TrackPointExtension>
        </extensions>
      </trkpt>
      <trkpt lat="50.63349" lon="5.37425">
        <ele>178.39999389648</ele>
        <time>2019-10-02T07:40:41.000Z</time>
        <extensions>
          <gpxtpx:TrackPointExtension xmlns:gpxtpx="http://www.garmin.com/xmlschemas/TrackPointExtension/v1">
            <gpxtpx:hr>137</gpxtpx:hr>
          </gpxtpx:TrackPointExtension>
        </extensions>
      </trkpt>
      <trkpt lat="50.63342" lon="5.37338">
        <ele>178.80000305176</ele>
        <time>2019-10-02T07:40:43.000Z</time>
        <extensions>
          <gpxtpx:TrackPointExtension xmlns:gpxtpx="http://www.garmin.com/xmlschemas/TrackPointExtension/v1">
            <gpxtpx:hr>137</gpxtpx:hr>
          </gpxtpx:TrackPointExtension>
        </extensions>
      </trkpt>
      <trkpt lat="50.63335" lon="5.37259">
        <ele>176.6</ele>
        <time>2019-10-02T07:40:48.000Z</time>
      </trkpt>
      <trkpt lat="50.63327" lon="5.37163">
        <ele>176.7</ele>
        <time>2019-10-02T07:40:52.000Z</time>
      </trkpt>
      <trkpt lat="50.6332" lon="5.37084">
        <ele>176.5</ele>
        <time>2019-10-02T07:40:56.000Z</time>
      </trkpt>
      <trkpt lat="50.63316" lon="5.37031">
        <ele>176.1</ele>
        <time>2019-10-02T07:40:58.000Z</time>
      </trkpt>
      <trkpt lat="50.63312" lon="5.36985">
        <ele>176</ele>
        <time>2019-10-02T07:41:07.000Z</time>
      </trkpt>
      <trkpt lat="50.63307" lon="5.3691">
        <ele>175.8</ele>
        <time>2019-10-02T07:41:14.000Z</time>
      </trkpt>
      <trkpt lat="50.63304" lon="5.36878">
        <ele>175.7</ele>
        <time>2019-10-02T07:41:17.000Z</time>
      </trkpt>
      <trkpt lat="50.63297" lon="5.36806">
        <ele>175.8</ele>
        <time>2019-10-02T07:41:21.000Z</time>
      </trkpt>
      <trkpt lat="50.63296" lon="5.36748">
        <ele>176.9</ele>
        <time>2019-10-02T07:41:29.000Z</time>
      </trkpt>
      <trkpt lat="50.63297" lon="5.36666">
        <ele>181.39999389648</ele>
        <time>2019-10-02T07:41:34.000Z</time>
        <extensions>
          <gpxtpx:TrackPointExtension xmlns:gpxtpx="http://www.garmin.com/xmlschemas/TrackPointExtension/v1">
            <gpxtpx:hr>126</gpxtpx:hr>
          </gpxtpx:TrackPointExtension>
        </extensions>
      </trkpt>
      <trkpt lat="50.63297" lon="5.36656">
        <ele>181.39999389648</ele>
        <time>2019-10-02T07:41:36.000Z</time>
        <extensions>
          <gpxtpx:TrackPointExtension xmlns:gpxtpx="http://www.garmin.com/xmlschemas/TrackPointExtension/v1">
            <gpxtpx:hr>125</gpxtpx:hr>
          </gpxtpx:TrackPointExtension>
        </extensions>
      </trkpt>
      <trkpt lat="50.63298" lon="5.36589">
        <ele>181.39999389648</ele>
        <time>2019-10-02T07:41:39.000Z</time>
        <extensions>
          <gpxtpx:TrackPointExtension xmlns:gpxtpx="http://www.garmin.com/xmlschemas/TrackPointExtension/v1">
            <gpxtpx:hr>122</gpxtpx:hr>
          </gpxtpx:TrackPointExtension>
        </extensions>
      </trkpt>
      <trkpt lat="50.63298" lon="5.36561">
        <ele>181.39999389648</ele>
        <time>2019-10-02T07:41:42.000Z</time>
        <extensions>
          <gpxtpx:TrackPointExtension xmlns:gpxtpx="http://www.garmin.com/xmlschemas/TrackPointExtension/v1">
            <gpxtpx:hr>122</gpxtpx:hr>
          </gpxtpx:TrackPointExtension>
        </extensions>
      </trkpt>
      <trkpt lat="50.63298" lon="5.3646">
        <ele>182</ele>
        <time>2019-10-02T07:41:43.000Z</time>
        <extensions>
          <gpxtpx:TrackPointExtension xmlns:gpxtpx="http://www.garmin.com/xmlschemas/TrackPointExtension/v1">
            <gpxtpx:hr>123</gpxtpx:hr>
          </gpxtpx:TrackPointExtension>
        </extensions>
      </trkpt>
      <trkpt lat="50.63296" lon="5.36391">
        <ele>178.9</ele>
        <time>2019-10-02T07:41:45.000Z</time>
      </trkpt>
      <trkpt lat="50.63295" lon="5.36339">
        <ele>179.2</ele>
        <time>2019-10-02T07:41:46.000Z</time>
      </trkpt>
      <trkpt lat="50.63291" lon="5.36297">
        <ele>179.5</ele>
        <time>2019-10-02T07:41:48.000Z</time>
      </trkpt>
      <trkpt lat="50.63283" lon="5.36234">
        <ele>179.3</ele>
        <time>2019-10-02T07:41:49.000Z</time>
      </trkpt>
      <trkpt lat="50.63275" lon="5.36163">
        <ele>182.60000610352</ele>
        <time>2019-10-02T07:41:52.000Z</time>
        <extensions>
          <gpxtpx:TrackPointExtension xmlns:gpxtpx="http://www.garmin.com/xmlschemas/TrackPointExtension/v1">
            <gpxtpx:hr>105</gpxtpx:hr>
          </gpxtpx:TrackPointExtension>
        </extensions>
      </trkpt>
      <trkpt lat="50.63267" lon="5.36094">
        <ele>182.19999694824</ele>
        <time>2019-10-02T07:42:01.000Z</time>
        <extensions>
          <gpxtpx:TrackPointExtension xmlns:gpxtpx="http://www.garmin.com/xmlschemas/TrackPointExtension/v1">
            <gpxtpx:hr>105</gpxtpx:hr>
          </gpxtpx:TrackPointExtension>
        </extensions>
      </trkpt>
      <trkpt lat="50.63263" lon="5.36046">
        <ele>178</ele>
        <time>2019-10-02T07:42:06.000Z</time>
      </trkpt>
      <trkpt lat="50.63268" lon="5.35994">
        <ele>177.9</ele>
        <time>2019-10-02T07:42:08.000Z</time>
      </trkpt>
      <trkpt lat="50.63272" lon="5.35958">
        <ele>177.8</ele>
        <time>2019-10-02T07:42:11.000Z</time>
      </trkpt>
      <trkpt lat="50.63279" lon="5.35888">
        <ele>180.80000305176</ele>
        <time>2019-10-02T07:42:13.000Z</time>
        <extensions>
          <gpxtpx:TrackPointExtension xmlns:gpxtpx="http://www.garmin.com/xmlschemas/TrackPointExtension/v1">
            <gpxtpx:hr>104</gpxtpx:hr>
          </gpxtpx:TrackPointExtension>
        </extensions>
      </trkpt>
      <trkpt lat="50.63289" lon="5.35802">
        <ele>180.39999389648</ele>
        <time>2019-10-02T07:42:15.000Z</time>
        <extensions>
          <gpxtpx:TrackPointExtension xmlns:gpxtpx="http://www.garmin.com/xmlschemas/TrackPointExtension/v1">
            <gpxtpx:hr>104</gpxtpx:hr>
          </gpxtpx:TrackPointExtension>
        </extensions>
      </trkpt>
      <trkpt lat="50.63291" lon="5.35791">
        <ele>180.39999389648</ele>
        <time>2019-10-02T07:42:16.000Z</time>
        <extensions>
          <gpxtpx:TrackPointExtension xmlns:gpxtpx="http://www.garmin.com/xmlschemas/TrackPointExtension/v1">
            <gpxtpx:hr>104</gpxtpx:hr>
          </gpxtpx:TrackPointExtension>
        </extensions>
      </trkpt>
      <trkpt lat="50.63293" lon="5.35769">
        <ele>180.19999694824</ele>
        <time>2019-10-02T07:42:18.000Z</time>
        <extensions>
          <gpxtpx:TrackPointExtension xmlns:gpxtpx="http://www.garmin.com/xmlschemas/TrackPointExtension/v1">
            <gpxtpx:hr>104</gpxtpx:hr>
          </gpxtpx:TrackPointExtension>
        </extensions>
      </trkpt>
      <trkpt lat="50.63297" lon="5.35736">
        <ele>179.80000305176</ele>
        <time>2019-10-02T07:42:20.000Z</time>
        <extensions>
          <gpxtpx:TrackPointExtension xmlns:gpxtpx="http://www.garmin.com/xmlschemas/TrackPointExtension/v1">
            <gpxtpx:hr>101</gpxtpx:hr>
          </gpxtpx:TrackPointExtension>
        </extensions>
      </trkpt>
      <trkpt lat="50.63301" lon="5.35703">
        <ele>179.39999389648</ele>
        <time>2019-10-02T07:42:22.000Z</time>
        <extensions>
          <gpxtpx:TrackPointExtension xmlns:gpxtpx="http://www.garmin.com/xmlschemas/TrackPointExtension/v1">
            <gpxtpx:hr>100</gpxtpx:hr>
          </gpxtpx:TrackPointExtension>
        </extensions>
      </trkpt>
      <trkpt lat="50.63306" lon="5.35648">
        <ele>178.80000305176</ele>
        <time>2019-10-02T07:42:28.000Z</time>
        <extensions>
          <gpxtpx:TrackPointExtension xmlns:gpxtpx="http://www.garmin.com/xmlschemas/TrackPointExtension/v1">
            <gpxtpx:hr>100</gpxtpx:hr>
          </gpxtpx:TrackPointExtension>
        </extensions>
      </trkpt>
      <trkpt lat="50.63311" lon="5.35604">
        <ele>178.39999389648</ele>
        <time>2019-10-02T07:42:29.000Z</time>
        <extensions>
          <gpxtpx:TrackPointExtension xmlns:gpxtpx="http://www.garmin.com/xmlschemas/TrackPointExtension/v1">
            <gpxtpx:hr>99</gpxtpx:hr>
          </gpxtpx:TrackPointExtension>
        </extensions>
      </trkpt>
      <trkpt lat="50.63317" lon="5.35548">
        <ele>177.39999389648</ele>
        <time>2019-10-02T07:42:32.000Z</time>
        <extensions>
          <gpxtpx:TrackPointExtension xmlns:gpxtpx="http://www.garmin.com/xmlschemas/TrackPointExtension/v1">
            <gpxtpx:hr>99</gpxtpx:hr>
          </gpxtpx:TrackPointExtension>
        </extensions>
      </trkpt>
      <trkpt lat="50.6332" lon="5.35515">
        <ele>177.19999694824</ele>
        <time>2019-10-02T07:42:35.000Z</time>
        <extensions>
          <gpxtpx:TrackPointExtension xmlns:gpxtpx="http://www.garmin.com/xmlschemas/TrackPointExtension/v1">
            <gpxtpx:hr>100</gpxtpx:hr>
          </gpxtpx:TrackPointExtension>
        </extensions>
      </trkpt>
      <trkpt lat="50.63327" lon="5.35427">
        <ele>176.60000610352</ele>
        <time>2019-10-02T07:42:37.000Z</time>
        <extensions>
          <gpxtpx:TrackPointExtension xmlns:gpxtpx="http://www.garmin.com/xmlschemas/TrackPointExtension/v1">
            <gpxtpx:hr>99</gpxtpx:hr>
          </gpxtpx:TrackPointExtension>
        </extensions>
      </trkpt>
      <trkpt lat="50.63328" lon="5.35372">
        <ele>176.19999694824</ele>
        <time>2019-10-02T07:42:43.000Z</time>
        <extensions>
          <gpxtpx:TrackPointExtension xmlns:gpxtpx="http://www.garmin.com/xmlschemas/TrackPointExtension/v1">
            <gpxtpx:hr>101</gpxtpx:hr>
          </gpxtpx:TrackPointExtension>
        </extensions>
      </trkpt>
      <trkpt lat="50.63329" lon="5.35317">
        <ele>175.39999389648</ele>
        <time>2019-10-02T07:42:45.000Z</time>
        <extensions>
          <gpxtpx:TrackPointExtension xmlns:gpxtpx="http://www.garmin.com/xmlschemas/TrackPointExtension/v1">
            <gpxtpx:hr>104</gpxtpx:hr>
          </gpxtpx:TrackPointExtension>
        </extensions>
      </trkpt>
      <trkpt lat="50.6333" lon="5.35254">
        <ele>175.19999694824</ele>
        <time>2019-10-02T07:42:48.000Z</time>
        <extensions>
          <gpxtpx:TrackPointExtension xmlns:gpxtpx="http://www.garmin.com/xmlschemas/TrackPointExtension/v1">
            <gpxtpx:hr>107</gpxtpx:hr>
          </gpxtpx:TrackPointExtension>
        </extensions>
      </trkpt>
      <trkpt lat="50.63331" lon="5.35214">
        <ele>175.19999694824</ele>
        <time>2019-10-02T07:42:50.000Z</time>
        <extensions>
          <gpxtpx:TrackPointExtension xmlns:gpxtpx="http://www.garmin.com/xmlschemas/TrackPointExtension/v1">
            <gpxtpx:hr>110</gpxtpx:hr>
          </gpxtpx:TrackPointExtension>
        </extensions>
      </trkpt>
      <trkpt lat="50.63334" lon="5.35149">
        <ele>175.60000610352</ele>
        <time>2019-10-02T07:42:52.000Z</time>
        <extensions>
          <gpxtpx:TrackPointExtension xmlns:gpxtpx="http://www.garmin.com/xmlschemas/TrackPointExtension/v1">
            <gpxtpx:hr>113</gpxtpx:hr>
          </gpxtpx:TrackPointExtension>
        </extensions>
      </trkpt>
      <trkpt lat="50.63336" lon="5.35122">
        <ele>176</ele>
        <time>2019-10-02T07:42:55.000Z</time>
        <extensions>
          <gpxtpx:TrackPointExtension xmlns:gpxtpx="http://www.garmin.com/xmlschemas/TrackPointExtension/v1">
            <gpxtpx:hr>115</gpxtpx:hr>
          </gpxtpx:TrackPointExtension>
        </extensions>
      </trkpt>
      <trkpt lat="50.63339" lon="5.35086">
        <ele>176.19999694824</ele>
        <time>2019-10-02T07:42:57.000Z</time>
        <extensions>
          <gpxtpx:TrackPointExtension xmlns:gpxtpx="http://www.garmin.com/xmlschemas/TrackPointExtension/v1">
            <gpxtpx:hr>118</gpxtpx:hr>
          </gpxtpx:TrackPointExtension>
        </extensions>
      </trkpt>
      <trkpt lat="50.63341" lon="5.3505">
        <ele>176.60000610352</ele>
        <time>2019-10-02T07:43:01.000Z</time>
        <extensions>
          <gpxtpx:TrackPointExtension xmlns:gpxtpx="http://www.garmin.com/xmlschemas/TrackPointExtension/v1">
            <gpxtpx:hr>121</gpxtpx:hr>
          </gpxtpx:TrackPointExtension>
        </extensions>
      </trkpt>
      <trkpt lat="50.63342" lon="5.35041">
        <ele>176.60000610352</ele>
        <time>2019-10-02T07:43:02.000Z</time>
        <extensions>
          <gpxtpx:TrackPointExtension xmlns:gpxtpx="http://www.garmin.com/xmlschemas/TrackPointExtension/v1">
            <gpxtpx:hr>121</gpxtpx:hr>
          </gpxtpx:TrackPointExtension>
        </extensions>
      </trkpt>
      <trkpt lat="50.63344" lon="5.35006">
        <ele>177</ele>
        <time>2019-10-02T07:43:18.000Z</time>
        <extensions>
          <gpxtpx:TrackPointExtension xmlns:gpxtpx="http://www.garmin.com/xmlschemas/TrackPointExtension/v1">
            <gpxtpx:hr>124</gpxtpx:hr>
          </gpxtpx:TrackPointExtension>
        </extensions>
      </trkpt>
      <trkpt lat="50.63346" lon="5.34988">
        <ele>177.19999694824</ele>
        <time>2019-10-02T07:43:24.000Z</time>
        <extensions>
          <gpxtpx:TrackPointExtension xmlns:gpxtpx="http://www.garmin.com/xmlschemas/TrackPointExtension/v1">
            <gpxtpx:hr>125</gpxtpx:hr>
          </gpxtpx:TrackPointExtension>
        </extensions>
      </trkpt>
      <trkpt lat="50.63347" lon="5.34962">
        <ele>177.39999389648</ele>
        <time>2019-10-02T07:43:26.000Z</time>
        <extensions>
          <gpxtpx:TrackPointExtension xmlns:gpxtpx="http://www.garmin.com/xmlschemas/TrackPointExtension/v1">
            <gpxtpx:hr>126</gpxtpx:hr>
          </gpxtpx:TrackPointExtension>
        </extensions>
      </trkpt>
      <trkpt lat="50.63352" lon="5.34899">
        <ele>178</ele>
        <time>2019-10-02T07:43:29.000Z</time>
        <extensions>
          <gpxtpx:TrackPointExtension xmlns:gpxtpx="http://www.garmin.com/xmlschemas/TrackPointExtension/v1">
            <gpxtpx:hr>129</gpxtpx:hr>
          </gpxtpx:TrackPointExtension>
        </extensions>
      </trkpt>
      <trkpt lat="50.63353" lon="5.34881">
        <ele>178.19999694824</ele>
        <time>2019-10-02T07:43:32.000Z</time>
        <extensions>
          <gpxtpx:TrackPointExtension xmlns:gpxtpx="http://www.garmin.com/xmlschemas/TrackPointExtension/v1">
            <gpxtpx:hr>130</gpxtpx:hr>
          </gpxtpx:TrackPointExtension>
        </extensions>
      </trkpt>
      <trkpt lat="50.63356" lon="5.34855">
        <ele>178.39999389648</ele>
        <time>2019-10-02T07:43:36.000Z</time>
        <extensions>
          <gpxtpx:TrackPointExtension xmlns:gpxtpx="http://www.garmin.com/xmlschemas/TrackPointExtension/v1">
            <gpxtpx:hr>131</gpxtpx:hr>
          </gpxtpx:TrackPointExtension>
        </extensions>
      </trkpt>
      <trkpt lat="50.63365" lon="5.34799">
        <ele>179</ele>
        <time>2019-10-02T07:43:38.000Z</time>
        <extensions>
          <gpxtpx:TrackPointExtension xmlns:gpxtpx="http://www.garmin.com/xmlschemas/TrackPointExtension/v1">
            <gpxtpx:hr>134</gpxtpx:hr>
          </gpxtpx:TrackPointExtension>
        </extensions>
      </trkpt>
      <trkpt lat="50.63368" lon="5.34779">
        <ele>179</ele>
        <time>2019-10-02T07:43:43.000Z</time>
        <extensions>
          <gpxtpx:TrackPointExtension xmlns:gpxtpx="http://www.garmin.com/xmlschemas/TrackPointExtension/v1">
            <gpxtpx:hr>134</gpxtpx:hr>
          </gpxtpx:TrackPointExtension>
        </extensions>
      </trkpt>
      <trkpt lat="50.63384" lon="5.3469">
        <ele>178.80000305176</ele>
        <time>2019-10-02T07:43:45.000Z</time>
        <extensions>
          <gpxtpx:TrackPointExtension xmlns:gpxtpx="http://www.garmin.com/xmlschemas/TrackPointExtension/v1">
            <gpxtpx:hr>133</gpxtpx:hr>
          </gpxtpx:TrackPointExtension>
        </extensions>
      </trkpt>
      <trkpt lat="50.63388" lon="5.3467">
        <ele>178.60000610352</ele>
        <time>2019-10-02T07:43:54.000Z</time>
        <extensions>
          <gpxtpx:TrackPointExtension xmlns:gpxtpx="http://www.garmin.com/xmlschemas/TrackPointExtension/v1">
            <gpxtpx:hr>134</gpxtpx:hr>
          </gpxtpx:TrackPointExtension>
        </extensions>
      </trkpt>
      <trkpt lat="50.63403" lon="5.34589">
        <ele>178.19999694824</ele>
        <time>2019-10-02T07:44:03.000Z</time>
        <extensions>
          <gpxtpx:TrackPointExtension xmlns:gpxtpx="http://www.garmin.com/xmlschemas/TrackPointExtension/v1">
            <gpxtpx:hr>131</gpxtpx:hr>
          </gpxtpx:TrackPointExtension>
        </extensions>
      </trkpt>
      <trkpt lat="50.6341" lon="5.34548">
        <ele>177.80000305176</ele>
        <time>2019-10-02T07:44:05.000Z</time>
        <extensions>
          <gpxtpx:TrackPointExtension xmlns:gpxtpx="http://www.garmin.com/xmlschemas/TrackPointExtension/v1">
            <gpxtpx:hr>129</gpxtpx:hr>
          </gpxtpx:TrackPointExtension>
        </extensions>
      </trkpt>
      <trkpt lat="50.63421" lon="5.34485">
        <ele>177.19999694824</ele>
        <time>2019-10-02T07:44:09.000Z</time>
        <extensions>
          <gpxtpx:TrackPointExtension xmlns:gpxtpx="http://www.garmin.com/xmlschemas/TrackPointExtension/v1">
            <gpxtpx:hr>126</gpxtpx:hr>
          </gpxtpx:TrackPointExtension>
        </extensions>
      </trkpt>
      <trkpt lat="50.63425" lon="5.34465">
        <ele>177</ele>
        <time>2019-10-02T07:44:13.000Z</time>
        <extensions>
          <gpxtpx:TrackPointExtension xmlns:gpxtpx="http://www.garmin.com/xmlschemas/TrackPointExtension/v1">
            <gpxtpx:hr>125</gpxtpx:hr>
          </gpxtpx:TrackPointExtension>
        </extensions>
      </trkpt>
      <trkpt lat="50.63438" lon="5.34394">
        <ele>176.19999694824</ele>
        <time>2019-10-02T07:44:15.000Z</time>
        <extensions>
          <gpxtpx:TrackPointExtension xmlns:gpxtpx="http://www.garmin.com/xmlschemas/TrackPointExtension/v1">
            <gpxtpx:hr>122</gpxtpx:hr>
          </gpxtpx:TrackPointExtension>
        </extensions>
      </trkpt>
      <trkpt lat="50.63446" lon="5.34345">
        <ele>176</ele>
        <time>2019-10-02T07:44:17.000Z</time>
        <extensions>
          <gpxtpx:TrackPointExtension xmlns:gpxtpx="http://www.garmin.com/xmlschemas/TrackPointExtension/v1">
            <gpxtpx:hr>122</gpxtpx:hr>
          </gpxtpx:TrackPointExtension>
        </extensions>
      </trkpt>
      <trkpt lat="50.63461" lon="5.34259">
        <ele>176</ele>
        <time>2019-10-02T07:44:21.000Z</time>
        <extensions>
          <gpxtpx:TrackPointExtension xmlns:gpxtpx="http://www.garmin.com/xmlschemas/TrackPointExtension/v1">
            <gpxtpx:hr>124</gpxtpx:hr>
          </gpxtpx:TrackPointExtension>
        </extensions>
      </trkpt>
      <trkpt lat="50.63463" lon="5.3425">
        <ele>176</ele>
        <time>2019-10-02T07:44:23.000Z</time>
        <extensions>
          <gpxtpx:TrackPointExtension xmlns:gpxtpx="http://www.garmin.com/xmlschemas/TrackPointExtension/v1">
            <gpxtpx:hr>124</gpxtpx:hr>
          </gpxtpx:TrackPointExtension>
        </extensions>
      </trkpt>
      <trkpt lat="50.63477" lon="5.34167">
        <ele>176.80000305176</ele>
        <time>2019-10-02T07:44:27.000Z</time>
        <extensions>
          <gpxtpx:TrackPointExtension xmlns:gpxtpx="http://www.garmin.com/xmlschemas/TrackPointExtension/v1">
            <gpxtpx:hr>126</gpxtpx:hr>
          </gpxtpx:TrackPointExtension>
        </extensions>
      </trkpt>
      <trkpt lat="50.63479" lon="5.34158">
        <ele>176.80000305176</ele>
        <time>2019-10-02T07:44:28.000Z</time>
        <extensions>
          <gpxtpx:TrackPointExtension xmlns:gpxtpx="http://www.garmin.com/xmlschemas/TrackPointExtension/v1">
            <gpxtpx:hr>126</gpxtpx:hr>
          </gpxtpx:TrackPointExtension>
        </extensions>
      </trkpt>
      <trkpt lat="50.63481" lon="5.34138">
        <ele>177.19999694824</ele>
        <time>2019-10-02T07:44:31.000Z</time>
        <extensions>
          <gpxtpx:TrackPointExtension xmlns:gpxtpx="http://www.garmin.com/xmlschemas/TrackPointExtension/v1">
            <gpxtpx:hr>127</gpxtpx:hr>
          </gpxtpx:TrackPointExtension>
        </extensions>
      </trkpt>
      <trkpt lat="50.63484" lon="5.34079">
        <ele>178</ele>
        <time>2019-10-02T07:44:34.000Z</time>
        <extensions>
          <gpxtpx:TrackPointExtension xmlns:gpxtpx="http://www.garmin.com/xmlschemas/TrackPointExtension/v1">
            <gpxtpx:hr>129</gpxtpx:hr>
          </gpxtpx:TrackPointExtension>
        </extensions>
      </trkpt>
      <trkpt lat="50.63485" lon="5.33989">
        <ele>178.19999694824</ele>
        <time>2019-10-02T07:44:35.000Z</time>
        <extensions>
          <gpxtpx:TrackPointExtension xmlns:gpxtpx="http://www.garmin.com/xmlschemas/TrackPointExtension/v1">
            <gpxtpx:hr>131</gpxtpx:hr>
          </gpxtpx:TrackPointExtension>
        </extensions>
      </trkpt>
      <trkpt lat="50.63486" lon="5.33897">
        <ele>177.19999694824</ele>
        <time>2019-10-02T07:44:39.000Z</time>
        <extensions>
          <gpxtpx:TrackPointExtension xmlns:gpxtpx="http://www.garmin.com/xmlschemas/TrackPointExtension/v1">
            <gpxtpx:hr>129</gpxtpx:hr>
          </gpxtpx:TrackPointExtension>
        </extensions>
      </trkpt>
      <trkpt lat="50.63486" lon="5.33877">
        <ele>177</ele>
        <time>2019-10-02T07:44:47.000Z</time>
        <extensions>
          <gpxtpx:TrackPointExtension xmlns:gpxtpx="http://www.garmin.com/xmlschemas/TrackPointExtension/v1">
            <gpxtpx:hr>128</gpxtpx:hr>
          </gpxtpx:TrackPointExtension>
        </extensions>
      </trkpt>
      <trkpt lat="50.63487" lon="5.33824">
        <ele>176.60000610352</ele>
        <time>2019-10-02T07:44:49.000Z</time>
        <extensions>
          <gpxtpx:TrackPointExtension xmlns:gpxtpx="http://www.garmin.com/xmlschemas/TrackPointExtension/v1">
            <gpxtpx:hr>125</gpxtpx:hr>
          </gpxtpx:TrackPointExtension>
        </extensions>
      </trkpt>
      <trkpt lat="50.63487" lon="5.33792">
        <ele>176.19999694824</ele>
        <time>2019-10-02T07:44:54.000Z</time>
        <extensions>
          <gpxtpx:TrackPointExtension xmlns:gpxtpx="http://www.garmin.com/xmlschemas/TrackPointExtension/v1">
            <gpxtpx:hr>122</gpxtpx:hr>
          </gpxtpx:TrackPointExtension>
        </extensions>
      </trkpt>
      <trkpt lat="50.63487" lon="5.33761">
        <ele>175.60000610352</ele>
        <time>2019-10-02T07:44:58.000Z</time>
        <extensions>
          <gpxtpx:TrackPointExtension xmlns:gpxtpx="http://www.garmin.com/xmlschemas/TrackPointExtension/v1">
            <gpxtpx:hr>119</gpxtpx:hr>
          </gpxtpx:TrackPointExtension>
        </extensions>
      </trkpt>
      <trkpt lat="50.63488" lon="5.33719">
        <ele>175.19999694824</ele>
        <time>2019-10-02T07:45:02.000Z</time>
        <extensions>
          <gpxtpx:TrackPointExtension xmlns:gpxtpx="http://www.garmin.com/xmlschemas/TrackPointExtension/v1">
            <gpxtpx:hr>116</gpxtpx:hr>
          </gpxtpx:TrackPointExtension>
        </extensions>
      </trkpt>
      <trkpt lat="50.6349" lon="5.33666">
        <ele>174.60000610352</ele>
        <time>2019-10-02T07:45:09.000Z</time>
        <extensions>
          <gpxtpx:TrackPointExtension xmlns:gpxtpx="http://www.garmin.com/xmlschemas/TrackPointExtension/v1">
            <gpxtpx:hr>114</gpxtpx:hr>
          </gpxtpx:TrackPointExtension>
        </extensions>
      </trkpt>
      <trkpt lat="50.63492" lon="5.33644">
        <ele>174.39999389648</ele>
        <time>2019-10-02T07:45:11.000Z</time>
        <extensions>
          <gpxtpx:TrackPointExtension xmlns:gpxtpx="http://www.garmin.com/xmlschemas/TrackPointExtension/v1">
            <gpxtpx:hr>112</gpxtpx:hr>
          </gpxtpx:TrackPointExtension>
        </extensions>
      </trkpt>
      <trkpt lat="50.63496" lon="5.33602">
        <ele>174.19999694824</ele>
        <time>2019-10-02T07:45:13.000Z</time>
        <extensions>
          <gpxtpx:TrackPointExtension xmlns:gpxtpx="http://www.garmin.com/xmlschemas/TrackPointExtension/v1">
            <gpxtpx:hr>109</gpxtpx:hr>
          </gpxtpx:TrackPointExtension>
        </extensions>
      </trkpt>
      <trkpt lat="50.63504" lon="5.33539">
        <ele>173.80000305176</ele>
        <time>2019-10-02T07:45:15.000Z</time>
        <extensions>
          <gpxtpx:TrackPointExtension xmlns:gpxtpx="http://www.garmin.com/xmlschemas/TrackPointExtension/v1">
            <gpxtpx:hr>109</gpxtpx:hr>
          </gpxtpx:TrackPointExtension>
        </extensions>
      </trkpt>
      <trkpt lat="50.63508" lon="5.33519">
        <ele>173.60000610352</ele>
        <time>2019-10-02T07:45:23.000Z</time>
        <extensions>
          <gpxtpx:TrackPointExtension xmlns:gpxtpx="http://www.garmin.com/xmlschemas/TrackPointExtension/v1">
            <gpxtpx:hr>110</gpxtpx:hr>
          </gpxtpx:TrackPointExtension>
        </extensions>
      </trkpt>
      <trkpt lat="50.63515" lon="5.33478">
        <ele>170.1</ele>
        <time>2019-10-02T07:45:26.000Z</time>
      </trkpt>
      <trkpt lat="50.63519" lon="5.33457">
        <ele>172.19999694824</ele>
        <time>2019-10-02T07:45:30.000Z</time>
        <extensions>
          <gpxtpx:TrackPointExtension xmlns:gpxtpx="http://www.garmin.com/xmlschemas/TrackPointExtension/v1">
            <gpxtpx:hr>106</gpxtpx:hr>
          </gpxtpx:TrackPointExtension>
        </extensions>
      </trkpt>
      <trkpt lat="50.63524" lon="5.33415">
        <ele>170</ele>
        <time>2019-10-02T07:45:31.000Z</time>
      </trkpt>
      <trkpt lat="50.63526" lon="5.33377">
        <ele>169.8</ele>
        <time>2019-10-02T07:45:35.000Z</time>
      </trkpt>
      <trkpt lat="50.63525" lon="5.3332">
        <ele>169.6</ele>
        <time>2019-10-02T07:45:39.000Z</time>
      </trkpt>
      <trkpt lat="50.6352" lon="5.33278">
        <ele>169.3</ele>
        <time>2019-10-02T07:45:45.000Z</time>
      </trkpt>
      <trkpt lat="50.63514" lon="5.33228">
        <ele>168.5</ele>
        <time>2019-10-02T07:45:47.000Z</time>
      </trkpt>
      <trkpt lat="50.63511" lon="5.33186">
        <ele>168</ele>
        <time>2019-10-02T07:45:51.000Z</time>
      </trkpt>
      <trkpt lat="50.63503" lon="5.33141">
        <ele>167.3</ele>
        <time>2019-10-02T07:45:55.000Z</time>
      </trkpt>
      <trkpt lat="50.63494" lon="5.33096">
        <ele>166.7</ele>
        <time>2019-10-02T07:45:56.000Z</time>
      </trkpt>
      <trkpt lat="50.63488" lon="5.33067">
        <ele>166.6</ele>
        <time>2019-10-02T07:46:01.000Z</time>
      </trkpt>
      <trkpt lat="50.63481" lon="5.33035">
        <ele>166.4</ele>
        <time>2019-10-02T07:46:02.000Z</time>
      </trkpt>
      <trkpt lat="50.63471" lon="5.3299">
        <ele>165.9</ele>
        <time>2019-10-02T07:46:04.000Z</time>
      </trkpt>
      <trkpt lat="50.63459" lon="5.3292">
        <ele>165.3</ele>
        <time>2019-10-02T07:46:08.000Z</time>
      </trkpt>
      <trkpt lat="50.63452" lon="5.32867">
        <ele>165</ele>
        <time>2019-10-02T07:46:09.000Z</time>
        <extensions>
          <gpxtpx:TrackPointExtension xmlns:gpxtpx="http://www.garmin.com/xmlschemas/TrackPointExtension/v1">
            <gpxtpx:hr>99</gpxtpx:hr>
          </gpxtpx:TrackPointExtension>
        </extensions>
      </trkpt>
      <trkpt lat="50.63451" lon="5.32856">
        <ele>165</ele>
        <time>2019-10-02T07:46:15.000Z</time>
        <extensions>
          <gpxtpx:TrackPointExtension xmlns:gpxtpx="http://www.garmin.com/xmlschemas/TrackPointExtension/v1">
            <gpxtpx:hr>99</gpxtpx:hr>
          </gpxtpx:TrackPointExtension>
        </extensions>
      </trkpt>
      <trkpt lat="50.63444" lon="5.32795">
        <ele>164.60000610352</ele>
        <time>2019-10-02T07:46:19.000Z</time>
        <extensions>
          <gpxtpx:TrackPointExtension xmlns:gpxtpx="http://www.garmin.com/xmlschemas/TrackPointExtension/v1">
            <gpxtpx:hr>98</gpxtpx:hr>
          </gpxtpx:TrackPointExtension>
        </extensions>
      </trkpt>
      <trkpt lat="50.63433" lon="5.32712">
        <ele>163.60000610352</ele>
        <time>2019-10-02T07:46:26.000Z</time>
        <extensions>
          <gpxtpx:TrackPointExtension xmlns:gpxtpx="http://www.garmin.com/xmlschemas/TrackPointExtension/v1">
            <gpxtpx:hr>98</gpxtpx:hr>
          </gpxtpx:TrackPointExtension>
        </extensions>
      </trkpt>
      <trkpt lat="50.63432" lon="5.32701">
        <ele>163.39999389648</ele>
        <time>2019-10-02T07:47:00.000Z</time>
        <extensions>
          <gpxtpx:TrackPointExtension xmlns:gpxtpx="http://www.garmin.com/xmlschemas/TrackPointExtension/v1">
            <gpxtpx:hr>97</gpxtpx:hr>
          </gpxtpx:TrackPointExtension>
        </extensions>
      </trkpt>
      <trkpt lat="50.63428" lon="5.3267">
        <ele>162.80000305176</ele>
        <time>2019-10-02T07:47:01.000Z</time>
        <extensions>
          <gpxtpx:TrackPointExtension xmlns:gpxtpx="http://www.garmin.com/xmlschemas/TrackPointExtension/v1">
            <gpxtpx:hr>94</gpxtpx:hr>
          </gpxtpx:TrackPointExtension>
        </extensions>
      </trkpt>
      <trkpt lat="50.63426" lon="5.3266">
        <ele>162.60000610352</ele>
        <time>2019-10-02T07:47:07.000Z</time>
        <extensions>
          <gpxtpx:TrackPointExtension xmlns:gpxtpx="http://www.garmin.com/xmlschemas/TrackPointExtension/v1">
            <gpxtpx:hr>91</gpxtpx:hr>
          </gpxtpx:TrackPointExtension>
        </extensions>
      </trkpt>
      <trkpt lat="50.63423" lon="5.32639">
        <ele>162.60000610352</ele>
        <time>2019-10-02T07:47:09.000Z</time>
        <extensions>
          <gpxtpx:TrackPointExtension xmlns:gpxtpx="http://www.garmin.com/xmlschemas/TrackPointExtension/v1">
            <gpxtpx:hr>88</gpxtpx:hr>
          </gpxtpx:TrackPointExtension>
        </extensions>
      </trkpt>
      <trkpt lat="50.63421" lon="5.32619">
        <ele>162.39999389648</ele>
        <time>2019-10-02T07:47:14.000Z</time>
        <extensions>
          <gpxtpx:TrackPointExtension xmlns:gpxtpx="http://www.garmin.com/xmlschemas/TrackPointExtension/v1">
            <gpxtpx:hr>85</gpxtpx:hr>
          </gpxtpx:TrackPointExtension>
        </extensions>
      </trkpt>
      <trkpt lat="50.63419" lon="5.32608">
        <ele>162.39999389648</ele>
        <time>2019-10-02T07:47:15.000Z</time>
        <extensions>
          <gpxtpx:TrackPointExtension xmlns:gpxtpx="http://www.garmin.com/xmlschemas/TrackPointExtension/v1">
            <gpxtpx:hr>84</gpxtpx:hr>
          </gpxtpx:TrackPointExtension>
        </extensions>
      </trkpt>
      <trkpt lat="50.63418" lon="5.32598">
        <ele>162.19999694824</ele>
        <time>2019-10-02T07:47:24.000Z</time>
        <extensions>
          <gpxtpx:TrackPointExtension xmlns:gpxtpx="http://www.garmin.com/xmlschemas/TrackPointExtension/v1">
            <gpxtpx:hr>84</gpxtpx:hr>
          </gpxtpx:TrackPointExtension>
        </extensions>
      </trkpt>
      <trkpt lat="50.63411" lon="5.32534">
        <ele>161.19999694824</ele>
        <time>2019-10-02T07:47:30.000Z</time>
        <extensions>
          <gpxtpx:TrackPointExtension xmlns:gpxtpx="http://www.garmin.com/xmlschemas/TrackPointExtension/v1">
            <gpxtpx:hr>87</gpxtpx:hr>
          </gpxtpx:TrackPointExtension>
        </extensions>
      </trkpt>
      <trkpt lat="50.63409" lon="5.32513">
        <ele>161</ele>
        <time>2019-10-02T07:47:31.000Z</time>
        <extensions>
          <gpxtpx:TrackPointExtension xmlns:gpxtpx="http://www.garmin.com/xmlschemas/TrackPointExtension/v1">
            <gpxtpx:hr>88</gpxtpx:hr>
          </gpxtpx:TrackPointExtension>
        </extensions>
      </trkpt>
      <trkpt lat="50.63408" lon="5.32503">
        <ele>160.80000305176</ele>
        <time>2019-10-02T07:47:37.000Z</time>
        <extensions>
          <gpxtpx:TrackPointExtension xmlns:gpxtpx="http://www.garmin.com/xmlschemas/TrackPointExtension/v1">
            <gpxtpx:hr>87</gpxtpx:hr>
          </gpxtpx:TrackPointExtension>
        </extensions>
      </trkpt>
      <trkpt lat="50.63409" lon="5.32486">
        <ele>160.39999389648</ele>
        <time>2019-10-02T07:47:39.000Z</time>
        <extensions>
          <gpxtpx:TrackPointExtension xmlns:gpxtpx="http://www.garmin.com/xmlschemas/TrackPointExtension/v1">
            <gpxtpx:hr>87</gpxtpx:hr>
          </gpxtpx:TrackPointExtension>
        </extensions>
      </trkpt>
      <trkpt lat="50.63413" lon="5.3248">
        <ele>160.19999694824</ele>
        <time>2019-10-02T07:47:40.000Z</time>
        <extensions>
          <gpxtpx:TrackPointExtension xmlns:gpxtpx="http://www.garmin.com/xmlschemas/TrackPointExtension/v1">
            <gpxtpx:hr>87</gpxtpx:hr>
          </gpxtpx:TrackPointExtension>
        </extensions>
      </trkpt>
      <trkpt lat="50.63418" lon="5.32477">
        <ele>159.80000305176</ele>
        <time>2019-10-02T07:47:42.000Z</time>
        <extensions>
          <gpxtpx:TrackPointExtension xmlns:gpxtpx="http://www.garmin.com/xmlschemas/TrackPointExtension/v1">
            <gpxtpx:hr>86</gpxtpx:hr>
          </gpxtpx:TrackPointExtension>
        </extensions>
      </trkpt>
      <trkpt lat="50.63423" lon="5.32474">
        <ele>159.80000305176</ele>
        <time>2019-10-02T07:47:44.000Z</time>
        <extensions>
          <gpxtpx:TrackPointExtension xmlns:gpxtpx="http://www.garmin.com/xmlschemas/TrackPointExtension/v1">
            <gpxtpx:hr>85</gpxtpx:hr>
          </gpxtpx:TrackPointExtension>
        </extensions>
      </trkpt>
      <trkpt lat="50.63435" lon="5.32467">
        <ele>159.19999694824</ele>
        <time>2019-10-02T07:47:45.000Z</time>
        <extensions>
          <gpxtpx:TrackPointExtension xmlns:gpxtpx="http://www.garmin.com/xmlschemas/TrackPointExtension/v1">
            <gpxtpx:hr>83</gpxtpx:hr>
          </gpxtpx:TrackPointExtension>
        </extensions>
      </trkpt>
      <trkpt lat="50.63441" lon="5.32462">
        <ele>158.60000610352</ele>
        <time>2019-10-02T07:47:47.000Z</time>
        <extensions>
          <gpxtpx:TrackPointExtension xmlns:gpxtpx="http://www.garmin.com/xmlschemas/TrackPointExtension/v1">
            <gpxtpx:hr>82</gpxtpx:hr>
          </gpxtpx:TrackPointExtension>
        </extensions>
      </trkpt>
      <trkpt lat="50.63447" lon="5.32456">
        <ele>158.19999694824</ele>
        <time>2019-10-02T07:47:48.000Z</time>
        <extensions>
          <gpxtpx:TrackPointExtension xmlns:gpxtpx="http://www.garmin.com/xmlschemas/TrackPointExtension/v1">
            <gpxtpx:hr>82</gpxtpx:hr>
          </gpxtpx:TrackPointExtension>
        </extensions>
      </trkpt>
      <trkpt lat="50.63457" lon="5.3244">
        <ele>157.39999389648</ele>
        <time>2019-10-02T07:47:55.000Z</time>
        <extensions>
          <gpxtpx:TrackPointExtension xmlns:gpxtpx="http://www.garmin.com/xmlschemas/TrackPointExtension/v1">
            <gpxtpx:hr>83</gpxtpx:hr>
          </gpxtpx:TrackPointExtension>
        </extensions>
      </trkpt>
      <trkpt lat="50.63461" lon="5.3243">
        <ele>157</ele>
        <time>2019-10-02T07:48:23.000Z</time>
        <extensions>
          <gpxtpx:TrackPointExtension xmlns:gpxtpx="http://www.garmin.com/xmlschemas/TrackPointExtension/v1">
            <gpxtpx:hr>84</gpxtpx:hr>
          </gpxtpx:TrackPointExtension>
        </extensions>
      </trkpt>
      <trkpt lat="50.63465" lon="5.32419">
        <ele>156.60000610352</ele>
        <time>2019-10-02T07:48:32.000Z</time>
        <extensions>
          <gpxtpx:TrackPointExtension xmlns:gpxtpx="http://www.garmin.com/xmlschemas/TrackPointExtension/v1">
            <gpxtpx:hr>84</gpxtpx:hr>
          </gpxtpx:TrackPointExtension>
        </extensions>
      </trkpt>
      <trkpt lat="50.63472" lon="5.32397">
        <ele>156</ele>
        <time>2019-10-02T07:48:40.000Z</time>
        <extensions>
          <gpxtpx:TrackPointExtension xmlns:gpxtpx="http://www.garmin.com/xmlschemas/TrackPointExtension/v1">
            <gpxtpx:hr>86</gpxtpx:hr>
          </gpxtpx:TrackPointExtension>
        </extensions>
      </trkpt>
      <trkpt lat="50.63488" lon="5.32349">
        <ele>155</ele>
        <time>2019-10-02T07:48:45.000Z</time>
        <extensions>
          <gpxtpx:TrackPointExtension xmlns:gpxtpx="http://www.garmin.com/xmlschemas/TrackPointExtension/v1">
            <gpxtpx:hr>87</gpxtpx:hr>
          </gpxtpx:TrackPointExtension>
        </extensions>
      </trkpt>
      <trkpt lat="50.63492" lon="5.32337">
        <ele>154.80000305176</ele>
        <time>2019-10-02T07:48:51.000Z</time>
        <extensions>
          <gpxtpx:TrackPointExtension xmlns:gpxtpx="http://www.garmin.com/xmlschemas/TrackPointExtension/v1">
            <gpxtpx:hr>87</gpxtpx:hr>
          </gpxtpx:TrackPointExtension>
        </extensions>
      </trkpt>
      <trkpt lat="50.63506" lon="5.323">
        <ele>153.60000610352</ele>
        <time>2019-10-02T07:48:54.000Z</time>
        <extensions>
          <gpxtpx:TrackPointExtension xmlns:gpxtpx="http://www.garmin.com/xmlschemas/TrackPointExtension/v1">
            <gpxtpx:hr>89</gpxtpx:hr>
          </gpxtpx:TrackPointExtension>
        </extensions>
      </trkpt>
      <trkpt lat="50.63518" lon="5.32264">
        <ele>152.60000610352</ele>
        <time>2019-10-02T07:48:56.000Z</time>
        <extensions>
          <gpxtpx:TrackPointExtension xmlns:gpxtpx="http://www.garmin.com/xmlschemas/TrackPointExtension/v1">
            <gpxtpx:hr>90</gpxtpx:hr>
          </gpxtpx:TrackPointExtension>
        </extensions>
      </trkpt>
      <trkpt lat="50.63522" lon="5.32252">
        <ele>152.39999389648</ele>
        <time>2019-10-02T07:48:58.000Z</time>
        <extensions>
          <gpxtpx:TrackPointExtension xmlns:gpxtpx="http://www.garmin.com/xmlschemas/TrackPointExtension/v1">
            <gpxtpx:hr>90</gpxtpx:hr>
          </gpxtpx:TrackPointExtension>
        </extensions>
      </trkpt>
      <trkpt lat="50.63529" lon="5.3223">
        <ele>151</ele>
        <time>2019-10-02T07:48:59.000Z</time>
        <extensions>
          <gpxtpx:TrackPointExtension xmlns:gpxtpx="http://www.garmin.com/xmlschemas/TrackPointExtension/v1">
            <gpxtpx:hr>88</gpxtpx:hr>
          </gpxtpx:TrackPointExtension>
        </extensions>
      </trkpt>
      <trkpt lat="50.63534" lon="5.32221">
        <ele>150.39999389648</ele>
        <time>2019-10-02T07:49:01.000Z</time>
        <extensions>
          <gpxtpx:TrackPointExtension xmlns:gpxtpx="http://www.garmin.com/xmlschemas/TrackPointExtension/v1">
            <gpxtpx:hr>88</gpxtpx:hr>
          </gpxtpx:TrackPointExtension>
        </extensions>
      </trkpt>
      <trkpt lat="50.63539" lon="5.32215">
        <ele>150</ele>
        <time>2019-10-02T07:49:03.000Z</time>
        <extensions>
          <gpxtpx:TrackPointExtension xmlns:gpxtpx="http://www.garmin.com/xmlschemas/TrackPointExtension/v1">
            <gpxtpx:hr>87</gpxtpx:hr>
          </gpxtpx:TrackPointExtension>
        </extensions>
      </trkpt>
      <trkpt lat="50.63545" lon="5.32213">
        <ele>149.39999389648</ele>
        <time>2019-10-02T07:49:04.000Z</time>
        <extensions>
          <gpxtpx:TrackPointExtension xmlns:gpxtpx="http://www.garmin.com/xmlschemas/TrackPointExtension/v1">
            <gpxtpx:hr>87</gpxtpx:hr>
          </gpxtpx:TrackPointExtension>
        </extensions>
      </trkpt>
      <trkpt lat="50.63558" lon="5.32212">
        <ele>148.80000305176</ele>
        <time>2019-10-02T07:49:06.000Z</time>
        <extensions>
          <gpxtpx:TrackPointExtension xmlns:gpxtpx="http://www.garmin.com/xmlschemas/TrackPointExtension/v1">
            <gpxtpx:hr>88</gpxtpx:hr>
          </gpxtpx:TrackPointExtension>
        </extensions>
      </trkpt>
      <trkpt lat="50.63565" lon="5.32211">
        <ele>148.19999694824</ele>
        <time>2019-10-02T07:49:09.000Z</time>
        <extensions>
          <gpxtpx:TrackPointExtension xmlns:gpxtpx="http://www.garmin.com/xmlschemas/TrackPointExtension/v1">
            <gpxtpx:hr>88</gpxtpx:hr>
          </gpxtpx:TrackPointExtension>
        </extensions>
      </trkpt>
      <trkpt lat="50.63578" lon="5.32209">
        <ele>147</ele>
        <time>2019-10-02T07:49:14.000Z</time>
        <extensions>
          <gpxtpx:TrackPointExtension xmlns:gpxtpx="http://www.garmin.com/xmlschemas/TrackPointExtension/v1">
            <gpxtpx:hr>92</gpxtpx:hr>
          </gpxtpx:TrackPointExtension>
        </extensions>
      </trkpt>
      <trkpt lat="50.63611" lon="5.32206">
        <ele>145.80000305176</ele>
        <time>2019-10-02T07:49:15.000Z</time>
        <extensions>
          <gpxtpx:TrackPointExtension xmlns:gpxtpx="http://www.garmin.com/xmlschemas/TrackPointExtension/v1">
            <gpxtpx:hr>94</gpxtpx:hr>
          </gpxtpx:TrackPointExtension>
        </extensions>
      </trkpt>
      <trkpt lat="50.63617" lon="5.32205">
        <ele>145.80000305176</ele>
        <time>2019-10-02T07:49:21.000Z</time>
        <extensions>
          <gpxtpx:TrackPointExtension xmlns:gpxtpx="http://www.garmin.com/xmlschemas/TrackPointExtension/v1">
            <gpxtpx:hr>94</gpxtpx:hr>
          </gpxtpx:TrackPointExtension>
        </extensions>
      </trkpt>
      <trkpt lat="50.63643" lon="5.32197">
        <ele>145.39999389648</ele>
        <time>2019-10-02T07:49:22.000Z</time>
        <extensions>
          <gpxtpx:TrackPointExtension xmlns:gpxtpx="http://www.garmin.com/xmlschemas/TrackPointExtension/v1">
            <gpxtpx:hr>95</gpxtpx:hr>
          </gpxtpx:TrackPointExtension>
        </extensions>
      </trkpt>
      <trkpt lat="50.63672" lon="5.32176">
        <ele>145.39999389648</ele>
        <time>2019-10-02T07:49:25.000Z</time>
        <extensions>
          <gpxtpx:TrackPointExtension xmlns:gpxtpx="http://www.garmin.com/xmlschemas/TrackPointExtension/v1">
            <gpxtpx:hr>98</gpxtpx:hr>
          </gpxtpx:TrackPointExtension>
        </extensions>
      </trkpt>
      <trkpt lat="50.63678" lon="5.32171">
        <ele>145.39999389648</ele>
        <time>2019-10-02T07:49:28.000Z</time>
        <extensions>
          <gpxtpx:TrackPointExtension xmlns:gpxtpx="http://www.garmin.com/xmlschemas/TrackPointExtension/v1">
            <gpxtpx:hr>98</gpxtpx:hr>
          </gpxtpx:TrackPointExtension>
        </extensions>
      </trkpt>
      <trkpt lat="50.63693" lon="5.32154">
        <ele>145.39999389648</ele>
        <time>2019-10-02T07:49:31.000Z</time>
        <extensions>
          <gpxtpx:TrackPointExtension xmlns:gpxtpx="http://www.garmin.com/xmlschemas/TrackPointExtension/v1">
            <gpxtpx:hr>101</gpxtpx:hr>
          </gpxtpx:TrackPointExtension>
        </extensions>
      </trkpt>
      <trkpt lat="50.63708" lon="5.32138">
        <ele>145.39999389648</ele>
        <time>2019-10-02T07:49:34.000Z</time>
        <extensions>
          <gpxtpx:TrackPointExtension xmlns:gpxtpx="http://www.garmin.com/xmlschemas/TrackPointExtension/v1">
            <gpxtpx:hr>104</gpxtpx:hr>
          </gpxtpx:TrackPointExtension>
        </extensions>
      </trkpt>
      <trkpt lat="50.63713" lon="5.32132">
        <ele>145.39999389648</ele>
        <time>2019-10-02T07:49:37.000Z</time>
        <extensions>
          <gpxtpx:TrackPointExtension xmlns:gpxtpx="http://www.garmin.com/xmlschemas/TrackPointExtension/v1">
            <gpxtpx:hr>105</gpxtpx:hr>
          </gpxtpx:TrackPointExtension>
        </extensions>
      </trkpt>
      <trkpt lat="50.63738" lon="5.32104">
        <ele>145.60000610352</ele>
        <time>2019-10-02T07:49:43.000Z</time>
        <extensions>
          <gpxtpx:TrackPointExtension xmlns:gpxtpx="http://www.garmin.com/xmlschemas/TrackPointExtension/v1">
            <gpxtpx:hr>108</gpxtpx:hr>
          </gpxtpx:TrackPointExtension>
        </extensions>
      </trkpt>
      <trkpt lat="50.63762" lon="5.32073">
        <ele>145.60000610352</ele>
        <time>2019-10-02T07:49:44.000Z</time>
        <extensions>
          <gpxtpx:TrackPointExtension xmlns:gpxtpx="http://www.garmin.com/xmlschemas/TrackPointExtension/v1">
            <gpxtpx:hr>109</gpxtpx:hr>
          </gpxtpx:TrackPointExtension>
        </extensions>
      </trkpt>
      <trkpt lat="50.63797" lon="5.32035">
        <ele>145.39999389648</ele>
        <time>2019-10-02T07:49:46.000Z</time>
        <extensions>
          <gpxtpx:TrackPointExtension xmlns:gpxtpx="http://www.garmin.com/xmlschemas/TrackPointExtension/v1">
            <gpxtpx:hr>112</gpxtpx:hr>
          </gpxtpx:TrackPointExtension>
        </extensions>
      </trkpt>
      <trkpt lat="50.63814" lon="5.32016">
        <ele>146</ele>
        <time>2019-10-02T07:49:52.000Z</time>
      </trkpt>
      <trkpt lat="50.6383" lon="5.32008">
        <ele>145.39999389648</ele>
        <time>2019-10-02T07:50:08.000Z</time>
        <extensions>
          <gpxtpx:TrackPointExtension xmlns:gpxtpx="http://www.garmin.com/xmlschemas/TrackPointExtension/v1">
            <gpxtpx:hr>115</gpxtpx:hr>
          </gpxtpx:TrackPointExtension>
        </extensions>
      </trkpt>
      <trkpt lat="50.63842" lon="5.31999">
        <ele>146</ele>
        <time>2019-10-02T07:50:13.000Z</time>
      </trkpt>
      <trkpt lat="50.63861" lon="5.31966">
        <ele>146.4</ele>
        <time>2019-10-02T07:50:34.000Z</time>
      </trkpt>
      <trkpt lat="50.63888" lon="5.31918">
        <ele>146.7</ele>
        <time>2019-10-02T07:50:35.000Z</time>
      </trkpt>
      <trkpt lat="50.63926" lon="5.31851">
        <ele>148.4</ele>
        <time>2019-10-02T07:50:36.000Z</time>
      </trkpt>
      <trkpt lat="50.63951" lon="5.31807">
        <ele>148.1</ele>
        <time>2019-10-02T07:50:38.000Z</time>
      </trkpt>
      <trkpt lat="50.63966" lon="5.31782">
        <ele>147.9</ele>
        <time>2019-10-02T07:50:39.000Z</time>
      </trkpt>
      <trkpt lat="50.63982" lon="5.31748">
        <ele>147</ele>
        <time>2019-10-02T07:50:42.000Z</time>
      </trkpt>
      <trkpt lat="50.63992" lon="5.31727">
        <ele>147.3</ele>
        <time>2019-10-02T07:50:47.000Z</time>
      </trkpt>
      <trkpt lat="50.63998" lon="5.31684">
        <ele>147.2</ele>
        <time>2019-10-02T07:50:48.000Z</time>
      </trkpt>
      <trkpt lat="50.64" lon="5.31588">
        <ele>148.9</ele>
        <time>2019-10-02T07:52:13.000Z</time>
      </trkpt>
      <trkpt lat="50.63999" lon="5.31559">
        <ele>149.3</ele>
        <time>2019-10-02T07:52:18.000Z</time>
      </trkpt>
      <trkpt lat="50.64008" lon="5.31509">
        <ele>148</ele>
        <time>2019-10-02T07:52:52.000Z</time>
        <extensions>
          <gpxtpx:TrackPointExtension xmlns:gpxtpx="http://www.garmin.com/xmlschemas/TrackPointExtension/v1">
            <gpxtpx:hr>125</gpxtpx:hr>
          </gpxtpx:TrackPointExtension>
        </extensions>
      </trkpt>
      <trkpt lat="50.64012" lon="5.31475">
        <ele>148.60000610352</ele>
        <time>2019-10-02T07:52:56.000Z</time>
        <extensions>
          <gpxtpx:TrackPointExtension xmlns:gpxtpx="http://www.garmin.com/xmlschemas/TrackPointExtension/v1">
            <gpxtpx:hr>125</gpxtpx:hr>
          </gpxtpx:TrackPointExtension>
        </extensions>
      </trkpt>
      <trkpt lat="50.64014" lon="5.31467">
        <ele>148.60000610352</ele>
        <time>2019-10-02T07:53:00.000Z</time>
        <extensions>
          <gpxtpx:TrackPointExtension xmlns:gpxtpx="http://www.garmin.com/xmlschemas/TrackPointExtension/v1">
            <gpxtpx:hr>126</gpxtpx:hr>
          </gpxtpx:TrackPointExtension>
        </extensions>
      </trkpt>
      <trkpt lat="50.64018" lon="5.31451">
        <ele>148.80000305176</ele>
        <time>2019-10-02T07:53:02.000Z</time>
        <extensions>
          <gpxtpx:TrackPointExtension xmlns:gpxtpx="http://www.garmin.com/xmlschemas/TrackPointExtension/v1">
            <gpxtpx:hr>126</gpxtpx:hr>
          </gpxtpx:TrackPointExtension>
        </extensions>
      </trkpt>
      <trkpt lat="50.64028" lon="5.31402">
        <ele>149.39999389648</ele>
        <time>2019-10-02T07:53:04.000Z</time>
        <extensions>
          <gpxtpx:TrackPointExtension xmlns:gpxtpx="http://www.garmin.com/xmlschemas/TrackPointExtension/v1">
            <gpxtpx:hr>128</gpxtpx:hr>
          </gpxtpx:TrackPointExtension>
        </extensions>
      </trkpt>
      <trkpt lat="50.6403" lon="5.31395">
        <ele>149.60000610352</ele>
        <time>2019-10-02T07:53:10.000Z</time>
        <extensions>
          <gpxtpx:TrackPointExtension xmlns:gpxtpx="http://www.garmin.com/xmlschemas/TrackPointExtension/v1">
            <gpxtpx:hr>128</gpxtpx:hr>
          </gpxtpx:TrackPointExtension>
        </extensions>
      </trkpt>
      <trkpt lat="50.64039" lon="5.31355">
        <ele>150.19999694824</ele>
        <time>2019-10-02T07:53:14.000Z</time>
        <extensions>
          <gpxtpx:TrackPointExtension xmlns:gpxtpx="http://www.garmin.com/xmlschemas/TrackPointExtension/v1">
            <gpxtpx:hr>131</gpxtpx:hr>
          </gpxtpx:TrackPointExtension>
        </extensions>
      </trkpt>
      <trkpt lat="50.64043" lon="5.31339">
        <ele>150.60000610352</ele>
        <time>2019-10-02T07:53:16.000Z</time>
        <extensions>
          <gpxtpx:TrackPointExtension xmlns:gpxtpx="http://www.garmin.com/xmlschemas/TrackPointExtension/v1">
            <gpxtpx:hr>131</gpxtpx:hr>
          </gpxtpx:TrackPointExtension>
        </extensions>
      </trkpt>
      <trkpt lat="50.64048" lon="5.31315">
        <ele>151</ele>
        <time>2019-10-02T07:53:20.000Z</time>
        <extensions>
          <gpxtpx:TrackPointExtension xmlns:gpxtpx="http://www.garmin.com/xmlschemas/TrackPointExtension/v1">
            <gpxtpx:hr>133</gpxtpx:hr>
          </gpxtpx:TrackPointExtension>
        </extensions>
      </trkpt>
      <trkpt lat="50.64055" lon="5.31284">
        <ele>151.60000610352</ele>
        <time>2019-10-02T07:53:27.000Z</time>
        <extensions>
          <gpxtpx:TrackPointExtension xmlns:gpxtpx="http://www.garmin.com/xmlschemas/TrackPointExtension/v1">
            <gpxtpx:hr>134</gpxtpx:hr>
          </gpxtpx:TrackPointExtension>
        </extensions>
      </trkpt>
      <trkpt lat="50.64056" lon="5.31276">
        <ele>151.80000305176</ele>
        <time>2019-10-02T07:53:31.000Z</time>
        <extensions>
          <gpxtpx:TrackPointExtension xmlns:gpxtpx="http://www.garmin.com/xmlschemas/TrackPointExtension/v1">
            <gpxtpx:hr>133</gpxtpx:hr>
          </gpxtpx:TrackPointExtension>
        </extensions>
      </trkpt>
      <trkpt lat="50.64058" lon="5.31269">
        <ele>152</ele>
        <time>2019-10-02T07:53:33.000Z</time>
        <extensions>
          <gpxtpx:TrackPointExtension xmlns:gpxtpx="http://www.garmin.com/xmlschemas/TrackPointExtension/v1">
            <gpxtpx:hr>134</gpxtpx:hr>
          </gpxtpx:TrackPointExtension>
        </extensions>
      </trkpt>
      <trkpt lat="50.64068" lon="5.3122">
        <ele>152.80000305176</ele>
        <time>2019-10-02T07:53:39.000Z</time>
        <extensions>
          <gpxtpx:TrackPointExtension xmlns:gpxtpx="http://www.garmin.com/xmlschemas/TrackPointExtension/v1">
            <gpxtpx:hr>135</gpxtpx:hr>
          </gpxtpx:TrackPointExtension>
        </extensions>
      </trkpt>
      <trkpt lat="50.64075" lon="5.31197">
        <ele>153.19999694824</ele>
        <time>2019-10-02T07:53:42.000Z</time>
        <extensions>
          <gpxtpx:TrackPointExtension xmlns:gpxtpx="http://www.garmin.com/xmlschemas/TrackPointExtension/v1">
            <gpxtpx:hr>135</gpxtpx:hr>
          </gpxtpx:TrackPointExtension>
        </extensions>
      </trkpt>
      <trkpt lat="50.64085" lon="5.3115">
        <ele>154</ele>
        <time>2019-10-02T07:53:49.000Z</time>
        <extensions>
          <gpxtpx:TrackPointExtension xmlns:gpxtpx="http://www.garmin.com/xmlschemas/TrackPointExtension/v1">
            <gpxtpx:hr>136</gpxtpx:hr>
          </gpxtpx:TrackPointExtension>
        </extensions>
      </trkpt>
      <trkpt lat="50.64087" lon="5.31142">
        <ele>154.19999694824</ele>
        <time>2019-10-02T07:53:50.000Z</time>
        <extensions>
          <gpxtpx:TrackPointExtension xmlns:gpxtpx="http://www.garmin.com/xmlschemas/TrackPointExtension/v1">
            <gpxtpx:hr>136</gpxtpx:hr>
          </gpxtpx:TrackPointExtension>
        </extensions>
      </trkpt>
      <trkpt lat="50.64097" lon="5.31095">
        <ele>155</ele>
        <time>2019-10-02T07:54:10.000Z</time>
        <extensions>
          <gpxtpx:TrackPointExtension xmlns:gpxtpx="http://www.garmin.com/xmlschemas/TrackPointExtension/v1">
            <gpxtpx:hr>137</gpxtpx:hr>
          </gpxtpx:TrackPointExtension>
        </extensions>
      </trkpt>
      <trkpt lat="50.64099" lon="5.31087">
        <ele>155</ele>
        <time>2019-10-02T07:54:13.000Z</time>
        <extensions>
          <gpxtpx:TrackPointExtension xmlns:gpxtpx="http://www.garmin.com/xmlschemas/TrackPointExtension/v1">
            <gpxtpx:hr>137</gpxtpx:hr>
          </gpxtpx:TrackPointExtension>
        </extensions>
      </trkpt>
      <trkpt lat="50.64109" lon="5.3104">
        <ele>156.19999694824</ele>
        <time>2019-10-02T07:54:16.000Z</time>
        <extensions>
          <gpxtpx:TrackPointExtension xmlns:gpxtpx="http://www.garmin.com/xmlschemas/TrackPointExtension/v1">
            <gpxtpx:hr>137</gpxtpx:hr>
          </gpxtpx:TrackPointExtension>
        </extensions>
      </trkpt>
      <trkpt lat="50.64112" lon="5.31024">
        <ele>156.60000610352</ele>
        <time>2019-10-02T07:54:22.000Z</time>
        <extensions>
          <gpxtpx:TrackPointExtension xmlns:gpxtpx="http://www.garmin.com/xmlschemas/TrackPointExtension/v1">
            <gpxtpx:hr>138</gpxtpx:hr>
          </gpxtpx:TrackPointExtension>
        </extensions>
      </trkpt>
      <trkpt lat="50.64127" lon="5.30961">
        <ele>157.19999694824</ele>
        <time>2019-10-02T07:54:29.000Z</time>
        <extensions>
          <gpxtpx:TrackPointExtension xmlns:gpxtpx="http://www.garmin.com/xmlschemas/TrackPointExtension/v1">
            <gpxtpx:hr>139</gpxtpx:hr>
          </gpxtpx:TrackPointExtension>
        </extensions>
      </trkpt>
      <trkpt lat="50.64131" lon="5.30945">
        <ele>157.39999389648</ele>
        <time>2019-10-02T07:54:30.000Z</time>
        <extensions>
          <gpxtpx:TrackPointExtension xmlns:gpxtpx="http://www.garmin.com/xmlschemas/TrackPointExtension/v1">
            <gpxtpx:hr>139</gpxtpx:hr>
          </gpxtpx:TrackPointExtension>
        </extensions>
      </trkpt>
      <trkpt lat="50.64138" lon="5.30912">
        <ele>158.19999694824</ele>
        <time>2019-10-02T07:54:37.000Z</time>
        <extensions>
          <gpxtpx:TrackPointExtension xmlns:gpxtpx="http://www.garmin.com/xmlschemas/TrackPointExtension/v1">
            <gpxtpx:hr>139</gpxtpx:hr>
          </gpxtpx:TrackPointExtension>
        </extensions>
      </trkpt>
      <trkpt lat="50.64142" lon="5.30887">
        <ele>158.39999389648</ele>
        <time>2019-10-02T07:54:42.000Z</time>
        <extensions>
          <gpxtpx:TrackPointExtension xmlns:gpxtpx="http://www.garmin.com/xmlschemas/TrackPointExtension/v1">
            <gpxtpx:hr>140</gpxtpx:hr>
          </gpxtpx:TrackPointExtension>
        </extensions>
      </trkpt>
      <trkpt lat="50.64147" lon="5.30853">
        <ele>159.19999694824</ele>
        <time>2019-10-02T07:54:51.000Z</time>
        <extensions>
          <gpxtpx:TrackPointExtension xmlns:gpxtpx="http://www.garmin.com/xmlschemas/TrackPointExtension/v1">
            <gpxtpx:hr>140</gpxtpx:hr>
          </gpxtpx:TrackPointExtension>
        </extensions>
      </trkpt>
      <trkpt lat="50.64151" lon="5.30824">
        <ele>159.60000610352</ele>
        <time>2019-10-02T07:55:00.000Z</time>
        <extensions>
          <gpxtpx:TrackPointExtension xmlns:gpxtpx="http://www.garmin.com/xmlschemas/TrackPointExtension/v1">
            <gpxtpx:hr>140</gpxtpx:hr>
          </gpxtpx:TrackPointExtension>
        </extensions>
      </trkpt>
      <trkpt lat="50.64156" lon="5.30746">
        <ele>159.80000305176</ele>
        <time>2019-10-02T07:55:01.000Z</time>
        <extensions>
          <gpxtpx:TrackPointExtension xmlns:gpxtpx="http://www.garmin.com/xmlschemas/TrackPointExtension/v1">
            <gpxtpx:hr>139</gpxtpx:hr>
          </gpxtpx:TrackPointExtension>
        </extensions>
      </trkpt>
      <trkpt lat="50.64164" lon="5.30656">
        <ele>159.19999694824</ele>
        <time>2019-10-02T07:55:10.000Z</time>
        <extensions>
          <gpxtpx:TrackPointExtension xmlns:gpxtpx="http://www.garmin.com/xmlschemas/TrackPointExtension/v1">
            <gpxtpx:hr>136</gpxtpx:hr>
          </gpxtpx:TrackPointExtension>
        </extensions>
      </trkpt>
      <trkpt lat="50.64167" lon="5.30616">
        <ele>158.60000610352</ele>
        <time>2019-10-02T07:55:11.000Z</time>
        <extensions>
          <gpxtpx:TrackPointExtension xmlns:gpxtpx="http://www.garmin.com/xmlschemas/TrackPointExtension/v1">
            <gpxtpx:hr>133</gpxtpx:hr>
          </gpxtpx:TrackPointExtension>
        </extensions>
      </trkpt>
      <trkpt lat="50.64171" lon="5.30565">
        <ele>158.19999694824</ele>
        <time>2019-10-02T07:55:19.000Z</time>
        <extensions>
          <gpxtpx:TrackPointExtension xmlns:gpxtpx="http://www.garmin.com/xmlschemas/TrackPointExtension/v1">
            <gpxtpx:hr>131</gpxtpx:hr>
          </gpxtpx:TrackPointExtension>
        </extensions>
      </trkpt>
      <trkpt lat="50.64174" lon="5.30533">
        <ele>158</ele>
        <time>2019-10-02T07:55:21.000Z</time>
        <extensions>
          <gpxtpx:TrackPointExtension xmlns:gpxtpx="http://www.garmin.com/xmlschemas/TrackPointExtension/v1">
            <gpxtpx:hr>129</gpxtpx:hr>
          </gpxtpx:TrackPointExtension>
        </extensions>
      </trkpt>
      <trkpt lat="50.64176" lon="5.30512">
        <ele>157.80000305176</ele>
        <time>2019-10-02T07:55:29.000Z</time>
        <extensions>
          <gpxtpx:TrackPointExtension xmlns:gpxtpx="http://www.garmin.com/xmlschemas/TrackPointExtension/v1">
            <gpxtpx:hr>126</gpxtpx:hr>
          </gpxtpx:TrackPointExtension>
        </extensions>
      </trkpt>
      <trkpt lat="50.64179" lon="5.30479">
        <ele>157.39999389648</ele>
        <time>2019-10-02T07:55:36.000Z</time>
        <extensions>
          <gpxtpx:TrackPointExtension xmlns:gpxtpx="http://www.garmin.com/xmlschemas/TrackPointExtension/v1">
            <gpxtpx:hr>122</gpxtpx:hr>
          </gpxtpx:TrackPointExtension>
        </extensions>
      </trkpt>
      <trkpt lat="50.64181" lon="5.30458">
        <ele>157</ele>
        <time>2019-10-02T07:55:37.000Z</time>
        <extensions>
          <gpxtpx:TrackPointExtension xmlns:gpxtpx="http://www.garmin.com/xmlschemas/TrackPointExtension/v1">
            <gpxtpx:hr>119</gpxtpx:hr>
          </gpxtpx:TrackPointExtension>
        </extensions>
      </trkpt>
      <trkpt lat="50.64182" lon="5.30436">
        <ele>156.80000305176</ele>
        <time>2019-10-02T07:55:40.000Z</time>
        <extensions>
          <gpxtpx:TrackPointExtension xmlns:gpxtpx="http://www.garmin.com/xmlschemas/TrackPointExtension/v1">
            <gpxtpx:hr>118</gpxtpx:hr>
          </gpxtpx:TrackPointExtension>
        </extensions>
      </trkpt>
      <trkpt lat="50.64189" lon="5.30359">
        <ele>156.60000610352</ele>
        <time>2019-10-02T07:55:44.000Z</time>
        <extensions>
          <gpxtpx:TrackPointExtension xmlns:gpxtpx="http://www.garmin.com/xmlschemas/TrackPointExtension/v1">
            <gpxtpx:hr>117</gpxtpx:hr>
          </gpxtpx:TrackPointExtension>
        </extensions>
      </trkpt>
      <trkpt lat="50.64198" lon="5.30294">
        <ele>156.19999694824</ele>
        <time>2019-10-02T07:55:48.000Z</time>
        <extensions>
          <gpxtpx:TrackPointExtension xmlns:gpxtpx="http://www.garmin.com/xmlschemas/TrackPointExtension/v1">
            <gpxtpx:hr>114</gpxtpx:hr>
          </gpxtpx:TrackPointExtension>
        </extensions>
      </trkpt>
      <trkpt lat="50.64201" lon="5.30274">
        <ele>156</ele>
        <time>2019-10-02T07:55:49.000Z</time>
        <extensions>
          <gpxtpx:TrackPointExtension xmlns:gpxtpx="http://www.garmin.com/xmlschemas/TrackPointExtension/v1">
            <gpxtpx:hr>114</gpxtpx:hr>
          </gpxtpx:TrackPointExtension>
        </extensions>
      </trkpt>
      <trkpt lat="50.64205" lon="5.30253">
        <ele>155.80000305176</ele>
        <time>2019-10-02T07:56:12.000Z</time>
        <extensions>
          <gpxtpx:TrackPointExtension xmlns:gpxtpx="http://www.garmin.com/xmlschemas/TrackPointExtension/v1">
            <gpxtpx:hr>115</gpxtpx:hr>
          </gpxtpx:TrackPointExtension>
        </extensions>
      </trkpt>
      <trkpt lat="50.64214" lon="5.30195">
        <ele>155.60000610352</ele>
        <time>2019-10-02T07:56:13.000Z</time>
        <extensions>
          <gpxtpx:TrackPointExtension xmlns:gpxtpx="http://www.garmin.com/xmlschemas/TrackPointExtension/v1">
            <gpxtpx:hr>115</gpxtpx:hr>
          </gpxtpx:TrackPointExtension>
        </extensions>
      </trkpt>
      <trkpt lat="50.64224" lon="5.3013">
        <ele>155.80000305176</ele>
        <time>2019-10-02T07:56:17.000Z</time>
        <extensions>
          <gpxtpx:TrackPointExtension xmlns:gpxtpx="http://www.garmin.com/xmlschemas/TrackPointExtension/v1">
            <gpxtpx:hr>118</gpxtpx:hr>
          </gpxtpx:TrackPointExtension>
        </extensions>
      </trkpt>
      <trkpt lat="50.64228" lon="5.30112">
        <ele>156</ele>
        <time>2019-10-02T07:56:24.000Z</time>
        <extensions>
          <gpxtpx:TrackPointExtension xmlns:gpxtpx="http://www.garmin.com/xmlschemas/TrackPointExtension/v1">
            <gpxtpx:hr>119</gpxtpx:hr>
          </gpxtpx:TrackPointExtension>
        </extensions>
      </trkpt>
      <trkpt lat="50.64235" lon="5.30067">
        <ele>156.39999389648</ele>
        <time>2019-10-02T07:56:32.000Z</time>
        <extensions>
          <gpxtpx:TrackPointExtension xmlns:gpxtpx="http://www.garmin.com/xmlschemas/TrackPointExtension/v1">
            <gpxtpx:hr>122</gpxtpx:hr>
          </gpxtpx:TrackPointExtension>
        </extensions>
      </trkpt>
      <trkpt lat="50.64242" lon="5.30032">
        <ele>156.80000305176</ele>
        <time>2019-10-02T07:56:33.000Z</time>
        <extensions>
          <gpxtpx:TrackPointExtension xmlns:gpxtpx="http://www.garmin.com/xmlschemas/TrackPointExtension/v1">
            <gpxtpx:hr>124</gpxtpx:hr>
          </gpxtpx:TrackPointExtension>
        </extensions>
      </trkpt>
      <trkpt lat="50.64245" lon="5.30015">
        <ele>157.19999694824</ele>
        <time>2019-10-02T07:56:35.000Z</time>
        <extensions>
          <gpxtpx:TrackPointExtension xmlns:gpxtpx="http://www.garmin.com/xmlschemas/TrackPointExtension/v1">
            <gpxtpx:hr>125</gpxtpx:hr>
          </gpxtpx:TrackPointExtension>
        </extensions>
      </trkpt>
      <trkpt lat="50.64251" lon="5.2998">
        <ele>157.60000610352</ele>
        <time>2019-10-02T07:56:38.000Z</time>
        <extensions>
          <gpxtpx:TrackPointExtension xmlns:gpxtpx="http://www.garmin.com/xmlschemas/TrackPointExtension/v1">
            <gpxtpx:hr>128</gpxtpx:hr>
          </gpxtpx:TrackPointExtension>
        </extensions>
      </trkpt>
      <trkpt lat="50.64255" lon="5.29963">
        <ele>158</ele>
        <time>2019-10-02T07:56:43.000Z</time>
        <extensions>
          <gpxtpx:TrackPointExtension xmlns:gpxtpx="http://www.garmin.com/xmlschemas/TrackPointExtension/v1">
            <gpxtpx:hr>129</gpxtpx:hr>
          </gpxtpx:TrackPointExtension>
        </extensions>
      </trkpt>
      <trkpt lat="50.64261" lon="5.29938">
        <ele>158.39999389648</ele>
        <time>2019-10-02T07:56:47.000Z</time>
        <extensions>
          <gpxtpx:TrackPointExtension xmlns:gpxtpx="http://www.garmin.com/xmlschemas/TrackPointExtension/v1">
            <gpxtpx:hr>131</gpxtpx:hr>
          </gpxtpx:TrackPointExtension>
        </extensions>
      </trkpt>
      <trkpt lat="50.64266" lon="5.29921">
        <ele>159</ele>
        <time>2019-10-02T07:57:48.000Z</time>
        <extensions>
          <gpxtpx:TrackPointExtension xmlns:gpxtpx="http://www.garmin.com/xmlschemas/TrackPointExtension/v1">
            <gpxtpx:hr>132</gpxtpx:hr>
          </gpxtpx:TrackPointExtension>
        </extensions>
      </trkpt>
      <trkpt lat="50.64283" lon="5.2987">
        <ele>159.39999389648</ele>
        <time>2019-10-02T07:58:00.000Z</time>
        <extensions>
          <gpxtpx:TrackPointExtension xmlns:gpxtpx="http://www.garmin.com/xmlschemas/TrackPointExtension/v1">
            <gpxtpx:hr>134</gpxtpx:hr>
          </gpxtpx:TrackPointExtension>
        </extensions>
      </trkpt>
      <trkpt lat="50.64315" lon="5.29794">
        <ele>159.19999694824</ele>
        <time>2019-10-02T07:58:01.000Z</time>
        <extensions>
          <gpxtpx:TrackPointExtension xmlns:gpxtpx="http://www.garmin.com/xmlschemas/TrackPointExtension/v1">
            <gpxtpx:hr>134</gpxtpx:hr>
          </gpxtpx:TrackPointExtension>
        </extensions>
      </trkpt>
      <trkpt lat="50.64344" lon="5.29724">
        <ele>158.80000305176</ele>
        <time>2019-10-02T07:58:14.000Z</time>
        <extensions>
          <gpxtpx:TrackPointExtension xmlns:gpxtpx="http://www.garmin.com/xmlschemas/TrackPointExtension/v1">
            <gpxtpx:hr>132</gpxtpx:hr>
          </gpxtpx:TrackPointExtension>
        </extensions>
      </trkpt>
      <trkpt lat="50.64374" lon="5.29634">
        <ele>158.2</ele>
        <time>2019-10-02T07:58:23.000Z</time>
      </trkpt>
      <trkpt lat="50.644" lon="5.29568">
        <ele>159.2</ele>
        <time>2019-10-02T07:58:31.000Z</time>
      </trkpt>
      <trkpt lat="50.6442" lon="5.29518">
        <ele>160.3</ele>
        <time>2019-10-02T07:58:37.000Z</time>
      </trkpt>
      <trkpt lat="50.6444" lon="5.29469">
        <ele>160.2</ele>
        <time>2019-10-02T07:58:38.000Z</time>
      </trkpt>
      <trkpt lat="50.64461" lon="5.29413">
        <ele>159.9</ele>
        <time>2019-10-02T07:58:45.000Z</time>
      </trkpt>
      <trkpt lat="50.64482" lon="5.29361">
        <ele>159.7</ele>
        <time>2019-10-02T07:58:48.000Z</time>
      </trkpt>
      <trkpt lat="50.64499" lon="5.29319">
        <ele>159.3</ele>
        <time>2019-10-02T07:58:50.000Z</time>
      </trkpt>
      <trkpt lat="50.6452" lon="5.29265">
        <ele>158.4</ele>
        <time>2019-10-02T07:58:52.000Z</time>
      </trkpt>
      <trkpt lat="50.64548" lon="5.29184">
        <ele>160.39999389648</ele>
        <time>2019-10-02T07:58:59.000Z</time>
        <extensions>
          <gpxtpx:TrackPointExtension xmlns:gpxtpx="http://www.garmin.com/xmlschemas/TrackPointExtension/v1">
            <gpxtpx:hr>130</gpxtpx:hr>
          </gpxtpx:TrackPointExtension>
        </extensions>
      </trkpt>
      <trkpt lat="50.64554" lon="5.29166">
        <ele>160.19999694824</ele>
        <time>2019-10-02T07:59:00.000Z</time>
        <extensions>
          <gpxtpx:TrackPointExtension xmlns:gpxtpx="http://www.garmin.com/xmlschemas/TrackPointExtension/v1">
            <gpxtpx:hr>129</gpxtpx:hr>
          </gpxtpx:TrackPointExtension>
        </extensions>
      </trkpt>
      <trkpt lat="50.64579" lon="5.29084">
        <ele>160.39999389648</ele>
        <time>2019-10-02T07:59:24.000Z</time>
        <extensions>
          <gpxtpx:TrackPointExtension xmlns:gpxtpx="http://www.garmin.com/xmlschemas/TrackPointExtension/v1">
            <gpxtpx:hr>128</gpxtpx:hr>
          </gpxtpx:TrackPointExtension>
        </extensions>
      </trkpt>
      <trkpt lat="50.64582" lon="5.29065">
        <ele>160.39999389648</ele>
        <time>2019-10-02T07:59:26.000Z</time>
        <extensions>
          <gpxtpx:TrackPointExtension xmlns:gpxtpx="http://www.garmin.com/xmlschemas/TrackPointExtension/v1">
            <gpxtpx:hr>128</gpxtpx:hr>
          </gpxtpx:TrackPointExtension>
        </extensions>
      </trkpt>
      <trkpt lat="50.64586" lon="5.28992">
        <ele>160.39999389648</ele>
        <time>2019-10-02T07:59:36.000Z</time>
        <extensions>
          <gpxtpx:TrackPointExtension xmlns:gpxtpx="http://www.garmin.com/xmlschemas/TrackPointExtension/v1">
            <gpxtpx:hr>128</gpxtpx:hr>
          </gpxtpx:TrackPointExtension>
        </extensions>
      </trkpt>
      <trkpt lat="50.64589" lon="5.2892">
        <ele>160</ele>
        <time>2019-10-02T08:00:00.000Z</time>
        <extensions>
          <gpxtpx:TrackPointExtension xmlns:gpxtpx="http://www.garmin.com/xmlschemas/TrackPointExtension/v1">
            <gpxtpx:hr>125</gpxtpx:hr>
          </gpxtpx:TrackPointExtension>
        </extensions>
      </trkpt>
      <trkpt lat="50.6459" lon="5.28899">
        <ele>159.39999389648</ele>
        <time>2019-10-02T08:00:07.000Z</time>
        <extensions>
          <gpxtpx:TrackPointExtension xmlns:gpxtpx="http://www.garmin.com/xmlschemas/TrackPointExtension/v1">
            <gpxtpx:hr>122</gpxtpx:hr>
          </gpxtpx:TrackPointExtension>
        </extensions>
      </trkpt>
      <trkpt lat="50.64591" lon="5.28878">
        <ele>159.19999694824</ele>
        <time>2019-10-02T08:00:10.000Z</time>
        <extensions>
          <gpxtpx:TrackPointExtension xmlns:gpxtpx="http://www.garmin.com/xmlschemas/TrackPointExtension/v1">
            <gpxtpx:hr>120</gpxtpx:hr>
          </gpxtpx:TrackPointExtension>
        </extensions>
      </trkpt>
      <trkpt lat="50.64593" lon="5.28846">
        <ele>158.80000305176</ele>
        <time>2019-10-02T08:00:14.000Z</time>
        <extensions>
          <gpxtpx:TrackPointExtension xmlns:gpxtpx="http://www.garmin.com/xmlschemas/TrackPointExtension/v1">
            <gpxtpx:hr>119</gpxtpx:hr>
          </gpxtpx:TrackPointExtension>
        </extensions>
      </trkpt>
      <trkpt lat="50.64595" lon="5.28801">
        <ele>158.39999389648</ele>
        <time>2019-10-02T08:00:58.000Z</time>
        <extensions>
          <gpxtpx:TrackPointExtension xmlns:gpxtpx="http://www.garmin.com/xmlschemas/TrackPointExtension/v1">
            <gpxtpx:hr>116</gpxtpx:hr>
          </gpxtpx:TrackPointExtension>
        </extensions>
      </trkpt>
      <trkpt lat="50.64596" lon="5.28779">
        <ele>157.80000305176</ele>
        <time>2019-10-02T08:01:06.000Z</time>
        <extensions>
          <gpxtpx:TrackPointExtension xmlns:gpxtpx="http://www.garmin.com/xmlschemas/TrackPointExtension/v1">
            <gpxtpx:hr>114</gpxtpx:hr>
          </gpxtpx:TrackPointExtension>
        </extensions>
      </trkpt>
      <trkpt lat="50.64597" lon="5.28768">
        <ele>157.60000610352</ele>
        <time>2019-10-02T08:01:09.000Z</time>
        <extensions>
          <gpxtpx:TrackPointExtension xmlns:gpxtpx="http://www.garmin.com/xmlschemas/TrackPointExtension/v1">
            <gpxtpx:hr>114</gpxtpx:hr>
          </gpxtpx:TrackPointExtension>
        </extensions>
      </trkpt>
      <trkpt lat="50.64599" lon="5.28723">
        <ele>157</ele>
        <time>2019-10-02T08:01:16.000Z</time>
        <extensions>
          <gpxtpx:TrackPointExtension xmlns:gpxtpx="http://www.garmin.com/xmlschemas/TrackPointExtension/v1">
            <gpxtpx:hr>111</gpxtpx:hr>
          </gpxtpx:TrackPointExtension>
        </extensions>
      </trkpt>
      <trkpt lat="50.64601" lon="5.28667">
        <ele>156.60000610352</ele>
        <time>2019-10-02T08:01:21.000Z</time>
        <extensions>
          <gpxtpx:TrackPointExtension xmlns:gpxtpx="http://www.garmin.com/xmlschemas/TrackPointExtension/v1">
            <gpxtpx:hr>109</gpxtpx:hr>
          </gpxtpx:TrackPointExtension>
        </extensions>
      </trkpt>
      <trkpt lat="50.64603" lon="5.28633">
        <ele>156.39999389648</ele>
        <time>2019-10-02T08:01:25.000Z</time>
        <extensions>
          <gpxtpx:TrackPointExtension xmlns:gpxtpx="http://www.garmin.com/xmlschemas/TrackPointExtension/v1">
            <gpxtpx:hr>108</gpxtpx:hr>
          </gpxtpx:TrackPointExtension>
        </extensions>
      </trkpt>
      <trkpt lat="50.64604" lon="5.2861">
        <ele>155.39999389648</ele>
        <time>2019-10-02T08:01:28.000Z</time>
        <extensions>
          <gpxtpx:TrackPointExtension xmlns:gpxtpx="http://www.garmin.com/xmlschemas/TrackPointExtension/v1">
            <gpxtpx:hr>108</gpxtpx:hr>
          </gpxtpx:TrackPointExtension>
        </extensions>
      </trkpt>
      <trkpt lat="50.64606" lon="5.28541">
        <ele>154.39999389648</ele>
        <time>2019-10-02T08:01:36.000Z</time>
        <extensions>
          <gpxtpx:TrackPointExtension xmlns:gpxtpx="http://www.garmin.com/xmlschemas/TrackPointExtension/v1">
            <gpxtpx:hr>107</gpxtpx:hr>
          </gpxtpx:TrackPointExtension>
        </extensions>
      </trkpt>
      <trkpt lat="50.64606" lon="5.28529">
        <ele>154.19999694824</ele>
        <time>2019-10-02T08:01:37.000Z</time>
        <extensions>
          <gpxtpx:TrackPointExtension xmlns:gpxtpx="http://www.garmin.com/xmlschemas/TrackPointExtension/v1">
            <gpxtpx:hr>107</gpxtpx:hr>
          </gpxtpx:TrackPointExtension>
        </extensions>
      </trkpt>
      <trkpt lat="50.64602" lon="5.28467">
        <ele>149</ele>
        <time>2019-10-02T08:01:42.000Z</time>
      </trkpt>
      <trkpt lat="50.64599" lon="5.28444">
        <ele>149</ele>
        <time>2019-10-02T08:01:46.000Z</time>
      </trkpt>
      <trkpt lat="50.64591" lon="5.28405">
        <ele>148.8</ele>
        <time>2019-10-02T08:01:55.000Z</time>
      </trkpt>
      <trkpt lat="50.64577" lon="5.28346">
        <ele>149.4</ele>
        <time>2019-10-02T08:02:00.000Z</time>
      </trkpt>
      <trkpt lat="50.64574" lon="5.28332">
        <ele>151.19999694824</ele>
        <time>2019-10-02T08:02:05.000Z</time>
        <extensions>
          <gpxtpx:TrackPointExtension xmlns:gpxtpx="http://www.garmin.com/xmlschemas/TrackPointExtension/v1">
            <gpxtpx:hr>107</gpxtpx:hr>
          </gpxtpx:TrackPointExtension>
        </extensions>
      </trkpt>
      <trkpt lat="50.64565" lon="5.28294">
        <ele>151.19999694824</ele>
        <time>2019-10-02T08:02:06.000Z</time>
        <extensions>
          <gpxtpx:TrackPointExtension xmlns:gpxtpx="http://www.garmin.com/xmlschemas/TrackPointExtension/v1">
            <gpxtpx:hr>110</gpxtpx:hr>
          </gpxtpx:TrackPointExtension>
        </extensions>
      </trkpt>
      <trkpt lat="50.64558" lon="5.28267">
        <ele>151.19999694824</ele>
        <time>2019-10-02T08:02:07.000Z</time>
        <extensions>
          <gpxtpx:TrackPointExtension xmlns:gpxtpx="http://www.garmin.com/xmlschemas/TrackPointExtension/v1">
            <gpxtpx:hr>113</gpxtpx:hr>
          </gpxtpx:TrackPointExtension>
        </extensions>
      </trkpt>
      <trkpt lat="50.64553" lon="5.28249">
        <ele>151.60000610352</ele>
        <time>2019-10-02T08:02:09.000Z</time>
        <extensions>
          <gpxtpx:TrackPointExtension xmlns:gpxtpx="http://www.garmin.com/xmlschemas/TrackPointExtension/v1">
            <gpxtpx:hr>116</gpxtpx:hr>
          </gpxtpx:TrackPointExtension>
        </extensions>
      </trkpt>
      <trkpt lat="50.64546" lon="5.28223">
        <ele>152</ele>
        <time>2019-10-02T08:02:10.000Z</time>
        <extensions>
          <gpxtpx:TrackPointExtension xmlns:gpxtpx="http://www.garmin.com/xmlschemas/TrackPointExtension/v1">
            <gpxtpx:hr>119</gpxtpx:hr>
          </gpxtpx:TrackPointExtension>
        </extensions>
      </trkpt>
      <trkpt lat="50.64537" lon="5.28188">
        <ele>152.60000610352</ele>
        <time>2019-10-02T08:02:12.000Z</time>
        <extensions>
          <gpxtpx:TrackPointExtension xmlns:gpxtpx="http://www.garmin.com/xmlschemas/TrackPointExtension/v1">
            <gpxtpx:hr>122</gpxtpx:hr>
          </gpxtpx:TrackPointExtension>
        </extensions>
      </trkpt>
      <trkpt lat="50.64529" lon="5.28161">
        <ele>153</ele>
        <time>2019-10-02T08:02:13.000Z</time>
        <extensions>
          <gpxtpx:TrackPointExtension xmlns:gpxtpx="http://www.garmin.com/xmlschemas/TrackPointExtension/v1">
            <gpxtpx:hr>124</gpxtpx:hr>
          </gpxtpx:TrackPointExtension>
        </extensions>
      </trkpt>
      <trkpt lat="50.64527" lon="5.28152">
        <ele>152.80000305176</ele>
        <time>2019-10-02T08:02:14.000Z</time>
        <extensions>
          <gpxtpx:TrackPointExtension xmlns:gpxtpx="http://www.garmin.com/xmlschemas/TrackPointExtension/v1">
            <gpxtpx:hr>125</gpxtpx:hr>
          </gpxtpx:TrackPointExtension>
        </extensions>
      </trkpt>
      <trkpt lat="50.64512" lon="5.28098">
        <ele>153.39999389648</ele>
        <time>2019-10-02T08:02:18.000Z</time>
        <extensions>
          <gpxtpx:TrackPointExtension xmlns:gpxtpx="http://www.garmin.com/xmlschemas/TrackPointExtension/v1">
            <gpxtpx:hr>128</gpxtpx:hr>
          </gpxtpx:TrackPointExtension>
        </extensions>
      </trkpt>
      <trkpt lat="50.64507" lon="5.2808">
        <ele>153.60000610352</ele>
        <time>2019-10-02T08:02:46.000Z</time>
        <extensions>
          <gpxtpx:TrackPointExtension xmlns:gpxtpx="http://www.garmin.com/xmlschemas/TrackPointExtension/v1">
            <gpxtpx:hr>128</gpxtpx:hr>
          </gpxtpx:TrackPointExtension>
        </extensions>
      </trkpt>
      <trkpt lat="50.64497" lon="5.28044">
        <ele>153.80000305176</ele>
        <time>2019-10-02T08:02:48.000Z</time>
        <extensions>
          <gpxtpx:TrackPointExtension xmlns:gpxtpx="http://www.garmin.com/xmlschemas/TrackPointExtension/v1">
            <gpxtpx:hr>131</gpxtpx:hr>
          </gpxtpx:TrackPointExtension>
        </extensions>
      </trkpt>
      <trkpt lat="50.64483" lon="5.2799">
        <ele>154.60000610352</ele>
        <time>2019-10-02T08:02:49.000Z</time>
        <extensions>
          <gpxtpx:TrackPointExtension xmlns:gpxtpx="http://www.garmin.com/xmlschemas/TrackPointExtension/v1">
            <gpxtpx:hr>134</gpxtpx:hr>
          </gpxtpx:TrackPointExtension>
        </extensions>
      </trkpt>
      <trkpt lat="50.64478" lon="5.27972">
        <ele>154.80000305176</ele>
        <time>2019-10-02T08:02:51.000Z</time>
        <extensions>
          <gpxtpx:TrackPointExtension xmlns:gpxtpx="http://www.garmin.com/xmlschemas/TrackPointExtension/v1">
            <gpxtpx:hr>135</gpxtpx:hr>
          </gpxtpx:TrackPointExtension>
        </extensions>
      </trkpt>
      <trkpt lat="50.64464" lon="5.27919">
        <ele>155.39999389648</ele>
        <time>2019-10-02T08:02:54.000Z</time>
        <extensions>
          <gpxtpx:TrackPointExtension xmlns:gpxtpx="http://www.garmin.com/xmlschemas/TrackPointExtension/v1">
            <gpxtpx:hr>138</gpxtpx:hr>
          </gpxtpx:TrackPointExtension>
        </extensions>
      </trkpt>
      <trkpt lat="50.64457" lon="5.27893">
        <ele>155.80000305176</ele>
        <time>2019-10-02T08:02:57.000Z</time>
        <extensions>
          <gpxtpx:TrackPointExtension xmlns:gpxtpx="http://www.garmin.com/xmlschemas/TrackPointExtension/v1">
            <gpxtpx:hr>139</gpxtpx:hr>
          </gpxtpx:TrackPointExtension>
        </extensions>
      </trkpt>
      <trkpt lat="50.64453" lon="5.27875">
        <ele>156</ele>
        <time>2019-10-02T08:03:00.000Z</time>
        <extensions>
          <gpxtpx:TrackPointExtension xmlns:gpxtpx="http://www.garmin.com/xmlschemas/TrackPointExtension/v1">
            <gpxtpx:hr>139</gpxtpx:hr>
          </gpxtpx:TrackPointExtension>
        </extensions>
      </trkpt>
      <trkpt lat="50.64435" lon="5.27813">
        <ele>156.60000610352</ele>
        <time>2019-10-02T08:03:01.000Z</time>
        <extensions>
          <gpxtpx:TrackPointExtension xmlns:gpxtpx="http://www.garmin.com/xmlschemas/TrackPointExtension/v1">
            <gpxtpx:hr>141</gpxtpx:hr>
          </gpxtpx:TrackPointExtension>
        </extensions>
      </trkpt>
      <trkpt lat="50.64418" lon="5.27771">
        <ele>157.19999694824</ele>
        <time>2019-10-02T08:03:09.000Z</time>
        <extensions>
          <gpxtpx:TrackPointExtension xmlns:gpxtpx="http://www.garmin.com/xmlschemas/TrackPointExtension/v1">
            <gpxtpx:hr>142</gpxtpx:hr>
          </gpxtpx:TrackPointExtension>
        </extensions>
      </trkpt>
      <trkpt lat="50.64404" lon="5.27737">
        <ele>157.39999389648</ele>
        <time>2019-10-02T08:03:16.000Z</time>
        <extensions>
          <gpxtpx:TrackPointExtension xmlns:gpxtpx="http://www.garmin.com/xmlschemas/TrackPointExtension/v1">
            <gpxtpx:hr>142</gpxtpx:hr>
          </gpxtpx:TrackPointExtension>
        </extensions>
      </trkpt>
      <trkpt lat="50.64376" lon="5.27671">
        <ele>157.80000305176</ele>
        <time>2019-10-02T08:03:17.000Z</time>
        <extensions>
          <gpxtpx:TrackPointExtension xmlns:gpxtpx="http://www.garmin.com/xmlschemas/TrackPointExtension/v1">
            <gpxtpx:hr>143</gpxtpx:hr>
          </gpxtpx:TrackPointExtension>
        </extensions>
      </trkpt>
      <trkpt lat="50.64342" lon="5.27593">
        <ele>158</ele>
        <time>2019-10-02T08:03:20.000Z</time>
        <extensions>
          <gpxtpx:TrackPointExtension xmlns:gpxtpx="http://www.garmin.com/xmlschemas/TrackPointExtension/v1">
            <gpxtpx:hr>141</gpxtpx:hr>
          </gpxtpx:TrackPointExtension>
        </extensions>
      </trkpt>
      <trkpt lat="50.64334" lon="5.27575">
        <ele>158</ele>
        <time>2019-10-02T08:03:26.000Z</time>
        <extensions>
          <gpxtpx:TrackPointExtension xmlns:gpxtpx="http://www.garmin.com/xmlschemas/TrackPointExtension/v1">
            <gpxtpx:hr>141</gpxtpx:hr>
          </gpxtpx:TrackPointExtension>
        </extensions>
      </trkpt>
      <trkpt lat="50.64309" lon="5.27515">
        <ele>157.60000610352</ele>
        <time>2019-10-02T08:03:34.000Z</time>
        <extensions>
          <gpxtpx:TrackPointExtension xmlns:gpxtpx="http://www.garmin.com/xmlschemas/TrackPointExtension/v1">
            <gpxtpx:hr>138</gpxtpx:hr>
          </gpxtpx:TrackPointExtension>
        </extensions>
      </trkpt>
      <trkpt lat="50.64301" lon="5.27498">
        <ele>157.19999694824</ele>
        <time>2019-10-02T08:03:42.000Z</time>
        <extensions>
          <gpxtpx:TrackPointExtension xmlns:gpxtpx="http://www.garmin.com/xmlschemas/TrackPointExtension/v1">
            <gpxtpx:hr>138</gpxtpx:hr>
          </gpxtpx:TrackPointExtension>
        </extensions>
      </trkpt>
      <trkpt lat="50.64285" lon="5.27462">
        <ele>157.1</ele>
        <time>2019-10-02T08:03:43.000Z</time>
      </trkpt>
      <trkpt lat="50.64271" lon="5.27432">
        <ele>157.4</ele>
        <time>2019-10-02T08:03:46.000Z</time>
      </trkpt>
      <trkpt lat="50.64258" lon="5.27399">
        <ele>158</ele>
        <time>2019-10-02T08:03:48.000Z</time>
      </trkpt>
      <trkpt lat="50.64236" lon="5.27351">
        <ele>158.7</ele>
        <time>2019-10-02T08:03:50.000Z</time>
      </trkpt>
      <trkpt lat="50.6422" lon="5.27305">
        <ele>158.19999694824</ele>
        <time>2019-10-02T08:03:53.000Z</time>
        <extensions>
          <gpxtpx:TrackPointExtension xmlns:gpxtpx="http://www.garmin.com/xmlschemas/TrackPointExtension/v1">
            <gpxtpx:hr>130</gpxtpx:hr>
          </gpxtpx:TrackPointExtension>
        </extensions>
      </trkpt>
      <trkpt lat="50.64204" lon="5.27249">
        <ele>159.5</ele>
        <time>2019-10-02T08:03:56.000Z</time>
      </trkpt>
      <trkpt lat="50.64199" lon="5.27221">
        <ele>159.5</ele>
        <time>2019-10-02T08:03:58.000Z</time>
      </trkpt>
      <trkpt lat="50.64193" lon="5.27187">
        <ele>159.4</ele>
        <time>2019-10-02T08:04:01.000Z</time>
      </trkpt>
      <trkpt lat="50.64179" lon="5.27109">
        <ele>159.2</ele>
        <time>2019-10-02T08:04:03.000Z</time>
      </trkpt>
      <trkpt lat="50.64171" lon="5.27068">
        <ele>159.2</ele>
        <time>2019-10-02T08:04:04.000Z</time>
      </trkpt>
      <trkpt lat="50.64164" lon="5.27036">
        <ele>159.39999389648</ele>
        <time>2019-10-02T08:04:06.000Z</time>
        <extensions>
          <gpxtpx:TrackPointExtension xmlns:gpxtpx="http://www.garmin.com/xmlschemas/TrackPointExtension/v1">
            <gpxtpx:hr>125</gpxtpx:hr>
          </gpxtpx:TrackPointExtension>
        </extensions>
      </trkpt>
      <trkpt lat="50.64157" lon="5.27007">
        <ele>159</ele>
        <time>2019-10-02T08:04:08.000Z</time>
        <extensions>
          <gpxtpx:TrackPointExtension xmlns:gpxtpx="http://www.garmin.com/xmlschemas/TrackPointExtension/v1">
            <gpxtpx:hr>122</gpxtpx:hr>
          </gpxtpx:TrackPointExtension>
        </extensions>
      </trkpt>
      <trkpt lat="50.64151" lon="5.26981">
        <ele>158.39999389648</ele>
        <time>2019-10-02T08:04:09.000Z</time>
        <extensions>
          <gpxtpx:TrackPointExtension xmlns:gpxtpx="http://www.garmin.com/xmlschemas/TrackPointExtension/v1">
            <gpxtpx:hr>119</gpxtpx:hr>
          </gpxtpx:TrackPointExtension>
        </extensions>
      </trkpt>
      <trkpt lat="50.64149" lon="5.26972">
        <ele>158.39999389648</ele>
        <time>2019-10-02T08:04:10.000Z</time>
        <extensions>
          <gpxtpx:TrackPointExtension xmlns:gpxtpx="http://www.garmin.com/xmlschemas/TrackPointExtension/v1">
            <gpxtpx:hr>116</gpxtpx:hr>
          </gpxtpx:TrackPointExtension>
        </extensions>
      </trkpt>
      <trkpt lat="50.64145" lon="5.26955">
        <ele>158.39999389648</ele>
        <time>2019-10-02T08:04:12.000Z</time>
        <extensions>
          <gpxtpx:TrackPointExtension xmlns:gpxtpx="http://www.garmin.com/xmlschemas/TrackPointExtension/v1">
            <gpxtpx:hr>113</gpxtpx:hr>
          </gpxtpx:TrackPointExtension>
        </extensions>
      </trkpt>
      <trkpt lat="50.64143" lon="5.26946">
        <ele>158.19999694824</ele>
        <time>2019-10-02T08:04:14.000Z</time>
        <extensions>
          <gpxtpx:TrackPointExtension xmlns:gpxtpx="http://www.garmin.com/xmlschemas/TrackPointExtension/v1">
            <gpxtpx:hr>110</gpxtpx:hr>
          </gpxtpx:TrackPointExtension>
        </extensions>
      </trkpt>
      <trkpt lat="50.64141" lon="5.2693">
        <ele>158</ele>
        <time>2019-10-02T08:04:15.000Z</time>
        <extensions>
          <gpxtpx:TrackPointExtension xmlns:gpxtpx="http://www.garmin.com/xmlschemas/TrackPointExtension/v1">
            <gpxtpx:hr>107</gpxtpx:hr>
          </gpxtpx:TrackPointExtension>
        </extensions>
      </trkpt>
      <trkpt lat="50.64141" lon="5.26923">
        <ele>158</ele>
        <time>2019-10-02T08:04:17.000Z</time>
        <extensions>
          <gpxtpx:TrackPointExtension xmlns:gpxtpx="http://www.garmin.com/xmlschemas/TrackPointExtension/v1">
            <gpxtpx:hr>105</gpxtpx:hr>
          </gpxtpx:TrackPointExtension>
        </extensions>
      </trkpt>
      <trkpt lat="50.64148" lon="5.26908">
        <ele>157.6</ele>
        <time>2019-10-02T08:04:18.000Z</time>
      </trkpt>
      <trkpt lat="50.64147" lon="5.2689">
        <ele>157.4</ele>
        <time>2019-10-02T08:04:20.000Z</time>
      </trkpt>
      <trkpt lat="50.64138" lon="5.26877">
        <ele>157.2</ele>
        <time>2019-10-02T08:04:22.000Z</time>
      </trkpt>
      <trkpt lat="50.64128" lon="5.26853">
        <ele>157</ele>
        <time>2019-10-02T08:04:23.000Z</time>
      </trkpt>
      <trkpt lat="50.64122" lon="5.26825">
        <ele>157.19999694824</ele>
        <time>2019-10-02T08:04:24.000Z</time>
        <extensions>
          <gpxtpx:TrackPointExtension xmlns:gpxtpx="http://www.garmin.com/xmlschemas/TrackPointExtension/v1">
            <gpxtpx:hr>102</gpxtpx:hr>
          </gpxtpx:TrackPointExtension>
        </extensions>
      </trkpt>
      <trkpt lat="50.6411" lon="5.26771">
        <ele>157</ele>
        <time>2019-10-02T08:04:25.000Z</time>
        <extensions>
          <gpxtpx:TrackPointExtension xmlns:gpxtpx="http://www.garmin.com/xmlschemas/TrackPointExtension/v1">
            <gpxtpx:hr>102</gpxtpx:hr>
          </gpxtpx:TrackPointExtension>
        </extensions>
      </trkpt>
      <trkpt lat="50.64105" lon="5.26747">
        <ele>156.39999389648</ele>
        <time>2019-10-02T08:04:26.000Z</time>
        <extensions>
          <gpxtpx:TrackPointExtension xmlns:gpxtpx="http://www.garmin.com/xmlschemas/TrackPointExtension/v1">
            <gpxtpx:hr>103</gpxtpx:hr>
          </gpxtpx:TrackPointExtension>
        </extensions>
      </trkpt>
      <trkpt lat="50.64101" lon="5.2671">
        <ele>155.80000305176</ele>
        <time>2019-10-02T08:04:28.000Z</time>
        <extensions>
          <gpxtpx:TrackPointExtension xmlns:gpxtpx="http://www.garmin.com/xmlschemas/TrackPointExtension/v1">
            <gpxtpx:hr>103</gpxtpx:hr>
          </gpxtpx:TrackPointExtension>
        </extensions>
      </trkpt>
      <trkpt lat="50.64101" lon="5.26685">
        <ele>155.39999389648</ele>
        <time>2019-10-02T08:04:30.000Z</time>
        <extensions>
          <gpxtpx:TrackPointExtension xmlns:gpxtpx="http://www.garmin.com/xmlschemas/TrackPointExtension/v1">
            <gpxtpx:hr>103</gpxtpx:hr>
          </gpxtpx:TrackPointExtension>
        </extensions>
      </trkpt>
      <trkpt lat="50.641" lon="5.26661">
        <ele>154.80000305176</ele>
        <time>2019-10-02T08:04:31.000Z</time>
        <extensions>
          <gpxtpx:TrackPointExtension xmlns:gpxtpx="http://www.garmin.com/xmlschemas/TrackPointExtension/v1">
            <gpxtpx:hr>102</gpxtpx:hr>
          </gpxtpx:TrackPointExtension>
        </extensions>
      </trkpt>
      <trkpt lat="50.64099" lon="5.26649">
        <ele>154.60000610352</ele>
        <time>2019-10-02T08:04:34.000Z</time>
        <extensions>
          <gpxtpx:TrackPointExtension xmlns:gpxtpx="http://www.garmin.com/xmlschemas/TrackPointExtension/v1">
            <gpxtpx:hr>100</gpxtpx:hr>
          </gpxtpx:TrackPointExtension>
        </extensions>
      </trkpt>
      <trkpt lat="50.64094" lon="5.26627">
        <ele>154</ele>
        <time>2019-10-02T08:04:37.000Z</time>
        <extensions>
          <gpxtpx:TrackPointExtension xmlns:gpxtpx="http://www.garmin.com/xmlschemas/TrackPointExtension/v1">
            <gpxtpx:hr>99</gpxtpx:hr>
          </gpxtpx:TrackPointExtension>
        </extensions>
      </trkpt>
      <trkpt lat="50.64086" lon="5.26608">
        <ele>153.60000610352</ele>
        <time>2019-10-02T08:04:39.000Z</time>
        <extensions>
          <gpxtpx:TrackPointExtension xmlns:gpxtpx="http://www.garmin.com/xmlschemas/TrackPointExtension/v1">
            <gpxtpx:hr>99</gpxtpx:hr>
          </gpxtpx:TrackPointExtension>
        </extensions>
      </trkpt>
      <trkpt lat="50.64075" lon="5.26595">
        <ele>153.7</ele>
        <time>2019-10-02T08:04:43.000Z</time>
      </trkpt>
      <trkpt lat="50.64061" lon="5.26576">
        <ele>153</ele>
        <time>2019-10-02T08:04:47.000Z</time>
      </trkpt>
      <trkpt lat="50.64048" lon="5.26552">
        <ele>153.3</ele>
        <time>2019-10-02T08:04:50.000Z</time>
      </trkpt>
      <trkpt lat="50.64041" lon="5.26534">
        <ele>153.2</ele>
        <time>2019-10-02T08:04:53.000Z</time>
      </trkpt>
      <trkpt lat="50.64039" lon="5.2651">
        <ele>153</ele>
        <time>2019-10-02T08:04:57.000Z</time>
      </trkpt>
      <trkpt lat="50.64044" lon="5.26469">
        <ele>152.39999389648</ele>
        <time>2019-10-02T08:05:01.000Z</time>
        <extensions>
          <gpxtpx:TrackPointExtension xmlns:gpxtpx="http://www.garmin.com/xmlschemas/TrackPointExtension/v1">
            <gpxtpx:hr>103</gpxtpx:hr>
          </gpxtpx:TrackPointExtension>
        </extensions>
      </trkpt>
      <trkpt lat="50.64048" lon="5.26447">
        <ele>152</ele>
        <time>2019-10-02T08:05:07.000Z</time>
        <extensions>
          <gpxtpx:TrackPointExtension xmlns:gpxtpx="http://www.garmin.com/xmlschemas/TrackPointExtension/v1">
            <gpxtpx:hr>102</gpxtpx:hr>
          </gpxtpx:TrackPointExtension>
        </extensions>
      </trkpt>
      <trkpt lat="50.64058" lon="5.26392">
        <ele>152</ele>
        <time>2019-10-02T08:05:11.000Z</time>
      </trkpt>
      <trkpt lat="50.64064" lon="5.26359">
        <ele>152</ele>
        <time>2019-10-02T08:05:13.000Z</time>
      </trkpt>
      <trkpt lat="50.64065" lon="5.26332">
        <ele>151.60000610352</ele>
        <time>2019-10-02T08:05:14.000Z</time>
        <extensions>
          <gpxtpx:TrackPointExtension xmlns:gpxtpx="http://www.garmin.com/xmlschemas/TrackPointExtension/v1">
            <gpxtpx:hr>106</gpxtpx:hr>
          </gpxtpx:TrackPointExtension>
        </extensions>
      </trkpt>
      <trkpt lat="50.64065" lon="5.26312">
        <ele>151.60000610352</ele>
        <time>2019-10-02T08:05:16.000Z</time>
        <extensions>
          <gpxtpx:TrackPointExtension xmlns:gpxtpx="http://www.garmin.com/xmlschemas/TrackPointExtension/v1">
            <gpxtpx:hr>106</gpxtpx:hr>
          </gpxtpx:TrackPointExtension>
        </extensions>
      </trkpt>
      <trkpt lat="50.64062" lon="5.26292">
        <ele>151.60000610352</ele>
        <time>2019-10-02T08:05:19.000Z</time>
        <extensions>
          <gpxtpx:TrackPointExtension xmlns:gpxtpx="http://www.garmin.com/xmlschemas/TrackPointExtension/v1">
            <gpxtpx:hr>107</gpxtpx:hr>
          </gpxtpx:TrackPointExtension>
        </extensions>
      </trkpt>
      <trkpt lat="50.64057" lon="5.26265">
        <ele>151.60000610352</ele>
        <time>2019-10-02T08:05:20.000Z</time>
        <extensions>
          <gpxtpx:TrackPointExtension xmlns:gpxtpx="http://www.garmin.com/xmlschemas/TrackPointExtension/v1">
            <gpxtpx:hr>108</gpxtpx:hr>
          </gpxtpx:TrackPointExtension>
        </extensions>
      </trkpt>
      <trkpt lat="50.64054" lon="5.26247">
        <ele>152</ele>
        <time>2019-10-02T08:05:21.000Z</time>
        <extensions>
          <gpxtpx:TrackPointExtension xmlns:gpxtpx="http://www.garmin.com/xmlschemas/TrackPointExtension/v1">
            <gpxtpx:hr>111</gpxtpx:hr>
          </gpxtpx:TrackPointExtension>
        </extensions>
      </trkpt>
      <trkpt lat="50.64048" lon="5.26216">
        <ele>154.8</ele>
        <time>2019-10-02T08:05:23.000Z</time>
      </trkpt>
      <trkpt lat="50.64044" lon="5.26195">
        <ele>152.80000305176</ele>
        <time>2019-10-02T08:05:26.000Z</time>
        <extensions>
          <gpxtpx:TrackPointExtension xmlns:gpxtpx="http://www.garmin.com/xmlschemas/TrackPointExtension/v1">
            <gpxtpx:hr>117</gpxtpx:hr>
          </gpxtpx:TrackPointExtension>
        </extensions>
      </trkpt>
      <trkpt lat="50.64041" lon="5.26178">
        <ele>153.19999694824</ele>
        <time>2019-10-02T08:05:28.000Z</time>
        <extensions>
          <gpxtpx:TrackPointExtension xmlns:gpxtpx="http://www.garmin.com/xmlschemas/TrackPointExtension/v1">
            <gpxtpx:hr>121</gpxtpx:hr>
          </gpxtpx:TrackPointExtension>
        </extensions>
      </trkpt>
      <trkpt lat="50.64037" lon="5.26151">
        <ele>153.60000610352</ele>
        <time>2019-10-02T08:05:30.000Z</time>
        <extensions>
          <gpxtpx:TrackPointExtension xmlns:gpxtpx="http://www.garmin.com/xmlschemas/TrackPointExtension/v1">
            <gpxtpx:hr>125</gpxtpx:hr>
          </gpxtpx:TrackPointExtension>
        </extensions>
      </trkpt>
      <trkpt lat="50.64034" lon="5.2613">
        <ele>157.1</ele>
        <time>2019-10-02T08:06:15.000Z</time>
      </trkpt>
      <trkpt lat="50.64031" lon="5.26102">
        <ele>157.4</ele>
        <time>2019-10-02T08:06:49.000Z</time>
      </trkpt>
      <trkpt lat="50.64029" lon="5.2607">
        <ele>158.2</ele>
        <time>2019-10-02T08:06:56.000Z</time>
      </trkpt>
      <trkpt lat="50.64026" lon="5.26023">
        <ele>158.5</ele>
        <time>2019-10-02T08:06:58.000Z</time>
      </trkpt>
      <trkpt lat="50.64024" lon="5.26">
        <ele>158.6</ele>
        <time>2019-10-02T08:07:02.000Z</time>
      </trkpt>
      <trkpt lat="50.64023" lon="5.2598">
        <ele>158.4</ele>
        <time>2019-10-02T08:07:10.000Z</time>
      </trkpt>
      <trkpt lat="50.6402" lon="5.25952">
        <ele>158.1</ele>
        <time>2019-10-02T08:07:15.000Z</time>
      </trkpt>
      <trkpt lat="50.64016" lon="5.25927">
        <ele>158.3</ele>
        <time>2019-10-02T08:07:21.000Z</time>
      </trkpt>
      <trkpt lat="50.64011" lon="5.25907">
        <ele>158.1</ele>
        <time>2019-10-02T08:07:24.000Z</time>
      </trkpt>
      <trkpt lat="50.64002" lon="5.25868">
        <ele>157.5</ele>
        <time>2019-10-02T08:07:25.000Z</time>
      </trkpt>
      <trkpt lat="50.63993" lon="5.25841">
        <ele>158.4</ele>
        <time>2019-10-02T08:07:31.000Z</time>
      </trkpt>
      <trkpt lat="50.63973" lon="5.25772">
        <ele>158</ele>
        <time>2019-10-02T08:07:35.000Z</time>
      </trkpt>
      <trkpt lat="50.63947" lon="5.25692">
        <ele>158.4</ele>
        <time>2019-10-02T08:07:36.000Z</time>
      </trkpt>
      <trkpt lat="50.63939" lon="5.25668">
        <ele>158.6</ele>
        <time>2019-10-02T08:07:37.000Z</time>
      </trkpt>
      <trkpt lat="50.63927" lon="5.25632">
        <ele>158.1</ele>
        <time>2019-10-02T08:07:39.000Z</time>
      </trkpt>
      <trkpt lat="50.63915" lon="5.25591">
        <ele>158.2</ele>
        <time>2019-10-02T08:07:42.000Z</time>
      </trkpt>
      <trkpt lat="50.63907" lon="5.25565">
        <ele>157.5</ele>
        <time>2019-10-02T08:07:45.000Z</time>
      </trkpt>
      <trkpt lat="50.63892" lon="5.25519">
        <ele>156.9</ele>
        <time>2019-10-02T08:07:49.000Z</time>
      </trkpt>
      <trkpt lat="50.63882" lon="5.25488">
        <ele>155.9</ele>
        <time>2019-10-02T08:07:50.000Z</time>
      </trkpt>
      <trkpt lat="50.63873" lon="5.25456">
        <ele>155.7</ele>
        <time>2019-10-02T08:07:52.000Z</time>
      </trkpt>
      <trkpt lat="50.63859" lon="5.25414">
        <ele>154.9</ele>
        <time>2019-10-02T08:07:53.000Z</time>
      </trkpt>
      <trkpt lat="50.6385" lon="5.25385">
        <ele>154.9</ele>
        <time>2019-10-02T08:07:56.000Z</time>
      </trkpt>
      <trkpt lat="50.63834" lon="5.25335">
        <ele>155.9</ele>
        <time>2019-10-02T08:07:58.000Z</time>
      </trkpt>
      <trkpt lat="50.6381" lon="5.25257">
        <ele>155.7</ele>
        <time>2019-10-02T08:08:00.000Z</time>
      </trkpt>
      <trkpt lat="50.63787" lon="5.25182">
        <ele>154.4</ele>
        <time>2019-10-02T08:08:01.000Z</time>
      </trkpt>
      <trkpt lat="50.63773" lon="5.25138">
        <ele>153</ele>
        <time>2019-10-02T08:08:03.000Z</time>
      </trkpt>
      <trkpt lat="50.63759" lon="5.25093">
        <ele>152.3</ele>
        <time>2019-10-02T08:08:05.000Z</time>
      </trkpt>
      <trkpt lat="50.63736" lon="5.25022">
        <ele>151.2</ele>
        <time>2019-10-02T08:08:07.000Z</time>
      </trkpt>
      <trkpt lat="50.6373" lon="5.24996">
        <ele>152.60000610352</ele>
        <time>2019-10-02T08:08:11.000Z</time>
        <extensions>
          <gpxtpx:TrackPointExtension xmlns:gpxtpx="http://www.garmin.com/xmlschemas/TrackPointExtension/v1">
            <gpxtpx:hr>111</gpxtpx:hr>
          </gpxtpx:TrackPointExtension>
        </extensions>
      </trkpt>
      <trkpt lat="50.63724" lon="5.24979">
        <ele>150.9</ele>
        <time>2019-10-02T08:08:13.000Z</time>
      </trkpt>
      <trkpt lat="50.63716" lon="5.24956">
        <ele>151.1</ele>
        <time>2019-10-02T08:08:33.000Z</time>
      </trkpt>
      <trkpt lat="50.63688" lon="5.24876">
        <ele>151.60000610352</ele>
        <time>2019-10-02T08:08:34.000Z</time>
        <extensions>
          <gpxtpx:TrackPointExtension xmlns:gpxtpx="http://www.garmin.com/xmlschemas/TrackPointExtension/v1">
            <gpxtpx:hr>109</gpxtpx:hr>
          </gpxtpx:TrackPointExtension>
        </extensions>
      </trkpt>
      <trkpt lat="50.63677" lon="5.24848">
        <ele>151.60000610352</ele>
        <time>2019-10-02T08:08:51.000Z</time>
        <extensions>
          <gpxtpx:TrackPointExtension xmlns:gpxtpx="http://www.garmin.com/xmlschemas/TrackPointExtension/v1">
            <gpxtpx:hr>112</gpxtpx:hr>
          </gpxtpx:TrackPointExtension>
        </extensions>
      </trkpt>
      <trkpt lat="50.63662" lon="5.24812">
        <ele>151.60000610352</ele>
        <time>2019-10-02T08:08:53.000Z</time>
        <extensions>
          <gpxtpx:TrackPointExtension xmlns:gpxtpx="http://www.garmin.com/xmlschemas/TrackPointExtension/v1">
            <gpxtpx:hr>115</gpxtpx:hr>
          </gpxtpx:TrackPointExtension>
        </extensions>
      </trkpt>
      <trkpt lat="50.63658" lon="5.24803">
        <ele>151.60000610352</ele>
        <time>2019-10-02T08:08:56.000Z</time>
        <extensions>
          <gpxtpx:TrackPointExtension xmlns:gpxtpx="http://www.garmin.com/xmlschemas/TrackPointExtension/v1">
            <gpxtpx:hr>115</gpxtpx:hr>
          </gpxtpx:TrackPointExtension>
        </extensions>
      </trkpt>
      <trkpt lat="50.63643" lon="5.24767">
        <ele>151.60000610352</ele>
        <time>2019-10-02T08:08:58.000Z</time>
        <extensions>
          <gpxtpx:TrackPointExtension xmlns:gpxtpx="http://www.garmin.com/xmlschemas/TrackPointExtension/v1">
            <gpxtpx:hr>119</gpxtpx:hr>
          </gpxtpx:TrackPointExtension>
        </extensions>
      </trkpt>
      <trkpt lat="50.63629" lon="5.24732">
        <ele>151.80000305176</ele>
        <time>2019-10-02T08:09:00.000Z</time>
        <extensions>
          <gpxtpx:TrackPointExtension xmlns:gpxtpx="http://www.garmin.com/xmlschemas/TrackPointExtension/v1">
            <gpxtpx:hr>121</gpxtpx:hr>
          </gpxtpx:TrackPointExtension>
        </extensions>
      </trkpt>
      <trkpt lat="50.63608" lon="5.24679">
        <ele>152.39999389648</ele>
        <time>2019-10-02T08:09:03.000Z</time>
        <extensions>
          <gpxtpx:TrackPointExtension xmlns:gpxtpx="http://www.garmin.com/xmlschemas/TrackPointExtension/v1">
            <gpxtpx:hr>124</gpxtpx:hr>
          </gpxtpx:TrackPointExtension>
        </extensions>
      </trkpt>
      <trkpt lat="50.63601" lon="5.24661">
        <ele>152.80000305176</ele>
        <time>2019-10-02T08:09:06.000Z</time>
        <extensions>
          <gpxtpx:TrackPointExtension xmlns:gpxtpx="http://www.garmin.com/xmlschemas/TrackPointExtension/v1">
            <gpxtpx:hr>125</gpxtpx:hr>
          </gpxtpx:TrackPointExtension>
        </extensions>
      </trkpt>
      <trkpt lat="50.63586" lon="5.24622">
        <ele>156.5</ele>
        <time>2019-10-02T08:09:07.000Z</time>
      </trkpt>
      <trkpt lat="50.63573" lon="5.24594">
        <ele>153.39999389648</ele>
        <time>2019-10-02T08:09:36.000Z</time>
        <extensions>
          <gpxtpx:TrackPointExtension xmlns:gpxtpx="http://www.garmin.com/xmlschemas/TrackPointExtension/v1">
            <gpxtpx:hr>131</gpxtpx:hr>
          </gpxtpx:TrackPointExtension>
        </extensions>
      </trkpt>
      <trkpt lat="50.63569" lon="5.24586">
        <ele>153.39999389648</ele>
        <time>2019-10-02T08:09:39.000Z</time>
        <extensions>
          <gpxtpx:TrackPointExtension xmlns:gpxtpx="http://www.garmin.com/xmlschemas/TrackPointExtension/v1">
            <gpxtpx:hr>132</gpxtpx:hr>
          </gpxtpx:TrackPointExtension>
        </extensions>
      </trkpt>
      <trkpt lat="50.63551" lon="5.24552">
        <ele>157.4</ele>
        <time>2019-10-02T08:09:46.000Z</time>
      </trkpt>
      <trkpt lat="50.63536" lon="5.24527">
        <ele>157.6</ele>
        <time>2019-10-02T08:09:53.000Z</time>
      </trkpt>
      <trkpt lat="50.63515" lon="5.24495">
        <ele>158.6</ele>
        <time>2019-10-02T08:10:02.000Z</time>
      </trkpt>
      <trkpt lat="50.63488" lon="5.24462">
        <ele>158.3</ele>
        <time>2019-10-02T08:10:10.000Z</time>
      </trkpt>
      <trkpt lat="50.63467" lon="5.24435">
        <ele>157.19999694824</ele>
        <time>2019-10-02T08:10:11.000Z</time>
        <extensions>
          <gpxtpx:TrackPointExtension xmlns:gpxtpx="http://www.garmin.com/xmlschemas/TrackPointExtension/v1">
            <gpxtpx:hr>142</gpxtpx:hr>
          </gpxtpx:TrackPointExtension>
        </extensions>
      </trkpt>
      <trkpt lat="50.63451" lon="5.24419">
        <ele>158</ele>
        <time>2019-10-02T08:10:15.000Z</time>
      </trkpt>
      <trkpt lat="50.63432" lon="5.24397">
        <ele>158.8</ele>
        <time>2019-10-02T08:10:18.000Z</time>
      </trkpt>
      <trkpt lat="50.63395" lon="5.24358">
        <ele>159.8</ele>
        <time>2019-10-02T08:10:25.000Z</time>
      </trkpt>
      <trkpt lat="50.6336" lon="5.24339">
        <ele>160.2</ele>
        <time>2019-10-02T08:10:26.000Z</time>
      </trkpt>
      <trkpt lat="50.6334" lon="5.2434">
        <ele>161</ele>
        <time>2019-10-02T08:10:30.000Z</time>
      </trkpt>
      <trkpt lat="50.63328" lon="5.24337">
        <ele>161</ele>
        <time>2019-10-02T08:10:32.000Z</time>
      </trkpt>
      <trkpt lat="50.63322" lon="5.24328">
        <ele>161.2</ele>
        <time>2019-10-02T08:10:33.000Z</time>
      </trkpt>
      <trkpt lat="50.63313" lon="5.24313">
        <ele>157.19999694824</ele>
        <time>2019-10-02T08:10:37.000Z</time>
        <extensions>
          <gpxtpx:TrackPointExtension xmlns:gpxtpx="http://www.garmin.com/xmlschemas/TrackPointExtension/v1">
            <gpxtpx:hr>137</gpxtpx:hr>
          </gpxtpx:TrackPointExtension>
        </extensions>
      </trkpt>
      <trkpt lat="50.63307" lon="5.24298">
        <ele>157.19999694824</ele>
        <time>2019-10-02T08:10:42.000Z</time>
        <extensions>
          <gpxtpx:TrackPointExtension xmlns:gpxtpx="http://www.garmin.com/xmlschemas/TrackPointExtension/v1">
            <gpxtpx:hr>136</gpxtpx:hr>
          </gpxtpx:TrackPointExtension>
        </extensions>
      </trkpt>
      <trkpt lat="50.63297" lon="5.24274">
        <ele>157.19999694824</ele>
        <time>2019-10-02T08:10:48.000Z</time>
        <extensions>
          <gpxtpx:TrackPointExtension xmlns:gpxtpx="http://www.garmin.com/xmlschemas/TrackPointExtension/v1">
            <gpxtpx:hr>135</gpxtpx:hr>
          </gpxtpx:TrackPointExtension>
        </extensions>
      </trkpt>
      <trkpt lat="50.63291" lon="5.24249">
        <ele>157.39999389648</ele>
        <time>2019-10-02T08:10:50.000Z</time>
        <extensions>
          <gpxtpx:TrackPointExtension xmlns:gpxtpx="http://www.garmin.com/xmlschemas/TrackPointExtension/v1">
            <gpxtpx:hr>134</gpxtpx:hr>
          </gpxtpx:TrackPointExtension>
        </extensions>
      </trkpt>
      <trkpt lat="50.63291" lon="5.24231">
        <ele>157.60000610352</ele>
        <time>2019-10-02T08:10:52.000Z</time>
        <extensions>
          <gpxtpx:TrackPointExtension xmlns:gpxtpx="http://www.garmin.com/xmlschemas/TrackPointExtension/v1">
            <gpxtpx:hr>134</gpxtpx:hr>
          </gpxtpx:TrackPointExtension>
        </extensions>
      </trkpt>
      <trkpt lat="50.63301" lon="5.24211">
        <ele>157.80000305176</ele>
        <time>2019-10-02T08:10:57.000Z</time>
        <extensions>
          <gpxtpx:TrackPointExtension xmlns:gpxtpx="http://www.garmin.com/xmlschemas/TrackPointExtension/v1">
            <gpxtpx:hr>133</gpxtpx:hr>
          </gpxtpx:TrackPointExtension>
        </extensions>
      </trkpt>
      <trkpt lat="50.63305" lon="5.24205">
        <ele>158</ele>
        <time>2019-10-02T08:10:58.000Z</time>
        <extensions>
          <gpxtpx:TrackPointExtension xmlns:gpxtpx="http://www.garmin.com/xmlschemas/TrackPointExtension/v1">
            <gpxtpx:hr>133</gpxtpx:hr>
          </gpxtpx:TrackPointExtension>
        </extensions>
      </trkpt>
      <trkpt lat="50.6333" lon="5.24169">
        <ele>158.80000305176</ele>
        <time>2019-10-02T08:11:05.000Z</time>
        <extensions>
          <gpxtpx:TrackPointExtension xmlns:gpxtpx="http://www.garmin.com/xmlschemas/TrackPointExtension/v1">
            <gpxtpx:hr>133</gpxtpx:hr>
          </gpxtpx:TrackPointExtension>
        </extensions>
      </trkpt>
      <trkpt lat="50.63338" lon="5.24156">
        <ele>159</ele>
        <time>2019-10-02T08:11:08.000Z</time>
        <extensions>
          <gpxtpx:TrackPointExtension xmlns:gpxtpx="http://www.garmin.com/xmlschemas/TrackPointExtension/v1">
            <gpxtpx:hr>133</gpxtpx:hr>
          </gpxtpx:TrackPointExtension>
        </extensions>
      </trkpt>
      <trkpt lat="50.63352" lon="5.24117">
        <ele>159.80000305176</ele>
        <time>2019-10-02T08:11:15.000Z</time>
        <extensions>
          <gpxtpx:TrackPointExtension xmlns:gpxtpx="http://www.garmin.com/xmlschemas/TrackPointExtension/v1">
            <gpxtpx:hr>134</gpxtpx:hr>
          </gpxtpx:TrackPointExtension>
        </extensions>
      </trkpt>
      <trkpt lat="50.63355" lon="5.24109">
        <ele>160</ele>
        <time>2019-10-02T08:11:23.000Z</time>
        <extensions>
          <gpxtpx:TrackPointExtension xmlns:gpxtpx="http://www.garmin.com/xmlschemas/TrackPointExtension/v1">
            <gpxtpx:hr>134</gpxtpx:hr>
          </gpxtpx:TrackPointExtension>
        </extensions>
      </trkpt>
      <trkpt lat="50.6338" lon="5.2403">
        <ele>160.60000610352</ele>
        <time>2019-10-02T08:11:40.000Z</time>
        <extensions>
          <gpxtpx:TrackPointExtension xmlns:gpxtpx="http://www.garmin.com/xmlschemas/TrackPointExtension/v1">
            <gpxtpx:hr>134</gpxtpx:hr>
          </gpxtpx:TrackPointExtension>
        </extensions>
      </trkpt>
      <trkpt lat="50.63398" lon="5.23969">
        <ele>160.39999389648</ele>
        <time>2019-10-02T08:11:42.000Z</time>
        <extensions>
          <gpxtpx:TrackPointExtension xmlns:gpxtpx="http://www.garmin.com/xmlschemas/TrackPointExtension/v1">
            <gpxtpx:hr>131</gpxtpx:hr>
          </gpxtpx:TrackPointExtension>
        </extensions>
      </trkpt>
      <trkpt lat="50.63402" lon="5.23958">
        <ele>160.39999389648</ele>
        <time>2019-10-02T08:11:44.000Z</time>
        <extensions>
          <gpxtpx:TrackPointExtension xmlns:gpxtpx="http://www.garmin.com/xmlschemas/TrackPointExtension/v1">
            <gpxtpx:hr>130</gpxtpx:hr>
          </gpxtpx:TrackPointExtension>
        </extensions>
      </trkpt>
      <trkpt lat="50.63423" lon="5.23891">
        <ele>158.60000610352</ele>
        <time>2019-10-02T08:11:53.000Z</time>
        <extensions>
          <gpxtpx:TrackPointExtension xmlns:gpxtpx="http://www.garmin.com/xmlschemas/TrackPointExtension/v1">
            <gpxtpx:hr>127</gpxtpx:hr>
          </gpxtpx:TrackPointExtension>
        </extensions>
      </trkpt>
      <trkpt lat="50.63429" lon="5.23868">
        <ele>157.80000305176</ele>
        <time>2019-10-02T08:11:56.000Z</time>
        <extensions>
          <gpxtpx:TrackPointExtension xmlns:gpxtpx="http://www.garmin.com/xmlschemas/TrackPointExtension/v1">
            <gpxtpx:hr>124</gpxtpx:hr>
          </gpxtpx:TrackPointExtension>
        </extensions>
      </trkpt>
      <trkpt lat="50.63433" lon="5.23857">
        <ele>157.60000610352</ele>
        <time>2019-10-02T08:11:57.000Z</time>
        <extensions>
          <gpxtpx:TrackPointExtension xmlns:gpxtpx="http://www.garmin.com/xmlschemas/TrackPointExtension/v1">
            <gpxtpx:hr>123</gpxtpx:hr>
          </gpxtpx:TrackPointExtension>
        </extensions>
      </trkpt>
      <trkpt lat="50.6344" lon="5.23835">
        <ele>157.19999694824</ele>
        <time>2019-10-02T08:12:04.000Z</time>
        <extensions>
          <gpxtpx:TrackPointExtension xmlns:gpxtpx="http://www.garmin.com/xmlschemas/TrackPointExtension/v1">
            <gpxtpx:hr>120</gpxtpx:hr>
          </gpxtpx:TrackPointExtension>
        </extensions>
      </trkpt>
      <trkpt lat="50.63447" lon="5.23814">
        <ele>156.80000305176</ele>
        <time>2019-10-02T08:12:05.000Z</time>
        <extensions>
          <gpxtpx:TrackPointExtension xmlns:gpxtpx="http://www.garmin.com/xmlschemas/TrackPointExtension/v1">
            <gpxtpx:hr>117</gpxtpx:hr>
          </gpxtpx:TrackPointExtension>
        </extensions>
      </trkpt>
      <trkpt lat="50.6345" lon="5.23803">
        <ele>156.39999389648</ele>
        <time>2019-10-02T08:12:14.000Z</time>
        <extensions>
          <gpxtpx:TrackPointExtension xmlns:gpxtpx="http://www.garmin.com/xmlschemas/TrackPointExtension/v1">
            <gpxtpx:hr>116</gpxtpx:hr>
          </gpxtpx:TrackPointExtension>
        </extensions>
      </trkpt>
      <trkpt lat="50.63457" lon="5.23783">
        <ele>156</ele>
        <time>2019-10-02T08:12:21.000Z</time>
        <extensions>
          <gpxtpx:TrackPointExtension xmlns:gpxtpx="http://www.garmin.com/xmlschemas/TrackPointExtension/v1">
            <gpxtpx:hr>113</gpxtpx:hr>
          </gpxtpx:TrackPointExtension>
        </extensions>
      </trkpt>
      <trkpt lat="50.6346" lon="5.23773">
        <ele>156</ele>
        <time>2019-10-02T08:12:26.000Z</time>
        <extensions>
          <gpxtpx:TrackPointExtension xmlns:gpxtpx="http://www.garmin.com/xmlschemas/TrackPointExtension/v1">
            <gpxtpx:hr>111</gpxtpx:hr>
          </gpxtpx:TrackPointExtension>
        </extensions>
      </trkpt>
      <trkpt lat="50.6348" lon="5.23706">
        <ele>156.7</ele>
        <time>2019-10-02T08:12:27.000Z</time>
      </trkpt>
      <trkpt lat="50.63487" lon="5.23683">
        <ele>157.5</ele>
        <time>2019-10-02T08:12:29.000Z</time>
      </trkpt>
      <trkpt lat="50.63501" lon="5.2364">
        <ele>158.7</ele>
        <time>2019-10-02T08:12:35.000Z</time>
      </trkpt>
      <trkpt lat="50.63508" lon="5.23619">
        <ele>159</ele>
        <time>2019-10-02T08:12:40.000Z</time>
      </trkpt>
      <trkpt lat="50.63515" lon="5.23597">
        <ele>159.5</ele>
        <time>2019-10-02T08:12:44.000Z</time>
      </trkpt>
      <trkpt lat="50.63522" lon="5.23574">
        <ele>160</ele>
        <time>2019-10-02T08:12:47.000Z</time>
      </trkpt>
      <trkpt lat="50.63529" lon="5.23551">
        <ele>159.7</ele>
        <time>2019-10-02T08:12:55.000Z</time>
      </trkpt>
      <trkpt lat="50.63537" lon="5.23525">
        <ele>159.7</ele>
        <time>2019-10-02T08:13:01.000Z</time>
      </trkpt>
      <trkpt lat="50.63553" lon="5.23473">
        <ele>160.4</ele>
        <time>2019-10-02T08:13:03.000Z</time>
      </trkpt>
      <trkpt lat="50.63566" lon="5.23432">
        <ele>160</ele>
        <time>2019-10-02T08:13:07.000Z</time>
      </trkpt>
      <trkpt lat="50.63581" lon="5.23399">
        <ele>158.19999694824</ele>
        <time>2019-10-02T08:13:08.000Z</time>
        <extensions>
          <gpxtpx:TrackPointExtension xmlns:gpxtpx="http://www.garmin.com/xmlschemas/TrackPointExtension/v1">
            <gpxtpx:hr>127</gpxtpx:hr>
          </gpxtpx:TrackPointExtension>
        </extensions>
      </trkpt>
      <trkpt lat="50.63612" lon="5.23334">
        <ele>157.19999694824</ele>
        <time>2019-10-02T08:13:09.000Z</time>
        <extensions>
          <gpxtpx:TrackPointExtension xmlns:gpxtpx="http://www.garmin.com/xmlschemas/TrackPointExtension/v1">
            <gpxtpx:hr>126</gpxtpx:hr>
          </gpxtpx:TrackPointExtension>
        </extensions>
      </trkpt>
      <trkpt lat="50.63632" lon="5.23292">
        <ele>156.39999389648</ele>
        <time>2019-10-02T08:13:12.000Z</time>
        <extensions>
          <gpxtpx:TrackPointExtension xmlns:gpxtpx="http://www.garmin.com/xmlschemas/TrackPointExtension/v1">
            <gpxtpx:hr>123</gpxtpx:hr>
          </gpxtpx:TrackPointExtension>
        </extensions>
      </trkpt>
      <trkpt lat="50.6364" lon="5.23274">
        <ele>156</ele>
        <time>2019-10-02T08:13:15.000Z</time>
        <extensions>
          <gpxtpx:TrackPointExtension xmlns:gpxtpx="http://www.garmin.com/xmlschemas/TrackPointExtension/v1">
            <gpxtpx:hr>121</gpxtpx:hr>
          </gpxtpx:TrackPointExtension>
        </extensions>
      </trkpt>
      <trkpt lat="50.63648" lon="5.23258">
        <ele>155.60000610352</ele>
        <time>2019-10-02T08:13:18.000Z</time>
        <extensions>
          <gpxtpx:TrackPointExtension xmlns:gpxtpx="http://www.garmin.com/xmlschemas/TrackPointExtension/v1">
            <gpxtpx:hr>119</gpxtpx:hr>
          </gpxtpx:TrackPointExtension>
        </extensions>
      </trkpt>
      <trkpt lat="50.63656" lon="5.23242">
        <ele>155.39999389648</ele>
        <time>2019-10-02T08:13:20.000Z</time>
        <extensions>
          <gpxtpx:TrackPointExtension xmlns:gpxtpx="http://www.garmin.com/xmlschemas/TrackPointExtension/v1">
            <gpxtpx:hr>116</gpxtpx:hr>
          </gpxtpx:TrackPointExtension>
        </extensions>
      </trkpt>
      <trkpt lat="50.63667" lon="5.23217">
        <ele>155</ele>
        <time>2019-10-02T08:13:23.000Z</time>
        <extensions>
          <gpxtpx:TrackPointExtension xmlns:gpxtpx="http://www.garmin.com/xmlschemas/TrackPointExtension/v1">
            <gpxtpx:hr>114</gpxtpx:hr>
          </gpxtpx:TrackPointExtension>
        </extensions>
      </trkpt>
      <trkpt lat="50.63675" lon="5.23202">
        <ele>155</ele>
        <time>2019-10-02T08:13:24.000Z</time>
        <extensions>
          <gpxtpx:TrackPointExtension xmlns:gpxtpx="http://www.garmin.com/xmlschemas/TrackPointExtension/v1">
            <gpxtpx:hr>113</gpxtpx:hr>
          </gpxtpx:TrackPointExtension>
        </extensions>
      </trkpt>
      <trkpt lat="50.63682" lon="5.23185">
        <ele>154.80000305176</ele>
        <time>2019-10-02T08:13:25.000Z</time>
        <extensions>
          <gpxtpx:TrackPointExtension xmlns:gpxtpx="http://www.garmin.com/xmlschemas/TrackPointExtension/v1">
            <gpxtpx:hr>110</gpxtpx:hr>
          </gpxtpx:TrackPointExtension>
        </extensions>
      </trkpt>
      <trkpt lat="50.63686" lon="5.23177">
        <ele>154.39999389648</ele>
        <time>2019-10-02T08:13:28.000Z</time>
        <extensions>
          <gpxtpx:TrackPointExtension xmlns:gpxtpx="http://www.garmin.com/xmlschemas/TrackPointExtension/v1">
            <gpxtpx:hr>109</gpxtpx:hr>
          </gpxtpx:TrackPointExtension>
        </extensions>
      </trkpt>
      <trkpt lat="50.63693" lon="5.23159">
        <ele>154</ele>
        <time>2019-10-02T08:13:31.000Z</time>
      </trkpt>
      <trkpt lat="50.63685" lon="5.2314">
        <ele>154.2</ele>
        <time>2019-10-02T08:13:36.000Z</time>
      </trkpt>
      <trkpt lat="50.63671" lon="5.23114">
        <ele>154.7</ele>
        <time>2019-10-02T08:13:39.000Z</time>
      </trkpt>
      <trkpt lat="50.63654" lon="5.23081">
        <ele>156.5</ele>
        <time>2019-10-02T08:13:45.000Z</time>
      </trkpt>
      <trkpt lat="50.63636" lon="5.23046">
        <ele>158.2</ele>
        <time>2019-10-02T08:13:49.000Z</time>
      </trkpt>
      <trkpt lat="50.63615" lon="5.23002">
        <ele>159</ele>
        <time>2019-10-02T08:13:51.000Z</time>
      </trkpt>
      <trkpt lat="50.63602" lon="5.22976">
        <ele>159.7</ele>
        <time>2019-10-02T08:13:53.000Z</time>
      </trkpt>
      <trkpt lat="50.63593" lon="5.2296">
        <ele>159.7</ele>
        <time>2019-10-02T08:13:56.000Z</time>
      </trkpt>
      <trkpt lat="50.6358" lon="5.22934">
        <ele>159.6</ele>
        <time>2019-10-02T08:13:57.000Z</time>
      </trkpt>
      <trkpt lat="50.6357" lon="5.22916">
        <ele>159.3</ele>
        <time>2019-10-02T08:14:01.000Z</time>
      </trkpt>
      <trkpt lat="50.63565" lon="5.22895">
        <ele>159</ele>
        <time>2019-10-02T08:14:02.000Z</time>
      </trkpt>
      <trkpt lat="50.63574" lon="5.22877">
        <ele>159.6</ele>
        <time>2019-10-02T08:14:04.000Z</time>
      </trkpt>
      <trkpt lat="50.63588" lon="5.22865">
        <ele>154.60000610352</ele>
        <time>2019-10-02T08:14:06.000Z</time>
        <extensions>
          <gpxtpx:TrackPointExtension xmlns:gpxtpx="http://www.garmin.com/xmlschemas/TrackPointExtension/v1">
            <gpxtpx:hr>117</gpxtpx:hr>
          </gpxtpx:TrackPointExtension>
        </extensions>
      </trkpt>
      <trkpt lat="50.6362" lon="5.22839">
        <ele>160.4</ele>
        <time>2019-10-02T08:14:07.000Z</time>
      </trkpt>
      <trkpt lat="50.63637" lon="5.22823">
        <ele>155</ele>
        <time>2019-10-02T08:14:09.000Z</time>
        <extensions>
          <gpxtpx:TrackPointExtension xmlns:gpxtpx="http://www.garmin.com/xmlschemas/TrackPointExtension/v1">
            <gpxtpx:hr>121</gpxtpx:hr>
          </gpxtpx:TrackPointExtension>
        </extensions>
      </trkpt>
      <trkpt lat="50.63669" lon="5.22798">
        <ele>155.19999694824</ele>
        <time>2019-10-02T08:14:10.000Z</time>
        <extensions>
          <gpxtpx:TrackPointExtension xmlns:gpxtpx="http://www.garmin.com/xmlschemas/TrackPointExtension/v1">
            <gpxtpx:hr>124</gpxtpx:hr>
          </gpxtpx:TrackPointExtension>
        </extensions>
      </trkpt>
      <trkpt lat="50.63689" lon="5.22782">
        <ele>155.80000305176</ele>
        <time>2019-10-02T08:14:12.000Z</time>
        <extensions>
          <gpxtpx:TrackPointExtension xmlns:gpxtpx="http://www.garmin.com/xmlschemas/TrackPointExtension/v1">
            <gpxtpx:hr>126</gpxtpx:hr>
          </gpxtpx:TrackPointExtension>
        </extensions>
      </trkpt>
      <trkpt lat="50.63708" lon="5.22767">
        <ele>156.80000305176</ele>
        <time>2019-10-02T08:14:15.000Z</time>
        <extensions>
          <gpxtpx:TrackPointExtension xmlns:gpxtpx="http://www.garmin.com/xmlschemas/TrackPointExtension/v1">
            <gpxtpx:hr>128</gpxtpx:hr>
          </gpxtpx:TrackPointExtension>
        </extensions>
      </trkpt>
      <trkpt lat="50.63713" lon="5.22764">
        <ele>157</ele>
        <time>2019-10-02T08:14:18.000Z</time>
        <extensions>
          <gpxtpx:TrackPointExtension xmlns:gpxtpx="http://www.garmin.com/xmlschemas/TrackPointExtension/v1">
            <gpxtpx:hr>129</gpxtpx:hr>
          </gpxtpx:TrackPointExtension>
        </extensions>
      </trkpt>
      <trkpt lat="50.63748" lon="5.22737">
        <ele>158</ele>
        <time>2019-10-02T08:14:19.000Z</time>
        <extensions>
          <gpxtpx:TrackPointExtension xmlns:gpxtpx="http://www.garmin.com/xmlschemas/TrackPointExtension/v1">
            <gpxtpx:hr>131</gpxtpx:hr>
          </gpxtpx:TrackPointExtension>
        </extensions>
      </trkpt>
      <trkpt lat="50.63775" lon="5.22716">
        <ele>158.60000610352</ele>
        <time>2019-10-02T08:14:20.000Z</time>
        <extensions>
          <gpxtpx:TrackPointExtension xmlns:gpxtpx="http://www.garmin.com/xmlschemas/TrackPointExtension/v1">
            <gpxtpx:hr>134</gpxtpx:hr>
          </gpxtpx:TrackPointExtension>
        </extensions>
      </trkpt>
      <trkpt lat="50.63785" lon="5.22707">
        <ele>158.80000305176</ele>
        <time>2019-10-02T08:14:29.000Z</time>
        <extensions>
          <gpxtpx:TrackPointExtension xmlns:gpxtpx="http://www.garmin.com/xmlschemas/TrackPointExtension/v1">
            <gpxtpx:hr>134</gpxtpx:hr>
          </gpxtpx:TrackPointExtension>
        </extensions>
      </trkpt>
      <trkpt lat="50.6379" lon="5.227">
        <ele>159</ele>
        <time>2019-10-02T08:14:34.000Z</time>
        <extensions>
          <gpxtpx:TrackPointExtension xmlns:gpxtpx="http://www.garmin.com/xmlschemas/TrackPointExtension/v1">
            <gpxtpx:hr>135</gpxtpx:hr>
          </gpxtpx:TrackPointExtension>
        </extensions>
      </trkpt>
      <trkpt lat="50.63796" lon="5.22692">
        <ele>162</ele>
        <time>2019-10-02T08:14:35.000Z</time>
      </trkpt>
      <trkpt lat="50.638" lon="5.22666">
        <ele>159.19999694824</ele>
        <time>2019-10-02T08:14:51.000Z</time>
        <extensions>
          <gpxtpx:TrackPointExtension xmlns:gpxtpx="http://www.garmin.com/xmlschemas/TrackPointExtension/v1">
            <gpxtpx:hr>136</gpxtpx:hr>
          </gpxtpx:TrackPointExtension>
        </extensions>
      </trkpt>
      <trkpt lat="50.63801" lon="5.22656">
        <ele>159.19999694824</ele>
        <time>2019-10-02T08:14:53.000Z</time>
        <extensions>
          <gpxtpx:TrackPointExtension xmlns:gpxtpx="http://www.garmin.com/xmlschemas/TrackPointExtension/v1">
            <gpxtpx:hr>136</gpxtpx:hr>
          </gpxtpx:TrackPointExtension>
        </extensions>
      </trkpt>
      <trkpt lat="50.63813" lon="5.2257">
        <ele>159</ele>
        <time>2019-10-02T08:14:55.000Z</time>
        <extensions>
          <gpxtpx:TrackPointExtension xmlns:gpxtpx="http://www.garmin.com/xmlschemas/TrackPointExtension/v1">
            <gpxtpx:hr>135</gpxtpx:hr>
          </gpxtpx:TrackPointExtension>
        </extensions>
      </trkpt>
      <trkpt lat="50.6382" lon="5.22513">
        <ele>158</ele>
        <time>2019-10-02T08:14:57.000Z</time>
        <extensions>
          <gpxtpx:TrackPointExtension xmlns:gpxtpx="http://www.garmin.com/xmlschemas/TrackPointExtension/v1">
            <gpxtpx:hr>132</gpxtpx:hr>
          </gpxtpx:TrackPointExtension>
        </extensions>
      </trkpt>
      <trkpt lat="50.63819" lon="5.22502">
        <ele>157.80000305176</ele>
        <time>2019-10-02T08:14:58.000Z</time>
        <extensions>
          <gpxtpx:TrackPointExtension xmlns:gpxtpx="http://www.garmin.com/xmlschemas/TrackPointExtension/v1">
            <gpxtpx:hr>132</gpxtpx:hr>
          </gpxtpx:TrackPointExtension>
        </extensions>
      </trkpt>
      <trkpt lat="50.63818" lon="5.2249">
        <ele>157.60000610352</ele>
        <time>2019-10-02T08:15:01.000Z</time>
        <extensions>
          <gpxtpx:TrackPointExtension xmlns:gpxtpx="http://www.garmin.com/xmlschemas/TrackPointExtension/v1">
            <gpxtpx:hr>130</gpxtpx:hr>
          </gpxtpx:TrackPointExtension>
        </extensions>
      </trkpt>
      <trkpt lat="50.63813" lon="5.22468">
        <ele>157.19999694824</ele>
        <time>2019-10-02T08:16:07.000Z</time>
        <extensions>
          <gpxtpx:TrackPointExtension xmlns:gpxtpx="http://www.garmin.com/xmlschemas/TrackPointExtension/v1">
            <gpxtpx:hr>128</gpxtpx:hr>
          </gpxtpx:TrackPointExtension>
        </extensions>
      </trkpt>
      <trkpt lat="50.6381" lon="5.22457">
        <ele>157</ele>
        <time>2019-10-02T08:16:09.000Z</time>
        <extensions>
          <gpxtpx:TrackPointExtension xmlns:gpxtpx="http://www.garmin.com/xmlschemas/TrackPointExtension/v1">
            <gpxtpx:hr>127</gpxtpx:hr>
          </gpxtpx:TrackPointExtension>
        </extensions>
      </trkpt>
      <trkpt lat="50.63801" lon="5.22424">
        <ele>156.39999389648</ele>
        <time>2019-10-02T08:16:23.000Z</time>
        <extensions>
          <gpxtpx:TrackPointExtension xmlns:gpxtpx="http://www.garmin.com/xmlschemas/TrackPointExtension/v1">
            <gpxtpx:hr>126</gpxtpx:hr>
          </gpxtpx:TrackPointExtension>
        </extensions>
      </trkpt>
      <trkpt lat="50.63786" lon="5.22371">
        <ele>155.39999389648</ele>
        <time>2019-10-02T08:16:24.000Z</time>
        <extensions>
          <gpxtpx:TrackPointExtension xmlns:gpxtpx="http://www.garmin.com/xmlschemas/TrackPointExtension/v1">
            <gpxtpx:hr>123</gpxtpx:hr>
          </gpxtpx:TrackPointExtension>
        </extensions>
      </trkpt>
      <trkpt lat="50.63783" lon="5.22361">
        <ele>155.19999694824</ele>
        <time>2019-10-02T08:16:32.000Z</time>
        <extensions>
          <gpxtpx:TrackPointExtension xmlns:gpxtpx="http://www.garmin.com/xmlschemas/TrackPointExtension/v1">
            <gpxtpx:hr>122</gpxtpx:hr>
          </gpxtpx:TrackPointExtension>
        </extensions>
      </trkpt>
      <trkpt lat="50.63781" lon="5.2235">
        <ele>155</ele>
        <time>2019-10-02T08:16:40.000Z</time>
        <extensions>
          <gpxtpx:TrackPointExtension xmlns:gpxtpx="http://www.garmin.com/xmlschemas/TrackPointExtension/v1">
            <gpxtpx:hr>120</gpxtpx:hr>
          </gpxtpx:TrackPointExtension>
        </extensions>
      </trkpt>
      <trkpt lat="50.63781" lon="5.22329">
        <ele>154.60000610352</ele>
        <time>2019-10-02T08:16:47.000Z</time>
        <extensions>
          <gpxtpx:TrackPointExtension xmlns:gpxtpx="http://www.garmin.com/xmlschemas/TrackPointExtension/v1">
            <gpxtpx:hr>115</gpxtpx:hr>
          </gpxtpx:TrackPointExtension>
        </extensions>
      </trkpt>
      <trkpt lat="50.6379" lon="5.22319">
        <ele>154.5</ele>
        <time>2019-10-02T08:16:56.000Z</time>
      </trkpt>
      <trkpt lat="50.63795" lon="5.2231">
        <ele>154.4</ele>
        <time>2019-10-02T08:16:58.000Z</time>
      </trkpt>
      <trkpt lat="50.63805" lon="5.22296">
        <ele>154.2</ele>
        <time>2019-10-02T08:17:07.000Z</time>
      </trkpt>
      <trkpt lat="50.63815" lon="5.22278">
        <ele>153</ele>
        <time>2019-10-02T08:17:11.000Z</time>
        <extensions>
          <gpxtpx:TrackPointExtension xmlns:gpxtpx="http://www.garmin.com/xmlschemas/TrackPointExtension/v1">
            <gpxtpx:hr>103</gpxtpx:hr>
          </gpxtpx:TrackPointExtension>
        </extensions>
      </trkpt>
      <trkpt lat="50.63829" lon="5.22256">
        <ele>152.60000610352</ele>
        <time>2019-10-02T08:17:18.000Z</time>
        <extensions>
          <gpxtpx:TrackPointExtension xmlns:gpxtpx="http://www.garmin.com/xmlschemas/TrackPointExtension/v1">
            <gpxtpx:hr>101</gpxtpx:hr>
          </gpxtpx:TrackPointExtension>
        </extensions>
      </trkpt>
      <trkpt lat="50.6385" lon="5.22223">
        <ele>152.60000610352</ele>
        <time>2019-10-02T08:17:21.000Z</time>
        <extensions>
          <gpxtpx:TrackPointExtension xmlns:gpxtpx="http://www.garmin.com/xmlschemas/TrackPointExtension/v1">
            <gpxtpx:hr>104</gpxtpx:hr>
          </gpxtpx:TrackPointExtension>
        </extensions>
      </trkpt>
      <trkpt lat="50.63864" lon="5.22196">
        <ele>152.39999389648</ele>
        <time>2019-10-02T08:17:30.000Z</time>
        <extensions>
          <gpxtpx:TrackPointExtension xmlns:gpxtpx="http://www.garmin.com/xmlschemas/TrackPointExtension/v1">
            <gpxtpx:hr>105</gpxtpx:hr>
          </gpxtpx:TrackPointExtension>
        </extensions>
      </trkpt>
      <trkpt lat="50.6389" lon="5.22144">
        <ele>152</ele>
        <time>2019-10-02T08:17:32.000Z</time>
        <extensions>
          <gpxtpx:TrackPointExtension xmlns:gpxtpx="http://www.garmin.com/xmlschemas/TrackPointExtension/v1">
            <gpxtpx:hr>105</gpxtpx:hr>
          </gpxtpx:TrackPointExtension>
        </extensions>
      </trkpt>
      <trkpt lat="50.63899" lon="5.22127">
        <ele>151.80000305176</ele>
        <time>2019-10-02T08:17:36.000Z</time>
        <extensions>
          <gpxtpx:TrackPointExtension xmlns:gpxtpx="http://www.garmin.com/xmlschemas/TrackPointExtension/v1">
            <gpxtpx:hr>105</gpxtpx:hr>
          </gpxtpx:TrackPointExtension>
        </extensions>
      </trkpt>
      <trkpt lat="50.63922" lon="5.2208">
        <ele>153.2</ele>
        <time>2019-10-02T08:17:39.000Z</time>
      </trkpt>
      <trkpt lat="50.63939" lon="5.22048">
        <ele>153.6</ele>
        <time>2019-10-02T08:17:41.000Z</time>
      </trkpt>
      <trkpt lat="50.63955" lon="5.22014">
        <ele>154</ele>
        <time>2019-10-02T08:17:42.000Z</time>
      </trkpt>
      <trkpt lat="50.63963" lon="5.21993">
        <ele>154.9</ele>
        <time>2019-10-02T08:17:45.000Z</time>
      </trkpt>
      <trkpt lat="50.63972" lon="5.21965">
        <ele>155</ele>
        <time>2019-10-02T08:17:49.000Z</time>
      </trkpt>
      <trkpt lat="50.63977" lon="5.2194">
        <ele>155</ele>
        <time>2019-10-02T08:17:51.000Z</time>
      </trkpt>
      <trkpt lat="50.63982" lon="5.21919">
        <ele>155.1</ele>
        <time>2019-10-02T08:17:54.000Z</time>
      </trkpt>
      <trkpt lat="50.63986" lon="5.21895">
        <ele>155.7</ele>
        <time>2019-10-02T08:18:00.000Z</time>
      </trkpt>
      <trkpt lat="50.6399" lon="5.21877">
        <ele>150.60000610352</ele>
        <time>2019-10-02T08:18:02.000Z</time>
        <extensions>
          <gpxtpx:TrackPointExtension xmlns:gpxtpx="http://www.garmin.com/xmlschemas/TrackPointExtension/v1">
            <gpxtpx:hr>110</gpxtpx:hr>
          </gpxtpx:TrackPointExtension>
        </extensions>
      </trkpt>
      <trkpt lat="50.63994" lon="5.2186">
        <ele>150.80000305176</ele>
        <time>2019-10-02T08:18:06.000Z</time>
        <extensions>
          <gpxtpx:TrackPointExtension xmlns:gpxtpx="http://www.garmin.com/xmlschemas/TrackPointExtension/v1">
            <gpxtpx:hr>111</gpxtpx:hr>
          </gpxtpx:TrackPointExtension>
        </extensions>
      </trkpt>
      <trkpt lat="50.64003" lon="5.21827">
        <ele>156.7</ele>
        <time>2019-10-02T08:18:08.000Z</time>
      </trkpt>
      <trkpt lat="50.6401" lon="5.21804">
        <ele>156.2</ele>
        <time>2019-10-02T08:18:10.000Z</time>
      </trkpt>
      <trkpt lat="50.64016" lon="5.21783">
        <ele>156.1</ele>
        <time>2019-10-02T08:18:15.000Z</time>
      </trkpt>
      <trkpt lat="50.64022" lon="5.21765">
        <ele>156.2</ele>
        <time>2019-10-02T08:18:24.000Z</time>
      </trkpt>
      <trkpt lat="50.6402" lon="5.21752">
        <ele>156.3</ele>
        <time>2019-10-02T08:18:32.000Z</time>
      </trkpt>
      <trkpt lat="50.64015" lon="5.2172">
        <ele>156.3</ele>
        <time>2019-10-02T08:18:34.000Z</time>
      </trkpt>
      <trkpt lat="50.64014" lon="5.21693">
        <ele>156.3</ele>
        <time>2019-10-02T08:18:35.000Z</time>
      </trkpt>
      <trkpt lat="50.64013" lon="5.21665">
        <ele>156.7</ele>
        <time>2019-10-02T08:18:37.000Z</time>
      </trkpt>
      <trkpt lat="50.64014" lon="5.21636">
        <ele>156.5</ele>
        <time>2019-10-02T08:18:41.000Z</time>
      </trkpt>
      <trkpt lat="50.64018" lon="5.21592">
        <ele>156.6</ele>
        <time>2019-10-02T08:18:42.000Z</time>
      </trkpt>
      <trkpt lat="50.64023" lon="5.21558">
        <ele>157</ele>
        <time>2019-10-02T08:18:43.000Z</time>
      </trkpt>
      <trkpt lat="50.64029" lon="5.21533">
        <ele>153.39999389648</ele>
        <time>2019-10-02T08:18:47.000Z</time>
        <extensions>
          <gpxtpx:TrackPointExtension xmlns:gpxtpx="http://www.garmin.com/xmlschemas/TrackPointExtension/v1">
            <gpxtpx:hr>128</gpxtpx:hr>
          </gpxtpx:TrackPointExtension>
        </extensions>
      </trkpt>
      <trkpt lat="50.64047" lon="5.21455">
        <ele>153.80000305176</ele>
        <time>2019-10-02T08:18:48.000Z</time>
        <extensions>
          <gpxtpx:TrackPointExtension xmlns:gpxtpx="http://www.garmin.com/xmlschemas/TrackPointExtension/v1">
            <gpxtpx:hr>130</gpxtpx:hr>
          </gpxtpx:TrackPointExtension>
        </extensions>
      </trkpt>
      <trkpt lat="50.64066" lon="5.21375">
        <ele>153.60000610352</ele>
        <time>2019-10-02T08:18:51.000Z</time>
        <extensions>
          <gpxtpx:TrackPointExtension xmlns:gpxtpx="http://www.garmin.com/xmlschemas/TrackPointExtension/v1">
            <gpxtpx:hr>130</gpxtpx:hr>
          </gpxtpx:TrackPointExtension>
        </extensions>
      </trkpt>
      <trkpt lat="50.64068" lon="5.21365">
        <ele>153.39999389648</ele>
        <time>2019-10-02T08:18:53.000Z</time>
        <extensions>
          <gpxtpx:TrackPointExtension xmlns:gpxtpx="http://www.garmin.com/xmlschemas/TrackPointExtension/v1">
            <gpxtpx:hr>130</gpxtpx:hr>
          </gpxtpx:TrackPointExtension>
        </extensions>
      </trkpt>
      <trkpt lat="50.64076" lon="5.21335">
        <ele>156</ele>
        <time>2019-10-02T08:18:56.000Z</time>
      </trkpt>
      <trkpt lat="50.64085" lon="5.21295">
        <ele>152.39999389648</ele>
        <time>2019-10-02T08:18:59.000Z</time>
        <extensions>
          <gpxtpx:TrackPointExtension xmlns:gpxtpx="http://www.garmin.com/xmlschemas/TrackPointExtension/v1">
            <gpxtpx:hr>127</gpxtpx:hr>
          </gpxtpx:TrackPointExtension>
        </extensions>
      </trkpt>
      <trkpt lat="50.64092" lon="5.21254">
        <ele>152.19999694824</ele>
        <time>2019-10-02T08:19:01.000Z</time>
        <extensions>
          <gpxtpx:TrackPointExtension xmlns:gpxtpx="http://www.garmin.com/xmlschemas/TrackPointExtension/v1">
            <gpxtpx:hr>125</gpxtpx:hr>
          </gpxtpx:TrackPointExtension>
        </extensions>
      </trkpt>
      <trkpt lat="50.64099" lon="5.21211">
        <ele>152</ele>
        <time>2019-10-02T08:19:09.000Z</time>
        <extensions>
          <gpxtpx:TrackPointExtension xmlns:gpxtpx="http://www.garmin.com/xmlschemas/TrackPointExtension/v1">
            <gpxtpx:hr>122</gpxtpx:hr>
          </gpxtpx:TrackPointExtension>
        </extensions>
      </trkpt>
      <trkpt lat="50.64106" lon="5.21169">
        <ele>151.80000305176</ele>
        <time>2019-10-02T08:19:10.000Z</time>
        <extensions>
          <gpxtpx:TrackPointExtension xmlns:gpxtpx="http://www.garmin.com/xmlschemas/TrackPointExtension/v1">
            <gpxtpx:hr>119</gpxtpx:hr>
          </gpxtpx:TrackPointExtension>
        </extensions>
      </trkpt>
      <trkpt lat="50.6411" lon="5.21148">
        <ele>151.80000305176</ele>
        <time>2019-10-02T08:19:14.000Z</time>
        <extensions>
          <gpxtpx:TrackPointExtension xmlns:gpxtpx="http://www.garmin.com/xmlschemas/TrackPointExtension/v1">
            <gpxtpx:hr>118</gpxtpx:hr>
          </gpxtpx:TrackPointExtension>
        </extensions>
      </trkpt>
      <trkpt lat="50.64113" lon="5.21126">
        <ele>151.60000610352</ele>
        <time>2019-10-02T08:19:17.000Z</time>
        <extensions>
          <gpxtpx:TrackPointExtension xmlns:gpxtpx="http://www.garmin.com/xmlschemas/TrackPointExtension/v1">
            <gpxtpx:hr>117</gpxtpx:hr>
          </gpxtpx:TrackPointExtension>
        </extensions>
      </trkpt>
      <trkpt lat="50.6412" lon="5.21066">
        <ele>154.5</ele>
        <time>2019-10-02T08:19:20.000Z</time>
      </trkpt>
      <trkpt lat="50.64125" lon="5.21024">
        <ele>154.1</ele>
        <time>2019-10-02T08:19:25.000Z</time>
      </trkpt>
      <trkpt lat="50.64127" lon="5.21003">
        <ele>150.80000305176</ele>
        <time>2019-10-02T08:19:27.000Z</time>
        <extensions>
          <gpxtpx:TrackPointExtension xmlns:gpxtpx="http://www.garmin.com/xmlschemas/TrackPointExtension/v1">
            <gpxtpx:hr>112</gpxtpx:hr>
          </gpxtpx:TrackPointExtension>
        </extensions>
      </trkpt>
      <trkpt lat="50.64127" lon="5.2098">
        <ele>153</ele>
        <time>2019-10-02T08:19:28.000Z</time>
      </trkpt>
      <trkpt lat="50.64129" lon="5.20959">
        <ele>153.2</ele>
        <time>2019-10-02T08:19:29.000Z</time>
      </trkpt>
      <trkpt lat="50.64132" lon="5.20933">
        <ele>153.1</ele>
        <time>2019-10-02T08:19:33.000Z</time>
      </trkpt>
      <trkpt lat="50.64137" lon="5.20892">
        <ele>152.1</ele>
        <time>2019-10-02T08:19:37.000Z</time>
      </trkpt>
      <trkpt lat="50.64142" lon="5.2085">
        <ele>151.6</ele>
        <time>2019-10-02T08:19:44.000Z</time>
      </trkpt>
      <trkpt lat="50.64147" lon="5.20818">
        <ele>150.7</ele>
        <time>2019-10-02T08:19:48.000Z</time>
      </trkpt>
      <trkpt lat="50.64155" lon="5.20757">
        <ele>150.2</ele>
        <time>2019-10-02T08:19:50.000Z</time>
      </trkpt>
      <trkpt lat="50.64158" lon="5.20715">
        <ele>149.4</ele>
        <time>2019-10-02T08:19:59.000Z</time>
      </trkpt>
      <trkpt lat="50.64165" lon="5.2065">
        <ele>148.7</ele>
        <time>2019-10-02T08:20:06.000Z</time>
      </trkpt>
      <trkpt lat="50.64167" lon="5.20619">
        <ele>147.8</ele>
        <time>2019-10-02T08:20:08.000Z</time>
      </trkpt>
      <trkpt lat="50.64175" lon="5.20541">
        <ele>146</ele>
        <time>2019-10-02T08:20:13.000Z</time>
        <extensions>
          <gpxtpx:TrackPointExtension xmlns:gpxtpx="http://www.garmin.com/xmlschemas/TrackPointExtension/v1">
            <gpxtpx:hr>105</gpxtpx:hr>
          </gpxtpx:TrackPointExtension>
        </extensions>
      </trkpt>
      <trkpt lat="50.64176" lon="5.20518">
        <ele>146</ele>
        <time>2019-10-02T08:20:15.000Z</time>
        <extensions>
          <gpxtpx:TrackPointExtension xmlns:gpxtpx="http://www.garmin.com/xmlschemas/TrackPointExtension/v1">
            <gpxtpx:hr>107</gpxtpx:hr>
          </gpxtpx:TrackPointExtension>
        </extensions>
      </trkpt>
      <trkpt lat="50.64176" lon="5.20477">
        <ele>148.5</ele>
        <time>2019-10-02T08:20:19.000Z</time>
      </trkpt>
      <trkpt lat="50.64173" lon="5.20444">
        <ele>148.8</ele>
        <time>2019-10-02T08:20:21.000Z</time>
      </trkpt>
      <trkpt lat="50.64176" lon="5.20413">
        <ele>145.60000610352</ele>
        <time>2019-10-02T08:20:23.000Z</time>
        <extensions>
          <gpxtpx:TrackPointExtension xmlns:gpxtpx="http://www.garmin.com/xmlschemas/TrackPointExtension/v1">
            <gpxtpx:hr>111</gpxtpx:hr>
          </gpxtpx:TrackPointExtension>
        </extensions>
      </trkpt>
      <trkpt lat="50.64178" lon="5.20383">
        <ele>145.39999389648</ele>
        <time>2019-10-02T08:20:25.000Z</time>
        <extensions>
          <gpxtpx:TrackPointExtension xmlns:gpxtpx="http://www.garmin.com/xmlschemas/TrackPointExtension/v1">
            <gpxtpx:hr>113</gpxtpx:hr>
          </gpxtpx:TrackPointExtension>
        </extensions>
      </trkpt>
      <trkpt lat="50.64182" lon="5.20351">
        <ele>149</ele>
        <time>2019-10-02T08:20:29.000Z</time>
      </trkpt>
      <trkpt lat="50.64187" lon="5.20301">
        <ele>149.6</ele>
        <time>2019-10-02T08:20:30.000Z</time>
      </trkpt>
      <trkpt lat="50.64195" lon="5.20224">
        <ele>151.2</ele>
        <time>2019-10-02T08:20:32.000Z</time>
      </trkpt>
      <trkpt lat="50.64202" lon="5.2017">
        <ele>151.8</ele>
        <time>2019-10-02T08:20:35.000Z</time>
      </trkpt>
      <trkpt lat="50.64206" lon="5.20114">
        <ele>150.8</ele>
        <time>2019-10-02T08:20:36.000Z</time>
      </trkpt>
      <trkpt lat="50.64208" lon="5.20087">
        <ele>148.80000305176</ele>
        <time>2019-10-02T08:20:41.000Z</time>
        <extensions>
          <gpxtpx:TrackPointExtension xmlns:gpxtpx="http://www.garmin.com/xmlschemas/TrackPointExtension/v1">
            <gpxtpx:hr>129</gpxtpx:hr>
          </gpxtpx:TrackPointExtension>
        </extensions>
      </trkpt>
      <trkpt lat="50.64209" lon="5.20013">
        <ele>148.80000305176</ele>
        <time>2019-10-02T08:20:43.000Z</time>
        <extensions>
          <gpxtpx:TrackPointExtension xmlns:gpxtpx="http://www.garmin.com/xmlschemas/TrackPointExtension/v1">
            <gpxtpx:hr>131</gpxtpx:hr>
          </gpxtpx:TrackPointExtension>
        </extensions>
      </trkpt>
      <trkpt lat="50.64208" lon="5.1992">
        <ele>148.39999389648</ele>
        <time>2019-10-02T08:20:47.000Z</time>
        <extensions>
          <gpxtpx:TrackPointExtension xmlns:gpxtpx="http://www.garmin.com/xmlschemas/TrackPointExtension/v1">
            <gpxtpx:hr>132</gpxtpx:hr>
          </gpxtpx:TrackPointExtension>
        </extensions>
      </trkpt>
      <trkpt lat="50.64208" lon="5.1991">
        <ele>148.39999389648</ele>
        <time>2019-10-02T08:20:49.000Z</time>
        <extensions>
          <gpxtpx:TrackPointExtension xmlns:gpxtpx="http://www.garmin.com/xmlschemas/TrackPointExtension/v1">
            <gpxtpx:hr>132</gpxtpx:hr>
          </gpxtpx:TrackPointExtension>
        </extensions>
      </trkpt>
      <trkpt lat="50.64206" lon="5.19814">
        <ele>148.60000610352</ele>
        <time>2019-10-02T08:20:51.000Z</time>
        <extensions>
          <gpxtpx:TrackPointExtension xmlns:gpxtpx="http://www.garmin.com/xmlschemas/TrackPointExtension/v1">
            <gpxtpx:hr>132</gpxtpx:hr>
          </gpxtpx:TrackPointExtension>
        </extensions>
      </trkpt>
      <trkpt lat="50.64206" lon="5.19804">
        <ele>148.60000610352</ele>
        <time>2019-10-02T08:20:53.000Z</time>
        <extensions>
          <gpxtpx:TrackPointExtension xmlns:gpxtpx="http://www.garmin.com/xmlschemas/TrackPointExtension/v1">
            <gpxtpx:hr>132</gpxtpx:hr>
          </gpxtpx:TrackPointExtension>
        </extensions>
      </trkpt>
      <trkpt lat="50.64205" lon="5.19717">
        <ele>148.19999694824</ele>
        <time>2019-10-02T08:20:54.000Z</time>
        <extensions>
          <gpxtpx:TrackPointExtension xmlns:gpxtpx="http://www.garmin.com/xmlschemas/TrackPointExtension/v1">
            <gpxtpx:hr>133</gpxtpx:hr>
          </gpxtpx:TrackPointExtension>
        </extensions>
      </trkpt>
      <trkpt lat="50.64207" lon="5.19696">
        <ele>148.19999694824</ele>
        <time>2019-10-02T08:20:57.000Z</time>
        <extensions>
          <gpxtpx:TrackPointExtension xmlns:gpxtpx="http://www.garmin.com/xmlschemas/TrackPointExtension/v1">
            <gpxtpx:hr>132</gpxtpx:hr>
          </gpxtpx:TrackPointExtension>
        </extensions>
      </trkpt>
      <trkpt lat="50.6422" lon="5.1961">
        <ele>147.80000305176</ele>
        <time>2019-10-02T08:20:58.000Z</time>
        <extensions>
          <gpxtpx:TrackPointExtension xmlns:gpxtpx="http://www.garmin.com/xmlschemas/TrackPointExtension/v1">
            <gpxtpx:hr>130</gpxtpx:hr>
          </gpxtpx:TrackPointExtension>
        </extensions>
      </trkpt>
      <trkpt lat="50.64233" lon="5.19535">
        <ele>146.80000305176</ele>
        <time>2019-10-02T08:21:01.000Z</time>
        <extensions>
          <gpxtpx:TrackPointExtension xmlns:gpxtpx="http://www.garmin.com/xmlschemas/TrackPointExtension/v1">
            <gpxtpx:hr>127</gpxtpx:hr>
          </gpxtpx:TrackPointExtension>
        </extensions>
      </trkpt>
      <trkpt lat="50.64234" lon="5.19524">
        <ele>146.80000305176</ele>
        <time>2019-10-02T08:21:02.000Z</time>
        <extensions>
          <gpxtpx:TrackPointExtension xmlns:gpxtpx="http://www.garmin.com/xmlschemas/TrackPointExtension/v1">
            <gpxtpx:hr>127</gpxtpx:hr>
          </gpxtpx:TrackPointExtension>
        </extensions>
      </trkpt>
      <trkpt lat="50.6424" lon="5.19492">
        <ele>146.39999389648</ele>
        <time>2019-10-02T08:21:03.000Z</time>
        <extensions>
          <gpxtpx:TrackPointExtension xmlns:gpxtpx="http://www.garmin.com/xmlschemas/TrackPointExtension/v1">
            <gpxtpx:hr>126</gpxtpx:hr>
          </gpxtpx:TrackPointExtension>
        </extensions>
      </trkpt>
      <trkpt lat="50.64246" lon="5.19448">
        <ele>146.19999694824</ele>
        <time>2019-10-02T08:21:10.000Z</time>
        <extensions>
          <gpxtpx:TrackPointExtension xmlns:gpxtpx="http://www.garmin.com/xmlschemas/TrackPointExtension/v1">
            <gpxtpx:hr>123</gpxtpx:hr>
          </gpxtpx:TrackPointExtension>
        </extensions>
      </trkpt>
      <trkpt lat="50.64253" lon="5.19404">
        <ele>145.80000305176</ele>
        <time>2019-10-02T08:21:14.000Z</time>
        <extensions>
          <gpxtpx:TrackPointExtension xmlns:gpxtpx="http://www.garmin.com/xmlschemas/TrackPointExtension/v1">
            <gpxtpx:hr>120</gpxtpx:hr>
          </gpxtpx:TrackPointExtension>
        </extensions>
      </trkpt>
      <trkpt lat="50.64255" lon="5.19393">
        <ele>145.39999389648</ele>
        <time>2019-10-02T08:21:17.000Z</time>
        <extensions>
          <gpxtpx:TrackPointExtension xmlns:gpxtpx="http://www.garmin.com/xmlschemas/TrackPointExtension/v1">
            <gpxtpx:hr>119</gpxtpx:hr>
          </gpxtpx:TrackPointExtension>
        </extensions>
      </trkpt>
      <trkpt lat="50.64258" lon="5.1936">
        <ele>145</ele>
        <time>2019-10-02T08:21:19.000Z</time>
        <extensions>
          <gpxtpx:TrackPointExtension xmlns:gpxtpx="http://www.garmin.com/xmlschemas/TrackPointExtension/v1">
            <gpxtpx:hr>116</gpxtpx:hr>
          </gpxtpx:TrackPointExtension>
        </extensions>
      </trkpt>
      <trkpt lat="50.64261" lon="5.19327">
        <ele>144.60000610352</ele>
        <time>2019-10-02T08:21:22.000Z</time>
        <extensions>
          <gpxtpx:TrackPointExtension xmlns:gpxtpx="http://www.garmin.com/xmlschemas/TrackPointExtension/v1">
            <gpxtpx:hr>113</gpxtpx:hr>
          </gpxtpx:TrackPointExtension>
        </extensions>
      </trkpt>
      <trkpt lat="50.64261" lon="5.19315">
        <ele>144.39999389648</ele>
        <time>2019-10-02T08:21:23.000Z</time>
        <extensions>
          <gpxtpx:TrackPointExtension xmlns:gpxtpx="http://www.garmin.com/xmlschemas/TrackPointExtension/v1">
            <gpxtpx:hr>112</gpxtpx:hr>
          </gpxtpx:TrackPointExtension>
        </extensions>
      </trkpt>
      <trkpt lat="50.64261" lon="5.19304">
        <ele>144.19999694824</ele>
        <time>2019-10-02T08:21:25.000Z</time>
        <extensions>
          <gpxtpx:TrackPointExtension xmlns:gpxtpx="http://www.garmin.com/xmlschemas/TrackPointExtension/v1">
            <gpxtpx:hr>111</gpxtpx:hr>
          </gpxtpx:TrackPointExtension>
        </extensions>
      </trkpt>
      <trkpt lat="50.64257" lon="5.19244">
        <ele>143.19999694824</ele>
        <time>2019-10-02T08:21:29.000Z</time>
        <extensions>
          <gpxtpx:TrackPointExtension xmlns:gpxtpx="http://www.garmin.com/xmlschemas/TrackPointExtension/v1">
            <gpxtpx:hr>108</gpxtpx:hr>
          </gpxtpx:TrackPointExtension>
        </extensions>
      </trkpt>
      <trkpt lat="50.64254" lon="5.19221">
        <ele>142.60000610352</ele>
        <time>2019-10-02T08:21:31.000Z</time>
        <extensions>
          <gpxtpx:TrackPointExtension xmlns:gpxtpx="http://www.garmin.com/xmlschemas/TrackPointExtension/v1">
            <gpxtpx:hr>106</gpxtpx:hr>
          </gpxtpx:TrackPointExtension>
        </extensions>
      </trkpt>
      <trkpt lat="50.64251" lon="5.19198">
        <ele>142</ele>
        <time>2019-10-02T08:21:32.000Z</time>
        <extensions>
          <gpxtpx:TrackPointExtension xmlns:gpxtpx="http://www.garmin.com/xmlschemas/TrackPointExtension/v1">
            <gpxtpx:hr>105</gpxtpx:hr>
          </gpxtpx:TrackPointExtension>
        </extensions>
      </trkpt>
      <trkpt lat="50.64238" lon="5.1913">
        <ele>141</ele>
        <time>2019-10-02T08:21:38.000Z</time>
        <extensions>
          <gpxtpx:TrackPointExtension xmlns:gpxtpx="http://www.garmin.com/xmlschemas/TrackPointExtension/v1">
            <gpxtpx:hr>103</gpxtpx:hr>
          </gpxtpx:TrackPointExtension>
        </extensions>
      </trkpt>
      <trkpt lat="50.64236" lon="5.19119">
        <ele>140.80000305176</ele>
        <time>2019-10-02T08:21:39.000Z</time>
        <extensions>
          <gpxtpx:TrackPointExtension xmlns:gpxtpx="http://www.garmin.com/xmlschemas/TrackPointExtension/v1">
            <gpxtpx:hr>101</gpxtpx:hr>
          </gpxtpx:TrackPointExtension>
        </extensions>
      </trkpt>
      <trkpt lat="50.64228" lon="5.19074">
        <ele>140</ele>
        <time>2019-10-02T08:21:40.000Z</time>
        <extensions>
          <gpxtpx:TrackPointExtension xmlns:gpxtpx="http://www.garmin.com/xmlschemas/TrackPointExtension/v1">
            <gpxtpx:hr>99</gpxtpx:hr>
          </gpxtpx:TrackPointExtension>
        </extensions>
      </trkpt>
      <trkpt lat="50.64213" lon="5.18997">
        <ele>139</ele>
        <time>2019-10-02T08:21:48.000Z</time>
        <extensions>
          <gpxtpx:TrackPointExtension xmlns:gpxtpx="http://www.garmin.com/xmlschemas/TrackPointExtension/v1">
            <gpxtpx:hr>98</gpxtpx:hr>
          </gpxtpx:TrackPointExtension>
        </extensions>
      </trkpt>
      <trkpt lat="50.64197" lon="5.18911">
        <ele>138</ele>
        <time>2019-10-02T08:21:55.000Z</time>
        <extensions>
          <gpxtpx:TrackPointExtension xmlns:gpxtpx="http://www.garmin.com/xmlschemas/TrackPointExtension/v1">
            <gpxtpx:hr>100</gpxtpx:hr>
          </gpxtpx:TrackPointExtension>
        </extensions>
      </trkpt>
      <trkpt lat="50.64195" lon="5.189">
        <ele>137.80000305176</ele>
        <time>2019-10-02T08:21:56.000Z</time>
        <extensions>
          <gpxtpx:TrackPointExtension xmlns:gpxtpx="http://www.garmin.com/xmlschemas/TrackPointExtension/v1">
            <gpxtpx:hr>101</gpxtpx:hr>
          </gpxtpx:TrackPointExtension>
        </extensions>
      </trkpt>
      <trkpt lat="50.64191" lon="5.18879">
        <ele>137.80000305176</ele>
        <time>2019-10-02T08:21:59.000Z</time>
        <extensions>
          <gpxtpx:TrackPointExtension xmlns:gpxtpx="http://www.garmin.com/xmlschemas/TrackPointExtension/v1">
            <gpxtpx:hr>102</gpxtpx:hr>
          </gpxtpx:TrackPointExtension>
        </extensions>
      </trkpt>
      <trkpt lat="50.64185" lon="5.18847">
        <ele>137.60000610352</ele>
        <time>2019-10-02T08:22:01.000Z</time>
        <extensions>
          <gpxtpx:TrackPointExtension xmlns:gpxtpx="http://www.garmin.com/xmlschemas/TrackPointExtension/v1">
            <gpxtpx:hr>105</gpxtpx:hr>
          </gpxtpx:TrackPointExtension>
        </extensions>
      </trkpt>
      <trkpt lat="50.64175" lon="5.18796">
        <ele>137.60000610352</ele>
        <time>2019-10-02T08:22:02.000Z</time>
        <extensions>
          <gpxtpx:TrackPointExtension xmlns:gpxtpx="http://www.garmin.com/xmlschemas/TrackPointExtension/v1">
            <gpxtpx:hr>108</gpxtpx:hr>
          </gpxtpx:TrackPointExtension>
        </extensions>
      </trkpt>
      <trkpt lat="50.64167" lon="5.18756">
        <ele>137.60000610352</ele>
        <time>2019-10-02T08:22:03.000Z</time>
        <extensions>
          <gpxtpx:TrackPointExtension xmlns:gpxtpx="http://www.garmin.com/xmlschemas/TrackPointExtension/v1">
            <gpxtpx:hr>110</gpxtpx:hr>
          </gpxtpx:TrackPointExtension>
        </extensions>
      </trkpt>
      <trkpt lat="50.64158" lon="5.18707">
        <ele>137.80000305176</ele>
        <time>2019-10-02T08:22:04.000Z</time>
        <extensions>
          <gpxtpx:TrackPointExtension xmlns:gpxtpx="http://www.garmin.com/xmlschemas/TrackPointExtension/v1">
            <gpxtpx:hr>113</gpxtpx:hr>
          </gpxtpx:TrackPointExtension>
        </extensions>
      </trkpt>
      <trkpt lat="50.64151" lon="5.18669">
        <ele>138.19999694824</ele>
        <time>2019-10-02T08:22:06.000Z</time>
        <extensions>
          <gpxtpx:TrackPointExtension xmlns:gpxtpx="http://www.garmin.com/xmlschemas/TrackPointExtension/v1">
            <gpxtpx:hr>115</gpxtpx:hr>
          </gpxtpx:TrackPointExtension>
        </extensions>
      </trkpt>
      <trkpt lat="50.64142" lon="5.1862">
        <ele>138.39999389648</ele>
        <time>2019-10-02T08:22:08.000Z</time>
        <extensions>
          <gpxtpx:TrackPointExtension xmlns:gpxtpx="http://www.garmin.com/xmlschemas/TrackPointExtension/v1">
            <gpxtpx:hr>118</gpxtpx:hr>
          </gpxtpx:TrackPointExtension>
        </extensions>
      </trkpt>
      <trkpt lat="50.64131" lon="5.18561">
        <ele>138.39999389648</ele>
        <time>2019-10-02T08:22:09.000Z</time>
        <extensions>
          <gpxtpx:TrackPointExtension xmlns:gpxtpx="http://www.garmin.com/xmlschemas/TrackPointExtension/v1">
            <gpxtpx:hr>121</gpxtpx:hr>
          </gpxtpx:TrackPointExtension>
        </extensions>
      </trkpt>
      <trkpt lat="50.64115" lon="5.18479">
        <ele>138.19999694824</ele>
        <time>2019-10-02T08:22:11.000Z</time>
        <extensions>
          <gpxtpx:TrackPointExtension xmlns:gpxtpx="http://www.garmin.com/xmlschemas/TrackPointExtension/v1">
            <gpxtpx:hr>123</gpxtpx:hr>
          </gpxtpx:TrackPointExtension>
        </extensions>
      </trkpt>
      <trkpt lat="50.64111" lon="5.18459">
        <ele>138</ele>
        <time>2019-10-02T08:22:13.000Z</time>
        <extensions>
          <gpxtpx:TrackPointExtension xmlns:gpxtpx="http://www.garmin.com/xmlschemas/TrackPointExtension/v1">
            <gpxtpx:hr>122</gpxtpx:hr>
          </gpxtpx:TrackPointExtension>
        </extensions>
      </trkpt>
      <trkpt lat="50.64104" lon="5.18418">
        <ele>141</ele>
        <time>2019-10-02T08:22:16.000Z</time>
      </trkpt>
      <trkpt lat="50.64097" lon="5.1837">
        <ele>138</ele>
        <time>2019-10-02T08:22:17.000Z</time>
        <extensions>
          <gpxtpx:TrackPointExtension xmlns:gpxtpx="http://www.garmin.com/xmlschemas/TrackPointExtension/v1">
            <gpxtpx:hr>121</gpxtpx:hr>
          </gpxtpx:TrackPointExtension>
        </extensions>
      </trkpt>
      <trkpt lat="50.64091" lon="5.18306">
        <ele>138.19999694824</ele>
        <time>2019-10-02T08:22:19.000Z</time>
        <extensions>
          <gpxtpx:TrackPointExtension xmlns:gpxtpx="http://www.garmin.com/xmlschemas/TrackPointExtension/v1">
            <gpxtpx:hr>124</gpxtpx:hr>
          </gpxtpx:TrackPointExtension>
        </extensions>
      </trkpt>
      <trkpt lat="50.64087" lon="5.18259">
        <ele>139</ele>
        <time>2019-10-02T08:22:20.000Z</time>
        <extensions>
          <gpxtpx:TrackPointExtension xmlns:gpxtpx="http://www.garmin.com/xmlschemas/TrackPointExtension/v1">
            <gpxtpx:hr>127</gpxtpx:hr>
          </gpxtpx:TrackPointExtension>
        </extensions>
      </trkpt>
      <trkpt lat="50.64085" lon="5.18243">
        <ele>139.39999389648</ele>
        <time>2019-10-02T08:22:22.000Z</time>
        <extensions>
          <gpxtpx:TrackPointExtension xmlns:gpxtpx="http://www.garmin.com/xmlschemas/TrackPointExtension/v1">
            <gpxtpx:hr>127</gpxtpx:hr>
          </gpxtpx:TrackPointExtension>
        </extensions>
      </trkpt>
      <trkpt lat="50.64081" lon="5.18212">
        <ele>140</ele>
        <time>2019-10-02T08:22:24.000Z</time>
        <extensions>
          <gpxtpx:TrackPointExtension xmlns:gpxtpx="http://www.garmin.com/xmlschemas/TrackPointExtension/v1">
            <gpxtpx:hr>130</gpxtpx:hr>
          </gpxtpx:TrackPointExtension>
        </extensions>
      </trkpt>
      <trkpt lat="50.6408" lon="5.18204">
        <ele>140.19999694824</ele>
        <time>2019-10-02T08:22:26.000Z</time>
        <extensions>
          <gpxtpx:TrackPointExtension xmlns:gpxtpx="http://www.garmin.com/xmlschemas/TrackPointExtension/v1">
            <gpxtpx:hr>131</gpxtpx:hr>
          </gpxtpx:TrackPointExtension>
        </extensions>
      </trkpt>
      <trkpt lat="50.64078" lon="5.1819">
        <ele>140.39999389648</ele>
        <time>2019-10-02T08:22:27.000Z</time>
        <extensions>
          <gpxtpx:TrackPointExtension xmlns:gpxtpx="http://www.garmin.com/xmlschemas/TrackPointExtension/v1">
            <gpxtpx:hr>132</gpxtpx:hr>
          </gpxtpx:TrackPointExtension>
        </extensions>
      </trkpt>
      <trkpt lat="50.64077" lon="5.18168">
        <ele>141</ele>
        <time>2019-10-02T08:22:30.000Z</time>
        <extensions>
          <gpxtpx:TrackPointExtension xmlns:gpxtpx="http://www.garmin.com/xmlschemas/TrackPointExtension/v1">
            <gpxtpx:hr>134</gpxtpx:hr>
          </gpxtpx:TrackPointExtension>
        </extensions>
      </trkpt>
      <trkpt lat="50.64074" lon="5.18147">
        <ele>141.39999389648</ele>
        <time>2019-10-02T08:22:32.000Z</time>
        <extensions>
          <gpxtpx:TrackPointExtension xmlns:gpxtpx="http://www.garmin.com/xmlschemas/TrackPointExtension/v1">
            <gpxtpx:hr>136</gpxtpx:hr>
          </gpxtpx:TrackPointExtension>
        </extensions>
      </trkpt>
      <trkpt lat="50.6407" lon="5.18103">
        <ele>142.60000610352</ele>
        <time>2019-10-02T08:22:34.000Z</time>
        <extensions>
          <gpxtpx:TrackPointExtension xmlns:gpxtpx="http://www.garmin.com/xmlschemas/TrackPointExtension/v1">
            <gpxtpx:hr>139</gpxtpx:hr>
          </gpxtpx:TrackPointExtension>
        </extensions>
      </trkpt>
      <trkpt lat="50.6407" lon="5.18095">
        <ele>142.60000610352</ele>
        <time>2019-10-02T08:22:37.000Z</time>
        <extensions>
          <gpxtpx:TrackPointExtension xmlns:gpxtpx="http://www.garmin.com/xmlschemas/TrackPointExtension/v1">
            <gpxtpx:hr>139</gpxtpx:hr>
          </gpxtpx:TrackPointExtension>
        </extensions>
      </trkpt>
      <trkpt lat="50.64065" lon="5.18046">
        <ele>143.39999389648</ele>
        <time>2019-10-02T08:22:38.000Z</time>
        <extensions>
          <gpxtpx:TrackPointExtension xmlns:gpxtpx="http://www.garmin.com/xmlschemas/TrackPointExtension/v1">
            <gpxtpx:hr>140</gpxtpx:hr>
          </gpxtpx:TrackPointExtension>
        </extensions>
      </trkpt>
      <trkpt lat="50.6406" lon="5.18003">
        <ele>144.19999694824</ele>
        <time>2019-10-02T08:22:42.000Z</time>
        <extensions>
          <gpxtpx:TrackPointExtension xmlns:gpxtpx="http://www.garmin.com/xmlschemas/TrackPointExtension/v1">
            <gpxtpx:hr>140</gpxtpx:hr>
          </gpxtpx:TrackPointExtension>
        </extensions>
      </trkpt>
      <trkpt lat="50.64056" lon="5.17987">
        <ele>144.39999389648</ele>
        <time>2019-10-02T08:22:50.000Z</time>
        <extensions>
          <gpxtpx:TrackPointExtension xmlns:gpxtpx="http://www.garmin.com/xmlschemas/TrackPointExtension/v1">
            <gpxtpx:hr>140</gpxtpx:hr>
          </gpxtpx:TrackPointExtension>
        </extensions>
      </trkpt>
      <trkpt lat="50.64048" lon="5.17964">
        <ele>145</ele>
        <time>2019-10-02T08:22:55.000Z</time>
        <extensions>
          <gpxtpx:TrackPointExtension xmlns:gpxtpx="http://www.garmin.com/xmlschemas/TrackPointExtension/v1">
            <gpxtpx:hr>141</gpxtpx:hr>
          </gpxtpx:TrackPointExtension>
        </extensions>
      </trkpt>
      <trkpt lat="50.6403" lon="5.17929">
        <ele>145.39999389648</ele>
        <time>2019-10-02T08:22:56.000Z</time>
        <extensions>
          <gpxtpx:TrackPointExtension xmlns:gpxtpx="http://www.garmin.com/xmlschemas/TrackPointExtension/v1">
            <gpxtpx:hr>141</gpxtpx:hr>
          </gpxtpx:TrackPointExtension>
        </extensions>
      </trkpt>
      <trkpt lat="50.64025" lon="5.17922">
        <ele>145.60000610352</ele>
        <time>2019-10-02T08:22:57.000Z</time>
        <extensions>
          <gpxtpx:TrackPointExtension xmlns:gpxtpx="http://www.garmin.com/xmlschemas/TrackPointExtension/v1">
            <gpxtpx:hr>141</gpxtpx:hr>
          </gpxtpx:TrackPointExtension>
        </extensions>
      </trkpt>
      <trkpt lat="50.63993" lon="5.17864">
        <ele>145.80000305176</ele>
        <time>2019-10-02T08:22:59.000Z</time>
        <extensions>
          <gpxtpx:TrackPointExtension xmlns:gpxtpx="http://www.garmin.com/xmlschemas/TrackPointExtension/v1">
            <gpxtpx:hr>140</gpxtpx:hr>
          </gpxtpx:TrackPointExtension>
        </extensions>
      </trkpt>
      <trkpt lat="50.6397" lon="5.17819">
        <ele>146</ele>
        <time>2019-10-02T08:23:02.000Z</time>
        <extensions>
          <gpxtpx:TrackPointExtension xmlns:gpxtpx="http://www.garmin.com/xmlschemas/TrackPointExtension/v1">
            <gpxtpx:hr>140</gpxtpx:hr>
          </gpxtpx:TrackPointExtension>
        </extensions>
      </trkpt>
      <trkpt lat="50.63967" lon="5.17811">
        <ele>146</ele>
        <time>2019-10-02T08:23:03.000Z</time>
        <extensions>
          <gpxtpx:TrackPointExtension xmlns:gpxtpx="http://www.garmin.com/xmlschemas/TrackPointExtension/v1">
            <gpxtpx:hr>140</gpxtpx:hr>
          </gpxtpx:TrackPointExtension>
        </extensions>
      </trkpt>
      <trkpt lat="50.63958" lon="5.17782">
        <ele>150</ele>
        <time>2019-10-02T08:23:05.000Z</time>
      </trkpt>
      <trkpt lat="50.63949" lon="5.17754">
        <ele>150</ele>
        <time>2019-10-02T08:23:09.000Z</time>
      </trkpt>
      <trkpt lat="50.6394" lon="5.17725">
        <ele>150.4</ele>
        <time>2019-10-02T08:23:10.000Z</time>
      </trkpt>
      <trkpt lat="50.63936" lon="5.17701">
        <ele>150.5</ele>
        <time>2019-10-02T08:23:15.000Z</time>
      </trkpt>
      <trkpt lat="50.63934" lon="5.17674">
        <ele>150.6</ele>
        <time>2019-10-02T08:23:16.000Z</time>
      </trkpt>
      <trkpt lat="50.63929" lon="5.1764">
        <ele>150.8</ele>
        <time>2019-10-02T08:23:45.000Z</time>
      </trkpt>
      <trkpt lat="50.63927" lon="5.17618">
        <ele>150.9</ele>
        <time>2019-10-02T08:24:20.000Z</time>
      </trkpt>
      <trkpt lat="50.63925" lon="5.17603">
        <ele>151.1</ele>
        <time>2019-10-02T08:24:24.000Z</time>
      </trkpt>
      <trkpt lat="50.63914" lon="5.17575">
        <ele>152.1</ele>
        <time>2019-10-02T08:25:00.000Z</time>
      </trkpt>
      <trkpt lat="50.63904" lon="5.17554">
        <ele>152.1</ele>
        <time>2019-10-02T08:25:21.000Z</time>
      </trkpt>
      <trkpt lat="50.6389" lon="5.17518">
        <ele>152</ele>
        <time>2019-10-02T08:25:22.000Z</time>
      </trkpt>
      <trkpt lat="50.63897" lon="5.17496">
        <ele>151.4</ele>
        <time>2019-10-02T08:25:25.000Z</time>
      </trkpt>
      <trkpt lat="50.63903" lon="5.17467">
        <ele>147.80000305176</ele>
        <time>2019-10-02T08:25:29.000Z</time>
        <extensions>
          <gpxtpx:TrackPointExtension xmlns:gpxtpx="http://www.garmin.com/xmlschemas/TrackPointExtension/v1">
            <gpxtpx:hr>128</gpxtpx:hr>
          </gpxtpx:TrackPointExtension>
        </extensions>
      </trkpt>
      <trkpt lat="50.63895" lon="5.17453">
        <ele>151.4</ele>
        <time>2019-10-02T08:25:30.000Z</time>
      </trkpt>
      <trkpt lat="50.63885" lon="5.17434">
        <ele>151.5</ele>
        <time>2019-10-02T08:25:33.000Z</time>
      </trkpt>
      <trkpt lat="50.63876" lon="5.1742">
        <ele>151.6</ele>
        <time>2019-10-02T08:25:34.000Z</time>
      </trkpt>
      <trkpt lat="50.63866" lon="5.17401">
        <ele>151.2</ele>
        <time>2019-10-02T08:25:38.000Z</time>
      </trkpt>
      <trkpt lat="50.63851" lon="5.17376">
        <ele>151</ele>
        <time>2019-10-02T08:25:39.000Z</time>
      </trkpt>
      <trkpt lat="50.63838" lon="5.17364">
        <ele>151</ele>
        <time>2019-10-02T08:25:43.000Z</time>
      </trkpt>
      <trkpt lat="50.63822" lon="5.17353">
        <ele>152.7</ele>
        <time>2019-10-02T08:25:47.000Z</time>
      </trkpt>
      <trkpt lat="50.63798" lon="5.17344">
        <ele>146.80000305176</ele>
        <time>2019-10-02T08:25:51.000Z</time>
        <extensions>
          <gpxtpx:TrackPointExtension xmlns:gpxtpx="http://www.garmin.com/xmlschemas/TrackPointExtension/v1">
            <gpxtpx:hr>125</gpxtpx:hr>
          </gpxtpx:TrackPointExtension>
        </extensions>
      </trkpt>
      <trkpt lat="50.63792" lon="5.17343">
        <ele>147</ele>
        <time>2019-10-02T08:25:53.000Z</time>
        <extensions>
          <gpxtpx:TrackPointExtension xmlns:gpxtpx="http://www.garmin.com/xmlschemas/TrackPointExtension/v1">
            <gpxtpx:hr>126</gpxtpx:hr>
          </gpxtpx:TrackPointExtension>
        </extensions>
      </trkpt>
      <trkpt lat="50.6378" lon="5.17341">
        <ele>147.39999389648</ele>
        <time>2019-10-02T08:25:56.000Z</time>
        <extensions>
          <gpxtpx:TrackPointExtension xmlns:gpxtpx="http://www.garmin.com/xmlschemas/TrackPointExtension/v1">
            <gpxtpx:hr>127</gpxtpx:hr>
          </gpxtpx:TrackPointExtension>
        </extensions>
      </trkpt>
      <trkpt lat="50.63745" lon="5.17335">
        <ele>148</ele>
        <time>2019-10-02T08:25:58.000Z</time>
        <extensions>
          <gpxtpx:TrackPointExtension xmlns:gpxtpx="http://www.garmin.com/xmlschemas/TrackPointExtension/v1">
            <gpxtpx:hr>129</gpxtpx:hr>
          </gpxtpx:TrackPointExtension>
        </extensions>
      </trkpt>
      <trkpt lat="50.63733" lon="5.17332">
        <ele>148.39999389648</ele>
        <time>2019-10-02T08:26:00.000Z</time>
        <extensions>
          <gpxtpx:TrackPointExtension xmlns:gpxtpx="http://www.garmin.com/xmlschemas/TrackPointExtension/v1">
            <gpxtpx:hr>129</gpxtpx:hr>
          </gpxtpx:TrackPointExtension>
        </extensions>
      </trkpt>
      <trkpt lat="50.63691" lon="5.17324">
        <ele>149.19999694824</ele>
        <time>2019-10-02T08:26:03.000Z</time>
        <extensions>
          <gpxtpx:TrackPointExtension xmlns:gpxtpx="http://www.garmin.com/xmlschemas/TrackPointExtension/v1">
            <gpxtpx:hr>129</gpxtpx:hr>
          </gpxtpx:TrackPointExtension>
        </extensions>
      </trkpt>
      <trkpt lat="50.63647" lon="5.17316">
        <ele>149.80000305176</ele>
        <time>2019-10-02T08:26:07.000Z</time>
        <extensions>
          <gpxtpx:TrackPointExtension xmlns:gpxtpx="http://www.garmin.com/xmlschemas/TrackPointExtension/v1">
            <gpxtpx:hr>132</gpxtpx:hr>
          </gpxtpx:TrackPointExtension>
        </extensions>
      </trkpt>
      <trkpt lat="50.63629" lon="5.17313">
        <ele>150.19999694824</ele>
        <time>2019-10-02T08:26:10.000Z</time>
        <extensions>
          <gpxtpx:TrackPointExtension xmlns:gpxtpx="http://www.garmin.com/xmlschemas/TrackPointExtension/v1">
            <gpxtpx:hr>133</gpxtpx:hr>
          </gpxtpx:TrackPointExtension>
        </extensions>
      </trkpt>
      <trkpt lat="50.63604" lon="5.17308">
        <ele>150.60000610352</ele>
        <time>2019-10-02T08:26:13.000Z</time>
        <extensions>
          <gpxtpx:TrackPointExtension xmlns:gpxtpx="http://www.garmin.com/xmlschemas/TrackPointExtension/v1">
            <gpxtpx:hr>134</gpxtpx:hr>
          </gpxtpx:TrackPointExtension>
        </extensions>
      </trkpt>
      <trkpt lat="50.63586" lon="5.17304">
        <ele>151.19999694824</ele>
        <time>2019-10-02T08:26:14.000Z</time>
        <extensions>
          <gpxtpx:TrackPointExtension xmlns:gpxtpx="http://www.garmin.com/xmlschemas/TrackPointExtension/v1">
            <gpxtpx:hr>134</gpxtpx:hr>
          </gpxtpx:TrackPointExtension>
        </extensions>
      </trkpt>
      <trkpt lat="50.63556" lon="5.17295">
        <ele>152</ele>
        <time>2019-10-02T08:26:22.000Z</time>
        <extensions>
          <gpxtpx:TrackPointExtension xmlns:gpxtpx="http://www.garmin.com/xmlschemas/TrackPointExtension/v1">
            <gpxtpx:hr>135</gpxtpx:hr>
          </gpxtpx:TrackPointExtension>
        </extensions>
      </trkpt>
      <trkpt lat="50.63539" lon="5.17288">
        <ele>152.39999389648</ele>
        <time>2019-10-02T08:26:23.000Z</time>
        <extensions>
          <gpxtpx:TrackPointExtension xmlns:gpxtpx="http://www.garmin.com/xmlschemas/TrackPointExtension/v1">
            <gpxtpx:hr>135</gpxtpx:hr>
          </gpxtpx:TrackPointExtension>
        </extensions>
      </trkpt>
      <trkpt lat="50.63533" lon="5.17284">
        <ele>152.39999389648</ele>
        <time>2019-10-02T08:26:48.000Z</time>
        <extensions>
          <gpxtpx:TrackPointExtension xmlns:gpxtpx="http://www.garmin.com/xmlschemas/TrackPointExtension/v1">
            <gpxtpx:hr>136</gpxtpx:hr>
          </gpxtpx:TrackPointExtension>
        </extensions>
      </trkpt>
      <trkpt lat="50.63523" lon="5.17276">
        <ele>152.60000610352</ele>
        <time>2019-10-02T08:26:52.000Z</time>
        <extensions>
          <gpxtpx:TrackPointExtension xmlns:gpxtpx="http://www.garmin.com/xmlschemas/TrackPointExtension/v1">
            <gpxtpx:hr>136</gpxtpx:hr>
          </gpxtpx:TrackPointExtension>
        </extensions>
      </trkpt>
      <trkpt lat="50.63493" lon="5.17241">
        <ele>153.39999389648</ele>
        <time>2019-10-02T08:26:54.000Z</time>
        <extensions>
          <gpxtpx:TrackPointExtension xmlns:gpxtpx="http://www.garmin.com/xmlschemas/TrackPointExtension/v1">
            <gpxtpx:hr>136</gpxtpx:hr>
          </gpxtpx:TrackPointExtension>
        </extensions>
      </trkpt>
      <trkpt lat="50.63489" lon="5.17235">
        <ele>153.19999694824</ele>
        <time>2019-10-02T08:28:00.000Z</time>
        <extensions>
          <gpxtpx:TrackPointExtension xmlns:gpxtpx="http://www.garmin.com/xmlschemas/TrackPointExtension/v1">
            <gpxtpx:hr>136</gpxtpx:hr>
          </gpxtpx:TrackPointExtension>
        </extensions>
      </trkpt>
      <trkpt lat="50.63443" lon="5.17175">
        <ele>154</ele>
        <time>2019-10-02T08:28:06.000Z</time>
        <extensions>
          <gpxtpx:TrackPointExtension xmlns:gpxtpx="http://www.garmin.com/xmlschemas/TrackPointExtension/v1">
            <gpxtpx:hr>136</gpxtpx:hr>
          </gpxtpx:TrackPointExtension>
        </extensions>
      </trkpt>
      <trkpt lat="50.63438" lon="5.17168">
        <ele>154.19999694824</ele>
        <time>2019-10-02T08:28:07.000Z</time>
        <extensions>
          <gpxtpx:TrackPointExtension xmlns:gpxtpx="http://www.garmin.com/xmlschemas/TrackPointExtension/v1">
            <gpxtpx:hr>136</gpxtpx:hr>
          </gpxtpx:TrackPointExtension>
        </extensions>
      </trkpt>
      <trkpt lat="50.63433" lon="5.17161">
        <ele>154.19999694824</ele>
        <time>2019-10-02T08:28:10.000Z</time>
        <extensions>
          <gpxtpx:TrackPointExtension xmlns:gpxtpx="http://www.garmin.com/xmlschemas/TrackPointExtension/v1">
            <gpxtpx:hr>136</gpxtpx:hr>
          </gpxtpx:TrackPointExtension>
        </extensions>
      </trkpt>
      <trkpt lat="50.63387" lon="5.17101">
        <ele>154.60000610352</ele>
        <time>2019-10-02T08:28:41.000Z</time>
        <extensions>
          <gpxtpx:TrackPointExtension xmlns:gpxtpx="http://www.garmin.com/xmlschemas/TrackPointExtension/v1">
            <gpxtpx:hr>137</gpxtpx:hr>
          </gpxtpx:TrackPointExtension>
        </extensions>
      </trkpt>
      <trkpt lat="50.63371" lon="5.17082">
        <ele>154.60000610352</ele>
        <time>2019-10-02T08:28:44.000Z</time>
        <extensions>
          <gpxtpx:TrackPointExtension xmlns:gpxtpx="http://www.garmin.com/xmlschemas/TrackPointExtension/v1">
            <gpxtpx:hr>136</gpxtpx:hr>
          </gpxtpx:TrackPointExtension>
        </extensions>
      </trkpt>
      <trkpt lat="50.63328" lon="5.17034">
        <ele>155.39999389648</ele>
        <time>2019-10-02T08:28:47.000Z</time>
        <extensions>
          <gpxtpx:TrackPointExtension xmlns:gpxtpx="http://www.garmin.com/xmlschemas/TrackPointExtension/v1">
            <gpxtpx:hr>135</gpxtpx:hr>
          </gpxtpx:TrackPointExtension>
        </extensions>
      </trkpt>
      <trkpt lat="50.63311" lon="5.17018">
        <ele>155.60000610352</ele>
        <time>2019-10-02T08:28:52.000Z</time>
        <extensions>
          <gpxtpx:TrackPointExtension xmlns:gpxtpx="http://www.garmin.com/xmlschemas/TrackPointExtension/v1">
            <gpxtpx:hr>134</gpxtpx:hr>
          </gpxtpx:TrackPointExtension>
        </extensions>
      </trkpt>
      <trkpt lat="50.6327" lon="5.16991">
        <ele>156</ele>
        <time>2019-10-02T08:28:55.000Z</time>
        <extensions>
          <gpxtpx:TrackPointExtension xmlns:gpxtpx="http://www.garmin.com/xmlschemas/TrackPointExtension/v1">
            <gpxtpx:hr>134</gpxtpx:hr>
          </gpxtpx:TrackPointExtension>
        </extensions>
      </trkpt>
      <trkpt lat="50.6324" lon="5.16979">
        <ele>156.39999389648</ele>
        <time>2019-10-02T08:29:07.000Z</time>
        <extensions>
          <gpxtpx:TrackPointExtension xmlns:gpxtpx="http://www.garmin.com/xmlschemas/TrackPointExtension/v1">
            <gpxtpx:hr>133</gpxtpx:hr>
          </gpxtpx:TrackPointExtension>
        </extensions>
      </trkpt>
      <trkpt lat="50.63216" lon="5.16973">
        <ele>156.80000305176</ele>
        <time>2019-10-02T08:29:08.000Z</time>
        <extensions>
          <gpxtpx:TrackPointExtension xmlns:gpxtpx="http://www.garmin.com/xmlschemas/TrackPointExtension/v1">
            <gpxtpx:hr>134</gpxtpx:hr>
          </gpxtpx:TrackPointExtension>
        </extensions>
      </trkpt>
      <trkpt lat="50.63198" lon="5.16969">
        <ele>157.39999389648</ele>
        <time>2019-10-02T08:29:14.000Z</time>
        <extensions>
          <gpxtpx:TrackPointExtension xmlns:gpxtpx="http://www.garmin.com/xmlschemas/TrackPointExtension/v1">
            <gpxtpx:hr>135</gpxtpx:hr>
          </gpxtpx:TrackPointExtension>
        </extensions>
      </trkpt>
      <trkpt lat="50.6315" lon="5.16957">
        <ele>158.60000610352</ele>
        <time>2019-10-02T08:29:20.000Z</time>
        <extensions>
          <gpxtpx:TrackPointExtension xmlns:gpxtpx="http://www.garmin.com/xmlschemas/TrackPointExtension/v1">
            <gpxtpx:hr>135</gpxtpx:hr>
          </gpxtpx:TrackPointExtension>
        </extensions>
      </trkpt>
      <trkpt lat="50.63144" lon="5.16956">
        <ele>158.80000305176</ele>
        <time>2019-10-02T08:29:26.000Z</time>
        <extensions>
          <gpxtpx:TrackPointExtension xmlns:gpxtpx="http://www.garmin.com/xmlschemas/TrackPointExtension/v1">
            <gpxtpx:hr>135</gpxtpx:hr>
          </gpxtpx:TrackPointExtension>
        </extensions>
      </trkpt>
      <trkpt lat="50.63114" lon="5.16949">
        <ele>159.60000610352</ele>
        <time>2019-10-02T08:30:04.000Z</time>
        <extensions>
          <gpxtpx:TrackPointExtension xmlns:gpxtpx="http://www.garmin.com/xmlschemas/TrackPointExtension/v1">
            <gpxtpx:hr>135</gpxtpx:hr>
          </gpxtpx:TrackPointExtension>
        </extensions>
      </trkpt>
      <trkpt lat="50.6309" lon="5.16943">
        <ele>160</ele>
        <time>2019-10-02T08:30:05.000Z</time>
        <extensions>
          <gpxtpx:TrackPointExtension xmlns:gpxtpx="http://www.garmin.com/xmlschemas/TrackPointExtension/v1">
            <gpxtpx:hr>136</gpxtpx:hr>
          </gpxtpx:TrackPointExtension>
        </extensions>
      </trkpt>
      <trkpt lat="50.6304" lon="5.1693">
        <ele>160.19999694824</ele>
        <time>2019-10-02T08:30:19.000Z</time>
        <extensions>
          <gpxtpx:TrackPointExtension xmlns:gpxtpx="http://www.garmin.com/xmlschemas/TrackPointExtension/v1">
            <gpxtpx:hr>133</gpxtpx:hr>
          </gpxtpx:TrackPointExtension>
        </extensions>
      </trkpt>
      <trkpt lat="50.6301" lon="5.16923">
        <ele>160</ele>
        <time>2019-10-02T08:30:28.000Z</time>
        <extensions>
          <gpxtpx:TrackPointExtension xmlns:gpxtpx="http://www.garmin.com/xmlschemas/TrackPointExtension/v1">
            <gpxtpx:hr>129</gpxtpx:hr>
          </gpxtpx:TrackPointExtension>
        </extensions>
      </trkpt>
      <trkpt lat="50.63" lon="5.1692">
        <ele>160</ele>
        <time>2019-10-02T08:30:31.000Z</time>
        <extensions>
          <gpxtpx:TrackPointExtension xmlns:gpxtpx="http://www.garmin.com/xmlschemas/TrackPointExtension/v1">
            <gpxtpx:hr>127</gpxtpx:hr>
          </gpxtpx:TrackPointExtension>
        </extensions>
      </trkpt>
      <trkpt lat="50.62985" lon="5.16915">
        <ele>160.5</ele>
        <time>2019-10-02T08:30:34.000Z</time>
      </trkpt>
      <trkpt lat="50.62965" lon="5.16953">
        <ele>157</ele>
        <time>2019-10-02T08:30:38.000Z</time>
        <extensions>
          <gpxtpx:TrackPointExtension xmlns:gpxtpx="http://www.garmin.com/xmlschemas/TrackPointExtension/v1">
            <gpxtpx:hr>112</gpxtpx:hr>
          </gpxtpx:TrackPointExtension>
        </extensions>
      </trkpt>
      <trkpt lat="50.6295" lon="5.16986">
        <ele>156.80000305176</ele>
        <time>2019-10-02T08:30:42.000Z</time>
        <extensions>
          <gpxtpx:TrackPointExtension xmlns:gpxtpx="http://www.garmin.com/xmlschemas/TrackPointExtension/v1">
            <gpxtpx:hr>109</gpxtpx:hr>
          </gpxtpx:TrackPointExtension>
        </extensions>
      </trkpt>
      <trkpt lat="50.62938" lon="5.17013">
        <ele>156.39999389648</ele>
        <time>2019-10-02T08:30:43.000Z</time>
        <extensions>
          <gpxtpx:TrackPointExtension xmlns:gpxtpx="http://www.garmin.com/xmlschemas/TrackPointExtension/v1">
            <gpxtpx:hr>108</gpxtpx:hr>
          </gpxtpx:TrackPointExtension>
        </extensions>
      </trkpt>
      <trkpt lat="50.62934" lon="5.17023">
        <ele>156.39999389648</ele>
        <time>2019-10-02T08:30:44.000Z</time>
        <extensions>
          <gpxtpx:TrackPointExtension xmlns:gpxtpx="http://www.garmin.com/xmlschemas/TrackPointExtension/v1">
            <gpxtpx:hr>108</gpxtpx:hr>
          </gpxtpx:TrackPointExtension>
        </extensions>
      </trkpt>
      <trkpt lat="50.62908" lon="5.17084">
        <ele>155.60000610352</ele>
        <time>2019-10-02T08:30:45.000Z</time>
        <extensions>
          <gpxtpx:TrackPointExtension xmlns:gpxtpx="http://www.garmin.com/xmlschemas/TrackPointExtension/v1">
            <gpxtpx:hr>107</gpxtpx:hr>
          </gpxtpx:TrackPointExtension>
        </extensions>
      </trkpt>
      <trkpt lat="50.62892" lon="5.17117">
        <ele>155.19999694824</ele>
        <time>2019-10-02T08:30:47.000Z</time>
        <extensions>
          <gpxtpx:TrackPointExtension xmlns:gpxtpx="http://www.garmin.com/xmlschemas/TrackPointExtension/v1">
            <gpxtpx:hr>105</gpxtpx:hr>
          </gpxtpx:TrackPointExtension>
        </extensions>
      </trkpt>
      <trkpt lat="50.62872" lon="5.17164">
        <ele>154.19999694824</ele>
        <time>2019-10-02T08:30:48.000Z</time>
        <extensions>
          <gpxtpx:TrackPointExtension xmlns:gpxtpx="http://www.garmin.com/xmlschemas/TrackPointExtension/v1">
            <gpxtpx:hr>103</gpxtpx:hr>
          </gpxtpx:TrackPointExtension>
        </extensions>
      </trkpt>
      <trkpt lat="50.6284" lon="5.17235">
        <ele>153.19999694824</ele>
        <time>2019-10-02T08:31:14.000Z</time>
        <extensions>
          <gpxtpx:TrackPointExtension xmlns:gpxtpx="http://www.garmin.com/xmlschemas/TrackPointExtension/v1">
            <gpxtpx:hr>101</gpxtpx:hr>
          </gpxtpx:TrackPointExtension>
        </extensions>
      </trkpt>
      <trkpt lat="50.62835" lon="5.17246">
        <ele>153</ele>
        <time>2019-10-02T08:31:18.000Z</time>
        <extensions>
          <gpxtpx:TrackPointExtension xmlns:gpxtpx="http://www.garmin.com/xmlschemas/TrackPointExtension/v1">
            <gpxtpx:hr>101</gpxtpx:hr>
          </gpxtpx:TrackPointExtension>
        </extensions>
      </trkpt>
      <trkpt lat="50.62826" lon="5.17267">
        <ele>152</ele>
        <time>2019-10-02T08:31:19.000Z</time>
        <extensions>
          <gpxtpx:TrackPointExtension xmlns:gpxtpx="http://www.garmin.com/xmlschemas/TrackPointExtension/v1">
            <gpxtpx:hr>100</gpxtpx:hr>
          </gpxtpx:TrackPointExtension>
        </extensions>
      </trkpt>
      <trkpt lat="50.62822" lon="5.17274">
        <ele>151.80000305176</ele>
        <time>2019-10-02T08:31:21.000Z</time>
        <extensions>
          <gpxtpx:TrackPointExtension xmlns:gpxtpx="http://www.garmin.com/xmlschemas/TrackPointExtension/v1">
            <gpxtpx:hr>99</gpxtpx:hr>
          </gpxtpx:TrackPointExtension>
        </extensions>
      </trkpt>
      <trkpt lat="50.62816" lon="5.17294">
        <ele>148</ele>
        <time>2019-10-02T08:31:25.000Z</time>
      </trkpt>
      <trkpt lat="50.62812" lon="5.17275">
        <ele>151.19999694824</ele>
        <time>2019-10-02T08:31:27.000Z</time>
        <extensions>
          <gpxtpx:TrackPointExtension xmlns:gpxtpx="http://www.garmin.com/xmlschemas/TrackPointExtension/v1">
            <gpxtpx:hr>99</gpxtpx:hr>
          </gpxtpx:TrackPointExtension>
        </extensions>
      </trkpt>
      <trkpt lat="50.62804" lon="5.17253">
        <ele>150.60000610352</ele>
        <time>2019-10-02T08:31:33.000Z</time>
        <extensions>
          <gpxtpx:TrackPointExtension xmlns:gpxtpx="http://www.garmin.com/xmlschemas/TrackPointExtension/v1">
            <gpxtpx:hr>100</gpxtpx:hr>
          </gpxtpx:TrackPointExtension>
        </extensions>
      </trkpt>
      <trkpt lat="50.62797" lon="5.17224">
        <ele>148.80000305176</ele>
        <time>2019-10-02T08:31:34.000Z</time>
        <extensions>
          <gpxtpx:TrackPointExtension xmlns:gpxtpx="http://www.garmin.com/xmlschemas/TrackPointExtension/v1">
            <gpxtpx:hr>103</gpxtpx:hr>
          </gpxtpx:TrackPointExtension>
        </extensions>
      </trkpt>
      <trkpt lat="50.62789" lon="5.17194">
        <ele>147.39999389648</ele>
        <time>2019-10-02T08:31:46.000Z</time>
        <extensions>
          <gpxtpx:TrackPointExtension xmlns:gpxtpx="http://www.garmin.com/xmlschemas/TrackPointExtension/v1">
            <gpxtpx:hr>101</gpxtpx:hr>
          </gpxtpx:TrackPointExtension>
        </extensions>
      </trkpt>
      <trkpt lat="50.62786" lon="5.17184">
        <ele>147</ele>
        <time>2019-10-02T08:32:27.000Z</time>
        <extensions>
          <gpxtpx:TrackPointExtension xmlns:gpxtpx="http://www.garmin.com/xmlschemas/TrackPointExtension/v1">
            <gpxtpx:hr>101</gpxtpx:hr>
          </gpxtpx:TrackPointExtension>
        </extensions>
      </trkpt>
      <trkpt lat="50.62764" lon="5.17102">
        <ele>146.19999694824</ele>
        <time>2019-10-02T08:32:28.000Z</time>
        <extensions>
          <gpxtpx:TrackPointExtension xmlns:gpxtpx="http://www.garmin.com/xmlschemas/TrackPointExtension/v1">
            <gpxtpx:hr>102</gpxtpx:hr>
          </gpxtpx:TrackPointExtension>
        </extensions>
      </trkpt>
      <trkpt lat="50.62742" lon="5.17029">
        <ele>145.80000305176</ele>
        <time>2019-10-02T08:32:37.000Z</time>
        <extensions>
          <gpxtpx:TrackPointExtension xmlns:gpxtpx="http://www.garmin.com/xmlschemas/TrackPointExtension/v1">
            <gpxtpx:hr>105</gpxtpx:hr>
          </gpxtpx:TrackPointExtension>
        </extensions>
      </trkpt>
      <trkpt lat="50.62739" lon="5.1702">
        <ele>145.39999389648</ele>
        <time>2019-10-02T08:32:38.000Z</time>
        <extensions>
          <gpxtpx:TrackPointExtension xmlns:gpxtpx="http://www.garmin.com/xmlschemas/TrackPointExtension/v1">
            <gpxtpx:hr>105</gpxtpx:hr>
          </gpxtpx:TrackPointExtension>
        </extensions>
      </trkpt>
      <trkpt lat="50.6273" lon="5.16991">
        <ele>145.19999694824</ele>
        <time>2019-10-02T08:32:47.000Z</time>
        <extensions>
          <gpxtpx:TrackPointExtension xmlns:gpxtpx="http://www.garmin.com/xmlschemas/TrackPointExtension/v1">
            <gpxtpx:hr>107</gpxtpx:hr>
          </gpxtpx:TrackPointExtension>
        </extensions>
      </trkpt>
      <trkpt lat="50.6271" lon="5.16935">
        <ele>145.19999694824</ele>
        <time>2019-10-02T08:32:49.000Z</time>
        <extensions>
          <gpxtpx:TrackPointExtension xmlns:gpxtpx="http://www.garmin.com/xmlschemas/TrackPointExtension/v1">
            <gpxtpx:hr>110</gpxtpx:hr>
          </gpxtpx:TrackPointExtension>
        </extensions>
      </trkpt>
      <trkpt lat="50.62685" lon="5.16859">
        <ele>145.19999694824</ele>
        <time>2019-10-02T08:32:50.000Z</time>
        <extensions>
          <gpxtpx:TrackPointExtension xmlns:gpxtpx="http://www.garmin.com/xmlschemas/TrackPointExtension/v1">
            <gpxtpx:hr>113</gpxtpx:hr>
          </gpxtpx:TrackPointExtension>
        </extensions>
      </trkpt>
      <trkpt lat="50.62658" lon="5.16782">
        <ele>144.80000305176</ele>
        <time>2019-10-02T08:32:55.000Z</time>
        <extensions>
          <gpxtpx:TrackPointExtension xmlns:gpxtpx="http://www.garmin.com/xmlschemas/TrackPointExtension/v1">
            <gpxtpx:hr>113</gpxtpx:hr>
          </gpxtpx:TrackPointExtension>
        </extensions>
      </trkpt>
      <trkpt lat="50.62654" lon="5.16772">
        <ele>144.60000610352</ele>
        <time>2019-10-02T08:32:59.000Z</time>
        <extensions>
          <gpxtpx:TrackPointExtension xmlns:gpxtpx="http://www.garmin.com/xmlschemas/TrackPointExtension/v1">
            <gpxtpx:hr>113</gpxtpx:hr>
          </gpxtpx:TrackPointExtension>
        </extensions>
      </trkpt>
      <trkpt lat="50.62642" lon="5.16741">
        <ele>144.60000610352</ele>
        <time>2019-10-02T08:33:03.000Z</time>
        <extensions>
          <gpxtpx:TrackPointExtension xmlns:gpxtpx="http://www.garmin.com/xmlschemas/TrackPointExtension/v1">
            <gpxtpx:hr>110</gpxtpx:hr>
          </gpxtpx:TrackPointExtension>
        </extensions>
      </trkpt>
      <trkpt lat="50.62633" lon="5.1672">
        <ele>144.39999389648</ele>
        <time>2019-10-02T08:33:10.000Z</time>
        <extensions>
          <gpxtpx:TrackPointExtension xmlns:gpxtpx="http://www.garmin.com/xmlschemas/TrackPointExtension/v1">
            <gpxtpx:hr>109</gpxtpx:hr>
          </gpxtpx:TrackPointExtension>
        </extensions>
      </trkpt>
      <trkpt lat="50.62623" lon="5.16697">
        <ele>143.80000305176</ele>
        <time>2019-10-02T08:33:12.000Z</time>
        <extensions>
          <gpxtpx:TrackPointExtension xmlns:gpxtpx="http://www.garmin.com/xmlschemas/TrackPointExtension/v1">
            <gpxtpx:hr>107</gpxtpx:hr>
          </gpxtpx:TrackPointExtension>
        </extensions>
      </trkpt>
      <trkpt lat="50.62607" lon="5.16664">
        <ele>142.39999389648</ele>
        <time>2019-10-02T08:33:16.000Z</time>
        <extensions>
          <gpxtpx:TrackPointExtension xmlns:gpxtpx="http://www.garmin.com/xmlschemas/TrackPointExtension/v1">
            <gpxtpx:hr>106</gpxtpx:hr>
          </gpxtpx:TrackPointExtension>
        </extensions>
      </trkpt>
      <trkpt lat="50.6259" lon="5.16631">
        <ele>141.19999694824</ele>
        <time>2019-10-02T08:33:19.000Z</time>
        <extensions>
          <gpxtpx:TrackPointExtension xmlns:gpxtpx="http://www.garmin.com/xmlschemas/TrackPointExtension/v1">
            <gpxtpx:hr>106</gpxtpx:hr>
          </gpxtpx:TrackPointExtension>
        </extensions>
      </trkpt>
      <trkpt lat="50.62579" lon="5.1661">
        <ele>140</ele>
        <time>2019-10-02T08:33:22.000Z</time>
        <extensions>
          <gpxtpx:TrackPointExtension xmlns:gpxtpx="http://www.garmin.com/xmlschemas/TrackPointExtension/v1">
            <gpxtpx:hr>107</gpxtpx:hr>
          </gpxtpx:TrackPointExtension>
        </extensions>
      </trkpt>
      <trkpt lat="50.62563" lon="5.16579">
        <ele>138.80000305176</ele>
        <time>2019-10-02T08:34:54.000Z</time>
        <extensions>
          <gpxtpx:TrackPointExtension xmlns:gpxtpx="http://www.garmin.com/xmlschemas/TrackPointExtension/v1">
            <gpxtpx:hr>107</gpxtpx:hr>
          </gpxtpx:TrackPointExtension>
        </extensions>
      </trkpt>
      <trkpt lat="50.62554" lon="5.16561">
        <ele>138</ele>
        <time>2019-10-02T08:34:59.000Z</time>
        <extensions>
          <gpxtpx:TrackPointExtension xmlns:gpxtpx="http://www.garmin.com/xmlschemas/TrackPointExtension/v1">
            <gpxtpx:hr>107</gpxtpx:hr>
          </gpxtpx:TrackPointExtension>
        </extensions>
      </trkpt>
      <trkpt lat="50.6255" lon="5.16553">
        <ele>137.19999694824</ele>
        <time>2019-10-02T08:35:06.000Z</time>
        <extensions>
          <gpxtpx:TrackPointExtension xmlns:gpxtpx="http://www.garmin.com/xmlschemas/TrackPointExtension/v1">
            <gpxtpx:hr>106</gpxtpx:hr>
          </gpxtpx:TrackPointExtension>
        </extensions>
      </trkpt>
      <trkpt lat="50.62542" lon="5.16537">
        <ele>135.80000305176</ele>
        <time>2019-10-02T08:35:14.000Z</time>
        <extensions>
          <gpxtpx:TrackPointExtension xmlns:gpxtpx="http://www.garmin.com/xmlschemas/TrackPointExtension/v1">
            <gpxtpx:hr>105</gpxtpx:hr>
          </gpxtpx:TrackPointExtension>
        </extensions>
      </trkpt>
      <trkpt lat="50.62532" lon="5.16518">
        <ele>134.19999694824</ele>
        <time>2019-10-02T08:35:18.000Z</time>
        <extensions>
          <gpxtpx:TrackPointExtension xmlns:gpxtpx="http://www.garmin.com/xmlschemas/TrackPointExtension/v1">
            <gpxtpx:hr>104</gpxtpx:hr>
          </gpxtpx:TrackPointExtension>
        </extensions>
      </trkpt>
      <trkpt lat="50.62527" lon="5.16509">
        <ele>133.60000610352</ele>
        <time>2019-10-02T08:35:21.000Z</time>
        <extensions>
          <gpxtpx:TrackPointExtension xmlns:gpxtpx="http://www.garmin.com/xmlschemas/TrackPointExtension/v1">
            <gpxtpx:hr>103</gpxtpx:hr>
          </gpxtpx:TrackPointExtension>
        </extensions>
      </trkpt>
      <trkpt lat="50.62522" lon="5.16499">
        <ele>133</ele>
        <time>2019-10-02T08:35:23.000Z</time>
        <extensions>
          <gpxtpx:TrackPointExtension xmlns:gpxtpx="http://www.garmin.com/xmlschemas/TrackPointExtension/v1">
            <gpxtpx:hr>102</gpxtpx:hr>
          </gpxtpx:TrackPointExtension>
        </extensions>
      </trkpt>
      <trkpt lat="50.62512" lon="5.16479">
        <ele>131.60000610352</ele>
        <time>2019-10-02T08:35:29.000Z</time>
        <extensions>
          <gpxtpx:TrackPointExtension xmlns:gpxtpx="http://www.garmin.com/xmlschemas/TrackPointExtension/v1">
            <gpxtpx:hr>98</gpxtpx:hr>
          </gpxtpx:TrackPointExtension>
        </extensions>
      </trkpt>
      <trkpt lat="50.62501" lon="5.16457">
        <ele>131</ele>
        <time>2019-10-02T08:35:31.000Z</time>
        <extensions>
          <gpxtpx:TrackPointExtension xmlns:gpxtpx="http://www.garmin.com/xmlschemas/TrackPointExtension/v1">
            <gpxtpx:hr>95</gpxtpx:hr>
          </gpxtpx:TrackPointExtension>
        </extensions>
      </trkpt>
      <trkpt lat="50.62496" lon="5.16446">
        <ele>130.60000610352</ele>
        <time>2019-10-02T08:35:33.000Z</time>
        <extensions>
          <gpxtpx:TrackPointExtension xmlns:gpxtpx="http://www.garmin.com/xmlschemas/TrackPointExtension/v1">
            <gpxtpx:hr>94</gpxtpx:hr>
          </gpxtpx:TrackPointExtension>
        </extensions>
      </trkpt>
      <trkpt lat="50.62485" lon="5.16425">
        <ele>130</ele>
        <time>2019-10-02T08:35:35.000Z</time>
        <extensions>
          <gpxtpx:TrackPointExtension xmlns:gpxtpx="http://www.garmin.com/xmlschemas/TrackPointExtension/v1">
            <gpxtpx:hr>91</gpxtpx:hr>
          </gpxtpx:TrackPointExtension>
        </extensions>
      </trkpt>
      <trkpt lat="50.62479" lon="5.16413">
        <ele>129.60000610352</ele>
        <time>2019-10-02T08:35:37.000Z</time>
        <extensions>
          <gpxtpx:TrackPointExtension xmlns:gpxtpx="http://www.garmin.com/xmlschemas/TrackPointExtension/v1">
            <gpxtpx:hr>90</gpxtpx:hr>
          </gpxtpx:TrackPointExtension>
        </extensions>
      </trkpt>
      <trkpt lat="50.6247" lon="5.16389">
        <ele>128.39999389648</ele>
        <time>2019-10-02T08:35:44.000Z</time>
        <extensions>
          <gpxtpx:TrackPointExtension xmlns:gpxtpx="http://www.garmin.com/xmlschemas/TrackPointExtension/v1">
            <gpxtpx:hr>87</gpxtpx:hr>
          </gpxtpx:TrackPointExtension>
        </extensions>
      </trkpt>
      <trkpt lat="50.62462" lon="5.16363">
        <ele>127.40000152588</ele>
        <time>2019-10-02T08:35:47.000Z</time>
        <extensions>
          <gpxtpx:TrackPointExtension xmlns:gpxtpx="http://www.garmin.com/xmlschemas/TrackPointExtension/v1">
            <gpxtpx:hr>86</gpxtpx:hr>
          </gpxtpx:TrackPointExtension>
        </extensions>
      </trkpt>
      <trkpt lat="50.62458" lon="5.16351">
        <ele>126.80000305176</ele>
        <time>2019-10-02T08:36:11.000Z</time>
        <extensions>
          <gpxtpx:TrackPointExtension xmlns:gpxtpx="http://www.garmin.com/xmlschemas/TrackPointExtension/v1">
            <gpxtpx:hr>86</gpxtpx:hr>
          </gpxtpx:TrackPointExtension>
        </extensions>
      </trkpt>
      <trkpt lat="50.62453" lon="5.1634">
        <ele>126</ele>
        <time>2019-10-02T08:36:15.000Z</time>
        <extensions>
          <gpxtpx:TrackPointExtension xmlns:gpxtpx="http://www.garmin.com/xmlschemas/TrackPointExtension/v1">
            <gpxtpx:hr>86</gpxtpx:hr>
          </gpxtpx:TrackPointExtension>
        </extensions>
      </trkpt>
      <trkpt lat="50.6245" lon="5.16329">
        <ele>125.40000152588</ele>
        <time>2019-10-02T08:36:16.000Z</time>
        <extensions>
          <gpxtpx:TrackPointExtension xmlns:gpxtpx="http://www.garmin.com/xmlschemas/TrackPointExtension/v1">
            <gpxtpx:hr>86</gpxtpx:hr>
          </gpxtpx:TrackPointExtension>
        </extensions>
      </trkpt>
      <trkpt lat="50.62449" lon="5.16318">
        <ele>126.3</ele>
        <time>2019-10-02T08:37:14.000Z</time>
      </trkpt>
      <trkpt lat="50.62451" lon="5.16302">
        <ele>126.4</ele>
        <time>2019-10-02T08:37:15.000Z</time>
      </trkpt>
      <trkpt lat="50.62447" lon="5.16271">
        <ele>123</ele>
        <time>2019-10-02T08:37:20.000Z</time>
        <extensions>
          <gpxtpx:TrackPointExtension xmlns:gpxtpx="http://www.garmin.com/xmlschemas/TrackPointExtension/v1">
            <gpxtpx:hr>90</gpxtpx:hr>
          </gpxtpx:TrackPointExtension>
        </extensions>
      </trkpt>
      <trkpt lat="50.62446" lon="5.16259">
        <ele>122.59999847412</ele>
        <time>2019-10-02T08:37:23.000Z</time>
        <extensions>
          <gpxtpx:TrackPointExtension xmlns:gpxtpx="http://www.garmin.com/xmlschemas/TrackPointExtension/v1">
            <gpxtpx:hr>91</gpxtpx:hr>
          </gpxtpx:TrackPointExtension>
        </extensions>
      </trkpt>
      <trkpt lat="50.6244" lon="5.16224">
        <ele>121.19999694824</ele>
        <time>2019-10-02T08:38:15.000Z</time>
        <extensions>
          <gpxtpx:TrackPointExtension xmlns:gpxtpx="http://www.garmin.com/xmlschemas/TrackPointExtension/v1">
            <gpxtpx:hr>92</gpxtpx:hr>
          </gpxtpx:TrackPointExtension>
        </extensions>
      </trkpt>
      <trkpt lat="50.62434" lon="5.1619">
        <ele>120.59999847412</ele>
        <time>2019-10-02T08:38:21.000Z</time>
        <extensions>
          <gpxtpx:TrackPointExtension xmlns:gpxtpx="http://www.garmin.com/xmlschemas/TrackPointExtension/v1">
            <gpxtpx:hr>93</gpxtpx:hr>
          </gpxtpx:TrackPointExtension>
        </extensions>
      </trkpt>
      <trkpt lat="50.62429" lon="5.16167">
        <ele>120.19999694824</ele>
        <time>2019-10-02T08:38:23.000Z</time>
        <extensions>
          <gpxtpx:TrackPointExtension xmlns:gpxtpx="http://www.garmin.com/xmlschemas/TrackPointExtension/v1">
            <gpxtpx:hr>93</gpxtpx:hr>
          </gpxtpx:TrackPointExtension>
        </extensions>
      </trkpt>
      <trkpt lat="50.62415" lon="5.16125">
        <ele>119.40000152588</ele>
        <time>2019-10-02T08:38:25.000Z</time>
        <extensions>
          <gpxtpx:TrackPointExtension xmlns:gpxtpx="http://www.garmin.com/xmlschemas/TrackPointExtension/v1">
            <gpxtpx:hr>92</gpxtpx:hr>
          </gpxtpx:TrackPointExtension>
        </extensions>
      </trkpt>
      <trkpt lat="50.624" lon="5.16085">
        <ele>119.19999694824</ele>
        <time>2019-10-02T08:38:27.000Z</time>
        <extensions>
          <gpxtpx:TrackPointExtension xmlns:gpxtpx="http://www.garmin.com/xmlschemas/TrackPointExtension/v1">
            <gpxtpx:hr>94</gpxtpx:hr>
          </gpxtpx:TrackPointExtension>
        </extensions>
      </trkpt>
      <trkpt lat="50.62388" lon="5.16055">
        <ele>118.40000152588</ele>
        <time>2019-10-02T08:38:30.000Z</time>
        <extensions>
          <gpxtpx:TrackPointExtension xmlns:gpxtpx="http://www.garmin.com/xmlschemas/TrackPointExtension/v1">
            <gpxtpx:hr>96</gpxtpx:hr>
          </gpxtpx:TrackPointExtension>
        </extensions>
      </trkpt>
      <trkpt lat="50.62376" lon="5.16025">
        <ele>118</ele>
        <time>2019-10-02T08:38:33.000Z</time>
        <extensions>
          <gpxtpx:TrackPointExtension xmlns:gpxtpx="http://www.garmin.com/xmlschemas/TrackPointExtension/v1">
            <gpxtpx:hr>99</gpxtpx:hr>
          </gpxtpx:TrackPointExtension>
        </extensions>
      </trkpt>
      <trkpt lat="50.62363" lon="5.15985">
        <ele>117.40000152588</ele>
        <time>2019-10-02T08:38:41.000Z</time>
        <extensions>
          <gpxtpx:TrackPointExtension xmlns:gpxtpx="http://www.garmin.com/xmlschemas/TrackPointExtension/v1">
            <gpxtpx:hr>100</gpxtpx:hr>
          </gpxtpx:TrackPointExtension>
        </extensions>
      </trkpt>
      <trkpt lat="50.62351" lon="5.15947">
        <ele>117.40000152588</ele>
        <time>2019-10-02T08:40:05.000Z</time>
        <extensions>
          <gpxtpx:TrackPointExtension xmlns:gpxtpx="http://www.garmin.com/xmlschemas/TrackPointExtension/v1">
            <gpxtpx:hr>97</gpxtpx:hr>
          </gpxtpx:TrackPointExtension>
        </extensions>
      </trkpt>
      <trkpt lat="50.62334" lon="5.15892">
        <ele>117.19999694824</ele>
        <time>2019-10-02T08:40:13.000Z</time>
        <extensions>
          <gpxtpx:TrackPointExtension xmlns:gpxtpx="http://www.garmin.com/xmlschemas/TrackPointExtension/v1">
            <gpxtpx:hr>100</gpxtpx:hr>
          </gpxtpx:TrackPointExtension>
        </extensions>
      </trkpt>
      <trkpt lat="50.62326" lon="5.15856">
        <ele>117.59999847412</ele>
        <time>2019-10-02T08:40:52.000Z</time>
        <extensions>
          <gpxtpx:TrackPointExtension xmlns:gpxtpx="http://www.garmin.com/xmlschemas/TrackPointExtension/v1">
            <gpxtpx:hr>103</gpxtpx:hr>
          </gpxtpx:TrackPointExtension>
        </extensions>
      </trkpt>
      <trkpt lat="50.62323" lon="5.15838">
        <ele>117.80000305176</ele>
        <time>2019-10-02T08:40:59.000Z</time>
        <extensions>
          <gpxtpx:TrackPointExtension xmlns:gpxtpx="http://www.garmin.com/xmlschemas/TrackPointExtension/v1">
            <gpxtpx:hr>106</gpxtpx:hr>
          </gpxtpx:TrackPointExtension>
        </extensions>
      </trkpt>
      <trkpt lat="50.62322" lon="5.15829">
        <ele>117.80000305176</ele>
        <time>2019-10-02T08:41:01.000Z</time>
        <extensions>
          <gpxtpx:TrackPointExtension xmlns:gpxtpx="http://www.garmin.com/xmlschemas/TrackPointExtension/v1">
            <gpxtpx:hr>107</gpxtpx:hr>
          </gpxtpx:TrackPointExtension>
        </extensions>
      </trkpt>
      <trkpt lat="50.62321" lon="5.1581">
        <ele>118.19999694824</ele>
        <time>2019-10-02T08:41:04.000Z</time>
        <extensions>
          <gpxtpx:TrackPointExtension xmlns:gpxtpx="http://www.garmin.com/xmlschemas/TrackPointExtension/v1">
            <gpxtpx:hr>110</gpxtpx:hr>
          </gpxtpx:TrackPointExtension>
        </extensions>
      </trkpt>
      <trkpt lat="50.6232" lon="5.15784">
        <ele>118.80000305176</ele>
        <time>2019-10-02T08:41:08.000Z</time>
        <extensions>
          <gpxtpx:TrackPointExtension xmlns:gpxtpx="http://www.garmin.com/xmlschemas/TrackPointExtension/v1">
            <gpxtpx:hr>114</gpxtpx:hr>
          </gpxtpx:TrackPointExtension>
        </extensions>
      </trkpt>
      <trkpt lat="50.6232" lon="5.15775">
        <ele>118.80000305176</ele>
        <time>2019-10-02T08:41:09.000Z</time>
        <extensions>
          <gpxtpx:TrackPointExtension xmlns:gpxtpx="http://www.garmin.com/xmlschemas/TrackPointExtension/v1">
            <gpxtpx:hr>115</gpxtpx:hr>
          </gpxtpx:TrackPointExtension>
        </extensions>
      </trkpt>
      <trkpt lat="50.6232" lon="5.15765">
        <ele>119</ele>
        <time>2019-10-02T08:41:12.000Z</time>
        <extensions>
          <gpxtpx:TrackPointExtension xmlns:gpxtpx="http://www.garmin.com/xmlschemas/TrackPointExtension/v1">
            <gpxtpx:hr>116</gpxtpx:hr>
          </gpxtpx:TrackPointExtension>
        </extensions>
      </trkpt>
      <trkpt lat="50.6232" lon="5.15746">
        <ele>119.19999694824</ele>
        <time>2019-10-02T08:41:15.000Z</time>
        <extensions>
          <gpxtpx:TrackPointExtension xmlns:gpxtpx="http://www.garmin.com/xmlschemas/TrackPointExtension/v1">
            <gpxtpx:hr>119</gpxtpx:hr>
          </gpxtpx:TrackPointExtension>
        </extensions>
      </trkpt>
      <trkpt lat="50.6232" lon="5.15718">
        <ele>119.40000152588</ele>
        <time>2019-10-02T08:41:19.000Z</time>
        <extensions>
          <gpxtpx:TrackPointExtension xmlns:gpxtpx="http://www.garmin.com/xmlschemas/TrackPointExtension/v1">
            <gpxtpx:hr>122</gpxtpx:hr>
          </gpxtpx:TrackPointExtension>
        </extensions>
      </trkpt>
      <trkpt lat="50.6232" lon="5.15699">
        <ele>119.40000152588</ele>
        <time>2019-10-02T08:41:23.000Z</time>
        <extensions>
          <gpxtpx:TrackPointExtension xmlns:gpxtpx="http://www.garmin.com/xmlschemas/TrackPointExtension/v1">
            <gpxtpx:hr>124</gpxtpx:hr>
          </gpxtpx:TrackPointExtension>
        </extensions>
      </trkpt>
      <trkpt lat="50.62321" lon="5.15679">
        <ele>119.40000152588</ele>
        <time>2019-10-02T08:41:31.000Z</time>
        <extensions>
          <gpxtpx:TrackPointExtension xmlns:gpxtpx="http://www.garmin.com/xmlschemas/TrackPointExtension/v1">
            <gpxtpx:hr>125</gpxtpx:hr>
          </gpxtpx:TrackPointExtension>
        </extensions>
      </trkpt>
      <trkpt lat="50.62326" lon="5.15638">
        <ele>119.40000152588</ele>
        <time>2019-10-02T08:41:35.000Z</time>
        <extensions>
          <gpxtpx:TrackPointExtension xmlns:gpxtpx="http://www.garmin.com/xmlschemas/TrackPointExtension/v1">
            <gpxtpx:hr>125</gpxtpx:hr>
          </gpxtpx:TrackPointExtension>
        </extensions>
      </trkpt>
      <trkpt lat="50.62336" lon="5.15573">
        <ele>119</ele>
        <time>2019-10-02T08:41:38.000Z</time>
        <extensions>
          <gpxtpx:TrackPointExtension xmlns:gpxtpx="http://www.garmin.com/xmlschemas/TrackPointExtension/v1">
            <gpxtpx:hr>125</gpxtpx:hr>
          </gpxtpx:TrackPointExtension>
        </extensions>
      </trkpt>
      <trkpt lat="50.62339" lon="5.15563">
        <ele>119</ele>
        <time>2019-10-02T08:41:40.000Z</time>
        <extensions>
          <gpxtpx:TrackPointExtension xmlns:gpxtpx="http://www.garmin.com/xmlschemas/TrackPointExtension/v1">
            <gpxtpx:hr>124</gpxtpx:hr>
          </gpxtpx:TrackPointExtension>
        </extensions>
      </trkpt>
      <trkpt lat="50.62354" lon="5.15518">
        <ele>117.80000305176</ele>
        <time>2019-10-02T08:41:43.000Z</time>
        <extensions>
          <gpxtpx:TrackPointExtension xmlns:gpxtpx="http://www.garmin.com/xmlschemas/TrackPointExtension/v1">
            <gpxtpx:hr>123</gpxtpx:hr>
          </gpxtpx:TrackPointExtension>
        </extensions>
      </trkpt>
      <trkpt lat="50.62356" lon="5.15509">
        <ele>117.80000305176</ele>
        <time>2019-10-02T08:41:46.000Z</time>
        <extensions>
          <gpxtpx:TrackPointExtension xmlns:gpxtpx="http://www.garmin.com/xmlschemas/TrackPointExtension/v1">
            <gpxtpx:hr>123</gpxtpx:hr>
          </gpxtpx:TrackPointExtension>
        </extensions>
      </trkpt>
      <trkpt lat="50.6236" lon="5.15473">
        <ele>117.80000305176</ele>
        <time>2019-10-02T08:41:48.000Z</time>
        <extensions>
          <gpxtpx:TrackPointExtension xmlns:gpxtpx="http://www.garmin.com/xmlschemas/TrackPointExtension/v1">
            <gpxtpx:hr>123</gpxtpx:hr>
          </gpxtpx:TrackPointExtension>
        </extensions>
      </trkpt>
      <trkpt lat="50.62365" lon="5.15407">
        <ele>118</ele>
        <time>2019-10-02T08:41:51.000Z</time>
        <extensions>
          <gpxtpx:TrackPointExtension xmlns:gpxtpx="http://www.garmin.com/xmlschemas/TrackPointExtension/v1">
            <gpxtpx:hr>123</gpxtpx:hr>
          </gpxtpx:TrackPointExtension>
        </extensions>
      </trkpt>
      <trkpt lat="50.62367" lon="5.15361">
        <ele>119</ele>
        <time>2019-10-02T08:41:52.000Z</time>
        <extensions>
          <gpxtpx:TrackPointExtension xmlns:gpxtpx="http://www.garmin.com/xmlschemas/TrackPointExtension/v1">
            <gpxtpx:hr>124</gpxtpx:hr>
          </gpxtpx:TrackPointExtension>
        </extensions>
      </trkpt>
      <trkpt lat="50.62368" lon="5.15353">
        <ele>119.59999847412</ele>
        <time>2019-10-02T08:41:55.000Z</time>
        <extensions>
          <gpxtpx:TrackPointExtension xmlns:gpxtpx="http://www.garmin.com/xmlschemas/TrackPointExtension/v1">
            <gpxtpx:hr>124</gpxtpx:hr>
          </gpxtpx:TrackPointExtension>
        </extensions>
      </trkpt>
      <trkpt lat="50.62369" lon="5.15338">
        <ele>120</ele>
        <time>2019-10-02T08:41:57.000Z</time>
        <extensions>
          <gpxtpx:TrackPointExtension xmlns:gpxtpx="http://www.garmin.com/xmlschemas/TrackPointExtension/v1">
            <gpxtpx:hr>126</gpxtpx:hr>
          </gpxtpx:TrackPointExtension>
        </extensions>
      </trkpt>
      <trkpt lat="50.62371" lon="5.15304">
        <ele>130.3</ele>
        <time>2019-10-02T08:41:58.000Z</time>
      </trkpt>
      <trkpt lat="50.62376" lon="5.15285">
        <ele>121.19999694824</ele>
        <time>2019-10-02T08:41:59.000Z</time>
        <extensions>
          <gpxtpx:TrackPointExtension xmlns:gpxtpx="http://www.garmin.com/xmlschemas/TrackPointExtension/v1">
            <gpxtpx:hr>129</gpxtpx:hr>
          </gpxtpx:TrackPointExtension>
        </extensions>
      </trkpt>
      <trkpt lat="50.62377" lon="5.15278">
        <ele>121.19999694824</ele>
        <time>2019-10-02T08:42:25.000Z</time>
        <extensions>
          <gpxtpx:TrackPointExtension xmlns:gpxtpx="http://www.garmin.com/xmlschemas/TrackPointExtension/v1">
            <gpxtpx:hr>130</gpxtpx:hr>
          </gpxtpx:TrackPointExtension>
        </extensions>
      </trkpt>
      <trkpt lat="50.62384" lon="5.15252">
        <ele>122</ele>
        <time>2019-10-02T08:42:28.000Z</time>
        <extensions>
          <gpxtpx:TrackPointExtension xmlns:gpxtpx="http://www.garmin.com/xmlschemas/TrackPointExtension/v1">
            <gpxtpx:hr>132</gpxtpx:hr>
          </gpxtpx:TrackPointExtension>
        </extensions>
      </trkpt>
      <trkpt lat="50.62393" lon="5.15226">
        <ele>122.80000305176</ele>
        <time>2019-10-02T08:42:33.000Z</time>
        <extensions>
          <gpxtpx:TrackPointExtension xmlns:gpxtpx="http://www.garmin.com/xmlschemas/TrackPointExtension/v1">
            <gpxtpx:hr>134</gpxtpx:hr>
          </gpxtpx:TrackPointExtension>
        </extensions>
      </trkpt>
      <trkpt lat="50.62395" lon="5.1522">
        <ele>123.19999694824</ele>
        <time>2019-10-02T08:42:35.000Z</time>
        <extensions>
          <gpxtpx:TrackPointExtension xmlns:gpxtpx="http://www.garmin.com/xmlschemas/TrackPointExtension/v1">
            <gpxtpx:hr>134</gpxtpx:hr>
          </gpxtpx:TrackPointExtension>
        </extensions>
      </trkpt>
      <trkpt lat="50.62413" lon="5.15182">
        <ele>124.19999694824</ele>
        <time>2019-10-02T08:42:42.000Z</time>
        <extensions>
          <gpxtpx:TrackPointExtension xmlns:gpxtpx="http://www.garmin.com/xmlschemas/TrackPointExtension/v1">
            <gpxtpx:hr>136</gpxtpx:hr>
          </gpxtpx:TrackPointExtension>
        </extensions>
      </trkpt>
      <trkpt lat="50.62417" lon="5.15175">
        <ele>124.40000152588</ele>
        <time>2019-10-02T08:42:48.000Z</time>
        <extensions>
          <gpxtpx:TrackPointExtension xmlns:gpxtpx="http://www.garmin.com/xmlschemas/TrackPointExtension/v1">
            <gpxtpx:hr>137</gpxtpx:hr>
          </gpxtpx:TrackPointExtension>
        </extensions>
      </trkpt>
      <trkpt lat="50.62436" lon="5.15138">
        <ele>133.2</ele>
        <time>2019-10-02T08:42:51.000Z</time>
      </trkpt>
      <trkpt lat="50.62449" lon="5.15117">
        <ele>125.59999847412</ele>
        <time>2019-10-02T08:43:33.000Z</time>
        <extensions>
          <gpxtpx:TrackPointExtension xmlns:gpxtpx="http://www.garmin.com/xmlschemas/TrackPointExtension/v1">
            <gpxtpx:hr>139</gpxtpx:hr>
          </gpxtpx:TrackPointExtension>
        </extensions>
      </trkpt>
      <trkpt lat="50.62473" lon="5.15078">
        <ele>126.19999694824</ele>
        <time>2019-10-02T08:43:36.000Z</time>
        <extensions>
          <gpxtpx:TrackPointExtension xmlns:gpxtpx="http://www.garmin.com/xmlschemas/TrackPointExtension/v1">
            <gpxtpx:hr>139</gpxtpx:hr>
          </gpxtpx:TrackPointExtension>
        </extensions>
      </trkpt>
      <trkpt lat="50.6248" lon="5.15066">
        <ele>126.59999847412</ele>
        <time>2019-10-02T08:43:40.000Z</time>
        <extensions>
          <gpxtpx:TrackPointExtension xmlns:gpxtpx="http://www.garmin.com/xmlschemas/TrackPointExtension/v1">
            <gpxtpx:hr>139</gpxtpx:hr>
          </gpxtpx:TrackPointExtension>
        </extensions>
      </trkpt>
      <trkpt lat="50.62509" lon="5.15024">
        <ele>127.19999694824</ele>
        <time>2019-10-02T08:43:41.000Z</time>
        <extensions>
          <gpxtpx:TrackPointExtension xmlns:gpxtpx="http://www.garmin.com/xmlschemas/TrackPointExtension/v1">
            <gpxtpx:hr>141</gpxtpx:hr>
          </gpxtpx:TrackPointExtension>
        </extensions>
      </trkpt>
      <trkpt lat="50.62517" lon="5.15013">
        <ele>127.40000152588</ele>
        <time>2019-10-02T08:43:43.000Z</time>
        <extensions>
          <gpxtpx:TrackPointExtension xmlns:gpxtpx="http://www.garmin.com/xmlschemas/TrackPointExtension/v1">
            <gpxtpx:hr>141</gpxtpx:hr>
          </gpxtpx:TrackPointExtension>
        </extensions>
      </trkpt>
      <trkpt lat="50.62535" lon="5.14991">
        <ele>128</ele>
        <time>2019-10-02T08:43:45.000Z</time>
        <extensions>
          <gpxtpx:TrackPointExtension xmlns:gpxtpx="http://www.garmin.com/xmlschemas/TrackPointExtension/v1">
            <gpxtpx:hr>141</gpxtpx:hr>
          </gpxtpx:TrackPointExtension>
        </extensions>
      </trkpt>
      <trkpt lat="50.62544" lon="5.14981">
        <ele>128.60000610352</ele>
        <time>2019-10-02T08:43:46.000Z</time>
        <extensions>
          <gpxtpx:TrackPointExtension xmlns:gpxtpx="http://www.garmin.com/xmlschemas/TrackPointExtension/v1">
            <gpxtpx:hr>142</gpxtpx:hr>
          </gpxtpx:TrackPointExtension>
        </extensions>
      </trkpt>
      <trkpt lat="50.62572" lon="5.14955">
        <ele>129</ele>
        <time>2019-10-02T08:44:14.000Z</time>
        <extensions>
          <gpxtpx:TrackPointExtension xmlns:gpxtpx="http://www.garmin.com/xmlschemas/TrackPointExtension/v1">
            <gpxtpx:hr>142</gpxtpx:hr>
          </gpxtpx:TrackPointExtension>
        </extensions>
      </trkpt>
      <trkpt lat="50.62597" lon="5.14934">
        <ele>129.19999694824</ele>
        <time>2019-10-02T08:44:18.000Z</time>
        <extensions>
          <gpxtpx:TrackPointExtension xmlns:gpxtpx="http://www.garmin.com/xmlschemas/TrackPointExtension/v1">
            <gpxtpx:hr>140</gpxtpx:hr>
          </gpxtpx:TrackPointExtension>
        </extensions>
      </trkpt>
      <trkpt lat="50.6263" lon="5.14908">
        <ele>129.19999694824</ele>
        <time>2019-10-02T08:44:21.000Z</time>
        <extensions>
          <gpxtpx:TrackPointExtension xmlns:gpxtpx="http://www.garmin.com/xmlschemas/TrackPointExtension/v1">
            <gpxtpx:hr>139</gpxtpx:hr>
          </gpxtpx:TrackPointExtension>
        </extensions>
      </trkpt>
      <trkpt lat="50.62645" lon="5.14893">
        <ele>129</ele>
        <time>2019-10-02T08:44:23.000Z</time>
        <extensions>
          <gpxtpx:TrackPointExtension xmlns:gpxtpx="http://www.garmin.com/xmlschemas/TrackPointExtension/v1">
            <gpxtpx:hr>139</gpxtpx:hr>
          </gpxtpx:TrackPointExtension>
        </extensions>
      </trkpt>
      <trkpt lat="50.6265" lon="5.14889">
        <ele>129</ele>
        <time>2019-10-02T08:44:30.000Z</time>
        <extensions>
          <gpxtpx:TrackPointExtension xmlns:gpxtpx="http://www.garmin.com/xmlschemas/TrackPointExtension/v1">
            <gpxtpx:hr>138</gpxtpx:hr>
          </gpxtpx:TrackPointExtension>
        </extensions>
      </trkpt>
      <trkpt lat="50.62665" lon="5.14877">
        <ele>129</ele>
        <time>2019-10-02T08:44:37.000Z</time>
        <extensions>
          <gpxtpx:TrackPointExtension xmlns:gpxtpx="http://www.garmin.com/xmlschemas/TrackPointExtension/v1">
            <gpxtpx:hr>137</gpxtpx:hr>
          </gpxtpx:TrackPointExtension>
        </extensions>
      </trkpt>
      <trkpt lat="50.62679" lon="5.14871">
        <ele>135.6</ele>
        <time>2019-10-02T08:47:44.000Z</time>
      </trkpt>
      <trkpt lat="50.62702" lon="5.14859">
        <ele>128.80000305176</ele>
        <time>2019-10-02T08:47:52.000Z</time>
        <extensions>
          <gpxtpx:TrackPointExtension xmlns:gpxtpx="http://www.garmin.com/xmlschemas/TrackPointExtension/v1">
            <gpxtpx:hr>133</gpxtpx:hr>
          </gpxtpx:TrackPointExtension>
        </extensions>
      </trkpt>
      <trkpt lat="50.62707" lon="5.14858">
        <ele>128.80000305176</ele>
        <time>2019-10-02T08:47:54.000Z</time>
        <extensions>
          <gpxtpx:TrackPointExtension xmlns:gpxtpx="http://www.garmin.com/xmlschemas/TrackPointExtension/v1">
            <gpxtpx:hr>132</gpxtpx:hr>
          </gpxtpx:TrackPointExtension>
        </extensions>
      </trkpt>
      <trkpt lat="50.62712" lon="5.14856">
        <ele>128.80000305176</ele>
        <time>2019-10-02T08:48:02.000Z</time>
        <extensions>
          <gpxtpx:TrackPointExtension xmlns:gpxtpx="http://www.garmin.com/xmlschemas/TrackPointExtension/v1">
            <gpxtpx:hr>132</gpxtpx:hr>
          </gpxtpx:TrackPointExtension>
        </extensions>
      </trkpt>
      <trkpt lat="50.62721" lon="5.14858">
        <ele>135.3</ele>
        <time>2019-10-02T08:48:07.000Z</time>
      </trkpt>
      <trkpt lat="50.62736" lon="5.14839">
        <ele>134.3</ele>
        <time>2019-10-02T08:48:10.000Z</time>
      </trkpt>
      <trkpt lat="50.6275" lon="5.14823">
        <ele>132.2</ele>
        <time>2019-10-02T08:48:11.000Z</time>
      </trkpt>
      <trkpt lat="50.62779" lon="5.14785">
        <ele>131.9</ele>
        <time>2019-10-02T08:48:14.000Z</time>
      </trkpt>
      <trkpt lat="50.62796" lon="5.14761">
        <ele>131.6</ele>
        <time>2019-10-02T08:48:15.000Z</time>
      </trkpt>
      <trkpt lat="50.62815" lon="5.14736">
        <ele>126</ele>
        <time>2019-10-02T08:48:19.000Z</time>
        <extensions>
          <gpxtpx:TrackPointExtension xmlns:gpxtpx="http://www.garmin.com/xmlschemas/TrackPointExtension/v1">
            <gpxtpx:hr>114</gpxtpx:hr>
          </gpxtpx:TrackPointExtension>
        </extensions>
      </trkpt>
      <trkpt lat="50.62827" lon="5.14722">
        <ele>125.59999847412</ele>
        <time>2019-10-02T08:48:21.000Z</time>
        <extensions>
          <gpxtpx:TrackPointExtension xmlns:gpxtpx="http://www.garmin.com/xmlschemas/TrackPointExtension/v1">
            <gpxtpx:hr>110</gpxtpx:hr>
          </gpxtpx:TrackPointExtension>
        </extensions>
      </trkpt>
      <trkpt lat="50.6284" lon="5.14708">
        <ele>125.19999694824</ele>
        <time>2019-10-02T08:48:25.000Z</time>
        <extensions>
          <gpxtpx:TrackPointExtension xmlns:gpxtpx="http://www.garmin.com/xmlschemas/TrackPointExtension/v1">
            <gpxtpx:hr>106</gpxtpx:hr>
          </gpxtpx:TrackPointExtension>
        </extensions>
      </trkpt>
      <trkpt lat="50.62847" lon="5.14701">
        <ele>124.80000305176</ele>
        <time>2019-10-02T08:48:29.000Z</time>
        <extensions>
          <gpxtpx:TrackPointExtension xmlns:gpxtpx="http://www.garmin.com/xmlschemas/TrackPointExtension/v1">
            <gpxtpx:hr>104</gpxtpx:hr>
          </gpxtpx:TrackPointExtension>
        </extensions>
      </trkpt>
      <trkpt lat="50.62859" lon="5.14685">
        <ele>124</ele>
        <time>2019-10-02T08:48:46.000Z</time>
        <extensions>
          <gpxtpx:TrackPointExtension xmlns:gpxtpx="http://www.garmin.com/xmlschemas/TrackPointExtension/v1">
            <gpxtpx:hr>101</gpxtpx:hr>
          </gpxtpx:TrackPointExtension>
        </extensions>
      </trkpt>
      <trkpt lat="50.62872" lon="5.14669">
        <ele>123.59999847412</ele>
        <time>2019-10-02T08:48:47.000Z</time>
        <extensions>
          <gpxtpx:TrackPointExtension xmlns:gpxtpx="http://www.garmin.com/xmlschemas/TrackPointExtension/v1">
            <gpxtpx:hr>101</gpxtpx:hr>
          </gpxtpx:TrackPointExtension>
        </extensions>
      </trkpt>
      <trkpt lat="50.62882" lon="5.14656">
        <ele>127.9</ele>
        <time>2019-10-02T08:48:50.000Z</time>
      </trkpt>
      <trkpt lat="50.62905" lon="5.14631">
        <ele>127.9</ele>
        <time>2019-10-02T08:48:51.000Z</time>
      </trkpt>
      <trkpt lat="50.62883" lon="5.14596">
        <ele>127.1</ele>
        <time>2019-10-02T08:50:31.000Z</time>
      </trkpt>
      <trkpt lat="50.62871" lon="5.1458">
        <ele>125.1</ele>
        <time>2019-10-02T08:50:32.000Z</time>
      </trkpt>
      <trkpt lat="50.62862" lon="5.14564">
        <ele>124.7</ele>
        <time>2019-10-02T08:51:07.000Z</time>
      </trkpt>
      <trkpt lat="50.62851" lon="5.14547">
        <ele>124.3</ele>
        <time>2019-10-02T08:51:23.000Z</time>
      </trkpt>
      <trkpt lat="50.6284" lon="5.14533">
        <ele>123.7</ele>
        <time>2019-10-02T08:51:24.000Z</time>
      </trkpt>
      <trkpt lat="50.62827" lon="5.14513">
        <ele>121.3</ele>
        <time>2019-10-02T08:51:27.000Z</time>
      </trkpt>
      <trkpt lat="50.62842" lon="5.1449">
        <ele>121.8</ele>
        <time>2019-10-02T08:51:30.000Z</time>
      </trkpt>
      <trkpt lat="50.62854" lon="5.1447">
        <ele>122.4</ele>
        <time>2019-10-02T08:51:42.000Z</time>
      </trkpt>
      <trkpt lat="50.62865" lon="5.14453">
        <ele>122.7</ele>
        <time>2019-10-02T08:51:48.000Z</time>
      </trkpt>
      <trkpt lat="50.62877" lon="5.1443">
        <ele>122.9</ele>
        <time>2019-10-02T08:51:49.000Z</time>
      </trkpt>
      <trkpt lat="50.6289" lon="5.14404">
        <ele>116.40000152588</ele>
        <time>2019-10-02T08:51:54.000Z</time>
        <extensions>
          <gpxtpx:TrackPointExtension xmlns:gpxtpx="http://www.garmin.com/xmlschemas/TrackPointExtension/v1">
            <gpxtpx:hr>108</gpxtpx:hr>
          </gpxtpx:TrackPointExtension>
        </extensions>
      </trkpt>
      <trkpt lat="50.62903" lon="5.14368">
        <ele>116.40000152588</ele>
        <time>2019-10-02T08:51:57.000Z</time>
        <extensions>
          <gpxtpx:TrackPointExtension xmlns:gpxtpx="http://www.garmin.com/xmlschemas/TrackPointExtension/v1">
            <gpxtpx:hr>111</gpxtpx:hr>
          </gpxtpx:TrackPointExtension>
        </extensions>
      </trkpt>
      <trkpt lat="50.62907" lon="5.14357">
        <ele>122.4</ele>
        <time>2019-10-02T08:51:58.000Z</time>
      </trkpt>
      <trkpt lat="50.62915" lon="5.14338">
        <ele>122.8</ele>
        <time>2019-10-02T08:53:33.000Z</time>
      </trkpt>
      <trkpt lat="50.62922" lon="5.14323">
        <ele>123.1</ele>
        <time>2019-10-02T08:53:37.000Z</time>
      </trkpt>
      <trkpt lat="50.62934" lon="5.14314">
        <ele>116.40000152588</ele>
        <time>2019-10-02T08:53:42.000Z</time>
        <extensions>
          <gpxtpx:TrackPointExtension xmlns:gpxtpx="http://www.garmin.com/xmlschemas/TrackPointExtension/v1">
            <gpxtpx:hr>115</gpxtpx:hr>
          </gpxtpx:TrackPointExtension>
        </extensions>
      </trkpt>
      <trkpt lat="50.62946" lon="5.14304">
        <ele>116.40000152588</ele>
        <time>2019-10-02T08:53:43.000Z</time>
        <extensions>
          <gpxtpx:TrackPointExtension xmlns:gpxtpx="http://www.garmin.com/xmlschemas/TrackPointExtension/v1">
            <gpxtpx:hr>116</gpxtpx:hr>
          </gpxtpx:TrackPointExtension>
        </extensions>
      </trkpt>
      <trkpt lat="50.62965" lon="5.14294">
        <ele>116.40000152588</ele>
        <time>2019-10-02T08:53:46.000Z</time>
        <extensions>
          <gpxtpx:TrackPointExtension xmlns:gpxtpx="http://www.garmin.com/xmlschemas/TrackPointExtension/v1">
            <gpxtpx:hr>116</gpxtpx:hr>
          </gpxtpx:TrackPointExtension>
        </extensions>
      </trkpt>
      <trkpt lat="50.62977" lon="5.14288">
        <ele>116.40000152588</ele>
        <time>2019-10-02T08:53:49.000Z</time>
        <extensions>
          <gpxtpx:TrackPointExtension xmlns:gpxtpx="http://www.garmin.com/xmlschemas/TrackPointExtension/v1">
            <gpxtpx:hr>116</gpxtpx:hr>
          </gpxtpx:TrackPointExtension>
        </extensions>
      </trkpt>
      <trkpt lat="50.62984" lon="5.14275">
        <ele>123</ele>
        <time>2019-10-02T08:54:11.000Z</time>
      </trkpt>
      <trkpt lat="50.62984" lon="5.14253">
        <ele>122.6</ele>
        <time>2019-10-02T08:54:14.000Z</time>
      </trkpt>
      <trkpt lat="50.62979" lon="5.14225">
        <ele>121.6</ele>
        <time>2019-10-02T08:54:19.000Z</time>
      </trkpt>
      <trkpt lat="50.62971" lon="5.14204">
        <ele>121.5</ele>
        <time>2019-10-02T08:54:24.000Z</time>
      </trkpt>
      <trkpt lat="50.62964" lon="5.14172">
        <ele>121.3</ele>
        <time>2019-10-02T08:54:26.000Z</time>
      </trkpt>
      <trkpt lat="50.62961" lon="5.14145">
        <ele>121.4</ele>
        <time>2019-10-02T08:54:32.000Z</time>
      </trkpt>
      <trkpt lat="50.62958" lon="5.14101">
        <ele>121.6</ele>
        <time>2019-10-02T08:54:38.000Z</time>
      </trkpt>
      <trkpt lat="50.62957" lon="5.1408">
        <ele>121.8</ele>
        <time>2019-10-02T08:54:40.000Z</time>
      </trkpt>
      <trkpt lat="50.62944" lon="5.14024">
        <ele>121.4</ele>
        <time>2019-10-02T08:54:45.000Z</time>
      </trkpt>
      <trkpt lat="50.62928" lon="5.13957">
        <ele>122.1</ele>
        <time>2019-10-02T08:54:47.000Z</time>
      </trkpt>
      <trkpt lat="50.62915" lon="5.13905">
        <ele>122.7</ele>
        <time>2019-10-02T08:54:52.000Z</time>
      </trkpt>
      <trkpt lat="50.62908" lon="5.1387">
        <ele>113.59999847412</ele>
        <time>2019-10-02T08:55:01.000Z</time>
        <extensions>
          <gpxtpx:TrackPointExtension xmlns:gpxtpx="http://www.garmin.com/xmlschemas/TrackPointExtension/v1">
            <gpxtpx:hr>117</gpxtpx:hr>
          </gpxtpx:TrackPointExtension>
        </extensions>
      </trkpt>
      <trkpt lat="50.62893" lon="5.13814">
        <ele>122.2</ele>
        <time>2019-10-02T08:55:05.000Z</time>
      </trkpt>
      <trkpt lat="50.62875" lon="5.13746">
        <ele>122.8</ele>
        <time>2019-10-02T08:55:10.000Z</time>
      </trkpt>
      <trkpt lat="50.62854" lon="5.13664">
        <ele>124.9</ele>
        <time>2019-10-02T08:55:16.000Z</time>
      </trkpt>
      <trkpt lat="50.62833" lon="5.13581">
        <ele>126</ele>
        <time>2019-10-02T08:55:20.000Z</time>
      </trkpt>
      <trkpt lat="50.62827" lon="5.13562">
        <ele>126.3</ele>
        <time>2019-10-02T08:55:21.000Z</time>
      </trkpt>
      <trkpt lat="50.6282" lon="5.13535">
        <ele>127</ele>
        <time>2019-10-02T08:55:28.000Z</time>
      </trkpt>
      <trkpt lat="50.62808" lon="5.13507">
        <ele>127.6</ele>
        <time>2019-10-02T08:55:30.000Z</time>
      </trkpt>
      <trkpt lat="50.62785" lon="5.13459">
        <ele>129.3</ele>
        <time>2019-10-02T08:55:36.000Z</time>
      </trkpt>
      <trkpt lat="50.62773" lon="5.1343">
        <ele>129.4</ele>
        <time>2019-10-02T08:55:43.000Z</time>
      </trkpt>
      <trkpt lat="50.62753" lon="5.13389">
        <ele>117.19999694824</ele>
        <time>2019-10-02T08:55:50.000Z</time>
        <extensions>
          <gpxtpx:TrackPointExtension xmlns:gpxtpx="http://www.garmin.com/xmlschemas/TrackPointExtension/v1">
            <gpxtpx:hr>136</gpxtpx:hr>
          </gpxtpx:TrackPointExtension>
        </extensions>
      </trkpt>
      <trkpt lat="50.6274" lon="5.13361">
        <ele>118</ele>
        <time>2019-10-02T08:55:56.000Z</time>
        <extensions>
          <gpxtpx:TrackPointExtension xmlns:gpxtpx="http://www.garmin.com/xmlschemas/TrackPointExtension/v1">
            <gpxtpx:hr>138</gpxtpx:hr>
          </gpxtpx:TrackPointExtension>
        </extensions>
      </trkpt>
      <trkpt lat="50.62728" lon="5.13327">
        <ele>129.5</ele>
        <time>2019-10-02T08:56:00.000Z</time>
      </trkpt>
      <trkpt lat="50.62707" lon="5.13265">
        <ele>128.9</ele>
        <time>2019-10-02T08:56:13.000Z</time>
      </trkpt>
      <trkpt lat="50.62687" lon="5.13205">
        <ele>130</ele>
        <time>2019-10-02T08:56:15.000Z</time>
      </trkpt>
      <trkpt lat="50.62668" lon="5.13146">
        <ele>131</ele>
        <time>2019-10-02T08:56:19.000Z</time>
      </trkpt>
      <trkpt lat="50.62664" lon="5.13117">
        <ele>128.3</ele>
        <time>2019-10-02T08:56:29.000Z</time>
      </trkpt>
      <trkpt lat="50.6266" lon="5.1309">
        <ele>124</ele>
        <time>2019-10-02T08:56:30.000Z</time>
        <extensions>
          <gpxtpx:TrackPointExtension xmlns:gpxtpx="http://www.garmin.com/xmlschemas/TrackPointExtension/v1">
            <gpxtpx:hr>147</gpxtpx:hr>
          </gpxtpx:TrackPointExtension>
        </extensions>
      </trkpt>
      <trkpt lat="50.62649" lon="5.1301">
        <ele>129.4</ele>
        <time>2019-10-02T08:56:35.000Z</time>
      </trkpt>
      <trkpt lat="50.62645" lon="5.12945">
        <ele>129</ele>
        <time>2019-10-02T08:56:40.000Z</time>
      </trkpt>
      <trkpt lat="50.62643" lon="5.12861">
        <ele>129.4</ele>
        <time>2019-10-02T08:56:42.000Z</time>
      </trkpt>
      <trkpt lat="50.62639" lon="5.12771">
        <ele>131.3</ele>
        <time>2019-10-02T08:56:48.000Z</time>
      </trkpt>
      <trkpt lat="50.62637" lon="5.12725">
        <ele>133</ele>
        <time>2019-10-02T08:56:49.000Z</time>
      </trkpt>
      <trkpt lat="50.62635" lon="5.12645">
        <ele>134.5</ele>
        <time>2019-10-02T08:56:52.000Z</time>
      </trkpt>
      <trkpt lat="50.62634" lon="5.12612">
        <ele>127.40000152588</ele>
        <time>2019-10-02T08:56:57.000Z</time>
        <extensions>
          <gpxtpx:TrackPointExtension xmlns:gpxtpx="http://www.garmin.com/xmlschemas/TrackPointExtension/v1">
            <gpxtpx:hr>144</gpxtpx:hr>
          </gpxtpx:TrackPointExtension>
        </extensions>
      </trkpt>
      <trkpt lat="50.62634" lon="5.12602">
        <ele>127.59999847412</ele>
        <time>2019-10-02T08:57:18.000Z</time>
        <extensions>
          <gpxtpx:TrackPointExtension xmlns:gpxtpx="http://www.garmin.com/xmlschemas/TrackPointExtension/v1">
            <gpxtpx:hr>144</gpxtpx:hr>
          </gpxtpx:TrackPointExtension>
        </extensions>
      </trkpt>
      <trkpt lat="50.62631" lon="5.12533">
        <ele>128.60000610352</ele>
        <time>2019-10-02T08:57:48.000Z</time>
        <extensions>
          <gpxtpx:TrackPointExtension xmlns:gpxtpx="http://www.garmin.com/xmlschemas/TrackPointExtension/v1">
            <gpxtpx:hr>145</gpxtpx:hr>
          </gpxtpx:TrackPointExtension>
        </extensions>
      </trkpt>
      <trkpt lat="50.62631" lon="5.12522">
        <ele>128.80000305176</ele>
        <time>2019-10-02T08:57:49.000Z</time>
        <extensions>
          <gpxtpx:TrackPointExtension xmlns:gpxtpx="http://www.garmin.com/xmlschemas/TrackPointExtension/v1">
            <gpxtpx:hr>145</gpxtpx:hr>
          </gpxtpx:TrackPointExtension>
        </extensions>
      </trkpt>
      <trkpt lat="50.62626" lon="5.12427">
        <ele>129.39999389648</ele>
        <time>2019-10-02T08:57:55.000Z</time>
        <extensions>
          <gpxtpx:TrackPointExtension xmlns:gpxtpx="http://www.garmin.com/xmlschemas/TrackPointExtension/v1">
            <gpxtpx:hr>145</gpxtpx:hr>
          </gpxtpx:TrackPointExtension>
        </extensions>
      </trkpt>
      <trkpt lat="50.62624" lon="5.1238">
        <ele>133</ele>
        <time>2019-10-02T08:57:57.000Z</time>
      </trkpt>
      <trkpt lat="50.62627" lon="5.1234">
        <ele>132.4</ele>
        <time>2019-10-02T08:58:05.000Z</time>
      </trkpt>
      <trkpt lat="50.62634" lon="5.12295">
        <ele>128.19999694824</ele>
        <time>2019-10-02T08:58:07.000Z</time>
        <extensions>
          <gpxtpx:TrackPointExtension xmlns:gpxtpx="http://www.garmin.com/xmlschemas/TrackPointExtension/v1">
            <gpxtpx:hr>140</gpxtpx:hr>
          </gpxtpx:TrackPointExtension>
        </extensions>
      </trkpt>
      <trkpt lat="50.62636" lon="5.12285">
        <ele>127.80000305176</ele>
        <time>2019-10-02T08:58:15.000Z</time>
        <extensions>
          <gpxtpx:TrackPointExtension xmlns:gpxtpx="http://www.garmin.com/xmlschemas/TrackPointExtension/v1">
            <gpxtpx:hr>139</gpxtpx:hr>
          </gpxtpx:TrackPointExtension>
        </extensions>
      </trkpt>
      <trkpt lat="50.62641" lon="5.12264">
        <ele>127.59999847412</ele>
        <time>2019-10-02T08:58:17.000Z</time>
        <extensions>
          <gpxtpx:TrackPointExtension xmlns:gpxtpx="http://www.garmin.com/xmlschemas/TrackPointExtension/v1">
            <gpxtpx:hr>138</gpxtpx:hr>
          </gpxtpx:TrackPointExtension>
        </extensions>
      </trkpt>
      <trkpt lat="50.62656" lon="5.12203">
        <ele>127</ele>
        <time>2019-10-02T08:58:20.000Z</time>
        <extensions>
          <gpxtpx:TrackPointExtension xmlns:gpxtpx="http://www.garmin.com/xmlschemas/TrackPointExtension/v1">
            <gpxtpx:hr>135</gpxtpx:hr>
          </gpxtpx:TrackPointExtension>
        </extensions>
      </trkpt>
      <trkpt lat="50.62669" lon="5.12154">
        <ele>126.59999847412</ele>
        <time>2019-10-02T08:58:26.000Z</time>
        <extensions>
          <gpxtpx:TrackPointExtension xmlns:gpxtpx="http://www.garmin.com/xmlschemas/TrackPointExtension/v1">
            <gpxtpx:hr>132</gpxtpx:hr>
          </gpxtpx:TrackPointExtension>
        </extensions>
      </trkpt>
      <trkpt lat="50.62674" lon="5.12133">
        <ele>126.40000152588</ele>
        <time>2019-10-02T08:58:27.000Z</time>
        <extensions>
          <gpxtpx:TrackPointExtension xmlns:gpxtpx="http://www.garmin.com/xmlschemas/TrackPointExtension/v1">
            <gpxtpx:hr>130</gpxtpx:hr>
          </gpxtpx:TrackPointExtension>
        </extensions>
      </trkpt>
      <trkpt lat="50.62679" lon="5.12114">
        <ele>126.40000152588</ele>
        <time>2019-10-02T08:58:57.000Z</time>
        <extensions>
          <gpxtpx:TrackPointExtension xmlns:gpxtpx="http://www.garmin.com/xmlschemas/TrackPointExtension/v1">
            <gpxtpx:hr>128</gpxtpx:hr>
          </gpxtpx:TrackPointExtension>
        </extensions>
      </trkpt>
      <trkpt lat="50.62691" lon="5.1209">
        <ele>126.40000152588</ele>
        <time>2019-10-02T08:58:59.000Z</time>
        <extensions>
          <gpxtpx:TrackPointExtension xmlns:gpxtpx="http://www.garmin.com/xmlschemas/TrackPointExtension/v1">
            <gpxtpx:hr>127</gpxtpx:hr>
          </gpxtpx:TrackPointExtension>
        </extensions>
      </trkpt>
      <trkpt lat="50.62724" lon="5.12031">
        <ele>126.40000152588</ele>
        <time>2019-10-02T08:59:06.000Z</time>
        <extensions>
          <gpxtpx:TrackPointExtension xmlns:gpxtpx="http://www.garmin.com/xmlschemas/TrackPointExtension/v1">
            <gpxtpx:hr>126</gpxtpx:hr>
          </gpxtpx:TrackPointExtension>
        </extensions>
      </trkpt>
      <trkpt lat="50.62748" lon="5.11988">
        <ele>127.40000152588</ele>
        <time>2019-10-02T08:59:07.000Z</time>
        <extensions>
          <gpxtpx:TrackPointExtension xmlns:gpxtpx="http://www.garmin.com/xmlschemas/TrackPointExtension/v1">
            <gpxtpx:hr>128</gpxtpx:hr>
          </gpxtpx:TrackPointExtension>
        </extensions>
      </trkpt>
      <trkpt lat="50.62756" lon="5.11974">
        <ele>127.59999847412</ele>
        <time>2019-10-02T08:59:08.000Z</time>
        <extensions>
          <gpxtpx:TrackPointExtension xmlns:gpxtpx="http://www.garmin.com/xmlschemas/TrackPointExtension/v1">
            <gpxtpx:hr>130</gpxtpx:hr>
          </gpxtpx:TrackPointExtension>
        </extensions>
      </trkpt>
      <trkpt lat="50.62772" lon="5.11945">
        <ele>128.19999694824</ele>
        <time>2019-10-02T08:59:38.000Z</time>
        <extensions>
          <gpxtpx:TrackPointExtension xmlns:gpxtpx="http://www.garmin.com/xmlschemas/TrackPointExtension/v1">
            <gpxtpx:hr>133</gpxtpx:hr>
          </gpxtpx:TrackPointExtension>
        </extensions>
      </trkpt>
      <trkpt lat="50.62776" lon="5.11938">
        <ele>128.60000610352</ele>
        <time>2019-10-02T08:59:51.000Z</time>
        <extensions>
          <gpxtpx:TrackPointExtension xmlns:gpxtpx="http://www.garmin.com/xmlschemas/TrackPointExtension/v1">
            <gpxtpx:hr>133</gpxtpx:hr>
          </gpxtpx:TrackPointExtension>
        </extensions>
      </trkpt>
      <trkpt lat="50.62781" lon="5.1193">
        <ele>129</ele>
        <time>2019-10-02T09:00:13.000Z</time>
        <extensions>
          <gpxtpx:TrackPointExtension xmlns:gpxtpx="http://www.garmin.com/xmlschemas/TrackPointExtension/v1">
            <gpxtpx:hr>134</gpxtpx:hr>
          </gpxtpx:TrackPointExtension>
        </extensions>
      </trkpt>
      <trkpt lat="50.62793" lon="5.11908">
        <ele>129.39999389648</ele>
        <time>2019-10-02T09:00:17.000Z</time>
        <extensions>
          <gpxtpx:TrackPointExtension xmlns:gpxtpx="http://www.garmin.com/xmlschemas/TrackPointExtension/v1">
            <gpxtpx:hr>136</gpxtpx:hr>
          </gpxtpx:TrackPointExtension>
        </extensions>
      </trkpt>
      <trkpt lat="50.62808" lon="5.11891">
        <ele>129.60000610352</ele>
        <time>2019-10-02T09:00:19.000Z</time>
        <extensions>
          <gpxtpx:TrackPointExtension xmlns:gpxtpx="http://www.garmin.com/xmlschemas/TrackPointExtension/v1">
            <gpxtpx:hr>137</gpxtpx:hr>
          </gpxtpx:TrackPointExtension>
        </extensions>
      </trkpt>
      <trkpt lat="50.62823" lon="5.11877">
        <ele>130</ele>
        <time>2019-10-02T09:00:22.000Z</time>
        <extensions>
          <gpxtpx:TrackPointExtension xmlns:gpxtpx="http://www.garmin.com/xmlschemas/TrackPointExtension/v1">
            <gpxtpx:hr>138</gpxtpx:hr>
          </gpxtpx:TrackPointExtension>
        </extensions>
      </trkpt>
      <trkpt lat="50.62834" lon="5.11867">
        <ele>130.19999694824</ele>
        <time>2019-10-02T09:00:31.000Z</time>
        <extensions>
          <gpxtpx:TrackPointExtension xmlns:gpxtpx="http://www.garmin.com/xmlschemas/TrackPointExtension/v1">
            <gpxtpx:hr>138</gpxtpx:hr>
          </gpxtpx:TrackPointExtension>
        </extensions>
      </trkpt>
      <trkpt lat="50.62847" lon="5.1185">
        <ele>138.3</ele>
        <time>2019-10-02T09:00:36.000Z</time>
      </trkpt>
      <trkpt lat="50.62858" lon="5.11832">
        <ele>137.1</ele>
        <time>2019-10-02T09:00:42.000Z</time>
      </trkpt>
      <trkpt lat="50.62869" lon="5.11811">
        <ele>137.5</ele>
        <time>2019-10-02T09:00:50.000Z</time>
      </trkpt>
      <trkpt lat="50.62877" lon="5.11786">
        <ele>137.5</ele>
        <time>2019-10-02T09:00:53.000Z</time>
      </trkpt>
      <trkpt lat="50.62885" lon="5.1176">
        <ele>137.7</ele>
        <time>2019-10-02T09:01:00.000Z</time>
      </trkpt>
      <trkpt lat="50.6289" lon="5.11736">
        <ele>130.80000305176</ele>
        <time>2019-10-02T09:02:05.000Z</time>
        <extensions>
          <gpxtpx:TrackPointExtension xmlns:gpxtpx="http://www.garmin.com/xmlschemas/TrackPointExtension/v1">
            <gpxtpx:hr>139</gpxtpx:hr>
          </gpxtpx:TrackPointExtension>
        </extensions>
      </trkpt>
      <trkpt lat="50.62893" lon="5.11719">
        <ele>136</ele>
        <time>2019-10-02T09:02:06.000Z</time>
      </trkpt>
      <trkpt lat="50.62898" lon="5.11709">
        <ele>130.60000610352</ele>
        <time>2019-10-02T09:02:14.000Z</time>
        <extensions>
          <gpxtpx:TrackPointExtension xmlns:gpxtpx="http://www.garmin.com/xmlschemas/TrackPointExtension/v1">
            <gpxtpx:hr>138</gpxtpx:hr>
          </gpxtpx:TrackPointExtension>
        </extensions>
      </trkpt>
      <trkpt lat="50.62905" lon="5.11695">
        <ele>130.60000610352</ele>
        <time>2019-10-02T09:02:15.000Z</time>
        <extensions>
          <gpxtpx:TrackPointExtension xmlns:gpxtpx="http://www.garmin.com/xmlschemas/TrackPointExtension/v1">
            <gpxtpx:hr>137</gpxtpx:hr>
          </gpxtpx:TrackPointExtension>
        </extensions>
      </trkpt>
      <trkpt lat="50.62915" lon="5.11679">
        <ele>136.9</ele>
        <time>2019-10-02T09:02:23.000Z</time>
      </trkpt>
      <trkpt lat="50.62905" lon="5.11655">
        <ele>135.3</ele>
        <time>2019-10-02T09:02:28.000Z</time>
      </trkpt>
      <trkpt lat="50.629" lon="5.11623">
        <ele>133.9</ele>
        <time>2019-10-02T09:02:31.000Z</time>
      </trkpt>
      <trkpt lat="50.629" lon="5.11598">
        <ele>134.2</ele>
        <time>2019-10-02T09:02:39.000Z</time>
      </trkpt>
      <trkpt lat="50.62905" lon="5.11572">
        <ele>133.7</ele>
        <time>2019-10-02T09:02:40.000Z</time>
      </trkpt>
      <trkpt lat="50.62911" lon="5.11548">
        <ele>132.2</ele>
        <time>2019-10-02T09:02:45.000Z</time>
      </trkpt>
      <trkpt lat="50.62916" lon="5.11521">
        <ele>131.9</ele>
        <time>2019-10-02T09:02:50.000Z</time>
      </trkpt>
      <trkpt lat="50.62921" lon="5.11498">
        <ele>133.5</ele>
        <time>2019-10-02T09:02:57.000Z</time>
      </trkpt>
      <trkpt lat="50.62929" lon="5.11459">
        <ele>134.8</ele>
        <time>2019-10-02T09:03:00.000Z</time>
      </trkpt>
      <trkpt lat="50.6294" lon="5.11419">
        <ele>134</ele>
        <time>2019-10-02T09:03:04.000Z</time>
      </trkpt>
      <trkpt lat="50.62949" lon="5.11381">
        <ele>132.8</ele>
        <time>2019-10-02T09:03:09.000Z</time>
      </trkpt>
      <trkpt lat="50.62957" lon="5.11349">
        <ele>132.5</ele>
        <time>2019-10-02T09:03:11.000Z</time>
      </trkpt>
      <trkpt lat="50.62966" lon="5.11302">
        <ele>130.6</ele>
        <time>2019-10-02T09:03:17.000Z</time>
      </trkpt>
      <trkpt lat="50.62979" lon="5.11255">
        <ele>130.4</ele>
        <time>2019-10-02T09:03:21.000Z</time>
      </trkpt>
      <trkpt lat="50.62998" lon="5.11211">
        <ele>125.19999694824</ele>
        <time>2019-10-02T09:03:28.000Z</time>
        <extensions>
          <gpxtpx:TrackPointExtension xmlns:gpxtpx="http://www.garmin.com/xmlschemas/TrackPointExtension/v1">
            <gpxtpx:hr>104</gpxtpx:hr>
          </gpxtpx:TrackPointExtension>
        </extensions>
      </trkpt>
      <trkpt lat="50.63024" lon="5.11168">
        <ele>129.7</ele>
        <time>2019-10-02T09:03:32.000Z</time>
      </trkpt>
      <trkpt lat="50.63032" lon="5.11154">
        <ele>128.2</ele>
        <time>2019-10-02T09:03:39.000Z</time>
      </trkpt>
      <trkpt lat="50.63044" lon="5.11136">
        <ele>128</ele>
        <time>2019-10-02T09:03:43.000Z</time>
      </trkpt>
      <trkpt lat="50.63051" lon="5.11114">
        <ele>124</ele>
        <time>2019-10-02T09:03:47.000Z</time>
        <extensions>
          <gpxtpx:TrackPointExtension xmlns:gpxtpx="http://www.garmin.com/xmlschemas/TrackPointExtension/v1">
            <gpxtpx:hr>103</gpxtpx:hr>
          </gpxtpx:TrackPointExtension>
        </extensions>
      </trkpt>
      <trkpt lat="50.63054" lon="5.11103">
        <ele>123.59999847412</ele>
        <time>2019-10-02T09:03:53.000Z</time>
        <extensions>
          <gpxtpx:TrackPointExtension xmlns:gpxtpx="http://www.garmin.com/xmlschemas/TrackPointExtension/v1">
            <gpxtpx:hr>103</gpxtpx:hr>
          </gpxtpx:TrackPointExtension>
        </extensions>
      </trkpt>
      <trkpt lat="50.6306" lon="5.11081">
        <ele>122.80000305176</ele>
        <time>2019-10-02T09:04:00.000Z</time>
        <extensions>
          <gpxtpx:TrackPointExtension xmlns:gpxtpx="http://www.garmin.com/xmlschemas/TrackPointExtension/v1">
            <gpxtpx:hr>102</gpxtpx:hr>
          </gpxtpx:TrackPointExtension>
        </extensions>
      </trkpt>
      <trkpt lat="50.63063" lon="5.11059">
        <ele>127</ele>
        <time>2019-10-02T09:04:01.000Z</time>
      </trkpt>
      <trkpt lat="50.63062" lon="5.11045">
        <ele>126.8</ele>
        <time>2019-10-02T09:04:07.000Z</time>
      </trkpt>
      <trkpt lat="50.63055" lon="5.11024">
        <ele>126.6</ele>
        <time>2019-10-02T09:04:11.000Z</time>
      </trkpt>
      <trkpt lat="50.63053" lon="5.11003">
        <ele>126.6</ele>
        <time>2019-10-02T09:04:12.000Z</time>
      </trkpt>
      <trkpt lat="50.63047" lon="5.10976">
        <ele>127</ele>
        <time>2019-10-02T09:04:20.000Z</time>
      </trkpt>
      <trkpt lat="50.63046" lon="5.10954">
        <ele>127.2</ele>
        <time>2019-10-02T09:04:27.000Z</time>
      </trkpt>
      <trkpt lat="50.63049" lon="5.10933">
        <ele>127.6</ele>
        <time>2019-10-02T09:04:31.000Z</time>
      </trkpt>
      <trkpt lat="50.63054" lon="5.10903">
        <ele>128.1</ele>
        <time>2019-10-02T09:04:34.000Z</time>
      </trkpt>
      <trkpt lat="50.63058" lon="5.10875">
        <ele>127.8</ele>
        <time>2019-10-02T09:04:36.000Z</time>
      </trkpt>
      <trkpt lat="50.63064" lon="5.10835">
        <ele>128</ele>
        <time>2019-10-02T09:04:39.000Z</time>
      </trkpt>
      <trkpt lat="50.63075" lon="5.1076">
        <ele>127</ele>
        <time>2019-10-02T09:04:42.000Z</time>
      </trkpt>
      <trkpt lat="50.63083" lon="5.10714">
        <ele>123</ele>
        <time>2019-10-02T09:04:43.000Z</time>
      </trkpt>
      <trkpt lat="50.63088" lon="5.10687">
        <ele>125.6</ele>
        <time>2019-10-02T09:04:50.000Z</time>
      </trkpt>
      <trkpt lat="50.63097" lon="5.10666">
        <ele>118.59999847412</ele>
        <time>2019-10-02T09:04:53.000Z</time>
        <extensions>
          <gpxtpx:TrackPointExtension xmlns:gpxtpx="http://www.garmin.com/xmlschemas/TrackPointExtension/v1">
            <gpxtpx:hr>110</gpxtpx:hr>
          </gpxtpx:TrackPointExtension>
        </extensions>
      </trkpt>
      <trkpt lat="50.63111" lon="5.10636">
        <ele>117.80000305176</ele>
        <time>2019-10-02T09:04:56.000Z</time>
        <extensions>
          <gpxtpx:TrackPointExtension xmlns:gpxtpx="http://www.garmin.com/xmlschemas/TrackPointExtension/v1">
            <gpxtpx:hr>108</gpxtpx:hr>
          </gpxtpx:TrackPointExtension>
        </extensions>
      </trkpt>
      <trkpt lat="50.63116" lon="5.10627">
        <ele>117.59999847412</ele>
        <time>2019-10-02T09:04:57.000Z</time>
        <extensions>
          <gpxtpx:TrackPointExtension xmlns:gpxtpx="http://www.garmin.com/xmlschemas/TrackPointExtension/v1">
            <gpxtpx:hr>108</gpxtpx:hr>
          </gpxtpx:TrackPointExtension>
        </extensions>
      </trkpt>
      <trkpt lat="50.63136" lon="5.10589">
        <ele>116.80000305176</ele>
        <time>2019-10-02T09:04:59.000Z</time>
        <extensions>
          <gpxtpx:TrackPointExtension xmlns:gpxtpx="http://www.garmin.com/xmlschemas/TrackPointExtension/v1">
            <gpxtpx:hr>105</gpxtpx:hr>
          </gpxtpx:TrackPointExtension>
        </extensions>
      </trkpt>
      <trkpt lat="50.63146" lon="5.10573">
        <ele>116.40000152588</ele>
        <time>2019-10-02T09:05:01.000Z</time>
        <extensions>
          <gpxtpx:TrackPointExtension xmlns:gpxtpx="http://www.garmin.com/xmlschemas/TrackPointExtension/v1">
            <gpxtpx:hr>103</gpxtpx:hr>
          </gpxtpx:TrackPointExtension>
        </extensions>
      </trkpt>
      <trkpt lat="50.6316" lon="5.10553">
        <ele>120.4</ele>
        <time>2019-10-02T09:05:02.000Z</time>
      </trkpt>
      <trkpt lat="50.63176" lon="5.1053">
        <ele>115.19999694824</ele>
        <time>2019-10-02T09:05:04.000Z</time>
        <extensions>
          <gpxtpx:TrackPointExtension xmlns:gpxtpx="http://www.garmin.com/xmlschemas/TrackPointExtension/v1">
            <gpxtpx:hr>103</gpxtpx:hr>
          </gpxtpx:TrackPointExtension>
        </extensions>
      </trkpt>
      <trkpt lat="50.63194" lon="5.10511">
        <ele>115</ele>
        <time>2019-10-02T09:05:05.000Z</time>
        <extensions>
          <gpxtpx:TrackPointExtension xmlns:gpxtpx="http://www.garmin.com/xmlschemas/TrackPointExtension/v1">
            <gpxtpx:hr>103</gpxtpx:hr>
          </gpxtpx:TrackPointExtension>
        </extensions>
      </trkpt>
      <trkpt lat="50.63204" lon="5.10496">
        <ele>121.4</ele>
        <time>2019-10-02T09:05:07.000Z</time>
      </trkpt>
      <trkpt lat="50.63212" lon="5.10482">
        <ele>121.6</ele>
        <time>2019-10-02T09:05:08.000Z</time>
      </trkpt>
      <trkpt lat="50.63222" lon="5.10451">
        <ele>121.5</ele>
        <time>2019-10-02T09:05:11.000Z</time>
      </trkpt>
      <trkpt lat="50.63231" lon="5.10419">
        <ele>121.5</ele>
        <time>2019-10-02T09:05:13.000Z</time>
      </trkpt>
      <trkpt lat="50.63236" lon="5.10393">
        <ele>120.9</ele>
        <time>2019-10-02T09:05:14.000Z</time>
      </trkpt>
      <trkpt lat="50.63241" lon="5.10359">
        <ele>120.9</ele>
        <time>2019-10-02T09:05:17.000Z</time>
      </trkpt>
      <trkpt lat="50.63248" lon="5.10316">
        <ele>120.9</ele>
        <time>2019-10-02T09:05:20.000Z</time>
      </trkpt>
      <trkpt lat="50.63259" lon="5.1024">
        <ele>121.1</ele>
        <time>2019-10-02T09:05:24.000Z</time>
      </trkpt>
      <trkpt lat="50.63263" lon="5.10208">
        <ele>121</ele>
        <time>2019-10-02T09:05:25.000Z</time>
      </trkpt>
      <trkpt lat="50.6327" lon="5.10186">
        <ele>114</ele>
        <time>2019-10-02T09:05:27.000Z</time>
        <extensions>
          <gpxtpx:TrackPointExtension xmlns:gpxtpx="http://www.garmin.com/xmlschemas/TrackPointExtension/v1">
            <gpxtpx:hr>119</gpxtpx:hr>
          </gpxtpx:TrackPointExtension>
        </extensions>
      </trkpt>
      <trkpt lat="50.63276" lon="5.10147">
        <ele>114</ele>
        <time>2019-10-02T09:05:47.000Z</time>
        <extensions>
          <gpxtpx:TrackPointExtension xmlns:gpxtpx="http://www.garmin.com/xmlschemas/TrackPointExtension/v1">
            <gpxtpx:hr>122</gpxtpx:hr>
          </gpxtpx:TrackPointExtension>
        </extensions>
      </trkpt>
      <trkpt lat="50.63278" lon="5.10117">
        <ele>121.6</ele>
        <time>2019-10-02T09:05:50.000Z</time>
      </trkpt>
      <trkpt lat="50.63284" lon="5.10085">
        <ele>121.7</ele>
        <time>2019-10-02T09:05:53.000Z</time>
      </trkpt>
      <trkpt lat="50.63289" lon="5.1006">
        <ele>121.6</ele>
        <time>2019-10-02T09:05:57.000Z</time>
      </trkpt>
      <trkpt lat="50.633" lon="5.09989">
        <ele>114.80000305176</ele>
        <time>2019-10-02T09:05:58.000Z</time>
        <extensions>
          <gpxtpx:TrackPointExtension xmlns:gpxtpx="http://www.garmin.com/xmlschemas/TrackPointExtension/v1">
            <gpxtpx:hr>130</gpxtpx:hr>
          </gpxtpx:TrackPointExtension>
        </extensions>
      </trkpt>
      <trkpt lat="50.63308" lon="5.0991">
        <ele>120</ele>
        <time>2019-10-02T09:06:02.000Z</time>
      </trkpt>
      <trkpt lat="50.63309" lon="5.09834">
        <ele>119.6</ele>
        <time>2019-10-02T09:06:03.000Z</time>
      </trkpt>
      <trkpt lat="50.63313" lon="5.09741">
        <ele>119.7</ele>
        <time>2019-10-02T09:06:06.000Z</time>
      </trkpt>
      <trkpt lat="50.63315" lon="5.09702">
        <ele>119.8</ele>
        <time>2019-10-02T09:06:17.000Z</time>
      </trkpt>
      <trkpt lat="50.63317" lon="5.09637">
        <ele>121</ele>
        <time>2019-10-02T09:06:24.000Z</time>
      </trkpt>
      <trkpt lat="50.63319" lon="5.09593">
        <ele>121.8</ele>
        <time>2019-10-02T09:06:25.000Z</time>
      </trkpt>
      <trkpt lat="50.63321" lon="5.09535">
        <ele>123.5</ele>
        <time>2019-10-02T09:06:27.000Z</time>
      </trkpt>
      <trkpt lat="50.63322" lon="5.09489">
        <ele>125.1</ele>
        <time>2019-10-02T09:06:30.000Z</time>
      </trkpt>
      <trkpt lat="50.63326" lon="5.09423">
        <ele>125.3</ele>
        <time>2019-10-02T09:06:34.000Z</time>
      </trkpt>
      <trkpt lat="50.63327" lon="5.09403">
        <ele>117.40000152588</ele>
        <time>2019-10-02T09:06:35.000Z</time>
        <extensions>
          <gpxtpx:TrackPointExtension xmlns:gpxtpx="http://www.garmin.com/xmlschemas/TrackPointExtension/v1">
            <gpxtpx:hr>140</gpxtpx:hr>
          </gpxtpx:TrackPointExtension>
        </extensions>
      </trkpt>
      <trkpt lat="50.63323" lon="5.09366">
        <ele>117.80000305176</ele>
        <time>2019-10-02T09:06:38.000Z</time>
        <extensions>
          <gpxtpx:TrackPointExtension xmlns:gpxtpx="http://www.garmin.com/xmlschemas/TrackPointExtension/v1">
            <gpxtpx:hr>140</gpxtpx:hr>
          </gpxtpx:TrackPointExtension>
        </extensions>
      </trkpt>
      <trkpt lat="50.63318" lon="5.09341">
        <ele>118.40000152588</ele>
        <time>2019-10-02T09:06:40.000Z</time>
        <extensions>
          <gpxtpx:TrackPointExtension xmlns:gpxtpx="http://www.garmin.com/xmlschemas/TrackPointExtension/v1">
            <gpxtpx:hr>141</gpxtpx:hr>
          </gpxtpx:TrackPointExtension>
        </extensions>
      </trkpt>
      <trkpt lat="50.63315" lon="5.09327">
        <ele>127.8</ele>
        <time>2019-10-02T09:06:42.000Z</time>
      </trkpt>
      <trkpt lat="50.6331" lon="5.09305">
        <ele>127.5</ele>
        <time>2019-10-02T09:06:45.000Z</time>
      </trkpt>
      <trkpt lat="50.63303" lon="5.09281">
        <ele>127.6</ele>
        <time>2019-10-02T09:06:46.000Z</time>
      </trkpt>
      <trkpt lat="50.6329" lon="5.09249">
        <ele>128.4</ele>
        <time>2019-10-02T09:06:52.000Z</time>
      </trkpt>
      <trkpt lat="50.63266" lon="5.09204">
        <ele>128</ele>
        <time>2019-10-02T09:06:57.000Z</time>
      </trkpt>
      <trkpt lat="50.63258" lon="5.09184">
        <ele>127.8</ele>
        <time>2019-10-02T09:06:59.000Z</time>
      </trkpt>
      <trkpt lat="50.63246" lon="5.0914">
        <ele>118</ele>
        <time>2019-10-02T09:07:00.000Z</time>
        <extensions>
          <gpxtpx:TrackPointExtension xmlns:gpxtpx="http://www.garmin.com/xmlschemas/TrackPointExtension/v1">
            <gpxtpx:hr>133</gpxtpx:hr>
          </gpxtpx:TrackPointExtension>
        </extensions>
      </trkpt>
      <trkpt lat="50.6324" lon="5.09122">
        <ele>117.40000152588</ele>
        <time>2019-10-02T09:07:02.000Z</time>
        <extensions>
          <gpxtpx:TrackPointExtension xmlns:gpxtpx="http://www.garmin.com/xmlschemas/TrackPointExtension/v1">
            <gpxtpx:hr>133</gpxtpx:hr>
          </gpxtpx:TrackPointExtension>
        </extensions>
      </trkpt>
      <trkpt lat="50.63232" lon="5.09106">
        <ele>117.19999694824</ele>
        <time>2019-10-02T09:07:04.000Z</time>
        <extensions>
          <gpxtpx:TrackPointExtension xmlns:gpxtpx="http://www.garmin.com/xmlschemas/TrackPointExtension/v1">
            <gpxtpx:hr>132</gpxtpx:hr>
          </gpxtpx:TrackPointExtension>
        </extensions>
      </trkpt>
      <trkpt lat="50.63213" lon="5.09069">
        <ele>117.19999694824</ele>
        <time>2019-10-02T09:07:06.000Z</time>
        <extensions>
          <gpxtpx:TrackPointExtension xmlns:gpxtpx="http://www.garmin.com/xmlschemas/TrackPointExtension/v1">
            <gpxtpx:hr>130</gpxtpx:hr>
          </gpxtpx:TrackPointExtension>
        </extensions>
      </trkpt>
      <trkpt lat="50.63178" lon="5.09002">
        <ele>126.1</ele>
        <time>2019-10-02T09:07:09.000Z</time>
      </trkpt>
      <trkpt lat="50.63148" lon="5.08943">
        <ele>119.19999694824</ele>
        <time>2019-10-02T09:07:12.000Z</time>
        <extensions>
          <gpxtpx:TrackPointExtension xmlns:gpxtpx="http://www.garmin.com/xmlschemas/TrackPointExtension/v1">
            <gpxtpx:hr>133</gpxtpx:hr>
          </gpxtpx:TrackPointExtension>
        </extensions>
      </trkpt>
      <trkpt lat="50.63141" lon="5.08928">
        <ele>119.40000152588</ele>
        <time>2019-10-02T09:07:13.000Z</time>
        <extensions>
          <gpxtpx:TrackPointExtension xmlns:gpxtpx="http://www.garmin.com/xmlschemas/TrackPointExtension/v1">
            <gpxtpx:hr>133</gpxtpx:hr>
          </gpxtpx:TrackPointExtension>
        </extensions>
      </trkpt>
      <trkpt lat="50.63138" lon="5.0892">
        <ele>119.59999847412</ele>
        <time>2019-10-02T09:07:17.000Z</time>
        <extensions>
          <gpxtpx:TrackPointExtension xmlns:gpxtpx="http://www.garmin.com/xmlschemas/TrackPointExtension/v1">
            <gpxtpx:hr>133</gpxtpx:hr>
          </gpxtpx:TrackPointExtension>
        </extensions>
      </trkpt>
      <trkpt lat="50.63131" lon="5.08902">
        <ele>128.4</ele>
        <time>2019-10-02T09:07:21.000Z</time>
      </trkpt>
      <trkpt lat="50.63128" lon="5.08876">
        <ele>120.40000152588</ele>
        <time>2019-10-02T09:07:22.000Z</time>
        <extensions>
          <gpxtpx:TrackPointExtension xmlns:gpxtpx="http://www.garmin.com/xmlschemas/TrackPointExtension/v1">
            <gpxtpx:hr>132</gpxtpx:hr>
          </gpxtpx:TrackPointExtension>
        </extensions>
      </trkpt>
      <trkpt lat="50.63128" lon="5.08866">
        <ele>129</ele>
        <time>2019-10-02T09:07:26.000Z</time>
      </trkpt>
      <trkpt lat="50.63132" lon="5.08843">
        <ele>129.6</ele>
        <time>2019-10-02T09:07:39.000Z</time>
      </trkpt>
      <trkpt lat="50.63138" lon="5.08828">
        <ele>132</ele>
        <time>2019-10-02T09:07:42.000Z</time>
      </trkpt>
      <trkpt lat="50.63157" lon="5.08808">
        <ele>132.6</ele>
        <time>2019-10-02T09:07:46.000Z</time>
      </trkpt>
      <trkpt lat="50.63168" lon="5.08795">
        <ele>124.40000152588</ele>
        <time>2019-10-02T09:07:58.000Z</time>
        <extensions>
          <gpxtpx:TrackPointExtension xmlns:gpxtpx="http://www.garmin.com/xmlschemas/TrackPointExtension/v1">
            <gpxtpx:hr>137</gpxtpx:hr>
          </gpxtpx:TrackPointExtension>
        </extensions>
      </trkpt>
      <trkpt lat="50.63175" lon="5.08789">
        <ele>124.80000305176</ele>
        <time>2019-10-02T09:07:59.000Z</time>
        <extensions>
          <gpxtpx:TrackPointExtension xmlns:gpxtpx="http://www.garmin.com/xmlschemas/TrackPointExtension/v1">
            <gpxtpx:hr>138</gpxtpx:hr>
          </gpxtpx:TrackPointExtension>
        </extensions>
      </trkpt>
      <trkpt lat="50.63193" lon="5.08774">
        <ele>126</ele>
        <time>2019-10-02T09:08:02.000Z</time>
        <extensions>
          <gpxtpx:TrackPointExtension xmlns:gpxtpx="http://www.garmin.com/xmlschemas/TrackPointExtension/v1">
            <gpxtpx:hr>141</gpxtpx:hr>
          </gpxtpx:TrackPointExtension>
        </extensions>
      </trkpt>
      <trkpt lat="50.63205" lon="5.08765">
        <ele>127</ele>
        <time>2019-10-02T09:08:04.000Z</time>
        <extensions>
          <gpxtpx:TrackPointExtension xmlns:gpxtpx="http://www.garmin.com/xmlschemas/TrackPointExtension/v1">
            <gpxtpx:hr>143</gpxtpx:hr>
          </gpxtpx:TrackPointExtension>
        </extensions>
      </trkpt>
      <trkpt lat="50.63209" lon="5.08763">
        <ele>127.19999694824</ele>
        <time>2019-10-02T09:08:05.000Z</time>
        <extensions>
          <gpxtpx:TrackPointExtension xmlns:gpxtpx="http://www.garmin.com/xmlschemas/TrackPointExtension/v1">
            <gpxtpx:hr>143</gpxtpx:hr>
          </gpxtpx:TrackPointExtension>
        </extensions>
      </trkpt>
      <trkpt lat="50.63226" lon="5.08754">
        <ele>128.39999389648</ele>
        <time>2019-10-02T09:08:06.000Z</time>
        <extensions>
          <gpxtpx:TrackPointExtension xmlns:gpxtpx="http://www.garmin.com/xmlschemas/TrackPointExtension/v1">
            <gpxtpx:hr>145</gpxtpx:hr>
          </gpxtpx:TrackPointExtension>
        </extensions>
      </trkpt>
      <trkpt lat="50.63239" lon="5.08747">
        <ele>129</ele>
        <time>2019-10-02T09:08:16.000Z</time>
        <extensions>
          <gpxtpx:TrackPointExtension xmlns:gpxtpx="http://www.garmin.com/xmlschemas/TrackPointExtension/v1">
            <gpxtpx:hr>146</gpxtpx:hr>
          </gpxtpx:TrackPointExtension>
        </extensions>
      </trkpt>
      <trkpt lat="50.63252" lon="5.0874">
        <ele>129.60000610352</ele>
        <time>2019-10-02T09:08:24.000Z</time>
        <extensions>
          <gpxtpx:TrackPointExtension xmlns:gpxtpx="http://www.garmin.com/xmlschemas/TrackPointExtension/v1">
            <gpxtpx:hr>147</gpxtpx:hr>
          </gpxtpx:TrackPointExtension>
        </extensions>
      </trkpt>
      <trkpt lat="50.63275" lon="5.0873">
        <ele>130.80000305176</ele>
        <time>2019-10-02T09:08:26.000Z</time>
        <extensions>
          <gpxtpx:TrackPointExtension xmlns:gpxtpx="http://www.garmin.com/xmlschemas/TrackPointExtension/v1">
            <gpxtpx:hr>149</gpxtpx:hr>
          </gpxtpx:TrackPointExtension>
        </extensions>
      </trkpt>
      <trkpt lat="50.63284" lon="5.08724">
        <ele>131.60000610352</ele>
        <time>2019-10-02T09:08:35.000Z</time>
        <extensions>
          <gpxtpx:TrackPointExtension xmlns:gpxtpx="http://www.garmin.com/xmlschemas/TrackPointExtension/v1">
            <gpxtpx:hr>149</gpxtpx:hr>
          </gpxtpx:TrackPointExtension>
        </extensions>
      </trkpt>
      <trkpt lat="50.63287" lon="5.08719">
        <ele>132</ele>
        <time>2019-10-02T09:08:37.000Z</time>
        <extensions>
          <gpxtpx:TrackPointExtension xmlns:gpxtpx="http://www.garmin.com/xmlschemas/TrackPointExtension/v1">
            <gpxtpx:hr>150</gpxtpx:hr>
          </gpxtpx:TrackPointExtension>
        </extensions>
      </trkpt>
      <trkpt lat="50.63289" lon="5.08713">
        <ele>132.39999389648</ele>
        <time>2019-10-02T09:08:48.000Z</time>
        <extensions>
          <gpxtpx:TrackPointExtension xmlns:gpxtpx="http://www.garmin.com/xmlschemas/TrackPointExtension/v1">
            <gpxtpx:hr>150</gpxtpx:hr>
          </gpxtpx:TrackPointExtension>
        </extensions>
      </trkpt>
      <trkpt lat="50.63299" lon="5.08687">
        <ele>133.19999694824</ele>
        <time>2019-10-02T09:08:55.000Z</time>
        <extensions>
          <gpxtpx:TrackPointExtension xmlns:gpxtpx="http://www.garmin.com/xmlschemas/TrackPointExtension/v1">
            <gpxtpx:hr>151</gpxtpx:hr>
          </gpxtpx:TrackPointExtension>
        </extensions>
      </trkpt>
      <trkpt lat="50.63308" lon="5.08659">
        <ele>134.19999694824</ele>
        <time>2019-10-02T09:09:01.000Z</time>
        <extensions>
          <gpxtpx:TrackPointExtension xmlns:gpxtpx="http://www.garmin.com/xmlschemas/TrackPointExtension/v1">
            <gpxtpx:hr>151</gpxtpx:hr>
          </gpxtpx:TrackPointExtension>
        </extensions>
      </trkpt>
      <trkpt lat="50.63327" lon="5.08604">
        <ele>134.80000305176</ele>
        <time>2019-10-02T09:09:02.000Z</time>
        <extensions>
          <gpxtpx:TrackPointExtension xmlns:gpxtpx="http://www.garmin.com/xmlschemas/TrackPointExtension/v1">
            <gpxtpx:hr>151</gpxtpx:hr>
          </gpxtpx:TrackPointExtension>
        </extensions>
      </trkpt>
      <trkpt lat="50.63334" lon="5.08576">
        <ele>144.8</ele>
        <time>2019-10-02T09:09:10.000Z</time>
      </trkpt>
      <trkpt lat="50.63335" lon="5.08544">
        <ele>143.7</ele>
        <time>2019-10-02T09:09:14.000Z</time>
      </trkpt>
      <trkpt lat="50.63344" lon="5.08449">
        <ele>142.1</ele>
        <time>2019-10-02T09:09:16.000Z</time>
      </trkpt>
      <trkpt lat="50.63348" lon="5.084">
        <ele>142.8</ele>
        <time>2019-10-02T09:09:32.000Z</time>
      </trkpt>
      <trkpt lat="50.6335" lon="5.0837">
        <ele>143.1</ele>
        <time>2019-10-02T09:09:34.000Z</time>
      </trkpt>
      <trkpt lat="50.63353" lon="5.08332">
        <ele>143</ele>
        <time>2019-10-02T09:09:37.000Z</time>
      </trkpt>
      <trkpt lat="50.63354" lon="5.08307">
        <ele>143</ele>
        <time>2019-10-02T09:09:42.000Z</time>
      </trkpt>
      <trkpt lat="50.63356" lon="5.08279">
        <ele>142.8</ele>
        <time>2019-10-02T09:09:44.000Z</time>
      </trkpt>
      <trkpt lat="50.63358" lon="5.08252">
        <ele>142.6</ele>
        <time>2019-10-02T09:09:46.000Z</time>
      </trkpt>
      <trkpt lat="50.6336" lon="5.08221">
        <ele>141.8</ele>
        <time>2019-10-02T09:09:50.000Z</time>
      </trkpt>
      <trkpt lat="50.63363" lon="5.08184">
        <ele>141.4</ele>
        <time>2019-10-02T09:09:51.000Z</time>
      </trkpt>
      <trkpt lat="50.63368" lon="5.08142">
        <ele>140.1</ele>
        <time>2019-10-02T09:09:54.000Z</time>
      </trkpt>
      <trkpt lat="50.63371" lon="5.08107">
        <ele>139.7</ele>
        <time>2019-10-02T09:09:57.000Z</time>
      </trkpt>
      <trkpt lat="50.63378" lon="5.08067">
        <ele>138.1</ele>
        <time>2019-10-02T09:10:00.000Z</time>
      </trkpt>
      <trkpt lat="50.63386" lon="5.08042">
        <ele>137.8</ele>
        <time>2019-10-02T09:10:04.000Z</time>
      </trkpt>
      <trkpt lat="50.63395" lon="5.0802">
        <ele>137.5</ele>
        <time>2019-10-02T09:10:11.000Z</time>
      </trkpt>
      <trkpt lat="50.63405" lon="5.08006">
        <ele>132.80000305176</ele>
        <time>2019-10-02T09:10:12.000Z</time>
        <extensions>
          <gpxtpx:TrackPointExtension xmlns:gpxtpx="http://www.garmin.com/xmlschemas/TrackPointExtension/v1">
            <gpxtpx:hr>117</gpxtpx:hr>
          </gpxtpx:TrackPointExtension>
        </extensions>
      </trkpt>
      <trkpt lat="50.6341" lon="5.07996">
        <ele>132.60000610352</ele>
        <time>2019-10-02T09:10:17.000Z</time>
        <extensions>
          <gpxtpx:TrackPointExtension xmlns:gpxtpx="http://www.garmin.com/xmlschemas/TrackPointExtension/v1">
            <gpxtpx:hr>116</gpxtpx:hr>
          </gpxtpx:TrackPointExtension>
        </extensions>
      </trkpt>
      <trkpt lat="50.63419" lon="5.07978">
        <ele>138</ele>
        <time>2019-10-02T09:10:23.000Z</time>
      </trkpt>
      <trkpt lat="50.63422" lon="5.07965">
        <ele>131.80000305176</ele>
        <time>2019-10-02T09:10:31.000Z</time>
        <extensions>
          <gpxtpx:TrackPointExtension xmlns:gpxtpx="http://www.garmin.com/xmlschemas/TrackPointExtension/v1">
            <gpxtpx:hr>112</gpxtpx:hr>
          </gpxtpx:TrackPointExtension>
        </extensions>
      </trkpt>
      <trkpt lat="50.63424" lon="5.07954">
        <ele>131.60000610352</ele>
        <time>2019-10-02T09:10:36.000Z</time>
        <extensions>
          <gpxtpx:TrackPointExtension xmlns:gpxtpx="http://www.garmin.com/xmlschemas/TrackPointExtension/v1">
            <gpxtpx:hr>112</gpxtpx:hr>
          </gpxtpx:TrackPointExtension>
        </extensions>
      </trkpt>
      <trkpt lat="50.63427" lon="5.0792">
        <ele>131</ele>
        <time>2019-10-02T09:10:39.000Z</time>
        <extensions>
          <gpxtpx:TrackPointExtension xmlns:gpxtpx="http://www.garmin.com/xmlschemas/TrackPointExtension/v1">
            <gpxtpx:hr>113</gpxtpx:hr>
          </gpxtpx:TrackPointExtension>
        </extensions>
      </trkpt>
      <trkpt lat="50.63427" lon="5.07909">
        <ele>130.60000610352</ele>
        <time>2019-10-02T09:10:40.000Z</time>
        <extensions>
          <gpxtpx:TrackPointExtension xmlns:gpxtpx="http://www.garmin.com/xmlschemas/TrackPointExtension/v1">
            <gpxtpx:hr>113</gpxtpx:hr>
          </gpxtpx:TrackPointExtension>
        </extensions>
      </trkpt>
      <trkpt lat="50.63427" lon="5.07898">
        <ele>130.39999389648</ele>
        <time>2019-10-02T09:11:32.000Z</time>
        <extensions>
          <gpxtpx:TrackPointExtension xmlns:gpxtpx="http://www.garmin.com/xmlschemas/TrackPointExtension/v1">
            <gpxtpx:hr>114</gpxtpx:hr>
          </gpxtpx:TrackPointExtension>
        </extensions>
      </trkpt>
      <trkpt lat="50.63427" lon="5.07833">
        <ele>141.3</ele>
        <time>2019-10-02T09:11:33.000Z</time>
      </trkpt>
      <trkpt lat="50.63428" lon="5.07793">
        <ele>130.60000610352</ele>
        <time>2019-10-02T09:11:40.000Z</time>
        <extensions>
          <gpxtpx:TrackPointExtension xmlns:gpxtpx="http://www.garmin.com/xmlschemas/TrackPointExtension/v1">
            <gpxtpx:hr>119</gpxtpx:hr>
          </gpxtpx:TrackPointExtension>
        </extensions>
      </trkpt>
      <trkpt lat="50.63429" lon="5.07766">
        <ele>131.19999694824</ele>
        <time>2019-10-02T09:11:46.000Z</time>
        <extensions>
          <gpxtpx:TrackPointExtension xmlns:gpxtpx="http://www.garmin.com/xmlschemas/TrackPointExtension/v1">
            <gpxtpx:hr>122</gpxtpx:hr>
          </gpxtpx:TrackPointExtension>
        </extensions>
      </trkpt>
      <trkpt lat="50.63429" lon="5.07748">
        <ele>131.60000610352</ele>
        <time>2019-10-02T09:11:49.000Z</time>
        <extensions>
          <gpxtpx:TrackPointExtension xmlns:gpxtpx="http://www.garmin.com/xmlschemas/TrackPointExtension/v1">
            <gpxtpx:hr>124</gpxtpx:hr>
          </gpxtpx:TrackPointExtension>
        </extensions>
      </trkpt>
      <trkpt lat="50.6343" lon="5.0772">
        <ele>132.19999694824</ele>
        <time>2019-10-02T09:11:54.000Z</time>
        <extensions>
          <gpxtpx:TrackPointExtension xmlns:gpxtpx="http://www.garmin.com/xmlschemas/TrackPointExtension/v1">
            <gpxtpx:hr>128</gpxtpx:hr>
          </gpxtpx:TrackPointExtension>
        </extensions>
      </trkpt>
      <trkpt lat="50.6343" lon="5.07711">
        <ele>132.39999389648</ele>
        <time>2019-10-02T09:12:16.000Z</time>
        <extensions>
          <gpxtpx:TrackPointExtension xmlns:gpxtpx="http://www.garmin.com/xmlschemas/TrackPointExtension/v1">
            <gpxtpx:hr>129</gpxtpx:hr>
          </gpxtpx:TrackPointExtension>
        </extensions>
      </trkpt>
      <trkpt lat="50.63428" lon="5.07693">
        <ele>132.80000305176</ele>
        <time>2019-10-02T09:12:21.000Z</time>
        <extensions>
          <gpxtpx:TrackPointExtension xmlns:gpxtpx="http://www.garmin.com/xmlschemas/TrackPointExtension/v1">
            <gpxtpx:hr>131</gpxtpx:hr>
          </gpxtpx:TrackPointExtension>
        </extensions>
      </trkpt>
      <trkpt lat="50.63424" lon="5.07658">
        <ele>133.60000610352</ele>
        <time>2019-10-02T09:12:25.000Z</time>
        <extensions>
          <gpxtpx:TrackPointExtension xmlns:gpxtpx="http://www.garmin.com/xmlschemas/TrackPointExtension/v1">
            <gpxtpx:hr>134</gpxtpx:hr>
          </gpxtpx:TrackPointExtension>
        </extensions>
      </trkpt>
      <trkpt lat="50.63419" lon="5.07626">
        <ele>142.8</ele>
        <time>2019-10-02T09:12:34.000Z</time>
      </trkpt>
      <trkpt lat="50.63413" lon="5.07581">
        <ele>142.5</ele>
        <time>2019-10-02T09:12:37.000Z</time>
      </trkpt>
      <trkpt lat="50.63407" lon="5.07555">
        <ele>141.2</ele>
        <time>2019-10-02T09:12:39.000Z</time>
      </trkpt>
      <trkpt lat="50.63393" lon="5.07486">
        <ele>135.60000610352</ele>
        <time>2019-10-02T09:12:45.000Z</time>
        <extensions>
          <gpxtpx:TrackPointExtension xmlns:gpxtpx="http://www.garmin.com/xmlschemas/TrackPointExtension/v1">
            <gpxtpx:hr>138</gpxtpx:hr>
          </gpxtpx:TrackPointExtension>
        </extensions>
      </trkpt>
      <trkpt lat="50.63381" lon="5.07435">
        <ele>141.6</ele>
        <time>2019-10-02T09:12:47.000Z</time>
      </trkpt>
      <trkpt lat="50.63375" lon="5.07406">
        <ele>141.8</ele>
        <time>2019-10-02T09:12:49.000Z</time>
      </trkpt>
      <trkpt lat="50.6336" lon="5.07397">
        <ele>141.5</ele>
        <time>2019-10-02T09:12:55.000Z</time>
      </trkpt>
      <trkpt lat="50.63345" lon="5.07387">
        <ele>141.4</ele>
        <time>2019-10-02T09:12:56.000Z</time>
      </trkpt>
      <trkpt lat="50.63331" lon="5.07374">
        <ele>138</ele>
        <time>2019-10-02T09:13:08.000Z</time>
      </trkpt>
      <trkpt lat="50.63318" lon="5.07363">
        <ele>137.9</ele>
        <time>2019-10-02T09:13:12.000Z</time>
      </trkpt>
      <trkpt lat="50.63303" lon="5.07351">
        <ele>137.3</ele>
        <time>2019-10-02T09:13:13.000Z</time>
      </trkpt>
      <trkpt lat="50.63294" lon="5.07343">
        <ele>136.8</ele>
        <time>2019-10-02T09:13:15.000Z</time>
      </trkpt>
      <trkpt lat="50.6328" lon="5.07333">
        <ele>135.9</ele>
        <time>2019-10-02T09:13:18.000Z</time>
      </trkpt>
      <trkpt lat="50.63265" lon="5.07325">
        <ele>135.4</ele>
        <time>2019-10-02T09:13:20.000Z</time>
      </trkpt>
      <trkpt lat="50.63247" lon="5.07312">
        <ele>131.4</ele>
        <time>2019-10-02T09:13:22.000Z</time>
      </trkpt>
      <trkpt lat="50.63234" lon="5.07298">
        <ele>130.9</ele>
        <time>2019-10-02T09:13:29.000Z</time>
      </trkpt>
      <trkpt lat="50.6322" lon="5.07278">
        <ele>130.6</ele>
        <time>2019-10-02T09:13:35.000Z</time>
      </trkpt>
      <trkpt lat="50.63211" lon="5.07247">
        <ele>131.2</ele>
        <time>2019-10-02T09:13:36.000Z</time>
      </trkpt>
      <trkpt lat="50.63203" lon="5.07218">
        <ele>130.8</ele>
        <time>2019-10-02T09:13:41.000Z</time>
      </trkpt>
      <trkpt lat="50.63191" lon="5.07181">
        <ele>130.1</ele>
        <time>2019-10-02T09:13:47.000Z</time>
      </trkpt>
      <trkpt lat="50.63178" lon="5.07136">
        <ele>124.19999694824</ele>
        <time>2019-10-02T09:13:52.000Z</time>
        <extensions>
          <gpxtpx:TrackPointExtension xmlns:gpxtpx="http://www.garmin.com/xmlschemas/TrackPointExtension/v1">
            <gpxtpx:hr>102</gpxtpx:hr>
          </gpxtpx:TrackPointExtension>
        </extensions>
      </trkpt>
      <trkpt lat="50.6317" lon="5.07112">
        <ele>123.80000305176</ele>
        <time>2019-10-02T09:13:58.000Z</time>
        <extensions>
          <gpxtpx:TrackPointExtension xmlns:gpxtpx="http://www.garmin.com/xmlschemas/TrackPointExtension/v1">
            <gpxtpx:hr>102</gpxtpx:hr>
          </gpxtpx:TrackPointExtension>
        </extensions>
      </trkpt>
      <trkpt lat="50.63163" lon="5.0709">
        <ele>122.80000305176</ele>
        <time>2019-10-02T09:14:04.000Z</time>
        <extensions>
          <gpxtpx:TrackPointExtension xmlns:gpxtpx="http://www.garmin.com/xmlschemas/TrackPointExtension/v1">
            <gpxtpx:hr>103</gpxtpx:hr>
          </gpxtpx:TrackPointExtension>
        </extensions>
      </trkpt>
      <trkpt lat="50.63154" lon="5.07059">
        <ele>121.80000305176</ele>
        <time>2019-10-02T09:14:19.000Z</time>
        <extensions>
          <gpxtpx:TrackPointExtension xmlns:gpxtpx="http://www.garmin.com/xmlschemas/TrackPointExtension/v1">
            <gpxtpx:hr>105</gpxtpx:hr>
          </gpxtpx:TrackPointExtension>
        </extensions>
      </trkpt>
      <trkpt lat="50.63151" lon="5.0705">
        <ele>121.80000305176</ele>
        <time>2019-10-02T09:14:23.000Z</time>
        <extensions>
          <gpxtpx:TrackPointExtension xmlns:gpxtpx="http://www.garmin.com/xmlschemas/TrackPointExtension/v1">
            <gpxtpx:hr>105</gpxtpx:hr>
          </gpxtpx:TrackPointExtension>
        </extensions>
      </trkpt>
      <trkpt lat="50.63139" lon="5.07013">
        <ele>121.59999847412</ele>
        <time>2019-10-02T09:14:25.000Z</time>
        <extensions>
          <gpxtpx:TrackPointExtension xmlns:gpxtpx="http://www.garmin.com/xmlschemas/TrackPointExtension/v1">
            <gpxtpx:hr>108</gpxtpx:hr>
          </gpxtpx:TrackPointExtension>
        </extensions>
      </trkpt>
      <trkpt lat="50.6313" lon="5.06987">
        <ele>121.80000305176</ele>
        <time>2019-10-02T09:14:48.000Z</time>
        <extensions>
          <gpxtpx:TrackPointExtension xmlns:gpxtpx="http://www.garmin.com/xmlschemas/TrackPointExtension/v1">
            <gpxtpx:hr>111</gpxtpx:hr>
          </gpxtpx:TrackPointExtension>
        </extensions>
      </trkpt>
      <trkpt lat="50.6311" lon="5.06946">
        <ele>122.59999847412</ele>
        <time>2019-10-02T09:14:49.000Z</time>
        <extensions>
          <gpxtpx:TrackPointExtension xmlns:gpxtpx="http://www.garmin.com/xmlschemas/TrackPointExtension/v1">
            <gpxtpx:hr>113</gpxtpx:hr>
          </gpxtpx:TrackPointExtension>
        </extensions>
      </trkpt>
      <trkpt lat="50.63085" lon="5.0691">
        <ele>122.80000305176</ele>
        <time>2019-10-02T09:14:51.000Z</time>
        <extensions>
          <gpxtpx:TrackPointExtension xmlns:gpxtpx="http://www.garmin.com/xmlschemas/TrackPointExtension/v1">
            <gpxtpx:hr>114</gpxtpx:hr>
          </gpxtpx:TrackPointExtension>
        </extensions>
      </trkpt>
      <trkpt lat="50.63081" lon="5.06905">
        <ele>122.80000305176</ele>
        <time>2019-10-02T09:14:57.000Z</time>
        <extensions>
          <gpxtpx:TrackPointExtension xmlns:gpxtpx="http://www.garmin.com/xmlschemas/TrackPointExtension/v1">
            <gpxtpx:hr>114</gpxtpx:hr>
          </gpxtpx:TrackPointExtension>
        </extensions>
      </trkpt>
      <trkpt lat="50.63077" lon="5.06902">
        <ele>122.80000305176</ele>
        <time>2019-10-02T09:15:01.000Z</time>
        <extensions>
          <gpxtpx:TrackPointExtension xmlns:gpxtpx="http://www.garmin.com/xmlschemas/TrackPointExtension/v1">
            <gpxtpx:hr>114</gpxtpx:hr>
          </gpxtpx:TrackPointExtension>
        </extensions>
      </trkpt>
      <trkpt lat="50.63064" lon="5.06903">
        <ele>127.5</ele>
        <time>2019-10-02T09:15:03.000Z</time>
      </trkpt>
      <trkpt lat="50.6305" lon="5.06883">
        <ele>122</ele>
        <time>2019-10-02T09:15:04.000Z</time>
        <extensions>
          <gpxtpx:TrackPointExtension xmlns:gpxtpx="http://www.garmin.com/xmlschemas/TrackPointExtension/v1">
            <gpxtpx:hr>114</gpxtpx:hr>
          </gpxtpx:TrackPointExtension>
        </extensions>
      </trkpt>
      <trkpt lat="50.63035" lon="5.06864">
        <ele>127.2</ele>
        <time>2019-10-02T09:15:07.000Z</time>
      </trkpt>
      <trkpt lat="50.63017" lon="5.06838">
        <ele>126.7</ele>
        <time>2019-10-02T09:15:08.000Z</time>
      </trkpt>
      <trkpt lat="50.63011" lon="5.06822">
        <ele>128.1</ele>
        <time>2019-10-02T09:15:11.000Z</time>
      </trkpt>
      <trkpt lat="50.63" lon="5.06798">
        <ele>126</ele>
        <time>2019-10-02T09:15:12.000Z</time>
      </trkpt>
      <trkpt lat="50.62998" lon="5.06776">
        <ele>118.59999847412</ele>
        <time>2019-10-02T09:15:17.000Z</time>
        <extensions>
          <gpxtpx:TrackPointExtension xmlns:gpxtpx="http://www.garmin.com/xmlschemas/TrackPointExtension/v1">
            <gpxtpx:hr>116</gpxtpx:hr>
          </gpxtpx:TrackPointExtension>
        </extensions>
      </trkpt>
      <trkpt lat="50.62997" lon="5.06767">
        <ele>118.59999847412</ele>
        <time>2019-10-02T09:15:20.000Z</time>
        <extensions>
          <gpxtpx:TrackPointExtension xmlns:gpxtpx="http://www.garmin.com/xmlschemas/TrackPointExtension/v1">
            <gpxtpx:hr>116</gpxtpx:hr>
          </gpxtpx:TrackPointExtension>
        </extensions>
      </trkpt>
      <trkpt lat="50.62994" lon="5.06724">
        <ele>129.2</ele>
        <time>2019-10-02T09:15:23.000Z</time>
      </trkpt>
      <trkpt lat="50.6299" lon="5.06689">
        <ele>130.1</ele>
        <time>2019-10-02T09:15:27.000Z</time>
      </trkpt>
      <trkpt lat="50.62986" lon="5.06662">
        <ele>131.6</ele>
        <time>2019-10-02T09:15:30.000Z</time>
      </trkpt>
      <trkpt lat="50.62983" lon="5.06634">
        <ele>121.19999694824</ele>
        <time>2019-10-02T09:15:33.000Z</time>
        <extensions>
          <gpxtpx:TrackPointExtension xmlns:gpxtpx="http://www.garmin.com/xmlschemas/TrackPointExtension/v1">
            <gpxtpx:hr>133</gpxtpx:hr>
          </gpxtpx:TrackPointExtension>
        </extensions>
      </trkpt>
      <trkpt lat="50.6298" lon="5.06618">
        <ele>122</ele>
        <time>2019-10-02T09:15:34.000Z</time>
        <extensions>
          <gpxtpx:TrackPointExtension xmlns:gpxtpx="http://www.garmin.com/xmlschemas/TrackPointExtension/v1">
            <gpxtpx:hr>135</gpxtpx:hr>
          </gpxtpx:TrackPointExtension>
        </extensions>
      </trkpt>
      <trkpt lat="50.62977" lon="5.06602">
        <ele>122.19999694824</ele>
        <time>2019-10-02T09:15:38.000Z</time>
        <extensions>
          <gpxtpx:TrackPointExtension xmlns:gpxtpx="http://www.garmin.com/xmlschemas/TrackPointExtension/v1">
            <gpxtpx:hr>137</gpxtpx:hr>
          </gpxtpx:TrackPointExtension>
        </extensions>
      </trkpt>
      <trkpt lat="50.62971" lon="5.06578">
        <ele>123</ele>
        <time>2019-10-02T09:15:39.000Z</time>
        <extensions>
          <gpxtpx:TrackPointExtension xmlns:gpxtpx="http://www.garmin.com/xmlschemas/TrackPointExtension/v1">
            <gpxtpx:hr>140</gpxtpx:hr>
          </gpxtpx:TrackPointExtension>
        </extensions>
      </trkpt>
      <trkpt lat="50.62966" lon="5.06561">
        <ele>123.40000152588</ele>
        <time>2019-10-02T09:15:42.000Z</time>
        <extensions>
          <gpxtpx:TrackPointExtension xmlns:gpxtpx="http://www.garmin.com/xmlschemas/TrackPointExtension/v1">
            <gpxtpx:hr>142</gpxtpx:hr>
          </gpxtpx:TrackPointExtension>
        </extensions>
      </trkpt>
      <trkpt lat="50.6296" lon="5.06527">
        <ele>124.40000152588</ele>
        <time>2019-10-02T09:15:43.000Z</time>
        <extensions>
          <gpxtpx:TrackPointExtension xmlns:gpxtpx="http://www.garmin.com/xmlschemas/TrackPointExtension/v1">
            <gpxtpx:hr>144</gpxtpx:hr>
          </gpxtpx:TrackPointExtension>
        </extensions>
      </trkpt>
      <trkpt lat="50.62959" lon="5.06509">
        <ele>125.19999694824</ele>
        <time>2019-10-02T09:15:50.000Z</time>
        <extensions>
          <gpxtpx:TrackPointExtension xmlns:gpxtpx="http://www.garmin.com/xmlschemas/TrackPointExtension/v1">
            <gpxtpx:hr>146</gpxtpx:hr>
          </gpxtpx:TrackPointExtension>
        </extensions>
      </trkpt>
      <trkpt lat="50.62958" lon="5.06499">
        <ele>125.59999847412</ele>
        <time>2019-10-02T09:15:55.000Z</time>
        <extensions>
          <gpxtpx:TrackPointExtension xmlns:gpxtpx="http://www.garmin.com/xmlschemas/TrackPointExtension/v1">
            <gpxtpx:hr>147</gpxtpx:hr>
          </gpxtpx:TrackPointExtension>
        </extensions>
      </trkpt>
      <trkpt lat="50.6296" lon="5.06463">
        <ele>126.59999847412</ele>
        <time>2019-10-02T09:15:59.000Z</time>
        <extensions>
          <gpxtpx:TrackPointExtension xmlns:gpxtpx="http://www.garmin.com/xmlschemas/TrackPointExtension/v1">
            <gpxtpx:hr>149</gpxtpx:hr>
          </gpxtpx:TrackPointExtension>
        </extensions>
      </trkpt>
      <trkpt lat="50.62962" lon="5.06454">
        <ele>126.80000305176</ele>
        <time>2019-10-02T09:16:00.000Z</time>
        <extensions>
          <gpxtpx:TrackPointExtension xmlns:gpxtpx="http://www.garmin.com/xmlschemas/TrackPointExtension/v1">
            <gpxtpx:hr>149</gpxtpx:hr>
          </gpxtpx:TrackPointExtension>
        </extensions>
      </trkpt>
      <trkpt lat="50.62971" lon="5.06406">
        <ele>128</ele>
        <time>2019-10-02T09:16:02.000Z</time>
        <extensions>
          <gpxtpx:TrackPointExtension xmlns:gpxtpx="http://www.garmin.com/xmlschemas/TrackPointExtension/v1">
            <gpxtpx:hr>151</gpxtpx:hr>
          </gpxtpx:TrackPointExtension>
        </extensions>
      </trkpt>
      <trkpt lat="50.62973" lon="5.06398">
        <ele>128.19999694824</ele>
        <time>2019-10-02T09:16:06.000Z</time>
        <extensions>
          <gpxtpx:TrackPointExtension xmlns:gpxtpx="http://www.garmin.com/xmlschemas/TrackPointExtension/v1">
            <gpxtpx:hr>151</gpxtpx:hr>
          </gpxtpx:TrackPointExtension>
        </extensions>
      </trkpt>
      <trkpt lat="50.62987" lon="5.06352">
        <ele>129.19999694824</ele>
        <time>2019-10-02T09:16:07.000Z</time>
        <extensions>
          <gpxtpx:TrackPointExtension xmlns:gpxtpx="http://www.garmin.com/xmlschemas/TrackPointExtension/v1">
            <gpxtpx:hr>153</gpxtpx:hr>
          </gpxtpx:TrackPointExtension>
        </extensions>
      </trkpt>
      <trkpt lat="50.62992" lon="5.06337">
        <ele>129.80000305176</ele>
        <time>2019-10-02T09:16:11.000Z</time>
        <extensions>
          <gpxtpx:TrackPointExtension xmlns:gpxtpx="http://www.garmin.com/xmlschemas/TrackPointExtension/v1">
            <gpxtpx:hr>154</gpxtpx:hr>
          </gpxtpx:TrackPointExtension>
        </extensions>
      </trkpt>
      <trkpt lat="50.62998" lon="5.06321">
        <ele>130.39999389648</ele>
        <time>2019-10-02T09:16:13.000Z</time>
        <extensions>
          <gpxtpx:TrackPointExtension xmlns:gpxtpx="http://www.garmin.com/xmlschemas/TrackPointExtension/v1">
            <gpxtpx:hr>154</gpxtpx:hr>
          </gpxtpx:TrackPointExtension>
        </extensions>
      </trkpt>
      <trkpt lat="50.63009" lon="5.06289">
        <ele>131.80000305176</ele>
        <time>2019-10-02T09:16:15.000Z</time>
        <extensions>
          <gpxtpx:TrackPointExtension xmlns:gpxtpx="http://www.garmin.com/xmlschemas/TrackPointExtension/v1">
            <gpxtpx:hr>155</gpxtpx:hr>
          </gpxtpx:TrackPointExtension>
        </extensions>
      </trkpt>
      <trkpt lat="50.63014" lon="5.06273">
        <ele>132.19999694824</ele>
        <time>2019-10-02T09:16:18.000Z</time>
        <extensions>
          <gpxtpx:TrackPointExtension xmlns:gpxtpx="http://www.garmin.com/xmlschemas/TrackPointExtension/v1">
            <gpxtpx:hr>156</gpxtpx:hr>
          </gpxtpx:TrackPointExtension>
        </extensions>
      </trkpt>
      <trkpt lat="50.63027" lon="5.06242">
        <ele>132.80000305176</ele>
        <time>2019-10-02T09:16:22.000Z</time>
        <extensions>
          <gpxtpx:TrackPointExtension xmlns:gpxtpx="http://www.garmin.com/xmlschemas/TrackPointExtension/v1">
            <gpxtpx:hr>156</gpxtpx:hr>
          </gpxtpx:TrackPointExtension>
        </extensions>
      </trkpt>
      <trkpt lat="50.63042" lon="5.06213">
        <ele>133.19999694824</ele>
        <time>2019-10-02T09:16:23.000Z</time>
        <extensions>
          <gpxtpx:TrackPointExtension xmlns:gpxtpx="http://www.garmin.com/xmlschemas/TrackPointExtension/v1">
            <gpxtpx:hr>156</gpxtpx:hr>
          </gpxtpx:TrackPointExtension>
        </extensions>
      </trkpt>
      <trkpt lat="50.63073" lon="5.06168">
        <ele>133.80000305176</ele>
        <time>2019-10-02T09:16:27.000Z</time>
        <extensions>
          <gpxtpx:TrackPointExtension xmlns:gpxtpx="http://www.garmin.com/xmlschemas/TrackPointExtension/v1">
            <gpxtpx:hr>157</gpxtpx:hr>
          </gpxtpx:TrackPointExtension>
        </extensions>
      </trkpt>
      <trkpt lat="50.63083" lon="5.06155">
        <ele>133.80000305176</ele>
        <time>2019-10-02T09:16:28.000Z</time>
        <extensions>
          <gpxtpx:TrackPointExtension xmlns:gpxtpx="http://www.garmin.com/xmlschemas/TrackPointExtension/v1">
            <gpxtpx:hr>157</gpxtpx:hr>
          </gpxtpx:TrackPointExtension>
        </extensions>
      </trkpt>
      <trkpt lat="50.63109" lon="5.06118">
        <ele>134</ele>
        <time>2019-10-02T09:16:29.000Z</time>
        <extensions>
          <gpxtpx:TrackPointExtension xmlns:gpxtpx="http://www.garmin.com/xmlschemas/TrackPointExtension/v1">
            <gpxtpx:hr>156</gpxtpx:hr>
          </gpxtpx:TrackPointExtension>
        </extensions>
      </trkpt>
      <trkpt lat="50.63113" lon="5.06111">
        <ele>134</ele>
        <time>2019-10-02T09:16:31.000Z</time>
        <extensions>
          <gpxtpx:TrackPointExtension xmlns:gpxtpx="http://www.garmin.com/xmlschemas/TrackPointExtension/v1">
            <gpxtpx:hr>156</gpxtpx:hr>
          </gpxtpx:TrackPointExtension>
        </extensions>
      </trkpt>
      <trkpt lat="50.63119" lon="5.06103">
        <ele>141</ele>
        <time>2019-10-02T09:16:36.000Z</time>
      </trkpt>
      <trkpt lat="50.63115" lon="5.06077">
        <ele>140.2</ele>
        <time>2019-10-02T09:16:38.000Z</time>
      </trkpt>
      <trkpt lat="50.63113" lon="5.06053">
        <ele>140</ele>
        <time>2019-10-02T09:16:59.000Z</time>
      </trkpt>
      <trkpt lat="50.63106" lon="5.05992">
        <ele>138.6</ele>
        <time>2019-10-02T09:17:05.000Z</time>
      </trkpt>
      <trkpt lat="50.63097" lon="5.05914">
        <ele>139.3</ele>
        <time>2019-10-02T09:17:07.000Z</time>
      </trkpt>
      <trkpt lat="50.63092" lon="5.05884">
        <ele>139.5</ele>
        <time>2019-10-02T09:17:16.000Z</time>
      </trkpt>
      <trkpt lat="50.63088" lon="5.05847">
        <ele>139.3</ele>
        <time>2019-10-02T09:17:18.000Z</time>
      </trkpt>
      <trkpt lat="50.63084" lon="5.05817">
        <ele>139.2</ele>
        <time>2019-10-02T09:17:20.000Z</time>
      </trkpt>
      <trkpt lat="50.63081" lon="5.05782">
        <ele>133.39999389648</ele>
        <time>2019-10-02T09:17:26.000Z</time>
        <extensions>
          <gpxtpx:TrackPointExtension xmlns:gpxtpx="http://www.garmin.com/xmlschemas/TrackPointExtension/v1">
            <gpxtpx:hr>143</gpxtpx:hr>
          </gpxtpx:TrackPointExtension>
        </extensions>
      </trkpt>
      <trkpt lat="50.63079" lon="5.05761">
        <ele>133.39999389648</ele>
        <time>2019-10-02T09:17:32.000Z</time>
        <extensions>
          <gpxtpx:TrackPointExtension xmlns:gpxtpx="http://www.garmin.com/xmlschemas/TrackPointExtension/v1">
            <gpxtpx:hr>140</gpxtpx:hr>
          </gpxtpx:TrackPointExtension>
        </extensions>
      </trkpt>
      <trkpt lat="50.63076" lon="5.05729">
        <ele>133</ele>
        <time>2019-10-02T09:17:38.000Z</time>
        <extensions>
          <gpxtpx:TrackPointExtension xmlns:gpxtpx="http://www.garmin.com/xmlschemas/TrackPointExtension/v1">
            <gpxtpx:hr>137</gpxtpx:hr>
          </gpxtpx:TrackPointExtension>
        </extensions>
      </trkpt>
      <trkpt lat="50.63074" lon="5.05707">
        <ele>132.80000305176</ele>
        <time>2019-10-02T09:17:39.000Z</time>
        <extensions>
          <gpxtpx:TrackPointExtension xmlns:gpxtpx="http://www.garmin.com/xmlschemas/TrackPointExtension/v1">
            <gpxtpx:hr>134</gpxtpx:hr>
          </gpxtpx:TrackPointExtension>
        </extensions>
      </trkpt>
      <trkpt lat="50.63074" lon="5.05696">
        <ele>132.60000610352</ele>
        <time>2019-10-02T09:17:40.000Z</time>
        <extensions>
          <gpxtpx:TrackPointExtension xmlns:gpxtpx="http://www.garmin.com/xmlschemas/TrackPointExtension/v1">
            <gpxtpx:hr>133</gpxtpx:hr>
          </gpxtpx:TrackPointExtension>
        </extensions>
      </trkpt>
      <trkpt lat="50.63073" lon="5.05685">
        <ele>132.60000610352</ele>
        <time>2019-10-02T09:17:41.000Z</time>
        <extensions>
          <gpxtpx:TrackPointExtension xmlns:gpxtpx="http://www.garmin.com/xmlschemas/TrackPointExtension/v1">
            <gpxtpx:hr>131</gpxtpx:hr>
          </gpxtpx:TrackPointExtension>
        </extensions>
      </trkpt>
      <trkpt lat="50.63072" lon="5.05651">
        <ele>132.19999694824</ele>
        <time>2019-10-02T09:17:42.000Z</time>
        <extensions>
          <gpxtpx:TrackPointExtension xmlns:gpxtpx="http://www.garmin.com/xmlschemas/TrackPointExtension/v1">
            <gpxtpx:hr>128</gpxtpx:hr>
          </gpxtpx:TrackPointExtension>
        </extensions>
      </trkpt>
      <trkpt lat="50.63071" lon="5.05604">
        <ele>131.60000610352</ele>
        <time>2019-10-02T09:17:44.000Z</time>
        <extensions>
          <gpxtpx:TrackPointExtension xmlns:gpxtpx="http://www.garmin.com/xmlschemas/TrackPointExtension/v1">
            <gpxtpx:hr>125</gpxtpx:hr>
          </gpxtpx:TrackPointExtension>
        </extensions>
      </trkpt>
      <trkpt lat="50.6307" lon="5.05593">
        <ele>131.39999389648</ele>
        <time>2019-10-02T09:17:45.000Z</time>
        <extensions>
          <gpxtpx:TrackPointExtension xmlns:gpxtpx="http://www.garmin.com/xmlschemas/TrackPointExtension/v1">
            <gpxtpx:hr>123</gpxtpx:hr>
          </gpxtpx:TrackPointExtension>
        </extensions>
      </trkpt>
      <trkpt lat="50.6307" lon="5.05569">
        <ele>131</ele>
        <time>2019-10-02T09:17:46.000Z</time>
        <extensions>
          <gpxtpx:TrackPointExtension xmlns:gpxtpx="http://www.garmin.com/xmlschemas/TrackPointExtension/v1">
            <gpxtpx:hr>118</gpxtpx:hr>
          </gpxtpx:TrackPointExtension>
        </extensions>
      </trkpt>
      <trkpt lat="50.6307" lon="5.05557">
        <ele>130.80000305176</ele>
        <time>2019-10-02T09:17:47.000Z</time>
        <extensions>
          <gpxtpx:TrackPointExtension xmlns:gpxtpx="http://www.garmin.com/xmlschemas/TrackPointExtension/v1">
            <gpxtpx:hr>115</gpxtpx:hr>
          </gpxtpx:TrackPointExtension>
        </extensions>
      </trkpt>
      <trkpt lat="50.63069" lon="5.05545">
        <ele>130</ele>
        <time>2019-10-02T09:17:50.000Z</time>
        <extensions>
          <gpxtpx:TrackPointExtension xmlns:gpxtpx="http://www.garmin.com/xmlschemas/TrackPointExtension/v1">
            <gpxtpx:hr>114</gpxtpx:hr>
          </gpxtpx:TrackPointExtension>
        </extensions>
      </trkpt>
      <trkpt lat="50.63068" lon="5.05498">
        <ele>129</ele>
        <time>2019-10-02T09:17:57.000Z</time>
        <extensions>
          <gpxtpx:TrackPointExtension xmlns:gpxtpx="http://www.garmin.com/xmlschemas/TrackPointExtension/v1">
            <gpxtpx:hr>113</gpxtpx:hr>
          </gpxtpx:TrackPointExtension>
        </extensions>
      </trkpt>
      <trkpt lat="50.63068" lon="5.05486">
        <ele>128.80000305176</ele>
        <time>2019-10-02T09:18:17.000Z</time>
        <extensions>
          <gpxtpx:TrackPointExtension xmlns:gpxtpx="http://www.garmin.com/xmlschemas/TrackPointExtension/v1">
            <gpxtpx:hr>113</gpxtpx:hr>
          </gpxtpx:TrackPointExtension>
        </extensions>
      </trkpt>
      <trkpt lat="50.63067" lon="5.05436">
        <ele>127.80000305176</ele>
        <time>2019-10-02T09:18:20.000Z</time>
        <extensions>
          <gpxtpx:TrackPointExtension xmlns:gpxtpx="http://www.garmin.com/xmlschemas/TrackPointExtension/v1">
            <gpxtpx:hr>115</gpxtpx:hr>
          </gpxtpx:TrackPointExtension>
        </extensions>
      </trkpt>
      <trkpt lat="50.63066" lon="5.05383">
        <ele>126.59999847412</ele>
        <time>2019-10-02T09:18:25.000Z</time>
        <extensions>
          <gpxtpx:TrackPointExtension xmlns:gpxtpx="http://www.garmin.com/xmlschemas/TrackPointExtension/v1">
            <gpxtpx:hr>112</gpxtpx:hr>
          </gpxtpx:TrackPointExtension>
        </extensions>
      </trkpt>
      <trkpt lat="50.63061" lon="5.05336">
        <ele>125.6</ele>
        <time>2019-10-02T09:18:27.000Z</time>
      </trkpt>
      <trkpt lat="50.63056" lon="5.05298">
        <ele>124</ele>
        <time>2019-10-02T09:18:30.000Z</time>
      </trkpt>
      <trkpt lat="50.63052" lon="5.05262">
        <ele>123.8</ele>
        <time>2019-10-02T09:18:31.000Z</time>
      </trkpt>
      <trkpt lat="50.63049" lon="5.05225">
        <ele>123.3</ele>
        <time>2019-10-02T09:18:33.000Z</time>
      </trkpt>
      <trkpt lat="50.63047" lon="5.05194">
        <ele>123.2</ele>
        <time>2019-10-02T09:18:36.000Z</time>
      </trkpt>
      <trkpt lat="50.63047" lon="5.05149">
        <ele>122.6</ele>
        <time>2019-10-02T09:18:42.000Z</time>
      </trkpt>
      <trkpt lat="50.63047" lon="5.05104">
        <ele>122.4</ele>
        <time>2019-10-02T09:18:45.000Z</time>
      </trkpt>
      <trkpt lat="50.63046" lon="5.05063">
        <ele>118.80000305176</ele>
        <time>2019-10-02T09:18:49.000Z</time>
        <extensions>
          <gpxtpx:TrackPointExtension xmlns:gpxtpx="http://www.garmin.com/xmlschemas/TrackPointExtension/v1">
            <gpxtpx:hr>111</gpxtpx:hr>
          </gpxtpx:TrackPointExtension>
        </extensions>
      </trkpt>
      <trkpt lat="50.63045" lon="5.05029">
        <ele>118.59999847412</ele>
        <time>2019-10-02T09:18:54.000Z</time>
        <extensions>
          <gpxtpx:TrackPointExtension xmlns:gpxtpx="http://www.garmin.com/xmlschemas/TrackPointExtension/v1">
            <gpxtpx:hr>114</gpxtpx:hr>
          </gpxtpx:TrackPointExtension>
        </extensions>
      </trkpt>
      <trkpt lat="50.63045" lon="5.05018">
        <ele>118.59999847412</ele>
        <time>2019-10-02T09:18:56.000Z</time>
        <extensions>
          <gpxtpx:TrackPointExtension xmlns:gpxtpx="http://www.garmin.com/xmlschemas/TrackPointExtension/v1">
            <gpxtpx:hr>115</gpxtpx:hr>
          </gpxtpx:TrackPointExtension>
        </extensions>
      </trkpt>
      <trkpt lat="50.63042" lon="5.04925">
        <ele>118.40000152588</ele>
        <time>2019-10-02T09:18:59.000Z</time>
        <extensions>
          <gpxtpx:TrackPointExtension xmlns:gpxtpx="http://www.garmin.com/xmlschemas/TrackPointExtension/v1">
            <gpxtpx:hr>113</gpxtpx:hr>
          </gpxtpx:TrackPointExtension>
        </extensions>
      </trkpt>
      <trkpt lat="50.63041" lon="5.04914">
        <ele>118.40000152588</ele>
        <time>2019-10-02T09:19:00.000Z</time>
        <extensions>
          <gpxtpx:TrackPointExtension xmlns:gpxtpx="http://www.garmin.com/xmlschemas/TrackPointExtension/v1">
            <gpxtpx:hr>113</gpxtpx:hr>
          </gpxtpx:TrackPointExtension>
        </extensions>
      </trkpt>
      <trkpt lat="50.6304" lon="5.04857">
        <ele>118.40000152588</ele>
        <time>2019-10-02T09:19:04.000Z</time>
        <extensions>
          <gpxtpx:TrackPointExtension xmlns:gpxtpx="http://www.garmin.com/xmlschemas/TrackPointExtension/v1">
            <gpxtpx:hr>116</gpxtpx:hr>
          </gpxtpx:TrackPointExtension>
        </extensions>
      </trkpt>
      <trkpt lat="50.63039" lon="5.04846">
        <ele>118.40000152588</ele>
        <time>2019-10-02T09:19:07.000Z</time>
        <extensions>
          <gpxtpx:TrackPointExtension xmlns:gpxtpx="http://www.garmin.com/xmlschemas/TrackPointExtension/v1">
            <gpxtpx:hr>117</gpxtpx:hr>
          </gpxtpx:TrackPointExtension>
        </extensions>
      </trkpt>
      <trkpt lat="50.63038" lon="5.04804">
        <ele>118.19999694824</ele>
        <time>2019-10-02T09:19:09.000Z</time>
        <extensions>
          <gpxtpx:TrackPointExtension xmlns:gpxtpx="http://www.garmin.com/xmlschemas/TrackPointExtension/v1">
            <gpxtpx:hr>120</gpxtpx:hr>
          </gpxtpx:TrackPointExtension>
        </extensions>
      </trkpt>
      <trkpt lat="50.63038" lon="5.04771">
        <ele>118.19999694824</ele>
        <time>2019-10-02T09:19:12.000Z</time>
        <extensions>
          <gpxtpx:TrackPointExtension xmlns:gpxtpx="http://www.garmin.com/xmlschemas/TrackPointExtension/v1">
            <gpxtpx:hr>123</gpxtpx:hr>
          </gpxtpx:TrackPointExtension>
        </extensions>
      </trkpt>
      <trkpt lat="50.63039" lon="5.04729">
        <ele>118.19999694824</ele>
        <time>2019-10-02T09:19:15.000Z</time>
        <extensions>
          <gpxtpx:TrackPointExtension xmlns:gpxtpx="http://www.garmin.com/xmlschemas/TrackPointExtension/v1">
            <gpxtpx:hr>125</gpxtpx:hr>
          </gpxtpx:TrackPointExtension>
        </extensions>
      </trkpt>
      <trkpt lat="50.63039" lon="5.0469">
        <ele>128</ele>
        <time>2019-10-02T09:19:16.000Z</time>
      </trkpt>
      <trkpt lat="50.63042" lon="5.04665">
        <ele>128</ele>
        <time>2019-10-02T09:19:17.000Z</time>
      </trkpt>
      <trkpt lat="50.63045" lon="5.04644">
        <ele>128.1</ele>
        <time>2019-10-02T09:19:18.000Z</time>
      </trkpt>
      <trkpt lat="50.63048" lon="5.04625">
        <ele>128</ele>
        <time>2019-10-02T09:19:23.000Z</time>
      </trkpt>
      <trkpt lat="50.63047" lon="5.04607">
        <ele>119.19999694824</ele>
        <time>2019-10-02T09:19:24.000Z</time>
        <extensions>
          <gpxtpx:TrackPointExtension xmlns:gpxtpx="http://www.garmin.com/xmlschemas/TrackPointExtension/v1">
            <gpxtpx:hr>131</gpxtpx:hr>
          </gpxtpx:TrackPointExtension>
        </extensions>
      </trkpt>
      <trkpt lat="50.63046" lon="5.04587">
        <ele>119.59999847412</ele>
        <time>2019-10-02T09:19:29.000Z</time>
        <extensions>
          <gpxtpx:TrackPointExtension xmlns:gpxtpx="http://www.garmin.com/xmlschemas/TrackPointExtension/v1">
            <gpxtpx:hr>133</gpxtpx:hr>
          </gpxtpx:TrackPointExtension>
        </extensions>
      </trkpt>
      <trkpt lat="50.63046" lon="5.04578">
        <ele>119.80000305176</ele>
        <time>2019-10-02T09:19:32.000Z</time>
        <extensions>
          <gpxtpx:TrackPointExtension xmlns:gpxtpx="http://www.garmin.com/xmlschemas/TrackPointExtension/v1">
            <gpxtpx:hr>134</gpxtpx:hr>
          </gpxtpx:TrackPointExtension>
        </extensions>
      </trkpt>
      <trkpt lat="50.63039" lon="5.04515">
        <ele>129.6</ele>
        <time>2019-10-02T09:19:37.000Z</time>
      </trkpt>
      <trkpt lat="50.63032" lon="5.0448">
        <ele>131.4</ele>
        <time>2019-10-02T09:19:39.000Z</time>
      </trkpt>
      <trkpt lat="50.6302" lon="5.04448">
        <ele>132</ele>
        <time>2019-10-02T09:19:44.000Z</time>
      </trkpt>
      <trkpt lat="50.63014" lon="5.04419">
        <ele>120.80000305176</ele>
        <time>2019-10-02T09:20:04.000Z</time>
        <extensions>
          <gpxtpx:TrackPointExtension xmlns:gpxtpx="http://www.garmin.com/xmlschemas/TrackPointExtension/v1">
            <gpxtpx:hr>139</gpxtpx:hr>
          </gpxtpx:TrackPointExtension>
        </extensions>
      </trkpt>
      <trkpt lat="50.63008" lon="5.04396">
        <ele>121.59999847412</ele>
        <time>2019-10-02T09:20:05.000Z</time>
        <extensions>
          <gpxtpx:TrackPointExtension xmlns:gpxtpx="http://www.garmin.com/xmlschemas/TrackPointExtension/v1">
            <gpxtpx:hr>140</gpxtpx:hr>
          </gpxtpx:TrackPointExtension>
        </extensions>
      </trkpt>
      <trkpt lat="50.63006" lon="5.04388">
        <ele>121.80000305176</ele>
        <time>2019-10-02T09:20:12.000Z</time>
        <extensions>
          <gpxtpx:TrackPointExtension xmlns:gpxtpx="http://www.garmin.com/xmlschemas/TrackPointExtension/v1">
            <gpxtpx:hr>140</gpxtpx:hr>
          </gpxtpx:TrackPointExtension>
        </extensions>
      </trkpt>
      <trkpt lat="50.62998" lon="5.04357">
        <ele>123</ele>
        <time>2019-10-02T09:20:18.000Z</time>
        <extensions>
          <gpxtpx:TrackPointExtension xmlns:gpxtpx="http://www.garmin.com/xmlschemas/TrackPointExtension/v1">
            <gpxtpx:hr>141</gpxtpx:hr>
          </gpxtpx:TrackPointExtension>
        </extensions>
      </trkpt>
      <trkpt lat="50.62992" lon="5.04333">
        <ele>123.80000305176</ele>
        <time>2019-10-02T09:20:20.000Z</time>
        <extensions>
          <gpxtpx:TrackPointExtension xmlns:gpxtpx="http://www.garmin.com/xmlschemas/TrackPointExtension/v1">
            <gpxtpx:hr>141</gpxtpx:hr>
          </gpxtpx:TrackPointExtension>
        </extensions>
      </trkpt>
      <trkpt lat="50.62987" lon="5.04317">
        <ele>124</ele>
        <time>2019-10-02T09:20:23.000Z</time>
        <extensions>
          <gpxtpx:TrackPointExtension xmlns:gpxtpx="http://www.garmin.com/xmlschemas/TrackPointExtension/v1">
            <gpxtpx:hr>140</gpxtpx:hr>
          </gpxtpx:TrackPointExtension>
        </extensions>
      </trkpt>
      <trkpt lat="50.6297" lon="5.04259">
        <ele>124.19999694824</ele>
        <time>2019-10-02T09:20:26.000Z</time>
        <extensions>
          <gpxtpx:TrackPointExtension xmlns:gpxtpx="http://www.garmin.com/xmlschemas/TrackPointExtension/v1">
            <gpxtpx:hr>139</gpxtpx:hr>
          </gpxtpx:TrackPointExtension>
        </extensions>
      </trkpt>
      <trkpt lat="50.62962" lon="5.04237">
        <ele>124</ele>
        <time>2019-10-02T09:20:33.000Z</time>
        <extensions>
          <gpxtpx:TrackPointExtension xmlns:gpxtpx="http://www.garmin.com/xmlschemas/TrackPointExtension/v1">
            <gpxtpx:hr>138</gpxtpx:hr>
          </gpxtpx:TrackPointExtension>
        </extensions>
      </trkpt>
      <trkpt lat="50.62955" lon="5.04229">
        <ele>123.59999847412</ele>
        <time>2019-10-02T09:20:39.000Z</time>
        <extensions>
          <gpxtpx:TrackPointExtension xmlns:gpxtpx="http://www.garmin.com/xmlschemas/TrackPointExtension/v1">
            <gpxtpx:hr>135</gpxtpx:hr>
          </gpxtpx:TrackPointExtension>
        </extensions>
      </trkpt>
      <trkpt lat="50.6295" lon="5.04229">
        <ele>122.80000305176</ele>
        <time>2019-10-02T09:20:47.000Z</time>
        <extensions>
          <gpxtpx:TrackPointExtension xmlns:gpxtpx="http://www.garmin.com/xmlschemas/TrackPointExtension/v1">
            <gpxtpx:hr>132</gpxtpx:hr>
          </gpxtpx:TrackPointExtension>
        </extensions>
      </trkpt>
      <trkpt lat="50.62945" lon="5.04233">
        <ele>122.59999847412</ele>
        <time>2019-10-02T09:20:49.000Z</time>
        <extensions>
          <gpxtpx:TrackPointExtension xmlns:gpxtpx="http://www.garmin.com/xmlschemas/TrackPointExtension/v1">
            <gpxtpx:hr>130</gpxtpx:hr>
          </gpxtpx:TrackPointExtension>
        </extensions>
      </trkpt>
      <trkpt lat="50.62939" lon="5.04237">
        <ele>122.40000152588</ele>
        <time>2019-10-02T09:20:51.000Z</time>
        <extensions>
          <gpxtpx:TrackPointExtension xmlns:gpxtpx="http://www.garmin.com/xmlschemas/TrackPointExtension/v1">
            <gpxtpx:hr>126</gpxtpx:hr>
          </gpxtpx:TrackPointExtension>
        </extensions>
      </trkpt>
      <trkpt lat="50.62931" lon="5.04242">
        <ele>122.19999694824</ele>
        <time>2019-10-02T09:20:58.000Z</time>
        <extensions>
          <gpxtpx:TrackPointExtension xmlns:gpxtpx="http://www.garmin.com/xmlschemas/TrackPointExtension/v1">
            <gpxtpx:hr>123</gpxtpx:hr>
          </gpxtpx:TrackPointExtension>
        </extensions>
      </trkpt>
      <trkpt lat="50.62923" lon="5.04246">
        <ele>122.19999694824</ele>
        <time>2019-10-02T09:21:00.000Z</time>
        <extensions>
          <gpxtpx:TrackPointExtension xmlns:gpxtpx="http://www.garmin.com/xmlschemas/TrackPointExtension/v1">
            <gpxtpx:hr>118</gpxtpx:hr>
          </gpxtpx:TrackPointExtension>
        </extensions>
      </trkpt>
      <trkpt lat="50.62914" lon="5.04251">
        <ele>122</ele>
        <time>2019-10-02T09:21:08.000Z</time>
        <extensions>
          <gpxtpx:TrackPointExtension xmlns:gpxtpx="http://www.garmin.com/xmlschemas/TrackPointExtension/v1">
            <gpxtpx:hr>115</gpxtpx:hr>
          </gpxtpx:TrackPointExtension>
        </extensions>
      </trkpt>
      <trkpt lat="50.6291" lon="5.04254">
        <ele>122</ele>
        <time>2019-10-02T09:21:09.000Z</time>
        <extensions>
          <gpxtpx:TrackPointExtension xmlns:gpxtpx="http://www.garmin.com/xmlschemas/TrackPointExtension/v1">
            <gpxtpx:hr>112</gpxtpx:hr>
          </gpxtpx:TrackPointExtension>
        </extensions>
      </trkpt>
      <trkpt lat="50.629" lon="5.0426">
        <ele>121.80000305176</ele>
        <time>2019-10-02T09:21:15.000Z</time>
        <extensions>
          <gpxtpx:TrackPointExtension xmlns:gpxtpx="http://www.garmin.com/xmlschemas/TrackPointExtension/v1">
            <gpxtpx:hr>108</gpxtpx:hr>
          </gpxtpx:TrackPointExtension>
        </extensions>
      </trkpt>
      <trkpt lat="50.62889" lon="5.04265">
        <ele>121.59999847412</ele>
        <time>2019-10-02T09:21:19.000Z</time>
        <extensions>
          <gpxtpx:TrackPointExtension xmlns:gpxtpx="http://www.garmin.com/xmlschemas/TrackPointExtension/v1">
            <gpxtpx:hr>105</gpxtpx:hr>
          </gpxtpx:TrackPointExtension>
        </extensions>
      </trkpt>
      <trkpt lat="50.62879" lon="5.0427">
        <ele>130.6</ele>
        <time>2019-10-02T09:21:23.000Z</time>
      </trkpt>
      <trkpt lat="50.62864" lon="5.0428">
        <ele>130.2</ele>
        <time>2019-10-02T09:21:27.000Z</time>
      </trkpt>
      <trkpt lat="50.62857" lon="5.04253">
        <ele>130.3</ele>
        <time>2019-10-02T09:21:30.000Z</time>
      </trkpt>
      <trkpt lat="50.62852" lon="5.04236">
        <ele>131.7</ele>
        <time>2019-10-02T09:21:32.000Z</time>
      </trkpt>
      <trkpt lat="50.62845" lon="5.04217">
        <ele>132.1</ele>
        <time>2019-10-02T09:21:34.000Z</time>
      </trkpt>
      <trkpt lat="50.62833" lon="5.04185">
        <ele>132</ele>
        <time>2019-10-02T09:21:38.000Z</time>
      </trkpt>
      <trkpt lat="50.62828" lon="5.04169">
        <ele>132</ele>
        <time>2019-10-02T09:21:40.000Z</time>
      </trkpt>
      <trkpt lat="50.62821" lon="5.04162">
        <ele>132.8</ele>
        <time>2019-10-02T09:21:41.000Z</time>
      </trkpt>
      <trkpt lat="50.62806" lon="5.04139">
        <ele>132.5</ele>
        <time>2019-10-02T09:21:47.000Z</time>
      </trkpt>
      <trkpt lat="50.62787" lon="5.0411">
        <ele>132.6</ele>
        <time>2019-10-02T09:21:55.000Z</time>
      </trkpt>
      <trkpt lat="50.62772" lon="5.0409">
        <ele>132.7</ele>
        <time>2019-10-02T09:22:04.000Z</time>
      </trkpt>
      <trkpt lat="50.62752" lon="5.04049">
        <ele>133.6</ele>
        <time>2019-10-02T09:22:09.000Z</time>
      </trkpt>
      <trkpt lat="50.62736" lon="5.04019">
        <ele>126</ele>
        <time>2019-10-02T09:22:18.000Z</time>
        <extensions>
          <gpxtpx:TrackPointExtension xmlns:gpxtpx="http://www.garmin.com/xmlschemas/TrackPointExtension/v1">
            <gpxtpx:hr>135</gpxtpx:hr>
          </gpxtpx:TrackPointExtension>
        </extensions>
      </trkpt>
      <trkpt lat="50.62732" lon="5.04012">
        <ele>126.19999694824</ele>
        <time>2019-10-02T09:22:19.000Z</time>
        <extensions>
          <gpxtpx:TrackPointExtension xmlns:gpxtpx="http://www.garmin.com/xmlschemas/TrackPointExtension/v1">
            <gpxtpx:hr>135</gpxtpx:hr>
          </gpxtpx:TrackPointExtension>
        </extensions>
      </trkpt>
      <trkpt lat="50.6272" lon="5.0399">
        <ele>126.59999847412</ele>
        <time>2019-10-02T09:22:23.000Z</time>
        <extensions>
          <gpxtpx:TrackPointExtension xmlns:gpxtpx="http://www.garmin.com/xmlschemas/TrackPointExtension/v1">
            <gpxtpx:hr>138</gpxtpx:hr>
          </gpxtpx:TrackPointExtension>
        </extensions>
      </trkpt>
      <trkpt lat="50.62708" lon="5.03969">
        <ele>132.9</ele>
        <time>2019-10-02T09:22:27.000Z</time>
      </trkpt>
      <trkpt lat="50.62686" lon="5.03933">
        <ele>132.4</ele>
        <time>2019-10-02T09:22:29.000Z</time>
      </trkpt>
      <trkpt lat="50.62672" lon="5.03911">
        <ele>131.8</ele>
        <time>2019-10-02T09:22:35.000Z</time>
      </trkpt>
      <trkpt lat="50.62654" lon="5.03883">
        <ele>130</ele>
        <time>2019-10-02T09:22:36.000Z</time>
      </trkpt>
      <trkpt lat="50.62636" lon="5.03852">
        <ele>129.7</ele>
        <time>2019-10-02T09:22:38.000Z</time>
      </trkpt>
      <trkpt lat="50.62619" lon="5.0381">
        <ele>129.9</ele>
        <time>2019-10-02T09:22:42.000Z</time>
      </trkpt>
      <trkpt lat="50.62613" lon="5.03792">
        <ele>130</ele>
        <time>2019-10-02T09:22:47.000Z</time>
      </trkpt>
      <trkpt lat="50.6261" lon="5.03765">
        <ele>130</ele>
        <time>2019-10-02T09:22:58.000Z</time>
      </trkpt>
      <trkpt lat="50.62609" lon="5.03731">
        <ele>130.9</ele>
        <time>2019-10-02T09:23:17.000Z</time>
      </trkpt>
      <trkpt lat="50.62617" lon="5.03668">
        <ele>131.4</ele>
        <time>2019-10-02T09:24:10.000Z</time>
      </trkpt>
      <trkpt lat="50.62627" lon="5.03609">
        <ele>131.7</ele>
        <time>2019-10-02T09:24:12.000Z</time>
      </trkpt>
      <trkpt lat="50.62634" lon="5.03564">
        <ele>132.1</ele>
        <time>2019-10-02T09:24:14.000Z</time>
      </trkpt>
      <trkpt lat="50.62646" lon="5.03492">
        <ele>133.5</ele>
        <time>2019-10-02T09:24:16.000Z</time>
      </trkpt>
      <trkpt lat="50.62659" lon="5.0341">
        <ele>134.1</ele>
        <time>2019-10-02T09:24:32.000Z</time>
      </trkpt>
      <trkpt lat="50.62676" lon="5.03308">
        <ele>135.7</ele>
        <time>2019-10-02T09:24:33.000Z</time>
      </trkpt>
      <trkpt lat="50.62687" lon="5.03242">
        <ele>135.6</ele>
        <time>2019-10-02T09:24:35.000Z</time>
      </trkpt>
      <trkpt lat="50.6269" lon="5.03219">
        <ele>135.7</ele>
        <time>2019-10-02T09:24:38.000Z</time>
      </trkpt>
      <trkpt lat="50.627" lon="5.03161">
        <ele>129.19999694824</ele>
        <time>2019-10-02T09:24:42.000Z</time>
        <extensions>
          <gpxtpx:TrackPointExtension xmlns:gpxtpx="http://www.garmin.com/xmlschemas/TrackPointExtension/v1">
            <gpxtpx:hr>133</gpxtpx:hr>
          </gpxtpx:TrackPointExtension>
        </extensions>
      </trkpt>
      <trkpt lat="50.62701" lon="5.03151">
        <ele>129.19999694824</ele>
        <time>2019-10-02T09:24:43.000Z</time>
        <extensions>
          <gpxtpx:TrackPointExtension xmlns:gpxtpx="http://www.garmin.com/xmlschemas/TrackPointExtension/v1">
            <gpxtpx:hr>133</gpxtpx:hr>
          </gpxtpx:TrackPointExtension>
        </extensions>
      </trkpt>
      <trkpt lat="50.62702" lon="5.0313">
        <ele>129.19999694824</ele>
        <time>2019-10-02T09:24:44.000Z</time>
        <extensions>
          <gpxtpx:TrackPointExtension xmlns:gpxtpx="http://www.garmin.com/xmlschemas/TrackPointExtension/v1">
            <gpxtpx:hr>131</gpxtpx:hr>
          </gpxtpx:TrackPointExtension>
        </extensions>
      </trkpt>
      <trkpt lat="50.62706" lon="5.03082">
        <ele>133.5</ele>
        <time>2019-10-02T09:24:59.000Z</time>
      </trkpt>
      <trkpt lat="50.62709" lon="5.03044">
        <ele>133</ele>
        <time>2019-10-02T09:25:22.000Z</time>
      </trkpt>
      <trkpt lat="50.62713" lon="5.03019">
        <ele>128</ele>
        <time>2019-10-02T09:25:28.000Z</time>
        <extensions>
          <gpxtpx:TrackPointExtension xmlns:gpxtpx="http://www.garmin.com/xmlschemas/TrackPointExtension/v1">
            <gpxtpx:hr>126</gpxtpx:hr>
          </gpxtpx:TrackPointExtension>
        </extensions>
      </trkpt>
      <trkpt lat="50.62714" lon="5.03007">
        <ele>127.80000305176</ele>
        <time>2019-10-02T09:26:16.000Z</time>
        <extensions>
          <gpxtpx:TrackPointExtension xmlns:gpxtpx="http://www.garmin.com/xmlschemas/TrackPointExtension/v1">
            <gpxtpx:hr>125</gpxtpx:hr>
          </gpxtpx:TrackPointExtension>
        </extensions>
      </trkpt>
      <trkpt lat="50.62718" lon="5.02984">
        <ele>127.19999694824</ele>
        <time>2019-10-02T09:26:18.000Z</time>
        <extensions>
          <gpxtpx:TrackPointExtension xmlns:gpxtpx="http://www.garmin.com/xmlschemas/TrackPointExtension/v1">
            <gpxtpx:hr>124</gpxtpx:hr>
          </gpxtpx:TrackPointExtension>
        </extensions>
      </trkpt>
      <trkpt lat="50.62724" lon="5.0295">
        <ele>126.59999847412</ele>
        <time>2019-10-02T09:26:25.000Z</time>
        <extensions>
          <gpxtpx:TrackPointExtension xmlns:gpxtpx="http://www.garmin.com/xmlschemas/TrackPointExtension/v1">
            <gpxtpx:hr>122</gpxtpx:hr>
          </gpxtpx:TrackPointExtension>
        </extensions>
      </trkpt>
      <trkpt lat="50.62731" lon="5.02914">
        <ele>126</ele>
        <time>2019-10-02T09:26:28.000Z</time>
        <extensions>
          <gpxtpx:TrackPointExtension xmlns:gpxtpx="http://www.garmin.com/xmlschemas/TrackPointExtension/v1">
            <gpxtpx:hr>119</gpxtpx:hr>
          </gpxtpx:TrackPointExtension>
        </extensions>
      </trkpt>
      <trkpt lat="50.6274" lon="5.02863">
        <ele>125</ele>
        <time>2019-10-02T09:26:35.000Z</time>
        <extensions>
          <gpxtpx:TrackPointExtension xmlns:gpxtpx="http://www.garmin.com/xmlschemas/TrackPointExtension/v1">
            <gpxtpx:hr>117</gpxtpx:hr>
          </gpxtpx:TrackPointExtension>
        </extensions>
      </trkpt>
      <trkpt lat="50.62744" lon="5.02817">
        <ele>129.9</ele>
        <time>2019-10-02T09:27:20.000Z</time>
      </trkpt>
      <trkpt lat="50.62743" lon="5.02802">
        <ele>130</ele>
        <time>2019-10-02T09:27:25.000Z</time>
      </trkpt>
      <trkpt lat="50.6274" lon="5.0278">
        <ele>130</ele>
        <time>2019-10-02T09:29:16.000Z</time>
      </trkpt>
      <trkpt lat="50.62735" lon="5.02758">
        <ele>130.1</ele>
        <time>2019-10-02T09:29:24.000Z</time>
      </trkpt>
      <trkpt lat="50.62724" lon="5.02729">
        <ele>131.7</ele>
        <time>2019-10-02T09:29:25.000Z</time>
      </trkpt>
      <trkpt lat="50.62702" lon="5.02695">
        <ele>132.6</ele>
        <time>2019-10-02T09:29:33.000Z</time>
      </trkpt>
      <trkpt lat="50.62691" lon="5.02668">
        <ele>133.3</ele>
        <time>2019-10-02T09:29:34.000Z</time>
      </trkpt>
      <trkpt lat="50.62681" lon="5.02628">
        <ele>134</ele>
        <time>2019-10-02T09:29:42.000Z</time>
      </trkpt>
      <trkpt lat="50.62676" lon="5.02604">
        <ele>133.9</ele>
        <time>2019-10-02T09:29:43.000Z</time>
      </trkpt>
      <trkpt lat="50.62667" lon="5.02571">
        <ele>122.19999694824</ele>
        <time>2019-10-02T09:29:48.000Z</time>
        <extensions>
          <gpxtpx:TrackPointExtension xmlns:gpxtpx="http://www.garmin.com/xmlschemas/TrackPointExtension/v1">
            <gpxtpx:hr>125</gpxtpx:hr>
          </gpxtpx:TrackPointExtension>
        </extensions>
      </trkpt>
      <trkpt lat="50.62658" lon="5.02546">
        <ele>122.40000152588</ele>
        <time>2019-10-02T09:29:49.000Z</time>
        <extensions>
          <gpxtpx:TrackPointExtension xmlns:gpxtpx="http://www.garmin.com/xmlschemas/TrackPointExtension/v1">
            <gpxtpx:hr>127</gpxtpx:hr>
          </gpxtpx:TrackPointExtension>
        </extensions>
      </trkpt>
      <trkpt lat="50.62648" lon="5.02522">
        <ele>122.80000305176</ele>
        <time>2019-10-02T09:29:52.000Z</time>
        <extensions>
          <gpxtpx:TrackPointExtension xmlns:gpxtpx="http://www.garmin.com/xmlschemas/TrackPointExtension/v1">
            <gpxtpx:hr>130</gpxtpx:hr>
          </gpxtpx:TrackPointExtension>
        </extensions>
      </trkpt>
      <trkpt lat="50.62634" lon="5.02489">
        <ele>123.19999694824</ele>
        <time>2019-10-02T09:29:55.000Z</time>
        <extensions>
          <gpxtpx:TrackPointExtension xmlns:gpxtpx="http://www.garmin.com/xmlschemas/TrackPointExtension/v1">
            <gpxtpx:hr>133</gpxtpx:hr>
          </gpxtpx:TrackPointExtension>
        </extensions>
      </trkpt>
      <trkpt lat="50.6263" lon="5.02481">
        <ele>123.19999694824</ele>
        <time>2019-10-02T09:29:57.000Z</time>
        <extensions>
          <gpxtpx:TrackPointExtension xmlns:gpxtpx="http://www.garmin.com/xmlschemas/TrackPointExtension/v1">
            <gpxtpx:hr>133</gpxtpx:hr>
          </gpxtpx:TrackPointExtension>
        </extensions>
      </trkpt>
      <trkpt lat="50.62623" lon="5.02464">
        <ele>123.80000305176</ele>
        <time>2019-10-02T09:30:00.000Z</time>
        <extensions>
          <gpxtpx:TrackPointExtension xmlns:gpxtpx="http://www.garmin.com/xmlschemas/TrackPointExtension/v1">
            <gpxtpx:hr>135</gpxtpx:hr>
          </gpxtpx:TrackPointExtension>
        </extensions>
      </trkpt>
      <trkpt lat="50.62608" lon="5.02433">
        <ele>124.59999847412</ele>
        <time>2019-10-02T09:30:03.000Z</time>
        <extensions>
          <gpxtpx:TrackPointExtension xmlns:gpxtpx="http://www.garmin.com/xmlschemas/TrackPointExtension/v1">
            <gpxtpx:hr>138</gpxtpx:hr>
          </gpxtpx:TrackPointExtension>
        </extensions>
      </trkpt>
      <trkpt lat="50.626" lon="5.02419">
        <ele>125</ele>
        <time>2019-10-02T09:30:04.000Z</time>
        <extensions>
          <gpxtpx:TrackPointExtension xmlns:gpxtpx="http://www.garmin.com/xmlschemas/TrackPointExtension/v1">
            <gpxtpx:hr>138</gpxtpx:hr>
          </gpxtpx:TrackPointExtension>
        </extensions>
      </trkpt>
      <trkpt lat="50.62575" lon="5.0238">
        <ele>125.80000305176</ele>
        <time>2019-10-02T09:30:05.000Z</time>
        <extensions>
          <gpxtpx:TrackPointExtension xmlns:gpxtpx="http://www.garmin.com/xmlschemas/TrackPointExtension/v1">
            <gpxtpx:hr>141</gpxtpx:hr>
          </gpxtpx:TrackPointExtension>
        </extensions>
      </trkpt>
      <trkpt lat="50.62571" lon="5.02373">
        <ele>126</ele>
        <time>2019-10-02T09:30:19.000Z</time>
        <extensions>
          <gpxtpx:TrackPointExtension xmlns:gpxtpx="http://www.garmin.com/xmlschemas/TrackPointExtension/v1">
            <gpxtpx:hr>141</gpxtpx:hr>
          </gpxtpx:TrackPointExtension>
        </extensions>
      </trkpt>
      <trkpt lat="50.62546" lon="5.02332">
        <ele>127.19999694824</ele>
        <time>2019-10-02T09:30:23.000Z</time>
        <extensions>
          <gpxtpx:TrackPointExtension xmlns:gpxtpx="http://www.garmin.com/xmlschemas/TrackPointExtension/v1">
            <gpxtpx:hr>144</gpxtpx:hr>
          </gpxtpx:TrackPointExtension>
        </extensions>
      </trkpt>
      <trkpt lat="50.62521" lon="5.02291">
        <ele>128.19999694824</ele>
        <time>2019-10-02T09:30:26.000Z</time>
        <extensions>
          <gpxtpx:TrackPointExtension xmlns:gpxtpx="http://www.garmin.com/xmlschemas/TrackPointExtension/v1">
            <gpxtpx:hr>147</gpxtpx:hr>
          </gpxtpx:TrackPointExtension>
        </extensions>
      </trkpt>
      <trkpt lat="50.62512" lon="5.02277">
        <ele>128.39999389648</ele>
        <time>2019-10-02T09:30:27.000Z</time>
        <extensions>
          <gpxtpx:TrackPointExtension xmlns:gpxtpx="http://www.garmin.com/xmlschemas/TrackPointExtension/v1">
            <gpxtpx:hr>147</gpxtpx:hr>
          </gpxtpx:TrackPointExtension>
        </extensions>
      </trkpt>
      <trkpt lat="50.62486" lon="5.02235">
        <ele>129.19999694824</ele>
        <time>2019-10-02T09:30:34.000Z</time>
        <extensions>
          <gpxtpx:TrackPointExtension xmlns:gpxtpx="http://www.garmin.com/xmlschemas/TrackPointExtension/v1">
            <gpxtpx:hr>149</gpxtpx:hr>
          </gpxtpx:TrackPointExtension>
        </extensions>
      </trkpt>
      <trkpt lat="50.62465" lon="5.02198">
        <ele>129.60000610352</ele>
        <time>2019-10-02T09:30:35.000Z</time>
        <extensions>
          <gpxtpx:TrackPointExtension xmlns:gpxtpx="http://www.garmin.com/xmlschemas/TrackPointExtension/v1">
            <gpxtpx:hr>150</gpxtpx:hr>
          </gpxtpx:TrackPointExtension>
        </extensions>
      </trkpt>
      <trkpt lat="50.6245" lon="5.02167">
        <ele>130.39999389648</ele>
        <time>2019-10-02T09:30:40.000Z</time>
        <extensions>
          <gpxtpx:TrackPointExtension xmlns:gpxtpx="http://www.garmin.com/xmlschemas/TrackPointExtension/v1">
            <gpxtpx:hr>150</gpxtpx:hr>
          </gpxtpx:TrackPointExtension>
        </extensions>
      </trkpt>
      <trkpt lat="50.62436" lon="5.02134">
        <ele>130.80000305176</ele>
        <time>2019-10-02T09:30:43.000Z</time>
        <extensions>
          <gpxtpx:TrackPointExtension xmlns:gpxtpx="http://www.garmin.com/xmlschemas/TrackPointExtension/v1">
            <gpxtpx:hr>151</gpxtpx:hr>
          </gpxtpx:TrackPointExtension>
        </extensions>
      </trkpt>
      <trkpt lat="50.62418" lon="5.02092">
        <ele>131.39999389648</ele>
        <time>2019-10-02T09:30:47.000Z</time>
        <extensions>
          <gpxtpx:TrackPointExtension xmlns:gpxtpx="http://www.garmin.com/xmlschemas/TrackPointExtension/v1">
            <gpxtpx:hr>152</gpxtpx:hr>
          </gpxtpx:TrackPointExtension>
        </extensions>
      </trkpt>
      <trkpt lat="50.62396" lon="5.0204">
        <ele>132</ele>
        <time>2019-10-02T09:30:49.000Z</time>
        <extensions>
          <gpxtpx:TrackPointExtension xmlns:gpxtpx="http://www.garmin.com/xmlschemas/TrackPointExtension/v1">
            <gpxtpx:hr>152</gpxtpx:hr>
          </gpxtpx:TrackPointExtension>
        </extensions>
      </trkpt>
      <trkpt lat="50.62365" lon="5.01964">
        <ele>132.60000610352</ele>
        <time>2019-10-02T09:30:54.000Z</time>
        <extensions>
          <gpxtpx:TrackPointExtension xmlns:gpxtpx="http://www.garmin.com/xmlschemas/TrackPointExtension/v1">
            <gpxtpx:hr>150</gpxtpx:hr>
          </gpxtpx:TrackPointExtension>
        </extensions>
      </trkpt>
      <trkpt lat="50.62361" lon="5.01955">
        <ele>132.60000610352</ele>
        <time>2019-10-02T09:31:00.000Z</time>
        <extensions>
          <gpxtpx:TrackPointExtension xmlns:gpxtpx="http://www.garmin.com/xmlschemas/TrackPointExtension/v1">
            <gpxtpx:hr>150</gpxtpx:hr>
          </gpxtpx:TrackPointExtension>
        </extensions>
      </trkpt>
      <trkpt lat="50.62333" lon="5.01878">
        <ele>133</ele>
        <time>2019-10-02T09:31:01.000Z</time>
        <extensions>
          <gpxtpx:TrackPointExtension xmlns:gpxtpx="http://www.garmin.com/xmlschemas/TrackPointExtension/v1">
            <gpxtpx:hr>149</gpxtpx:hr>
          </gpxtpx:TrackPointExtension>
        </extensions>
      </trkpt>
      <trkpt lat="50.6233" lon="5.01869">
        <ele>133.19999694824</ele>
        <time>2019-10-02T09:31:06.000Z</time>
        <extensions>
          <gpxtpx:TrackPointExtension xmlns:gpxtpx="http://www.garmin.com/xmlschemas/TrackPointExtension/v1">
            <gpxtpx:hr>149</gpxtpx:hr>
          </gpxtpx:TrackPointExtension>
        </extensions>
      </trkpt>
      <trkpt lat="50.62303" lon="5.01788">
        <ele>133.39999389648</ele>
        <time>2019-10-02T09:31:11.000Z</time>
        <extensions>
          <gpxtpx:TrackPointExtension xmlns:gpxtpx="http://www.garmin.com/xmlschemas/TrackPointExtension/v1">
            <gpxtpx:hr>149</gpxtpx:hr>
          </gpxtpx:TrackPointExtension>
        </extensions>
      </trkpt>
      <trkpt lat="50.62297" lon="5.01769">
        <ele>133.60000610352</ele>
        <time>2019-10-02T09:31:15.000Z</time>
        <extensions>
          <gpxtpx:TrackPointExtension xmlns:gpxtpx="http://www.garmin.com/xmlschemas/TrackPointExtension/v1">
            <gpxtpx:hr>148</gpxtpx:hr>
          </gpxtpx:TrackPointExtension>
        </extensions>
      </trkpt>
      <trkpt lat="50.62294" lon="5.0176">
        <ele>133.60000610352</ele>
        <time>2019-10-02T09:31:18.000Z</time>
        <extensions>
          <gpxtpx:TrackPointExtension xmlns:gpxtpx="http://www.garmin.com/xmlschemas/TrackPointExtension/v1">
            <gpxtpx:hr>148</gpxtpx:hr>
          </gpxtpx:TrackPointExtension>
        </extensions>
      </trkpt>
      <trkpt lat="50.62284" lon="5.01711">
        <ele>133.60000610352</ele>
        <time>2019-10-02T09:31:21.000Z</time>
        <extensions>
          <gpxtpx:TrackPointExtension xmlns:gpxtpx="http://www.garmin.com/xmlschemas/TrackPointExtension/v1">
            <gpxtpx:hr>148</gpxtpx:hr>
          </gpxtpx:TrackPointExtension>
        </extensions>
      </trkpt>
      <trkpt lat="50.6228" lon="5.0167">
        <ele>133.39999389648</ele>
        <time>2019-10-02T09:31:35.000Z</time>
        <extensions>
          <gpxtpx:TrackPointExtension xmlns:gpxtpx="http://www.garmin.com/xmlschemas/TrackPointExtension/v1">
            <gpxtpx:hr>145</gpxtpx:hr>
          </gpxtpx:TrackPointExtension>
        </extensions>
      </trkpt>
      <trkpt lat="50.62276" lon="5.01629">
        <ele>133.19999694824</ele>
        <time>2019-10-02T09:31:42.000Z</time>
        <extensions>
          <gpxtpx:TrackPointExtension xmlns:gpxtpx="http://www.garmin.com/xmlschemas/TrackPointExtension/v1">
            <gpxtpx:hr>143</gpxtpx:hr>
          </gpxtpx:TrackPointExtension>
        </extensions>
      </trkpt>
      <trkpt lat="50.62269" lon="5.01555">
        <ele>133</ele>
        <time>2019-10-02T09:31:43.000Z</time>
        <extensions>
          <gpxtpx:TrackPointExtension xmlns:gpxtpx="http://www.garmin.com/xmlschemas/TrackPointExtension/v1">
            <gpxtpx:hr>140</gpxtpx:hr>
          </gpxtpx:TrackPointExtension>
        </extensions>
      </trkpt>
      <trkpt lat="50.62267" lon="5.01533">
        <ele>132.80000305176</ele>
        <time>2019-10-02T09:31:47.000Z</time>
        <extensions>
          <gpxtpx:TrackPointExtension xmlns:gpxtpx="http://www.garmin.com/xmlschemas/TrackPointExtension/v1">
            <gpxtpx:hr>138</gpxtpx:hr>
          </gpxtpx:TrackPointExtension>
        </extensions>
      </trkpt>
      <trkpt lat="50.62262" lon="5.01488">
        <ele>132.19999694824</ele>
        <time>2019-10-02T09:31:53.000Z</time>
        <extensions>
          <gpxtpx:TrackPointExtension xmlns:gpxtpx="http://www.garmin.com/xmlschemas/TrackPointExtension/v1">
            <gpxtpx:hr>135</gpxtpx:hr>
          </gpxtpx:TrackPointExtension>
        </extensions>
      </trkpt>
      <trkpt lat="50.62259" lon="5.01452">
        <ele>131.80000305176</ele>
        <time>2019-10-02T09:31:55.000Z</time>
        <extensions>
          <gpxtpx:TrackPointExtension xmlns:gpxtpx="http://www.garmin.com/xmlschemas/TrackPointExtension/v1">
            <gpxtpx:hr>132</gpxtpx:hr>
          </gpxtpx:TrackPointExtension>
        </extensions>
      </trkpt>
      <trkpt lat="50.62256" lon="5.01416">
        <ele>131.19999694824</ele>
        <time>2019-10-02T09:31:58.000Z</time>
        <extensions>
          <gpxtpx:TrackPointExtension xmlns:gpxtpx="http://www.garmin.com/xmlschemas/TrackPointExtension/v1">
            <gpxtpx:hr>129</gpxtpx:hr>
          </gpxtpx:TrackPointExtension>
        </extensions>
      </trkpt>
      <trkpt lat="50.62254" lon="5.01392">
        <ele>130.60000610352</ele>
        <time>2019-10-02T09:32:04.000Z</time>
        <extensions>
          <gpxtpx:TrackPointExtension xmlns:gpxtpx="http://www.garmin.com/xmlschemas/TrackPointExtension/v1">
            <gpxtpx:hr>126</gpxtpx:hr>
          </gpxtpx:TrackPointExtension>
        </extensions>
      </trkpt>
      <trkpt lat="50.62251" lon="5.01367">
        <ele>130</ele>
        <time>2019-10-02T09:32:26.000Z</time>
        <extensions>
          <gpxtpx:TrackPointExtension xmlns:gpxtpx="http://www.garmin.com/xmlschemas/TrackPointExtension/v1">
            <gpxtpx:hr>122</gpxtpx:hr>
          </gpxtpx:TrackPointExtension>
        </extensions>
      </trkpt>
      <trkpt lat="50.6225" lon="5.01354">
        <ele>130</ele>
        <time>2019-10-02T09:32:27.000Z</time>
        <extensions>
          <gpxtpx:TrackPointExtension xmlns:gpxtpx="http://www.garmin.com/xmlschemas/TrackPointExtension/v1">
            <gpxtpx:hr>120</gpxtpx:hr>
          </gpxtpx:TrackPointExtension>
        </extensions>
      </trkpt>
      <trkpt lat="50.62246" lon="5.01303">
        <ele>129</ele>
        <time>2019-10-02T09:32:31.000Z</time>
        <extensions>
          <gpxtpx:TrackPointExtension xmlns:gpxtpx="http://www.garmin.com/xmlschemas/TrackPointExtension/v1">
            <gpxtpx:hr>118</gpxtpx:hr>
          </gpxtpx:TrackPointExtension>
        </extensions>
      </trkpt>
      <trkpt lat="50.62242" lon="5.0124">
        <ele>127.80000305176</ele>
        <time>2019-10-02T09:32:46.000Z</time>
        <extensions>
          <gpxtpx:TrackPointExtension xmlns:gpxtpx="http://www.garmin.com/xmlschemas/TrackPointExtension/v1">
            <gpxtpx:hr>120</gpxtpx:hr>
          </gpxtpx:TrackPointExtension>
        </extensions>
      </trkpt>
      <trkpt lat="50.62241" lon="5.01209">
        <ele>133</ele>
        <time>2019-10-02T09:32:52.000Z</time>
      </trkpt>
      <trkpt lat="50.62244" lon="5.01167">
        <ele>126.80000305176</ele>
        <time>2019-10-02T09:32:53.000Z</time>
        <extensions>
          <gpxtpx:TrackPointExtension xmlns:gpxtpx="http://www.garmin.com/xmlschemas/TrackPointExtension/v1">
            <gpxtpx:hr>120</gpxtpx:hr>
          </gpxtpx:TrackPointExtension>
        </extensions>
      </trkpt>
      <trkpt lat="50.62244" lon="5.01155">
        <ele>126.80000305176</ele>
        <time>2019-10-02T09:32:55.000Z</time>
        <extensions>
          <gpxtpx:TrackPointExtension xmlns:gpxtpx="http://www.garmin.com/xmlschemas/TrackPointExtension/v1">
            <gpxtpx:hr>120</gpxtpx:hr>
          </gpxtpx:TrackPointExtension>
        </extensions>
      </trkpt>
      <trkpt lat="50.62252" lon="5.01075">
        <ele>126.80000305176</ele>
        <time>2019-10-02T09:32:58.000Z</time>
        <extensions>
          <gpxtpx:TrackPointExtension xmlns:gpxtpx="http://www.garmin.com/xmlschemas/TrackPointExtension/v1">
            <gpxtpx:hr>117</gpxtpx:hr>
          </gpxtpx:TrackPointExtension>
        </extensions>
      </trkpt>
      <trkpt lat="50.62262" lon="5.00988">
        <ele>127.40000152588</ele>
        <time>2019-10-02T09:32:59.000Z</time>
        <extensions>
          <gpxtpx:TrackPointExtension xmlns:gpxtpx="http://www.garmin.com/xmlschemas/TrackPointExtension/v1">
            <gpxtpx:hr>119</gpxtpx:hr>
          </gpxtpx:TrackPointExtension>
        </extensions>
      </trkpt>
      <trkpt lat="50.62266" lon="5.00955">
        <ele>127.59999847412</ele>
        <time>2019-10-02T09:33:07.000Z</time>
        <extensions>
          <gpxtpx:TrackPointExtension xmlns:gpxtpx="http://www.garmin.com/xmlschemas/TrackPointExtension/v1">
            <gpxtpx:hr>123</gpxtpx:hr>
          </gpxtpx:TrackPointExtension>
        </extensions>
      </trkpt>
      <trkpt lat="50.62271" lon="5.00911">
        <ele>127.59999847412</ele>
        <time>2019-10-02T09:33:09.000Z</time>
        <extensions>
          <gpxtpx:TrackPointExtension xmlns:gpxtpx="http://www.garmin.com/xmlschemas/TrackPointExtension/v1">
            <gpxtpx:hr>127</gpxtpx:hr>
          </gpxtpx:TrackPointExtension>
        </extensions>
      </trkpt>
      <trkpt lat="50.62276" lon="5.00868">
        <ele>127.40000152588</ele>
        <time>2019-10-02T09:33:18.000Z</time>
        <extensions>
          <gpxtpx:TrackPointExtension xmlns:gpxtpx="http://www.garmin.com/xmlschemas/TrackPointExtension/v1">
            <gpxtpx:hr>130</gpxtpx:hr>
          </gpxtpx:TrackPointExtension>
        </extensions>
      </trkpt>
      <trkpt lat="50.62282" lon="5.00818">
        <ele>127.40000152588</ele>
        <time>2019-10-02T09:33:23.000Z</time>
        <extensions>
          <gpxtpx:TrackPointExtension xmlns:gpxtpx="http://www.garmin.com/xmlschemas/TrackPointExtension/v1">
            <gpxtpx:hr>132</gpxtpx:hr>
          </gpxtpx:TrackPointExtension>
        </extensions>
      </trkpt>
      <trkpt lat="50.62286" lon="5.00758">
        <ele>127.59999847412</ele>
        <time>2019-10-02T09:33:25.000Z</time>
        <extensions>
          <gpxtpx:TrackPointExtension xmlns:gpxtpx="http://www.garmin.com/xmlschemas/TrackPointExtension/v1">
            <gpxtpx:hr>135</gpxtpx:hr>
          </gpxtpx:TrackPointExtension>
        </extensions>
      </trkpt>
      <trkpt lat="50.62286" lon="5.00749">
        <ele>127.80000305176</ele>
        <time>2019-10-02T09:33:26.000Z</time>
        <extensions>
          <gpxtpx:TrackPointExtension xmlns:gpxtpx="http://www.garmin.com/xmlschemas/TrackPointExtension/v1">
            <gpxtpx:hr>135</gpxtpx:hr>
          </gpxtpx:TrackPointExtension>
        </extensions>
      </trkpt>
      <trkpt lat="50.62285" lon="5.00687">
        <ele>136.9</ele>
        <time>2019-10-02T09:33:36.000Z</time>
      </trkpt>
      <trkpt lat="50.62281" lon="5.00623">
        <ele>137.2</ele>
        <time>2019-10-02T09:33:40.000Z</time>
      </trkpt>
      <trkpt lat="50.62273" lon="5.00558">
        <ele>136.9</ele>
        <time>2019-10-02T09:33:44.000Z</time>
      </trkpt>
      <trkpt lat="50.62266" lon="5.00492">
        <ele>135.8</ele>
        <time>2019-10-02T09:33:49.000Z</time>
      </trkpt>
      <trkpt lat="50.62266" lon="5.00443">
        <ele>136</ele>
        <time>2019-10-02T09:33:53.000Z</time>
      </trkpt>
      <trkpt lat="50.6227" lon="5.00418">
        <ele>135.8</ele>
        <time>2019-10-02T09:33:54.000Z</time>
      </trkpt>
      <trkpt lat="50.62283" lon="5.00371">
        <ele>129.19999694824</ele>
        <time>2019-10-02T09:33:57.000Z</time>
        <extensions>
          <gpxtpx:TrackPointExtension xmlns:gpxtpx="http://www.garmin.com/xmlschemas/TrackPointExtension/v1">
            <gpxtpx:hr>133</gpxtpx:hr>
          </gpxtpx:TrackPointExtension>
        </extensions>
      </trkpt>
      <trkpt lat="50.62309" lon="5.00303">
        <ele>129.19999694824</ele>
        <time>2019-10-02T09:34:00.000Z</time>
        <extensions>
          <gpxtpx:TrackPointExtension xmlns:gpxtpx="http://www.garmin.com/xmlschemas/TrackPointExtension/v1">
            <gpxtpx:hr>131</gpxtpx:hr>
          </gpxtpx:TrackPointExtension>
        </extensions>
      </trkpt>
      <trkpt lat="50.62343" lon="5.00225">
        <ele>128</ele>
        <time>2019-10-02T09:34:01.000Z</time>
        <extensions>
          <gpxtpx:TrackPointExtension xmlns:gpxtpx="http://www.garmin.com/xmlschemas/TrackPointExtension/v1">
            <gpxtpx:hr>130</gpxtpx:hr>
          </gpxtpx:TrackPointExtension>
        </extensions>
      </trkpt>
      <trkpt lat="50.62361" lon="5.00186">
        <ele>127.59999847412</ele>
        <time>2019-10-02T09:34:03.000Z</time>
        <extensions>
          <gpxtpx:TrackPointExtension xmlns:gpxtpx="http://www.garmin.com/xmlschemas/TrackPointExtension/v1">
            <gpxtpx:hr>128</gpxtpx:hr>
          </gpxtpx:TrackPointExtension>
        </extensions>
      </trkpt>
      <trkpt lat="50.62374" lon="5.00157">
        <ele>127</ele>
        <time>2019-10-02T09:34:08.000Z</time>
        <extensions>
          <gpxtpx:TrackPointExtension xmlns:gpxtpx="http://www.garmin.com/xmlschemas/TrackPointExtension/v1">
            <gpxtpx:hr>124</gpxtpx:hr>
          </gpxtpx:TrackPointExtension>
        </extensions>
      </trkpt>
      <trkpt lat="50.62382" lon="5.00138">
        <ele>126.59999847412</ele>
        <time>2019-10-02T09:34:09.000Z</time>
        <extensions>
          <gpxtpx:TrackPointExtension xmlns:gpxtpx="http://www.garmin.com/xmlschemas/TrackPointExtension/v1">
            <gpxtpx:hr>122</gpxtpx:hr>
          </gpxtpx:TrackPointExtension>
        </extensions>
      </trkpt>
      <trkpt lat="50.62395" lon="5.00109">
        <ele>126</ele>
        <time>2019-10-02T09:34:11.000Z</time>
        <extensions>
          <gpxtpx:TrackPointExtension xmlns:gpxtpx="http://www.garmin.com/xmlschemas/TrackPointExtension/v1">
            <gpxtpx:hr>120</gpxtpx:hr>
          </gpxtpx:TrackPointExtension>
        </extensions>
      </trkpt>
      <trkpt lat="50.62408" lon="5.00079">
        <ele>125.40000152588</ele>
        <time>2019-10-02T09:34:15.000Z</time>
        <extensions>
          <gpxtpx:TrackPointExtension xmlns:gpxtpx="http://www.garmin.com/xmlschemas/TrackPointExtension/v1">
            <gpxtpx:hr>118</gpxtpx:hr>
          </gpxtpx:TrackPointExtension>
        </extensions>
      </trkpt>
      <trkpt lat="50.62416" lon="5.00059">
        <ele>125.19999694824</ele>
        <time>2019-10-02T09:34:20.000Z</time>
        <extensions>
          <gpxtpx:TrackPointExtension xmlns:gpxtpx="http://www.garmin.com/xmlschemas/TrackPointExtension/v1">
            <gpxtpx:hr>115</gpxtpx:hr>
          </gpxtpx:TrackPointExtension>
        </extensions>
      </trkpt>
      <trkpt lat="50.62425" lon="5.0004">
        <ele>124.80000305176</ele>
        <time>2019-10-02T09:34:25.000Z</time>
        <extensions>
          <gpxtpx:TrackPointExtension xmlns:gpxtpx="http://www.garmin.com/xmlschemas/TrackPointExtension/v1">
            <gpxtpx:hr>112</gpxtpx:hr>
          </gpxtpx:TrackPointExtension>
        </extensions>
      </trkpt>
      <trkpt lat="50.62433" lon="5.00021">
        <ele>124.59999847412</ele>
        <time>2019-10-02T09:34:27.000Z</time>
        <extensions>
          <gpxtpx:TrackPointExtension xmlns:gpxtpx="http://www.garmin.com/xmlschemas/TrackPointExtension/v1">
            <gpxtpx:hr>111</gpxtpx:hr>
          </gpxtpx:TrackPointExtension>
        </extensions>
      </trkpt>
      <trkpt lat="50.62442" lon="5.00002">
        <ele>124.40000152588</ele>
        <time>2019-10-02T09:34:28.000Z</time>
        <extensions>
          <gpxtpx:TrackPointExtension xmlns:gpxtpx="http://www.garmin.com/xmlschemas/TrackPointExtension/v1">
            <gpxtpx:hr>112</gpxtpx:hr>
          </gpxtpx:TrackPointExtension>
        </extensions>
      </trkpt>
      <trkpt lat="50.62471" lon="4.99936">
        <ele>123.59999847412</ele>
        <time>2019-10-02T09:34:30.000Z</time>
        <extensions>
          <gpxtpx:TrackPointExtension xmlns:gpxtpx="http://www.garmin.com/xmlschemas/TrackPointExtension/v1">
            <gpxtpx:hr>113</gpxtpx:hr>
          </gpxtpx:TrackPointExtension>
        </extensions>
      </trkpt>
      <trkpt lat="50.62484" lon="4.9991">
        <ele>123.40000152588</ele>
        <time>2019-10-02T09:34:34.000Z</time>
        <extensions>
          <gpxtpx:TrackPointExtension xmlns:gpxtpx="http://www.garmin.com/xmlschemas/TrackPointExtension/v1">
            <gpxtpx:hr>114</gpxtpx:hr>
          </gpxtpx:TrackPointExtension>
        </extensions>
      </trkpt>
      <trkpt lat="50.62502" lon="4.99877">
        <ele>123.40000152588</ele>
        <time>2019-10-02T09:34:37.000Z</time>
        <extensions>
          <gpxtpx:TrackPointExtension xmlns:gpxtpx="http://www.garmin.com/xmlschemas/TrackPointExtension/v1">
            <gpxtpx:hr>117</gpxtpx:hr>
          </gpxtpx:TrackPointExtension>
        </extensions>
      </trkpt>
      <trkpt lat="50.62506" lon="4.99869">
        <ele>123.19999694824</ele>
        <time>2019-10-02T09:34:38.000Z</time>
        <extensions>
          <gpxtpx:TrackPointExtension xmlns:gpxtpx="http://www.garmin.com/xmlschemas/TrackPointExtension/v1">
            <gpxtpx:hr>118</gpxtpx:hr>
          </gpxtpx:TrackPointExtension>
        </extensions>
      </trkpt>
      <trkpt lat="50.62538" lon="4.99812">
        <ele>123.19999694824</ele>
        <time>2019-10-02T09:35:28.000Z</time>
        <extensions>
          <gpxtpx:TrackPointExtension xmlns:gpxtpx="http://www.garmin.com/xmlschemas/TrackPointExtension/v1">
            <gpxtpx:hr>121</gpxtpx:hr>
          </gpxtpx:TrackPointExtension>
        </extensions>
      </trkpt>
      <trkpt lat="50.62555" lon="4.99781">
        <ele>123.40000152588</ele>
        <time>2019-10-02T09:35:29.000Z</time>
        <extensions>
          <gpxtpx:TrackPointExtension xmlns:gpxtpx="http://www.garmin.com/xmlschemas/TrackPointExtension/v1">
            <gpxtpx:hr>123</gpxtpx:hr>
          </gpxtpx:TrackPointExtension>
        </extensions>
      </trkpt>
      <trkpt lat="50.6258" lon="4.9974">
        <ele>123.59999847412</ele>
        <time>2019-10-02T09:35:30.000Z</time>
        <extensions>
          <gpxtpx:TrackPointExtension xmlns:gpxtpx="http://www.garmin.com/xmlschemas/TrackPointExtension/v1">
            <gpxtpx:hr>126</gpxtpx:hr>
          </gpxtpx:TrackPointExtension>
        </extensions>
      </trkpt>
      <trkpt lat="50.62588" lon="4.99728">
        <ele>123.40000152588</ele>
        <time>2019-10-02T09:35:35.000Z</time>
        <extensions>
          <gpxtpx:TrackPointExtension xmlns:gpxtpx="http://www.garmin.com/xmlschemas/TrackPointExtension/v1">
            <gpxtpx:hr>127</gpxtpx:hr>
          </gpxtpx:TrackPointExtension>
        </extensions>
      </trkpt>
      <trkpt lat="50.62603" lon="4.99702">
        <ele>124.19999694824</ele>
        <time>2019-10-02T09:35:38.000Z</time>
        <extensions>
          <gpxtpx:TrackPointExtension xmlns:gpxtpx="http://www.garmin.com/xmlschemas/TrackPointExtension/v1">
            <gpxtpx:hr>130</gpxtpx:hr>
          </gpxtpx:TrackPointExtension>
        </extensions>
      </trkpt>
      <trkpt lat="50.62607" lon="4.99696">
        <ele>124.40000152588</ele>
        <time>2019-10-02T09:35:39.000Z</time>
        <extensions>
          <gpxtpx:TrackPointExtension xmlns:gpxtpx="http://www.garmin.com/xmlschemas/TrackPointExtension/v1">
            <gpxtpx:hr>131</gpxtpx:hr>
          </gpxtpx:TrackPointExtension>
        </extensions>
      </trkpt>
      <trkpt lat="50.62621" lon="4.99672">
        <ele>136.4</ele>
        <time>2019-10-02T09:35:41.000Z</time>
      </trkpt>
      <trkpt lat="50.62629" lon="4.99655">
        <ele>136.6</ele>
        <time>2019-10-02T09:35:55.000Z</time>
      </trkpt>
      <trkpt lat="50.62642" lon="4.99622">
        <ele>136.7</ele>
        <time>2019-10-02T09:35:56.000Z</time>
      </trkpt>
      <trkpt lat="50.62648" lon="4.99601">
        <ele>136.7</ele>
        <time>2019-10-02T09:36:03.000Z</time>
      </trkpt>
      <trkpt lat="50.62651" lon="4.99583">
        <ele>136.6</ele>
        <time>2019-10-02T09:36:09.000Z</time>
      </trkpt>
      <trkpt lat="50.62654" lon="4.9956">
        <ele>136</ele>
        <time>2019-10-02T09:36:12.000Z</time>
      </trkpt>
      <trkpt lat="50.62653" lon="4.995">
        <ele>135.7</ele>
        <time>2019-10-02T09:36:16.000Z</time>
      </trkpt>
      <trkpt lat="50.62652" lon="4.99452">
        <ele>135.3</ele>
        <time>2019-10-02T09:36:17.000Z</time>
      </trkpt>
      <trkpt lat="50.62651" lon="4.99419">
        <ele>135.1</ele>
        <time>2019-10-02T09:36:22.000Z</time>
      </trkpt>
      <trkpt lat="50.62648" lon="4.99345">
        <ele>133.8</ele>
        <time>2019-10-02T09:36:48.000Z</time>
      </trkpt>
      <trkpt lat="50.62648" lon="4.99299">
        <ele>132.9</ele>
        <time>2019-10-02T09:36:50.000Z</time>
      </trkpt>
      <trkpt lat="50.62647" lon="4.99262">
        <ele>132.5</ele>
        <time>2019-10-02T09:36:54.000Z</time>
      </trkpt>
      <trkpt lat="50.62645" lon="4.99224">
        <ele>132.3</ele>
        <time>2019-10-02T09:36:57.000Z</time>
      </trkpt>
      <trkpt lat="50.62644" lon="4.99171">
        <ele>132</ele>
        <time>2019-10-02T09:36:59.000Z</time>
      </trkpt>
      <trkpt lat="50.62643" lon="4.99132">
        <ele>131.6</ele>
        <time>2019-10-02T09:37:01.000Z</time>
      </trkpt>
      <trkpt lat="50.62641" lon="4.99084">
        <ele>131.1</ele>
        <time>2019-10-02T09:37:05.000Z</time>
      </trkpt>
      <trkpt lat="50.6264" lon="4.99051">
        <ele>130.6</ele>
        <time>2019-10-02T09:37:08.000Z</time>
      </trkpt>
      <trkpt lat="50.62638" lon="4.99">
        <ele>130.5</ele>
        <time>2019-10-02T09:37:10.000Z</time>
      </trkpt>
      <trkpt lat="50.62637" lon="4.98944">
        <ele>130.5</ele>
        <time>2019-10-02T09:37:13.000Z</time>
      </trkpt>
      <trkpt lat="50.62635" lon="4.98885">
        <ele>130.6</ele>
        <time>2019-10-02T09:37:16.000Z</time>
      </trkpt>
      <trkpt lat="50.62632" lon="4.98834">
        <ele>130.6</ele>
        <time>2019-10-02T09:37:19.000Z</time>
      </trkpt>
      <trkpt lat="50.62631" lon="4.9878">
        <ele>130</ele>
        <time>2019-10-02T09:37:22.000Z</time>
      </trkpt>
      <trkpt lat="50.6263" lon="4.98742">
        <ele>129.5</ele>
        <time>2019-10-02T09:37:24.000Z</time>
      </trkpt>
      <trkpt lat="50.62633" lon="4.98688">
        <ele>122.40000152588</ele>
        <time>2019-10-02T09:37:25.000Z</time>
        <extensions>
          <gpxtpx:TrackPointExtension xmlns:gpxtpx="http://www.garmin.com/xmlschemas/TrackPointExtension/v1">
            <gpxtpx:hr>124</gpxtpx:hr>
          </gpxtpx:TrackPointExtension>
        </extensions>
      </trkpt>
      <trkpt lat="50.62634" lon="4.98657">
        <ele>122.59999847412</ele>
        <time>2019-10-02T09:37:32.000Z</time>
        <extensions>
          <gpxtpx:TrackPointExtension xmlns:gpxtpx="http://www.garmin.com/xmlschemas/TrackPointExtension/v1">
            <gpxtpx:hr>125</gpxtpx:hr>
          </gpxtpx:TrackPointExtension>
        </extensions>
      </trkpt>
      <trkpt lat="50.62638" lon="4.98607">
        <ele>123</ele>
        <time>2019-10-02T09:37:35.000Z</time>
        <extensions>
          <gpxtpx:TrackPointExtension xmlns:gpxtpx="http://www.garmin.com/xmlschemas/TrackPointExtension/v1">
            <gpxtpx:hr>128</gpxtpx:hr>
          </gpxtpx:TrackPointExtension>
        </extensions>
      </trkpt>
      <trkpt lat="50.6264" lon="4.98587">
        <ele>123.40000152588</ele>
        <time>2019-10-02T09:37:38.000Z</time>
        <extensions>
          <gpxtpx:TrackPointExtension xmlns:gpxtpx="http://www.garmin.com/xmlschemas/TrackPointExtension/v1">
            <gpxtpx:hr>129</gpxtpx:hr>
          </gpxtpx:TrackPointExtension>
        </extensions>
      </trkpt>
      <trkpt lat="50.62642" lon="4.98557">
        <ele>123.40000152588</ele>
        <time>2019-10-02T09:37:44.000Z</time>
        <extensions>
          <gpxtpx:TrackPointExtension xmlns:gpxtpx="http://www.garmin.com/xmlschemas/TrackPointExtension/v1">
            <gpxtpx:hr>130</gpxtpx:hr>
          </gpxtpx:TrackPointExtension>
        </extensions>
      </trkpt>
      <trkpt lat="50.62646" lon="4.98508">
        <ele>123.59999847412</ele>
        <time>2019-10-02T09:37:45.000Z</time>
        <extensions>
          <gpxtpx:TrackPointExtension xmlns:gpxtpx="http://www.garmin.com/xmlschemas/TrackPointExtension/v1">
            <gpxtpx:hr>133</gpxtpx:hr>
          </gpxtpx:TrackPointExtension>
        </extensions>
      </trkpt>
      <trkpt lat="50.62651" lon="4.98468">
        <ele>124</ele>
        <time>2019-10-02T09:37:50.000Z</time>
        <extensions>
          <gpxtpx:TrackPointExtension xmlns:gpxtpx="http://www.garmin.com/xmlschemas/TrackPointExtension/v1">
            <gpxtpx:hr>135</gpxtpx:hr>
          </gpxtpx:TrackPointExtension>
        </extensions>
      </trkpt>
      <trkpt lat="50.62655" lon="4.98437">
        <ele>124.19999694824</ele>
        <time>2019-10-02T09:37:52.000Z</time>
        <extensions>
          <gpxtpx:TrackPointExtension xmlns:gpxtpx="http://www.garmin.com/xmlschemas/TrackPointExtension/v1">
            <gpxtpx:hr>138</gpxtpx:hr>
          </gpxtpx:TrackPointExtension>
        </extensions>
      </trkpt>
      <trkpt lat="50.62661" lon="4.98395">
        <ele>124.19999694824</ele>
        <time>2019-10-02T09:37:54.000Z</time>
        <extensions>
          <gpxtpx:TrackPointExtension xmlns:gpxtpx="http://www.garmin.com/xmlschemas/TrackPointExtension/v1">
            <gpxtpx:hr>141</gpxtpx:hr>
          </gpxtpx:TrackPointExtension>
        </extensions>
      </trkpt>
      <trkpt lat="50.62662" lon="4.98384">
        <ele>124.19999694824</ele>
        <time>2019-10-02T09:37:59.000Z</time>
        <extensions>
          <gpxtpx:TrackPointExtension xmlns:gpxtpx="http://www.garmin.com/xmlschemas/TrackPointExtension/v1">
            <gpxtpx:hr>141</gpxtpx:hr>
          </gpxtpx:TrackPointExtension>
        </extensions>
      </trkpt>
      <trkpt lat="50.62664" lon="4.98373">
        <ele>124.40000152588</ele>
        <time>2019-10-02T09:38:03.000Z</time>
        <extensions>
          <gpxtpx:TrackPointExtension xmlns:gpxtpx="http://www.garmin.com/xmlschemas/TrackPointExtension/v1">
            <gpxtpx:hr>142</gpxtpx:hr>
          </gpxtpx:TrackPointExtension>
        </extensions>
      </trkpt>
      <trkpt lat="50.62677" lon="4.98298">
        <ele>131.4</ele>
        <time>2019-10-02T09:38:06.000Z</time>
      </trkpt>
      <trkpt lat="50.62694" lon="4.98219">
        <ele>124.80000305176</ele>
        <time>2019-10-02T09:38:09.000Z</time>
        <extensions>
          <gpxtpx:TrackPointExtension xmlns:gpxtpx="http://www.garmin.com/xmlschemas/TrackPointExtension/v1">
            <gpxtpx:hr>141</gpxtpx:hr>
          </gpxtpx:TrackPointExtension>
        </extensions>
      </trkpt>
      <trkpt lat="50.62714" lon="4.98139">
        <ele>124.80000305176</ele>
        <time>2019-10-02T09:38:14.000Z</time>
        <extensions>
          <gpxtpx:TrackPointExtension xmlns:gpxtpx="http://www.garmin.com/xmlschemas/TrackPointExtension/v1">
            <gpxtpx:hr>139</gpxtpx:hr>
          </gpxtpx:TrackPointExtension>
        </extensions>
      </trkpt>
      <trkpt lat="50.62736" lon="4.98058">
        <ele>124.59999847412</ele>
        <time>2019-10-02T09:38:18.000Z</time>
        <extensions>
          <gpxtpx:TrackPointExtension xmlns:gpxtpx="http://www.garmin.com/xmlschemas/TrackPointExtension/v1">
            <gpxtpx:hr>137</gpxtpx:hr>
          </gpxtpx:TrackPointExtension>
        </extensions>
      </trkpt>
      <trkpt lat="50.62739" lon="4.98048">
        <ele>124.59999847412</ele>
        <time>2019-10-02T09:38:25.000Z</time>
        <extensions>
          <gpxtpx:TrackPointExtension xmlns:gpxtpx="http://www.garmin.com/xmlschemas/TrackPointExtension/v1">
            <gpxtpx:hr>137</gpxtpx:hr>
          </gpxtpx:TrackPointExtension>
        </extensions>
      </trkpt>
      <trkpt lat="50.62758" lon="4.97981">
        <ele>124.40000152588</ele>
        <time>2019-10-02T09:38:33.000Z</time>
        <extensions>
          <gpxtpx:TrackPointExtension xmlns:gpxtpx="http://www.garmin.com/xmlschemas/TrackPointExtension/v1">
            <gpxtpx:hr>135</gpxtpx:hr>
          </gpxtpx:TrackPointExtension>
        </extensions>
      </trkpt>
      <trkpt lat="50.62782" lon="4.97907">
        <ele>124.19999694824</ele>
        <time>2019-10-02T09:38:37.000Z</time>
        <extensions>
          <gpxtpx:TrackPointExtension xmlns:gpxtpx="http://www.garmin.com/xmlschemas/TrackPointExtension/v1">
            <gpxtpx:hr>132</gpxtpx:hr>
          </gpxtpx:TrackPointExtension>
        </extensions>
      </trkpt>
      <trkpt lat="50.6281" lon="4.97829">
        <ele>124</ele>
        <time>2019-10-02T09:38:40.000Z</time>
        <extensions>
          <gpxtpx:TrackPointExtension xmlns:gpxtpx="http://www.garmin.com/xmlschemas/TrackPointExtension/v1">
            <gpxtpx:hr>131</gpxtpx:hr>
          </gpxtpx:TrackPointExtension>
        </extensions>
      </trkpt>
      <trkpt lat="50.62835" lon="4.97761">
        <ele>124.59999847412</ele>
        <time>2019-10-02T09:38:42.000Z</time>
        <extensions>
          <gpxtpx:TrackPointExtension xmlns:gpxtpx="http://www.garmin.com/xmlschemas/TrackPointExtension/v1">
            <gpxtpx:hr>133</gpxtpx:hr>
          </gpxtpx:TrackPointExtension>
        </extensions>
      </trkpt>
      <trkpt lat="50.62844" lon="4.97735">
        <ele>135</ele>
        <time>2019-10-02T09:38:45.000Z</time>
      </trkpt>
      <trkpt lat="50.62855" lon="4.97696">
        <ele>125.19999694824</ele>
        <time>2019-10-02T09:38:46.000Z</time>
        <extensions>
          <gpxtpx:TrackPointExtension xmlns:gpxtpx="http://www.garmin.com/xmlschemas/TrackPointExtension/v1">
            <gpxtpx:hr>135</gpxtpx:hr>
          </gpxtpx:TrackPointExtension>
        </extensions>
      </trkpt>
      <trkpt lat="50.62863" lon="4.97646">
        <ele>125.40000152588</ele>
        <time>2019-10-02T09:38:47.000Z</time>
        <extensions>
          <gpxtpx:TrackPointExtension xmlns:gpxtpx="http://www.garmin.com/xmlschemas/TrackPointExtension/v1">
            <gpxtpx:hr>137</gpxtpx:hr>
          </gpxtpx:TrackPointExtension>
        </extensions>
      </trkpt>
      <trkpt lat="50.62865" lon="4.97625">
        <ele>125.19999694824</ele>
        <time>2019-10-02T09:38:49.000Z</time>
        <extensions>
          <gpxtpx:TrackPointExtension xmlns:gpxtpx="http://www.garmin.com/xmlschemas/TrackPointExtension/v1">
            <gpxtpx:hr>138</gpxtpx:hr>
          </gpxtpx:TrackPointExtension>
        </extensions>
      </trkpt>
      <trkpt lat="50.62867" lon="4.97574">
        <ele>135</ele>
        <time>2019-10-02T09:38:51.000Z</time>
      </trkpt>
      <trkpt lat="50.6287" lon="4.97527">
        <ele>135.6</ele>
        <time>2019-10-02T09:38:52.000Z</time>
      </trkpt>
      <trkpt lat="50.62875" lon="4.97461">
        <ele>125.59999847412</ele>
        <time>2019-10-02T09:38:58.000Z</time>
        <extensions>
          <gpxtpx:TrackPointExtension xmlns:gpxtpx="http://www.garmin.com/xmlschemas/TrackPointExtension/v1">
            <gpxtpx:hr>140</gpxtpx:hr>
          </gpxtpx:TrackPointExtension>
        </extensions>
      </trkpt>
      <trkpt lat="50.62884" lon="4.97381">
        <ele>137</ele>
        <time>2019-10-02T09:39:04.000Z</time>
      </trkpt>
      <trkpt lat="50.62892" lon="4.97323">
        <ele>137</ele>
        <time>2019-10-02T09:39:06.000Z</time>
      </trkpt>
      <trkpt lat="50.62899" lon="4.97295">
        <ele>125.40000152588</ele>
        <time>2019-10-02T09:39:10.000Z</time>
        <extensions>
          <gpxtpx:TrackPointExtension xmlns:gpxtpx="http://www.garmin.com/xmlschemas/TrackPointExtension/v1">
            <gpxtpx:hr>137</gpxtpx:hr>
          </gpxtpx:TrackPointExtension>
        </extensions>
      </trkpt>
      <trkpt lat="50.62904" lon="4.97278">
        <ele>125.40000152588</ele>
        <time>2019-10-02T09:39:12.000Z</time>
        <extensions>
          <gpxtpx:TrackPointExtension xmlns:gpxtpx="http://www.garmin.com/xmlschemas/TrackPointExtension/v1">
            <gpxtpx:hr>136</gpxtpx:hr>
          </gpxtpx:TrackPointExtension>
        </extensions>
      </trkpt>
      <trkpt lat="50.62915" lon="4.97257">
        <ele>125.40000152588</ele>
        <time>2019-10-02T09:39:13.000Z</time>
        <extensions>
          <gpxtpx:TrackPointExtension xmlns:gpxtpx="http://www.garmin.com/xmlschemas/TrackPointExtension/v1">
            <gpxtpx:hr>135</gpxtpx:hr>
          </gpxtpx:TrackPointExtension>
        </extensions>
      </trkpt>
      <trkpt lat="50.62924" lon="4.97227">
        <ele>125.40000152588</ele>
        <time>2019-10-02T09:39:16.000Z</time>
        <extensions>
          <gpxtpx:TrackPointExtension xmlns:gpxtpx="http://www.garmin.com/xmlschemas/TrackPointExtension/v1">
            <gpxtpx:hr>134</gpxtpx:hr>
          </gpxtpx:TrackPointExtension>
        </extensions>
      </trkpt>
      <trkpt lat="50.62925" lon="4.97219">
        <ele>125.40000152588</ele>
        <time>2019-10-02T09:40:02.000Z</time>
        <extensions>
          <gpxtpx:TrackPointExtension xmlns:gpxtpx="http://www.garmin.com/xmlschemas/TrackPointExtension/v1">
            <gpxtpx:hr>134</gpxtpx:hr>
          </gpxtpx:TrackPointExtension>
        </extensions>
      </trkpt>
      <trkpt lat="50.62928" lon="4.97194">
        <ele>125.59999847412</ele>
        <time>2019-10-02T09:40:10.000Z</time>
        <extensions>
          <gpxtpx:TrackPointExtension xmlns:gpxtpx="http://www.garmin.com/xmlschemas/TrackPointExtension/v1">
            <gpxtpx:hr>133</gpxtpx:hr>
          </gpxtpx:TrackPointExtension>
        </extensions>
      </trkpt>
      <trkpt lat="50.62927" lon="4.97168">
        <ele>125.80000305176</ele>
        <time>2019-10-02T09:40:12.000Z</time>
        <extensions>
          <gpxtpx:TrackPointExtension xmlns:gpxtpx="http://www.garmin.com/xmlschemas/TrackPointExtension/v1">
            <gpxtpx:hr>132</gpxtpx:hr>
          </gpxtpx:TrackPointExtension>
        </extensions>
      </trkpt>
      <trkpt lat="50.62925" lon="4.97134">
        <ele>126.19999694824</ele>
        <time>2019-10-02T09:40:20.000Z</time>
        <extensions>
          <gpxtpx:TrackPointExtension xmlns:gpxtpx="http://www.garmin.com/xmlschemas/TrackPointExtension/v1">
            <gpxtpx:hr>132</gpxtpx:hr>
          </gpxtpx:TrackPointExtension>
        </extensions>
      </trkpt>
      <trkpt lat="50.62919" lon="4.97099">
        <ele>127</ele>
        <time>2019-10-02T09:40:22.000Z</time>
        <extensions>
          <gpxtpx:TrackPointExtension xmlns:gpxtpx="http://www.garmin.com/xmlschemas/TrackPointExtension/v1">
            <gpxtpx:hr>133</gpxtpx:hr>
          </gpxtpx:TrackPointExtension>
        </extensions>
      </trkpt>
      <trkpt lat="50.62898" lon="4.97025">
        <ele>127</ele>
        <time>2019-10-02T09:40:25.000Z</time>
        <extensions>
          <gpxtpx:TrackPointExtension xmlns:gpxtpx="http://www.garmin.com/xmlschemas/TrackPointExtension/v1">
            <gpxtpx:hr>131</gpxtpx:hr>
          </gpxtpx:TrackPointExtension>
        </extensions>
      </trkpt>
      <trkpt lat="50.62887" lon="4.96986">
        <ele>126.80000305176</ele>
        <time>2019-10-02T09:40:27.000Z</time>
        <extensions>
          <gpxtpx:TrackPointExtension xmlns:gpxtpx="http://www.garmin.com/xmlschemas/TrackPointExtension/v1">
            <gpxtpx:hr>128</gpxtpx:hr>
          </gpxtpx:TrackPointExtension>
        </extensions>
      </trkpt>
      <trkpt lat="50.62878" lon="4.96956">
        <ele>126.59999847412</ele>
        <time>2019-10-02T09:40:30.000Z</time>
        <extensions>
          <gpxtpx:TrackPointExtension xmlns:gpxtpx="http://www.garmin.com/xmlschemas/TrackPointExtension/v1">
            <gpxtpx:hr>125</gpxtpx:hr>
          </gpxtpx:TrackPointExtension>
        </extensions>
      </trkpt>
      <trkpt lat="50.62872" lon="4.96934">
        <ele>126.19999694824</ele>
        <time>2019-10-02T09:40:31.000Z</time>
        <extensions>
          <gpxtpx:TrackPointExtension xmlns:gpxtpx="http://www.garmin.com/xmlschemas/TrackPointExtension/v1">
            <gpxtpx:hr>123</gpxtpx:hr>
          </gpxtpx:TrackPointExtension>
        </extensions>
      </trkpt>
      <trkpt lat="50.62866" lon="4.969">
        <ele>124.80000305176</ele>
        <time>2019-10-02T09:40:36.000Z</time>
        <extensions>
          <gpxtpx:TrackPointExtension xmlns:gpxtpx="http://www.garmin.com/xmlschemas/TrackPointExtension/v1">
            <gpxtpx:hr>121</gpxtpx:hr>
          </gpxtpx:TrackPointExtension>
        </extensions>
      </trkpt>
      <trkpt lat="50.62862" lon="4.96865">
        <ele>124.40000152588</ele>
        <time>2019-10-02T09:40:40.000Z</time>
        <extensions>
          <gpxtpx:TrackPointExtension xmlns:gpxtpx="http://www.garmin.com/xmlschemas/TrackPointExtension/v1">
            <gpxtpx:hr>118</gpxtpx:hr>
          </gpxtpx:TrackPointExtension>
        </extensions>
      </trkpt>
      <trkpt lat="50.62861" lon="4.96842">
        <ele>124</ele>
        <time>2019-10-02T09:40:48.000Z</time>
        <extensions>
          <gpxtpx:TrackPointExtension xmlns:gpxtpx="http://www.garmin.com/xmlschemas/TrackPointExtension/v1">
            <gpxtpx:hr>114</gpxtpx:hr>
          </gpxtpx:TrackPointExtension>
        </extensions>
      </trkpt>
      <trkpt lat="50.62861" lon="4.96809">
        <ele>123.80000305176</ele>
        <time>2019-10-02T09:40:49.000Z</time>
        <extensions>
          <gpxtpx:TrackPointExtension xmlns:gpxtpx="http://www.garmin.com/xmlschemas/TrackPointExtension/v1">
            <gpxtpx:hr>110</gpxtpx:hr>
          </gpxtpx:TrackPointExtension>
        </extensions>
      </trkpt>
      <trkpt lat="50.62861" lon="4.96799">
        <ele>123.80000305176</ele>
        <time>2019-10-02T09:40:51.000Z</time>
        <extensions>
          <gpxtpx:TrackPointExtension xmlns:gpxtpx="http://www.garmin.com/xmlschemas/TrackPointExtension/v1">
            <gpxtpx:hr>108</gpxtpx:hr>
          </gpxtpx:TrackPointExtension>
        </extensions>
      </trkpt>
      <trkpt lat="50.62861" lon="4.96785">
        <ele>135</ele>
        <time>2019-10-02T09:40:54.000Z</time>
      </trkpt>
      <trkpt lat="50.62873" lon="4.96784">
        <ele>134.8</ele>
        <time>2019-10-02T09:40:55.000Z</time>
      </trkpt>
      <trkpt lat="50.62886" lon="4.96783">
        <ele>134.7</ele>
        <time>2019-10-02T09:40:58.000Z</time>
      </trkpt>
      <trkpt lat="50.62908" lon="4.96784">
        <ele>134.6</ele>
        <time>2019-10-02T09:40:59.000Z</time>
      </trkpt>
      <trkpt lat="50.62942" lon="4.96785">
        <ele>134.3</ele>
        <time>2019-10-02T09:41:16.000Z</time>
      </trkpt>
      <trkpt lat="50.62972" lon="4.96784">
        <ele>134.2</ele>
        <time>2019-10-02T09:41:18.000Z</time>
      </trkpt>
      <trkpt lat="50.62992" lon="4.96785">
        <ele>134.2</ele>
        <time>2019-10-02T09:41:20.000Z</time>
      </trkpt>
      <trkpt lat="50.63012" lon="4.96785">
        <ele>133.8</ele>
        <time>2019-10-02T09:41:23.000Z</time>
      </trkpt>
      <trkpt lat="50.63037" lon="4.96785">
        <ele>133.7</ele>
        <time>2019-10-02T09:41:25.000Z</time>
      </trkpt>
      <trkpt lat="50.63061" lon="4.96785">
        <ele>121.80000305176</ele>
        <time>2019-10-02T09:41:30.000Z</time>
        <extensions>
          <gpxtpx:TrackPointExtension xmlns:gpxtpx="http://www.garmin.com/xmlschemas/TrackPointExtension/v1">
            <gpxtpx:hr>125</gpxtpx:hr>
          </gpxtpx:TrackPointExtension>
        </extensions>
      </trkpt>
      <trkpt lat="50.63082" lon="4.96786">
        <ele>121.59999847412</ele>
        <time>2019-10-02T09:41:39.000Z</time>
        <extensions>
          <gpxtpx:TrackPointExtension xmlns:gpxtpx="http://www.garmin.com/xmlschemas/TrackPointExtension/v1">
            <gpxtpx:hr>126</gpxtpx:hr>
          </gpxtpx:TrackPointExtension>
        </extensions>
      </trkpt>
      <trkpt lat="50.63114" lon="4.96786">
        <ele>133.5</ele>
        <time>2019-10-02T09:41:40.000Z</time>
      </trkpt>
      <trkpt lat="50.63129" lon="4.96783">
        <ele>133.5</ele>
        <time>2019-10-02T09:41:47.000Z</time>
      </trkpt>
      <trkpt lat="50.6315" lon="4.96778">
        <ele>134</ele>
        <time>2019-10-02T09:41:53.000Z</time>
      </trkpt>
      <trkpt lat="50.63175" lon="4.96769">
        <ele>133.8</ele>
        <time>2019-10-02T09:41:57.000Z</time>
      </trkpt>
      <trkpt lat="50.63212" lon="4.96755">
        <ele>133.8</ele>
        <time>2019-10-02T09:42:01.000Z</time>
      </trkpt>
      <trkpt lat="50.63232" lon="4.96748">
        <ele>134</ele>
        <time>2019-10-02T09:42:09.000Z</time>
      </trkpt>
      <trkpt lat="50.63248" lon="4.96744">
        <ele>134</ele>
        <time>2019-10-02T09:42:10.000Z</time>
      </trkpt>
      <trkpt lat="50.63259" lon="4.96741">
        <ele>133.9</ele>
        <time>2019-10-02T09:42:11.000Z</time>
      </trkpt>
      <trkpt lat="50.63262" lon="4.96799">
        <ele>133.5</ele>
        <time>2019-10-02T09:42:17.000Z</time>
      </trkpt>
      <trkpt lat="50.63265" lon="4.96833">
        <ele>133.6</ele>
        <time>2019-10-02T09:42:22.000Z</time>
      </trkpt>
      <trkpt lat="50.63269" lon="4.96897">
        <ele>134.7</ele>
        <time>2019-10-02T09:42:23.000Z</time>
      </trkpt>
      <trkpt lat="50.63271" lon="4.96928">
        <ele>136.1</ele>
        <time>2019-10-02T09:42:28.000Z</time>
      </trkpt>
      <trkpt lat="50.63273" lon="4.96959">
        <ele>123.40000152588</ele>
        <time>2019-10-02T09:42:33.000Z</time>
        <extensions>
          <gpxtpx:TrackPointExtension xmlns:gpxtpx="http://www.garmin.com/xmlschemas/TrackPointExtension/v1">
            <gpxtpx:hr>143</gpxtpx:hr>
          </gpxtpx:TrackPointExtension>
        </extensions>
      </trkpt>
      <trkpt lat="50.63274" lon="4.96998">
        <ele>123.80000305176</ele>
        <time>2019-10-02T09:42:41.000Z</time>
        <extensions>
          <gpxtpx:TrackPointExtension xmlns:gpxtpx="http://www.garmin.com/xmlschemas/TrackPointExtension/v1">
            <gpxtpx:hr>145</gpxtpx:hr>
          </gpxtpx:TrackPointExtension>
        </extensions>
      </trkpt>
      <trkpt lat="50.63275" lon="4.97027">
        <ele>124.40000152588</ele>
        <time>2019-10-02T09:42:43.000Z</time>
        <extensions>
          <gpxtpx:TrackPointExtension xmlns:gpxtpx="http://www.garmin.com/xmlschemas/TrackPointExtension/v1">
            <gpxtpx:hr>145</gpxtpx:hr>
          </gpxtpx:TrackPointExtension>
        </extensions>
      </trkpt>
      <trkpt lat="50.63278" lon="4.97075">
        <ele>125.59999847412</ele>
        <time>2019-10-02T09:42:55.000Z</time>
        <extensions>
          <gpxtpx:TrackPointExtension xmlns:gpxtpx="http://www.garmin.com/xmlschemas/TrackPointExtension/v1">
            <gpxtpx:hr>147</gpxtpx:hr>
          </gpxtpx:TrackPointExtension>
        </extensions>
      </trkpt>
      <trkpt lat="50.63279" lon="4.97121">
        <ele>139.7</ele>
        <time>2019-10-02T09:43:03.000Z</time>
      </trkpt>
      <trkpt lat="50.6328" lon="4.97174">
        <ele>140.7</ele>
        <time>2019-10-02T09:43:06.000Z</time>
      </trkpt>
      <trkpt lat="50.63283" lon="4.97213">
        <ele>141</ele>
        <time>2019-10-02T09:43:14.000Z</time>
      </trkpt>
      <trkpt lat="50.63285" lon="4.97248">
        <ele>141.1</ele>
        <time>2019-10-02T09:43:17.000Z</time>
      </trkpt>
      <trkpt lat="50.63285" lon="4.97276">
        <ele>142.1</ele>
        <time>2019-10-02T09:43:24.000Z</time>
      </trkpt>
      <trkpt lat="50.63287" lon="4.9731">
        <ele>131.60000610352</ele>
        <time>2019-10-02T09:43:30.000Z</time>
        <extensions>
          <gpxtpx:TrackPointExtension xmlns:gpxtpx="http://www.garmin.com/xmlschemas/TrackPointExtension/v1">
            <gpxtpx:hr>158</gpxtpx:hr>
          </gpxtpx:TrackPointExtension>
        </extensions>
      </trkpt>
      <trkpt lat="50.63288" lon="4.97341">
        <ele>132.19999694824</ele>
        <time>2019-10-02T09:43:31.000Z</time>
        <extensions>
          <gpxtpx:TrackPointExtension xmlns:gpxtpx="http://www.garmin.com/xmlschemas/TrackPointExtension/v1">
            <gpxtpx:hr>159</gpxtpx:hr>
          </gpxtpx:TrackPointExtension>
        </extensions>
      </trkpt>
      <trkpt lat="50.63289" lon="4.97372">
        <ele>132.80000305176</ele>
        <time>2019-10-02T09:43:32.000Z</time>
        <extensions>
          <gpxtpx:TrackPointExtension xmlns:gpxtpx="http://www.garmin.com/xmlschemas/TrackPointExtension/v1">
            <gpxtpx:hr>160</gpxtpx:hr>
          </gpxtpx:TrackPointExtension>
        </extensions>
      </trkpt>
      <trkpt lat="50.6329" lon="4.97431">
        <ele>133.39999389648</ele>
        <time>2019-10-02T09:43:35.000Z</time>
        <extensions>
          <gpxtpx:TrackPointExtension xmlns:gpxtpx="http://www.garmin.com/xmlschemas/TrackPointExtension/v1">
            <gpxtpx:hr>161</gpxtpx:hr>
          </gpxtpx:TrackPointExtension>
        </extensions>
      </trkpt>
      <trkpt lat="50.6329" lon="4.97441">
        <ele>133.80000305176</ele>
        <time>2019-10-02T09:43:37.000Z</time>
        <extensions>
          <gpxtpx:TrackPointExtension xmlns:gpxtpx="http://www.garmin.com/xmlschemas/TrackPointExtension/v1">
            <gpxtpx:hr>162</gpxtpx:hr>
          </gpxtpx:TrackPointExtension>
        </extensions>
      </trkpt>
      <trkpt lat="50.63291" lon="4.97489">
        <ele>135</ele>
        <time>2019-10-02T09:44:14.000Z</time>
        <extensions>
          <gpxtpx:TrackPointExtension xmlns:gpxtpx="http://www.garmin.com/xmlschemas/TrackPointExtension/v1">
            <gpxtpx:hr>163</gpxtpx:hr>
          </gpxtpx:TrackPointExtension>
        </extensions>
      </trkpt>
      <trkpt lat="50.63292" lon="4.97508">
        <ele>135.60000610352</ele>
        <time>2019-10-02T09:44:30.000Z</time>
        <extensions>
          <gpxtpx:TrackPointExtension xmlns:gpxtpx="http://www.garmin.com/xmlschemas/TrackPointExtension/v1">
            <gpxtpx:hr>164</gpxtpx:hr>
          </gpxtpx:TrackPointExtension>
        </extensions>
      </trkpt>
      <trkpt lat="50.63293" lon="4.97537">
        <ele>136.19999694824</ele>
        <time>2019-10-02T09:44:34.000Z</time>
        <extensions>
          <gpxtpx:TrackPointExtension xmlns:gpxtpx="http://www.garmin.com/xmlschemas/TrackPointExtension/v1">
            <gpxtpx:hr>165</gpxtpx:hr>
          </gpxtpx:TrackPointExtension>
        </extensions>
      </trkpt>
      <trkpt lat="50.63294" lon="4.97579">
        <ele>137.19999694824</ele>
        <time>2019-10-02T09:44:37.000Z</time>
        <extensions>
          <gpxtpx:TrackPointExtension xmlns:gpxtpx="http://www.garmin.com/xmlschemas/TrackPointExtension/v1">
            <gpxtpx:hr>167</gpxtpx:hr>
          </gpxtpx:TrackPointExtension>
        </extensions>
      </trkpt>
      <trkpt lat="50.63297" lon="4.97637">
        <ele>146.4</ele>
        <time>2019-10-02T09:44:39.000Z</time>
      </trkpt>
      <trkpt lat="50.633" lon="4.97713">
        <ele>139</ele>
        <time>2019-10-02T09:44:45.000Z</time>
        <extensions>
          <gpxtpx:TrackPointExtension xmlns:gpxtpx="http://www.garmin.com/xmlschemas/TrackPointExtension/v1">
            <gpxtpx:hr>167</gpxtpx:hr>
          </gpxtpx:TrackPointExtension>
        </extensions>
      </trkpt>
      <trkpt lat="50.63308" lon="4.97795">
        <ele>139.19999694824</ele>
        <time>2019-10-02T09:44:48.000Z</time>
        <extensions>
          <gpxtpx:TrackPointExtension xmlns:gpxtpx="http://www.garmin.com/xmlschemas/TrackPointExtension/v1">
            <gpxtpx:hr>167</gpxtpx:hr>
          </gpxtpx:TrackPointExtension>
        </extensions>
      </trkpt>
      <trkpt lat="50.63314" lon="4.9783">
        <ele>139.39999389648</ele>
        <time>2019-10-02T09:44:57.000Z</time>
        <extensions>
          <gpxtpx:TrackPointExtension xmlns:gpxtpx="http://www.garmin.com/xmlschemas/TrackPointExtension/v1">
            <gpxtpx:hr>167</gpxtpx:hr>
          </gpxtpx:TrackPointExtension>
        </extensions>
      </trkpt>
      <trkpt lat="50.63323" lon="4.97865">
        <ele>139.60000610352</ele>
        <time>2019-10-02T09:45:00.000Z</time>
        <extensions>
          <gpxtpx:TrackPointExtension xmlns:gpxtpx="http://www.garmin.com/xmlschemas/TrackPointExtension/v1">
            <gpxtpx:hr>166</gpxtpx:hr>
          </gpxtpx:TrackPointExtension>
        </extensions>
      </trkpt>
      <trkpt lat="50.63347" lon="4.97945">
        <ele>139.39999389648</ele>
        <time>2019-10-02T09:45:05.000Z</time>
        <extensions>
          <gpxtpx:TrackPointExtension xmlns:gpxtpx="http://www.garmin.com/xmlschemas/TrackPointExtension/v1">
            <gpxtpx:hr>165</gpxtpx:hr>
          </gpxtpx:TrackPointExtension>
        </extensions>
      </trkpt>
      <trkpt lat="50.63351" lon="4.97956">
        <ele>139.39999389648</ele>
        <time>2019-10-02T09:45:06.000Z</time>
        <extensions>
          <gpxtpx:TrackPointExtension xmlns:gpxtpx="http://www.garmin.com/xmlschemas/TrackPointExtension/v1">
            <gpxtpx:hr>165</gpxtpx:hr>
          </gpxtpx:TrackPointExtension>
        </extensions>
      </trkpt>
      <trkpt lat="50.6337" lon="4.98022">
        <ele>145</ele>
        <time>2019-10-02T09:45:10.000Z</time>
      </trkpt>
      <trkpt lat="50.63378" lon="4.98052">
        <ele>145</ele>
        <time>2019-10-02T09:45:11.000Z</time>
      </trkpt>
      <trkpt lat="50.63408" lon="4.98105">
        <ele>139</ele>
        <time>2019-10-02T09:45:14.000Z</time>
        <extensions>
          <gpxtpx:TrackPointExtension xmlns:gpxtpx="http://www.garmin.com/xmlschemas/TrackPointExtension/v1">
            <gpxtpx:hr>163</gpxtpx:hr>
          </gpxtpx:TrackPointExtension>
        </extensions>
      </trkpt>
      <trkpt lat="50.63446" lon="4.98175">
        <ele>139</ele>
        <time>2019-10-02T09:45:15.000Z</time>
        <extensions>
          <gpxtpx:TrackPointExtension xmlns:gpxtpx="http://www.garmin.com/xmlschemas/TrackPointExtension/v1">
            <gpxtpx:hr>162</gpxtpx:hr>
          </gpxtpx:TrackPointExtension>
        </extensions>
      </trkpt>
      <trkpt lat="50.63456" lon="4.98194">
        <ele>139</ele>
        <time>2019-10-02T09:48:49.000Z</time>
        <extensions>
          <gpxtpx:TrackPointExtension xmlns:gpxtpx="http://www.garmin.com/xmlschemas/TrackPointExtension/v1">
            <gpxtpx:hr>162</gpxtpx:hr>
          </gpxtpx:TrackPointExtension>
        </extensions>
      </trkpt>
      <trkpt lat="50.6349" lon="4.9826">
        <ele>139.19999694824</ele>
        <time>2019-10-02T09:48:50.000Z</time>
        <extensions>
          <gpxtpx:TrackPointExtension xmlns:gpxtpx="http://www.garmin.com/xmlschemas/TrackPointExtension/v1">
            <gpxtpx:hr>162</gpxtpx:hr>
          </gpxtpx:TrackPointExtension>
        </extensions>
      </trkpt>
      <trkpt lat="50.635" lon="4.9828">
        <ele>139.19999694824</ele>
        <time>2019-10-02T09:48:51.000Z</time>
        <extensions>
          <gpxtpx:TrackPointExtension xmlns:gpxtpx="http://www.garmin.com/xmlschemas/TrackPointExtension/v1">
            <gpxtpx:hr>162</gpxtpx:hr>
          </gpxtpx:TrackPointExtension>
        </extensions>
      </trkpt>
      <trkpt lat="50.63535" lon="4.98351">
        <ele>139.60000610352</ele>
        <time>2019-10-02T09:48:55.000Z</time>
        <extensions>
          <gpxtpx:TrackPointExtension xmlns:gpxtpx="http://www.garmin.com/xmlschemas/TrackPointExtension/v1">
            <gpxtpx:hr>162</gpxtpx:hr>
          </gpxtpx:TrackPointExtension>
        </extensions>
      </trkpt>
      <trkpt lat="50.63547" lon="4.98381">
        <ele>146</ele>
        <time>2019-10-02T09:48:57.000Z</time>
      </trkpt>
      <trkpt lat="50.63564" lon="4.98429">
        <ele>145.3</ele>
        <time>2019-10-02T09:49:00.000Z</time>
      </trkpt>
      <trkpt lat="50.63574" lon="4.98456">
        <ele>145</ele>
        <time>2019-10-02T09:49:04.000Z</time>
      </trkpt>
      <trkpt lat="50.6358" lon="4.98471">
        <ele>145</ele>
        <time>2019-10-02T09:49:05.000Z</time>
      </trkpt>
      <trkpt lat="50.6359" lon="4.98476">
        <ele>139.80000305176</ele>
        <time>2019-10-02T09:49:12.000Z</time>
        <extensions>
          <gpxtpx:TrackPointExtension xmlns:gpxtpx="http://www.garmin.com/xmlschemas/TrackPointExtension/v1">
            <gpxtpx:hr>159</gpxtpx:hr>
          </gpxtpx:TrackPointExtension>
        </extensions>
      </trkpt>
      <trkpt lat="50.63604" lon="4.98489">
        <ele>139.60000610352</ele>
        <time>2019-10-02T09:49:18.000Z</time>
        <extensions>
          <gpxtpx:TrackPointExtension xmlns:gpxtpx="http://www.garmin.com/xmlschemas/TrackPointExtension/v1">
            <gpxtpx:hr>159</gpxtpx:hr>
          </gpxtpx:TrackPointExtension>
        </extensions>
      </trkpt>
      <trkpt lat="50.63626" lon="4.98507">
        <ele>138.80000305176</ele>
        <time>2019-10-02T09:49:20.000Z</time>
        <extensions>
          <gpxtpx:TrackPointExtension xmlns:gpxtpx="http://www.garmin.com/xmlschemas/TrackPointExtension/v1">
            <gpxtpx:hr>157</gpxtpx:hr>
          </gpxtpx:TrackPointExtension>
        </extensions>
      </trkpt>
      <trkpt lat="50.63634" lon="4.98513">
        <ele>138.39999389648</ele>
        <time>2019-10-02T09:49:21.000Z</time>
        <extensions>
          <gpxtpx:TrackPointExtension xmlns:gpxtpx="http://www.garmin.com/xmlschemas/TrackPointExtension/v1">
            <gpxtpx:hr>156</gpxtpx:hr>
          </gpxtpx:TrackPointExtension>
        </extensions>
      </trkpt>
      <trkpt lat="50.63673" lon="4.98544">
        <ele>137.19999694824</ele>
        <time>2019-10-02T09:49:23.000Z</time>
        <extensions>
          <gpxtpx:TrackPointExtension xmlns:gpxtpx="http://www.garmin.com/xmlschemas/TrackPointExtension/v1">
            <gpxtpx:hr>153</gpxtpx:hr>
          </gpxtpx:TrackPointExtension>
        </extensions>
      </trkpt>
      <trkpt lat="50.63695" lon="4.98563">
        <ele>136.19999694824</ele>
        <time>2019-10-02T09:49:25.000Z</time>
        <extensions>
          <gpxtpx:TrackPointExtension xmlns:gpxtpx="http://www.garmin.com/xmlschemas/TrackPointExtension/v1">
            <gpxtpx:hr>151</gpxtpx:hr>
          </gpxtpx:TrackPointExtension>
        </extensions>
      </trkpt>
      <trkpt lat="50.63703" lon="4.98569">
        <ele>136</ele>
        <time>2019-10-02T09:49:26.000Z</time>
        <extensions>
          <gpxtpx:TrackPointExtension xmlns:gpxtpx="http://www.garmin.com/xmlschemas/TrackPointExtension/v1">
            <gpxtpx:hr>151</gpxtpx:hr>
          </gpxtpx:TrackPointExtension>
        </extensions>
      </trkpt>
      <trkpt lat="50.63727" lon="4.98589">
        <ele>135.60000610352</ele>
        <time>2019-10-02T09:49:28.000Z</time>
        <extensions>
          <gpxtpx:TrackPointExtension xmlns:gpxtpx="http://www.garmin.com/xmlschemas/TrackPointExtension/v1">
            <gpxtpx:hr>148</gpxtpx:hr>
          </gpxtpx:TrackPointExtension>
        </extensions>
      </trkpt>
      <trkpt lat="50.63743" lon="4.98602">
        <ele>135</ele>
        <time>2019-10-02T09:49:31.000Z</time>
        <extensions>
          <gpxtpx:TrackPointExtension xmlns:gpxtpx="http://www.garmin.com/xmlschemas/TrackPointExtension/v1">
            <gpxtpx:hr>146</gpxtpx:hr>
          </gpxtpx:TrackPointExtension>
        </extensions>
      </trkpt>
      <trkpt lat="50.63766" lon="4.98622">
        <ele>134.60000610352</ele>
        <time>2019-10-02T09:49:33.000Z</time>
        <extensions>
          <gpxtpx:TrackPointExtension xmlns:gpxtpx="http://www.garmin.com/xmlschemas/TrackPointExtension/v1">
            <gpxtpx:hr>144</gpxtpx:hr>
          </gpxtpx:TrackPointExtension>
        </extensions>
      </trkpt>
      <trkpt lat="50.63774" lon="4.98629">
        <ele>134.19999694824</ele>
        <time>2019-10-02T09:49:36.000Z</time>
        <extensions>
          <gpxtpx:TrackPointExtension xmlns:gpxtpx="http://www.garmin.com/xmlschemas/TrackPointExtension/v1">
            <gpxtpx:hr>143</gpxtpx:hr>
          </gpxtpx:TrackPointExtension>
        </extensions>
      </trkpt>
      <trkpt lat="50.6379" lon="4.98642">
        <ele>134</ele>
        <time>2019-10-02T09:49:37.000Z</time>
        <extensions>
          <gpxtpx:TrackPointExtension xmlns:gpxtpx="http://www.garmin.com/xmlschemas/TrackPointExtension/v1">
            <gpxtpx:hr>143</gpxtpx:hr>
          </gpxtpx:TrackPointExtension>
        </extensions>
      </trkpt>
      <trkpt lat="50.63814" lon="4.98664">
        <ele>132.80000305176</ele>
        <time>2019-10-02T09:49:45.000Z</time>
        <extensions>
          <gpxtpx:TrackPointExtension xmlns:gpxtpx="http://www.garmin.com/xmlschemas/TrackPointExtension/v1">
            <gpxtpx:hr>142</gpxtpx:hr>
          </gpxtpx:TrackPointExtension>
        </extensions>
      </trkpt>
      <trkpt lat="50.63837" lon="4.98686">
        <ele>131.60000610352</ele>
        <time>2019-10-02T09:49:46.000Z</time>
        <extensions>
          <gpxtpx:TrackPointExtension xmlns:gpxtpx="http://www.garmin.com/xmlschemas/TrackPointExtension/v1">
            <gpxtpx:hr>141</gpxtpx:hr>
          </gpxtpx:TrackPointExtension>
        </extensions>
      </trkpt>
      <trkpt lat="50.63845" lon="4.98693">
        <ele>131.39999389648</ele>
        <time>2019-10-02T09:49:47.000Z</time>
        <extensions>
          <gpxtpx:TrackPointExtension xmlns:gpxtpx="http://www.garmin.com/xmlschemas/TrackPointExtension/v1">
            <gpxtpx:hr>141</gpxtpx:hr>
          </gpxtpx:TrackPointExtension>
        </extensions>
      </trkpt>
      <trkpt lat="50.63877" lon="4.98723">
        <ele>130.39999389648</ele>
        <time>2019-10-02T09:49:55.000Z</time>
        <extensions>
          <gpxtpx:TrackPointExtension xmlns:gpxtpx="http://www.garmin.com/xmlschemas/TrackPointExtension/v1">
            <gpxtpx:hr>141</gpxtpx:hr>
          </gpxtpx:TrackPointExtension>
        </extensions>
      </trkpt>
      <trkpt lat="50.63907" lon="4.98753">
        <ele>130</ele>
        <time>2019-10-02T09:49:56.000Z</time>
        <extensions>
          <gpxtpx:TrackPointExtension xmlns:gpxtpx="http://www.garmin.com/xmlschemas/TrackPointExtension/v1">
            <gpxtpx:hr>141</gpxtpx:hr>
          </gpxtpx:TrackPointExtension>
        </extensions>
      </trkpt>
      <trkpt lat="50.63958" lon="4.98808">
        <ele>129.39999389648</ele>
        <time>2019-10-02T09:50:04.000Z</time>
        <extensions>
          <gpxtpx:TrackPointExtension xmlns:gpxtpx="http://www.garmin.com/xmlschemas/TrackPointExtension/v1">
            <gpxtpx:hr>143</gpxtpx:hr>
          </gpxtpx:TrackPointExtension>
        </extensions>
      </trkpt>
      <trkpt lat="50.63965" lon="4.98816">
        <ele>129.39999389648</ele>
        <time>2019-10-02T09:50:05.000Z</time>
        <extensions>
          <gpxtpx:TrackPointExtension xmlns:gpxtpx="http://www.garmin.com/xmlschemas/TrackPointExtension/v1">
            <gpxtpx:hr>143</gpxtpx:hr>
          </gpxtpx:TrackPointExtension>
        </extensions>
      </trkpt>
      <trkpt lat="50.64" lon="4.98856">
        <ele>128.39999389648</ele>
        <time>2019-10-02T09:50:13.000Z</time>
        <extensions>
          <gpxtpx:TrackPointExtension xmlns:gpxtpx="http://www.garmin.com/xmlschemas/TrackPointExtension/v1">
            <gpxtpx:hr>144</gpxtpx:hr>
          </gpxtpx:TrackPointExtension>
        </extensions>
      </trkpt>
      <trkpt lat="50.64035" lon="4.98895">
        <ele>127.19999694824</ele>
        <time>2019-10-02T09:50:45.000Z</time>
        <extensions>
          <gpxtpx:TrackPointExtension xmlns:gpxtpx="http://www.garmin.com/xmlschemas/TrackPointExtension/v1">
            <gpxtpx:hr>146</gpxtpx:hr>
          </gpxtpx:TrackPointExtension>
        </extensions>
      </trkpt>
      <trkpt lat="50.64049" lon="4.98911">
        <ele>127</ele>
        <time>2019-10-02T09:50:52.000Z</time>
        <extensions>
          <gpxtpx:TrackPointExtension xmlns:gpxtpx="http://www.garmin.com/xmlschemas/TrackPointExtension/v1">
            <gpxtpx:hr>146</gpxtpx:hr>
          </gpxtpx:TrackPointExtension>
        </extensions>
      </trkpt>
      <trkpt lat="50.64095" lon="4.98962">
        <ele>126.59999847412</ele>
        <time>2019-10-02T09:50:53.000Z</time>
        <extensions>
          <gpxtpx:TrackPointExtension xmlns:gpxtpx="http://www.garmin.com/xmlschemas/TrackPointExtension/v1">
            <gpxtpx:hr>147</gpxtpx:hr>
          </gpxtpx:TrackPointExtension>
        </extensions>
      </trkpt>
      <trkpt lat="50.64114" lon="4.98982">
        <ele>126.19999694824</ele>
        <time>2019-10-02T09:51:01.000Z</time>
        <extensions>
          <gpxtpx:TrackPointExtension xmlns:gpxtpx="http://www.garmin.com/xmlschemas/TrackPointExtension/v1">
            <gpxtpx:hr>146</gpxtpx:hr>
          </gpxtpx:TrackPointExtension>
        </extensions>
      </trkpt>
      <trkpt lat="50.64121" lon="4.98989">
        <ele>126.19999694824</ele>
        <time>2019-10-02T09:51:05.000Z</time>
        <extensions>
          <gpxtpx:TrackPointExtension xmlns:gpxtpx="http://www.garmin.com/xmlschemas/TrackPointExtension/v1">
            <gpxtpx:hr>146</gpxtpx:hr>
          </gpxtpx:TrackPointExtension>
        </extensions>
      </trkpt>
      <trkpt lat="50.64148" lon="4.99023">
        <ele>134.5</ele>
        <time>2019-10-02T09:51:07.000Z</time>
      </trkpt>
      <trkpt lat="50.64164" lon="4.99053">
        <ele>134.8</ele>
        <time>2019-10-02T09:51:09.000Z</time>
      </trkpt>
      <trkpt lat="50.64181" lon="4.99084">
        <ele>135.2</ele>
        <time>2019-10-02T09:51:13.000Z</time>
      </trkpt>
      <trkpt lat="50.64191" lon="4.99102">
        <ele>135.3</ele>
        <time>2019-10-02T09:51:16.000Z</time>
      </trkpt>
      <trkpt lat="50.642" lon="4.99125">
        <ele>125</ele>
        <time>2019-10-02T09:51:23.000Z</time>
        <extensions>
          <gpxtpx:TrackPointExtension xmlns:gpxtpx="http://www.garmin.com/xmlschemas/TrackPointExtension/v1">
            <gpxtpx:hr>144</gpxtpx:hr>
          </gpxtpx:TrackPointExtension>
        </extensions>
      </trkpt>
      <trkpt lat="50.64212" lon="4.99159">
        <ele>126.19999694824</ele>
        <time>2019-10-02T09:51:24.000Z</time>
        <extensions>
          <gpxtpx:TrackPointExtension xmlns:gpxtpx="http://www.garmin.com/xmlschemas/TrackPointExtension/v1">
            <gpxtpx:hr>146</gpxtpx:hr>
          </gpxtpx:TrackPointExtension>
        </extensions>
      </trkpt>
      <trkpt lat="50.64221" lon="4.99186">
        <ele>126.80000305176</ele>
        <time>2019-10-02T09:51:31.000Z</time>
        <extensions>
          <gpxtpx:TrackPointExtension xmlns:gpxtpx="http://www.garmin.com/xmlschemas/TrackPointExtension/v1">
            <gpxtpx:hr>148</gpxtpx:hr>
          </gpxtpx:TrackPointExtension>
        </extensions>
      </trkpt>
      <trkpt lat="50.64232" lon="4.99222">
        <ele>127.19999694824</ele>
        <time>2019-10-02T09:51:33.000Z</time>
        <extensions>
          <gpxtpx:TrackPointExtension xmlns:gpxtpx="http://www.garmin.com/xmlschemas/TrackPointExtension/v1">
            <gpxtpx:hr>150</gpxtpx:hr>
          </gpxtpx:TrackPointExtension>
        </extensions>
      </trkpt>
      <trkpt lat="50.64241" lon="4.9925">
        <ele>127.80000305176</ele>
        <time>2019-10-02T09:51:40.000Z</time>
        <extensions>
          <gpxtpx:TrackPointExtension xmlns:gpxtpx="http://www.garmin.com/xmlschemas/TrackPointExtension/v1">
            <gpxtpx:hr>153</gpxtpx:hr>
          </gpxtpx:TrackPointExtension>
        </extensions>
      </trkpt>
      <trkpt lat="50.64248" lon="4.99268">
        <ele>128.19999694824</ele>
        <time>2019-10-02T09:51:47.000Z</time>
        <extensions>
          <gpxtpx:TrackPointExtension xmlns:gpxtpx="http://www.garmin.com/xmlschemas/TrackPointExtension/v1">
            <gpxtpx:hr>154</gpxtpx:hr>
          </gpxtpx:TrackPointExtension>
        </extensions>
      </trkpt>
      <trkpt lat="50.64263" lon="4.99315">
        <ele>129.39999389648</ele>
        <time>2019-10-02T09:51:49.000Z</time>
        <extensions>
          <gpxtpx:TrackPointExtension xmlns:gpxtpx="http://www.garmin.com/xmlschemas/TrackPointExtension/v1">
            <gpxtpx:hr>157</gpxtpx:hr>
          </gpxtpx:TrackPointExtension>
        </extensions>
      </trkpt>
      <trkpt lat="50.6427" lon="4.99334">
        <ele>129.60000610352</ele>
        <time>2019-10-02T09:51:57.000Z</time>
        <extensions>
          <gpxtpx:TrackPointExtension xmlns:gpxtpx="http://www.garmin.com/xmlschemas/TrackPointExtension/v1">
            <gpxtpx:hr>159</gpxtpx:hr>
          </gpxtpx:TrackPointExtension>
        </extensions>
      </trkpt>
      <trkpt lat="50.64279" lon="4.99363">
        <ele>130.39999389648</ele>
        <time>2019-10-02T09:51:58.000Z</time>
        <extensions>
          <gpxtpx:TrackPointExtension xmlns:gpxtpx="http://www.garmin.com/xmlschemas/TrackPointExtension/v1">
            <gpxtpx:hr>160</gpxtpx:hr>
          </gpxtpx:TrackPointExtension>
        </extensions>
      </trkpt>
      <trkpt lat="50.64292" lon="4.99402">
        <ele>131.39999389648</ele>
        <time>2019-10-02T09:52:04.000Z</time>
        <extensions>
          <gpxtpx:TrackPointExtension xmlns:gpxtpx="http://www.garmin.com/xmlschemas/TrackPointExtension/v1">
            <gpxtpx:hr>162</gpxtpx:hr>
          </gpxtpx:TrackPointExtension>
        </extensions>
      </trkpt>
      <trkpt lat="50.64299" lon="4.99421">
        <ele>132</ele>
        <time>2019-10-02T09:52:30.000Z</time>
        <extensions>
          <gpxtpx:TrackPointExtension xmlns:gpxtpx="http://www.garmin.com/xmlschemas/TrackPointExtension/v1">
            <gpxtpx:hr>164</gpxtpx:hr>
          </gpxtpx:TrackPointExtension>
        </extensions>
      </trkpt>
      <trkpt lat="50.64308" lon="4.9945">
        <ele>132.60000610352</ele>
        <time>2019-10-02T09:53:02.000Z</time>
        <extensions>
          <gpxtpx:TrackPointExtension xmlns:gpxtpx="http://www.garmin.com/xmlschemas/TrackPointExtension/v1">
            <gpxtpx:hr>165</gpxtpx:hr>
          </gpxtpx:TrackPointExtension>
        </extensions>
      </trkpt>
      <trkpt lat="50.64319" lon="4.99488">
        <ele>143.6</ele>
        <time>2019-10-02T09:53:33.000Z</time>
      </trkpt>
      <trkpt lat="50.64331" lon="4.99526">
        <ele>144</ele>
        <time>2019-10-02T09:53:34.000Z</time>
      </trkpt>
      <trkpt lat="50.64348" lon="4.99579">
        <ele>144</ele>
        <time>2019-10-02T09:53:36.000Z</time>
      </trkpt>
      <trkpt lat="50.64366" lon="4.99605">
        <ele>143.2</ele>
        <time>2019-10-02T09:53:38.000Z</time>
      </trkpt>
      <trkpt lat="50.6439" lon="4.9963">
        <ele>133.80000305176</ele>
        <time>2019-10-02T09:53:41.000Z</time>
        <extensions>
          <gpxtpx:TrackPointExtension xmlns:gpxtpx="http://www.garmin.com/xmlschemas/TrackPointExtension/v1">
            <gpxtpx:hr>165</gpxtpx:hr>
          </gpxtpx:TrackPointExtension>
        </extensions>
      </trkpt>
      <trkpt lat="50.6441" lon="4.99645">
        <ele>142.2</ele>
        <time>2019-10-02T09:53:43.000Z</time>
      </trkpt>
      <trkpt lat="50.64424" lon="4.99653">
        <ele>140.4</ele>
        <time>2019-10-02T09:53:46.000Z</time>
      </trkpt>
      <trkpt lat="50.64448" lon="4.99661">
        <ele>139.8</ele>
        <time>2019-10-02T09:53:50.000Z</time>
      </trkpt>
      <trkpt lat="50.64471" lon="4.99661">
        <ele>139</ele>
        <time>2019-10-02T09:53:51.000Z</time>
      </trkpt>
      <trkpt lat="50.64509" lon="4.99663">
        <ele>131.60000610352</ele>
        <time>2019-10-02T09:53:54.000Z</time>
        <extensions>
          <gpxtpx:TrackPointExtension xmlns:gpxtpx="http://www.garmin.com/xmlschemas/TrackPointExtension/v1">
            <gpxtpx:hr>161</gpxtpx:hr>
          </gpxtpx:TrackPointExtension>
        </extensions>
      </trkpt>
      <trkpt lat="50.64544" lon="4.99662">
        <ele>130</ele>
        <time>2019-10-02T09:53:58.000Z</time>
        <extensions>
          <gpxtpx:TrackPointExtension xmlns:gpxtpx="http://www.garmin.com/xmlschemas/TrackPointExtension/v1">
            <gpxtpx:hr>161</gpxtpx:hr>
          </gpxtpx:TrackPointExtension>
        </extensions>
      </trkpt>
      <trkpt lat="50.6456" lon="4.99662">
        <ele>128.60000610352</ele>
        <time>2019-10-02T09:54:15.000Z</time>
        <extensions>
          <gpxtpx:TrackPointExtension xmlns:gpxtpx="http://www.garmin.com/xmlschemas/TrackPointExtension/v1">
            <gpxtpx:hr>160</gpxtpx:hr>
          </gpxtpx:TrackPointExtension>
        </extensions>
      </trkpt>
      <trkpt lat="50.64576" lon="4.99662">
        <ele>128</ele>
        <time>2019-10-02T09:54:16.000Z</time>
        <extensions>
          <gpxtpx:TrackPointExtension xmlns:gpxtpx="http://www.garmin.com/xmlschemas/TrackPointExtension/v1">
            <gpxtpx:hr>159</gpxtpx:hr>
          </gpxtpx:TrackPointExtension>
        </extensions>
      </trkpt>
      <trkpt lat="50.64614" lon="4.99662">
        <ele>127.40000152588</ele>
        <time>2019-10-02T09:54:21.000Z</time>
        <extensions>
          <gpxtpx:TrackPointExtension xmlns:gpxtpx="http://www.garmin.com/xmlschemas/TrackPointExtension/v1">
            <gpxtpx:hr>157</gpxtpx:hr>
          </gpxtpx:TrackPointExtension>
        </extensions>
      </trkpt>
      <trkpt lat="50.64636" lon="4.99662">
        <ele>127.40000152588</ele>
        <time>2019-10-02T09:54:26.000Z</time>
        <extensions>
          <gpxtpx:TrackPointExtension xmlns:gpxtpx="http://www.garmin.com/xmlschemas/TrackPointExtension/v1">
            <gpxtpx:hr>156</gpxtpx:hr>
          </gpxtpx:TrackPointExtension>
        </extensions>
      </trkpt>
      <trkpt lat="50.64693" lon="4.99661">
        <ele>126.40000152588</ele>
        <time>2019-10-02T09:54:27.000Z</time>
        <extensions>
          <gpxtpx:TrackPointExtension xmlns:gpxtpx="http://www.garmin.com/xmlschemas/TrackPointExtension/v1">
            <gpxtpx:hr>155</gpxtpx:hr>
          </gpxtpx:TrackPointExtension>
        </extensions>
      </trkpt>
      <trkpt lat="50.64699" lon="4.99661">
        <ele>126.40000152588</ele>
        <time>2019-10-02T09:54:28.000Z</time>
        <extensions>
          <gpxtpx:TrackPointExtension xmlns:gpxtpx="http://www.garmin.com/xmlschemas/TrackPointExtension/v1">
            <gpxtpx:hr>154</gpxtpx:hr>
          </gpxtpx:TrackPointExtension>
        </extensions>
      </trkpt>
      <trkpt lat="50.64705" lon="4.99662">
        <ele>126.19999694824</ele>
        <time>2019-10-02T09:54:33.000Z</time>
        <extensions>
          <gpxtpx:TrackPointExtension xmlns:gpxtpx="http://www.garmin.com/xmlschemas/TrackPointExtension/v1">
            <gpxtpx:hr>154</gpxtpx:hr>
          </gpxtpx:TrackPointExtension>
        </extensions>
      </trkpt>
      <trkpt lat="50.64721" lon="4.99668">
        <ele>125.40000152588</ele>
        <time>2019-10-02T09:54:36.000Z</time>
        <extensions>
          <gpxtpx:TrackPointExtension xmlns:gpxtpx="http://www.garmin.com/xmlschemas/TrackPointExtension/v1">
            <gpxtpx:hr>152</gpxtpx:hr>
          </gpxtpx:TrackPointExtension>
        </extensions>
      </trkpt>
      <trkpt lat="50.64726" lon="4.99672">
        <ele>125.19999694824</ele>
        <time>2019-10-02T09:54:44.000Z</time>
        <extensions>
          <gpxtpx:TrackPointExtension xmlns:gpxtpx="http://www.garmin.com/xmlschemas/TrackPointExtension/v1">
            <gpxtpx:hr>152</gpxtpx:hr>
          </gpxtpx:TrackPointExtension>
        </extensions>
      </trkpt>
      <trkpt lat="50.64749" lon="4.99684">
        <ele>123.80000305176</ele>
        <time>2019-10-02T09:54:46.000Z</time>
        <extensions>
          <gpxtpx:TrackPointExtension xmlns:gpxtpx="http://www.garmin.com/xmlschemas/TrackPointExtension/v1">
            <gpxtpx:hr>150</gpxtpx:hr>
          </gpxtpx:TrackPointExtension>
        </extensions>
      </trkpt>
      <trkpt lat="50.6476" lon="4.99689">
        <ele>123.19999694824</ele>
        <time>2019-10-02T09:54:54.000Z</time>
        <extensions>
          <gpxtpx:TrackPointExtension xmlns:gpxtpx="http://www.garmin.com/xmlschemas/TrackPointExtension/v1">
            <gpxtpx:hr>149</gpxtpx:hr>
          </gpxtpx:TrackPointExtension>
        </extensions>
      </trkpt>
      <trkpt lat="50.6478" lon="4.997">
        <ele>136.7</ele>
        <time>2019-10-02T09:55:01.000Z</time>
      </trkpt>
      <trkpt lat="50.6479" lon="4.99708">
        <ele>136.8</ele>
        <time>2019-10-02T09:55:02.000Z</time>
      </trkpt>
      <trkpt lat="50.64788" lon="4.99727">
        <ele>137</ele>
        <time>2019-10-02T09:55:10.000Z</time>
      </trkpt>
      <trkpt lat="50.64797" lon="4.99739">
        <ele>137</ele>
        <time>2019-10-02T09:55:11.000Z</time>
      </trkpt>
      <trkpt lat="50.64809" lon="4.99754">
        <ele>138</ele>
        <time>2019-10-02T09:55:13.000Z</time>
      </trkpt>
      <trkpt lat="50.64817" lon="4.99771">
        <ele>138.1</ele>
        <time>2019-10-02T09:55:20.000Z</time>
      </trkpt>
      <trkpt lat="50.64826" lon="4.99783">
        <ele>138</ele>
        <time>2019-10-02T09:55:23.000Z</time>
      </trkpt>
      <trkpt lat="50.64834" lon="4.99792">
        <ele>122.40000152588</ele>
        <time>2019-10-02T09:55:28.000Z</time>
        <extensions>
          <gpxtpx:TrackPointExtension xmlns:gpxtpx="http://www.garmin.com/xmlschemas/TrackPointExtension/v1">
            <gpxtpx:hr>140</gpxtpx:hr>
          </gpxtpx:TrackPointExtension>
        </extensions>
      </trkpt>
      <trkpt lat="50.64847" lon="4.99804">
        <ele>122.59999847412</ele>
        <time>2019-10-02T09:55:30.000Z</time>
        <extensions>
          <gpxtpx:TrackPointExtension xmlns:gpxtpx="http://www.garmin.com/xmlschemas/TrackPointExtension/v1">
            <gpxtpx:hr>141</gpxtpx:hr>
          </gpxtpx:TrackPointExtension>
        </extensions>
      </trkpt>
      <trkpt lat="50.64861" lon="4.99813">
        <ele>123</ele>
        <time>2019-10-02T09:55:42.000Z</time>
        <extensions>
          <gpxtpx:TrackPointExtension xmlns:gpxtpx="http://www.garmin.com/xmlschemas/TrackPointExtension/v1">
            <gpxtpx:hr>142</gpxtpx:hr>
          </gpxtpx:TrackPointExtension>
        </extensions>
      </trkpt>
      <trkpt lat="50.64886" lon="4.99832">
        <ele>123.59999847412</ele>
        <time>2019-10-02T09:55:43.000Z</time>
        <extensions>
          <gpxtpx:TrackPointExtension xmlns:gpxtpx="http://www.garmin.com/xmlschemas/TrackPointExtension/v1">
            <gpxtpx:hr>141</gpxtpx:hr>
          </gpxtpx:TrackPointExtension>
        </extensions>
      </trkpt>
      <trkpt lat="50.64891" lon="4.99836">
        <ele>123.80000305176</ele>
        <time>2019-10-02T09:55:47.000Z</time>
        <extensions>
          <gpxtpx:TrackPointExtension xmlns:gpxtpx="http://www.garmin.com/xmlschemas/TrackPointExtension/v1">
            <gpxtpx:hr>141</gpxtpx:hr>
          </gpxtpx:TrackPointExtension>
        </extensions>
      </trkpt>
      <trkpt lat="50.64901" lon="4.9985">
        <ele>138.9</ele>
        <time>2019-10-02T09:55:48.000Z</time>
      </trkpt>
      <trkpt lat="50.64892" lon="4.99866">
        <ele>122.40000152588</ele>
        <time>2019-10-02T09:55:53.000Z</time>
        <extensions>
          <gpxtpx:TrackPointExtension xmlns:gpxtpx="http://www.garmin.com/xmlschemas/TrackPointExtension/v1">
            <gpxtpx:hr>131</gpxtpx:hr>
          </gpxtpx:TrackPointExtension>
        </extensions>
      </trkpt>
      <trkpt lat="50.64885" lon="4.99876">
        <ele>139.5</ele>
        <time>2019-10-02T09:56:00.000Z</time>
      </trkpt>
      <trkpt lat="50.64875" lon="4.999">
        <ele>139.8</ele>
        <time>2019-10-02T09:56:02.000Z</time>
      </trkpt>
      <trkpt lat="50.64869" lon="4.99916">
        <ele>139.9</ele>
        <time>2019-10-02T09:56:05.000Z</time>
      </trkpt>
      <trkpt lat="50.64863" lon="4.99937">
        <ele>122.59999847412</ele>
        <time>2019-10-02T09:56:09.000Z</time>
        <extensions>
          <gpxtpx:TrackPointExtension xmlns:gpxtpx="http://www.garmin.com/xmlschemas/TrackPointExtension/v1">
            <gpxtpx:hr>133</gpxtpx:hr>
          </gpxtpx:TrackPointExtension>
        </extensions>
      </trkpt>
      <trkpt lat="50.64858" lon="4.99957">
        <ele>141.8</ele>
        <time>2019-10-02T09:56:11.000Z</time>
      </trkpt>
      <trkpt lat="50.64849" lon="4.99998">
        <ele>142.5</ele>
        <time>2019-10-02T09:56:17.000Z</time>
      </trkpt>
      <trkpt lat="50.64845" lon="5.00016">
        <ele>143.2</ele>
        <time>2019-10-02T09:56:18.000Z</time>
      </trkpt>
      <trkpt lat="50.64838" lon="5.00038">
        <ele>143.5</ele>
        <time>2019-10-02T09:56:20.000Z</time>
      </trkpt>
      <trkpt lat="50.64839" lon="5.0006">
        <ele>127.40000152588</ele>
        <time>2019-10-02T09:56:24.000Z</time>
        <extensions>
          <gpxtpx:TrackPointExtension xmlns:gpxtpx="http://www.garmin.com/xmlschemas/TrackPointExtension/v1">
            <gpxtpx:hr>140</gpxtpx:hr>
          </gpxtpx:TrackPointExtension>
        </extensions>
      </trkpt>
      <trkpt lat="50.64842" lon="5.00065">
        <ele>127.59999847412</ele>
        <time>2019-10-02T09:56:26.000Z</time>
        <extensions>
          <gpxtpx:TrackPointExtension xmlns:gpxtpx="http://www.garmin.com/xmlschemas/TrackPointExtension/v1">
            <gpxtpx:hr>141</gpxtpx:hr>
          </gpxtpx:TrackPointExtension>
        </extensions>
      </trkpt>
      <trkpt lat="50.64849" lon="5.00078">
        <ele>128</ele>
        <time>2019-10-02T09:56:28.000Z</time>
        <extensions>
          <gpxtpx:TrackPointExtension xmlns:gpxtpx="http://www.garmin.com/xmlschemas/TrackPointExtension/v1">
            <gpxtpx:hr>142</gpxtpx:hr>
          </gpxtpx:TrackPointExtension>
        </extensions>
      </trkpt>
      <trkpt lat="50.64855" lon="5.00091">
        <ele>129</ele>
        <time>2019-10-02T09:56:30.000Z</time>
        <extensions>
          <gpxtpx:TrackPointExtension xmlns:gpxtpx="http://www.garmin.com/xmlschemas/TrackPointExtension/v1">
            <gpxtpx:hr>143</gpxtpx:hr>
          </gpxtpx:TrackPointExtension>
        </extensions>
      </trkpt>
      <trkpt lat="50.64857" lon="5.00099">
        <ele>129.19999694824</ele>
        <time>2019-10-02T09:56:32.000Z</time>
        <extensions>
          <gpxtpx:TrackPointExtension xmlns:gpxtpx="http://www.garmin.com/xmlschemas/TrackPointExtension/v1">
            <gpxtpx:hr>144</gpxtpx:hr>
          </gpxtpx:TrackPointExtension>
        </extensions>
      </trkpt>
      <trkpt lat="50.64874" lon="5.00146">
        <ele>129.80000305176</ele>
        <time>2019-10-02T09:56:36.000Z</time>
        <extensions>
          <gpxtpx:TrackPointExtension xmlns:gpxtpx="http://www.garmin.com/xmlschemas/TrackPointExtension/v1">
            <gpxtpx:hr>147</gpxtpx:hr>
          </gpxtpx:TrackPointExtension>
        </extensions>
      </trkpt>
      <trkpt lat="50.64878" lon="5.00154">
        <ele>129.60000610352</ele>
        <time>2019-10-02T09:56:38.000Z</time>
        <extensions>
          <gpxtpx:TrackPointExtension xmlns:gpxtpx="http://www.garmin.com/xmlschemas/TrackPointExtension/v1">
            <gpxtpx:hr>147</gpxtpx:hr>
          </gpxtpx:TrackPointExtension>
        </extensions>
      </trkpt>
      <trkpt lat="50.64893" lon="5.00196">
        <ele>130.19999694824</ele>
        <time>2019-10-02T09:57:06.000Z</time>
        <extensions>
          <gpxtpx:TrackPointExtension xmlns:gpxtpx="http://www.garmin.com/xmlschemas/TrackPointExtension/v1">
            <gpxtpx:hr>148</gpxtpx:hr>
          </gpxtpx:TrackPointExtension>
        </extensions>
      </trkpt>
      <trkpt lat="50.64903" lon="5.00224">
        <ele>130.60000610352</ele>
        <time>2019-10-02T09:57:07.000Z</time>
        <extensions>
          <gpxtpx:TrackPointExtension xmlns:gpxtpx="http://www.garmin.com/xmlschemas/TrackPointExtension/v1">
            <gpxtpx:hr>148</gpxtpx:hr>
          </gpxtpx:TrackPointExtension>
        </extensions>
      </trkpt>
      <trkpt lat="50.6493" lon="5.00309">
        <ele>130.60000610352</ele>
        <time>2019-10-02T09:57:13.000Z</time>
        <extensions>
          <gpxtpx:TrackPointExtension xmlns:gpxtpx="http://www.garmin.com/xmlschemas/TrackPointExtension/v1">
            <gpxtpx:hr>147</gpxtpx:hr>
          </gpxtpx:TrackPointExtension>
        </extensions>
      </trkpt>
      <trkpt lat="50.64958" lon="5.00398">
        <ele>139.6</ele>
        <time>2019-10-02T09:57:17.000Z</time>
      </trkpt>
      <trkpt lat="50.64966" lon="5.00424">
        <ele>138.7</ele>
        <time>2019-10-02T09:57:25.000Z</time>
      </trkpt>
      <trkpt lat="50.64976" lon="5.00452">
        <ele>138.5</ele>
        <time>2019-10-02T09:57:30.000Z</time>
      </trkpt>
      <trkpt lat="50.64983" lon="5.00473">
        <ele>125.40000152588</ele>
        <time>2019-10-02T09:57:37.000Z</time>
        <extensions>
          <gpxtpx:TrackPointExtension xmlns:gpxtpx="http://www.garmin.com/xmlschemas/TrackPointExtension/v1">
            <gpxtpx:hr>119</gpxtpx:hr>
          </gpxtpx:TrackPointExtension>
        </extensions>
      </trkpt>
      <trkpt lat="50.64991" lon="5.00497">
        <ele>125.59999847412</ele>
        <time>2019-10-02T09:57:54.000Z</time>
        <extensions>
          <gpxtpx:TrackPointExtension xmlns:gpxtpx="http://www.garmin.com/xmlschemas/TrackPointExtension/v1">
            <gpxtpx:hr>117</gpxtpx:hr>
          </gpxtpx:TrackPointExtension>
        </extensions>
      </trkpt>
      <trkpt lat="50.65015" lon="5.00547">
        <ele>125.19999694824</ele>
        <time>2019-10-02T09:58:03.000Z</time>
        <extensions>
          <gpxtpx:TrackPointExtension xmlns:gpxtpx="http://www.garmin.com/xmlschemas/TrackPointExtension/v1">
            <gpxtpx:hr>117</gpxtpx:hr>
          </gpxtpx:TrackPointExtension>
        </extensions>
      </trkpt>
      <trkpt lat="50.65045" lon="5.00595">
        <ele>125</ele>
        <time>2019-10-02T09:58:06.000Z</time>
        <extensions>
          <gpxtpx:TrackPointExtension xmlns:gpxtpx="http://www.garmin.com/xmlschemas/TrackPointExtension/v1">
            <gpxtpx:hr>120</gpxtpx:hr>
          </gpxtpx:TrackPointExtension>
        </extensions>
      </trkpt>
      <trkpt lat="50.6505" lon="5.00603">
        <ele>124.80000305176</ele>
        <time>2019-10-02T09:58:14.000Z</time>
        <extensions>
          <gpxtpx:TrackPointExtension xmlns:gpxtpx="http://www.garmin.com/xmlschemas/TrackPointExtension/v1">
            <gpxtpx:hr>120</gpxtpx:hr>
          </gpxtpx:TrackPointExtension>
        </extensions>
      </trkpt>
      <trkpt lat="50.65071" lon="5.00637">
        <ele>124.80000305176</ele>
        <time>2019-10-02T09:58:16.000Z</time>
        <extensions>
          <gpxtpx:TrackPointExtension xmlns:gpxtpx="http://www.garmin.com/xmlschemas/TrackPointExtension/v1">
            <gpxtpx:hr>120</gpxtpx:hr>
          </gpxtpx:TrackPointExtension>
        </extensions>
      </trkpt>
      <trkpt lat="50.65091" lon="5.0067">
        <ele>120.80000305176</ele>
        <time>2019-10-02T09:58:19.000Z</time>
        <extensions>
          <gpxtpx:TrackPointExtension xmlns:gpxtpx="http://www.garmin.com/xmlschemas/TrackPointExtension/v1">
            <gpxtpx:hr>125</gpxtpx:hr>
          </gpxtpx:TrackPointExtension>
        </extensions>
      </trkpt>
      <trkpt lat="50.6511" lon="5.00698">
        <ele>120.80000305176</ele>
        <time>2019-10-02T09:58:24.000Z</time>
        <extensions>
          <gpxtpx:TrackPointExtension xmlns:gpxtpx="http://www.garmin.com/xmlschemas/TrackPointExtension/v1">
            <gpxtpx:hr>124</gpxtpx:hr>
          </gpxtpx:TrackPointExtension>
        </extensions>
      </trkpt>
      <trkpt lat="50.65114" lon="5.00704">
        <ele>120.80000305176</ele>
        <time>2019-10-02T09:58:26.000Z</time>
        <extensions>
          <gpxtpx:TrackPointExtension xmlns:gpxtpx="http://www.garmin.com/xmlschemas/TrackPointExtension/v1">
            <gpxtpx:hr>124</gpxtpx:hr>
          </gpxtpx:TrackPointExtension>
        </extensions>
      </trkpt>
      <trkpt lat="50.65127" lon="5.00723">
        <ele>120.80000305176</ele>
        <time>2019-10-02T09:58:30.000Z</time>
        <extensions>
          <gpxtpx:TrackPointExtension xmlns:gpxtpx="http://www.garmin.com/xmlschemas/TrackPointExtension/v1">
            <gpxtpx:hr>123</gpxtpx:hr>
          </gpxtpx:TrackPointExtension>
        </extensions>
      </trkpt>
      <trkpt lat="50.65141" lon="5.00746">
        <ele>120.80000305176</ele>
        <time>2019-10-02T09:58:35.000Z</time>
        <extensions>
          <gpxtpx:TrackPointExtension xmlns:gpxtpx="http://www.garmin.com/xmlschemas/TrackPointExtension/v1">
            <gpxtpx:hr>123</gpxtpx:hr>
          </gpxtpx:TrackPointExtension>
        </extensions>
      </trkpt>
      <trkpt lat="50.65182" lon="5.00808">
        <ele>120.80000305176</ele>
        <time>2019-10-02T09:58:37.000Z</time>
        <extensions>
          <gpxtpx:TrackPointExtension xmlns:gpxtpx="http://www.garmin.com/xmlschemas/TrackPointExtension/v1">
            <gpxtpx:hr>123</gpxtpx:hr>
          </gpxtpx:TrackPointExtension>
        </extensions>
      </trkpt>
      <trkpt lat="50.65227" lon="5.00872">
        <ele>120</ele>
        <time>2019-10-02T09:58:40.000Z</time>
        <extensions>
          <gpxtpx:TrackPointExtension xmlns:gpxtpx="http://www.garmin.com/xmlschemas/TrackPointExtension/v1">
            <gpxtpx:hr>125</gpxtpx:hr>
          </gpxtpx:TrackPointExtension>
        </extensions>
      </trkpt>
      <trkpt lat="50.65233" lon="5.0088">
        <ele>120</ele>
        <time>2019-10-02T09:58:44.000Z</time>
        <extensions>
          <gpxtpx:TrackPointExtension xmlns:gpxtpx="http://www.garmin.com/xmlschemas/TrackPointExtension/v1">
            <gpxtpx:hr>125</gpxtpx:hr>
          </gpxtpx:TrackPointExtension>
        </extensions>
      </trkpt>
      <trkpt lat="50.65261" lon="5.00922">
        <ele>119.59999847412</ele>
        <time>2019-10-02T09:58:48.000Z</time>
        <extensions>
          <gpxtpx:TrackPointExtension xmlns:gpxtpx="http://www.garmin.com/xmlschemas/TrackPointExtension/v1">
            <gpxtpx:hr>128</gpxtpx:hr>
          </gpxtpx:TrackPointExtension>
        </extensions>
      </trkpt>
      <trkpt lat="50.65279" lon="5.00948">
        <ele>119.59999847412</ele>
        <time>2019-10-02T09:58:50.000Z</time>
        <extensions>
          <gpxtpx:TrackPointExtension xmlns:gpxtpx="http://www.garmin.com/xmlschemas/TrackPointExtension/v1">
            <gpxtpx:hr>129</gpxtpx:hr>
          </gpxtpx:TrackPointExtension>
        </extensions>
      </trkpt>
      <trkpt lat="50.65309" lon="5.00992">
        <ele>119.19999694824</ele>
        <time>2019-10-02T09:58:54.000Z</time>
        <extensions>
          <gpxtpx:TrackPointExtension xmlns:gpxtpx="http://www.garmin.com/xmlschemas/TrackPointExtension/v1">
            <gpxtpx:hr>132</gpxtpx:hr>
          </gpxtpx:TrackPointExtension>
        </extensions>
      </trkpt>
      <trkpt lat="50.6534" lon="5.01037">
        <ele>118.80000305176</ele>
        <time>2019-10-02T09:59:02.000Z</time>
        <extensions>
          <gpxtpx:TrackPointExtension xmlns:gpxtpx="http://www.garmin.com/xmlschemas/TrackPointExtension/v1">
            <gpxtpx:hr>135</gpxtpx:hr>
          </gpxtpx:TrackPointExtension>
        </extensions>
      </trkpt>
      <trkpt lat="50.65352" lon="5.01056">
        <ele>118.40000152588</ele>
        <time>2019-10-02T09:59:04.000Z</time>
        <extensions>
          <gpxtpx:TrackPointExtension xmlns:gpxtpx="http://www.garmin.com/xmlschemas/TrackPointExtension/v1">
            <gpxtpx:hr>136</gpxtpx:hr>
          </gpxtpx:TrackPointExtension>
        </extensions>
      </trkpt>
      <trkpt lat="50.65386" lon="5.01112">
        <ele>118</ele>
        <time>2019-10-02T09:59:11.000Z</time>
        <extensions>
          <gpxtpx:TrackPointExtension xmlns:gpxtpx="http://www.garmin.com/xmlschemas/TrackPointExtension/v1">
            <gpxtpx:hr>137</gpxtpx:hr>
          </gpxtpx:TrackPointExtension>
        </extensions>
      </trkpt>
      <trkpt lat="50.65418" lon="5.01171">
        <ele>117.80000305176</ele>
        <time>2019-10-02T09:59:12.000Z</time>
        <extensions>
          <gpxtpx:TrackPointExtension xmlns:gpxtpx="http://www.garmin.com/xmlschemas/TrackPointExtension/v1">
            <gpxtpx:hr>140</gpxtpx:hr>
          </gpxtpx:TrackPointExtension>
        </extensions>
      </trkpt>
      <trkpt lat="50.6543" lon="5.01191">
        <ele>117.80000305176</ele>
        <time>2019-10-02T09:59:15.000Z</time>
        <extensions>
          <gpxtpx:TrackPointExtension xmlns:gpxtpx="http://www.garmin.com/xmlschemas/TrackPointExtension/v1">
            <gpxtpx:hr>141</gpxtpx:hr>
          </gpxtpx:TrackPointExtension>
        </extensions>
      </trkpt>
      <trkpt lat="50.65458" lon="5.01241">
        <ele>117.59999847412</ele>
        <time>2019-10-02T09:59:19.000Z</time>
        <extensions>
          <gpxtpx:TrackPointExtension xmlns:gpxtpx="http://www.garmin.com/xmlschemas/TrackPointExtension/v1">
            <gpxtpx:hr>144</gpxtpx:hr>
          </gpxtpx:TrackPointExtension>
        </extensions>
      </trkpt>
      <trkpt lat="50.65469" lon="5.0126">
        <ele>117.59999847412</ele>
        <time>2019-10-02T09:59:20.000Z</time>
        <extensions>
          <gpxtpx:TrackPointExtension xmlns:gpxtpx="http://www.garmin.com/xmlschemas/TrackPointExtension/v1">
            <gpxtpx:hr>145</gpxtpx:hr>
          </gpxtpx:TrackPointExtension>
        </extensions>
      </trkpt>
      <trkpt lat="50.65493" lon="5.01303">
        <ele>129.3</ele>
        <time>2019-10-02T09:59:22.000Z</time>
      </trkpt>
      <trkpt lat="50.65509" lon="5.01329">
        <ele>129.6</ele>
        <time>2019-10-02T09:59:27.000Z</time>
      </trkpt>
      <trkpt lat="50.65539" lon="5.01372">
        <ele>130.7</ele>
        <time>2019-10-02T09:59:29.000Z</time>
      </trkpt>
      <trkpt lat="50.65563" lon="5.01399">
        <ele>118.59999847412</ele>
        <time>2019-10-02T09:59:34.000Z</time>
        <extensions>
          <gpxtpx:TrackPointExtension xmlns:gpxtpx="http://www.garmin.com/xmlschemas/TrackPointExtension/v1">
            <gpxtpx:hr>152</gpxtpx:hr>
          </gpxtpx:TrackPointExtension>
        </extensions>
      </trkpt>
      <trkpt lat="50.65592" lon="5.01427">
        <ele>119.19999694824</ele>
        <time>2019-10-02T09:59:36.000Z</time>
        <extensions>
          <gpxtpx:TrackPointExtension xmlns:gpxtpx="http://www.garmin.com/xmlschemas/TrackPointExtension/v1">
            <gpxtpx:hr>154</gpxtpx:hr>
          </gpxtpx:TrackPointExtension>
        </extensions>
      </trkpt>
      <trkpt lat="50.65627" lon="5.01462">
        <ele>119.40000152588</ele>
        <time>2019-10-02T09:59:42.000Z</time>
        <extensions>
          <gpxtpx:TrackPointExtension xmlns:gpxtpx="http://www.garmin.com/xmlschemas/TrackPointExtension/v1">
            <gpxtpx:hr>157</gpxtpx:hr>
          </gpxtpx:TrackPointExtension>
        </extensions>
      </trkpt>
      <trkpt lat="50.65651" lon="5.01486">
        <ele>119.59999847412</ele>
        <time>2019-10-02T09:59:47.000Z</time>
        <extensions>
          <gpxtpx:TrackPointExtension xmlns:gpxtpx="http://www.garmin.com/xmlschemas/TrackPointExtension/v1">
            <gpxtpx:hr>159</gpxtpx:hr>
          </gpxtpx:TrackPointExtension>
        </extensions>
      </trkpt>
      <trkpt lat="50.65657" lon="5.01492">
        <ele>119.80000305176</ele>
        <time>2019-10-02T09:59:52.000Z</time>
        <extensions>
          <gpxtpx:TrackPointExtension xmlns:gpxtpx="http://www.garmin.com/xmlschemas/TrackPointExtension/v1">
            <gpxtpx:hr>159</gpxtpx:hr>
          </gpxtpx:TrackPointExtension>
        </extensions>
      </trkpt>
      <trkpt lat="50.657" lon="5.01533">
        <ele>120.59999847412</ele>
        <time>2019-10-02T10:00:09.000Z</time>
        <extensions>
          <gpxtpx:TrackPointExtension xmlns:gpxtpx="http://www.garmin.com/xmlschemas/TrackPointExtension/v1">
            <gpxtpx:hr>161</gpxtpx:hr>
          </gpxtpx:TrackPointExtension>
        </extensions>
      </trkpt>
      <trkpt lat="50.65712" lon="5.01545">
        <ele>120.80000305176</ele>
        <time>2019-10-02T10:00:12.000Z</time>
        <extensions>
          <gpxtpx:TrackPointExtension xmlns:gpxtpx="http://www.garmin.com/xmlschemas/TrackPointExtension/v1">
            <gpxtpx:hr>162</gpxtpx:hr>
          </gpxtpx:TrackPointExtension>
        </extensions>
      </trkpt>
      <trkpt lat="50.65748" lon="5.01582">
        <ele>121.19999694824</ele>
        <time>2019-10-02T10:00:17.000Z</time>
        <extensions>
          <gpxtpx:TrackPointExtension xmlns:gpxtpx="http://www.garmin.com/xmlschemas/TrackPointExtension/v1">
            <gpxtpx:hr>163</gpxtpx:hr>
          </gpxtpx:TrackPointExtension>
        </extensions>
      </trkpt>
      <trkpt lat="50.65763" lon="5.01603">
        <ele>134</ele>
        <time>2019-10-02T10:00:24.000Z</time>
      </trkpt>
      <trkpt lat="50.65791" lon="5.01649">
        <ele>133.5</ele>
        <time>2019-10-02T10:00:27.000Z</time>
      </trkpt>
      <trkpt lat="50.65817" lon="5.01702">
        <ele>120.80000305176</ele>
        <time>2019-10-02T10:00:33.000Z</time>
        <extensions>
          <gpxtpx:TrackPointExtension xmlns:gpxtpx="http://www.garmin.com/xmlschemas/TrackPointExtension/v1">
            <gpxtpx:hr>164</gpxtpx:hr>
          </gpxtpx:TrackPointExtension>
        </extensions>
      </trkpt>
      <trkpt lat="50.65845" lon="5.01768">
        <ele>119.40000152588</ele>
        <time>2019-10-02T10:00:35.000Z</time>
        <extensions>
          <gpxtpx:TrackPointExtension xmlns:gpxtpx="http://www.garmin.com/xmlschemas/TrackPointExtension/v1">
            <gpxtpx:hr>163</gpxtpx:hr>
          </gpxtpx:TrackPointExtension>
        </extensions>
      </trkpt>
      <trkpt lat="50.65864" lon="5.01813">
        <ele>118.19999694824</ele>
        <time>2019-10-02T10:00:36.000Z</time>
        <extensions>
          <gpxtpx:TrackPointExtension xmlns:gpxtpx="http://www.garmin.com/xmlschemas/TrackPointExtension/v1">
            <gpxtpx:hr>162</gpxtpx:hr>
          </gpxtpx:TrackPointExtension>
        </extensions>
      </trkpt>
      <trkpt lat="50.65884" lon="5.01857">
        <ele>117</ele>
        <time>2019-10-02T10:00:40.000Z</time>
        <extensions>
          <gpxtpx:TrackPointExtension xmlns:gpxtpx="http://www.garmin.com/xmlschemas/TrackPointExtension/v1">
            <gpxtpx:hr>160</gpxtpx:hr>
          </gpxtpx:TrackPointExtension>
        </extensions>
      </trkpt>
      <trkpt lat="50.65902" lon="5.01889">
        <ele>116.19999694824</ele>
        <time>2019-10-02T10:00:41.000Z</time>
        <extensions>
          <gpxtpx:TrackPointExtension xmlns:gpxtpx="http://www.garmin.com/xmlschemas/TrackPointExtension/v1">
            <gpxtpx:hr>159</gpxtpx:hr>
          </gpxtpx:TrackPointExtension>
        </extensions>
      </trkpt>
      <trkpt lat="50.65908" lon="5.01899">
        <ele>116</ele>
        <time>2019-10-02T10:00:43.000Z</time>
        <extensions>
          <gpxtpx:TrackPointExtension xmlns:gpxtpx="http://www.garmin.com/xmlschemas/TrackPointExtension/v1">
            <gpxtpx:hr>159</gpxtpx:hr>
          </gpxtpx:TrackPointExtension>
        </extensions>
      </trkpt>
      <trkpt lat="50.65941" lon="5.01947">
        <ele>114.80000305176</ele>
        <time>2019-10-02T10:00:46.000Z</time>
        <extensions>
          <gpxtpx:TrackPointExtension xmlns:gpxtpx="http://www.garmin.com/xmlschemas/TrackPointExtension/v1">
            <gpxtpx:hr>157</gpxtpx:hr>
          </gpxtpx:TrackPointExtension>
        </extensions>
      </trkpt>
      <trkpt lat="50.65954" lon="5.01966">
        <ele>114.59999847412</ele>
        <time>2019-10-02T10:00:47.000Z</time>
        <extensions>
          <gpxtpx:TrackPointExtension xmlns:gpxtpx="http://www.garmin.com/xmlschemas/TrackPointExtension/v1">
            <gpxtpx:hr>157</gpxtpx:hr>
          </gpxtpx:TrackPointExtension>
        </extensions>
      </trkpt>
      <trkpt lat="50.6598" lon="5.02003">
        <ele>113.59999847412</ele>
        <time>2019-10-02T10:00:50.000Z</time>
        <extensions>
          <gpxtpx:TrackPointExtension xmlns:gpxtpx="http://www.garmin.com/xmlschemas/TrackPointExtension/v1">
            <gpxtpx:hr>156</gpxtpx:hr>
          </gpxtpx:TrackPointExtension>
        </extensions>
      </trkpt>
      <trkpt lat="50.65998" lon="5.02031">
        <ele>113</ele>
        <time>2019-10-02T10:00:52.000Z</time>
        <extensions>
          <gpxtpx:TrackPointExtension xmlns:gpxtpx="http://www.garmin.com/xmlschemas/TrackPointExtension/v1">
            <gpxtpx:hr>155</gpxtpx:hr>
          </gpxtpx:TrackPointExtension>
        </extensions>
      </trkpt>
      <trkpt lat="50.66041" lon="5.02092">
        <ele>112.59999847412</ele>
        <time>2019-10-02T10:00:53.000Z</time>
        <extensions>
          <gpxtpx:TrackPointExtension xmlns:gpxtpx="http://www.garmin.com/xmlschemas/TrackPointExtension/v1">
            <gpxtpx:hr>154</gpxtpx:hr>
          </gpxtpx:TrackPointExtension>
        </extensions>
      </trkpt>
      <trkpt lat="50.66048" lon="5.021">
        <ele>112.59999847412</ele>
        <time>2019-10-02T10:01:00.000Z</time>
        <extensions>
          <gpxtpx:TrackPointExtension xmlns:gpxtpx="http://www.garmin.com/xmlschemas/TrackPointExtension/v1">
            <gpxtpx:hr>153</gpxtpx:hr>
          </gpxtpx:TrackPointExtension>
        </extensions>
      </trkpt>
      <trkpt lat="50.66084" lon="5.02136">
        <ele>112</ele>
        <time>2019-10-02T10:01:05.000Z</time>
        <extensions>
          <gpxtpx:TrackPointExtension xmlns:gpxtpx="http://www.garmin.com/xmlschemas/TrackPointExtension/v1">
            <gpxtpx:hr>154</gpxtpx:hr>
          </gpxtpx:TrackPointExtension>
        </extensions>
      </trkpt>
      <trkpt lat="50.66124" lon="5.0217">
        <ele>111.59999847412</ele>
        <time>2019-10-02T10:01:07.000Z</time>
        <extensions>
          <gpxtpx:TrackPointExtension xmlns:gpxtpx="http://www.garmin.com/xmlschemas/TrackPointExtension/v1">
            <gpxtpx:hr>157</gpxtpx:hr>
          </gpxtpx:TrackPointExtension>
        </extensions>
      </trkpt>
      <trkpt lat="50.66139" lon="5.02183">
        <ele>111.59999847412</ele>
        <time>2019-10-02T10:01:15.000Z</time>
        <extensions>
          <gpxtpx:TrackPointExtension xmlns:gpxtpx="http://www.garmin.com/xmlschemas/TrackPointExtension/v1">
            <gpxtpx:hr>158</gpxtpx:hr>
          </gpxtpx:TrackPointExtension>
        </extensions>
      </trkpt>
      <trkpt lat="50.66184" lon="5.02221">
        <ele>111.40000152588</ele>
        <time>2019-10-02T10:01:19.000Z</time>
        <extensions>
          <gpxtpx:TrackPointExtension xmlns:gpxtpx="http://www.garmin.com/xmlschemas/TrackPointExtension/v1">
            <gpxtpx:hr>161</gpxtpx:hr>
          </gpxtpx:TrackPointExtension>
        </extensions>
      </trkpt>
      <trkpt lat="50.66192" lon="5.02227">
        <ele>111.40000152588</ele>
        <time>2019-10-02T10:01:53.000Z</time>
        <extensions>
          <gpxtpx:TrackPointExtension xmlns:gpxtpx="http://www.garmin.com/xmlschemas/TrackPointExtension/v1">
            <gpxtpx:hr>161</gpxtpx:hr>
          </gpxtpx:TrackPointExtension>
        </extensions>
      </trkpt>
      <trkpt lat="50.66213" lon="5.02247">
        <ele>111.40000152588</ele>
        <time>2019-10-02T10:01:57.000Z</time>
        <extensions>
          <gpxtpx:TrackPointExtension xmlns:gpxtpx="http://www.garmin.com/xmlschemas/TrackPointExtension/v1">
            <gpxtpx:hr>162</gpxtpx:hr>
          </gpxtpx:TrackPointExtension>
        </extensions>
      </trkpt>
      <trkpt lat="50.66235" lon="5.02276">
        <ele>124.1</ele>
        <time>2019-10-02T10:02:00.000Z</time>
      </trkpt>
      <trkpt lat="50.66269" lon="5.02346">
        <ele>124.8</ele>
        <time>2019-10-02T10:02:06.000Z</time>
      </trkpt>
      <trkpt lat="50.66296" lon="5.02407">
        <ele>111.59999847412</ele>
        <time>2019-10-02T10:02:15.000Z</time>
        <extensions>
          <gpxtpx:TrackPointExtension xmlns:gpxtpx="http://www.garmin.com/xmlschemas/TrackPointExtension/v1">
            <gpxtpx:hr>168</gpxtpx:hr>
          </gpxtpx:TrackPointExtension>
        </extensions>
      </trkpt>
      <trkpt lat="50.66304" lon="5.02427">
        <ele>112</ele>
        <time>2019-10-02T10:02:23.000Z</time>
        <extensions>
          <gpxtpx:TrackPointExtension xmlns:gpxtpx="http://www.garmin.com/xmlschemas/TrackPointExtension/v1">
            <gpxtpx:hr>169</gpxtpx:hr>
          </gpxtpx:TrackPointExtension>
        </extensions>
      </trkpt>
      <trkpt lat="50.66334" lon="5.02498">
        <ele>112.40000152588</ele>
        <time>2019-10-02T10:02:31.000Z</time>
        <extensions>
          <gpxtpx:TrackPointExtension xmlns:gpxtpx="http://www.garmin.com/xmlschemas/TrackPointExtension/v1">
            <gpxtpx:hr>172</gpxtpx:hr>
          </gpxtpx:TrackPointExtension>
        </extensions>
      </trkpt>
      <trkpt lat="50.66338" lon="5.02508">
        <ele>112.59999847412</ele>
        <time>2019-10-02T10:02:54.000Z</time>
        <extensions>
          <gpxtpx:TrackPointExtension xmlns:gpxtpx="http://www.garmin.com/xmlschemas/TrackPointExtension/v1">
            <gpxtpx:hr>172</gpxtpx:hr>
          </gpxtpx:TrackPointExtension>
        </extensions>
      </trkpt>
      <trkpt lat="50.66346" lon="5.02529">
        <ele>113.19999694824</ele>
        <time>2019-10-02T10:03:01.000Z</time>
        <extensions>
          <gpxtpx:TrackPointExtension xmlns:gpxtpx="http://www.garmin.com/xmlschemas/TrackPointExtension/v1">
            <gpxtpx:hr>173</gpxtpx:hr>
          </gpxtpx:TrackPointExtension>
        </extensions>
      </trkpt>
      <trkpt lat="50.66367" lon="5.02582">
        <ele>113.59999847412</ele>
        <time>2019-10-02T10:03:02.000Z</time>
        <extensions>
          <gpxtpx:TrackPointExtension xmlns:gpxtpx="http://www.garmin.com/xmlschemas/TrackPointExtension/v1">
            <gpxtpx:hr>173</gpxtpx:hr>
          </gpxtpx:TrackPointExtension>
        </extensions>
      </trkpt>
      <trkpt lat="50.6639" lon="5.02637">
        <ele>113.59999847412</ele>
        <time>2019-10-02T10:03:09.000Z</time>
        <extensions>
          <gpxtpx:TrackPointExtension xmlns:gpxtpx="http://www.garmin.com/xmlschemas/TrackPointExtension/v1">
            <gpxtpx:hr>173</gpxtpx:hr>
          </gpxtpx:TrackPointExtension>
        </extensions>
      </trkpt>
      <trkpt lat="50.66421" lon="5.02714">
        <ele>112.59999847412</ele>
        <time>2019-10-02T10:03:11.000Z</time>
        <extensions>
          <gpxtpx:TrackPointExtension xmlns:gpxtpx="http://www.garmin.com/xmlschemas/TrackPointExtension/v1">
            <gpxtpx:hr>171</gpxtpx:hr>
          </gpxtpx:TrackPointExtension>
        </extensions>
      </trkpt>
      <trkpt lat="50.66426" lon="5.02725">
        <ele>112.40000152588</ele>
        <time>2019-10-02T10:03:16.000Z</time>
        <extensions>
          <gpxtpx:TrackPointExtension xmlns:gpxtpx="http://www.garmin.com/xmlschemas/TrackPointExtension/v1">
            <gpxtpx:hr>171</gpxtpx:hr>
          </gpxtpx:TrackPointExtension>
        </extensions>
      </trkpt>
      <trkpt lat="50.66444" lon="5.02769">
        <ele>111.19999694824</ele>
        <time>2019-10-02T10:03:18.000Z</time>
        <extensions>
          <gpxtpx:TrackPointExtension xmlns:gpxtpx="http://www.garmin.com/xmlschemas/TrackPointExtension/v1">
            <gpxtpx:hr>170</gpxtpx:hr>
          </gpxtpx:TrackPointExtension>
        </extensions>
      </trkpt>
      <trkpt lat="50.66467" lon="5.02825">
        <ele>110.19999694824</ele>
        <time>2019-10-02T10:03:25.000Z</time>
        <extensions>
          <gpxtpx:TrackPointExtension xmlns:gpxtpx="http://www.garmin.com/xmlschemas/TrackPointExtension/v1">
            <gpxtpx:hr>169</gpxtpx:hr>
          </gpxtpx:TrackPointExtension>
        </extensions>
      </trkpt>
      <trkpt lat="50.66471" lon="5.02836">
        <ele>110</ele>
        <time>2019-10-02T10:03:29.000Z</time>
        <extensions>
          <gpxtpx:TrackPointExtension xmlns:gpxtpx="http://www.garmin.com/xmlschemas/TrackPointExtension/v1">
            <gpxtpx:hr>169</gpxtpx:hr>
          </gpxtpx:TrackPointExtension>
        </extensions>
      </trkpt>
      <trkpt lat="50.66497" lon="5.02899">
        <ele>109</ele>
        <time>2019-10-02T10:03:32.000Z</time>
        <extensions>
          <gpxtpx:TrackPointExtension xmlns:gpxtpx="http://www.garmin.com/xmlschemas/TrackPointExtension/v1">
            <gpxtpx:hr>168</gpxtpx:hr>
          </gpxtpx:TrackPointExtension>
        </extensions>
      </trkpt>
      <trkpt lat="50.66505" lon="5.02919">
        <ele>108.40000152588</ele>
        <time>2019-10-02T10:03:35.000Z</time>
        <extensions>
          <gpxtpx:TrackPointExtension xmlns:gpxtpx="http://www.garmin.com/xmlschemas/TrackPointExtension/v1">
            <gpxtpx:hr>168</gpxtpx:hr>
          </gpxtpx:TrackPointExtension>
        </extensions>
      </trkpt>
      <trkpt lat="50.66535" lon="5.02994">
        <ele>108.40000152588</ele>
        <time>2019-10-02T10:03:39.000Z</time>
        <extensions>
          <gpxtpx:TrackPointExtension xmlns:gpxtpx="http://www.garmin.com/xmlschemas/TrackPointExtension/v1">
            <gpxtpx:hr>168</gpxtpx:hr>
          </gpxtpx:TrackPointExtension>
        </extensions>
      </trkpt>
      <trkpt lat="50.66543" lon="5.03012">
        <ele>108.40000152588</ele>
        <time>2019-10-02T10:03:45.000Z</time>
        <extensions>
          <gpxtpx:TrackPointExtension xmlns:gpxtpx="http://www.garmin.com/xmlschemas/TrackPointExtension/v1">
            <gpxtpx:hr>168</gpxtpx:hr>
          </gpxtpx:TrackPointExtension>
        </extensions>
      </trkpt>
      <trkpt lat="50.66571" lon="5.03081">
        <ele>125.5</ele>
        <time>2019-10-02T10:03:49.000Z</time>
      </trkpt>
      <trkpt lat="50.66581" lon="5.03102">
        <ele>109.40000152588</ele>
        <time>2019-10-02T10:03:51.000Z</time>
        <extensions>
          <gpxtpx:TrackPointExtension xmlns:gpxtpx="http://www.garmin.com/xmlschemas/TrackPointExtension/v1">
            <gpxtpx:hr>169</gpxtpx:hr>
          </gpxtpx:TrackPointExtension>
        </extensions>
      </trkpt>
      <trkpt lat="50.66593" lon="5.03128">
        <ele>110</ele>
        <time>2019-10-02T10:03:57.000Z</time>
        <extensions>
          <gpxtpx:TrackPointExtension xmlns:gpxtpx="http://www.garmin.com/xmlschemas/TrackPointExtension/v1">
            <gpxtpx:hr>170</gpxtpx:hr>
          </gpxtpx:TrackPointExtension>
        </extensions>
      </trkpt>
      <trkpt lat="50.6662" lon="5.03177">
        <ele>111</ele>
        <time>2019-10-02T10:04:02.000Z</time>
        <extensions>
          <gpxtpx:TrackPointExtension xmlns:gpxtpx="http://www.garmin.com/xmlschemas/TrackPointExtension/v1">
            <gpxtpx:hr>170</gpxtpx:hr>
          </gpxtpx:TrackPointExtension>
        </extensions>
      </trkpt>
      <trkpt lat="50.66624" lon="5.03185">
        <ele>111.19999694824</ele>
        <time>2019-10-02T10:04:03.000Z</time>
        <extensions>
          <gpxtpx:TrackPointExtension xmlns:gpxtpx="http://www.garmin.com/xmlschemas/TrackPointExtension/v1">
            <gpxtpx:hr>170</gpxtpx:hr>
          </gpxtpx:TrackPointExtension>
        </extensions>
      </trkpt>
      <trkpt lat="50.66652" lon="5.03234">
        <ele>112</ele>
        <time>2019-10-02T10:04:05.000Z</time>
        <extensions>
          <gpxtpx:TrackPointExtension xmlns:gpxtpx="http://www.garmin.com/xmlschemas/TrackPointExtension/v1">
            <gpxtpx:hr>170</gpxtpx:hr>
          </gpxtpx:TrackPointExtension>
        </extensions>
      </trkpt>
      <trkpt lat="50.66657" lon="5.03241">
        <ele>112</ele>
        <time>2019-10-02T10:04:10.000Z</time>
        <extensions>
          <gpxtpx:TrackPointExtension xmlns:gpxtpx="http://www.garmin.com/xmlschemas/TrackPointExtension/v1">
            <gpxtpx:hr>170</gpxtpx:hr>
          </gpxtpx:TrackPointExtension>
        </extensions>
      </trkpt>
      <trkpt lat="50.66662" lon="5.03247">
        <ele>112.19999694824</ele>
        <time>2019-10-02T10:04:12.000Z</time>
        <extensions>
          <gpxtpx:TrackPointExtension xmlns:gpxtpx="http://www.garmin.com/xmlschemas/TrackPointExtension/v1">
            <gpxtpx:hr>170</gpxtpx:hr>
          </gpxtpx:TrackPointExtension>
        </extensions>
      </trkpt>
      <trkpt lat="50.66696" lon="5.03287">
        <ele>113.40000152588</ele>
        <time>2019-10-02T10:04:16.000Z</time>
        <extensions>
          <gpxtpx:TrackPointExtension xmlns:gpxtpx="http://www.garmin.com/xmlschemas/TrackPointExtension/v1">
            <gpxtpx:hr>170</gpxtpx:hr>
          </gpxtpx:TrackPointExtension>
        </extensions>
      </trkpt>
      <trkpt lat="50.66743" lon="5.03343">
        <ele>114.19999694824</ele>
        <time>2019-10-02T10:04:23.000Z</time>
        <extensions>
          <gpxtpx:TrackPointExtension xmlns:gpxtpx="http://www.garmin.com/xmlschemas/TrackPointExtension/v1">
            <gpxtpx:hr>170</gpxtpx:hr>
          </gpxtpx:TrackPointExtension>
        </extensions>
      </trkpt>
      <trkpt lat="50.66749" lon="5.0335">
        <ele>114.19999694824</ele>
        <time>2019-10-02T10:04:25.000Z</time>
        <extensions>
          <gpxtpx:TrackPointExtension xmlns:gpxtpx="http://www.garmin.com/xmlschemas/TrackPointExtension/v1">
            <gpxtpx:hr>170</gpxtpx:hr>
          </gpxtpx:TrackPointExtension>
        </extensions>
      </trkpt>
      <trkpt lat="50.66793" lon="5.03403">
        <ele>114.19999694824</ele>
        <time>2019-10-02T10:04:29.000Z</time>
        <extensions>
          <gpxtpx:TrackPointExtension xmlns:gpxtpx="http://www.garmin.com/xmlschemas/TrackPointExtension/v1">
            <gpxtpx:hr>168</gpxtpx:hr>
          </gpxtpx:TrackPointExtension>
        </extensions>
      </trkpt>
      <trkpt lat="50.66807" lon="5.03419">
        <ele>114.19999694824</ele>
        <time>2019-10-02T10:04:31.000Z</time>
        <extensions>
          <gpxtpx:TrackPointExtension xmlns:gpxtpx="http://www.garmin.com/xmlschemas/TrackPointExtension/v1">
            <gpxtpx:hr>168</gpxtpx:hr>
          </gpxtpx:TrackPointExtension>
        </extensions>
      </trkpt>
      <trkpt lat="50.66856" lon="5.03477">
        <ele>112.40000152588</ele>
        <time>2019-10-02T10:04:37.000Z</time>
        <extensions>
          <gpxtpx:TrackPointExtension xmlns:gpxtpx="http://www.garmin.com/xmlschemas/TrackPointExtension/v1">
            <gpxtpx:hr>166</gpxtpx:hr>
          </gpxtpx:TrackPointExtension>
        </extensions>
      </trkpt>
      <trkpt lat="50.66864" lon="5.03486">
        <ele>112.19999694824</ele>
        <time>2019-10-02T10:04:45.000Z</time>
        <extensions>
          <gpxtpx:TrackPointExtension xmlns:gpxtpx="http://www.garmin.com/xmlschemas/TrackPointExtension/v1">
            <gpxtpx:hr>165</gpxtpx:hr>
          </gpxtpx:TrackPointExtension>
        </extensions>
      </trkpt>
      <trkpt lat="50.66871" lon="5.03495">
        <ele>112</ele>
        <time>2019-10-02T10:04:53.000Z</time>
        <extensions>
          <gpxtpx:TrackPointExtension xmlns:gpxtpx="http://www.garmin.com/xmlschemas/TrackPointExtension/v1">
            <gpxtpx:hr>165</gpxtpx:hr>
          </gpxtpx:TrackPointExtension>
        </extensions>
      </trkpt>
      <trkpt lat="50.66895" lon="5.03522">
        <ele>111</ele>
        <time>2019-10-02T10:04:54.000Z</time>
        <extensions>
          <gpxtpx:TrackPointExtension xmlns:gpxtpx="http://www.garmin.com/xmlschemas/TrackPointExtension/v1">
            <gpxtpx:hr>164</gpxtpx:hr>
          </gpxtpx:TrackPointExtension>
        </extensions>
      </trkpt>
      <trkpt lat="50.66927" lon="5.0356">
        <ele>109.80000305176</ele>
        <time>2019-10-02T10:05:02.000Z</time>
        <extensions>
          <gpxtpx:TrackPointExtension xmlns:gpxtpx="http://www.garmin.com/xmlschemas/TrackPointExtension/v1">
            <gpxtpx:hr>162</gpxtpx:hr>
          </gpxtpx:TrackPointExtension>
        </extensions>
      </trkpt>
      <trkpt lat="50.66935" lon="5.03569">
        <ele>109.40000152588</ele>
        <time>2019-10-02T10:05:03.000Z</time>
        <extensions>
          <gpxtpx:TrackPointExtension xmlns:gpxtpx="http://www.garmin.com/xmlschemas/TrackPointExtension/v1">
            <gpxtpx:hr>162</gpxtpx:hr>
          </gpxtpx:TrackPointExtension>
        </extensions>
      </trkpt>
      <trkpt lat="50.66966" lon="5.03606">
        <ele>108.59999847412</ele>
        <time>2019-10-02T10:05:05.000Z</time>
        <extensions>
          <gpxtpx:TrackPointExtension xmlns:gpxtpx="http://www.garmin.com/xmlschemas/TrackPointExtension/v1">
            <gpxtpx:hr>159</gpxtpx:hr>
          </gpxtpx:TrackPointExtension>
        </extensions>
      </trkpt>
      <trkpt lat="50.66988" lon="5.03632">
        <ele>107.59999847412</ele>
        <time>2019-10-02T10:05:09.000Z</time>
        <extensions>
          <gpxtpx:TrackPointExtension xmlns:gpxtpx="http://www.garmin.com/xmlschemas/TrackPointExtension/v1">
            <gpxtpx:hr>156</gpxtpx:hr>
          </gpxtpx:TrackPointExtension>
        </extensions>
      </trkpt>
      <trkpt lat="50.66995" lon="5.03641">
        <ele>107.40000152588</ele>
        <time>2019-10-02T10:05:10.000Z</time>
        <extensions>
          <gpxtpx:TrackPointExtension xmlns:gpxtpx="http://www.garmin.com/xmlschemas/TrackPointExtension/v1">
            <gpxtpx:hr>155</gpxtpx:hr>
          </gpxtpx:TrackPointExtension>
        </extensions>
      </trkpt>
      <trkpt lat="50.67028" lon="5.03678">
        <ele>117.7</ele>
        <time>2019-10-02T10:05:15.000Z</time>
      </trkpt>
      <trkpt lat="50.67049" lon="5.03703">
        <ele>118</ele>
        <time>2019-10-02T10:05:31.000Z</time>
      </trkpt>
      <trkpt lat="50.67089" lon="5.03752">
        <ele>104.59999847412</ele>
        <time>2019-10-02T10:05:34.000Z</time>
        <extensions>
          <gpxtpx:TrackPointExtension xmlns:gpxtpx="http://www.garmin.com/xmlschemas/TrackPointExtension/v1">
            <gpxtpx:hr>153</gpxtpx:hr>
          </gpxtpx:TrackPointExtension>
        </extensions>
      </trkpt>
      <trkpt lat="50.67122" lon="5.0379">
        <ele>105.19999694824</ele>
        <time>2019-10-02T10:05:41.000Z</time>
        <extensions>
          <gpxtpx:TrackPointExtension xmlns:gpxtpx="http://www.garmin.com/xmlschemas/TrackPointExtension/v1">
            <gpxtpx:hr>155</gpxtpx:hr>
          </gpxtpx:TrackPointExtension>
        </extensions>
      </trkpt>
      <trkpt lat="50.67131" lon="5.03802">
        <ele>106</ele>
        <time>2019-10-02T10:05:42.000Z</time>
        <extensions>
          <gpxtpx:TrackPointExtension xmlns:gpxtpx="http://www.garmin.com/xmlschemas/TrackPointExtension/v1">
            <gpxtpx:hr>156</gpxtpx:hr>
          </gpxtpx:TrackPointExtension>
        </extensions>
      </trkpt>
      <trkpt lat="50.67144" lon="5.03811">
        <ele>122.6</ele>
        <time>2019-10-02T10:05:47.000Z</time>
      </trkpt>
      <trkpt lat="50.67137" lon="5.03846">
        <ele>124.2</ele>
        <time>2019-10-02T10:05:49.000Z</time>
      </trkpt>
      <trkpt lat="50.67132" lon="5.03881">
        <ele>124.7</ele>
        <time>2019-10-02T10:05:51.000Z</time>
      </trkpt>
      <trkpt lat="50.67128" lon="5.03928">
        <ele>109.19999694824</ele>
        <time>2019-10-02T10:05:55.000Z</time>
        <extensions>
          <gpxtpx:TrackPointExtension xmlns:gpxtpx="http://www.garmin.com/xmlschemas/TrackPointExtension/v1">
            <gpxtpx:hr>158</gpxtpx:hr>
          </gpxtpx:TrackPointExtension>
        </extensions>
      </trkpt>
      <trkpt lat="50.67127" lon="5.03938">
        <ele>109.19999694824</ele>
        <time>2019-10-02T10:06:01.000Z</time>
        <extensions>
          <gpxtpx:TrackPointExtension xmlns:gpxtpx="http://www.garmin.com/xmlschemas/TrackPointExtension/v1">
            <gpxtpx:hr>159</gpxtpx:hr>
          </gpxtpx:TrackPointExtension>
        </extensions>
      </trkpt>
      <trkpt lat="50.67122" lon="5.0401">
        <ele>110.40000152588</ele>
        <time>2019-10-02T10:06:07.000Z</time>
        <extensions>
          <gpxtpx:TrackPointExtension xmlns:gpxtpx="http://www.garmin.com/xmlschemas/TrackPointExtension/v1">
            <gpxtpx:hr>160</gpxtpx:hr>
          </gpxtpx:TrackPointExtension>
        </extensions>
      </trkpt>
      <trkpt lat="50.6712" lon="5.04044">
        <ele>111</ele>
        <time>2019-10-02T10:06:09.000Z</time>
        <extensions>
          <gpxtpx:TrackPointExtension xmlns:gpxtpx="http://www.garmin.com/xmlschemas/TrackPointExtension/v1">
            <gpxtpx:hr>161</gpxtpx:hr>
          </gpxtpx:TrackPointExtension>
        </extensions>
      </trkpt>
      <trkpt lat="50.67119" lon="5.04067">
        <ele>111.40000152588</ele>
        <time>2019-10-02T10:06:10.000Z</time>
        <extensions>
          <gpxtpx:TrackPointExtension xmlns:gpxtpx="http://www.garmin.com/xmlschemas/TrackPointExtension/v1">
            <gpxtpx:hr>161</gpxtpx:hr>
          </gpxtpx:TrackPointExtension>
        </extensions>
      </trkpt>
      <trkpt lat="50.67116" lon="5.04112">
        <ele>111.80000305176</ele>
        <time>2019-10-02T10:06:16.000Z</time>
        <extensions>
          <gpxtpx:TrackPointExtension xmlns:gpxtpx="http://www.garmin.com/xmlschemas/TrackPointExtension/v1">
            <gpxtpx:hr>161</gpxtpx:hr>
          </gpxtpx:TrackPointExtension>
        </extensions>
      </trkpt>
      <trkpt lat="50.67115" lon="5.04125">
        <ele>128.1</ele>
        <time>2019-10-02T10:06:20.000Z</time>
      </trkpt>
      <trkpt lat="50.67142" lon="5.04133">
        <ele>128</ele>
        <time>2019-10-02T10:06:27.000Z</time>
      </trkpt>
      <trkpt lat="50.67189" lon="5.04142">
        <ele>127.6</ele>
        <time>2019-10-02T10:06:28.000Z</time>
      </trkpt>
      <trkpt lat="50.67223" lon="5.04148">
        <ele>127.6</ele>
        <time>2019-10-02T10:06:36.000Z</time>
      </trkpt>
      <trkpt lat="50.67267" lon="5.04161">
        <ele>113.80000305176</ele>
        <time>2019-10-02T10:06:40.000Z</time>
        <extensions>
          <gpxtpx:TrackPointExtension xmlns:gpxtpx="http://www.garmin.com/xmlschemas/TrackPointExtension/v1">
            <gpxtpx:hr>160</gpxtpx:hr>
          </gpxtpx:TrackPointExtension>
        </extensions>
      </trkpt>
      <trkpt lat="50.67324" lon="5.0418">
        <ele>114.40000152588</ele>
        <time>2019-10-02T10:06:43.000Z</time>
        <extensions>
          <gpxtpx:TrackPointExtension xmlns:gpxtpx="http://www.garmin.com/xmlschemas/TrackPointExtension/v1">
            <gpxtpx:hr>161</gpxtpx:hr>
          </gpxtpx:TrackPointExtension>
        </extensions>
      </trkpt>
      <trkpt lat="50.67346" lon="5.04187">
        <ele>114.59999847412</ele>
        <time>2019-10-02T10:06:44.000Z</time>
        <extensions>
          <gpxtpx:TrackPointExtension xmlns:gpxtpx="http://www.garmin.com/xmlschemas/TrackPointExtension/v1">
            <gpxtpx:hr>161</gpxtpx:hr>
          </gpxtpx:TrackPointExtension>
        </extensions>
      </trkpt>
      <trkpt lat="50.67385" lon="5.04198">
        <ele>127.3</ele>
        <time>2019-10-02T10:06:47.000Z</time>
      </trkpt>
      <trkpt lat="50.67434" lon="5.04183">
        <ele>114.80000305176</ele>
        <time>2019-10-02T10:06:51.000Z</time>
        <extensions>
          <gpxtpx:TrackPointExtension xmlns:gpxtpx="http://www.garmin.com/xmlschemas/TrackPointExtension/v1">
            <gpxtpx:hr>162</gpxtpx:hr>
          </gpxtpx:TrackPointExtension>
        </extensions>
      </trkpt>
      <trkpt lat="50.67484" lon="5.0417">
        <ele>115.19999694824</ele>
        <time>2019-10-02T10:06:53.000Z</time>
        <extensions>
          <gpxtpx:TrackPointExtension xmlns:gpxtpx="http://www.garmin.com/xmlschemas/TrackPointExtension/v1">
            <gpxtpx:hr>163</gpxtpx:hr>
          </gpxtpx:TrackPointExtension>
        </extensions>
      </trkpt>
      <trkpt lat="50.67534" lon="5.0415">
        <ele>115.40000152588</ele>
        <time>2019-10-02T10:06:57.000Z</time>
        <extensions>
          <gpxtpx:TrackPointExtension xmlns:gpxtpx="http://www.garmin.com/xmlschemas/TrackPointExtension/v1">
            <gpxtpx:hr>163</gpxtpx:hr>
          </gpxtpx:TrackPointExtension>
        </extensions>
      </trkpt>
      <trkpt lat="50.67588" lon="5.04113">
        <ele>114.59999847412</ele>
        <time>2019-10-02T10:06:58.000Z</time>
        <extensions>
          <gpxtpx:TrackPointExtension xmlns:gpxtpx="http://www.garmin.com/xmlschemas/TrackPointExtension/v1">
            <gpxtpx:hr>163</gpxtpx:hr>
          </gpxtpx:TrackPointExtension>
        </extensions>
      </trkpt>
      <trkpt lat="50.67595" lon="5.04108">
        <ele>114.59999847412</ele>
        <time>2019-10-02T10:07:00.000Z</time>
        <extensions>
          <gpxtpx:TrackPointExtension xmlns:gpxtpx="http://www.garmin.com/xmlschemas/TrackPointExtension/v1">
            <gpxtpx:hr>163</gpxtpx:hr>
          </gpxtpx:TrackPointExtension>
        </extensions>
      </trkpt>
      <trkpt lat="50.67642" lon="5.04074">
        <ele>113.59999847412</ele>
        <time>2019-10-02T10:07:07.000Z</time>
        <extensions>
          <gpxtpx:TrackPointExtension xmlns:gpxtpx="http://www.garmin.com/xmlschemas/TrackPointExtension/v1">
            <gpxtpx:hr>162</gpxtpx:hr>
          </gpxtpx:TrackPointExtension>
        </extensions>
      </trkpt>
      <trkpt lat="50.67666" lon="5.04057">
        <ele>113.59999847412</ele>
        <time>2019-10-02T10:07:15.000Z</time>
        <extensions>
          <gpxtpx:TrackPointExtension xmlns:gpxtpx="http://www.garmin.com/xmlschemas/TrackPointExtension/v1">
            <gpxtpx:hr>160</gpxtpx:hr>
          </gpxtpx:TrackPointExtension>
        </extensions>
      </trkpt>
      <trkpt lat="50.67679" lon="5.04047">
        <ele>124.7</ele>
        <time>2019-10-02T10:07:22.000Z</time>
      </trkpt>
      <trkpt lat="50.67699" lon="5.04034">
        <ele>112.19999694824</ele>
        <time>2019-10-02T10:07:24.000Z</time>
        <extensions>
          <gpxtpx:TrackPointExtension xmlns:gpxtpx="http://www.garmin.com/xmlschemas/TrackPointExtension/v1">
            <gpxtpx:hr>157</gpxtpx:hr>
          </gpxtpx:TrackPointExtension>
        </extensions>
      </trkpt>
      <trkpt lat="50.67738" lon="5.04002">
        <ele>124.2</ele>
        <time>2019-10-02T10:07:31.000Z</time>
      </trkpt>
      <trkpt lat="50.67789" lon="5.03976">
        <ele>112</ele>
        <time>2019-10-02T10:07:32.000Z</time>
        <extensions>
          <gpxtpx:TrackPointExtension xmlns:gpxtpx="http://www.garmin.com/xmlschemas/TrackPointExtension/v1">
            <gpxtpx:hr>156</gpxtpx:hr>
          </gpxtpx:TrackPointExtension>
        </extensions>
      </trkpt>
      <trkpt lat="50.67796" lon="5.03973">
        <ele>112</ele>
        <time>2019-10-02T10:07:36.000Z</time>
        <extensions>
          <gpxtpx:TrackPointExtension xmlns:gpxtpx="http://www.garmin.com/xmlschemas/TrackPointExtension/v1">
            <gpxtpx:hr>155</gpxtpx:hr>
          </gpxtpx:TrackPointExtension>
        </extensions>
      </trkpt>
      <trkpt lat="50.67852" lon="5.03946">
        <ele>111.80000305176</ele>
        <time>2019-10-02T10:07:39.000Z</time>
        <extensions>
          <gpxtpx:TrackPointExtension xmlns:gpxtpx="http://www.garmin.com/xmlschemas/TrackPointExtension/v1">
            <gpxtpx:hr>156</gpxtpx:hr>
          </gpxtpx:TrackPointExtension>
        </extensions>
      </trkpt>
      <trkpt lat="50.67859" lon="5.03943">
        <ele>111.80000305176</ele>
        <time>2019-10-02T10:07:41.000Z</time>
        <extensions>
          <gpxtpx:TrackPointExtension xmlns:gpxtpx="http://www.garmin.com/xmlschemas/TrackPointExtension/v1">
            <gpxtpx:hr>156</gpxtpx:hr>
          </gpxtpx:TrackPointExtension>
        </extensions>
      </trkpt>
      <trkpt lat="50.67916" lon="5.0392">
        <ele>111.40000152588</ele>
        <time>2019-10-02T10:07:45.000Z</time>
        <extensions>
          <gpxtpx:TrackPointExtension xmlns:gpxtpx="http://www.garmin.com/xmlschemas/TrackPointExtension/v1">
            <gpxtpx:hr>156</gpxtpx:hr>
          </gpxtpx:TrackPointExtension>
        </extensions>
      </trkpt>
      <trkpt lat="50.67953" lon="5.03905">
        <ele>110.80000305176</ele>
        <time>2019-10-02T10:07:47.000Z</time>
        <extensions>
          <gpxtpx:TrackPointExtension xmlns:gpxtpx="http://www.garmin.com/xmlschemas/TrackPointExtension/v1">
            <gpxtpx:hr>156</gpxtpx:hr>
          </gpxtpx:TrackPointExtension>
        </extensions>
      </trkpt>
      <trkpt lat="50.67975" lon="5.03896">
        <ele>110.59999847412</ele>
        <time>2019-10-02T10:07:50.000Z</time>
        <extensions>
          <gpxtpx:TrackPointExtension xmlns:gpxtpx="http://www.garmin.com/xmlschemas/TrackPointExtension/v1">
            <gpxtpx:hr>157</gpxtpx:hr>
          </gpxtpx:TrackPointExtension>
        </extensions>
      </trkpt>
      <trkpt lat="50.68033" lon="5.03872">
        <ele>110.40000152588</ele>
        <time>2019-10-02T10:07:53.000Z</time>
        <extensions>
          <gpxtpx:TrackPointExtension xmlns:gpxtpx="http://www.garmin.com/xmlschemas/TrackPointExtension/v1">
            <gpxtpx:hr>157</gpxtpx:hr>
          </gpxtpx:TrackPointExtension>
        </extensions>
      </trkpt>
      <trkpt lat="50.68041" lon="5.03869">
        <ele>110.19999694824</ele>
        <time>2019-10-02T10:07:54.000Z</time>
        <extensions>
          <gpxtpx:TrackPointExtension xmlns:gpxtpx="http://www.garmin.com/xmlschemas/TrackPointExtension/v1">
            <gpxtpx:hr>158</gpxtpx:hr>
          </gpxtpx:TrackPointExtension>
        </extensions>
      </trkpt>
      <trkpt lat="50.68078" lon="5.03855">
        <ele>109.80000305176</ele>
        <time>2019-10-02T10:07:56.000Z</time>
        <extensions>
          <gpxtpx:TrackPointExtension xmlns:gpxtpx="http://www.garmin.com/xmlschemas/TrackPointExtension/v1">
            <gpxtpx:hr>158</gpxtpx:hr>
          </gpxtpx:TrackPointExtension>
        </extensions>
      </trkpt>
      <trkpt lat="50.68116" lon="5.03839">
        <ele>109.59999847412</ele>
        <time>2019-10-02T10:07:57.000Z</time>
        <extensions>
          <gpxtpx:TrackPointExtension xmlns:gpxtpx="http://www.garmin.com/xmlschemas/TrackPointExtension/v1">
            <gpxtpx:hr>158</gpxtpx:hr>
          </gpxtpx:TrackPointExtension>
        </extensions>
      </trkpt>
      <trkpt lat="50.68168" lon="5.03819">
        <ele>108.80000305176</ele>
        <time>2019-10-02T10:08:01.000Z</time>
        <extensions>
          <gpxtpx:TrackPointExtension xmlns:gpxtpx="http://www.garmin.com/xmlschemas/TrackPointExtension/v1">
            <gpxtpx:hr>158</gpxtpx:hr>
          </gpxtpx:TrackPointExtension>
        </extensions>
      </trkpt>
      <trkpt lat="50.68191" lon="5.0381">
        <ele>108.19999694824</ele>
        <time>2019-10-02T10:08:04.000Z</time>
        <extensions>
          <gpxtpx:TrackPointExtension xmlns:gpxtpx="http://www.garmin.com/xmlschemas/TrackPointExtension/v1">
            <gpxtpx:hr>158</gpxtpx:hr>
          </gpxtpx:TrackPointExtension>
        </extensions>
      </trkpt>
      <trkpt lat="50.68221" lon="5.03798">
        <ele>107.80000305176</ele>
        <time>2019-10-02T10:08:07.000Z</time>
        <extensions>
          <gpxtpx:TrackPointExtension xmlns:gpxtpx="http://www.garmin.com/xmlschemas/TrackPointExtension/v1">
            <gpxtpx:hr>157</gpxtpx:hr>
          </gpxtpx:TrackPointExtension>
        </extensions>
      </trkpt>
      <trkpt lat="50.68257" lon="5.03783">
        <ele>107</ele>
        <time>2019-10-02T10:08:08.000Z</time>
        <extensions>
          <gpxtpx:TrackPointExtension xmlns:gpxtpx="http://www.garmin.com/xmlschemas/TrackPointExtension/v1">
            <gpxtpx:hr>155</gpxtpx:hr>
          </gpxtpx:TrackPointExtension>
        </extensions>
      </trkpt>
      <trkpt lat="50.68272" lon="5.03777">
        <ele>106.80000305176</ele>
        <time>2019-10-02T10:08:14.000Z</time>
        <extensions>
          <gpxtpx:TrackPointExtension xmlns:gpxtpx="http://www.garmin.com/xmlschemas/TrackPointExtension/v1">
            <gpxtpx:hr>155</gpxtpx:hr>
          </gpxtpx:TrackPointExtension>
        </extensions>
      </trkpt>
      <trkpt lat="50.68317" lon="5.0376">
        <ele>105.40000152588</ele>
        <time>2019-10-02T10:08:19.000Z</time>
        <extensions>
          <gpxtpx:TrackPointExtension xmlns:gpxtpx="http://www.garmin.com/xmlschemas/TrackPointExtension/v1">
            <gpxtpx:hr>153</gpxtpx:hr>
          </gpxtpx:TrackPointExtension>
        </extensions>
      </trkpt>
      <trkpt lat="50.68347" lon="5.03748">
        <ele>105</ele>
        <time>2019-10-02T10:08:23.000Z</time>
        <extensions>
          <gpxtpx:TrackPointExtension xmlns:gpxtpx="http://www.garmin.com/xmlschemas/TrackPointExtension/v1">
            <gpxtpx:hr>152</gpxtpx:hr>
          </gpxtpx:TrackPointExtension>
        </extensions>
      </trkpt>
      <trkpt lat="50.68401" lon="5.03724">
        <ele>104.40000152588</ele>
        <time>2019-10-02T10:08:30.000Z</time>
        <extensions>
          <gpxtpx:TrackPointExtension xmlns:gpxtpx="http://www.garmin.com/xmlschemas/TrackPointExtension/v1">
            <gpxtpx:hr>152</gpxtpx:hr>
          </gpxtpx:TrackPointExtension>
        </extensions>
      </trkpt>
      <trkpt lat="50.68432" lon="5.0371">
        <ele>104</ele>
        <time>2019-10-02T10:08:31.000Z</time>
        <extensions>
          <gpxtpx:TrackPointExtension xmlns:gpxtpx="http://www.garmin.com/xmlschemas/TrackPointExtension/v1">
            <gpxtpx:hr>151</gpxtpx:hr>
          </gpxtpx:TrackPointExtension>
        </extensions>
      </trkpt>
      <trkpt lat="50.68488" lon="5.03686">
        <ele>103.19999694824</ele>
        <time>2019-10-02T10:08:33.000Z</time>
        <extensions>
          <gpxtpx:TrackPointExtension xmlns:gpxtpx="http://www.garmin.com/xmlschemas/TrackPointExtension/v1">
            <gpxtpx:hr>151</gpxtpx:hr>
          </gpxtpx:TrackPointExtension>
        </extensions>
      </trkpt>
      <trkpt lat="50.68518" lon="5.03672">
        <ele>103</ele>
        <time>2019-10-02T10:08:36.000Z</time>
        <extensions>
          <gpxtpx:TrackPointExtension xmlns:gpxtpx="http://www.garmin.com/xmlschemas/TrackPointExtension/v1">
            <gpxtpx:hr>151</gpxtpx:hr>
          </gpxtpx:TrackPointExtension>
        </extensions>
      </trkpt>
      <trkpt lat="50.68548" lon="5.03659">
        <ele>102.19999694824</ele>
        <time>2019-10-02T10:08:37.000Z</time>
        <extensions>
          <gpxtpx:TrackPointExtension xmlns:gpxtpx="http://www.garmin.com/xmlschemas/TrackPointExtension/v1">
            <gpxtpx:hr>151</gpxtpx:hr>
          </gpxtpx:TrackPointExtension>
        </extensions>
      </trkpt>
      <trkpt lat="50.68591" lon="5.03638">
        <ele>102</ele>
        <time>2019-10-02T10:08:39.000Z</time>
        <extensions>
          <gpxtpx:TrackPointExtension xmlns:gpxtpx="http://www.garmin.com/xmlschemas/TrackPointExtension/v1">
            <gpxtpx:hr>152</gpxtpx:hr>
          </gpxtpx:TrackPointExtension>
        </extensions>
      </trkpt>
      <trkpt lat="50.68639" lon="5.03603">
        <ele>102.19999694824</ele>
        <time>2019-10-02T10:08:40.000Z</time>
        <extensions>
          <gpxtpx:TrackPointExtension xmlns:gpxtpx="http://www.garmin.com/xmlschemas/TrackPointExtension/v1">
            <gpxtpx:hr>155</gpxtpx:hr>
          </gpxtpx:TrackPointExtension>
        </extensions>
      </trkpt>
      <trkpt lat="50.68646" lon="5.03597">
        <ele>102.19999694824</ele>
        <time>2019-10-02T10:08:43.000Z</time>
        <extensions>
          <gpxtpx:TrackPointExtension xmlns:gpxtpx="http://www.garmin.com/xmlschemas/TrackPointExtension/v1">
            <gpxtpx:hr>155</gpxtpx:hr>
          </gpxtpx:TrackPointExtension>
        </extensions>
      </trkpt>
      <trkpt lat="50.68687" lon="5.03564">
        <ele>102.80000305176</ele>
        <time>2019-10-02T10:08:45.000Z</time>
        <extensions>
          <gpxtpx:TrackPointExtension xmlns:gpxtpx="http://www.garmin.com/xmlschemas/TrackPointExtension/v1">
            <gpxtpx:hr>158</gpxtpx:hr>
          </gpxtpx:TrackPointExtension>
        </extensions>
      </trkpt>
      <trkpt lat="50.68714" lon="5.03543">
        <ele>103.40000152588</ele>
        <time>2019-10-02T10:08:48.000Z</time>
        <extensions>
          <gpxtpx:TrackPointExtension xmlns:gpxtpx="http://www.garmin.com/xmlschemas/TrackPointExtension/v1">
            <gpxtpx:hr>159</gpxtpx:hr>
          </gpxtpx:TrackPointExtension>
        </extensions>
      </trkpt>
      <trkpt lat="50.68721" lon="5.03538">
        <ele>103.40000152588</ele>
        <time>2019-10-02T10:08:51.000Z</time>
        <extensions>
          <gpxtpx:TrackPointExtension xmlns:gpxtpx="http://www.garmin.com/xmlschemas/TrackPointExtension/v1">
            <gpxtpx:hr>159</gpxtpx:hr>
          </gpxtpx:TrackPointExtension>
        </extensions>
      </trkpt>
      <trkpt lat="50.68746" lon="5.03517">
        <ele>115</ele>
        <time>2019-10-02T10:08:58.000Z</time>
      </trkpt>
      <trkpt lat="50.68775" lon="5.03498">
        <ele>103.40000152588</ele>
        <time>2019-10-02T10:09:02.000Z</time>
        <extensions>
          <gpxtpx:TrackPointExtension xmlns:gpxtpx="http://www.garmin.com/xmlschemas/TrackPointExtension/v1">
            <gpxtpx:hr>160</gpxtpx:hr>
          </gpxtpx:TrackPointExtension>
        </extensions>
      </trkpt>
      <trkpt lat="50.68826" lon="5.03471">
        <ele>103</ele>
        <time>2019-10-02T10:09:03.000Z</time>
        <extensions>
          <gpxtpx:TrackPointExtension xmlns:gpxtpx="http://www.garmin.com/xmlschemas/TrackPointExtension/v1">
            <gpxtpx:hr>159</gpxtpx:hr>
          </gpxtpx:TrackPointExtension>
        </extensions>
      </trkpt>
      <trkpt lat="50.68858" lon="5.03453">
        <ele>102</ele>
        <time>2019-10-02T10:09:06.000Z</time>
        <extensions>
          <gpxtpx:TrackPointExtension xmlns:gpxtpx="http://www.garmin.com/xmlschemas/TrackPointExtension/v1">
            <gpxtpx:hr>158</gpxtpx:hr>
          </gpxtpx:TrackPointExtension>
        </extensions>
      </trkpt>
      <trkpt lat="50.68882" lon="5.03437">
        <ele>101.40000152588</ele>
        <time>2019-10-02T10:09:07.000Z</time>
        <extensions>
          <gpxtpx:TrackPointExtension xmlns:gpxtpx="http://www.garmin.com/xmlschemas/TrackPointExtension/v1">
            <gpxtpx:hr>157</gpxtpx:hr>
          </gpxtpx:TrackPointExtension>
        </extensions>
      </trkpt>
      <trkpt lat="50.68899" lon="5.03424">
        <ele>100.59999847412</ele>
        <time>2019-10-02T10:09:08.000Z</time>
        <extensions>
          <gpxtpx:TrackPointExtension xmlns:gpxtpx="http://www.garmin.com/xmlschemas/TrackPointExtension/v1">
            <gpxtpx:hr>156</gpxtpx:hr>
          </gpxtpx:TrackPointExtension>
        </extensions>
      </trkpt>
      <trkpt lat="50.68925" lon="5.03404">
        <ele>99.199996948242</ele>
        <time>2019-10-02T10:09:11.000Z</time>
        <extensions>
          <gpxtpx:TrackPointExtension xmlns:gpxtpx="http://www.garmin.com/xmlschemas/TrackPointExtension/v1">
            <gpxtpx:hr>155</gpxtpx:hr>
          </gpxtpx:TrackPointExtension>
        </extensions>
      </trkpt>
      <trkpt lat="50.6895" lon="5.03384">
        <ele>98</ele>
        <time>2019-10-02T10:09:13.000Z</time>
        <extensions>
          <gpxtpx:TrackPointExtension xmlns:gpxtpx="http://www.garmin.com/xmlschemas/TrackPointExtension/v1">
            <gpxtpx:hr>154</gpxtpx:hr>
          </gpxtpx:TrackPointExtension>
        </extensions>
      </trkpt>
      <trkpt lat="50.68958" lon="5.03377">
        <ele>97.400001525879</ele>
        <time>2019-10-02T10:09:14.000Z</time>
        <extensions>
          <gpxtpx:TrackPointExtension xmlns:gpxtpx="http://www.garmin.com/xmlschemas/TrackPointExtension/v1">
            <gpxtpx:hr>153</gpxtpx:hr>
          </gpxtpx:TrackPointExtension>
        </extensions>
      </trkpt>
      <trkpt lat="50.68974" lon="5.03364">
        <ele>96.199996948242</ele>
        <time>2019-10-02T10:09:19.000Z</time>
        <extensions>
          <gpxtpx:TrackPointExtension xmlns:gpxtpx="http://www.garmin.com/xmlschemas/TrackPointExtension/v1">
            <gpxtpx:hr>152</gpxtpx:hr>
          </gpxtpx:TrackPointExtension>
        </extensions>
      </trkpt>
      <trkpt lat="50.68997" lon="5.03347">
        <ele>106.4</ele>
        <time>2019-10-02T10:09:25.000Z</time>
      </trkpt>
      <trkpt lat="50.69012" lon="5.03337">
        <ele>104.8</ele>
        <time>2019-10-02T10:09:32.000Z</time>
      </trkpt>
      <trkpt lat="50.69037" lon="5.03318">
        <ele>92.400001525879</ele>
        <time>2019-10-02T10:09:33.000Z</time>
        <extensions>
          <gpxtpx:TrackPointExtension xmlns:gpxtpx="http://www.garmin.com/xmlschemas/TrackPointExtension/v1">
            <gpxtpx:hr>145</gpxtpx:hr>
          </gpxtpx:TrackPointExtension>
        </extensions>
      </trkpt>
      <trkpt lat="50.69061" lon="5.03301">
        <ele>91.400001525879</ele>
        <time>2019-10-02T10:09:38.000Z</time>
        <extensions>
          <gpxtpx:TrackPointExtension xmlns:gpxtpx="http://www.garmin.com/xmlschemas/TrackPointExtension/v1">
            <gpxtpx:hr>143</gpxtpx:hr>
          </gpxtpx:TrackPointExtension>
        </extensions>
      </trkpt>
      <trkpt lat="50.69069" lon="5.03295">
        <ele>91</ele>
        <time>2019-10-02T10:09:39.000Z</time>
        <extensions>
          <gpxtpx:TrackPointExtension xmlns:gpxtpx="http://www.garmin.com/xmlschemas/TrackPointExtension/v1">
            <gpxtpx:hr>142</gpxtpx:hr>
          </gpxtpx:TrackPointExtension>
        </extensions>
      </trkpt>
      <trkpt lat="50.69086" lon="5.03283">
        <ele>90</ele>
        <time>2019-10-02T10:09:41.000Z</time>
        <extensions>
          <gpxtpx:TrackPointExtension xmlns:gpxtpx="http://www.garmin.com/xmlschemas/TrackPointExtension/v1">
            <gpxtpx:hr>141</gpxtpx:hr>
          </gpxtpx:TrackPointExtension>
        </extensions>
      </trkpt>
      <trkpt lat="50.69102" lon="5.03272">
        <ele>89.199996948242</ele>
        <time>2019-10-02T10:09:46.000Z</time>
        <extensions>
          <gpxtpx:TrackPointExtension xmlns:gpxtpx="http://www.garmin.com/xmlschemas/TrackPointExtension/v1">
            <gpxtpx:hr>138</gpxtpx:hr>
          </gpxtpx:TrackPointExtension>
        </extensions>
      </trkpt>
      <trkpt lat="50.6911" lon="5.03266">
        <ele>88.800003051758</ele>
        <time>2019-10-02T10:09:49.000Z</time>
        <extensions>
          <gpxtpx:TrackPointExtension xmlns:gpxtpx="http://www.garmin.com/xmlschemas/TrackPointExtension/v1">
            <gpxtpx:hr>137</gpxtpx:hr>
          </gpxtpx:TrackPointExtension>
        </extensions>
      </trkpt>
      <trkpt lat="50.69126" lon="5.03256">
        <ele>88.400001525879</ele>
        <time>2019-10-02T10:09:51.000Z</time>
        <extensions>
          <gpxtpx:TrackPointExtension xmlns:gpxtpx="http://www.garmin.com/xmlschemas/TrackPointExtension/v1">
            <gpxtpx:hr>135</gpxtpx:hr>
          </gpxtpx:TrackPointExtension>
        </extensions>
      </trkpt>
      <trkpt lat="50.69134" lon="5.03251">
        <ele>87.800003051758</ele>
        <time>2019-10-02T10:09:54.000Z</time>
        <extensions>
          <gpxtpx:TrackPointExtension xmlns:gpxtpx="http://www.garmin.com/xmlschemas/TrackPointExtension/v1">
            <gpxtpx:hr>133</gpxtpx:hr>
          </gpxtpx:TrackPointExtension>
        </extensions>
      </trkpt>
      <trkpt lat="50.69148" lon="5.0324">
        <ele>86.800003051758</ele>
        <time>2019-10-02T10:09:58.000Z</time>
        <extensions>
          <gpxtpx:TrackPointExtension xmlns:gpxtpx="http://www.garmin.com/xmlschemas/TrackPointExtension/v1">
            <gpxtpx:hr>130</gpxtpx:hr>
          </gpxtpx:TrackPointExtension>
        </extensions>
      </trkpt>
      <trkpt lat="50.69155" lon="5.03234">
        <ele>86.400001525879</ele>
        <time>2019-10-02T10:09:59.000Z</time>
        <extensions>
          <gpxtpx:TrackPointExtension xmlns:gpxtpx="http://www.garmin.com/xmlschemas/TrackPointExtension/v1">
            <gpxtpx:hr>129</gpxtpx:hr>
          </gpxtpx:TrackPointExtension>
        </extensions>
      </trkpt>
      <trkpt lat="50.69175" lon="5.03217">
        <ele>85.199996948242</ele>
        <time>2019-10-02T10:10:02.000Z</time>
        <extensions>
          <gpxtpx:TrackPointExtension xmlns:gpxtpx="http://www.garmin.com/xmlschemas/TrackPointExtension/v1">
            <gpxtpx:hr>126</gpxtpx:hr>
          </gpxtpx:TrackPointExtension>
        </extensions>
      </trkpt>
      <trkpt lat="50.69188" lon="5.03207">
        <ele>84.800003051758</ele>
        <time>2019-10-02T10:10:07.000Z</time>
        <extensions>
          <gpxtpx:TrackPointExtension xmlns:gpxtpx="http://www.garmin.com/xmlschemas/TrackPointExtension/v1">
            <gpxtpx:hr>123</gpxtpx:hr>
          </gpxtpx:TrackPointExtension>
        </extensions>
      </trkpt>
      <trkpt lat="50.69194" lon="5.03201">
        <ele>84.199996948242</ele>
        <time>2019-10-02T10:10:10.000Z</time>
        <extensions>
          <gpxtpx:TrackPointExtension xmlns:gpxtpx="http://www.garmin.com/xmlschemas/TrackPointExtension/v1">
            <gpxtpx:hr>122</gpxtpx:hr>
          </gpxtpx:TrackPointExtension>
        </extensions>
      </trkpt>
      <trkpt lat="50.69204" lon="5.03189">
        <ele>97.2</ele>
        <time>2019-10-02T10:10:13.000Z</time>
      </trkpt>
      <trkpt lat="50.69232" lon="5.03196">
        <ele>97.5</ele>
        <time>2019-10-02T10:10:18.000Z</time>
      </trkpt>
      <trkpt lat="50.69244" lon="5.03201">
        <ele>98</ele>
        <time>2019-10-02T10:10:23.000Z</time>
      </trkpt>
      <trkpt lat="50.69261" lon="5.03203">
        <ele>82.199996948242</ele>
        <time>2019-10-02T10:10:29.000Z</time>
        <extensions>
          <gpxtpx:TrackPointExtension xmlns:gpxtpx="http://www.garmin.com/xmlschemas/TrackPointExtension/v1">
            <gpxtpx:hr>123</gpxtpx:hr>
          </gpxtpx:TrackPointExtension>
        </extensions>
      </trkpt>
      <trkpt lat="50.69268" lon="5.03206">
        <ele>82</ele>
        <time>2019-10-02T10:10:35.000Z</time>
        <extensions>
          <gpxtpx:TrackPointExtension xmlns:gpxtpx="http://www.garmin.com/xmlschemas/TrackPointExtension/v1">
            <gpxtpx:hr>123</gpxtpx:hr>
          </gpxtpx:TrackPointExtension>
        </extensions>
      </trkpt>
      <trkpt lat="50.69281" lon="5.0321">
        <ele>97.1</ele>
        <time>2019-10-02T10:10:38.000Z</time>
      </trkpt>
      <trkpt lat="50.69295" lon="5.03229">
        <ele>97.2</ele>
        <time>2019-10-02T10:10:41.000Z</time>
      </trkpt>
      <trkpt lat="50.69307" lon="5.03246">
        <ele>97.1</ele>
        <time>2019-10-02T10:10:45.000Z</time>
      </trkpt>
      <trkpt lat="50.69322" lon="5.03267">
        <ele>98</ele>
        <time>2019-10-02T10:10:49.000Z</time>
      </trkpt>
      <trkpt lat="50.69333" lon="5.03282">
        <ele>98</ele>
        <time>2019-10-02T10:10:55.000Z</time>
      </trkpt>
      <trkpt lat="50.69342" lon="5.03294">
        <ele>81.199996948242</ele>
        <time>2019-10-02T10:10:57.000Z</time>
        <extensions>
          <gpxtpx:TrackPointExtension xmlns:gpxtpx="http://www.garmin.com/xmlschemas/TrackPointExtension/v1">
            <gpxtpx:hr>127</gpxtpx:hr>
          </gpxtpx:TrackPointExtension>
        </extensions>
      </trkpt>
      <trkpt lat="50.69352" lon="5.03335">
        <ele>97.6</ele>
        <time>2019-10-02T10:11:03.000Z</time>
      </trkpt>
      <trkpt lat="50.69361" lon="5.03392">
        <ele>98.1</ele>
        <time>2019-10-02T10:11:04.000Z</time>
      </trkpt>
      <trkpt lat="50.69367" lon="5.03426">
        <ele>99.5</ele>
        <time>2019-10-02T10:11:13.000Z</time>
      </trkpt>
      <trkpt lat="50.69373" lon="5.03453">
        <ele>99.5</ele>
        <time>2019-10-02T10:11:15.000Z</time>
      </trkpt>
      <trkpt lat="50.69383" lon="5.03499">
        <ele>99.6</ele>
        <time>2019-10-02T10:11:16.000Z</time>
      </trkpt>
      <trkpt lat="50.69391" lon="5.03548">
        <ele>99.8</ele>
        <time>2019-10-02T10:11:25.000Z</time>
      </trkpt>
      <trkpt lat="50.69397" lon="5.0358">
        <ele>99.6</ele>
        <time>2019-10-02T10:11:26.000Z</time>
      </trkpt>
      <trkpt lat="50.69406" lon="5.03625">
        <ele>83.800003051758</ele>
        <time>2019-10-02T10:11:27.000Z</time>
        <extensions>
          <gpxtpx:TrackPointExtension xmlns:gpxtpx="http://www.garmin.com/xmlschemas/TrackPointExtension/v1">
            <gpxtpx:hr>146</gpxtpx:hr>
          </gpxtpx:TrackPointExtension>
        </extensions>
      </trkpt>
      <trkpt lat="50.69409" lon="5.0368">
        <ele>84</ele>
        <time>2019-10-02T10:11:36.000Z</time>
        <extensions>
          <gpxtpx:TrackPointExtension xmlns:gpxtpx="http://www.garmin.com/xmlschemas/TrackPointExtension/v1">
            <gpxtpx:hr>145</gpxtpx:hr>
          </gpxtpx:TrackPointExtension>
        </extensions>
      </trkpt>
      <trkpt lat="50.69415" lon="5.03766">
        <ele>83.199996948242</ele>
        <time>2019-10-02T10:11:37.000Z</time>
        <extensions>
          <gpxtpx:TrackPointExtension xmlns:gpxtpx="http://www.garmin.com/xmlschemas/TrackPointExtension/v1">
            <gpxtpx:hr>144</gpxtpx:hr>
          </gpxtpx:TrackPointExtension>
        </extensions>
      </trkpt>
      <trkpt lat="50.69416" lon="5.03779">
        <ele>83.199996948242</ele>
        <time>2019-10-02T10:11:46.000Z</time>
        <extensions>
          <gpxtpx:TrackPointExtension xmlns:gpxtpx="http://www.garmin.com/xmlschemas/TrackPointExtension/v1">
            <gpxtpx:hr>143</gpxtpx:hr>
          </gpxtpx:TrackPointExtension>
        </extensions>
      </trkpt>
      <trkpt lat="50.69418" lon="5.03805">
        <ele>82.599998474121</ele>
        <time>2019-10-02T10:11:50.000Z</time>
        <extensions>
          <gpxtpx:TrackPointExtension xmlns:gpxtpx="http://www.garmin.com/xmlschemas/TrackPointExtension/v1">
            <gpxtpx:hr>143</gpxtpx:hr>
          </gpxtpx:TrackPointExtension>
        </extensions>
      </trkpt>
      <trkpt lat="50.69421" lon="5.03845">
        <ele>81.199996948242</ele>
        <time>2019-10-02T10:11:51.000Z</time>
        <extensions>
          <gpxtpx:TrackPointExtension xmlns:gpxtpx="http://www.garmin.com/xmlschemas/TrackPointExtension/v1">
            <gpxtpx:hr>141</gpxtpx:hr>
          </gpxtpx:TrackPointExtension>
        </extensions>
      </trkpt>
      <trkpt lat="50.69423" lon="5.03885">
        <ele>80.599998474121</ele>
        <time>2019-10-02T10:12:00.000Z</time>
        <extensions>
          <gpxtpx:TrackPointExtension xmlns:gpxtpx="http://www.garmin.com/xmlschemas/TrackPointExtension/v1">
            <gpxtpx:hr>138</gpxtpx:hr>
          </gpxtpx:TrackPointExtension>
        </extensions>
      </trkpt>
      <trkpt lat="50.69424" lon="5.03899">
        <ele>80.199996948242</ele>
        <time>2019-10-02T10:12:02.000Z</time>
        <extensions>
          <gpxtpx:TrackPointExtension xmlns:gpxtpx="http://www.garmin.com/xmlschemas/TrackPointExtension/v1">
            <gpxtpx:hr>137</gpxtpx:hr>
          </gpxtpx:TrackPointExtension>
        </extensions>
      </trkpt>
      <trkpt lat="50.69425" lon="5.03912">
        <ele>79.599998474121</ele>
        <time>2019-10-02T10:12:07.000Z</time>
        <extensions>
          <gpxtpx:TrackPointExtension xmlns:gpxtpx="http://www.garmin.com/xmlschemas/TrackPointExtension/v1">
            <gpxtpx:hr>136</gpxtpx:hr>
          </gpxtpx:TrackPointExtension>
        </extensions>
      </trkpt>
      <trkpt lat="50.6943" lon="5.03951">
        <ele>79</ele>
        <time>2019-10-02T10:12:12.000Z</time>
        <extensions>
          <gpxtpx:TrackPointExtension xmlns:gpxtpx="http://www.garmin.com/xmlschemas/TrackPointExtension/v1">
            <gpxtpx:hr>132</gpxtpx:hr>
          </gpxtpx:TrackPointExtension>
        </extensions>
      </trkpt>
      <trkpt lat="50.69436" lon="5.03975">
        <ele>78.599998474121</ele>
        <time>2019-10-02T10:12:14.000Z</time>
        <extensions>
          <gpxtpx:TrackPointExtension xmlns:gpxtpx="http://www.garmin.com/xmlschemas/TrackPointExtension/v1">
            <gpxtpx:hr>130</gpxtpx:hr>
          </gpxtpx:TrackPointExtension>
        </extensions>
      </trkpt>
      <trkpt lat="50.69443" lon="5.03997">
        <ele>78</ele>
        <time>2019-10-02T10:12:17.000Z</time>
        <extensions>
          <gpxtpx:TrackPointExtension xmlns:gpxtpx="http://www.garmin.com/xmlschemas/TrackPointExtension/v1">
            <gpxtpx:hr>127</gpxtpx:hr>
          </gpxtpx:TrackPointExtension>
        </extensions>
      </trkpt>
      <trkpt lat="50.69453" lon="5.04028">
        <ele>77.400001525879</ele>
        <time>2019-10-02T10:12:18.000Z</time>
        <extensions>
          <gpxtpx:TrackPointExtension xmlns:gpxtpx="http://www.garmin.com/xmlschemas/TrackPointExtension/v1">
            <gpxtpx:hr>123</gpxtpx:hr>
          </gpxtpx:TrackPointExtension>
        </extensions>
      </trkpt>
      <trkpt lat="50.69456" lon="5.04037">
        <ele>77.400001525879</ele>
        <time>2019-10-02T10:12:20.000Z</time>
        <extensions>
          <gpxtpx:TrackPointExtension xmlns:gpxtpx="http://www.garmin.com/xmlschemas/TrackPointExtension/v1">
            <gpxtpx:hr>122</gpxtpx:hr>
          </gpxtpx:TrackPointExtension>
        </extensions>
      </trkpt>
      <trkpt lat="50.69472" lon="5.0408">
        <ele>77.199996948242</ele>
        <time>2019-10-02T10:12:22.000Z</time>
        <extensions>
          <gpxtpx:TrackPointExtension xmlns:gpxtpx="http://www.garmin.com/xmlschemas/TrackPointExtension/v1">
            <gpxtpx:hr>123</gpxtpx:hr>
          </gpxtpx:TrackPointExtension>
        </extensions>
      </trkpt>
      <trkpt lat="50.69482" lon="5.04115">
        <ele>77.599998474121</ele>
        <time>2019-10-02T10:12:24.000Z</time>
        <extensions>
          <gpxtpx:TrackPointExtension xmlns:gpxtpx="http://www.garmin.com/xmlschemas/TrackPointExtension/v1">
            <gpxtpx:hr>126</gpxtpx:hr>
          </gpxtpx:TrackPointExtension>
        </extensions>
      </trkpt>
      <trkpt lat="50.69485" lon="5.0413">
        <ele>77.800003051758</ele>
        <time>2019-10-02T10:12:27.000Z</time>
        <extensions>
          <gpxtpx:TrackPointExtension xmlns:gpxtpx="http://www.garmin.com/xmlschemas/TrackPointExtension/v1">
            <gpxtpx:hr>128</gpxtpx:hr>
          </gpxtpx:TrackPointExtension>
        </extensions>
      </trkpt>
      <trkpt lat="50.69485" lon="5.04137">
        <ele>77.800003051758</ele>
        <time>2019-10-02T10:12:29.000Z</time>
        <extensions>
          <gpxtpx:TrackPointExtension xmlns:gpxtpx="http://www.garmin.com/xmlschemas/TrackPointExtension/v1">
            <gpxtpx:hr>129</gpxtpx:hr>
          </gpxtpx:TrackPointExtension>
        </extensions>
      </trkpt>
      <trkpt lat="50.69487" lon="5.04153">
        <ele>78.199996948242</ele>
        <time>2019-10-02T10:12:33.000Z</time>
        <extensions>
          <gpxtpx:TrackPointExtension xmlns:gpxtpx="http://www.garmin.com/xmlschemas/TrackPointExtension/v1">
            <gpxtpx:hr>130</gpxtpx:hr>
          </gpxtpx:TrackPointExtension>
        </extensions>
      </trkpt>
      <trkpt lat="50.69488" lon="5.04167">
        <ele>78.800003051758</ele>
        <time>2019-10-02T10:12:39.000Z</time>
        <extensions>
          <gpxtpx:TrackPointExtension xmlns:gpxtpx="http://www.garmin.com/xmlschemas/TrackPointExtension/v1">
            <gpxtpx:hr>132</gpxtpx:hr>
          </gpxtpx:TrackPointExtension>
        </extensions>
      </trkpt>
      <trkpt lat="50.69488" lon="5.04181">
        <ele>79.199996948242</ele>
        <time>2019-10-02T10:12:44.000Z</time>
        <extensions>
          <gpxtpx:TrackPointExtension xmlns:gpxtpx="http://www.garmin.com/xmlschemas/TrackPointExtension/v1">
            <gpxtpx:hr>135</gpxtpx:hr>
          </gpxtpx:TrackPointExtension>
        </extensions>
      </trkpt>
      <trkpt lat="50.69487" lon="5.04202">
        <ele>80.199996948242</ele>
        <time>2019-10-02T10:12:48.000Z</time>
        <extensions>
          <gpxtpx:TrackPointExtension xmlns:gpxtpx="http://www.garmin.com/xmlschemas/TrackPointExtension/v1">
            <gpxtpx:hr>137</gpxtpx:hr>
          </gpxtpx:TrackPointExtension>
        </extensions>
      </trkpt>
      <trkpt lat="50.69487" lon="5.04223">
        <ele>81.599998474121</ele>
        <time>2019-10-02T10:12:53.000Z</time>
        <extensions>
          <gpxtpx:TrackPointExtension xmlns:gpxtpx="http://www.garmin.com/xmlschemas/TrackPointExtension/v1">
            <gpxtpx:hr>139</gpxtpx:hr>
          </gpxtpx:TrackPointExtension>
        </extensions>
      </trkpt>
      <trkpt lat="50.69486" lon="5.04229">
        <ele>81.800003051758</ele>
        <time>2019-10-02T10:12:59.000Z</time>
        <extensions>
          <gpxtpx:TrackPointExtension xmlns:gpxtpx="http://www.garmin.com/xmlschemas/TrackPointExtension/v1">
            <gpxtpx:hr>139</gpxtpx:hr>
          </gpxtpx:TrackPointExtension>
        </extensions>
      </trkpt>
      <trkpt lat="50.69485" lon="5.04257">
        <ele>82.599998474121</ele>
        <time>2019-10-02T10:13:06.000Z</time>
        <extensions>
          <gpxtpx:TrackPointExtension xmlns:gpxtpx="http://www.garmin.com/xmlschemas/TrackPointExtension/v1">
            <gpxtpx:hr>141</gpxtpx:hr>
          </gpxtpx:TrackPointExtension>
        </extensions>
      </trkpt>
      <trkpt lat="50.69484" lon="5.04284">
        <ele>83.800003051758</ele>
        <time>2019-10-02T10:13:09.000Z</time>
        <extensions>
          <gpxtpx:TrackPointExtension xmlns:gpxtpx="http://www.garmin.com/xmlschemas/TrackPointExtension/v1">
            <gpxtpx:hr>144</gpxtpx:hr>
          </gpxtpx:TrackPointExtension>
        </extensions>
      </trkpt>
      <trkpt lat="50.69484" lon="5.04291">
        <ele>84</ele>
        <time>2019-10-02T10:13:10.000Z</time>
        <extensions>
          <gpxtpx:TrackPointExtension xmlns:gpxtpx="http://www.garmin.com/xmlschemas/TrackPointExtension/v1">
            <gpxtpx:hr>144</gpxtpx:hr>
          </gpxtpx:TrackPointExtension>
        </extensions>
      </trkpt>
      <trkpt lat="50.69483" lon="5.04318">
        <ele>85</ele>
        <time>2019-10-02T10:13:18.000Z</time>
        <extensions>
          <gpxtpx:TrackPointExtension xmlns:gpxtpx="http://www.garmin.com/xmlschemas/TrackPointExtension/v1">
            <gpxtpx:hr>147</gpxtpx:hr>
          </gpxtpx:TrackPointExtension>
        </extensions>
      </trkpt>
      <trkpt lat="50.69483" lon="5.04332">
        <ele>85.400001525879</ele>
        <time>2019-10-02T10:13:26.000Z</time>
        <extensions>
          <gpxtpx:TrackPointExtension xmlns:gpxtpx="http://www.garmin.com/xmlschemas/TrackPointExtension/v1">
            <gpxtpx:hr>148</gpxtpx:hr>
          </gpxtpx:TrackPointExtension>
        </extensions>
      </trkpt>
      <trkpt lat="50.69484" lon="5.04346">
        <ele>86</ele>
        <time>2019-10-02T10:13:28.000Z</time>
        <extensions>
          <gpxtpx:TrackPointExtension xmlns:gpxtpx="http://www.garmin.com/xmlschemas/TrackPointExtension/v1">
            <gpxtpx:hr>149</gpxtpx:hr>
          </gpxtpx:TrackPointExtension>
        </extensions>
      </trkpt>
      <trkpt lat="50.69484" lon="5.04381">
        <ele>87.199996948242</ele>
        <time>2019-10-02T10:13:31.000Z</time>
        <extensions>
          <gpxtpx:TrackPointExtension xmlns:gpxtpx="http://www.garmin.com/xmlschemas/TrackPointExtension/v1">
            <gpxtpx:hr>152</gpxtpx:hr>
          </gpxtpx:TrackPointExtension>
        </extensions>
      </trkpt>
      <trkpt lat="50.69484" lon="5.04409">
        <ele>88.400001525879</ele>
        <time>2019-10-02T10:13:37.000Z</time>
        <extensions>
          <gpxtpx:TrackPointExtension xmlns:gpxtpx="http://www.garmin.com/xmlschemas/TrackPointExtension/v1">
            <gpxtpx:hr>153</gpxtpx:hr>
          </gpxtpx:TrackPointExtension>
        </extensions>
      </trkpt>
      <trkpt lat="50.69485" lon="5.0443">
        <ele>89.400001525879</ele>
        <time>2019-10-02T10:13:40.000Z</time>
        <extensions>
          <gpxtpx:TrackPointExtension xmlns:gpxtpx="http://www.garmin.com/xmlschemas/TrackPointExtension/v1">
            <gpxtpx:hr>155</gpxtpx:hr>
          </gpxtpx:TrackPointExtension>
        </extensions>
      </trkpt>
      <trkpt lat="50.69485" lon="5.04458">
        <ele>90.199996948242</ele>
        <time>2019-10-02T10:13:42.000Z</time>
        <extensions>
          <gpxtpx:TrackPointExtension xmlns:gpxtpx="http://www.garmin.com/xmlschemas/TrackPointExtension/v1">
            <gpxtpx:hr>156</gpxtpx:hr>
          </gpxtpx:TrackPointExtension>
        </extensions>
      </trkpt>
      <trkpt lat="50.69484" lon="5.04472">
        <ele>90.800003051758</ele>
        <time>2019-10-02T10:13:45.000Z</time>
        <extensions>
          <gpxtpx:TrackPointExtension xmlns:gpxtpx="http://www.garmin.com/xmlschemas/TrackPointExtension/v1">
            <gpxtpx:hr>157</gpxtpx:hr>
          </gpxtpx:TrackPointExtension>
        </extensions>
      </trkpt>
      <trkpt lat="50.69483" lon="5.04486">
        <ele>91.400001525879</ele>
        <time>2019-10-02T10:13:47.000Z</time>
        <extensions>
          <gpxtpx:TrackPointExtension xmlns:gpxtpx="http://www.garmin.com/xmlschemas/TrackPointExtension/v1">
            <gpxtpx:hr>158</gpxtpx:hr>
          </gpxtpx:TrackPointExtension>
        </extensions>
      </trkpt>
      <trkpt lat="50.69482" lon="5.04493">
        <ele>91.800003051758</ele>
        <time>2019-10-02T10:13:48.000Z</time>
        <extensions>
          <gpxtpx:TrackPointExtension xmlns:gpxtpx="http://www.garmin.com/xmlschemas/TrackPointExtension/v1">
            <gpxtpx:hr>158</gpxtpx:hr>
          </gpxtpx:TrackPointExtension>
        </extensions>
      </trkpt>
      <trkpt lat="50.69478" lon="5.04513">
        <ele>92.599998474121</ele>
        <time>2019-10-02T10:13:55.000Z</time>
        <extensions>
          <gpxtpx:TrackPointExtension xmlns:gpxtpx="http://www.garmin.com/xmlschemas/TrackPointExtension/v1">
            <gpxtpx:hr>159</gpxtpx:hr>
          </gpxtpx:TrackPointExtension>
        </extensions>
      </trkpt>
      <trkpt lat="50.69476" lon="5.0452">
        <ele>93</ele>
        <time>2019-10-02T10:14:01.000Z</time>
        <extensions>
          <gpxtpx:TrackPointExtension xmlns:gpxtpx="http://www.garmin.com/xmlschemas/TrackPointExtension/v1">
            <gpxtpx:hr>159</gpxtpx:hr>
          </gpxtpx:TrackPointExtension>
        </extensions>
      </trkpt>
      <trkpt lat="50.69467" lon="5.04538">
        <ele>93.599998474121</ele>
        <time>2019-10-02T10:14:03.000Z</time>
        <extensions>
          <gpxtpx:TrackPointExtension xmlns:gpxtpx="http://www.garmin.com/xmlschemas/TrackPointExtension/v1">
            <gpxtpx:hr>160</gpxtpx:hr>
          </gpxtpx:TrackPointExtension>
        </extensions>
      </trkpt>
      <trkpt lat="50.69463" lon="5.04543">
        <ele>94</ele>
        <time>2019-10-02T10:14:07.000Z</time>
        <extensions>
          <gpxtpx:TrackPointExtension xmlns:gpxtpx="http://www.garmin.com/xmlschemas/TrackPointExtension/v1">
            <gpxtpx:hr>161</gpxtpx:hr>
          </gpxtpx:TrackPointExtension>
        </extensions>
      </trkpt>
      <trkpt lat="50.69449" lon="5.04556">
        <ele>113.2</ele>
        <time>2019-10-02T10:14:08.000Z</time>
      </trkpt>
      <trkpt lat="50.6944" lon="5.04572">
        <ele>113.4</ele>
        <time>2019-10-02T10:14:11.000Z</time>
      </trkpt>
      <trkpt lat="50.69435" lon="5.04585">
        <ele>114</ele>
        <time>2019-10-02T10:14:13.000Z</time>
      </trkpt>
      <trkpt lat="50.69431" lon="5.04615">
        <ele>96.800003051758</ele>
        <time>2019-10-02T10:14:17.000Z</time>
        <extensions>
          <gpxtpx:TrackPointExtension xmlns:gpxtpx="http://www.garmin.com/xmlschemas/TrackPointExtension/v1">
            <gpxtpx:hr>163</gpxtpx:hr>
          </gpxtpx:TrackPointExtension>
        </extensions>
      </trkpt>
      <trkpt lat="50.6943" lon="5.04624">
        <ele>97.199996948242</ele>
        <time>2019-10-02T10:14:20.000Z</time>
        <extensions>
          <gpxtpx:TrackPointExtension xmlns:gpxtpx="http://www.garmin.com/xmlschemas/TrackPointExtension/v1">
            <gpxtpx:hr>163</gpxtpx:hr>
          </gpxtpx:TrackPointExtension>
        </extensions>
      </trkpt>
      <trkpt lat="50.69429" lon="5.04667">
        <ele>97.800003051758</ele>
        <time>2019-10-02T10:14:24.000Z</time>
        <extensions>
          <gpxtpx:TrackPointExtension xmlns:gpxtpx="http://www.garmin.com/xmlschemas/TrackPointExtension/v1">
            <gpxtpx:hr>163</gpxtpx:hr>
          </gpxtpx:TrackPointExtension>
        </extensions>
      </trkpt>
      <trkpt lat="50.69434" lon="5.04737">
        <ele>98.400001525879</ele>
        <time>2019-10-02T10:14:27.000Z</time>
        <extensions>
          <gpxtpx:TrackPointExtension xmlns:gpxtpx="http://www.garmin.com/xmlschemas/TrackPointExtension/v1">
            <gpxtpx:hr>163</gpxtpx:hr>
          </gpxtpx:TrackPointExtension>
        </extensions>
      </trkpt>
      <trkpt lat="50.69434" lon="5.04755">
        <ele>98.599998474121</ele>
        <time>2019-10-02T10:14:42.000Z</time>
        <extensions>
          <gpxtpx:TrackPointExtension xmlns:gpxtpx="http://www.garmin.com/xmlschemas/TrackPointExtension/v1">
            <gpxtpx:hr>163</gpxtpx:hr>
          </gpxtpx:TrackPointExtension>
        </extensions>
      </trkpt>
      <trkpt lat="50.69439" lon="5.04837">
        <ele>99.199996948242</ele>
        <time>2019-10-02T10:14:49.000Z</time>
        <extensions>
          <gpxtpx:TrackPointExtension xmlns:gpxtpx="http://www.garmin.com/xmlschemas/TrackPointExtension/v1">
            <gpxtpx:hr>163</gpxtpx:hr>
          </gpxtpx:TrackPointExtension>
        </extensions>
      </trkpt>
      <trkpt lat="50.6944" lon="5.04855">
        <ele>99.400001525879</ele>
        <time>2019-10-02T10:14:54.000Z</time>
        <extensions>
          <gpxtpx:TrackPointExtension xmlns:gpxtpx="http://www.garmin.com/xmlschemas/TrackPointExtension/v1">
            <gpxtpx:hr>163</gpxtpx:hr>
          </gpxtpx:TrackPointExtension>
        </extensions>
      </trkpt>
      <trkpt lat="50.69445" lon="5.04948">
        <ele>100.40000152588</ele>
        <time>2019-10-02T10:14:55.000Z</time>
        <extensions>
          <gpxtpx:TrackPointExtension xmlns:gpxtpx="http://www.garmin.com/xmlschemas/TrackPointExtension/v1">
            <gpxtpx:hr>163</gpxtpx:hr>
          </gpxtpx:TrackPointExtension>
        </extensions>
      </trkpt>
      <trkpt lat="50.69445" lon="5.04957">
        <ele>100.59999847412</ele>
        <time>2019-10-02T10:15:01.000Z</time>
        <extensions>
          <gpxtpx:TrackPointExtension xmlns:gpxtpx="http://www.garmin.com/xmlschemas/TrackPointExtension/v1">
            <gpxtpx:hr>163</gpxtpx:hr>
          </gpxtpx:TrackPointExtension>
        </extensions>
      </trkpt>
      <trkpt lat="50.69449" lon="5.05022">
        <ele>101.40000152588</ele>
        <time>2019-10-02T10:15:09.000Z</time>
        <extensions>
          <gpxtpx:TrackPointExtension xmlns:gpxtpx="http://www.garmin.com/xmlschemas/TrackPointExtension/v1">
            <gpxtpx:hr>162</gpxtpx:hr>
          </gpxtpx:TrackPointExtension>
        </extensions>
      </trkpt>
      <trkpt lat="50.69452" lon="5.05077">
        <ele>102.59999847412</ele>
        <time>2019-10-02T10:15:18.000Z</time>
        <extensions>
          <gpxtpx:TrackPointExtension xmlns:gpxtpx="http://www.garmin.com/xmlschemas/TrackPointExtension/v1">
            <gpxtpx:hr>162</gpxtpx:hr>
          </gpxtpx:TrackPointExtension>
        </extensions>
      </trkpt>
      <trkpt lat="50.69452" lon="5.05086">
        <ele>102.59999847412</ele>
        <time>2019-10-02T10:15:21.000Z</time>
        <extensions>
          <gpxtpx:TrackPointExtension xmlns:gpxtpx="http://www.garmin.com/xmlschemas/TrackPointExtension/v1">
            <gpxtpx:hr>162</gpxtpx:hr>
          </gpxtpx:TrackPointExtension>
        </extensions>
      </trkpt>
      <trkpt lat="50.69456" lon="5.05158">
        <ele>103.59999847412</ele>
        <time>2019-10-02T10:15:23.000Z</time>
        <extensions>
          <gpxtpx:TrackPointExtension xmlns:gpxtpx="http://www.garmin.com/xmlschemas/TrackPointExtension/v1">
            <gpxtpx:hr>161</gpxtpx:hr>
          </gpxtpx:TrackPointExtension>
        </extensions>
      </trkpt>
      <trkpt lat="50.69458" lon="5.05193">
        <ele>104.40000152588</ele>
        <time>2019-10-02T10:15:26.000Z</time>
        <extensions>
          <gpxtpx:TrackPointExtension xmlns:gpxtpx="http://www.garmin.com/xmlschemas/TrackPointExtension/v1">
            <gpxtpx:hr>161</gpxtpx:hr>
          </gpxtpx:TrackPointExtension>
        </extensions>
      </trkpt>
      <trkpt lat="50.69459" lon="5.05211">
        <ele>104.59999847412</ele>
        <time>2019-10-02T10:15:27.000Z</time>
        <extensions>
          <gpxtpx:TrackPointExtension xmlns:gpxtpx="http://www.garmin.com/xmlschemas/TrackPointExtension/v1">
            <gpxtpx:hr>161</gpxtpx:hr>
          </gpxtpx:TrackPointExtension>
        </extensions>
      </trkpt>
      <trkpt lat="50.69461" lon="5.05255">
        <ele>105.80000305176</ele>
        <time>2019-10-02T10:15:28.000Z</time>
        <extensions>
          <gpxtpx:TrackPointExtension xmlns:gpxtpx="http://www.garmin.com/xmlschemas/TrackPointExtension/v1">
            <gpxtpx:hr>160</gpxtpx:hr>
          </gpxtpx:TrackPointExtension>
        </extensions>
      </trkpt>
      <trkpt lat="50.69463" lon="5.0529">
        <ele>106.40000152588</ele>
        <time>2019-10-02T10:15:33.000Z</time>
        <extensions>
          <gpxtpx:TrackPointExtension xmlns:gpxtpx="http://www.garmin.com/xmlschemas/TrackPointExtension/v1">
            <gpxtpx:hr>160</gpxtpx:hr>
          </gpxtpx:TrackPointExtension>
        </extensions>
      </trkpt>
      <trkpt lat="50.69464" lon="5.05307">
        <ele>106.80000305176</ele>
        <time>2019-10-02T10:15:39.000Z</time>
        <extensions>
          <gpxtpx:TrackPointExtension xmlns:gpxtpx="http://www.garmin.com/xmlschemas/TrackPointExtension/v1">
            <gpxtpx:hr>160</gpxtpx:hr>
          </gpxtpx:TrackPointExtension>
        </extensions>
      </trkpt>
      <trkpt lat="50.69466" lon="5.05347">
        <ele>107.80000305176</ele>
        <time>2019-10-02T10:15:40.000Z</time>
        <extensions>
          <gpxtpx:TrackPointExtension xmlns:gpxtpx="http://www.garmin.com/xmlschemas/TrackPointExtension/v1">
            <gpxtpx:hr>160</gpxtpx:hr>
          </gpxtpx:TrackPointExtension>
        </extensions>
      </trkpt>
      <trkpt lat="50.69467" lon="5.05361">
        <ele>108</ele>
        <time>2019-10-02T10:15:41.000Z</time>
        <extensions>
          <gpxtpx:TrackPointExtension xmlns:gpxtpx="http://www.garmin.com/xmlschemas/TrackPointExtension/v1">
            <gpxtpx:hr>159</gpxtpx:hr>
          </gpxtpx:TrackPointExtension>
        </extensions>
      </trkpt>
      <trkpt lat="50.69468" lon="5.05381">
        <ele>108.59999847412</ele>
        <time>2019-10-02T10:15:49.000Z</time>
        <extensions>
          <gpxtpx:TrackPointExtension xmlns:gpxtpx="http://www.garmin.com/xmlschemas/TrackPointExtension/v1">
            <gpxtpx:hr>159</gpxtpx:hr>
          </gpxtpx:TrackPointExtension>
        </extensions>
      </trkpt>
      <trkpt lat="50.6947" lon="5.05413">
        <ele>126.8</ele>
        <time>2019-10-02T10:15:56.000Z</time>
      </trkpt>
      <trkpt lat="50.69473" lon="5.05442">
        <ele>110.59999847412</ele>
        <time>2019-10-02T10:16:04.000Z</time>
        <extensions>
          <gpxtpx:TrackPointExtension xmlns:gpxtpx="http://www.garmin.com/xmlschemas/TrackPointExtension/v1">
            <gpxtpx:hr>151</gpxtpx:hr>
          </gpxtpx:TrackPointExtension>
        </extensions>
      </trkpt>
      <trkpt lat="50.69475" lon="5.05457">
        <ele>110.80000305176</ele>
        <time>2019-10-02T10:16:07.000Z</time>
        <extensions>
          <gpxtpx:TrackPointExtension xmlns:gpxtpx="http://www.garmin.com/xmlschemas/TrackPointExtension/v1">
            <gpxtpx:hr>149</gpxtpx:hr>
          </gpxtpx:TrackPointExtension>
        </extensions>
      </trkpt>
      <trkpt lat="50.69478" lon="5.05477">
        <ele>111.19999694824</ele>
        <time>2019-10-02T10:16:09.000Z</time>
        <extensions>
          <gpxtpx:TrackPointExtension xmlns:gpxtpx="http://www.garmin.com/xmlschemas/TrackPointExtension/v1">
            <gpxtpx:hr>147</gpxtpx:hr>
          </gpxtpx:TrackPointExtension>
        </extensions>
      </trkpt>
      <trkpt lat="50.69483" lon="5.05514">
        <ele>111.80000305176</ele>
        <time>2019-10-02T10:16:13.000Z</time>
        <extensions>
          <gpxtpx:TrackPointExtension xmlns:gpxtpx="http://www.garmin.com/xmlschemas/TrackPointExtension/v1">
            <gpxtpx:hr>145</gpxtpx:hr>
          </gpxtpx:TrackPointExtension>
        </extensions>
      </trkpt>
      <trkpt lat="50.69484" lon="5.05519">
        <ele>111.80000305176</ele>
        <time>2019-10-02T10:16:20.000Z</time>
        <extensions>
          <gpxtpx:TrackPointExtension xmlns:gpxtpx="http://www.garmin.com/xmlschemas/TrackPointExtension/v1">
            <gpxtpx:hr>144</gpxtpx:hr>
          </gpxtpx:TrackPointExtension>
        </extensions>
      </trkpt>
      <trkpt lat="50.69488" lon="5.05545">
        <ele>112.19999694824</ele>
        <time>2019-10-02T10:16:21.000Z</time>
        <extensions>
          <gpxtpx:TrackPointExtension xmlns:gpxtpx="http://www.garmin.com/xmlschemas/TrackPointExtension/v1">
            <gpxtpx:hr>144</gpxtpx:hr>
          </gpxtpx:TrackPointExtension>
        </extensions>
      </trkpt>
      <trkpt lat="50.69492" lon="5.05575">
        <ele>112.80000305176</ele>
        <time>2019-10-02T10:16:23.000Z</time>
        <extensions>
          <gpxtpx:TrackPointExtension xmlns:gpxtpx="http://www.garmin.com/xmlschemas/TrackPointExtension/v1">
            <gpxtpx:hr>144</gpxtpx:hr>
          </gpxtpx:TrackPointExtension>
        </extensions>
      </trkpt>
      <trkpt lat="50.69498" lon="5.05613">
        <ele>113.19999694824</ele>
        <time>2019-10-02T10:16:24.000Z</time>
        <extensions>
          <gpxtpx:TrackPointExtension xmlns:gpxtpx="http://www.garmin.com/xmlschemas/TrackPointExtension/v1">
            <gpxtpx:hr>142</gpxtpx:hr>
          </gpxtpx:TrackPointExtension>
        </extensions>
      </trkpt>
      <trkpt lat="50.69501" lon="5.05637">
        <ele>113.80000305176</ele>
        <time>2019-10-02T10:16:30.000Z</time>
        <extensions>
          <gpxtpx:TrackPointExtension xmlns:gpxtpx="http://www.garmin.com/xmlschemas/TrackPointExtension/v1">
            <gpxtpx:hr>137</gpxtpx:hr>
          </gpxtpx:TrackPointExtension>
        </extensions>
      </trkpt>
      <trkpt lat="50.69501" lon="5.05637">
        <ele>113.80000305176</ele>
        <time>2019-10-02T10:16:37.000Z</time>
        <extensions>
          <gpxtpx:TrackPointExtension xmlns:gpxtpx="http://www.garmin.com/xmlschemas/TrackPointExtension/v1">
            <gpxtpx:hr>136</gpxtpx:hr>
          </gpxtpx:TrackPointExtension>
        </extensions>
      </trkpt>
      <trkpt lat="50.69502" lon="5.0564">
        <ele>113.59999847412</ele>
        <time>2019-10-02T10:16:44.000Z</time>
        <extensions>
          <gpxtpx:TrackPointExtension xmlns:gpxtpx="http://www.garmin.com/xmlschemas/TrackPointExtension/v1">
            <gpxtpx:hr>118</gpxtpx:hr>
          </gpxtpx:TrackPointExtension>
        </extensions>
      </trkpt>
      <trkpt lat="50.69502" lon="5.05642">
        <ele>113.59999847412</ele>
        <time>2019-10-02T10:16:52.000Z</time>
        <extensions>
          <gpxtpx:TrackPointExtension xmlns:gpxtpx="http://www.garmin.com/xmlschemas/TrackPointExtension/v1">
            <gpxtpx:hr>119</gpxtpx:hr>
          </gpxtpx:TrackPointExtension>
        </extensions>
      </trkpt>
      <trkpt lat="50.69508" lon="5.05662">
        <ele>113.80000305176</ele>
        <time>2019-10-02T10:16:57.000Z</time>
        <extensions>
          <gpxtpx:TrackPointExtension xmlns:gpxtpx="http://www.garmin.com/xmlschemas/TrackPointExtension/v1">
            <gpxtpx:hr>119</gpxtpx:hr>
          </gpxtpx:TrackPointExtension>
        </extensions>
      </trkpt>
      <trkpt lat="50.69515" lon="5.05691">
        <ele>113.80000305176</ele>
        <time>2019-10-02T10:16:59.000Z</time>
        <extensions>
          <gpxtpx:TrackPointExtension xmlns:gpxtpx="http://www.garmin.com/xmlschemas/TrackPointExtension/v1">
            <gpxtpx:hr>116</gpxtpx:hr>
          </gpxtpx:TrackPointExtension>
        </extensions>
      </trkpt>
      <trkpt lat="50.69519" lon="5.05705">
        <ele>114</ele>
        <time>2019-10-02T10:17:00.000Z</time>
        <extensions>
          <gpxtpx:TrackPointExtension xmlns:gpxtpx="http://www.garmin.com/xmlschemas/TrackPointExtension/v1">
            <gpxtpx:hr>113</gpxtpx:hr>
          </gpxtpx:TrackPointExtension>
        </extensions>
      </trkpt>
      <trkpt lat="50.69526" lon="5.05732">
        <ele>113.80000305176</ele>
        <time>2019-10-02T10:17:03.000Z</time>
        <extensions>
          <gpxtpx:TrackPointExtension xmlns:gpxtpx="http://www.garmin.com/xmlschemas/TrackPointExtension/v1">
            <gpxtpx:hr>112</gpxtpx:hr>
          </gpxtpx:TrackPointExtension>
        </extensions>
      </trkpt>
      <trkpt lat="50.69535" lon="5.05768">
        <ele>113.80000305176</ele>
        <time>2019-10-02T10:17:10.000Z</time>
        <extensions>
          <gpxtpx:TrackPointExtension xmlns:gpxtpx="http://www.garmin.com/xmlschemas/TrackPointExtension/v1">
            <gpxtpx:hr>110</gpxtpx:hr>
          </gpxtpx:TrackPointExtension>
        </extensions>
      </trkpt>
      <trkpt lat="50.69548" lon="5.05822">
        <ele>113.40000152588</ele>
        <time>2019-10-02T10:17:11.000Z</time>
        <extensions>
          <gpxtpx:TrackPointExtension xmlns:gpxtpx="http://www.garmin.com/xmlschemas/TrackPointExtension/v1">
            <gpxtpx:hr>109</gpxtpx:hr>
          </gpxtpx:TrackPointExtension>
        </extensions>
      </trkpt>
      <trkpt lat="50.69564" lon="5.05883">
        <ele>112.80000305176</ele>
        <time>2019-10-02T10:17:12.000Z</time>
        <extensions>
          <gpxtpx:TrackPointExtension xmlns:gpxtpx="http://www.garmin.com/xmlschemas/TrackPointExtension/v1">
            <gpxtpx:hr>107</gpxtpx:hr>
          </gpxtpx:TrackPointExtension>
        </extensions>
      </trkpt>
      <trkpt lat="50.69574" lon="5.05924">
        <ele>112.59999847412</ele>
        <time>2019-10-02T10:17:19.000Z</time>
        <extensions>
          <gpxtpx:TrackPointExtension xmlns:gpxtpx="http://www.garmin.com/xmlschemas/TrackPointExtension/v1">
            <gpxtpx:hr>106</gpxtpx:hr>
          </gpxtpx:TrackPointExtension>
        </extensions>
      </trkpt>
      <trkpt lat="50.69583" lon="5.05958">
        <ele>112.40000152588</ele>
        <time>2019-10-02T10:17:23.000Z</time>
        <extensions>
          <gpxtpx:TrackPointExtension xmlns:gpxtpx="http://www.garmin.com/xmlschemas/TrackPointExtension/v1">
            <gpxtpx:hr>107</gpxtpx:hr>
          </gpxtpx:TrackPointExtension>
        </extensions>
      </trkpt>
      <trkpt lat="50.69602" lon="5.06035">
        <ele>112</ele>
        <time>2019-10-02T10:17:24.000Z</time>
        <extensions>
          <gpxtpx:TrackPointExtension xmlns:gpxtpx="http://www.garmin.com/xmlschemas/TrackPointExtension/v1">
            <gpxtpx:hr>106</gpxtpx:hr>
          </gpxtpx:TrackPointExtension>
        </extensions>
      </trkpt>
      <trkpt lat="50.69608" lon="5.06064">
        <ele>111.40000152588</ele>
        <time>2019-10-02T10:17:30.000Z</time>
        <extensions>
          <gpxtpx:TrackPointExtension xmlns:gpxtpx="http://www.garmin.com/xmlschemas/TrackPointExtension/v1">
            <gpxtpx:hr>106</gpxtpx:hr>
          </gpxtpx:TrackPointExtension>
        </extensions>
      </trkpt>
      <trkpt lat="50.69609" lon="5.06086">
        <ele>111.19999694824</ele>
        <time>2019-10-02T10:17:32.000Z</time>
        <extensions>
          <gpxtpx:TrackPointExtension xmlns:gpxtpx="http://www.garmin.com/xmlschemas/TrackPointExtension/v1">
            <gpxtpx:hr>106</gpxtpx:hr>
          </gpxtpx:TrackPointExtension>
        </extensions>
      </trkpt>
      <trkpt lat="50.69614" lon="5.06158">
        <ele>110.40000152588</ele>
        <time>2019-10-02T10:17:37.000Z</time>
        <extensions>
          <gpxtpx:TrackPointExtension xmlns:gpxtpx="http://www.garmin.com/xmlschemas/TrackPointExtension/v1">
            <gpxtpx:hr>105</gpxtpx:hr>
          </gpxtpx:TrackPointExtension>
        </extensions>
      </trkpt>
      <trkpt lat="50.69615" lon="5.06182">
        <ele>109.80000305176</ele>
        <time>2019-10-02T10:17:44.000Z</time>
        <extensions>
          <gpxtpx:TrackPointExtension xmlns:gpxtpx="http://www.garmin.com/xmlschemas/TrackPointExtension/v1">
            <gpxtpx:hr>105</gpxtpx:hr>
          </gpxtpx:TrackPointExtension>
        </extensions>
      </trkpt>
      <trkpt lat="50.69617" lon="5.06205">
        <ele>109.19999694824</ele>
        <time>2019-10-02T10:17:51.000Z</time>
        <extensions>
          <gpxtpx:TrackPointExtension xmlns:gpxtpx="http://www.garmin.com/xmlschemas/TrackPointExtension/v1">
            <gpxtpx:hr>105</gpxtpx:hr>
          </gpxtpx:TrackPointExtension>
        </extensions>
      </trkpt>
      <trkpt lat="50.69621" lon="5.06271">
        <ele>108</ele>
        <time>2019-10-02T10:17:57.000Z</time>
        <extensions>
          <gpxtpx:TrackPointExtension xmlns:gpxtpx="http://www.garmin.com/xmlschemas/TrackPointExtension/v1">
            <gpxtpx:hr>108</gpxtpx:hr>
          </gpxtpx:TrackPointExtension>
        </extensions>
      </trkpt>
      <trkpt lat="50.69621" lon="5.06282">
        <ele>108</ele>
        <time>2019-10-02T10:18:02.000Z</time>
        <extensions>
          <gpxtpx:TrackPointExtension xmlns:gpxtpx="http://www.garmin.com/xmlschemas/TrackPointExtension/v1">
            <gpxtpx:hr>108</gpxtpx:hr>
          </gpxtpx:TrackPointExtension>
        </extensions>
      </trkpt>
      <trkpt lat="50.69624" lon="5.06324">
        <ele>108</ele>
        <time>2019-10-02T10:18:06.000Z</time>
        <extensions>
          <gpxtpx:TrackPointExtension xmlns:gpxtpx="http://www.garmin.com/xmlschemas/TrackPointExtension/v1">
            <gpxtpx:hr>111</gpxtpx:hr>
          </gpxtpx:TrackPointExtension>
        </extensions>
      </trkpt>
      <trkpt lat="50.69625" lon="5.06354">
        <ele>108</ele>
        <time>2019-10-02T10:18:08.000Z</time>
        <extensions>
          <gpxtpx:TrackPointExtension xmlns:gpxtpx="http://www.garmin.com/xmlschemas/TrackPointExtension/v1">
            <gpxtpx:hr>112</gpxtpx:hr>
          </gpxtpx:TrackPointExtension>
        </extensions>
      </trkpt>
      <trkpt lat="50.69628" lon="5.06403">
        <ele>108.19999694824</ele>
        <time>2019-10-02T10:18:15.000Z</time>
        <extensions>
          <gpxtpx:TrackPointExtension xmlns:gpxtpx="http://www.garmin.com/xmlschemas/TrackPointExtension/v1">
            <gpxtpx:hr>115</gpxtpx:hr>
          </gpxtpx:TrackPointExtension>
        </extensions>
      </trkpt>
      <trkpt lat="50.6963" lon="5.06442">
        <ele>108.80000305176</ele>
        <time>2019-10-02T10:18:17.000Z</time>
        <extensions>
          <gpxtpx:TrackPointExtension xmlns:gpxtpx="http://www.garmin.com/xmlschemas/TrackPointExtension/v1">
            <gpxtpx:hr>118</gpxtpx:hr>
          </gpxtpx:TrackPointExtension>
        </extensions>
      </trkpt>
      <trkpt lat="50.69631" lon="5.06451">
        <ele>109</ele>
        <time>2019-10-02T10:18:20.000Z</time>
        <extensions>
          <gpxtpx:TrackPointExtension xmlns:gpxtpx="http://www.garmin.com/xmlschemas/TrackPointExtension/v1">
            <gpxtpx:hr>119</gpxtpx:hr>
          </gpxtpx:TrackPointExtension>
        </extensions>
      </trkpt>
      <trkpt lat="50.69632" lon="5.0647">
        <ele>109</ele>
        <time>2019-10-02T10:18:22.000Z</time>
        <extensions>
          <gpxtpx:TrackPointExtension xmlns:gpxtpx="http://www.garmin.com/xmlschemas/TrackPointExtension/v1">
            <gpxtpx:hr>122</gpxtpx:hr>
          </gpxtpx:TrackPointExtension>
        </extensions>
      </trkpt>
      <trkpt lat="50.69632" lon="5.06497">
        <ele>109.59999847412</ele>
        <time>2019-10-02T10:18:25.000Z</time>
        <extensions>
          <gpxtpx:TrackPointExtension xmlns:gpxtpx="http://www.garmin.com/xmlschemas/TrackPointExtension/v1">
            <gpxtpx:hr>125</gpxtpx:hr>
          </gpxtpx:TrackPointExtension>
        </extensions>
      </trkpt>
      <trkpt lat="50.69631" lon="5.06515">
        <ele>110</ele>
        <time>2019-10-02T10:18:33.000Z</time>
        <extensions>
          <gpxtpx:TrackPointExtension xmlns:gpxtpx="http://www.garmin.com/xmlschemas/TrackPointExtension/v1">
            <gpxtpx:hr>126</gpxtpx:hr>
          </gpxtpx:TrackPointExtension>
        </extensions>
      </trkpt>
      <trkpt lat="50.69629" lon="5.06533">
        <ele>110.19999694824</ele>
        <time>2019-10-02T10:18:37.000Z</time>
        <extensions>
          <gpxtpx:TrackPointExtension xmlns:gpxtpx="http://www.garmin.com/xmlschemas/TrackPointExtension/v1">
            <gpxtpx:hr>128</gpxtpx:hr>
          </gpxtpx:TrackPointExtension>
        </extensions>
      </trkpt>
      <trkpt lat="50.69623" lon="5.06593">
        <ele>125.1</ele>
        <time>2019-10-02T10:18:41.000Z</time>
      </trkpt>
      <trkpt lat="50.69619" lon="5.06629">
        <ele>124.8</ele>
        <time>2019-10-02T10:18:47.000Z</time>
      </trkpt>
      <trkpt lat="50.6962" lon="5.06664">
        <ele>110.19999694824</ele>
        <time>2019-10-02T10:18:50.000Z</time>
        <extensions>
          <gpxtpx:TrackPointExtension xmlns:gpxtpx="http://www.garmin.com/xmlschemas/TrackPointExtension/v1">
            <gpxtpx:hr>128</gpxtpx:hr>
          </gpxtpx:TrackPointExtension>
        </extensions>
      </trkpt>
      <trkpt lat="50.69621" lon="5.06674">
        <ele>110.19999694824</ele>
        <time>2019-10-02T10:18:51.000Z</time>
        <extensions>
          <gpxtpx:TrackPointExtension xmlns:gpxtpx="http://www.garmin.com/xmlschemas/TrackPointExtension/v1">
            <gpxtpx:hr>128</gpxtpx:hr>
          </gpxtpx:TrackPointExtension>
        </extensions>
      </trkpt>
      <trkpt lat="50.69627" lon="5.06728">
        <ele>109.19999694824</ele>
        <time>2019-10-02T10:18:52.000Z</time>
        <extensions>
          <gpxtpx:TrackPointExtension xmlns:gpxtpx="http://www.garmin.com/xmlschemas/TrackPointExtension/v1">
            <gpxtpx:hr>126</gpxtpx:hr>
          </gpxtpx:TrackPointExtension>
        </extensions>
      </trkpt>
      <trkpt lat="50.69634" lon="5.06788">
        <ele>108.80000305176</ele>
        <time>2019-10-02T10:18:55.000Z</time>
        <extensions>
          <gpxtpx:TrackPointExtension xmlns:gpxtpx="http://www.garmin.com/xmlschemas/TrackPointExtension/v1">
            <gpxtpx:hr>124</gpxtpx:hr>
          </gpxtpx:TrackPointExtension>
        </extensions>
      </trkpt>
      <trkpt lat="50.69639" lon="5.06834">
        <ele>108.40000152588</ele>
        <time>2019-10-02T10:18:56.000Z</time>
        <extensions>
          <gpxtpx:TrackPointExtension xmlns:gpxtpx="http://www.garmin.com/xmlschemas/TrackPointExtension/v1">
            <gpxtpx:hr>121</gpxtpx:hr>
          </gpxtpx:TrackPointExtension>
        </extensions>
      </trkpt>
      <trkpt lat="50.6964" lon="5.06853">
        <ele>108.59999847412</ele>
        <time>2019-10-02T10:18:57.000Z</time>
        <extensions>
          <gpxtpx:TrackPointExtension xmlns:gpxtpx="http://www.garmin.com/xmlschemas/TrackPointExtension/v1">
            <gpxtpx:hr>121</gpxtpx:hr>
          </gpxtpx:TrackPointExtension>
        </extensions>
      </trkpt>
      <trkpt lat="50.6964" lon="5.06863">
        <ele>108.59999847412</ele>
        <time>2019-10-02T10:19:01.000Z</time>
        <extensions>
          <gpxtpx:TrackPointExtension xmlns:gpxtpx="http://www.garmin.com/xmlschemas/TrackPointExtension/v1">
            <gpxtpx:hr>120</gpxtpx:hr>
          </gpxtpx:TrackPointExtension>
        </extensions>
      </trkpt>
      <trkpt lat="50.69636" lon="5.06895">
        <ele>108.59999847412</ele>
        <time>2019-10-02T10:19:10.000Z</time>
        <extensions>
          <gpxtpx:TrackPointExtension xmlns:gpxtpx="http://www.garmin.com/xmlschemas/TrackPointExtension/v1">
            <gpxtpx:hr>118</gpxtpx:hr>
          </gpxtpx:TrackPointExtension>
        </extensions>
      </trkpt>
      <trkpt lat="50.69626" lon="5.06965">
        <ele>108.19999694824</ele>
        <time>2019-10-02T10:19:12.000Z</time>
        <extensions>
          <gpxtpx:TrackPointExtension xmlns:gpxtpx="http://www.garmin.com/xmlschemas/TrackPointExtension/v1">
            <gpxtpx:hr>116</gpxtpx:hr>
          </gpxtpx:TrackPointExtension>
        </extensions>
      </trkpt>
      <trkpt lat="50.69622" lon="5.06991">
        <ele>108</ele>
        <time>2019-10-02T10:19:18.000Z</time>
        <extensions>
          <gpxtpx:TrackPointExtension xmlns:gpxtpx="http://www.garmin.com/xmlschemas/TrackPointExtension/v1">
            <gpxtpx:hr>115</gpxtpx:hr>
          </gpxtpx:TrackPointExtension>
        </extensions>
      </trkpt>
      <trkpt lat="50.69612" lon="5.07058">
        <ele>106.80000305176</ele>
        <time>2019-10-02T10:19:22.000Z</time>
        <extensions>
          <gpxtpx:TrackPointExtension xmlns:gpxtpx="http://www.garmin.com/xmlschemas/TrackPointExtension/v1">
            <gpxtpx:hr>113</gpxtpx:hr>
          </gpxtpx:TrackPointExtension>
        </extensions>
      </trkpt>
      <trkpt lat="50.69603" lon="5.07125">
        <ele>105.40000152588</ele>
        <time>2019-10-02T10:19:28.000Z</time>
        <extensions>
          <gpxtpx:TrackPointExtension xmlns:gpxtpx="http://www.garmin.com/xmlschemas/TrackPointExtension/v1">
            <gpxtpx:hr>112</gpxtpx:hr>
          </gpxtpx:TrackPointExtension>
        </extensions>
      </trkpt>
      <trkpt lat="50.69598" lon="5.07163">
        <ele>104.19999694824</ele>
        <time>2019-10-02T10:19:34.000Z</time>
        <extensions>
          <gpxtpx:TrackPointExtension xmlns:gpxtpx="http://www.garmin.com/xmlschemas/TrackPointExtension/v1">
            <gpxtpx:hr>111</gpxtpx:hr>
          </gpxtpx:TrackPointExtension>
        </extensions>
      </trkpt>
      <trkpt lat="50.69591" lon="5.07214">
        <ele>102.80000305176</ele>
        <time>2019-10-02T10:19:38.000Z</time>
        <extensions>
          <gpxtpx:TrackPointExtension xmlns:gpxtpx="http://www.garmin.com/xmlschemas/TrackPointExtension/v1">
            <gpxtpx:hr>108</gpxtpx:hr>
          </gpxtpx:TrackPointExtension>
        </extensions>
      </trkpt>
      <trkpt lat="50.69589" lon="5.0724">
        <ele>102.19999694824</ele>
        <time>2019-10-02T10:19:46.000Z</time>
        <extensions>
          <gpxtpx:TrackPointExtension xmlns:gpxtpx="http://www.garmin.com/xmlschemas/TrackPointExtension/v1">
            <gpxtpx:hr>107</gpxtpx:hr>
          </gpxtpx:TrackPointExtension>
        </extensions>
      </trkpt>
      <trkpt lat="50.69589" lon="5.07253">
        <ele>101.59999847412</ele>
        <time>2019-10-02T10:19:52.000Z</time>
        <extensions>
          <gpxtpx:TrackPointExtension xmlns:gpxtpx="http://www.garmin.com/xmlschemas/TrackPointExtension/v1">
            <gpxtpx:hr>106</gpxtpx:hr>
          </gpxtpx:TrackPointExtension>
        </extensions>
      </trkpt>
      <trkpt lat="50.69593" lon="5.07275">
        <ele>115</ele>
        <time>2019-10-02T10:19:58.000Z</time>
      </trkpt>
      <trkpt lat="50.69599" lon="5.07302">
        <ele>100.40000152588</ele>
        <time>2019-10-02T10:19:59.000Z</time>
        <extensions>
          <gpxtpx:TrackPointExtension xmlns:gpxtpx="http://www.garmin.com/xmlschemas/TrackPointExtension/v1">
            <gpxtpx:hr>104</gpxtpx:hr>
          </gpxtpx:TrackPointExtension>
        </extensions>
      </trkpt>
      <trkpt lat="50.69607" lon="5.07336">
        <ele>99.400001525879</ele>
        <time>2019-10-02T10:20:00.000Z</time>
        <extensions>
          <gpxtpx:TrackPointExtension xmlns:gpxtpx="http://www.garmin.com/xmlschemas/TrackPointExtension/v1">
            <gpxtpx:hr>103</gpxtpx:hr>
          </gpxtpx:TrackPointExtension>
        </extensions>
      </trkpt>
      <trkpt lat="50.69612" lon="5.07354">
        <ele>115</ele>
        <time>2019-10-02T10:20:03.000Z</time>
      </trkpt>
      <trkpt lat="50.69617" lon="5.0738">
        <ele>98.800003051758</ele>
        <time>2019-10-02T10:20:06.000Z</time>
        <extensions>
          <gpxtpx:TrackPointExtension xmlns:gpxtpx="http://www.garmin.com/xmlschemas/TrackPointExtension/v1">
            <gpxtpx:hr>102</gpxtpx:hr>
          </gpxtpx:TrackPointExtension>
        </extensions>
      </trkpt>
      <trkpt lat="50.69619" lon="5.074">
        <ele>115</ele>
        <time>2019-10-02T10:20:08.000Z</time>
      </trkpt>
      <trkpt lat="50.69614" lon="5.07426">
        <ele>98.400001525879</ele>
        <time>2019-10-02T10:20:13.000Z</time>
        <extensions>
          <gpxtpx:TrackPointExtension xmlns:gpxtpx="http://www.garmin.com/xmlschemas/TrackPointExtension/v1">
            <gpxtpx:hr>101</gpxtpx:hr>
          </gpxtpx:TrackPointExtension>
        </extensions>
      </trkpt>
      <trkpt lat="50.69611" lon="5.07437">
        <ele>98.199996948242</ele>
        <time>2019-10-02T10:20:14.000Z</time>
        <extensions>
          <gpxtpx:TrackPointExtension xmlns:gpxtpx="http://www.garmin.com/xmlschemas/TrackPointExtension/v1">
            <gpxtpx:hr>101</gpxtpx:hr>
          </gpxtpx:TrackPointExtension>
        </extensions>
      </trkpt>
      <trkpt lat="50.69604" lon="5.07457">
        <ele>97.800003051758</ele>
        <time>2019-10-02T10:20:21.000Z</time>
        <extensions>
          <gpxtpx:TrackPointExtension xmlns:gpxtpx="http://www.garmin.com/xmlschemas/TrackPointExtension/v1">
            <gpxtpx:hr>101</gpxtpx:hr>
          </gpxtpx:TrackPointExtension>
        </extensions>
      </trkpt>
      <trkpt lat="50.69596" lon="5.07478">
        <ele>97.599998474121</ele>
        <time>2019-10-02T10:20:24.000Z</time>
        <extensions>
          <gpxtpx:TrackPointExtension xmlns:gpxtpx="http://www.garmin.com/xmlschemas/TrackPointExtension/v1">
            <gpxtpx:hr>102</gpxtpx:hr>
          </gpxtpx:TrackPointExtension>
        </extensions>
      </trkpt>
      <trkpt lat="50.69589" lon="5.07498">
        <ele>97.199996948242</ele>
        <time>2019-10-02T10:20:31.000Z</time>
        <extensions>
          <gpxtpx:TrackPointExtension xmlns:gpxtpx="http://www.garmin.com/xmlschemas/TrackPointExtension/v1">
            <gpxtpx:hr>103</gpxtpx:hr>
          </gpxtpx:TrackPointExtension>
        </extensions>
      </trkpt>
      <trkpt lat="50.69586" lon="5.07509">
        <ele>97</ele>
        <time>2019-10-02T10:20:33.000Z</time>
        <extensions>
          <gpxtpx:TrackPointExtension xmlns:gpxtpx="http://www.garmin.com/xmlschemas/TrackPointExtension/v1">
            <gpxtpx:hr>103</gpxtpx:hr>
          </gpxtpx:TrackPointExtension>
        </extensions>
      </trkpt>
      <trkpt lat="50.69581" lon="5.07531">
        <ele>96.599998474121</ele>
        <time>2019-10-02T10:20:34.000Z</time>
        <extensions>
          <gpxtpx:TrackPointExtension xmlns:gpxtpx="http://www.garmin.com/xmlschemas/TrackPointExtension/v1">
            <gpxtpx:hr>102</gpxtpx:hr>
          </gpxtpx:TrackPointExtension>
        </extensions>
      </trkpt>
      <trkpt lat="50.69576" lon="5.07571">
        <ele>111</ele>
        <time>2019-10-02T10:20:41.000Z</time>
      </trkpt>
      <trkpt lat="50.69573" lon="5.07608">
        <ele>111.1</ele>
        <time>2019-10-02T10:20:47.000Z</time>
      </trkpt>
      <trkpt lat="50.69568" lon="5.07647">
        <ele>94.800003051758</ele>
        <time>2019-10-02T10:20:50.000Z</time>
        <extensions>
          <gpxtpx:TrackPointExtension xmlns:gpxtpx="http://www.garmin.com/xmlschemas/TrackPointExtension/v1">
            <gpxtpx:hr>108</gpxtpx:hr>
          </gpxtpx:TrackPointExtension>
        </extensions>
      </trkpt>
      <trkpt lat="50.69566" lon="5.07669">
        <ele>94.599998474121</ele>
        <time>2019-10-02T10:20:52.000Z</time>
        <extensions>
          <gpxtpx:TrackPointExtension xmlns:gpxtpx="http://www.garmin.com/xmlschemas/TrackPointExtension/v1">
            <gpxtpx:hr>109</gpxtpx:hr>
          </gpxtpx:TrackPointExtension>
        </extensions>
      </trkpt>
      <trkpt lat="50.69565" lon="5.07702">
        <ele>113</ele>
        <time>2019-10-02T10:20:57.000Z</time>
      </trkpt>
      <trkpt lat="50.69561" lon="5.07711">
        <ele>94.599998474121</ele>
        <time>2019-10-02T10:20:58.000Z</time>
        <extensions>
          <gpxtpx:TrackPointExtension xmlns:gpxtpx="http://www.garmin.com/xmlschemas/TrackPointExtension/v1">
            <gpxtpx:hr>111</gpxtpx:hr>
          </gpxtpx:TrackPointExtension>
        </extensions>
      </trkpt>
      <trkpt lat="50.69559" lon="5.0772">
        <ele>94.599998474121</ele>
        <time>2019-10-02T10:21:05.000Z</time>
        <extensions>
          <gpxtpx:TrackPointExtension xmlns:gpxtpx="http://www.garmin.com/xmlschemas/TrackPointExtension/v1">
            <gpxtpx:hr>111</gpxtpx:hr>
          </gpxtpx:TrackPointExtension>
        </extensions>
      </trkpt>
      <trkpt lat="50.69547" lon="5.07745">
        <ele>94.599998474121</ele>
        <time>2019-10-02T10:21:07.000Z</time>
        <extensions>
          <gpxtpx:TrackPointExtension xmlns:gpxtpx="http://www.garmin.com/xmlschemas/TrackPointExtension/v1">
            <gpxtpx:hr>114</gpxtpx:hr>
          </gpxtpx:TrackPointExtension>
        </extensions>
      </trkpt>
      <trkpt lat="50.69542" lon="5.07753">
        <ele>94.800003051758</ele>
        <time>2019-10-02T10:21:14.000Z</time>
        <extensions>
          <gpxtpx:TrackPointExtension xmlns:gpxtpx="http://www.garmin.com/xmlschemas/TrackPointExtension/v1">
            <gpxtpx:hr>114</gpxtpx:hr>
          </gpxtpx:TrackPointExtension>
        </extensions>
      </trkpt>
      <trkpt lat="50.69517" lon="5.0779">
        <ele>95.199996948242</ele>
        <time>2019-10-02T10:21:16.000Z</time>
        <extensions>
          <gpxtpx:TrackPointExtension xmlns:gpxtpx="http://www.garmin.com/xmlschemas/TrackPointExtension/v1">
            <gpxtpx:hr>118</gpxtpx:hr>
          </gpxtpx:TrackPointExtension>
        </extensions>
      </trkpt>
      <trkpt lat="50.69501" lon="5.07809">
        <ele>95.400001525879</ele>
        <time>2019-10-02T10:21:23.000Z</time>
        <extensions>
          <gpxtpx:TrackPointExtension xmlns:gpxtpx="http://www.garmin.com/xmlschemas/TrackPointExtension/v1">
            <gpxtpx:hr>120</gpxtpx:hr>
          </gpxtpx:TrackPointExtension>
        </extensions>
      </trkpt>
      <trkpt lat="50.69484" lon="5.07829">
        <ele>114.4</ele>
        <time>2019-10-02T10:21:25.000Z</time>
      </trkpt>
      <trkpt lat="50.69467" lon="5.07844">
        <ele>96</ele>
        <time>2019-10-02T10:21:32.000Z</time>
        <extensions>
          <gpxtpx:TrackPointExtension xmlns:gpxtpx="http://www.garmin.com/xmlschemas/TrackPointExtension/v1">
            <gpxtpx:hr>126</gpxtpx:hr>
          </gpxtpx:TrackPointExtension>
        </extensions>
      </trkpt>
      <trkpt lat="50.69452" lon="5.07859">
        <ele>116.2</ele>
        <time>2019-10-02T10:21:36.000Z</time>
      </trkpt>
      <trkpt lat="50.69438" lon="5.07865">
        <ele>116.1</ele>
        <time>2019-10-02T10:21:42.000Z</time>
      </trkpt>
      <trkpt lat="50.69411" lon="5.07875">
        <ele>114.4</ele>
        <time>2019-10-02T10:21:47.000Z</time>
      </trkpt>
      <trkpt lat="50.69404" lon="5.07878">
        <ele>97.800003051758</ele>
        <time>2019-10-02T10:21:53.000Z</time>
        <extensions>
          <gpxtpx:TrackPointExtension xmlns:gpxtpx="http://www.garmin.com/xmlschemas/TrackPointExtension/v1">
            <gpxtpx:hr>132</gpxtpx:hr>
          </gpxtpx:TrackPointExtension>
        </extensions>
      </trkpt>
      <trkpt lat="50.694" lon="5.07877">
        <ele>114.2</ele>
        <time>2019-10-02T10:21:55.000Z</time>
      </trkpt>
      <trkpt lat="50.69404" lon="5.07911">
        <ele>115</ele>
        <time>2019-10-02T10:21:56.000Z</time>
      </trkpt>
      <trkpt lat="50.69413" lon="5.07961">
        <ele>116.1</ele>
        <time>2019-10-02T10:22:03.000Z</time>
      </trkpt>
      <trkpt lat="50.69423" lon="5.08005">
        <ele>118.6</ele>
        <time>2019-10-02T10:22:04.000Z</time>
      </trkpt>
      <trkpt lat="50.69429" lon="5.08037">
        <ele>119.7</ele>
        <time>2019-10-02T10:22:10.000Z</time>
      </trkpt>
      <trkpt lat="50.69433" lon="5.08052">
        <ele>100</ele>
        <time>2019-10-02T10:22:17.000Z</time>
        <extensions>
          <gpxtpx:TrackPointExtension xmlns:gpxtpx="http://www.garmin.com/xmlschemas/TrackPointExtension/v1">
            <gpxtpx:hr>139</gpxtpx:hr>
          </gpxtpx:TrackPointExtension>
        </extensions>
      </trkpt>
      <trkpt lat="50.6945" lon="5.08097">
        <ele>120.8</ele>
        <time>2019-10-02T10:22:18.000Z</time>
      </trkpt>
      <trkpt lat="50.69464" lon="5.08128">
        <ele>121.4</ele>
        <time>2019-10-02T10:22:21.000Z</time>
      </trkpt>
      <trkpt lat="50.69481" lon="5.08169">
        <ele>122.6</ele>
        <time>2019-10-02T10:22:26.000Z</time>
      </trkpt>
      <trkpt lat="50.69497" lon="5.08208">
        <ele>122.9</ele>
        <time>2019-10-02T10:22:30.000Z</time>
      </trkpt>
      <trkpt lat="50.69504" lon="5.08224">
        <ele>106.59999847412</ele>
        <time>2019-10-02T10:22:33.000Z</time>
        <extensions>
          <gpxtpx:TrackPointExtension xmlns:gpxtpx="http://www.garmin.com/xmlschemas/TrackPointExtension/v1">
            <gpxtpx:hr>144</gpxtpx:hr>
          </gpxtpx:TrackPointExtension>
        </extensions>
      </trkpt>
      <trkpt lat="50.69512" lon="5.08243">
        <ele>106.80000305176</ele>
        <time>2019-10-02T10:22:34.000Z</time>
        <extensions>
          <gpxtpx:TrackPointExtension xmlns:gpxtpx="http://www.garmin.com/xmlschemas/TrackPointExtension/v1">
            <gpxtpx:hr>144</gpxtpx:hr>
          </gpxtpx:TrackPointExtension>
        </extensions>
      </trkpt>
      <trkpt lat="50.69529" lon="5.08285">
        <ele>107.40000152588</ele>
        <time>2019-10-02T10:22:36.000Z</time>
        <extensions>
          <gpxtpx:TrackPointExtension xmlns:gpxtpx="http://www.garmin.com/xmlschemas/TrackPointExtension/v1">
            <gpxtpx:hr>143</gpxtpx:hr>
          </gpxtpx:TrackPointExtension>
        </extensions>
      </trkpt>
      <trkpt lat="50.69535" lon="5.08299">
        <ele>107.59999847412</ele>
        <time>2019-10-02T10:22:38.000Z</time>
        <extensions>
          <gpxtpx:TrackPointExtension xmlns:gpxtpx="http://www.garmin.com/xmlschemas/TrackPointExtension/v1">
            <gpxtpx:hr>143</gpxtpx:hr>
          </gpxtpx:TrackPointExtension>
        </extensions>
      </trkpt>
      <trkpt lat="50.69562" lon="5.08358">
        <ele>124.6</ele>
        <time>2019-10-02T10:22:40.000Z</time>
      </trkpt>
      <trkpt lat="50.69573" lon="5.08383">
        <ele>125</ele>
        <time>2019-10-02T10:22:41.000Z</time>
      </trkpt>
      <trkpt lat="50.69585" lon="5.08415">
        <ele>127</ele>
        <time>2019-10-02T10:22:42.000Z</time>
      </trkpt>
      <trkpt lat="50.69591" lon="5.08433">
        <ele>109.59999847412</ele>
        <time>2019-10-02T10:22:46.000Z</time>
        <extensions>
          <gpxtpx:TrackPointExtension xmlns:gpxtpx="http://www.garmin.com/xmlschemas/TrackPointExtension/v1">
            <gpxtpx:hr>143</gpxtpx:hr>
          </gpxtpx:TrackPointExtension>
        </extensions>
      </trkpt>
      <trkpt lat="50.69602" lon="5.08463">
        <ele>127</ele>
        <time>2019-10-02T10:22:51.000Z</time>
      </trkpt>
      <trkpt lat="50.69613" lon="5.08504">
        <ele>110.40000152588</ele>
        <time>2019-10-02T10:22:55.000Z</time>
        <extensions>
          <gpxtpx:TrackPointExtension xmlns:gpxtpx="http://www.garmin.com/xmlschemas/TrackPointExtension/v1">
            <gpxtpx:hr>143</gpxtpx:hr>
          </gpxtpx:TrackPointExtension>
        </extensions>
      </trkpt>
      <trkpt lat="50.69617" lon="5.08524">
        <ele>110.40000152588</ele>
        <time>2019-10-02T10:22:57.000Z</time>
        <extensions>
          <gpxtpx:TrackPointExtension xmlns:gpxtpx="http://www.garmin.com/xmlschemas/TrackPointExtension/v1">
            <gpxtpx:hr>143</gpxtpx:hr>
          </gpxtpx:TrackPointExtension>
        </extensions>
      </trkpt>
      <trkpt lat="50.6962" lon="5.08546">
        <ele>110.40000152588</ele>
        <time>2019-10-02T10:23:04.000Z</time>
        <extensions>
          <gpxtpx:TrackPointExtension xmlns:gpxtpx="http://www.garmin.com/xmlschemas/TrackPointExtension/v1">
            <gpxtpx:hr>142</gpxtpx:hr>
          </gpxtpx:TrackPointExtension>
        </extensions>
      </trkpt>
      <trkpt lat="50.6963" lon="5.08622">
        <ele>110.40000152588</ele>
        <time>2019-10-02T10:23:06.000Z</time>
        <extensions>
          <gpxtpx:TrackPointExtension xmlns:gpxtpx="http://www.garmin.com/xmlschemas/TrackPointExtension/v1">
            <gpxtpx:hr>141</gpxtpx:hr>
          </gpxtpx:TrackPointExtension>
        </extensions>
      </trkpt>
      <trkpt lat="50.6964" lon="5.08686">
        <ele>108.59999847412</ele>
        <time>2019-10-02T10:23:07.000Z</time>
        <extensions>
          <gpxtpx:TrackPointExtension xmlns:gpxtpx="http://www.garmin.com/xmlschemas/TrackPointExtension/v1">
            <gpxtpx:hr>138</gpxtpx:hr>
          </gpxtpx:TrackPointExtension>
        </extensions>
      </trkpt>
      <trkpt lat="50.69643" lon="5.08699">
        <ele>108.40000152588</ele>
        <time>2019-10-02T10:23:11.000Z</time>
        <extensions>
          <gpxtpx:TrackPointExtension xmlns:gpxtpx="http://www.garmin.com/xmlschemas/TrackPointExtension/v1">
            <gpxtpx:hr>137</gpxtpx:hr>
          </gpxtpx:TrackPointExtension>
        </extensions>
      </trkpt>
      <trkpt lat="50.69647" lon="5.08729">
        <ele>119.8</ele>
        <time>2019-10-02T10:23:12.000Z</time>
      </trkpt>
      <trkpt lat="50.69651" lon="5.08754">
        <ele>119</ele>
        <time>2019-10-02T10:23:15.000Z</time>
      </trkpt>
      <trkpt lat="50.69654" lon="5.08771">
        <ele>106.19999694824</ele>
        <time>2019-10-02T10:23:17.000Z</time>
        <extensions>
          <gpxtpx:TrackPointExtension xmlns:gpxtpx="http://www.garmin.com/xmlschemas/TrackPointExtension/v1">
            <gpxtpx:hr>131</gpxtpx:hr>
          </gpxtpx:TrackPointExtension>
        </extensions>
      </trkpt>
      <trkpt lat="50.69655" lon="5.08802">
        <ele>118.4</ele>
        <time>2019-10-02T10:23:18.000Z</time>
      </trkpt>
      <trkpt lat="50.69655" lon="5.08829">
        <ele>103.19999694824</ele>
        <time>2019-10-02T10:23:19.000Z</time>
        <extensions>
          <gpxtpx:TrackPointExtension xmlns:gpxtpx="http://www.garmin.com/xmlschemas/TrackPointExtension/v1">
            <gpxtpx:hr>129</gpxtpx:hr>
          </gpxtpx:TrackPointExtension>
        </extensions>
      </trkpt>
      <trkpt lat="50.69655" lon="5.08839">
        <ele>102.80000305176</ele>
        <time>2019-10-02T10:23:26.000Z</time>
        <extensions>
          <gpxtpx:TrackPointExtension xmlns:gpxtpx="http://www.garmin.com/xmlschemas/TrackPointExtension/v1">
            <gpxtpx:hr>129</gpxtpx:hr>
          </gpxtpx:TrackPointExtension>
        </extensions>
      </trkpt>
      <trkpt lat="50.69656" lon="5.08849">
        <ele>102.19999694824</ele>
        <time>2019-10-02T10:23:33.000Z</time>
        <extensions>
          <gpxtpx:TrackPointExtension xmlns:gpxtpx="http://www.garmin.com/xmlschemas/TrackPointExtension/v1">
            <gpxtpx:hr>130</gpxtpx:hr>
          </gpxtpx:TrackPointExtension>
        </extensions>
      </trkpt>
      <trkpt lat="50.69656" lon="5.08886">
        <ele>117.4</ele>
        <time>2019-10-02T10:23:40.000Z</time>
      </trkpt>
      <trkpt lat="50.69658" lon="5.08958">
        <ele>116.7</ele>
        <time>2019-10-02T10:23:43.000Z</time>
      </trkpt>
      <trkpt lat="50.69659" lon="5.09031">
        <ele>116.1</ele>
        <time>2019-10-02T10:23:50.000Z</time>
      </trkpt>
      <trkpt lat="50.69663" lon="5.09081">
        <ele>116</ele>
        <time>2019-10-02T10:23:57.000Z</time>
      </trkpt>
      <trkpt lat="50.69664" lon="5.0915">
        <ele>116.3</ele>
        <time>2019-10-02T10:23:58.000Z</time>
      </trkpt>
      <trkpt lat="50.69665" lon="5.09183">
        <ele>116.4</ele>
        <time>2019-10-02T10:24:05.000Z</time>
      </trkpt>
      <trkpt lat="50.69658" lon="5.09189">
        <ele>116.3</ele>
        <time>2019-10-02T10:24:06.000Z</time>
      </trkpt>
      <trkpt lat="50.69638" lon="5.09203">
        <ele>115.9</ele>
        <time>2019-10-02T10:24:09.000Z</time>
      </trkpt>
      <trkpt lat="50.6961" lon="5.09223">
        <ele>99.199996948242</ele>
        <time>2019-10-02T10:24:15.000Z</time>
        <extensions>
          <gpxtpx:TrackPointExtension xmlns:gpxtpx="http://www.garmin.com/xmlschemas/TrackPointExtension/v1">
            <gpxtpx:hr>124</gpxtpx:hr>
          </gpxtpx:TrackPointExtension>
        </extensions>
      </trkpt>
      <trkpt lat="50.69597" lon="5.09223">
        <ele>99.199996948242</ele>
        <time>2019-10-02T10:24:17.000Z</time>
        <extensions>
          <gpxtpx:TrackPointExtension xmlns:gpxtpx="http://www.garmin.com/xmlschemas/TrackPointExtension/v1">
            <gpxtpx:hr>123</gpxtpx:hr>
          </gpxtpx:TrackPointExtension>
        </extensions>
      </trkpt>
      <trkpt lat="50.69581" lon="5.09214">
        <ele>99</ele>
        <time>2019-10-02T10:24:22.000Z</time>
        <extensions>
          <gpxtpx:TrackPointExtension xmlns:gpxtpx="http://www.garmin.com/xmlschemas/TrackPointExtension/v1">
            <gpxtpx:hr>119</gpxtpx:hr>
          </gpxtpx:TrackPointExtension>
        </extensions>
      </trkpt>
      <trkpt lat="50.69576" lon="5.0921">
        <ele>99</ele>
        <time>2019-10-02T10:24:27.000Z</time>
        <extensions>
          <gpxtpx:TrackPointExtension xmlns:gpxtpx="http://www.garmin.com/xmlschemas/TrackPointExtension/v1">
            <gpxtpx:hr>118</gpxtpx:hr>
          </gpxtpx:TrackPointExtension>
        </extensions>
      </trkpt>
      <trkpt lat="50.69567" lon="5.092">
        <ele>98.800003051758</ele>
        <time>2019-10-02T10:24:28.000Z</time>
        <extensions>
          <gpxtpx:TrackPointExtension xmlns:gpxtpx="http://www.garmin.com/xmlschemas/TrackPointExtension/v1">
            <gpxtpx:hr>117</gpxtpx:hr>
          </gpxtpx:TrackPointExtension>
        </extensions>
      </trkpt>
      <trkpt lat="50.69557" lon="5.09189">
        <ele>115.8</ele>
        <time>2019-10-02T10:24:33.000Z</time>
      </trkpt>
      <trkpt lat="50.69542" lon="5.09173">
        <ele>116.3</ele>
        <time>2019-10-02T10:24:37.000Z</time>
      </trkpt>
      <trkpt lat="50.69533" lon="5.09159">
        <ele>116.9</ele>
        <time>2019-10-02T10:24:43.000Z</time>
      </trkpt>
      <trkpt lat="50.69519" lon="5.09144">
        <ele>117.2</ele>
        <time>2019-10-02T10:24:44.000Z</time>
      </trkpt>
      <trkpt lat="50.69505" lon="5.0914">
        <ele>117</ele>
        <time>2019-10-02T10:24:47.000Z</time>
      </trkpt>
      <trkpt lat="50.69492" lon="5.09138">
        <ele>119.2</ele>
        <time>2019-10-02T10:24:50.000Z</time>
      </trkpt>
      <trkpt lat="50.69473" lon="5.09138">
        <ele>119.4</ele>
        <time>2019-10-02T10:24:56.000Z</time>
      </trkpt>
      <trkpt lat="50.69449" lon="5.09143">
        <ele>119.6</ele>
        <time>2019-10-02T10:24:59.000Z</time>
      </trkpt>
      <trkpt lat="50.69434" lon="5.09147">
        <ele>119.7</ele>
        <time>2019-10-02T10:25:07.000Z</time>
      </trkpt>
      <trkpt lat="50.69419" lon="5.09156">
        <ele>99.800003051758</ele>
        <time>2019-10-02T10:25:13.000Z</time>
        <extensions>
          <gpxtpx:TrackPointExtension xmlns:gpxtpx="http://www.garmin.com/xmlschemas/TrackPointExtension/v1">
            <gpxtpx:hr>126</gpxtpx:hr>
          </gpxtpx:TrackPointExtension>
        </extensions>
      </trkpt>
      <trkpt lat="50.69407" lon="5.09174">
        <ele>100</ele>
        <time>2019-10-02T10:25:16.000Z</time>
        <extensions>
          <gpxtpx:TrackPointExtension xmlns:gpxtpx="http://www.garmin.com/xmlschemas/TrackPointExtension/v1">
            <gpxtpx:hr>128</gpxtpx:hr>
          </gpxtpx:TrackPointExtension>
        </extensions>
      </trkpt>
      <trkpt lat="50.69384" lon="5.09215">
        <ele>120.7</ele>
        <time>2019-10-02T10:25:19.000Z</time>
      </trkpt>
      <trkpt lat="50.69364" lon="5.09249">
        <ele>120.9</ele>
        <time>2019-10-02T10:25:22.000Z</time>
      </trkpt>
      <trkpt lat="50.69352" lon="5.09274">
        <ele>121.6</ele>
        <time>2019-10-02T10:25:26.000Z</time>
      </trkpt>
      <trkpt lat="50.69334" lon="5.09303">
        <ele>122.1</ele>
        <time>2019-10-02T10:25:33.000Z</time>
      </trkpt>
      <trkpt lat="50.69323" lon="5.09318">
        <ele>122.5</ele>
        <time>2019-10-02T10:25:36.000Z</time>
      </trkpt>
      <trkpt lat="50.69303" lon="5.09346">
        <ele>123.2</ele>
        <time>2019-10-02T10:25:37.000Z</time>
      </trkpt>
      <trkpt lat="50.69248" lon="5.09432">
        <ele>123.3</ele>
        <time>2019-10-02T10:25:39.000Z</time>
      </trkpt>
      <trkpt lat="50.69241" lon="5.09445">
        <ele>123.5</ele>
        <time>2019-10-02T10:25:43.000Z</time>
      </trkpt>
      <trkpt lat="50.69254" lon="5.09472">
        <ele>123</ele>
        <time>2019-10-02T10:25:48.000Z</time>
      </trkpt>
      <trkpt lat="50.69273" lon="5.09515">
        <ele>123.6</ele>
        <time>2019-10-02T10:25:51.000Z</time>
      </trkpt>
      <trkpt lat="50.69289" lon="5.09553">
        <ele>123.8</ele>
        <time>2019-10-02T10:25:59.000Z</time>
      </trkpt>
      <trkpt lat="50.69297" lon="5.0959">
        <ele>124.2</ele>
        <time>2019-10-02T10:26:00.000Z</time>
      </trkpt>
      <trkpt lat="50.693" lon="5.09621">
        <ele>124.4</ele>
        <time>2019-10-02T10:26:06.000Z</time>
      </trkpt>
      <trkpt lat="50.69302" lon="5.0965">
        <ele>124.5</ele>
        <time>2019-10-02T10:26:11.000Z</time>
      </trkpt>
      <trkpt lat="50.69304" lon="5.09682">
        <ele>125</ele>
        <time>2019-10-02T10:26:12.000Z</time>
      </trkpt>
      <trkpt lat="50.69305" lon="5.0973">
        <ele>125.2</ele>
        <time>2019-10-02T10:26:18.000Z</time>
      </trkpt>
      <trkpt lat="50.69294" lon="5.09781">
        <ele>125.7</ele>
        <time>2019-10-02T10:26:23.000Z</time>
      </trkpt>
      <trkpt lat="50.69277" lon="5.09863">
        <ele>126.4</ele>
        <time>2019-10-02T10:26:25.000Z</time>
      </trkpt>
      <trkpt lat="50.69269" lon="5.09908">
        <ele>110</ele>
        <time>2019-10-02T10:26:31.000Z</time>
        <extensions>
          <gpxtpx:TrackPointExtension xmlns:gpxtpx="http://www.garmin.com/xmlschemas/TrackPointExtension/v1">
            <gpxtpx:hr>147</gpxtpx:hr>
          </gpxtpx:TrackPointExtension>
        </extensions>
      </trkpt>
      <trkpt lat="50.69255" lon="5.09978">
        <ele>111</ele>
        <time>2019-10-02T10:26:34.000Z</time>
        <extensions>
          <gpxtpx:TrackPointExtension xmlns:gpxtpx="http://www.garmin.com/xmlschemas/TrackPointExtension/v1">
            <gpxtpx:hr>146</gpxtpx:hr>
          </gpxtpx:TrackPointExtension>
        </extensions>
      </trkpt>
      <trkpt lat="50.69251" lon="5.09998">
        <ele>111.19999694824</ele>
        <time>2019-10-02T10:26:38.000Z</time>
        <extensions>
          <gpxtpx:TrackPointExtension xmlns:gpxtpx="http://www.garmin.com/xmlschemas/TrackPointExtension/v1">
            <gpxtpx:hr>146</gpxtpx:hr>
          </gpxtpx:TrackPointExtension>
        </extensions>
      </trkpt>
      <trkpt lat="50.69234" lon="5.10084">
        <ele>111.19999694824</ele>
        <time>2019-10-02T10:26:45.000Z</time>
        <extensions>
          <gpxtpx:TrackPointExtension xmlns:gpxtpx="http://www.garmin.com/xmlschemas/TrackPointExtension/v1">
            <gpxtpx:hr>144</gpxtpx:hr>
          </gpxtpx:TrackPointExtension>
        </extensions>
      </trkpt>
      <trkpt lat="50.69232" lon="5.10095">
        <ele>111.19999694824</ele>
        <time>2019-10-02T10:26:54.000Z</time>
        <extensions>
          <gpxtpx:TrackPointExtension xmlns:gpxtpx="http://www.garmin.com/xmlschemas/TrackPointExtension/v1">
            <gpxtpx:hr>144</gpxtpx:hr>
          </gpxtpx:TrackPointExtension>
        </extensions>
      </trkpt>
      <trkpt lat="50.69218" lon="5.10162">
        <ele>110.80000305176</ele>
        <time>2019-10-02T10:27:01.000Z</time>
        <extensions>
          <gpxtpx:TrackPointExtension xmlns:gpxtpx="http://www.garmin.com/xmlschemas/TrackPointExtension/v1">
            <gpxtpx:hr>141</gpxtpx:hr>
          </gpxtpx:TrackPointExtension>
        </extensions>
      </trkpt>
      <trkpt lat="50.69209" lon="5.10208">
        <ele>110.40000152588</ele>
        <time>2019-10-02T10:27:05.000Z</time>
        <extensions>
          <gpxtpx:TrackPointExtension xmlns:gpxtpx="http://www.garmin.com/xmlschemas/TrackPointExtension/v1">
            <gpxtpx:hr>140</gpxtpx:hr>
          </gpxtpx:TrackPointExtension>
        </extensions>
      </trkpt>
      <trkpt lat="50.692" lon="5.10254">
        <ele>109.59999847412</ele>
        <time>2019-10-02T10:27:11.000Z</time>
        <extensions>
          <gpxtpx:TrackPointExtension xmlns:gpxtpx="http://www.garmin.com/xmlschemas/TrackPointExtension/v1">
            <gpxtpx:hr>137</gpxtpx:hr>
          </gpxtpx:TrackPointExtension>
        </extensions>
      </trkpt>
      <trkpt lat="50.6919" lon="5.10302">
        <ele>109.19999694824</ele>
        <time>2019-10-02T10:27:16.000Z</time>
        <extensions>
          <gpxtpx:TrackPointExtension xmlns:gpxtpx="http://www.garmin.com/xmlschemas/TrackPointExtension/v1">
            <gpxtpx:hr>135</gpxtpx:hr>
          </gpxtpx:TrackPointExtension>
        </extensions>
      </trkpt>
      <trkpt lat="50.69182" lon="5.10338">
        <ele>108.80000305176</ele>
        <time>2019-10-02T10:27:26.000Z</time>
        <extensions>
          <gpxtpx:TrackPointExtension xmlns:gpxtpx="http://www.garmin.com/xmlschemas/TrackPointExtension/v1">
            <gpxtpx:hr>132</gpxtpx:hr>
          </gpxtpx:TrackPointExtension>
        </extensions>
      </trkpt>
      <trkpt lat="50.69175" lon="5.10361">
        <ele>108.59999847412</ele>
        <time>2019-10-02T10:27:28.000Z</time>
        <extensions>
          <gpxtpx:TrackPointExtension xmlns:gpxtpx="http://www.garmin.com/xmlschemas/TrackPointExtension/v1">
            <gpxtpx:hr>130</gpxtpx:hr>
          </gpxtpx:TrackPointExtension>
        </extensions>
      </trkpt>
      <trkpt lat="50.69168" lon="5.10385">
        <ele>108.40000152588</ele>
        <time>2019-10-02T10:27:31.000Z</time>
        <extensions>
          <gpxtpx:TrackPointExtension xmlns:gpxtpx="http://www.garmin.com/xmlschemas/TrackPointExtension/v1">
            <gpxtpx:hr>129</gpxtpx:hr>
          </gpxtpx:TrackPointExtension>
        </extensions>
      </trkpt>
      <trkpt lat="50.69152" lon="5.10422">
        <ele>122</ele>
        <time>2019-10-02T10:27:38.000Z</time>
      </trkpt>
      <trkpt lat="50.69133" lon="5.10462">
        <ele>121.9</ele>
        <time>2019-10-02T10:27:43.000Z</time>
      </trkpt>
      <trkpt lat="50.69106" lon="5.10513">
        <ele>107</ele>
        <time>2019-10-02T10:27:44.000Z</time>
        <extensions>
          <gpxtpx:TrackPointExtension xmlns:gpxtpx="http://www.garmin.com/xmlschemas/TrackPointExtension/v1">
            <gpxtpx:hr>121</gpxtpx:hr>
          </gpxtpx:TrackPointExtension>
        </extensions>
      </trkpt>
      <trkpt lat="50.69064" lon="5.10584">
        <ele>106.59999847412</ele>
        <time>2019-10-02T10:27:52.000Z</time>
        <extensions>
          <gpxtpx:TrackPointExtension xmlns:gpxtpx="http://www.garmin.com/xmlschemas/TrackPointExtension/v1">
            <gpxtpx:hr>119</gpxtpx:hr>
          </gpxtpx:TrackPointExtension>
        </extensions>
      </trkpt>
      <trkpt lat="50.69059" lon="5.10593">
        <ele>106.59999847412</ele>
        <time>2019-10-02T10:28:02.000Z</time>
        <extensions>
          <gpxtpx:TrackPointExtension xmlns:gpxtpx="http://www.garmin.com/xmlschemas/TrackPointExtension/v1">
            <gpxtpx:hr>119</gpxtpx:hr>
          </gpxtpx:TrackPointExtension>
        </extensions>
      </trkpt>
      <trkpt lat="50.69031" lon="5.10638">
        <ele>122</ele>
        <time>2019-10-02T10:28:03.000Z</time>
      </trkpt>
      <trkpt lat="50.6902" lon="5.10666">
        <ele>106.59999847412</ele>
        <time>2019-10-02T10:28:09.000Z</time>
        <extensions>
          <gpxtpx:TrackPointExtension xmlns:gpxtpx="http://www.garmin.com/xmlschemas/TrackPointExtension/v1">
            <gpxtpx:hr>121</gpxtpx:hr>
          </gpxtpx:TrackPointExtension>
        </extensions>
      </trkpt>
      <trkpt lat="50.69012" lon="5.10691">
        <ele>122</ele>
        <time>2019-10-02T10:28:12.000Z</time>
      </trkpt>
      <trkpt lat="50.69007" lon="5.10721">
        <ele>107</ele>
        <time>2019-10-02T10:28:21.000Z</time>
        <extensions>
          <gpxtpx:TrackPointExtension xmlns:gpxtpx="http://www.garmin.com/xmlschemas/TrackPointExtension/v1">
            <gpxtpx:hr>124</gpxtpx:hr>
          </gpxtpx:TrackPointExtension>
        </extensions>
      </trkpt>
      <trkpt lat="50.68999" lon="5.10766">
        <ele>107.40000152588</ele>
        <time>2019-10-02T10:28:30.000Z</time>
        <extensions>
          <gpxtpx:TrackPointExtension xmlns:gpxtpx="http://www.garmin.com/xmlschemas/TrackPointExtension/v1">
            <gpxtpx:hr>127</gpxtpx:hr>
          </gpxtpx:TrackPointExtension>
        </extensions>
      </trkpt>
      <trkpt lat="50.6899" lon="5.10824">
        <ele>107.40000152588</ele>
        <time>2019-10-02T10:28:31.000Z</time>
        <extensions>
          <gpxtpx:TrackPointExtension xmlns:gpxtpx="http://www.garmin.com/xmlschemas/TrackPointExtension/v1">
            <gpxtpx:hr>130</gpxtpx:hr>
          </gpxtpx:TrackPointExtension>
        </extensions>
      </trkpt>
      <trkpt lat="50.68988" lon="5.10836">
        <ele>107.40000152588</ele>
        <time>2019-10-02T10:28:32.000Z</time>
        <extensions>
          <gpxtpx:TrackPointExtension xmlns:gpxtpx="http://www.garmin.com/xmlschemas/TrackPointExtension/v1">
            <gpxtpx:hr>130</gpxtpx:hr>
          </gpxtpx:TrackPointExtension>
        </extensions>
      </trkpt>
      <trkpt lat="50.68982" lon="5.10882">
        <ele>107.59999847412</ele>
        <time>2019-10-02T10:28:38.000Z</time>
        <extensions>
          <gpxtpx:TrackPointExtension xmlns:gpxtpx="http://www.garmin.com/xmlschemas/TrackPointExtension/v1">
            <gpxtpx:hr>133</gpxtpx:hr>
          </gpxtpx:TrackPointExtension>
        </extensions>
      </trkpt>
      <trkpt lat="50.68977" lon="5.10927">
        <ele>108</ele>
        <time>2019-10-02T10:28:43.000Z</time>
        <extensions>
          <gpxtpx:TrackPointExtension xmlns:gpxtpx="http://www.garmin.com/xmlschemas/TrackPointExtension/v1">
            <gpxtpx:hr>136</gpxtpx:hr>
          </gpxtpx:TrackPointExtension>
        </extensions>
      </trkpt>
      <trkpt lat="50.68975" lon="5.10949">
        <ele>108.40000152588</ele>
        <time>2019-10-02T10:28:48.000Z</time>
        <extensions>
          <gpxtpx:TrackPointExtension xmlns:gpxtpx="http://www.garmin.com/xmlschemas/TrackPointExtension/v1">
            <gpxtpx:hr>138</gpxtpx:hr>
          </gpxtpx:TrackPointExtension>
        </extensions>
      </trkpt>
      <trkpt lat="50.68968" lon="5.11013">
        <ele>127.3</ele>
        <time>2019-10-02T10:28:49.000Z</time>
      </trkpt>
      <trkpt lat="50.68965" lon="5.11049">
        <ele>127.6</ele>
        <time>2019-10-02T10:28:58.000Z</time>
      </trkpt>
      <trkpt lat="50.68959" lon="5.111">
        <ele>129.2</ele>
        <time>2019-10-02T10:29:05.000Z</time>
      </trkpt>
      <trkpt lat="50.68954" lon="5.11155">
        <ele>129.8</ele>
        <time>2019-10-02T10:29:12.000Z</time>
      </trkpt>
      <trkpt lat="50.68948" lon="5.11211">
        <ele>131.1</ele>
        <time>2019-10-02T10:29:20.000Z</time>
      </trkpt>
      <trkpt lat="50.6894" lon="5.11296">
        <ele>132.1</ele>
        <time>2019-10-02T10:29:29.000Z</time>
      </trkpt>
      <trkpt lat="50.68931" lon="5.11383">
        <ele>133.2</ele>
        <time>2019-10-02T10:29:32.000Z</time>
      </trkpt>
      <trkpt lat="50.68929" lon="5.11412">
        <ele>116</ele>
        <time>2019-10-02T10:29:34.000Z</time>
        <extensions>
          <gpxtpx:TrackPointExtension xmlns:gpxtpx="http://www.garmin.com/xmlschemas/TrackPointExtension/v1">
            <gpxtpx:hr>155</gpxtpx:hr>
          </gpxtpx:TrackPointExtension>
        </extensions>
      </trkpt>
      <trkpt lat="50.6892" lon="5.11464">
        <ele>117.19999694824</ele>
        <time>2019-10-02T10:29:40.000Z</time>
        <extensions>
          <gpxtpx:TrackPointExtension xmlns:gpxtpx="http://www.garmin.com/xmlschemas/TrackPointExtension/v1">
            <gpxtpx:hr>156</gpxtpx:hr>
          </gpxtpx:TrackPointExtension>
        </extensions>
      </trkpt>
      <trkpt lat="50.68919" lon="5.11474">
        <ele>117.59999847412</ele>
        <time>2019-10-02T10:29:47.000Z</time>
        <extensions>
          <gpxtpx:TrackPointExtension xmlns:gpxtpx="http://www.garmin.com/xmlschemas/TrackPointExtension/v1">
            <gpxtpx:hr>157</gpxtpx:hr>
          </gpxtpx:TrackPointExtension>
        </extensions>
      </trkpt>
      <trkpt lat="50.68917" lon="5.11484">
        <ele>117.59999847412</ele>
        <time>2019-10-02T10:29:50.000Z</time>
        <extensions>
          <gpxtpx:TrackPointExtension xmlns:gpxtpx="http://www.garmin.com/xmlschemas/TrackPointExtension/v1">
            <gpxtpx:hr>157</gpxtpx:hr>
          </gpxtpx:TrackPointExtension>
        </extensions>
      </trkpt>
      <trkpt lat="50.68911" lon="5.11513">
        <ele>118.40000152588</ele>
        <time>2019-10-02T10:29:52.000Z</time>
        <extensions>
          <gpxtpx:TrackPointExtension xmlns:gpxtpx="http://www.garmin.com/xmlschemas/TrackPointExtension/v1">
            <gpxtpx:hr>156</gpxtpx:hr>
          </gpxtpx:TrackPointExtension>
        </extensions>
      </trkpt>
      <trkpt lat="50.68902" lon="5.11561">
        <ele>118.80000305176</ele>
        <time>2019-10-02T10:29:57.000Z</time>
        <extensions>
          <gpxtpx:TrackPointExtension xmlns:gpxtpx="http://www.garmin.com/xmlschemas/TrackPointExtension/v1">
            <gpxtpx:hr>155</gpxtpx:hr>
          </gpxtpx:TrackPointExtension>
        </extensions>
      </trkpt>
      <trkpt lat="50.68889" lon="5.11635">
        <ele>118.59999847412</ele>
        <time>2019-10-02T10:30:04.000Z</time>
        <extensions>
          <gpxtpx:TrackPointExtension xmlns:gpxtpx="http://www.garmin.com/xmlschemas/TrackPointExtension/v1">
            <gpxtpx:hr>153</gpxtpx:hr>
          </gpxtpx:TrackPointExtension>
        </extensions>
      </trkpt>
      <trkpt lat="50.68875" lon="5.11721">
        <ele>117.59999847412</ele>
        <time>2019-10-02T10:30:09.000Z</time>
        <extensions>
          <gpxtpx:TrackPointExtension xmlns:gpxtpx="http://www.garmin.com/xmlschemas/TrackPointExtension/v1">
            <gpxtpx:hr>151</gpxtpx:hr>
          </gpxtpx:TrackPointExtension>
        </extensions>
      </trkpt>
      <trkpt lat="50.68873" lon="5.11735">
        <ele>117.59999847412</ele>
        <time>2019-10-02T10:30:10.000Z</time>
        <extensions>
          <gpxtpx:TrackPointExtension xmlns:gpxtpx="http://www.garmin.com/xmlschemas/TrackPointExtension/v1">
            <gpxtpx:hr>151</gpxtpx:hr>
          </gpxtpx:TrackPointExtension>
        </extensions>
      </trkpt>
      <trkpt lat="50.68871" lon="5.11748">
        <ele>117.40000152588</ele>
        <time>2019-10-02T10:30:12.000Z</time>
        <extensions>
          <gpxtpx:TrackPointExtension xmlns:gpxtpx="http://www.garmin.com/xmlschemas/TrackPointExtension/v1">
            <gpxtpx:hr>150</gpxtpx:hr>
          </gpxtpx:TrackPointExtension>
        </extensions>
      </trkpt>
      <trkpt lat="50.68857" lon="5.11824">
        <ele>129.8</ele>
        <time>2019-10-02T10:30:13.000Z</time>
      </trkpt>
      <trkpt lat="50.6885" lon="5.1186">
        <ele>115.19999694824</ele>
        <time>2019-10-02T10:30:15.000Z</time>
        <extensions>
          <gpxtpx:TrackPointExtension xmlns:gpxtpx="http://www.garmin.com/xmlschemas/TrackPointExtension/v1">
            <gpxtpx:hr>145</gpxtpx:hr>
          </gpxtpx:TrackPointExtension>
        </extensions>
      </trkpt>
      <trkpt lat="50.68842" lon="5.11896">
        <ele>114.59999847412</ele>
        <time>2019-10-02T10:30:17.000Z</time>
        <extensions>
          <gpxtpx:TrackPointExtension xmlns:gpxtpx="http://www.garmin.com/xmlschemas/TrackPointExtension/v1">
            <gpxtpx:hr>142</gpxtpx:hr>
          </gpxtpx:TrackPointExtension>
        </extensions>
      </trkpt>
      <trkpt lat="50.68833" lon="5.11932">
        <ele>114</ele>
        <time>2019-10-02T10:30:18.000Z</time>
        <extensions>
          <gpxtpx:TrackPointExtension xmlns:gpxtpx="http://www.garmin.com/xmlschemas/TrackPointExtension/v1">
            <gpxtpx:hr>140</gpxtpx:hr>
          </gpxtpx:TrackPointExtension>
        </extensions>
      </trkpt>
      <trkpt lat="50.68819" lon="5.11993">
        <ele>112.80000305176</ele>
        <time>2019-10-02T10:30:19.000Z</time>
        <extensions>
          <gpxtpx:TrackPointExtension xmlns:gpxtpx="http://www.garmin.com/xmlschemas/TrackPointExtension/v1">
            <gpxtpx:hr>136</gpxtpx:hr>
          </gpxtpx:TrackPointExtension>
        </extensions>
      </trkpt>
      <trkpt lat="50.68804" lon="5.12058">
        <ele>112</ele>
        <time>2019-10-02T10:30:21.000Z</time>
        <extensions>
          <gpxtpx:TrackPointExtension xmlns:gpxtpx="http://www.garmin.com/xmlschemas/TrackPointExtension/v1">
            <gpxtpx:hr>134</gpxtpx:hr>
          </gpxtpx:TrackPointExtension>
        </extensions>
      </trkpt>
      <trkpt lat="50.68796" lon="5.12096">
        <ele>111.80000305176</ele>
        <time>2019-10-02T10:30:22.000Z</time>
        <extensions>
          <gpxtpx:TrackPointExtension xmlns:gpxtpx="http://www.garmin.com/xmlschemas/TrackPointExtension/v1">
            <gpxtpx:hr>131</gpxtpx:hr>
          </gpxtpx:TrackPointExtension>
        </extensions>
      </trkpt>
      <trkpt lat="50.6879" lon="5.12121">
        <ele>111.59999847412</ele>
        <time>2019-10-02T10:30:24.000Z</time>
        <extensions>
          <gpxtpx:TrackPointExtension xmlns:gpxtpx="http://www.garmin.com/xmlschemas/TrackPointExtension/v1">
            <gpxtpx:hr>128</gpxtpx:hr>
          </gpxtpx:TrackPointExtension>
        </extensions>
      </trkpt>
      <trkpt lat="50.68785" lon="5.1214">
        <ele>128</ele>
        <time>2019-10-02T10:30:26.000Z</time>
      </trkpt>
      <trkpt lat="50.68778" lon="5.12168">
        <ele>128.4</ele>
        <time>2019-10-02T10:30:27.000Z</time>
      </trkpt>
      <trkpt lat="50.6877" lon="5.12205">
        <ele>128.8</ele>
        <time>2019-10-02T10:30:30.000Z</time>
      </trkpt>
      <trkpt lat="50.68755" lon="5.12268">
        <ele>130.1</ele>
        <time>2019-10-02T10:30:31.000Z</time>
      </trkpt>
      <trkpt lat="50.68746" lon="5.12309">
        <ele>130.5</ele>
        <time>2019-10-02T10:30:33.000Z</time>
      </trkpt>
      <trkpt lat="50.68738" lon="5.12346">
        <ele>110.80000305176</ele>
        <time>2019-10-02T10:30:36.000Z</time>
        <extensions>
          <gpxtpx:TrackPointExtension xmlns:gpxtpx="http://www.garmin.com/xmlschemas/TrackPointExtension/v1">
            <gpxtpx:hr>131</gpxtpx:hr>
          </gpxtpx:TrackPointExtension>
        </extensions>
      </trkpt>
      <trkpt lat="50.68735" lon="5.12356">
        <ele>110.80000305176</ele>
        <time>2019-10-02T10:30:39.000Z</time>
        <extensions>
          <gpxtpx:TrackPointExtension xmlns:gpxtpx="http://www.garmin.com/xmlschemas/TrackPointExtension/v1">
            <gpxtpx:hr>132</gpxtpx:hr>
          </gpxtpx:TrackPointExtension>
        </extensions>
      </trkpt>
      <trkpt lat="50.68728" lon="5.12374">
        <ele>111.19999694824</ele>
        <time>2019-10-02T10:30:40.000Z</time>
        <extensions>
          <gpxtpx:TrackPointExtension xmlns:gpxtpx="http://www.garmin.com/xmlschemas/TrackPointExtension/v1">
            <gpxtpx:hr>135</gpxtpx:hr>
          </gpxtpx:TrackPointExtension>
        </extensions>
      </trkpt>
      <trkpt lat="50.68719" lon="5.12402">
        <ele>111.59999847412</ele>
        <time>2019-10-02T10:30:41.000Z</time>
        <extensions>
          <gpxtpx:TrackPointExtension xmlns:gpxtpx="http://www.garmin.com/xmlschemas/TrackPointExtension/v1">
            <gpxtpx:hr>138</gpxtpx:hr>
          </gpxtpx:TrackPointExtension>
        </extensions>
      </trkpt>
      <trkpt lat="50.68707" lon="5.12435">
        <ele>112.40000152588</ele>
        <time>2019-10-02T10:30:43.000Z</time>
        <extensions>
          <gpxtpx:TrackPointExtension xmlns:gpxtpx="http://www.garmin.com/xmlschemas/TrackPointExtension/v1">
            <gpxtpx:hr>141</gpxtpx:hr>
          </gpxtpx:TrackPointExtension>
        </extensions>
      </trkpt>
      <trkpt lat="50.68705" lon="5.12442">
        <ele>112.59999847412</ele>
        <time>2019-10-02T10:30:45.000Z</time>
        <extensions>
          <gpxtpx:TrackPointExtension xmlns:gpxtpx="http://www.garmin.com/xmlschemas/TrackPointExtension/v1">
            <gpxtpx:hr>142</gpxtpx:hr>
          </gpxtpx:TrackPointExtension>
        </extensions>
      </trkpt>
      <trkpt lat="50.68703" lon="5.12449">
        <ele>112.59999847412</ele>
        <time>2019-10-02T10:30:49.000Z</time>
        <extensions>
          <gpxtpx:TrackPointExtension xmlns:gpxtpx="http://www.garmin.com/xmlschemas/TrackPointExtension/v1">
            <gpxtpx:hr>142</gpxtpx:hr>
          </gpxtpx:TrackPointExtension>
        </extensions>
      </trkpt>
      <trkpt lat="50.68693" lon="5.1247">
        <ele>114</ele>
        <time>2019-10-02T10:30:53.000Z</time>
        <extensions>
          <gpxtpx:TrackPointExtension xmlns:gpxtpx="http://www.garmin.com/xmlschemas/TrackPointExtension/v1">
            <gpxtpx:hr>143</gpxtpx:hr>
          </gpxtpx:TrackPointExtension>
        </extensions>
      </trkpt>
      <trkpt lat="50.68685" lon="5.12492">
        <ele>115</ele>
        <time>2019-10-02T10:30:55.000Z</time>
        <extensions>
          <gpxtpx:TrackPointExtension xmlns:gpxtpx="http://www.garmin.com/xmlschemas/TrackPointExtension/v1">
            <gpxtpx:hr>143</gpxtpx:hr>
          </gpxtpx:TrackPointExtension>
        </extensions>
      </trkpt>
      <trkpt lat="50.6868" lon="5.12506">
        <ele>115.59999847412</ele>
        <time>2019-10-02T10:30:59.000Z</time>
        <extensions>
          <gpxtpx:TrackPointExtension xmlns:gpxtpx="http://www.garmin.com/xmlschemas/TrackPointExtension/v1">
            <gpxtpx:hr>142</gpxtpx:hr>
          </gpxtpx:TrackPointExtension>
        </extensions>
      </trkpt>
      <trkpt lat="50.68675" lon="5.1252">
        <ele>116</ele>
        <time>2019-10-02T10:31:01.000Z</time>
        <extensions>
          <gpxtpx:TrackPointExtension xmlns:gpxtpx="http://www.garmin.com/xmlschemas/TrackPointExtension/v1">
            <gpxtpx:hr>141</gpxtpx:hr>
          </gpxtpx:TrackPointExtension>
        </extensions>
      </trkpt>
      <trkpt lat="50.68665" lon="5.12549">
        <ele>116.40000152588</ele>
        <time>2019-10-02T10:31:09.000Z</time>
        <extensions>
          <gpxtpx:TrackPointExtension xmlns:gpxtpx="http://www.garmin.com/xmlschemas/TrackPointExtension/v1">
            <gpxtpx:hr>140</gpxtpx:hr>
          </gpxtpx:TrackPointExtension>
        </extensions>
      </trkpt>
      <trkpt lat="50.6865" lon="5.12589">
        <ele>117</ele>
        <time>2019-10-02T10:31:10.000Z</time>
        <extensions>
          <gpxtpx:TrackPointExtension xmlns:gpxtpx="http://www.garmin.com/xmlschemas/TrackPointExtension/v1">
            <gpxtpx:hr>139</gpxtpx:hr>
          </gpxtpx:TrackPointExtension>
        </extensions>
      </trkpt>
      <trkpt lat="50.68643" lon="5.12611">
        <ele>117.40000152588</ele>
        <time>2019-10-02T10:31:16.000Z</time>
        <extensions>
          <gpxtpx:TrackPointExtension xmlns:gpxtpx="http://www.garmin.com/xmlschemas/TrackPointExtension/v1">
            <gpxtpx:hr>139</gpxtpx:hr>
          </gpxtpx:TrackPointExtension>
        </extensions>
      </trkpt>
      <trkpt lat="50.68629" lon="5.12649">
        <ele>118</ele>
        <time>2019-10-02T10:31:18.000Z</time>
        <extensions>
          <gpxtpx:TrackPointExtension xmlns:gpxtpx="http://www.garmin.com/xmlschemas/TrackPointExtension/v1">
            <gpxtpx:hr>139</gpxtpx:hr>
          </gpxtpx:TrackPointExtension>
        </extensions>
      </trkpt>
      <trkpt lat="50.68616" lon="5.12678">
        <ele>118.40000152588</ele>
        <time>2019-10-02T10:31:21.000Z</time>
        <extensions>
          <gpxtpx:TrackPointExtension xmlns:gpxtpx="http://www.garmin.com/xmlschemas/TrackPointExtension/v1">
            <gpxtpx:hr>140</gpxtpx:hr>
          </gpxtpx:TrackPointExtension>
        </extensions>
      </trkpt>
      <trkpt lat="50.68594" lon="5.1272">
        <ele>119.19999694824</ele>
        <time>2019-10-02T10:31:24.000Z</time>
        <extensions>
          <gpxtpx:TrackPointExtension xmlns:gpxtpx="http://www.garmin.com/xmlschemas/TrackPointExtension/v1">
            <gpxtpx:hr>141</gpxtpx:hr>
          </gpxtpx:TrackPointExtension>
        </extensions>
      </trkpt>
      <trkpt lat="50.68582" lon="5.12742">
        <ele>119.80000305176</ele>
        <time>2019-10-02T10:31:30.000Z</time>
        <extensions>
          <gpxtpx:TrackPointExtension xmlns:gpxtpx="http://www.garmin.com/xmlschemas/TrackPointExtension/v1">
            <gpxtpx:hr>142</gpxtpx:hr>
          </gpxtpx:TrackPointExtension>
        </extensions>
      </trkpt>
      <trkpt lat="50.68565" lon="5.12774">
        <ele>120.19999694824</ele>
        <time>2019-10-02T10:31:36.000Z</time>
        <extensions>
          <gpxtpx:TrackPointExtension xmlns:gpxtpx="http://www.garmin.com/xmlschemas/TrackPointExtension/v1">
            <gpxtpx:hr>142</gpxtpx:hr>
          </gpxtpx:TrackPointExtension>
        </extensions>
      </trkpt>
      <trkpt lat="50.68551" lon="5.12797">
        <ele>137.5</ele>
        <time>2019-10-02T10:31:43.000Z</time>
      </trkpt>
      <trkpt lat="50.68533" lon="5.12829">
        <ele>137</ele>
        <time>2019-10-02T10:31:46.000Z</time>
      </trkpt>
      <trkpt lat="50.68515" lon="5.12874">
        <ele>120</ele>
        <time>2019-10-02T10:31:47.000Z</time>
        <extensions>
          <gpxtpx:TrackPointExtension xmlns:gpxtpx="http://www.garmin.com/xmlschemas/TrackPointExtension/v1">
            <gpxtpx:hr>140</gpxtpx:hr>
          </gpxtpx:TrackPointExtension>
        </extensions>
      </trkpt>
      <trkpt lat="50.68502" lon="5.1293">
        <ele>119.19999694824</ele>
        <time>2019-10-02T10:32:01.000Z</time>
        <extensions>
          <gpxtpx:TrackPointExtension xmlns:gpxtpx="http://www.garmin.com/xmlschemas/TrackPointExtension/v1">
            <gpxtpx:hr>139</gpxtpx:hr>
          </gpxtpx:TrackPointExtension>
        </extensions>
      </trkpt>
      <trkpt lat="50.68495" lon="5.12977">
        <ele>118.59999847412</ele>
        <time>2019-10-02T10:32:02.000Z</time>
        <extensions>
          <gpxtpx:TrackPointExtension xmlns:gpxtpx="http://www.garmin.com/xmlschemas/TrackPointExtension/v1">
            <gpxtpx:hr>136</gpxtpx:hr>
          </gpxtpx:TrackPointExtension>
        </extensions>
      </trkpt>
      <trkpt lat="50.68487" lon="5.13025">
        <ele>118</ele>
        <time>2019-10-02T10:32:08.000Z</time>
        <extensions>
          <gpxtpx:TrackPointExtension xmlns:gpxtpx="http://www.garmin.com/xmlschemas/TrackPointExtension/v1">
            <gpxtpx:hr>133</gpxtpx:hr>
          </gpxtpx:TrackPointExtension>
        </extensions>
      </trkpt>
      <trkpt lat="50.68479" lon="5.13073">
        <ele>118</ele>
        <time>2019-10-02T10:32:11.000Z</time>
        <extensions>
          <gpxtpx:TrackPointExtension xmlns:gpxtpx="http://www.garmin.com/xmlschemas/TrackPointExtension/v1">
            <gpxtpx:hr>130</gpxtpx:hr>
          </gpxtpx:TrackPointExtension>
        </extensions>
      </trkpt>
      <trkpt lat="50.68472" lon="5.13122">
        <ele>117.59999847412</ele>
        <time>2019-10-02T10:32:17.000Z</time>
        <extensions>
          <gpxtpx:TrackPointExtension xmlns:gpxtpx="http://www.garmin.com/xmlschemas/TrackPointExtension/v1">
            <gpxtpx:hr>127</gpxtpx:hr>
          </gpxtpx:TrackPointExtension>
        </extensions>
      </trkpt>
      <trkpt lat="50.68468" lon="5.13147">
        <ele>117.40000152588</ele>
        <extensions>
          <gpxtpx:TrackPointExtension xmlns:gpxtpx="http://www.garmin.com/xmlschemas/TrackPointExtension/v1">
            <gpxtpx:hr>126</gpxtpx:hr>
          </gpxtpx:TrackPointExtension>
        </extensions>
      </trkpt>
      <trkpt lat="50.68454" lon="5.13234">
        <ele>117</ele>
        <extensions>
          <gpxtpx:TrackPointExtension xmlns:gpxtpx="http://www.garmin.com/xmlschemas/TrackPointExtension/v1">
            <gpxtpx:hr>125</gpxtpx:hr>
          </gpxtpx:TrackPointExtension>
        </extensions>
      </trkpt>
      <trkpt lat="50.6845" lon="5.13259">
        <ele>116.80000305176</ele>
        <extensions>
          <gpxtpx:TrackPointExtension xmlns:gpxtpx="http://www.garmin.com/xmlschemas/TrackPointExtension/v1">
            <gpxtpx:hr>125</gpxtpx:hr>
          </gpxtpx:TrackPointExtension>
        </extensions>
      </trkpt>
      <trkpt lat="50.68437" lon="5.13343">
        <ele>116.40000152588</ele>
        <extensions>
          <gpxtpx:TrackPointExtension xmlns:gpxtpx="http://www.garmin.com/xmlschemas/TrackPointExtension/v1">
            <gpxtpx:hr>127</gpxtpx:hr>
          </gpxtpx:TrackPointExtension>
        </extensions>
      </trkpt>
      <trkpt lat="50.68432" lon="5.13378">
        <ele>116.40000152588</ele>
        <extensions>
          <gpxtpx:TrackPointExtension xmlns:gpxtpx="http://www.garmin.com/xmlschemas/TrackPointExtension/v1">
            <gpxtpx:hr>128</gpxtpx:hr>
          </gpxtpx:TrackPointExtension>
        </extensions>
      </trkpt>
      <trkpt lat="50.68416" lon="5.13457">
        <ele>116.80000305176</ele>
        <extensions>
          <gpxtpx:TrackPointExtension xmlns:gpxtpx="http://www.garmin.com/xmlschemas/TrackPointExtension/v1">
            <gpxtpx:hr>131</gpxtpx:hr>
          </gpxtpx:TrackPointExtension>
        </extensions>
      </trkpt>
      <trkpt lat="50.68412" lon="5.13467">
        <ele>117</ele>
        <extensions>
          <gpxtpx:TrackPointExtension xmlns:gpxtpx="http://www.garmin.com/xmlschemas/TrackPointExtension/v1">
            <gpxtpx:hr>131</gpxtpx:hr>
          </gpxtpx:TrackPointExtension>
        </extensions>
      </trkpt>
      <trkpt lat="50.68398" lon="5.13508">
        <ele>117.40000152588</ele>
        <extensions>
          <gpxtpx:TrackPointExtension xmlns:gpxtpx="http://www.garmin.com/xmlschemas/TrackPointExtension/v1">
            <gpxtpx:hr>134</gpxtpx:hr>
          </gpxtpx:TrackPointExtension>
        </extensions>
      </trkpt>
      <trkpt lat="50.68376" lon="5.13567">
        <ele>118</ele>
        <extensions>
          <gpxtpx:TrackPointExtension xmlns:gpxtpx="http://www.garmin.com/xmlschemas/TrackPointExtension/v1">
            <gpxtpx:hr>137</gpxtpx:hr>
          </gpxtpx:TrackPointExtension>
        </extensions>
      </trkpt>
      <trkpt lat="50.68373" lon="5.13576">
        <ele>118</ele>
        <extensions>
          <gpxtpx:TrackPointExtension xmlns:gpxtpx="http://www.garmin.com/xmlschemas/TrackPointExtension/v1">
            <gpxtpx:hr>137</gpxtpx:hr>
          </gpxtpx:TrackPointExtension>
        </extensions>
      </trkpt>
      <trkpt lat="50.68355" lon="5.13624">
        <ele>118.80000305176</ele>
        <extensions>
          <gpxtpx:TrackPointExtension xmlns:gpxtpx="http://www.garmin.com/xmlschemas/TrackPointExtension/v1">
            <gpxtpx:hr>140</gpxtpx:hr>
          </gpxtpx:TrackPointExtension>
        </extensions>
      </trkpt>
      <trkpt lat="50.68345" lon="5.13653">
        <ele>119</ele>
        <extensions>
          <gpxtpx:TrackPointExtension xmlns:gpxtpx="http://www.garmin.com/xmlschemas/TrackPointExtension/v1">
            <gpxtpx:hr>141</gpxtpx:hr>
          </gpxtpx:TrackPointExtension>
        </extensions>
      </trkpt>
      <trkpt lat="50.68338" lon="5.13672">
        <ele>119.19999694824</ele>
        <extensions>
          <gpxtpx:TrackPointExtension xmlns:gpxtpx="http://www.garmin.com/xmlschemas/TrackPointExtension/v1">
            <gpxtpx:hr>142</gpxtpx:hr>
          </gpxtpx:TrackPointExtension>
        </extensions>
      </trkpt>
      <trkpt lat="50.6832" lon="5.13719">
        <ele>120</ele>
        <extensions>
          <gpxtpx:TrackPointExtension xmlns:gpxtpx="http://www.garmin.com/xmlschemas/TrackPointExtension/v1">
            <gpxtpx:hr>144</gpxtpx:hr>
          </gpxtpx:TrackPointExtension>
        </extensions>
      </trkpt>
      <trkpt lat="50.68302" lon="5.13764">
        <ele>121</ele>
        <extensions>
          <gpxtpx:TrackPointExtension xmlns:gpxtpx="http://www.garmin.com/xmlschemas/TrackPointExtension/v1">
            <gpxtpx:hr>147</gpxtpx:hr>
          </gpxtpx:TrackPointExtension>
        </extensions>
      </trkpt>
      <trkpt lat="50.68297" lon="5.13772">
        <ele>121.19999694824</ele>
        <extensions>
          <gpxtpx:TrackPointExtension xmlns:gpxtpx="http://www.garmin.com/xmlschemas/TrackPointExtension/v1">
            <gpxtpx:hr>147</gpxtpx:hr>
          </gpxtpx:TrackPointExtension>
        </extensions>
      </trkpt>
      <trkpt lat="50.68281" lon="5.13805">
        <ele>122.19999694824</ele>
        <extensions>
          <gpxtpx:TrackPointExtension xmlns:gpxtpx="http://www.garmin.com/xmlschemas/TrackPointExtension/v1">
            <gpxtpx:hr>149</gpxtpx:hr>
          </gpxtpx:TrackPointExtension>
        </extensions>
      </trkpt>
      <trkpt lat="50.68266" lon="5.13837">
        <ele>123.40000152588</ele>
        <extensions>
          <gpxtpx:TrackPointExtension xmlns:gpxtpx="http://www.garmin.com/xmlschemas/TrackPointExtension/v1">
            <gpxtpx:hr>150</gpxtpx:hr>
          </gpxtpx:TrackPointExtension>
        </extensions>
      </trkpt>
      <trkpt lat="50.68259" lon="5.13852">
        <ele>124</ele>
        <extensions>
          <gpxtpx:TrackPointExtension xmlns:gpxtpx="http://www.garmin.com/xmlschemas/TrackPointExtension/v1">
            <gpxtpx:hr>151</gpxtpx:hr>
          </gpxtpx:TrackPointExtension>
        </extensions>
      </trkpt>
      <trkpt lat="50.68254" lon="5.13867">
        <ele>142.2</ele>
      </trkpt>
      <trkpt lat="50.68263" lon="5.1388">
        <ele>142.1</ele>
      </trkpt>
      <trkpt lat="50.68275" lon="5.139">
        <ele>126.59999847412</ele>
        <extensions>
          <gpxtpx:TrackPointExtension xmlns:gpxtpx="http://www.garmin.com/xmlschemas/TrackPointExtension/v1">
            <gpxtpx:hr>151</gpxtpx:hr>
          </gpxtpx:TrackPointExtension>
        </extensions>
      </trkpt>
      <trkpt lat="50.683" lon="5.13934">
        <ele>126.59999847412</ele>
        <extensions>
          <gpxtpx:TrackPointExtension xmlns:gpxtpx="http://www.garmin.com/xmlschemas/TrackPointExtension/v1">
            <gpxtpx:hr>149</gpxtpx:hr>
          </gpxtpx:TrackPointExtension>
        </extensions>
      </trkpt>
      <trkpt lat="50.68336" lon="5.13985">
        <ele>127</ele>
        <extensions>
          <gpxtpx:TrackPointExtension xmlns:gpxtpx="http://www.garmin.com/xmlschemas/TrackPointExtension/v1">
            <gpxtpx:hr>149</gpxtpx:hr>
          </gpxtpx:TrackPointExtension>
        </extensions>
      </trkpt>
      <trkpt lat="50.68377" lon="5.14041">
        <ele>127.40000152588</ele>
        <extensions>
          <gpxtpx:TrackPointExtension xmlns:gpxtpx="http://www.garmin.com/xmlschemas/TrackPointExtension/v1">
            <gpxtpx:hr>148</gpxtpx:hr>
          </gpxtpx:TrackPointExtension>
        </extensions>
      </trkpt>
      <trkpt lat="50.68388" lon="5.14056">
        <ele>127.19999694824</ele>
        <extensions>
          <gpxtpx:TrackPointExtension xmlns:gpxtpx="http://www.garmin.com/xmlschemas/TrackPointExtension/v1">
            <gpxtpx:hr>148</gpxtpx:hr>
          </gpxtpx:TrackPointExtension>
        </extensions>
      </trkpt>
      <trkpt lat="50.6843" lon="5.14117">
        <ele>127.19999694824</ele>
        <extensions>
          <gpxtpx:TrackPointExtension xmlns:gpxtpx="http://www.garmin.com/xmlschemas/TrackPointExtension/v1">
            <gpxtpx:hr>148</gpxtpx:hr>
          </gpxtpx:TrackPointExtension>
        </extensions>
      </trkpt>
      <trkpt lat="50.68447" lon="5.1414">
        <ele>127</ele>
        <extensions>
          <gpxtpx:TrackPointExtension xmlns:gpxtpx="http://www.garmin.com/xmlschemas/TrackPointExtension/v1">
            <gpxtpx:hr>148</gpxtpx:hr>
          </gpxtpx:TrackPointExtension>
        </extensions>
      </trkpt>
      <trkpt lat="50.68492" lon="5.14203">
        <ele>126.59999847412</ele>
        <extensions>
          <gpxtpx:TrackPointExtension xmlns:gpxtpx="http://www.garmin.com/xmlschemas/TrackPointExtension/v1">
            <gpxtpx:hr>148</gpxtpx:hr>
          </gpxtpx:TrackPointExtension>
        </extensions>
      </trkpt>
      <trkpt lat="50.68537" lon="5.14266">
        <ele>126.40000152588</ele>
        <extensions>
          <gpxtpx:TrackPointExtension xmlns:gpxtpx="http://www.garmin.com/xmlschemas/TrackPointExtension/v1">
            <gpxtpx:hr>148</gpxtpx:hr>
          </gpxtpx:TrackPointExtension>
        </extensions>
      </trkpt>
      <trkpt lat="50.68543" lon="5.14274">
        <ele>126.19999694824</ele>
        <extensions>
          <gpxtpx:TrackPointExtension xmlns:gpxtpx="http://www.garmin.com/xmlschemas/TrackPointExtension/v1">
            <gpxtpx:hr>148</gpxtpx:hr>
          </gpxtpx:TrackPointExtension>
        </extensions>
      </trkpt>
      <trkpt lat="50.68585" lon="5.14334">
        <ele>126.19999694824</ele>
        <extensions>
          <gpxtpx:TrackPointExtension xmlns:gpxtpx="http://www.garmin.com/xmlschemas/TrackPointExtension/v1">
            <gpxtpx:hr>148</gpxtpx:hr>
          </gpxtpx:TrackPointExtension>
        </extensions>
      </trkpt>
      <trkpt lat="50.68627" lon="5.14392">
        <ele>126.59999847412</ele>
        <extensions>
          <gpxtpx:TrackPointExtension xmlns:gpxtpx="http://www.garmin.com/xmlschemas/TrackPointExtension/v1">
            <gpxtpx:hr>149</gpxtpx:hr>
          </gpxtpx:TrackPointExtension>
        </extensions>
      </trkpt>
      <trkpt lat="50.6866" lon="5.14438">
        <ele>127.59999847412</ele>
        <extensions>
          <gpxtpx:TrackPointExtension xmlns:gpxtpx="http://www.garmin.com/xmlschemas/TrackPointExtension/v1">
            <gpxtpx:hr>150</gpxtpx:hr>
          </gpxtpx:TrackPointExtension>
        </extensions>
      </trkpt>
      <trkpt lat="50.68676" lon="5.14461">
        <ele>127.80000305176</ele>
        <extensions>
          <gpxtpx:TrackPointExtension xmlns:gpxtpx="http://www.garmin.com/xmlschemas/TrackPointExtension/v1">
            <gpxtpx:hr>151</gpxtpx:hr>
          </gpxtpx:TrackPointExtension>
        </extensions>
      </trkpt>
      <trkpt lat="50.68719" lon="5.14522">
        <ele>128</ele>
        <extensions>
          <gpxtpx:TrackPointExtension xmlns:gpxtpx="http://www.garmin.com/xmlschemas/TrackPointExtension/v1">
            <gpxtpx:hr>152</gpxtpx:hr>
          </gpxtpx:TrackPointExtension>
        </extensions>
      </trkpt>
      <trkpt lat="50.6873" lon="5.14539">
        <ele>128</ele>
        <extensions>
          <gpxtpx:TrackPointExtension xmlns:gpxtpx="http://www.garmin.com/xmlschemas/TrackPointExtension/v1">
            <gpxtpx:hr>152</gpxtpx:hr>
          </gpxtpx:TrackPointExtension>
        </extensions>
      </trkpt>
      <trkpt lat="50.68772" lon="5.14607">
        <ele>127.80000305176</ele>
        <extensions>
          <gpxtpx:TrackPointExtension xmlns:gpxtpx="http://www.garmin.com/xmlschemas/TrackPointExtension/v1">
            <gpxtpx:hr>152</gpxtpx:hr>
          </gpxtpx:TrackPointExtension>
        </extensions>
      </trkpt>
      <trkpt lat="50.68794" lon="5.14651">
        <ele>141</ele>
      </trkpt>
      <trkpt lat="50.68807" lon="5.1468">
        <ele>127.19999694824</ele>
        <extensions>
          <gpxtpx:TrackPointExtension xmlns:gpxtpx="http://www.garmin.com/xmlschemas/TrackPointExtension/v1">
            <gpxtpx:hr>152</gpxtpx:hr>
          </gpxtpx:TrackPointExtension>
        </extensions>
      </trkpt>
      <trkpt lat="50.68811" lon="5.14689">
        <ele>127</ele>
        <extensions>
          <gpxtpx:TrackPointExtension xmlns:gpxtpx="http://www.garmin.com/xmlschemas/TrackPointExtension/v1">
            <gpxtpx:hr>152</gpxtpx:hr>
          </gpxtpx:TrackPointExtension>
        </extensions>
      </trkpt>
      <trkpt lat="50.68815" lon="5.14699">
        <ele>127</ele>
        <extensions>
          <gpxtpx:TrackPointExtension xmlns:gpxtpx="http://www.garmin.com/xmlschemas/TrackPointExtension/v1">
            <gpxtpx:hr>152</gpxtpx:hr>
          </gpxtpx:TrackPointExtension>
        </extensions>
      </trkpt>
      <trkpt lat="50.68849" lon="5.14775">
        <ele>126.59999847412</ele>
        <extensions>
          <gpxtpx:TrackPointExtension xmlns:gpxtpx="http://www.garmin.com/xmlschemas/TrackPointExtension/v1">
            <gpxtpx:hr>151</gpxtpx:hr>
          </gpxtpx:TrackPointExtension>
        </extensions>
      </trkpt>
      <trkpt lat="50.68853" lon="5.14785">
        <ele>126.59999847412</ele>
        <extensions>
          <gpxtpx:TrackPointExtension xmlns:gpxtpx="http://www.garmin.com/xmlschemas/TrackPointExtension/v1">
            <gpxtpx:hr>151</gpxtpx:hr>
          </gpxtpx:TrackPointExtension>
        </extensions>
      </trkpt>
      <trkpt lat="50.68887" lon="5.14864">
        <ele>126.40000152588</ele>
        <extensions>
          <gpxtpx:TrackPointExtension xmlns:gpxtpx="http://www.garmin.com/xmlschemas/TrackPointExtension/v1">
            <gpxtpx:hr>150</gpxtpx:hr>
          </gpxtpx:TrackPointExtension>
        </extensions>
      </trkpt>
      <trkpt lat="50.68891" lon="5.14873">
        <ele>126.40000152588</ele>
        <extensions>
          <gpxtpx:TrackPointExtension xmlns:gpxtpx="http://www.garmin.com/xmlschemas/TrackPointExtension/v1">
            <gpxtpx:hr>150</gpxtpx:hr>
          </gpxtpx:TrackPointExtension>
        </extensions>
      </trkpt>
      <trkpt lat="50.68926" lon="5.14952">
        <ele>126</ele>
        <extensions>
          <gpxtpx:TrackPointExtension xmlns:gpxtpx="http://www.garmin.com/xmlschemas/TrackPointExtension/v1">
            <gpxtpx:hr>149</gpxtpx:hr>
          </gpxtpx:TrackPointExtension>
        </extensions>
      </trkpt>
      <trkpt lat="50.6893" lon="5.14962">
        <ele>126</ele>
        <extensions>
          <gpxtpx:TrackPointExtension xmlns:gpxtpx="http://www.garmin.com/xmlschemas/TrackPointExtension/v1">
            <gpxtpx:hr>149</gpxtpx:hr>
          </gpxtpx:TrackPointExtension>
        </extensions>
      </trkpt>
      <trkpt lat="50.6895" lon="5.15011">
        <ele>125.59999847412</ele>
        <extensions>
          <gpxtpx:TrackPointExtension xmlns:gpxtpx="http://www.garmin.com/xmlschemas/TrackPointExtension/v1">
            <gpxtpx:hr>148</gpxtpx:hr>
          </gpxtpx:TrackPointExtension>
        </extensions>
      </trkpt>
      <trkpt lat="50.68956" lon="5.15027">
        <ele>137</ele>
      </trkpt>
      <trkpt lat="50.68952" lon="5.15055">
        <ele>125.40000152588</ele>
        <extensions>
          <gpxtpx:TrackPointExtension xmlns:gpxtpx="http://www.garmin.com/xmlschemas/TrackPointExtension/v1">
            <gpxtpx:hr>146</gpxtpx:hr>
          </gpxtpx:TrackPointExtension>
        </extensions>
      </trkpt>
      <trkpt lat="50.68947" lon="5.15089">
        <ele>125.19999694824</ele>
        <extensions>
          <gpxtpx:TrackPointExtension xmlns:gpxtpx="http://www.garmin.com/xmlschemas/TrackPointExtension/v1">
            <gpxtpx:hr>144</gpxtpx:hr>
          </gpxtpx:TrackPointExtension>
        </extensions>
      </trkpt>
      <trkpt lat="50.68943" lon="5.15112">
        <ele>125</ele>
        <extensions>
          <gpxtpx:TrackPointExtension xmlns:gpxtpx="http://www.garmin.com/xmlschemas/TrackPointExtension/v1">
            <gpxtpx:hr>144</gpxtpx:hr>
          </gpxtpx:TrackPointExtension>
        </extensions>
      </trkpt>
      <trkpt lat="50.68936" lon="5.15147">
        <ele>124.59999847412</ele>
        <extensions>
          <gpxtpx:TrackPointExtension xmlns:gpxtpx="http://www.garmin.com/xmlschemas/TrackPointExtension/v1">
            <gpxtpx:hr>143</gpxtpx:hr>
          </gpxtpx:TrackPointExtension>
        </extensions>
      </trkpt>
      <trkpt lat="50.68929" lon="5.15183">
        <ele>123.80000305176</ele>
        <extensions>
          <gpxtpx:TrackPointExtension xmlns:gpxtpx="http://www.garmin.com/xmlschemas/TrackPointExtension/v1">
            <gpxtpx:hr>140</gpxtpx:hr>
          </gpxtpx:TrackPointExtension>
        </extensions>
      </trkpt>
      <trkpt lat="50.68927" lon="5.15195">
        <ele>123.40000152588</ele>
        <extensions>
          <gpxtpx:TrackPointExtension xmlns:gpxtpx="http://www.garmin.com/xmlschemas/TrackPointExtension/v1">
            <gpxtpx:hr>139</gpxtpx:hr>
          </gpxtpx:TrackPointExtension>
        </extensions>
      </trkpt>
      <trkpt lat="50.68924" lon="5.15207">
        <ele>123</ele>
        <extensions>
          <gpxtpx:TrackPointExtension xmlns:gpxtpx="http://www.garmin.com/xmlschemas/TrackPointExtension/v1">
            <gpxtpx:hr>138</gpxtpx:hr>
          </gpxtpx:TrackPointExtension>
        </extensions>
      </trkpt>
      <trkpt lat="50.68911" lon="5.15279">
        <ele>122.59999847412</ele>
        <extensions>
          <gpxtpx:TrackPointExtension xmlns:gpxtpx="http://www.garmin.com/xmlschemas/TrackPointExtension/v1">
            <gpxtpx:hr>135</gpxtpx:hr>
          </gpxtpx:TrackPointExtension>
        </extensions>
      </trkpt>
      <trkpt lat="50.68908" lon="5.15292">
        <ele>122.19999694824</ele>
        <extensions>
          <gpxtpx:TrackPointExtension xmlns:gpxtpx="http://www.garmin.com/xmlschemas/TrackPointExtension/v1">
            <gpxtpx:hr>135</gpxtpx:hr>
          </gpxtpx:TrackPointExtension>
        </extensions>
      </trkpt>
      <trkpt lat="50.68904" lon="5.15316">
        <ele>121.40000152588</ele>
        <extensions>
          <gpxtpx:TrackPointExtension xmlns:gpxtpx="http://www.garmin.com/xmlschemas/TrackPointExtension/v1">
            <gpxtpx:hr>134</gpxtpx:hr>
          </gpxtpx:TrackPointExtension>
        </extensions>
      </trkpt>
      <trkpt lat="50.68901" lon="5.15329">
        <ele>121.19999694824</ele>
        <extensions>
          <gpxtpx:TrackPointExtension xmlns:gpxtpx="http://www.garmin.com/xmlschemas/TrackPointExtension/v1">
            <gpxtpx:hr>134</gpxtpx:hr>
          </gpxtpx:TrackPointExtension>
        </extensions>
      </trkpt>
      <trkpt lat="50.68892" lon="5.15379">
        <ele>120.80000305176</ele>
        <extensions>
          <gpxtpx:TrackPointExtension xmlns:gpxtpx="http://www.garmin.com/xmlschemas/TrackPointExtension/v1">
            <gpxtpx:hr>131</gpxtpx:hr>
          </gpxtpx:TrackPointExtension>
        </extensions>
      </trkpt>
      <trkpt lat="50.68882" lon="5.1543">
        <ele>120</ele>
        <extensions>
          <gpxtpx:TrackPointExtension xmlns:gpxtpx="http://www.garmin.com/xmlschemas/TrackPointExtension/v1">
            <gpxtpx:hr>129</gpxtpx:hr>
          </gpxtpx:TrackPointExtension>
        </extensions>
      </trkpt>
      <trkpt lat="50.68875" lon="5.15469">
        <ele>119.19999694824</ele>
        <extensions>
          <gpxtpx:TrackPointExtension xmlns:gpxtpx="http://www.garmin.com/xmlschemas/TrackPointExtension/v1">
            <gpxtpx:hr>127</gpxtpx:hr>
          </gpxtpx:TrackPointExtension>
        </extensions>
      </trkpt>
      <trkpt lat="50.68872" lon="5.15482">
        <ele>119</ele>
        <extensions>
          <gpxtpx:TrackPointExtension xmlns:gpxtpx="http://www.garmin.com/xmlschemas/TrackPointExtension/v1">
            <gpxtpx:hr>127</gpxtpx:hr>
          </gpxtpx:TrackPointExtension>
        </extensions>
      </trkpt>
      <trkpt lat="50.68855" lon="5.15575">
        <ele>118</ele>
        <extensions>
          <gpxtpx:TrackPointExtension xmlns:gpxtpx="http://www.garmin.com/xmlschemas/TrackPointExtension/v1">
            <gpxtpx:hr>125</gpxtpx:hr>
          </gpxtpx:TrackPointExtension>
        </extensions>
      </trkpt>
      <trkpt lat="50.68853" lon="5.15588">
        <ele>117.80000305176</ele>
        <extensions>
          <gpxtpx:TrackPointExtension xmlns:gpxtpx="http://www.garmin.com/xmlschemas/TrackPointExtension/v1">
            <gpxtpx:hr>124</gpxtpx:hr>
          </gpxtpx:TrackPointExtension>
        </extensions>
      </trkpt>
      <trkpt lat="50.68848" lon="5.15615">
        <ele>117.40000152588</ele>
        <extensions>
          <gpxtpx:TrackPointExtension xmlns:gpxtpx="http://www.garmin.com/xmlschemas/TrackPointExtension/v1">
            <gpxtpx:hr>124</gpxtpx:hr>
          </gpxtpx:TrackPointExtension>
        </extensions>
      </trkpt>
      <trkpt lat="50.6884" lon="5.15655">
        <ele>116.59999847412</ele>
        <extensions>
          <gpxtpx:TrackPointExtension xmlns:gpxtpx="http://www.garmin.com/xmlschemas/TrackPointExtension/v1">
            <gpxtpx:hr>122</gpxtpx:hr>
          </gpxtpx:TrackPointExtension>
        </extensions>
      </trkpt>
      <trkpt lat="50.68833" lon="5.15693">
        <ele>115.40000152588</ele>
        <extensions>
          <gpxtpx:TrackPointExtension xmlns:gpxtpx="http://www.garmin.com/xmlschemas/TrackPointExtension/v1">
            <gpxtpx:hr>121</gpxtpx:hr>
          </gpxtpx:TrackPointExtension>
        </extensions>
      </trkpt>
      <trkpt lat="50.68824" lon="5.15743">
        <ele>114.80000305176</ele>
        <extensions>
          <gpxtpx:TrackPointExtension xmlns:gpxtpx="http://www.garmin.com/xmlschemas/TrackPointExtension/v1">
            <gpxtpx:hr>121</gpxtpx:hr>
          </gpxtpx:TrackPointExtension>
        </extensions>
      </trkpt>
      <trkpt lat="50.68818" lon="5.15768">
        <ele>114.40000152588</ele>
        <extensions>
          <gpxtpx:TrackPointExtension xmlns:gpxtpx="http://www.garmin.com/xmlschemas/TrackPointExtension/v1">
            <gpxtpx:hr>121</gpxtpx:hr>
          </gpxtpx:TrackPointExtension>
        </extensions>
      </trkpt>
      <trkpt lat="50.68801" lon="5.15827">
        <ele>114.19999694824</ele>
        <extensions>
          <gpxtpx:TrackPointExtension xmlns:gpxtpx="http://www.garmin.com/xmlschemas/TrackPointExtension/v1">
            <gpxtpx:hr>121</gpxtpx:hr>
          </gpxtpx:TrackPointExtension>
        </extensions>
      </trkpt>
      <trkpt lat="50.68775" lon="5.15889">
        <ele>114.19999694824</ele>
        <extensions>
          <gpxtpx:TrackPointExtension xmlns:gpxtpx="http://www.garmin.com/xmlschemas/TrackPointExtension/v1">
            <gpxtpx:hr>124</gpxtpx:hr>
          </gpxtpx:TrackPointExtension>
        </extensions>
      </trkpt>
      <trkpt lat="50.68771" lon="5.15899">
        <ele>114.19999694824</ele>
        <extensions>
          <gpxtpx:TrackPointExtension xmlns:gpxtpx="http://www.garmin.com/xmlschemas/TrackPointExtension/v1">
            <gpxtpx:hr>124</gpxtpx:hr>
          </gpxtpx:TrackPointExtension>
        </extensions>
      </trkpt>
      <trkpt lat="50.68748" lon="5.15946">
        <ele>114.19999694824</ele>
        <extensions>
          <gpxtpx:TrackPointExtension xmlns:gpxtpx="http://www.garmin.com/xmlschemas/TrackPointExtension/v1">
            <gpxtpx:hr>127</gpxtpx:hr>
          </gpxtpx:TrackPointExtension>
        </extensions>
      </trkpt>
      <trkpt lat="50.68726" lon="5.15993">
        <ele>114.19999694824</ele>
        <extensions>
          <gpxtpx:TrackPointExtension xmlns:gpxtpx="http://www.garmin.com/xmlschemas/TrackPointExtension/v1">
            <gpxtpx:hr>129</gpxtpx:hr>
          </gpxtpx:TrackPointExtension>
        </extensions>
      </trkpt>
      <trkpt lat="50.6871" lon="5.16031">
        <ele>114.59999847412</ele>
        <extensions>
          <gpxtpx:TrackPointExtension xmlns:gpxtpx="http://www.garmin.com/xmlschemas/TrackPointExtension/v1">
            <gpxtpx:hr>132</gpxtpx:hr>
          </gpxtpx:TrackPointExtension>
        </extensions>
      </trkpt>
      <trkpt lat="50.687" lon="5.16056">
        <ele>134.1</ele>
      </trkpt>
      <trkpt lat="50.68689" lon="5.16082">
        <ele>115.59999847412</ele>
        <extensions>
          <gpxtpx:TrackPointExtension xmlns:gpxtpx="http://www.garmin.com/xmlschemas/TrackPointExtension/v1">
            <gpxtpx:hr>134</gpxtpx:hr>
          </gpxtpx:TrackPointExtension>
        </extensions>
      </trkpt>
      <trkpt lat="50.68679" lon="5.16112">
        <ele>135.3</ele>
      </trkpt>
      <trkpt lat="50.68666" lon="5.16151">
        <ele>116.80000305176</ele>
        <extensions>
          <gpxtpx:TrackPointExtension xmlns:gpxtpx="http://www.garmin.com/xmlschemas/TrackPointExtension/v1">
            <gpxtpx:hr>137</gpxtpx:hr>
          </gpxtpx:TrackPointExtension>
        </extensions>
      </trkpt>
      <trkpt lat="50.68655" lon="5.16186">
        <ele>117.59999847412</ele>
        <extensions>
          <gpxtpx:TrackPointExtension xmlns:gpxtpx="http://www.garmin.com/xmlschemas/TrackPointExtension/v1">
            <gpxtpx:hr>138</gpxtpx:hr>
          </gpxtpx:TrackPointExtension>
        </extensions>
      </trkpt>
      <trkpt lat="50.6865" lon="5.16203">
        <ele>117.80000305176</ele>
        <extensions>
          <gpxtpx:TrackPointExtension xmlns:gpxtpx="http://www.garmin.com/xmlschemas/TrackPointExtension/v1">
            <gpxtpx:hr>139</gpxtpx:hr>
          </gpxtpx:TrackPointExtension>
        </extensions>
      </trkpt>
      <trkpt lat="50.68632" lon="5.16259">
        <ele>118.80000305176</ele>
        <extensions>
          <gpxtpx:TrackPointExtension xmlns:gpxtpx="http://www.garmin.com/xmlschemas/TrackPointExtension/v1">
            <gpxtpx:hr>141</gpxtpx:hr>
          </gpxtpx:TrackPointExtension>
        </extensions>
      </trkpt>
      <trkpt lat="50.68629" lon="5.16267">
        <ele>119</ele>
        <extensions>
          <gpxtpx:TrackPointExtension xmlns:gpxtpx="http://www.garmin.com/xmlschemas/TrackPointExtension/v1">
            <gpxtpx:hr>142</gpxtpx:hr>
          </gpxtpx:TrackPointExtension>
        </extensions>
      </trkpt>
      <trkpt lat="50.68618" lon="5.16297">
        <ele>119.80000305176</ele>
        <extensions>
          <gpxtpx:TrackPointExtension xmlns:gpxtpx="http://www.garmin.com/xmlschemas/TrackPointExtension/v1">
            <gpxtpx:hr>143</gpxtpx:hr>
          </gpxtpx:TrackPointExtension>
        </extensions>
      </trkpt>
      <trkpt lat="50.68598" lon="5.16343">
        <ele>120.80000305176</ele>
        <extensions>
          <gpxtpx:TrackPointExtension xmlns:gpxtpx="http://www.garmin.com/xmlschemas/TrackPointExtension/v1">
            <gpxtpx:hr>144</gpxtpx:hr>
          </gpxtpx:TrackPointExtension>
        </extensions>
      </trkpt>
      <trkpt lat="50.6859" lon="5.16358">
        <ele>121</ele>
        <extensions>
          <gpxtpx:TrackPointExtension xmlns:gpxtpx="http://www.garmin.com/xmlschemas/TrackPointExtension/v1">
            <gpxtpx:hr>144</gpxtpx:hr>
          </gpxtpx:TrackPointExtension>
        </extensions>
      </trkpt>
      <trkpt lat="50.68574" lon="5.16381">
        <ele>121</ele>
        <extensions>
          <gpxtpx:TrackPointExtension xmlns:gpxtpx="http://www.garmin.com/xmlschemas/TrackPointExtension/v1">
            <gpxtpx:hr>145</gpxtpx:hr>
          </gpxtpx:TrackPointExtension>
        </extensions>
      </trkpt>
      <trkpt lat="50.68568" lon="5.16387">
        <ele>121</ele>
        <extensions>
          <gpxtpx:TrackPointExtension xmlns:gpxtpx="http://www.garmin.com/xmlschemas/TrackPointExtension/v1">
            <gpxtpx:hr>145</gpxtpx:hr>
          </gpxtpx:TrackPointExtension>
        </extensions>
      </trkpt>
      <trkpt lat="50.68551" lon="5.16403">
        <ele>139</ele>
      </trkpt>
      <trkpt lat="50.68534" lon="5.16412">
        <ele>120.59999847412</ele>
        <extensions>
          <gpxtpx:TrackPointExtension xmlns:gpxtpx="http://www.garmin.com/xmlschemas/TrackPointExtension/v1">
            <gpxtpx:hr>144</gpxtpx:hr>
          </gpxtpx:TrackPointExtension>
        </extensions>
      </trkpt>
      <trkpt lat="50.68512" lon="5.16425">
        <ele>119.80000305176</ele>
        <extensions>
          <gpxtpx:TrackPointExtension xmlns:gpxtpx="http://www.garmin.com/xmlschemas/TrackPointExtension/v1">
            <gpxtpx:hr>143</gpxtpx:hr>
          </gpxtpx:TrackPointExtension>
        </extensions>
      </trkpt>
      <trkpt lat="50.6847" lon="5.16452">
        <ele>119</ele>
        <extensions>
          <gpxtpx:TrackPointExtension xmlns:gpxtpx="http://www.garmin.com/xmlschemas/TrackPointExtension/v1">
            <gpxtpx:hr>141</gpxtpx:hr>
          </gpxtpx:TrackPointExtension>
        </extensions>
      </trkpt>
      <trkpt lat="50.68463" lon="5.16457">
        <ele>118.80000305176</ele>
        <extensions>
          <gpxtpx:TrackPointExtension xmlns:gpxtpx="http://www.garmin.com/xmlschemas/TrackPointExtension/v1">
            <gpxtpx:hr>141</gpxtpx:hr>
          </gpxtpx:TrackPointExtension>
        </extensions>
      </trkpt>
      <trkpt lat="50.68437" lon="5.16473">
        <ele>118.19999694824</ele>
        <extensions>
          <gpxtpx:TrackPointExtension xmlns:gpxtpx="http://www.garmin.com/xmlschemas/TrackPointExtension/v1">
            <gpxtpx:hr>139</gpxtpx:hr>
          </gpxtpx:TrackPointExtension>
        </extensions>
      </trkpt>
      <trkpt lat="50.684" lon="5.16497">
        <ele>118</ele>
        <extensions>
          <gpxtpx:TrackPointExtension xmlns:gpxtpx="http://www.garmin.com/xmlschemas/TrackPointExtension/v1">
            <gpxtpx:hr>136</gpxtpx:hr>
          </gpxtpx:TrackPointExtension>
        </extensions>
      </trkpt>
      <trkpt lat="50.68382" lon="5.16508">
        <ele>118</ele>
        <extensions>
          <gpxtpx:TrackPointExtension xmlns:gpxtpx="http://www.garmin.com/xmlschemas/TrackPointExtension/v1">
            <gpxtpx:hr>133</gpxtpx:hr>
          </gpxtpx:TrackPointExtension>
        </extensions>
      </trkpt>
      <trkpt lat="50.68358" lon="5.16521">
        <ele>118</ele>
        <extensions>
          <gpxtpx:TrackPointExtension xmlns:gpxtpx="http://www.garmin.com/xmlschemas/TrackPointExtension/v1">
            <gpxtpx:hr>131</gpxtpx:hr>
          </gpxtpx:TrackPointExtension>
        </extensions>
      </trkpt>
      <trkpt lat="50.68309" lon="5.16556">
        <ele>141.6</ele>
      </trkpt>
      <trkpt lat="50.68271" lon="5.16587">
        <ele>141.1</ele>
      </trkpt>
      <trkpt lat="50.68239" lon="5.16618">
        <ele>120.59999847412</ele>
        <extensions>
          <gpxtpx:TrackPointExtension xmlns:gpxtpx="http://www.garmin.com/xmlschemas/TrackPointExtension/v1">
            <gpxtpx:hr>136</gpxtpx:hr>
          </gpxtpx:TrackPointExtension>
        </extensions>
      </trkpt>
      <trkpt lat="50.68224" lon="5.16638">
        <ele>121</ele>
        <extensions>
          <gpxtpx:TrackPointExtension xmlns:gpxtpx="http://www.garmin.com/xmlschemas/TrackPointExtension/v1">
            <gpxtpx:hr>137</gpxtpx:hr>
          </gpxtpx:TrackPointExtension>
        </extensions>
      </trkpt>
      <trkpt lat="50.68208" lon="5.16655">
        <ele>121.19999694824</ele>
        <extensions>
          <gpxtpx:TrackPointExtension xmlns:gpxtpx="http://www.garmin.com/xmlschemas/TrackPointExtension/v1">
            <gpxtpx:hr>138</gpxtpx:hr>
          </gpxtpx:TrackPointExtension>
        </extensions>
      </trkpt>
      <trkpt lat="50.68202" lon="5.16659">
        <ele>121.19999694824</ele>
        <extensions>
          <gpxtpx:TrackPointExtension xmlns:gpxtpx="http://www.garmin.com/xmlschemas/TrackPointExtension/v1">
            <gpxtpx:hr>138</gpxtpx:hr>
          </gpxtpx:TrackPointExtension>
        </extensions>
      </trkpt>
      <trkpt lat="50.68151" lon="5.16689">
        <ele>121.40000152588</ele>
        <extensions>
          <gpxtpx:TrackPointExtension xmlns:gpxtpx="http://www.garmin.com/xmlschemas/TrackPointExtension/v1">
            <gpxtpx:hr>139</gpxtpx:hr>
          </gpxtpx:TrackPointExtension>
        </extensions>
      </trkpt>
      <trkpt lat="50.68138" lon="5.16696">
        <ele>121.59999847412</ele>
        <extensions>
          <gpxtpx:TrackPointExtension xmlns:gpxtpx="http://www.garmin.com/xmlschemas/TrackPointExtension/v1">
            <gpxtpx:hr>139</gpxtpx:hr>
          </gpxtpx:TrackPointExtension>
        </extensions>
      </trkpt>
      <trkpt lat="50.68082" lon="5.16731">
        <ele>122.40000152588</ele>
        <extensions>
          <gpxtpx:TrackPointExtension xmlns:gpxtpx="http://www.garmin.com/xmlschemas/TrackPointExtension/v1">
            <gpxtpx:hr>139</gpxtpx:hr>
          </gpxtpx:TrackPointExtension>
        </extensions>
      </trkpt>
      <trkpt lat="50.68055" lon="5.16761">
        <ele>122.40000152588</ele>
        <extensions>
          <gpxtpx:TrackPointExtension xmlns:gpxtpx="http://www.garmin.com/xmlschemas/TrackPointExtension/v1">
            <gpxtpx:hr>138</gpxtpx:hr>
          </gpxtpx:TrackPointExtension>
        </extensions>
      </trkpt>
      <trkpt lat="50.68039" lon="5.16785">
        <ele>138.7</ele>
      </trkpt>
      <trkpt lat="50.68025" lon="5.16802">
        <ele>122.59999847412</ele>
        <extensions>
          <gpxtpx:TrackPointExtension xmlns:gpxtpx="http://www.garmin.com/xmlschemas/TrackPointExtension/v1">
            <gpxtpx:hr>136</gpxtpx:hr>
          </gpxtpx:TrackPointExtension>
        </extensions>
      </trkpt>
      <trkpt lat="50.67987" lon="5.16854">
        <ele>122.19999694824</ele>
        <extensions>
          <gpxtpx:TrackPointExtension xmlns:gpxtpx="http://www.garmin.com/xmlschemas/TrackPointExtension/v1">
            <gpxtpx:hr>133</gpxtpx:hr>
          </gpxtpx:TrackPointExtension>
        </extensions>
      </trkpt>
      <trkpt lat="50.67962" lon="5.16884">
        <ele>136.5</ele>
      </trkpt>
      <trkpt lat="50.67936" lon="5.16906">
        <ele>121.40000152588</ele>
        <extensions>
          <gpxtpx:TrackPointExtension xmlns:gpxtpx="http://www.garmin.com/xmlschemas/TrackPointExtension/v1">
            <gpxtpx:hr>129</gpxtpx:hr>
          </gpxtpx:TrackPointExtension>
        </extensions>
      </trkpt>
      <trkpt lat="50.67902" lon="5.16931">
        <ele>121.19999694824</ele>
        <extensions>
          <gpxtpx:TrackPointExtension xmlns:gpxtpx="http://www.garmin.com/xmlschemas/TrackPointExtension/v1">
            <gpxtpx:hr>126</gpxtpx:hr>
          </gpxtpx:TrackPointExtension>
        </extensions>
      </trkpt>
      <trkpt lat="50.67876" lon="5.16948">
        <ele>120.59999847412</ele>
        <extensions>
          <gpxtpx:TrackPointExtension xmlns:gpxtpx="http://www.garmin.com/xmlschemas/TrackPointExtension/v1">
            <gpxtpx:hr>125</gpxtpx:hr>
          </gpxtpx:TrackPointExtension>
        </extensions>
      </trkpt>
      <trkpt lat="50.67869" lon="5.16952">
        <ele>120.40000152588</ele>
        <extensions>
          <gpxtpx:TrackPointExtension xmlns:gpxtpx="http://www.garmin.com/xmlschemas/TrackPointExtension/v1">
            <gpxtpx:hr>124</gpxtpx:hr>
          </gpxtpx:TrackPointExtension>
        </extensions>
      </trkpt>
      <trkpt lat="50.6785" lon="5.16955">
        <ele>120</ele>
        <extensions>
          <gpxtpx:TrackPointExtension xmlns:gpxtpx="http://www.garmin.com/xmlschemas/TrackPointExtension/v1">
            <gpxtpx:hr>122</gpxtpx:hr>
          </gpxtpx:TrackPointExtension>
        </extensions>
      </trkpt>
      <trkpt lat="50.67833" lon="5.16972">
        <ele>119.59999847412</ele>
        <extensions>
          <gpxtpx:TrackPointExtension xmlns:gpxtpx="http://www.garmin.com/xmlschemas/TrackPointExtension/v1">
            <gpxtpx:hr>121</gpxtpx:hr>
          </gpxtpx:TrackPointExtension>
        </extensions>
      </trkpt>
      <trkpt lat="50.67827" lon="5.16979">
        <ele>119.40000152588</ele>
        <extensions>
          <gpxtpx:TrackPointExtension xmlns:gpxtpx="http://www.garmin.com/xmlschemas/TrackPointExtension/v1">
            <gpxtpx:hr>120</gpxtpx:hr>
          </gpxtpx:TrackPointExtension>
        </extensions>
      </trkpt>
      <trkpt lat="50.67814" lon="5.16988">
        <ele>119.19999694824</ele>
        <extensions>
          <gpxtpx:TrackPointExtension xmlns:gpxtpx="http://www.garmin.com/xmlschemas/TrackPointExtension/v1">
            <gpxtpx:hr>119</gpxtpx:hr>
          </gpxtpx:TrackPointExtension>
        </extensions>
      </trkpt>
      <trkpt lat="50.67779" lon="5.17008">
        <ele>118.80000305176</ele>
        <extensions>
          <gpxtpx:TrackPointExtension xmlns:gpxtpx="http://www.garmin.com/xmlschemas/TrackPointExtension/v1">
            <gpxtpx:hr>116</gpxtpx:hr>
          </gpxtpx:TrackPointExtension>
        </extensions>
      </trkpt>
      <trkpt lat="50.67771" lon="5.17011">
        <ele>118.80000305176</ele>
        <extensions>
          <gpxtpx:TrackPointExtension xmlns:gpxtpx="http://www.garmin.com/xmlschemas/TrackPointExtension/v1">
            <gpxtpx:hr>116</gpxtpx:hr>
          </gpxtpx:TrackPointExtension>
        </extensions>
      </trkpt>
      <trkpt lat="50.67756" lon="5.17016">
        <ele>118.59999847412</ele>
        <extensions>
          <gpxtpx:TrackPointExtension xmlns:gpxtpx="http://www.garmin.com/xmlschemas/TrackPointExtension/v1">
            <gpxtpx:hr>115</gpxtpx:hr>
          </gpxtpx:TrackPointExtension>
        </extensions>
      </trkpt>
      <trkpt lat="50.67726" lon="5.17023">
        <ele>118.40000152588</ele>
        <extensions>
          <gpxtpx:TrackPointExtension xmlns:gpxtpx="http://www.garmin.com/xmlschemas/TrackPointExtension/v1">
            <gpxtpx:hr>115</gpxtpx:hr>
          </gpxtpx:TrackPointExtension>
        </extensions>
      </trkpt>
      <trkpt lat="50.67688" lon="5.17031">
        <ele>118</ele>
        <extensions>
          <gpxtpx:TrackPointExtension xmlns:gpxtpx="http://www.garmin.com/xmlschemas/TrackPointExtension/v1">
            <gpxtpx:hr>115</gpxtpx:hr>
          </gpxtpx:TrackPointExtension>
        </extensions>
      </trkpt>
      <trkpt lat="50.67651" lon="5.17042">
        <ele>117.40000152588</ele>
        <extensions>
          <gpxtpx:TrackPointExtension xmlns:gpxtpx="http://www.garmin.com/xmlschemas/TrackPointExtension/v1">
            <gpxtpx:hr>115</gpxtpx:hr>
          </gpxtpx:TrackPointExtension>
        </extensions>
      </trkpt>
      <trkpt lat="50.67629" lon="5.17047">
        <ele>117</ele>
        <extensions>
          <gpxtpx:TrackPointExtension xmlns:gpxtpx="http://www.garmin.com/xmlschemas/TrackPointExtension/v1">
            <gpxtpx:hr>113</gpxtpx:hr>
          </gpxtpx:TrackPointExtension>
        </extensions>
      </trkpt>
      <trkpt lat="50.67609" lon="5.17054">
        <ele>116.59999847412</ele>
        <extensions>
          <gpxtpx:TrackPointExtension xmlns:gpxtpx="http://www.garmin.com/xmlschemas/TrackPointExtension/v1">
            <gpxtpx:hr>112</gpxtpx:hr>
          </gpxtpx:TrackPointExtension>
        </extensions>
      </trkpt>
      <trkpt lat="50.67593" lon="5.17062">
        <ele>131.9</ele>
      </trkpt>
      <trkpt lat="50.67558" lon="5.17085">
        <ele>131.6</ele>
      </trkpt>
      <trkpt lat="50.6754" lon="5.17099">
        <ele>112.40000152588</ele>
        <extensions>
          <gpxtpx:TrackPointExtension xmlns:gpxtpx="http://www.garmin.com/xmlschemas/TrackPointExtension/v1">
            <gpxtpx:hr>109</gpxtpx:hr>
          </gpxtpx:TrackPointExtension>
        </extensions>
      </trkpt>
      <trkpt lat="50.67518" lon="5.17116">
        <ele>112.19999694824</ele>
        <extensions>
          <gpxtpx:TrackPointExtension xmlns:gpxtpx="http://www.garmin.com/xmlschemas/TrackPointExtension/v1">
            <gpxtpx:hr>112</gpxtpx:hr>
          </gpxtpx:TrackPointExtension>
        </extensions>
      </trkpt>
      <trkpt lat="50.67505" lon="5.17127">
        <ele>112.19999694824</ele>
        <extensions>
          <gpxtpx:TrackPointExtension xmlns:gpxtpx="http://www.garmin.com/xmlschemas/TrackPointExtension/v1">
            <gpxtpx:hr>109</gpxtpx:hr>
          </gpxtpx:TrackPointExtension>
        </extensions>
      </trkpt>
      <trkpt lat="50.67479" lon="5.17146">
        <ele>112</ele>
        <extensions>
          <gpxtpx:TrackPointExtension xmlns:gpxtpx="http://www.garmin.com/xmlschemas/TrackPointExtension/v1">
            <gpxtpx:hr>105</gpxtpx:hr>
          </gpxtpx:TrackPointExtension>
        </extensions>
      </trkpt>
      <trkpt lat="50.67451" lon="5.17167">
        <ele>111.40000152588</ele>
        <extensions>
          <gpxtpx:TrackPointExtension xmlns:gpxtpx="http://www.garmin.com/xmlschemas/TrackPointExtension/v1">
            <gpxtpx:hr>105</gpxtpx:hr>
          </gpxtpx:TrackPointExtension>
        </extensions>
      </trkpt>
      <trkpt lat="50.67432" lon="5.17176">
        <ele>111.19999694824</ele>
        <extensions>
          <gpxtpx:TrackPointExtension xmlns:gpxtpx="http://www.garmin.com/xmlschemas/TrackPointExtension/v1">
            <gpxtpx:hr>106</gpxtpx:hr>
          </gpxtpx:TrackPointExtension>
        </extensions>
      </trkpt>
      <trkpt lat="50.67413" lon="5.17184">
        <ele>128</ele>
      </trkpt>
      <trkpt lat="50.67386" lon="5.17191">
        <ele>110.19999694824</ele>
        <extensions>
          <gpxtpx:TrackPointExtension xmlns:gpxtpx="http://www.garmin.com/xmlschemas/TrackPointExtension/v1">
            <gpxtpx:hr>107</gpxtpx:hr>
          </gpxtpx:TrackPointExtension>
        </extensions>
      </trkpt>
      <trkpt lat="50.67332" lon="5.17196">
        <ele>109.40000152588</ele>
        <extensions>
          <gpxtpx:TrackPointExtension xmlns:gpxtpx="http://www.garmin.com/xmlschemas/TrackPointExtension/v1">
            <gpxtpx:hr>107</gpxtpx:hr>
          </gpxtpx:TrackPointExtension>
        </extensions>
      </trkpt>
      <trkpt lat="50.67305" lon="5.17198">
        <ele>109</ele>
        <extensions>
          <gpxtpx:TrackPointExtension xmlns:gpxtpx="http://www.garmin.com/xmlschemas/TrackPointExtension/v1">
            <gpxtpx:hr>106</gpxtpx:hr>
          </gpxtpx:TrackPointExtension>
        </extensions>
      </trkpt>
      <trkpt lat="50.67278" lon="5.17205">
        <ele>108.80000305176</ele>
        <extensions>
          <gpxtpx:TrackPointExtension xmlns:gpxtpx="http://www.garmin.com/xmlschemas/TrackPointExtension/v1">
            <gpxtpx:hr>103</gpxtpx:hr>
          </gpxtpx:TrackPointExtension>
        </extensions>
      </trkpt>
      <trkpt lat="50.67266" lon="5.17211">
        <ele>108.40000152588</ele>
        <extensions>
          <gpxtpx:TrackPointExtension xmlns:gpxtpx="http://www.garmin.com/xmlschemas/TrackPointExtension/v1">
            <gpxtpx:hr>100</gpxtpx:hr>
          </gpxtpx:TrackPointExtension>
        </extensions>
      </trkpt>
      <trkpt lat="50.67241" lon="5.17229">
        <ele>108.19999694824</ele>
        <extensions>
          <gpxtpx:TrackPointExtension xmlns:gpxtpx="http://www.garmin.com/xmlschemas/TrackPointExtension/v1">
            <gpxtpx:hr>101</gpxtpx:hr>
          </gpxtpx:TrackPointExtension>
        </extensions>
      </trkpt>
      <trkpt lat="50.67223" lon="5.17244">
        <ele>108</ele>
        <extensions>
          <gpxtpx:TrackPointExtension xmlns:gpxtpx="http://www.garmin.com/xmlschemas/TrackPointExtension/v1">
            <gpxtpx:hr>102</gpxtpx:hr>
          </gpxtpx:TrackPointExtension>
        </extensions>
      </trkpt>
      <trkpt lat="50.67212" lon="5.17257">
        <ele>108</ele>
        <extensions>
          <gpxtpx:TrackPointExtension xmlns:gpxtpx="http://www.garmin.com/xmlschemas/TrackPointExtension/v1">
            <gpxtpx:hr>103</gpxtpx:hr>
          </gpxtpx:TrackPointExtension>
        </extensions>
      </trkpt>
      <trkpt lat="50.67201" lon="5.17268">
        <ele>108</ele>
        <extensions>
          <gpxtpx:TrackPointExtension xmlns:gpxtpx="http://www.garmin.com/xmlschemas/TrackPointExtension/v1">
            <gpxtpx:hr>103</gpxtpx:hr>
          </gpxtpx:TrackPointExtension>
        </extensions>
      </trkpt>
      <trkpt lat="50.6718" lon="5.17291">
        <ele>108</ele>
        <extensions>
          <gpxtpx:TrackPointExtension xmlns:gpxtpx="http://www.garmin.com/xmlschemas/TrackPointExtension/v1">
            <gpxtpx:hr>106</gpxtpx:hr>
          </gpxtpx:TrackPointExtension>
        </extensions>
      </trkpt>
      <trkpt lat="50.67163" lon="5.17307">
        <ele>108</ele>
        <extensions>
          <gpxtpx:TrackPointExtension xmlns:gpxtpx="http://www.garmin.com/xmlschemas/TrackPointExtension/v1">
            <gpxtpx:hr>108</gpxtpx:hr>
          </gpxtpx:TrackPointExtension>
        </extensions>
      </trkpt>
      <trkpt lat="50.67152" lon="5.17319">
        <ele>108</ele>
        <extensions>
          <gpxtpx:TrackPointExtension xmlns:gpxtpx="http://www.garmin.com/xmlschemas/TrackPointExtension/v1">
            <gpxtpx:hr>110</gpxtpx:hr>
          </gpxtpx:TrackPointExtension>
        </extensions>
      </trkpt>
      <trkpt lat="50.67134" lon="5.17334">
        <ele>108</ele>
        <extensions>
          <gpxtpx:TrackPointExtension xmlns:gpxtpx="http://www.garmin.com/xmlschemas/TrackPointExtension/v1">
            <gpxtpx:hr>114</gpxtpx:hr>
          </gpxtpx:TrackPointExtension>
        </extensions>
      </trkpt>
      <trkpt lat="50.67117" lon="5.1735">
        <ele>108.40000152588</ele>
        <extensions>
          <gpxtpx:TrackPointExtension xmlns:gpxtpx="http://www.garmin.com/xmlschemas/TrackPointExtension/v1">
            <gpxtpx:hr>117</gpxtpx:hr>
          </gpxtpx:TrackPointExtension>
        </extensions>
      </trkpt>
      <trkpt lat="50.67099" lon="5.17365">
        <ele>108.59999847412</ele>
        <extensions>
          <gpxtpx:TrackPointExtension xmlns:gpxtpx="http://www.garmin.com/xmlschemas/TrackPointExtension/v1">
            <gpxtpx:hr>119</gpxtpx:hr>
          </gpxtpx:TrackPointExtension>
        </extensions>
      </trkpt>
      <trkpt lat="50.6708" lon="5.17378">
        <ele>108.80000305176</ele>
        <extensions>
          <gpxtpx:TrackPointExtension xmlns:gpxtpx="http://www.garmin.com/xmlschemas/TrackPointExtension/v1">
            <gpxtpx:hr>122</gpxtpx:hr>
          </gpxtpx:TrackPointExtension>
        </extensions>
      </trkpt>
      <trkpt lat="50.67067" lon="5.17385">
        <ele>109</ele>
        <extensions>
          <gpxtpx:TrackPointExtension xmlns:gpxtpx="http://www.garmin.com/xmlschemas/TrackPointExtension/v1">
            <gpxtpx:hr>123</gpxtpx:hr>
          </gpxtpx:TrackPointExtension>
        </extensions>
      </trkpt>
      <trkpt lat="50.6706" lon="5.17388">
        <ele>109</ele>
        <extensions>
          <gpxtpx:TrackPointExtension xmlns:gpxtpx="http://www.garmin.com/xmlschemas/TrackPointExtension/v1">
            <gpxtpx:hr>123</gpxtpx:hr>
          </gpxtpx:TrackPointExtension>
        </extensions>
      </trkpt>
      <trkpt lat="50.67013" lon="5.17406">
        <ele>109.19999694824</ele>
        <extensions>
          <gpxtpx:TrackPointExtension xmlns:gpxtpx="http://www.garmin.com/xmlschemas/TrackPointExtension/v1">
            <gpxtpx:hr>125</gpxtpx:hr>
          </gpxtpx:TrackPointExtension>
        </extensions>
      </trkpt>
      <trkpt lat="50.67006" lon="5.17407">
        <ele>109.19999694824</ele>
        <extensions>
          <gpxtpx:TrackPointExtension xmlns:gpxtpx="http://www.garmin.com/xmlschemas/TrackPointExtension/v1">
            <gpxtpx:hr>125</gpxtpx:hr>
          </gpxtpx:TrackPointExtension>
        </extensions>
      </trkpt>
      <trkpt lat="50.66996" lon="5.17403">
        <ele>126.7</ele>
      </trkpt>
      <trkpt lat="50.66988" lon="5.17409">
        <ele>108.19999694824</ele>
        <extensions>
          <gpxtpx:TrackPointExtension xmlns:gpxtpx="http://www.garmin.com/xmlschemas/TrackPointExtension/v1">
            <gpxtpx:hr>124</gpxtpx:hr>
          </gpxtpx:TrackPointExtension>
        </extensions>
      </trkpt>
      <trkpt lat="50.66981" lon="5.17415">
        <ele>108</ele>
        <extensions>
          <gpxtpx:TrackPointExtension xmlns:gpxtpx="http://www.garmin.com/xmlschemas/TrackPointExtension/v1">
            <gpxtpx:hr>123</gpxtpx:hr>
          </gpxtpx:TrackPointExtension>
        </extensions>
      </trkpt>
      <trkpt lat="50.66971" lon="5.1742">
        <ele>108</ele>
        <extensions>
          <gpxtpx:TrackPointExtension xmlns:gpxtpx="http://www.garmin.com/xmlschemas/TrackPointExtension/v1">
            <gpxtpx:hr>122</gpxtpx:hr>
          </gpxtpx:TrackPointExtension>
        </extensions>
      </trkpt>
      <trkpt lat="50.66939" lon="5.17436">
        <ele>108</ele>
        <extensions>
          <gpxtpx:TrackPointExtension xmlns:gpxtpx="http://www.garmin.com/xmlschemas/TrackPointExtension/v1">
            <gpxtpx:hr>120</gpxtpx:hr>
          </gpxtpx:TrackPointExtension>
        </extensions>
      </trkpt>
      <trkpt lat="50.66911" lon="5.17454">
        <ele>107.59999847412</ele>
        <extensions>
          <gpxtpx:TrackPointExtension xmlns:gpxtpx="http://www.garmin.com/xmlschemas/TrackPointExtension/v1">
            <gpxtpx:hr>118</gpxtpx:hr>
          </gpxtpx:TrackPointExtension>
        </extensions>
      </trkpt>
      <trkpt lat="50.66889" lon="5.17467">
        <ele>107</ele>
        <extensions>
          <gpxtpx:TrackPointExtension xmlns:gpxtpx="http://www.garmin.com/xmlschemas/TrackPointExtension/v1">
            <gpxtpx:hr>118</gpxtpx:hr>
          </gpxtpx:TrackPointExtension>
        </extensions>
      </trkpt>
      <trkpt lat="50.66867" lon="5.1748">
        <ele>106.40000152588</ele>
        <extensions>
          <gpxtpx:TrackPointExtension xmlns:gpxtpx="http://www.garmin.com/xmlschemas/TrackPointExtension/v1">
            <gpxtpx:hr>117</gpxtpx:hr>
          </gpxtpx:TrackPointExtension>
        </extensions>
      </trkpt>
      <trkpt lat="50.66844" lon="5.17487">
        <ele>105.59999847412</ele>
        <extensions>
          <gpxtpx:TrackPointExtension xmlns:gpxtpx="http://www.garmin.com/xmlschemas/TrackPointExtension/v1">
            <gpxtpx:hr>117</gpxtpx:hr>
          </gpxtpx:TrackPointExtension>
        </extensions>
      </trkpt>
      <trkpt lat="50.66829" lon="5.17489">
        <ele>105.19999694824</ele>
        <extensions>
          <gpxtpx:TrackPointExtension xmlns:gpxtpx="http://www.garmin.com/xmlschemas/TrackPointExtension/v1">
            <gpxtpx:hr>116</gpxtpx:hr>
          </gpxtpx:TrackPointExtension>
        </extensions>
      </trkpt>
      <trkpt lat="50.66799" lon="5.17489">
        <ele>105.19999694824</ele>
        <extensions>
          <gpxtpx:TrackPointExtension xmlns:gpxtpx="http://www.garmin.com/xmlschemas/TrackPointExtension/v1">
            <gpxtpx:hr>117</gpxtpx:hr>
          </gpxtpx:TrackPointExtension>
        </extensions>
      </trkpt>
      <trkpt lat="50.66746" lon="5.17479">
        <ele>104.80000305176</ele>
        <extensions>
          <gpxtpx:TrackPointExtension xmlns:gpxtpx="http://www.garmin.com/xmlschemas/TrackPointExtension/v1">
            <gpxtpx:hr>116</gpxtpx:hr>
          </gpxtpx:TrackPointExtension>
        </extensions>
      </trkpt>
      <trkpt lat="50.66686" lon="5.17467">
        <ele>104.59999847412</ele>
        <extensions>
          <gpxtpx:TrackPointExtension xmlns:gpxtpx="http://www.garmin.com/xmlschemas/TrackPointExtension/v1">
            <gpxtpx:hr>115</gpxtpx:hr>
          </gpxtpx:TrackPointExtension>
        </extensions>
      </trkpt>
      <trkpt lat="50.66678" lon="5.17468">
        <ele>122</ele>
      </trkpt>
      <trkpt lat="50.66676" lon="5.17478">
        <ele>103.59999847412</ele>
        <extensions>
          <gpxtpx:TrackPointExtension xmlns:gpxtpx="http://www.garmin.com/xmlschemas/TrackPointExtension/v1">
            <gpxtpx:hr>114</gpxtpx:hr>
          </gpxtpx:TrackPointExtension>
        </extensions>
      </trkpt>
      <trkpt lat="50.66676" lon="5.17506">
        <ele>121.4</ele>
      </trkpt>
      <trkpt lat="50.66675" lon="5.17564">
        <ele>121.9</ele>
      </trkpt>
      <trkpt lat="50.66673" lon="5.17644">
        <ele>121.7</ele>
      </trkpt>
      <trkpt lat="50.66671" lon="5.17681">
        <ele>104</ele>
        <extensions>
          <gpxtpx:TrackPointExtension xmlns:gpxtpx="http://www.garmin.com/xmlschemas/TrackPointExtension/v1">
            <gpxtpx:hr>122</gpxtpx:hr>
          </gpxtpx:TrackPointExtension>
        </extensions>
      </trkpt>
      <trkpt lat="50.66669" lon="5.17702">
        <ele>104</ele>
        <extensions>
          <gpxtpx:TrackPointExtension xmlns:gpxtpx="http://www.garmin.com/xmlschemas/TrackPointExtension/v1">
            <gpxtpx:hr>123</gpxtpx:hr>
          </gpxtpx:TrackPointExtension>
        </extensions>
      </trkpt>
      <trkpt lat="50.66667" lon="5.17713">
        <ele>104</ele>
        <extensions>
          <gpxtpx:TrackPointExtension xmlns:gpxtpx="http://www.garmin.com/xmlschemas/TrackPointExtension/v1">
            <gpxtpx:hr>123</gpxtpx:hr>
          </gpxtpx:TrackPointExtension>
        </extensions>
      </trkpt>
      <trkpt lat="50.66656" lon="5.1774">
        <ele>104.19999694824</ele>
        <extensions>
          <gpxtpx:TrackPointExtension xmlns:gpxtpx="http://www.garmin.com/xmlschemas/TrackPointExtension/v1">
            <gpxtpx:hr>124</gpxtpx:hr>
          </gpxtpx:TrackPointExtension>
        </extensions>
      </trkpt>
      <trkpt lat="50.66637" lon="5.17759">
        <ele>104</ele>
        <extensions>
          <gpxtpx:TrackPointExtension xmlns:gpxtpx="http://www.garmin.com/xmlschemas/TrackPointExtension/v1">
            <gpxtpx:hr>126</gpxtpx:hr>
          </gpxtpx:TrackPointExtension>
        </extensions>
      </trkpt>
      <trkpt lat="50.66623" lon="5.17765">
        <ele>104</ele>
        <extensions>
          <gpxtpx:TrackPointExtension xmlns:gpxtpx="http://www.garmin.com/xmlschemas/TrackPointExtension/v1">
            <gpxtpx:hr>127</gpxtpx:hr>
          </gpxtpx:TrackPointExtension>
        </extensions>
      </trkpt>
      <trkpt lat="50.66596" lon="5.17779">
        <ele>104</ele>
        <extensions>
          <gpxtpx:TrackPointExtension xmlns:gpxtpx="http://www.garmin.com/xmlschemas/TrackPointExtension/v1">
            <gpxtpx:hr>128</gpxtpx:hr>
          </gpxtpx:TrackPointExtension>
        </extensions>
      </trkpt>
      <trkpt lat="50.66557" lon="5.17806">
        <ele>103.80000305176</ele>
        <extensions>
          <gpxtpx:TrackPointExtension xmlns:gpxtpx="http://www.garmin.com/xmlschemas/TrackPointExtension/v1">
            <gpxtpx:hr>129</gpxtpx:hr>
          </gpxtpx:TrackPointExtension>
        </extensions>
      </trkpt>
      <trkpt lat="50.6655" lon="5.1781">
        <ele>103.80000305176</ele>
        <extensions>
          <gpxtpx:TrackPointExtension xmlns:gpxtpx="http://www.garmin.com/xmlschemas/TrackPointExtension/v1">
            <gpxtpx:hr>129</gpxtpx:hr>
          </gpxtpx:TrackPointExtension>
        </extensions>
      </trkpt>
      <trkpt lat="50.66529" lon="5.17815">
        <ele>103.80000305176</ele>
        <extensions>
          <gpxtpx:TrackPointExtension xmlns:gpxtpx="http://www.garmin.com/xmlschemas/TrackPointExtension/v1">
            <gpxtpx:hr>129</gpxtpx:hr>
          </gpxtpx:TrackPointExtension>
        </extensions>
      </trkpt>
      <trkpt lat="50.66508" lon="5.17812">
        <ele>103.80000305176</ele>
        <extensions>
          <gpxtpx:TrackPointExtension xmlns:gpxtpx="http://www.garmin.com/xmlschemas/TrackPointExtension/v1">
            <gpxtpx:hr>129</gpxtpx:hr>
          </gpxtpx:TrackPointExtension>
        </extensions>
      </trkpt>
      <trkpt lat="50.66496" lon="5.17809">
        <ele>122.9</ele>
      </trkpt>
      <trkpt lat="50.66454" lon="5.17796">
        <ele>104</ele>
        <extensions>
          <gpxtpx:TrackPointExtension xmlns:gpxtpx="http://www.garmin.com/xmlschemas/TrackPointExtension/v1">
            <gpxtpx:hr>130</gpxtpx:hr>
          </gpxtpx:TrackPointExtension>
        </extensions>
      </trkpt>
      <trkpt lat="50.66409" lon="5.17779">
        <ele>104.59999847412</ele>
        <extensions>
          <gpxtpx:TrackPointExtension xmlns:gpxtpx="http://www.garmin.com/xmlschemas/TrackPointExtension/v1">
            <gpxtpx:hr>130</gpxtpx:hr>
          </gpxtpx:TrackPointExtension>
        </extensions>
      </trkpt>
      <trkpt lat="50.66367" lon="5.17765">
        <ele>123.6</ele>
      </trkpt>
      <trkpt lat="50.66346" lon="5.17759">
        <ele>123.8</ele>
      </trkpt>
      <trkpt lat="50.66308" lon="5.17747">
        <ele>123.7</ele>
      </trkpt>
      <trkpt lat="50.66282" lon="5.17737">
        <ele>123.4</ele>
      </trkpt>
      <trkpt lat="50.6623" lon="5.17719">
        <ele>123.5</ele>
      </trkpt>
      <trkpt lat="50.66214" lon="5.17714">
        <ele>123.7</ele>
      </trkpt>
      <trkpt lat="50.66197" lon="5.17716">
        <ele>123.8</ele>
      </trkpt>
      <trkpt lat="50.66189" lon="5.17724">
        <ele>123.9</ele>
      </trkpt>
      <trkpt lat="50.66174" lon="5.17741">
        <ele>123.9</ele>
      </trkpt>
      <trkpt lat="50.66169" lon="5.17758">
        <ele>123.9</ele>
      </trkpt>
      <trkpt lat="50.66158" lon="5.178">
        <ele>124</ele>
      </trkpt>
      <trkpt lat="50.66141" lon="5.17849">
        <ele>124.3</ele>
      </trkpt>
      <trkpt lat="50.66123" lon="5.17911">
        <ele>124.7</ele>
      </trkpt>
      <trkpt lat="50.66107" lon="5.17941">
        <ele>125.4</ele>
      </trkpt>
      <trkpt lat="50.66097" lon="5.17964">
        <ele>125.5</ele>
      </trkpt>
      <trkpt lat="50.66094" lon="5.17975">
        <ele>125.6</ele>
      </trkpt>
      <trkpt lat="50.66103" lon="5.17998">
        <ele>125.8</ele>
      </trkpt>
      <trkpt lat="50.66121" lon="5.18042">
        <ele>126.8</ele>
      </trkpt>
      <trkpt lat="50.66143" lon="5.18095">
        <ele>127.7</ele>
      </trkpt>
      <trkpt lat="50.66165" lon="5.18144">
        <ele>127.9</ele>
      </trkpt>
      <trkpt lat="50.66175" lon="5.18174">
        <ele>127.5</ele>
      </trkpt>
      <trkpt lat="50.66173" lon="5.18193">
        <ele>127.3</ele>
      </trkpt>
      <trkpt lat="50.66159" lon="5.18217">
        <ele>108.59999847412</ele>
        <extensions>
          <gpxtpx:TrackPointExtension xmlns:gpxtpx="http://www.garmin.com/xmlschemas/TrackPointExtension/v1">
            <gpxtpx:hr>130</gpxtpx:hr>
          </gpxtpx:TrackPointExtension>
        </extensions>
      </trkpt>
      <trkpt lat="50.6615" lon="5.18228">
        <ele>108.59999847412</ele>
        <extensions>
          <gpxtpx:TrackPointExtension xmlns:gpxtpx="http://www.garmin.com/xmlschemas/TrackPointExtension/v1">
            <gpxtpx:hr>130</gpxtpx:hr>
          </gpxtpx:TrackPointExtension>
        </extensions>
      </trkpt>
      <trkpt lat="50.66124" lon="5.18256">
        <ele>108.59999847412</ele>
        <extensions>
          <gpxtpx:TrackPointExtension xmlns:gpxtpx="http://www.garmin.com/xmlschemas/TrackPointExtension/v1">
            <gpxtpx:hr>129</gpxtpx:hr>
          </gpxtpx:TrackPointExtension>
        </extensions>
      </trkpt>
      <trkpt lat="50.66074" lon="5.18306">
        <ele>109</ele>
        <extensions>
          <gpxtpx:TrackPointExtension xmlns:gpxtpx="http://www.garmin.com/xmlschemas/TrackPointExtension/v1">
            <gpxtpx:hr>130</gpxtpx:hr>
          </gpxtpx:TrackPointExtension>
        </extensions>
      </trkpt>
      <trkpt lat="50.66069" lon="5.18313">
        <ele>109</ele>
        <extensions>
          <gpxtpx:TrackPointExtension xmlns:gpxtpx="http://www.garmin.com/xmlschemas/TrackPointExtension/v1">
            <gpxtpx:hr>130</gpxtpx:hr>
          </gpxtpx:TrackPointExtension>
        </extensions>
      </trkpt>
      <trkpt lat="50.66051" lon="5.18331">
        <ele>131</ele>
      </trkpt>
      <trkpt lat="50.66031" lon="5.18358">
        <ele>109.59999847412</ele>
        <extensions>
          <gpxtpx:TrackPointExtension xmlns:gpxtpx="http://www.garmin.com/xmlschemas/TrackPointExtension/v1">
            <gpxtpx:hr>132</gpxtpx:hr>
          </gpxtpx:TrackPointExtension>
        </extensions>
      </trkpt>
      <trkpt lat="50.66018" lon="5.18378">
        <ele>130</ele>
      </trkpt>
      <trkpt lat="50.66004" lon="5.1841">
        <ele>109.80000305176</ele>
        <extensions>
          <gpxtpx:TrackPointExtension xmlns:gpxtpx="http://www.garmin.com/xmlschemas/TrackPointExtension/v1">
            <gpxtpx:hr>134</gpxtpx:hr>
          </gpxtpx:TrackPointExtension>
        </extensions>
      </trkpt>
      <trkpt lat="50.65988" lon="5.1845">
        <ele>110</ele>
        <extensions>
          <gpxtpx:TrackPointExtension xmlns:gpxtpx="http://www.garmin.com/xmlschemas/TrackPointExtension/v1">
            <gpxtpx:hr>135</gpxtpx:hr>
          </gpxtpx:TrackPointExtension>
        </extensions>
      </trkpt>
      <trkpt lat="50.65972" lon="5.18489">
        <ele>110.19999694824</ele>
        <extensions>
          <gpxtpx:TrackPointExtension xmlns:gpxtpx="http://www.garmin.com/xmlschemas/TrackPointExtension/v1">
            <gpxtpx:hr>135</gpxtpx:hr>
          </gpxtpx:TrackPointExtension>
        </extensions>
      </trkpt>
      <trkpt lat="50.65943" lon="5.18565">
        <ele>110.80000305176</ele>
        <extensions>
          <gpxtpx:TrackPointExtension xmlns:gpxtpx="http://www.garmin.com/xmlschemas/TrackPointExtension/v1">
            <gpxtpx:hr>135</gpxtpx:hr>
          </gpxtpx:TrackPointExtension>
        </extensions>
      </trkpt>
      <trkpt lat="50.65936" lon="5.18582">
        <ele>111</ele>
        <extensions>
          <gpxtpx:TrackPointExtension xmlns:gpxtpx="http://www.garmin.com/xmlschemas/TrackPointExtension/v1">
            <gpxtpx:hr>136</gpxtpx:hr>
          </gpxtpx:TrackPointExtension>
        </extensions>
      </trkpt>
      <trkpt lat="50.65915" lon="5.18635">
        <ele>112</ele>
        <extensions>
          <gpxtpx:TrackPointExtension xmlns:gpxtpx="http://www.garmin.com/xmlschemas/TrackPointExtension/v1">
            <gpxtpx:hr>137</gpxtpx:hr>
          </gpxtpx:TrackPointExtension>
        </extensions>
      </trkpt>
      <trkpt lat="50.65897" lon="5.18681">
        <ele>113</ele>
        <extensions>
          <gpxtpx:TrackPointExtension xmlns:gpxtpx="http://www.garmin.com/xmlschemas/TrackPointExtension/v1">
            <gpxtpx:hr>139</gpxtpx:hr>
          </gpxtpx:TrackPointExtension>
        </extensions>
      </trkpt>
      <trkpt lat="50.65894" lon="5.1869">
        <ele>113.19999694824</ele>
        <extensions>
          <gpxtpx:TrackPointExtension xmlns:gpxtpx="http://www.garmin.com/xmlschemas/TrackPointExtension/v1">
            <gpxtpx:hr>139</gpxtpx:hr>
          </gpxtpx:TrackPointExtension>
        </extensions>
      </trkpt>
      <trkpt lat="50.65876" lon="5.18736">
        <ele>114</ele>
        <extensions>
          <gpxtpx:TrackPointExtension xmlns:gpxtpx="http://www.garmin.com/xmlschemas/TrackPointExtension/v1">
            <gpxtpx:hr>140</gpxtpx:hr>
          </gpxtpx:TrackPointExtension>
        </extensions>
      </trkpt>
      <trkpt lat="50.65857" lon="5.18783">
        <ele>114.40000152588</ele>
        <extensions>
          <gpxtpx:TrackPointExtension xmlns:gpxtpx="http://www.garmin.com/xmlschemas/TrackPointExtension/v1">
            <gpxtpx:hr>140</gpxtpx:hr>
          </gpxtpx:TrackPointExtension>
        </extensions>
      </trkpt>
      <trkpt lat="50.65825" lon="5.18864">
        <ele>114.19999694824</ele>
        <extensions>
          <gpxtpx:TrackPointExtension xmlns:gpxtpx="http://www.garmin.com/xmlschemas/TrackPointExtension/v1">
            <gpxtpx:hr>139</gpxtpx:hr>
          </gpxtpx:TrackPointExtension>
        </extensions>
      </trkpt>
      <trkpt lat="50.65817" lon="5.18885">
        <ele>114</ele>
        <extensions>
          <gpxtpx:TrackPointExtension xmlns:gpxtpx="http://www.garmin.com/xmlschemas/TrackPointExtension/v1">
            <gpxtpx:hr>139</gpxtpx:hr>
          </gpxtpx:TrackPointExtension>
        </extensions>
      </trkpt>
      <trkpt lat="50.65788" lon="5.18959">
        <ele>113.59999847412</ele>
        <extensions>
          <gpxtpx:TrackPointExtension xmlns:gpxtpx="http://www.garmin.com/xmlschemas/TrackPointExtension/v1">
            <gpxtpx:hr>139</gpxtpx:hr>
          </gpxtpx:TrackPointExtension>
        </extensions>
      </trkpt>
      <trkpt lat="50.65768" lon="5.19009">
        <ele>113.59999847412</ele>
        <extensions>
          <gpxtpx:TrackPointExtension xmlns:gpxtpx="http://www.garmin.com/xmlschemas/TrackPointExtension/v1">
            <gpxtpx:hr>138</gpxtpx:hr>
          </gpxtpx:TrackPointExtension>
        </extensions>
      </trkpt>
      <trkpt lat="50.65738" lon="5.19086">
        <ele>114</ele>
        <extensions>
          <gpxtpx:TrackPointExtension xmlns:gpxtpx="http://www.garmin.com/xmlschemas/TrackPointExtension/v1">
            <gpxtpx:hr>137</gpxtpx:hr>
          </gpxtpx:TrackPointExtension>
        </extensions>
      </trkpt>
      <trkpt lat="50.65727" lon="5.19115">
        <ele>114</ele>
        <extensions>
          <gpxtpx:TrackPointExtension xmlns:gpxtpx="http://www.garmin.com/xmlschemas/TrackPointExtension/v1">
            <gpxtpx:hr>138</gpxtpx:hr>
          </gpxtpx:TrackPointExtension>
        </extensions>
      </trkpt>
      <trkpt lat="50.65701" lon="5.19184">
        <ele>131.5</ele>
      </trkpt>
      <trkpt lat="50.65684" lon="5.19227">
        <ele>130.9</ele>
      </trkpt>
      <trkpt lat="50.65656" lon="5.19294">
        <ele>115</ele>
        <extensions>
          <gpxtpx:TrackPointExtension xmlns:gpxtpx="http://www.garmin.com/xmlschemas/TrackPointExtension/v1">
            <gpxtpx:hr>135</gpxtpx:hr>
          </gpxtpx:TrackPointExtension>
        </extensions>
      </trkpt>
      <trkpt lat="50.65627" lon="5.1937">
        <ele>114.40000152588</ele>
        <extensions>
          <gpxtpx:TrackPointExtension xmlns:gpxtpx="http://www.garmin.com/xmlschemas/TrackPointExtension/v1">
            <gpxtpx:hr>132</gpxtpx:hr>
          </gpxtpx:TrackPointExtension>
        </extensions>
      </trkpt>
      <trkpt lat="50.65617" lon="5.19397">
        <ele>114</ele>
        <extensions>
          <gpxtpx:TrackPointExtension xmlns:gpxtpx="http://www.garmin.com/xmlschemas/TrackPointExtension/v1">
            <gpxtpx:hr>132</gpxtpx:hr>
          </gpxtpx:TrackPointExtension>
        </extensions>
      </trkpt>
      <trkpt lat="50.65601" lon="5.19436">
        <ele>112.59999847412</ele>
        <extensions>
          <gpxtpx:TrackPointExtension xmlns:gpxtpx="http://www.garmin.com/xmlschemas/TrackPointExtension/v1">
            <gpxtpx:hr>131</gpxtpx:hr>
          </gpxtpx:TrackPointExtension>
        </extensions>
      </trkpt>
      <trkpt lat="50.65591" lon="5.19461">
        <ele>111.59999847412</ele>
        <extensions>
          <gpxtpx:TrackPointExtension xmlns:gpxtpx="http://www.garmin.com/xmlschemas/TrackPointExtension/v1">
            <gpxtpx:hr>130</gpxtpx:hr>
          </gpxtpx:TrackPointExtension>
        </extensions>
      </trkpt>
      <trkpt lat="50.65576" lon="5.19497">
        <ele>110.40000152588</ele>
        <extensions>
          <gpxtpx:TrackPointExtension xmlns:gpxtpx="http://www.garmin.com/xmlschemas/TrackPointExtension/v1">
            <gpxtpx:hr>126</gpxtpx:hr>
          </gpxtpx:TrackPointExtension>
        </extensions>
      </trkpt>
      <trkpt lat="50.65567" lon="5.1952">
        <ele>110</ele>
        <extensions>
          <gpxtpx:TrackPointExtension xmlns:gpxtpx="http://www.garmin.com/xmlschemas/TrackPointExtension/v1">
            <gpxtpx:hr>123</gpxtpx:hr>
          </gpxtpx:TrackPointExtension>
        </extensions>
      </trkpt>
      <trkpt lat="50.65536" lon="5.19596">
        <ele>109.59999847412</ele>
        <extensions>
          <gpxtpx:TrackPointExtension xmlns:gpxtpx="http://www.garmin.com/xmlschemas/TrackPointExtension/v1">
            <gpxtpx:hr>123</gpxtpx:hr>
          </gpxtpx:TrackPointExtension>
        </extensions>
      </trkpt>
      <trkpt lat="50.65502" lon="5.19665">
        <ele>109.80000305176</ele>
        <extensions>
          <gpxtpx:TrackPointExtension xmlns:gpxtpx="http://www.garmin.com/xmlschemas/TrackPointExtension/v1">
            <gpxtpx:hr>125</gpxtpx:hr>
          </gpxtpx:TrackPointExtension>
        </extensions>
      </trkpt>
      <trkpt lat="50.65475" lon="5.19718">
        <ele>110.80000305176</ele>
        <extensions>
          <gpxtpx:TrackPointExtension xmlns:gpxtpx="http://www.garmin.com/xmlschemas/TrackPointExtension/v1">
            <gpxtpx:hr>127</gpxtpx:hr>
          </gpxtpx:TrackPointExtension>
        </extensions>
      </trkpt>
      <trkpt lat="50.6546" lon="5.19738">
        <ele>111.40000152588</ele>
        <extensions>
          <gpxtpx:TrackPointExtension xmlns:gpxtpx="http://www.garmin.com/xmlschemas/TrackPointExtension/v1">
            <gpxtpx:hr>128</gpxtpx:hr>
          </gpxtpx:TrackPointExtension>
        </extensions>
      </trkpt>
      <trkpt lat="50.6543" lon="5.19783">
        <ele>112</ele>
        <extensions>
          <gpxtpx:TrackPointExtension xmlns:gpxtpx="http://www.garmin.com/xmlschemas/TrackPointExtension/v1">
            <gpxtpx:hr>130</gpxtpx:hr>
          </gpxtpx:TrackPointExtension>
        </extensions>
      </trkpt>
      <trkpt lat="50.65406" lon="5.19818">
        <ele>112.40000152588</ele>
        <extensions>
          <gpxtpx:TrackPointExtension xmlns:gpxtpx="http://www.garmin.com/xmlschemas/TrackPointExtension/v1">
            <gpxtpx:hr>132</gpxtpx:hr>
          </gpxtpx:TrackPointExtension>
        </extensions>
      </trkpt>
      <trkpt lat="50.65392" lon="5.1984">
        <ele>113</ele>
        <extensions>
          <gpxtpx:TrackPointExtension xmlns:gpxtpx="http://www.garmin.com/xmlschemas/TrackPointExtension/v1">
            <gpxtpx:hr>134</gpxtpx:hr>
          </gpxtpx:TrackPointExtension>
        </extensions>
      </trkpt>
      <trkpt lat="50.65374" lon="5.19869">
        <ele>113.59999847412</ele>
        <extensions>
          <gpxtpx:TrackPointExtension xmlns:gpxtpx="http://www.garmin.com/xmlschemas/TrackPointExtension/v1">
            <gpxtpx:hr>136</gpxtpx:hr>
          </gpxtpx:TrackPointExtension>
        </extensions>
      </trkpt>
      <trkpt lat="50.6536" lon="5.1989">
        <ele>114</ele>
        <extensions>
          <gpxtpx:TrackPointExtension xmlns:gpxtpx="http://www.garmin.com/xmlschemas/TrackPointExtension/v1">
            <gpxtpx:hr>137</gpxtpx:hr>
          </gpxtpx:TrackPointExtension>
        </extensions>
      </trkpt>
      <trkpt lat="50.65355" lon="5.19896">
        <ele>114</ele>
        <extensions>
          <gpxtpx:TrackPointExtension xmlns:gpxtpx="http://www.garmin.com/xmlschemas/TrackPointExtension/v1">
            <gpxtpx:hr>137</gpxtpx:hr>
          </gpxtpx:TrackPointExtension>
        </extensions>
      </trkpt>
      <trkpt lat="50.65335" lon="5.19921">
        <ele>114.59999847412</ele>
        <extensions>
          <gpxtpx:TrackPointExtension xmlns:gpxtpx="http://www.garmin.com/xmlschemas/TrackPointExtension/v1">
            <gpxtpx:hr>138</gpxtpx:hr>
          </gpxtpx:TrackPointExtension>
        </extensions>
      </trkpt>
      <trkpt lat="50.6532" lon="5.19941">
        <ele>115.19999694824</ele>
        <extensions>
          <gpxtpx:TrackPointExtension xmlns:gpxtpx="http://www.garmin.com/xmlschemas/TrackPointExtension/v1">
            <gpxtpx:hr>139</gpxtpx:hr>
          </gpxtpx:TrackPointExtension>
        </extensions>
      </trkpt>
      <trkpt lat="50.6531" lon="5.19953">
        <ele>115.59999847412</ele>
        <extensions>
          <gpxtpx:TrackPointExtension xmlns:gpxtpx="http://www.garmin.com/xmlschemas/TrackPointExtension/v1">
            <gpxtpx:hr>139</gpxtpx:hr>
          </gpxtpx:TrackPointExtension>
        </extensions>
      </trkpt>
      <trkpt lat="50.65279" lon="5.19991">
        <ele>116.40000152588</ele>
        <extensions>
          <gpxtpx:TrackPointExtension xmlns:gpxtpx="http://www.garmin.com/xmlschemas/TrackPointExtension/v1">
            <gpxtpx:hr>141</gpxtpx:hr>
          </gpxtpx:TrackPointExtension>
        </extensions>
      </trkpt>
      <trkpt lat="50.65263" lon="5.2001">
        <ele>116.80000305176</ele>
        <extensions>
          <gpxtpx:TrackPointExtension xmlns:gpxtpx="http://www.garmin.com/xmlschemas/TrackPointExtension/v1">
            <gpxtpx:hr>143</gpxtpx:hr>
          </gpxtpx:TrackPointExtension>
        </extensions>
      </trkpt>
      <trkpt lat="50.65217" lon="5.20066">
        <ele>117.40000152588</ele>
        <extensions>
          <gpxtpx:TrackPointExtension xmlns:gpxtpx="http://www.garmin.com/xmlschemas/TrackPointExtension/v1">
            <gpxtpx:hr>146</gpxtpx:hr>
          </gpxtpx:TrackPointExtension>
        </extensions>
      </trkpt>
      <trkpt lat="50.65204" lon="5.2008">
        <ele>137.2</ele>
      </trkpt>
      <trkpt lat="50.6519" lon="5.20097">
        <ele>138</ele>
      </trkpt>
      <trkpt lat="50.65178" lon="5.20117">
        <ele>118.59999847412</ele>
        <extensions>
          <gpxtpx:TrackPointExtension xmlns:gpxtpx="http://www.garmin.com/xmlschemas/TrackPointExtension/v1">
            <gpxtpx:hr>148</gpxtpx:hr>
          </gpxtpx:TrackPointExtension>
        </extensions>
      </trkpt>
      <trkpt lat="50.65175" lon="5.20124">
        <ele>118.80000305176</ele>
        <extensions>
          <gpxtpx:TrackPointExtension xmlns:gpxtpx="http://www.garmin.com/xmlschemas/TrackPointExtension/v1">
            <gpxtpx:hr>148</gpxtpx:hr>
          </gpxtpx:TrackPointExtension>
        </extensions>
      </trkpt>
      <trkpt lat="50.65163" lon="5.20148">
        <ele>119</ele>
        <extensions>
          <gpxtpx:TrackPointExtension xmlns:gpxtpx="http://www.garmin.com/xmlschemas/TrackPointExtension/v1">
            <gpxtpx:hr>148</gpxtpx:hr>
          </gpxtpx:TrackPointExtension>
        </extensions>
      </trkpt>
      <trkpt lat="50.65158" lon="5.20158">
        <ele>139.1</ele>
      </trkpt>
      <trkpt lat="50.65148" lon="5.20168">
        <ele>120.59999847412</ele>
        <extensions>
          <gpxtpx:TrackPointExtension xmlns:gpxtpx="http://www.garmin.com/xmlschemas/TrackPointExtension/v1">
            <gpxtpx:hr>114</gpxtpx:hr>
          </gpxtpx:TrackPointExtension>
        </extensions>
      </trkpt>
      <trkpt lat="50.65151" lon="5.2018">
        <ele>120.59999847412</ele>
        <extensions>
          <gpxtpx:TrackPointExtension xmlns:gpxtpx="http://www.garmin.com/xmlschemas/TrackPointExtension/v1">
            <gpxtpx:hr>115</gpxtpx:hr>
          </gpxtpx:TrackPointExtension>
        </extensions>
      </trkpt>
      <trkpt lat="50.65159" lon="5.20202">
        <ele>121</ele>
        <extensions>
          <gpxtpx:TrackPointExtension xmlns:gpxtpx="http://www.garmin.com/xmlschemas/TrackPointExtension/v1">
            <gpxtpx:hr>116</gpxtpx:hr>
          </gpxtpx:TrackPointExtension>
        </extensions>
      </trkpt>
      <trkpt lat="50.65161" lon="5.20208">
        <ele>121.19999694824</ele>
        <extensions>
          <gpxtpx:TrackPointExtension xmlns:gpxtpx="http://www.garmin.com/xmlschemas/TrackPointExtension/v1">
            <gpxtpx:hr>116</gpxtpx:hr>
          </gpxtpx:TrackPointExtension>
        </extensions>
      </trkpt>
      <trkpt lat="50.65183" lon="5.2026">
        <ele>121.40000152588</ele>
        <extensions>
          <gpxtpx:TrackPointExtension xmlns:gpxtpx="http://www.garmin.com/xmlschemas/TrackPointExtension/v1">
            <gpxtpx:hr>118</gpxtpx:hr>
          </gpxtpx:TrackPointExtension>
        </extensions>
      </trkpt>
      <trkpt lat="50.65206" lon="5.20306">
        <ele>121.59999847412</ele>
        <extensions>
          <gpxtpx:TrackPointExtension xmlns:gpxtpx="http://www.garmin.com/xmlschemas/TrackPointExtension/v1">
            <gpxtpx:hr>121</gpxtpx:hr>
          </gpxtpx:TrackPointExtension>
        </extensions>
      </trkpt>
      <trkpt lat="50.65214" lon="5.20321">
        <ele>121.59999847412</ele>
        <extensions>
          <gpxtpx:TrackPointExtension xmlns:gpxtpx="http://www.garmin.com/xmlschemas/TrackPointExtension/v1">
            <gpxtpx:hr>122</gpxtpx:hr>
          </gpxtpx:TrackPointExtension>
        </extensions>
      </trkpt>
      <trkpt lat="50.65218" lon="5.20328">
        <ele>121.59999847412</ele>
        <extensions>
          <gpxtpx:TrackPointExtension xmlns:gpxtpx="http://www.garmin.com/xmlschemas/TrackPointExtension/v1">
            <gpxtpx:hr>122</gpxtpx:hr>
          </gpxtpx:TrackPointExtension>
        </extensions>
      </trkpt>
      <trkpt lat="50.65226" lon="5.20342">
        <ele>140</ele>
      </trkpt>
      <trkpt lat="50.65215" lon="5.20361">
        <ele>121.40000152588</ele>
        <extensions>
          <gpxtpx:TrackPointExtension xmlns:gpxtpx="http://www.garmin.com/xmlschemas/TrackPointExtension/v1">
            <gpxtpx:hr>124</gpxtpx:hr>
          </gpxtpx:TrackPointExtension>
        </extensions>
      </trkpt>
      <trkpt lat="50.65212" lon="5.20368">
        <ele>121.40000152588</ele>
        <extensions>
          <gpxtpx:TrackPointExtension xmlns:gpxtpx="http://www.garmin.com/xmlschemas/TrackPointExtension/v1">
            <gpxtpx:hr>124</gpxtpx:hr>
          </gpxtpx:TrackPointExtension>
        </extensions>
      </trkpt>
      <trkpt lat="50.65207" lon="5.20385">
        <ele>121.40000152588</ele>
        <extensions>
          <gpxtpx:TrackPointExtension xmlns:gpxtpx="http://www.garmin.com/xmlschemas/TrackPointExtension/v1">
            <gpxtpx:hr>125</gpxtpx:hr>
          </gpxtpx:TrackPointExtension>
        </extensions>
      </trkpt>
      <trkpt lat="50.65204" lon="5.20412">
        <ele>121.40000152588</ele>
        <extensions>
          <gpxtpx:TrackPointExtension xmlns:gpxtpx="http://www.garmin.com/xmlschemas/TrackPointExtension/v1">
            <gpxtpx:hr>127</gpxtpx:hr>
          </gpxtpx:TrackPointExtension>
        </extensions>
      </trkpt>
      <trkpt lat="50.65205" lon="5.20431">
        <ele>121.40000152588</ele>
        <extensions>
          <gpxtpx:TrackPointExtension xmlns:gpxtpx="http://www.garmin.com/xmlschemas/TrackPointExtension/v1">
            <gpxtpx:hr>128</gpxtpx:hr>
          </gpxtpx:TrackPointExtension>
        </extensions>
      </trkpt>
      <trkpt lat="50.65207" lon="5.20462">
        <ele>121.59999847412</ele>
        <extensions>
          <gpxtpx:TrackPointExtension xmlns:gpxtpx="http://www.garmin.com/xmlschemas/TrackPointExtension/v1">
            <gpxtpx:hr>129</gpxtpx:hr>
          </gpxtpx:TrackPointExtension>
        </extensions>
      </trkpt>
      <trkpt lat="50.65207" lon="5.20472">
        <ele>121.80000305176</ele>
        <extensions>
          <gpxtpx:TrackPointExtension xmlns:gpxtpx="http://www.garmin.com/xmlschemas/TrackPointExtension/v1">
            <gpxtpx:hr>129</gpxtpx:hr>
          </gpxtpx:TrackPointExtension>
        </extensions>
      </trkpt>
      <trkpt lat="50.65212" lon="5.20557">
        <ele>122.59999847412</ele>
        <extensions>
          <gpxtpx:TrackPointExtension xmlns:gpxtpx="http://www.garmin.com/xmlschemas/TrackPointExtension/v1">
            <gpxtpx:hr>131</gpxtpx:hr>
          </gpxtpx:TrackPointExtension>
        </extensions>
      </trkpt>
      <trkpt lat="50.65212" lon="5.20568">
        <ele>122.59999847412</ele>
        <extensions>
          <gpxtpx:TrackPointExtension xmlns:gpxtpx="http://www.garmin.com/xmlschemas/TrackPointExtension/v1">
            <gpxtpx:hr>131</gpxtpx:hr>
          </gpxtpx:TrackPointExtension>
        </extensions>
      </trkpt>
      <trkpt lat="50.65213" lon="5.20579">
        <ele>122.80000305176</ele>
        <extensions>
          <gpxtpx:TrackPointExtension xmlns:gpxtpx="http://www.garmin.com/xmlschemas/TrackPointExtension/v1">
            <gpxtpx:hr>132</gpxtpx:hr>
          </gpxtpx:TrackPointExtension>
        </extensions>
      </trkpt>
      <trkpt lat="50.65217" lon="5.20665">
        <ele>123</ele>
        <extensions>
          <gpxtpx:TrackPointExtension xmlns:gpxtpx="http://www.garmin.com/xmlschemas/TrackPointExtension/v1">
            <gpxtpx:hr>134</gpxtpx:hr>
          </gpxtpx:TrackPointExtension>
        </extensions>
      </trkpt>
      <trkpt lat="50.65217" lon="5.20676">
        <ele>123</ele>
        <extensions>
          <gpxtpx:TrackPointExtension xmlns:gpxtpx="http://www.garmin.com/xmlschemas/TrackPointExtension/v1">
            <gpxtpx:hr>134</gpxtpx:hr>
          </gpxtpx:TrackPointExtension>
        </extensions>
      </trkpt>
      <trkpt lat="50.65222" lon="5.20764">
        <ele>123.19999694824</ele>
        <extensions>
          <gpxtpx:TrackPointExtension xmlns:gpxtpx="http://www.garmin.com/xmlschemas/TrackPointExtension/v1">
            <gpxtpx:hr>135</gpxtpx:hr>
          </gpxtpx:TrackPointExtension>
        </extensions>
      </trkpt>
      <trkpt lat="50.65222" lon="5.20775">
        <ele>123.19999694824</ele>
        <extensions>
          <gpxtpx:TrackPointExtension xmlns:gpxtpx="http://www.garmin.com/xmlschemas/TrackPointExtension/v1">
            <gpxtpx:hr>136</gpxtpx:hr>
          </gpxtpx:TrackPointExtension>
        </extensions>
      </trkpt>
      <trkpt lat="50.65227" lon="5.20865">
        <ele>123.59999847412</ele>
        <extensions>
          <gpxtpx:TrackPointExtension xmlns:gpxtpx="http://www.garmin.com/xmlschemas/TrackPointExtension/v1">
            <gpxtpx:hr>138</gpxtpx:hr>
          </gpxtpx:TrackPointExtension>
        </extensions>
      </trkpt>
      <trkpt lat="50.65227" lon="5.20876">
        <ele>123.59999847412</ele>
        <extensions>
          <gpxtpx:TrackPointExtension xmlns:gpxtpx="http://www.garmin.com/xmlschemas/TrackPointExtension/v1">
            <gpxtpx:hr>138</gpxtpx:hr>
          </gpxtpx:TrackPointExtension>
        </extensions>
      </trkpt>
      <trkpt lat="50.65232" lon="5.20967">
        <ele>124</ele>
        <extensions>
          <gpxtpx:TrackPointExtension xmlns:gpxtpx="http://www.garmin.com/xmlschemas/TrackPointExtension/v1">
            <gpxtpx:hr>140</gpxtpx:hr>
          </gpxtpx:TrackPointExtension>
        </extensions>
      </trkpt>
      <trkpt lat="50.65233" lon="5.20979">
        <ele>124</ele>
        <extensions>
          <gpxtpx:TrackPointExtension xmlns:gpxtpx="http://www.garmin.com/xmlschemas/TrackPointExtension/v1">
            <gpxtpx:hr>140</gpxtpx:hr>
          </gpxtpx:TrackPointExtension>
        </extensions>
      </trkpt>
      <trkpt lat="50.65234" lon="5.21013">
        <ele>124.40000152588</ele>
        <extensions>
          <gpxtpx:TrackPointExtension xmlns:gpxtpx="http://www.garmin.com/xmlschemas/TrackPointExtension/v1">
            <gpxtpx:hr>140</gpxtpx:hr>
          </gpxtpx:TrackPointExtension>
        </extensions>
      </trkpt>
      <trkpt lat="50.65239" lon="5.21104">
        <ele>125</ele>
        <extensions>
          <gpxtpx:TrackPointExtension xmlns:gpxtpx="http://www.garmin.com/xmlschemas/TrackPointExtension/v1">
            <gpxtpx:hr>140</gpxtpx:hr>
          </gpxtpx:TrackPointExtension>
        </extensions>
      </trkpt>
      <trkpt lat="50.65244" lon="5.21199">
        <ele>125.19999694824</ele>
        <extensions>
          <gpxtpx:TrackPointExtension xmlns:gpxtpx="http://www.garmin.com/xmlschemas/TrackPointExtension/v1">
            <gpxtpx:hr>139</gpxtpx:hr>
          </gpxtpx:TrackPointExtension>
        </extensions>
      </trkpt>
      <trkpt lat="50.65246" lon="5.21235">
        <ele>125.40000152588</ele>
        <extensions>
          <gpxtpx:TrackPointExtension xmlns:gpxtpx="http://www.garmin.com/xmlschemas/TrackPointExtension/v1">
            <gpxtpx:hr>138</gpxtpx:hr>
          </gpxtpx:TrackPointExtension>
        </extensions>
      </trkpt>
      <trkpt lat="50.6525" lon="5.21325">
        <ele>124.80000305176</ele>
        <extensions>
          <gpxtpx:TrackPointExtension xmlns:gpxtpx="http://www.garmin.com/xmlschemas/TrackPointExtension/v1">
            <gpxtpx:hr>136</gpxtpx:hr>
          </gpxtpx:TrackPointExtension>
        </extensions>
      </trkpt>
      <trkpt lat="50.65251" lon="5.21338">
        <ele>124.59999847412</ele>
        <extensions>
          <gpxtpx:TrackPointExtension xmlns:gpxtpx="http://www.garmin.com/xmlschemas/TrackPointExtension/v1">
            <gpxtpx:hr>136</gpxtpx:hr>
          </gpxtpx:TrackPointExtension>
        </extensions>
      </trkpt>
      <trkpt lat="50.65253" lon="5.21383">
        <ele>141</ele>
      </trkpt>
      <trkpt lat="50.65257" lon="5.2142">
        <ele>123.59999847412</ele>
        <extensions>
          <gpxtpx:TrackPointExtension xmlns:gpxtpx="http://www.garmin.com/xmlschemas/TrackPointExtension/v1">
            <gpxtpx:hr>133</gpxtpx:hr>
          </gpxtpx:TrackPointExtension>
        </extensions>
      </trkpt>
      <trkpt lat="50.65258" lon="5.21434">
        <ele>123.19999694824</ele>
        <extensions>
          <gpxtpx:TrackPointExtension xmlns:gpxtpx="http://www.garmin.com/xmlschemas/TrackPointExtension/v1">
            <gpxtpx:hr>133</gpxtpx:hr>
          </gpxtpx:TrackPointExtension>
        </extensions>
      </trkpt>
      <trkpt lat="50.65259" lon="5.21448">
        <ele>123</ele>
        <extensions>
          <gpxtpx:TrackPointExtension xmlns:gpxtpx="http://www.garmin.com/xmlschemas/TrackPointExtension/v1">
            <gpxtpx:hr>132</gpxtpx:hr>
          </gpxtpx:TrackPointExtension>
        </extensions>
      </trkpt>
      <trkpt lat="50.65267" lon="5.21501">
        <ele>122.40000152588</ele>
        <extensions>
          <gpxtpx:TrackPointExtension xmlns:gpxtpx="http://www.garmin.com/xmlschemas/TrackPointExtension/v1">
            <gpxtpx:hr>129</gpxtpx:hr>
          </gpxtpx:TrackPointExtension>
        </extensions>
      </trkpt>
      <trkpt lat="50.65272" lon="5.21527">
        <ele>122.19999694824</ele>
        <extensions>
          <gpxtpx:TrackPointExtension xmlns:gpxtpx="http://www.garmin.com/xmlschemas/TrackPointExtension/v1">
            <gpxtpx:hr>128</gpxtpx:hr>
          </gpxtpx:TrackPointExtension>
        </extensions>
      </trkpt>
      <trkpt lat="50.65277" lon="5.21554">
        <ele>122</ele>
        <extensions>
          <gpxtpx:TrackPointExtension xmlns:gpxtpx="http://www.garmin.com/xmlschemas/TrackPointExtension/v1">
            <gpxtpx:hr>127</gpxtpx:hr>
          </gpxtpx:TrackPointExtension>
        </extensions>
      </trkpt>
      <trkpt lat="50.65289" lon="5.21604">
        <ele>121</ele>
        <extensions>
          <gpxtpx:TrackPointExtension xmlns:gpxtpx="http://www.garmin.com/xmlschemas/TrackPointExtension/v1">
            <gpxtpx:hr>125</gpxtpx:hr>
          </gpxtpx:TrackPointExtension>
        </extensions>
      </trkpt>
      <trkpt lat="50.65299" lon="5.2164">
        <ele>120.59999847412</ele>
        <extensions>
          <gpxtpx:TrackPointExtension xmlns:gpxtpx="http://www.garmin.com/xmlschemas/TrackPointExtension/v1">
            <gpxtpx:hr>123</gpxtpx:hr>
          </gpxtpx:TrackPointExtension>
        </extensions>
      </trkpt>
      <trkpt lat="50.65313" lon="5.21684">
        <ele>136</ele>
      </trkpt>
      <trkpt lat="50.65327" lon="5.21722">
        <ele>120</ele>
        <extensions>
          <gpxtpx:TrackPointExtension xmlns:gpxtpx="http://www.garmin.com/xmlschemas/TrackPointExtension/v1">
            <gpxtpx:hr>124</gpxtpx:hr>
          </gpxtpx:TrackPointExtension>
        </extensions>
      </trkpt>
      <trkpt lat="50.65331" lon="5.21734">
        <ele>120</ele>
        <extensions>
          <gpxtpx:TrackPointExtension xmlns:gpxtpx="http://www.garmin.com/xmlschemas/TrackPointExtension/v1">
            <gpxtpx:hr>124</gpxtpx:hr>
          </gpxtpx:TrackPointExtension>
        </extensions>
      </trkpt>
      <trkpt lat="50.65366" lon="5.21813">
        <ele>119.80000305176</ele>
        <extensions>
          <gpxtpx:TrackPointExtension xmlns:gpxtpx="http://www.garmin.com/xmlschemas/TrackPointExtension/v1">
            <gpxtpx:hr>126</gpxtpx:hr>
          </gpxtpx:TrackPointExtension>
        </extensions>
      </trkpt>
      <trkpt lat="50.65376" lon="5.21835">
        <ele>119.59999847412</ele>
        <extensions>
          <gpxtpx:TrackPointExtension xmlns:gpxtpx="http://www.garmin.com/xmlschemas/TrackPointExtension/v1">
            <gpxtpx:hr>127</gpxtpx:hr>
          </gpxtpx:TrackPointExtension>
        </extensions>
      </trkpt>
      <trkpt lat="50.6541" lon="5.21911">
        <ele>119</ele>
        <extensions>
          <gpxtpx:TrackPointExtension xmlns:gpxtpx="http://www.garmin.com/xmlschemas/TrackPointExtension/v1">
            <gpxtpx:hr>130</gpxtpx:hr>
          </gpxtpx:TrackPointExtension>
        </extensions>
      </trkpt>
      <trkpt lat="50.65441" lon="5.21982">
        <ele>118.59999847412</ele>
        <extensions>
          <gpxtpx:TrackPointExtension xmlns:gpxtpx="http://www.garmin.com/xmlschemas/TrackPointExtension/v1">
            <gpxtpx:hr>132</gpxtpx:hr>
          </gpxtpx:TrackPointExtension>
        </extensions>
      </trkpt>
      <trkpt lat="50.6545" lon="5.22002">
        <ele>118.59999847412</ele>
        <extensions>
          <gpxtpx:TrackPointExtension xmlns:gpxtpx="http://www.garmin.com/xmlschemas/TrackPointExtension/v1">
            <gpxtpx:hr>133</gpxtpx:hr>
          </gpxtpx:TrackPointExtension>
        </extensions>
      </trkpt>
      <trkpt lat="50.65485" lon="5.22079">
        <ele>118.59999847412</ele>
        <extensions>
          <gpxtpx:TrackPointExtension xmlns:gpxtpx="http://www.garmin.com/xmlschemas/TrackPointExtension/v1">
            <gpxtpx:hr>135</gpxtpx:hr>
          </gpxtpx:TrackPointExtension>
        </extensions>
      </trkpt>
      <trkpt lat="50.65489" lon="5.22089">
        <ele>118.59999847412</ele>
        <extensions>
          <gpxtpx:TrackPointExtension xmlns:gpxtpx="http://www.garmin.com/xmlschemas/TrackPointExtension/v1">
            <gpxtpx:hr>135</gpxtpx:hr>
          </gpxtpx:TrackPointExtension>
        </extensions>
      </trkpt>
      <trkpt lat="50.65515" lon="5.22148">
        <ele>118.40000152588</ele>
        <extensions>
          <gpxtpx:TrackPointExtension xmlns:gpxtpx="http://www.garmin.com/xmlschemas/TrackPointExtension/v1">
            <gpxtpx:hr>138</gpxtpx:hr>
          </gpxtpx:TrackPointExtension>
        </extensions>
      </trkpt>
      <trkpt lat="50.65522" lon="5.22169">
        <ele>118.40000152588</ele>
        <extensions>
          <gpxtpx:TrackPointExtension xmlns:gpxtpx="http://www.garmin.com/xmlschemas/TrackPointExtension/v1">
            <gpxtpx:hr>138</gpxtpx:hr>
          </gpxtpx:TrackPointExtension>
        </extensions>
      </trkpt>
      <trkpt lat="50.65537" lon="5.22233">
        <ele>118.40000152588</ele>
        <extensions>
          <gpxtpx:TrackPointExtension xmlns:gpxtpx="http://www.garmin.com/xmlschemas/TrackPointExtension/v1">
            <gpxtpx:hr>140</gpxtpx:hr>
          </gpxtpx:TrackPointExtension>
        </extensions>
      </trkpt>
      <trkpt lat="50.65553" lon="5.22319">
        <ele>118.59999847412</ele>
        <extensions>
          <gpxtpx:TrackPointExtension xmlns:gpxtpx="http://www.garmin.com/xmlschemas/TrackPointExtension/v1">
            <gpxtpx:hr>143</gpxtpx:hr>
          </gpxtpx:TrackPointExtension>
        </extensions>
      </trkpt>
      <trkpt lat="50.65558" lon="5.22351">
        <ele>118.59999847412</ele>
        <extensions>
          <gpxtpx:TrackPointExtension xmlns:gpxtpx="http://www.garmin.com/xmlschemas/TrackPointExtension/v1">
            <gpxtpx:hr>144</gpxtpx:hr>
          </gpxtpx:TrackPointExtension>
        </extensions>
      </trkpt>
      <trkpt lat="50.65568" lon="5.22431">
        <ele>139.3</ele>
      </trkpt>
      <trkpt lat="50.65574" lon="5.225">
        <ele>119.80000305176</ele>
        <extensions>
          <gpxtpx:TrackPointExtension xmlns:gpxtpx="http://www.garmin.com/xmlschemas/TrackPointExtension/v1">
            <gpxtpx:hr>146</gpxtpx:hr>
          </gpxtpx:TrackPointExtension>
        </extensions>
      </trkpt>
      <trkpt lat="50.65577" lon="5.22554">
        <ele>120</ele>
        <extensions>
          <gpxtpx:TrackPointExtension xmlns:gpxtpx="http://www.garmin.com/xmlschemas/TrackPointExtension/v1">
            <gpxtpx:hr>146</gpxtpx:hr>
          </gpxtpx:TrackPointExtension>
        </extensions>
      </trkpt>
      <trkpt lat="50.65579" lon="5.22593">
        <ele>120.59999847412</ele>
        <extensions>
          <gpxtpx:TrackPointExtension xmlns:gpxtpx="http://www.garmin.com/xmlschemas/TrackPointExtension/v1">
            <gpxtpx:hr>146</gpxtpx:hr>
          </gpxtpx:TrackPointExtension>
        </extensions>
      </trkpt>
      <trkpt lat="50.65581" lon="5.22611">
        <ele>121</ele>
        <extensions>
          <gpxtpx:TrackPointExtension xmlns:gpxtpx="http://www.garmin.com/xmlschemas/TrackPointExtension/v1">
            <gpxtpx:hr>146</gpxtpx:hr>
          </gpxtpx:TrackPointExtension>
        </extensions>
      </trkpt>
      <trkpt lat="50.65586" lon="5.22633">
        <ele>141.3</ele>
      </trkpt>
      <trkpt lat="50.65601" lon="5.22653">
        <ele>121.80000305176</ele>
        <extensions>
          <gpxtpx:TrackPointExtension xmlns:gpxtpx="http://www.garmin.com/xmlschemas/TrackPointExtension/v1">
            <gpxtpx:hr>147</gpxtpx:hr>
          </gpxtpx:TrackPointExtension>
        </extensions>
      </trkpt>
      <trkpt lat="50.65616" lon="5.22668">
        <ele>122.19999694824</ele>
        <extensions>
          <gpxtpx:TrackPointExtension xmlns:gpxtpx="http://www.garmin.com/xmlschemas/TrackPointExtension/v1">
            <gpxtpx:hr>147</gpxtpx:hr>
          </gpxtpx:TrackPointExtension>
        </extensions>
      </trkpt>
      <trkpt lat="50.65641" lon="5.2269">
        <ele>122.80000305176</ele>
        <extensions>
          <gpxtpx:TrackPointExtension xmlns:gpxtpx="http://www.garmin.com/xmlschemas/TrackPointExtension/v1">
            <gpxtpx:hr>148</gpxtpx:hr>
          </gpxtpx:TrackPointExtension>
        </extensions>
      </trkpt>
      <trkpt lat="50.65662" lon="5.22709">
        <ele>123.19999694824</ele>
        <extensions>
          <gpxtpx:TrackPointExtension xmlns:gpxtpx="http://www.garmin.com/xmlschemas/TrackPointExtension/v1">
            <gpxtpx:hr>149</gpxtpx:hr>
          </gpxtpx:TrackPointExtension>
        </extensions>
      </trkpt>
      <trkpt lat="50.65679" lon="5.22725">
        <ele>123.40000152588</ele>
        <extensions>
          <gpxtpx:TrackPointExtension xmlns:gpxtpx="http://www.garmin.com/xmlschemas/TrackPointExtension/v1">
            <gpxtpx:hr>149</gpxtpx:hr>
          </gpxtpx:TrackPointExtension>
        </extensions>
      </trkpt>
      <trkpt lat="50.65728" lon="5.22772">
        <ele>123.40000152588</ele>
        <extensions>
          <gpxtpx:TrackPointExtension xmlns:gpxtpx="http://www.garmin.com/xmlschemas/TrackPointExtension/v1">
            <gpxtpx:hr>149</gpxtpx:hr>
          </gpxtpx:TrackPointExtension>
        </extensions>
      </trkpt>
      <trkpt lat="50.65733" lon="5.22778">
        <ele>123.40000152588</ele>
        <extensions>
          <gpxtpx:TrackPointExtension xmlns:gpxtpx="http://www.garmin.com/xmlschemas/TrackPointExtension/v1">
            <gpxtpx:hr>148</gpxtpx:hr>
          </gpxtpx:TrackPointExtension>
        </extensions>
      </trkpt>
      <trkpt lat="50.65739" lon="5.22796">
        <ele>123.40000152588</ele>
        <extensions>
          <gpxtpx:TrackPointExtension xmlns:gpxtpx="http://www.garmin.com/xmlschemas/TrackPointExtension/v1">
            <gpxtpx:hr>148</gpxtpx:hr>
          </gpxtpx:TrackPointExtension>
        </extensions>
      </trkpt>
      <trkpt lat="50.65741" lon="5.22809">
        <ele>143</ele>
      </trkpt>
      <trkpt lat="50.65736" lon="5.22826">
        <ele>142.5</ele>
      </trkpt>
      <trkpt lat="50.6572" lon="5.22864">
        <ele>141.6</ele>
      </trkpt>
      <trkpt lat="50.657" lon="5.22922">
        <ele>139.1</ele>
      </trkpt>
      <trkpt lat="50.65689" lon="5.22947">
        <ele>138.7</ele>
      </trkpt>
      <trkpt lat="50.6568" lon="5.22972">
        <ele>138.2</ele>
      </trkpt>
      <trkpt lat="50.65666" lon="5.23009">
        <ele>121.59999847412</ele>
        <extensions>
          <gpxtpx:TrackPointExtension xmlns:gpxtpx="http://www.garmin.com/xmlschemas/TrackPointExtension/v1">
            <gpxtpx:hr>135</gpxtpx:hr>
          </gpxtpx:TrackPointExtension>
        </extensions>
      </trkpt>
      <trkpt lat="50.65657" lon="5.23031">
        <ele>121</ele>
        <extensions>
          <gpxtpx:TrackPointExtension xmlns:gpxtpx="http://www.garmin.com/xmlschemas/TrackPointExtension/v1">
            <gpxtpx:hr>133</gpxtpx:hr>
          </gpxtpx:TrackPointExtension>
        </extensions>
      </trkpt>
      <trkpt lat="50.65643" lon="5.23065">
        <ele>119.80000305176</ele>
        <extensions>
          <gpxtpx:TrackPointExtension xmlns:gpxtpx="http://www.garmin.com/xmlschemas/TrackPointExtension/v1">
            <gpxtpx:hr>130</gpxtpx:hr>
          </gpxtpx:TrackPointExtension>
        </extensions>
      </trkpt>
      <trkpt lat="50.65625" lon="5.23111">
        <ele>118.59999847412</ele>
        <extensions>
          <gpxtpx:TrackPointExtension xmlns:gpxtpx="http://www.garmin.com/xmlschemas/TrackPointExtension/v1">
            <gpxtpx:hr>128</gpxtpx:hr>
          </gpxtpx:TrackPointExtension>
        </extensions>
      </trkpt>
      <trkpt lat="50.65621" lon="5.23123">
        <ele>118.19999694824</ele>
        <extensions>
          <gpxtpx:TrackPointExtension xmlns:gpxtpx="http://www.garmin.com/xmlschemas/TrackPointExtension/v1">
            <gpxtpx:hr>128</gpxtpx:hr>
          </gpxtpx:TrackPointExtension>
        </extensions>
      </trkpt>
      <trkpt lat="50.65608" lon="5.23158">
        <ele>117.40000152588</ele>
        <extensions>
          <gpxtpx:TrackPointExtension xmlns:gpxtpx="http://www.garmin.com/xmlschemas/TrackPointExtension/v1">
            <gpxtpx:hr>126</gpxtpx:hr>
          </gpxtpx:TrackPointExtension>
        </extensions>
      </trkpt>
      <trkpt lat="50.65592" lon="5.23201">
        <ele>117</ele>
        <extensions>
          <gpxtpx:TrackPointExtension xmlns:gpxtpx="http://www.garmin.com/xmlschemas/TrackPointExtension/v1">
            <gpxtpx:hr>123</gpxtpx:hr>
          </gpxtpx:TrackPointExtension>
        </extensions>
      </trkpt>
      <trkpt lat="50.65565" lon="5.23273">
        <ele>134.9</ele>
      </trkpt>
      <trkpt lat="50.65539" lon="5.23359">
        <ele>135.5</ele>
      </trkpt>
      <trkpt lat="50.65529" lon="5.23384">
        <ele>136</ele>
      </trkpt>
      <trkpt lat="50.65536" lon="5.23438">
        <ele>117.59999847412</ele>
        <extensions>
          <gpxtpx:TrackPointExtension xmlns:gpxtpx="http://www.garmin.com/xmlschemas/TrackPointExtension/v1">
            <gpxtpx:hr>127</gpxtpx:hr>
          </gpxtpx:TrackPointExtension>
        </extensions>
      </trkpt>
      <trkpt lat="50.65543" lon="5.23494">
        <ele>118.19999694824</ele>
        <extensions>
          <gpxtpx:TrackPointExtension xmlns:gpxtpx="http://www.garmin.com/xmlschemas/TrackPointExtension/v1">
            <gpxtpx:hr>130</gpxtpx:hr>
          </gpxtpx:TrackPointExtension>
        </extensions>
      </trkpt>
      <trkpt lat="50.65544" lon="5.23506">
        <ele>118.19999694824</ele>
        <extensions>
          <gpxtpx:TrackPointExtension xmlns:gpxtpx="http://www.garmin.com/xmlschemas/TrackPointExtension/v1">
            <gpxtpx:hr>130</gpxtpx:hr>
          </gpxtpx:TrackPointExtension>
        </extensions>
      </trkpt>
      <trkpt lat="50.65545" lon="5.23517">
        <ele>118.40000152588</ele>
        <extensions>
          <gpxtpx:TrackPointExtension xmlns:gpxtpx="http://www.garmin.com/xmlschemas/TrackPointExtension/v1">
            <gpxtpx:hr>130</gpxtpx:hr>
          </gpxtpx:TrackPointExtension>
        </extensions>
      </trkpt>
      <trkpt lat="50.65544" lon="5.23573">
        <ele>118.80000305176</ele>
        <extensions>
          <gpxtpx:TrackPointExtension xmlns:gpxtpx="http://www.garmin.com/xmlschemas/TrackPointExtension/v1">
            <gpxtpx:hr>133</gpxtpx:hr>
          </gpxtpx:TrackPointExtension>
        </extensions>
      </trkpt>
      <trkpt lat="50.65543" lon="5.23607">
        <ele>119</ele>
        <extensions>
          <gpxtpx:TrackPointExtension xmlns:gpxtpx="http://www.garmin.com/xmlschemas/TrackPointExtension/v1">
            <gpxtpx:hr>133</gpxtpx:hr>
          </gpxtpx:TrackPointExtension>
        </extensions>
      </trkpt>
      <trkpt lat="50.65539" lon="5.23697">
        <ele>119</ele>
        <extensions>
          <gpxtpx:TrackPointExtension xmlns:gpxtpx="http://www.garmin.com/xmlschemas/TrackPointExtension/v1">
            <gpxtpx:hr>135</gpxtpx:hr>
          </gpxtpx:TrackPointExtension>
        </extensions>
      </trkpt>
      <trkpt lat="50.65538" lon="5.23719">
        <ele>119</ele>
        <extensions>
          <gpxtpx:TrackPointExtension xmlns:gpxtpx="http://www.garmin.com/xmlschemas/TrackPointExtension/v1">
            <gpxtpx:hr>136</gpxtpx:hr>
          </gpxtpx:TrackPointExtension>
        </extensions>
      </trkpt>
      <trkpt lat="50.65534" lon="5.23805">
        <ele>119</ele>
        <extensions>
          <gpxtpx:TrackPointExtension xmlns:gpxtpx="http://www.garmin.com/xmlschemas/TrackPointExtension/v1">
            <gpxtpx:hr>138</gpxtpx:hr>
          </gpxtpx:TrackPointExtension>
        </extensions>
      </trkpt>
      <trkpt lat="50.65525" lon="5.23879">
        <ele>119.19999694824</ele>
        <extensions>
          <gpxtpx:TrackPointExtension xmlns:gpxtpx="http://www.garmin.com/xmlschemas/TrackPointExtension/v1">
            <gpxtpx:hr>139</gpxtpx:hr>
          </gpxtpx:TrackPointExtension>
        </extensions>
      </trkpt>
      <trkpt lat="50.65523" lon="5.23889">
        <ele>119.40000152588</ele>
        <extensions>
          <gpxtpx:TrackPointExtension xmlns:gpxtpx="http://www.garmin.com/xmlschemas/TrackPointExtension/v1">
            <gpxtpx:hr>139</gpxtpx:hr>
          </gpxtpx:TrackPointExtension>
        </extensions>
      </trkpt>
      <trkpt lat="50.65507" lon="5.23969">
        <ele>120.19999694824</ele>
        <extensions>
          <gpxtpx:TrackPointExtension xmlns:gpxtpx="http://www.garmin.com/xmlschemas/TrackPointExtension/v1">
            <gpxtpx:hr>142</gpxtpx:hr>
          </gpxtpx:TrackPointExtension>
        </extensions>
      </trkpt>
      <trkpt lat="50.65505" lon="5.23979">
        <ele>120.19999694824</ele>
        <extensions>
          <gpxtpx:TrackPointExtension xmlns:gpxtpx="http://www.garmin.com/xmlschemas/TrackPointExtension/v1">
            <gpxtpx:hr>142</gpxtpx:hr>
          </gpxtpx:TrackPointExtension>
        </extensions>
      </trkpt>
      <trkpt lat="50.65501" lon="5.23999">
        <ele>120.40000152588</ele>
        <extensions>
          <gpxtpx:TrackPointExtension xmlns:gpxtpx="http://www.garmin.com/xmlschemas/TrackPointExtension/v1">
            <gpxtpx:hr>142</gpxtpx:hr>
          </gpxtpx:TrackPointExtension>
        </extensions>
      </trkpt>
      <trkpt lat="50.65487" lon="5.2407">
        <ele>121.59999847412</ele>
        <extensions>
          <gpxtpx:TrackPointExtension xmlns:gpxtpx="http://www.garmin.com/xmlschemas/TrackPointExtension/v1">
            <gpxtpx:hr>144</gpxtpx:hr>
          </gpxtpx:TrackPointExtension>
        </extensions>
      </trkpt>
      <trkpt lat="50.65482" lon="5.241">
        <ele>121.80000305176</ele>
        <extensions>
          <gpxtpx:TrackPointExtension xmlns:gpxtpx="http://www.garmin.com/xmlschemas/TrackPointExtension/v1">
            <gpxtpx:hr>145</gpxtpx:hr>
          </gpxtpx:TrackPointExtension>
        </extensions>
      </trkpt>
      <trkpt lat="50.65477" lon="5.24152">
        <ele>122.59999847412</ele>
        <extensions>
          <gpxtpx:TrackPointExtension xmlns:gpxtpx="http://www.garmin.com/xmlschemas/TrackPointExtension/v1">
            <gpxtpx:hr>146</gpxtpx:hr>
          </gpxtpx:TrackPointExtension>
        </extensions>
      </trkpt>
      <trkpt lat="50.65477" lon="5.24173">
        <ele>123</ele>
        <extensions>
          <gpxtpx:TrackPointExtension xmlns:gpxtpx="http://www.garmin.com/xmlschemas/TrackPointExtension/v1">
            <gpxtpx:hr>147</gpxtpx:hr>
          </gpxtpx:TrackPointExtension>
        </extensions>
      </trkpt>
      <trkpt lat="50.65476" lon="5.24204">
        <ele>123.80000305176</ele>
        <extensions>
          <gpxtpx:TrackPointExtension xmlns:gpxtpx="http://www.garmin.com/xmlschemas/TrackPointExtension/v1">
            <gpxtpx:hr>148</gpxtpx:hr>
          </gpxtpx:TrackPointExtension>
        </extensions>
      </trkpt>
      <trkpt lat="50.65475" lon="5.24244">
        <ele>125</ele>
        <extensions>
          <gpxtpx:TrackPointExtension xmlns:gpxtpx="http://www.garmin.com/xmlschemas/TrackPointExtension/v1">
            <gpxtpx:hr>149</gpxtpx:hr>
          </gpxtpx:TrackPointExtension>
        </extensions>
      </trkpt>
      <trkpt lat="50.65473" lon="5.24293">
        <ele>125.59999847412</ele>
        <extensions>
          <gpxtpx:TrackPointExtension xmlns:gpxtpx="http://www.garmin.com/xmlschemas/TrackPointExtension/v1">
            <gpxtpx:hr>150</gpxtpx:hr>
          </gpxtpx:TrackPointExtension>
        </extensions>
      </trkpt>
      <trkpt lat="50.65472" lon="5.24302">
        <ele>125.80000305176</ele>
        <extensions>
          <gpxtpx:TrackPointExtension xmlns:gpxtpx="http://www.garmin.com/xmlschemas/TrackPointExtension/v1">
            <gpxtpx:hr>150</gpxtpx:hr>
          </gpxtpx:TrackPointExtension>
        </extensions>
      </trkpt>
      <trkpt lat="50.65465" lon="5.24339">
        <ele>126.80000305176</ele>
        <extensions>
          <gpxtpx:TrackPointExtension xmlns:gpxtpx="http://www.garmin.com/xmlschemas/TrackPointExtension/v1">
            <gpxtpx:hr>149</gpxtpx:hr>
          </gpxtpx:TrackPointExtension>
        </extensions>
      </trkpt>
      <trkpt lat="50.65462" lon="5.24347">
        <ele>127</ele>
        <extensions>
          <gpxtpx:TrackPointExtension xmlns:gpxtpx="http://www.garmin.com/xmlschemas/TrackPointExtension/v1">
            <gpxtpx:hr>149</gpxtpx:hr>
          </gpxtpx:TrackPointExtension>
        </extensions>
      </trkpt>
      <trkpt lat="50.65444" lon="5.24384">
        <ele>127.40000152588</ele>
        <extensions>
          <gpxtpx:TrackPointExtension xmlns:gpxtpx="http://www.garmin.com/xmlschemas/TrackPointExtension/v1">
            <gpxtpx:hr>149</gpxtpx:hr>
          </gpxtpx:TrackPointExtension>
        </extensions>
      </trkpt>
      <trkpt lat="50.65417" lon="5.2443">
        <ele>147</ele>
      </trkpt>
      <trkpt lat="50.65404" lon="5.24455">
        <ele>146.6</ele>
      </trkpt>
      <trkpt lat="50.65392" lon="5.24475">
        <ele>146.2</ele>
      </trkpt>
      <trkpt lat="50.65378" lon="5.24512">
        <ele>144.1</ele>
      </trkpt>
      <trkpt lat="50.65368" lon="5.24547">
        <ele>143.6</ele>
      </trkpt>
      <trkpt lat="50.65361" lon="5.24581">
        <ele>143</ele>
      </trkpt>
      <trkpt lat="50.65355" lon="5.24615">
        <ele>124.40000152588</ele>
        <extensions>
          <gpxtpx:TrackPointExtension xmlns:gpxtpx="http://www.garmin.com/xmlschemas/TrackPointExtension/v1">
            <gpxtpx:hr>142</gpxtpx:hr>
          </gpxtpx:TrackPointExtension>
        </extensions>
      </trkpt>
      <trkpt lat="50.65351" lon="5.24626">
        <ele>124</ele>
        <extensions>
          <gpxtpx:TrackPointExtension xmlns:gpxtpx="http://www.garmin.com/xmlschemas/TrackPointExtension/v1">
            <gpxtpx:hr>141</gpxtpx:hr>
          </gpxtpx:TrackPointExtension>
        </extensions>
      </trkpt>
      <trkpt lat="50.65341" lon="5.24645">
        <ele>123.59999847412</ele>
        <extensions>
          <gpxtpx:TrackPointExtension xmlns:gpxtpx="http://www.garmin.com/xmlschemas/TrackPointExtension/v1">
            <gpxtpx:hr>138</gpxtpx:hr>
          </gpxtpx:TrackPointExtension>
        </extensions>
      </trkpt>
      <trkpt lat="50.65336" lon="5.24655">
        <ele>123.19999694824</ele>
        <extensions>
          <gpxtpx:TrackPointExtension xmlns:gpxtpx="http://www.garmin.com/xmlschemas/TrackPointExtension/v1">
            <gpxtpx:hr>137</gpxtpx:hr>
          </gpxtpx:TrackPointExtension>
        </extensions>
      </trkpt>
      <trkpt lat="50.65319" lon="5.24682">
        <ele>122.19999694824</ele>
        <extensions>
          <gpxtpx:TrackPointExtension xmlns:gpxtpx="http://www.garmin.com/xmlschemas/TrackPointExtension/v1">
            <gpxtpx:hr>135</gpxtpx:hr>
          </gpxtpx:TrackPointExtension>
        </extensions>
      </trkpt>
      <trkpt lat="50.65307" lon="5.24698">
        <ele>121.80000305176</ele>
        <extensions>
          <gpxtpx:TrackPointExtension xmlns:gpxtpx="http://www.garmin.com/xmlschemas/TrackPointExtension/v1">
            <gpxtpx:hr>132</gpxtpx:hr>
          </gpxtpx:TrackPointExtension>
        </extensions>
      </trkpt>
      <trkpt lat="50.65294" lon="5.2471">
        <ele>121.40000152588</ele>
        <extensions>
          <gpxtpx:TrackPointExtension xmlns:gpxtpx="http://www.garmin.com/xmlschemas/TrackPointExtension/v1">
            <gpxtpx:hr>129</gpxtpx:hr>
          </gpxtpx:TrackPointExtension>
        </extensions>
      </trkpt>
      <trkpt lat="50.6528" lon="5.24718">
        <ele>121</ele>
        <extensions>
          <gpxtpx:TrackPointExtension xmlns:gpxtpx="http://www.garmin.com/xmlschemas/TrackPointExtension/v1">
            <gpxtpx:hr>127</gpxtpx:hr>
          </gpxtpx:TrackPointExtension>
        </extensions>
      </trkpt>
      <trkpt lat="50.65266" lon="5.24724">
        <ele>121</ele>
        <extensions>
          <gpxtpx:TrackPointExtension xmlns:gpxtpx="http://www.garmin.com/xmlschemas/TrackPointExtension/v1">
            <gpxtpx:hr>126</gpxtpx:hr>
          </gpxtpx:TrackPointExtension>
        </extensions>
      </trkpt>
      <trkpt lat="50.65239" lon="5.24735">
        <ele>120.80000305176</ele>
        <extensions>
          <gpxtpx:TrackPointExtension xmlns:gpxtpx="http://www.garmin.com/xmlschemas/TrackPointExtension/v1">
            <gpxtpx:hr>126</gpxtpx:hr>
          </gpxtpx:TrackPointExtension>
        </extensions>
      </trkpt>
      <trkpt lat="50.65226" lon="5.24745">
        <ele>120.80000305176</ele>
        <extensions>
          <gpxtpx:TrackPointExtension xmlns:gpxtpx="http://www.garmin.com/xmlschemas/TrackPointExtension/v1">
            <gpxtpx:hr>125</gpxtpx:hr>
          </gpxtpx:TrackPointExtension>
        </extensions>
      </trkpt>
      <trkpt lat="50.65209" lon="5.24763">
        <ele>120.80000305176</ele>
        <extensions>
          <gpxtpx:TrackPointExtension xmlns:gpxtpx="http://www.garmin.com/xmlschemas/TrackPointExtension/v1">
            <gpxtpx:hr>126</gpxtpx:hr>
          </gpxtpx:TrackPointExtension>
        </extensions>
      </trkpt>
      <trkpt lat="50.65182" lon="5.24798">
        <ele>121</ele>
        <extensions>
          <gpxtpx:TrackPointExtension xmlns:gpxtpx="http://www.garmin.com/xmlschemas/TrackPointExtension/v1">
            <gpxtpx:hr>129</gpxtpx:hr>
          </gpxtpx:TrackPointExtension>
        </extensions>
      </trkpt>
      <trkpt lat="50.6516" lon="5.24826">
        <ele>121.40000152588</ele>
        <extensions>
          <gpxtpx:TrackPointExtension xmlns:gpxtpx="http://www.garmin.com/xmlschemas/TrackPointExtension/v1">
            <gpxtpx:hr>131</gpxtpx:hr>
          </gpxtpx:TrackPointExtension>
        </extensions>
      </trkpt>
      <trkpt lat="50.65129" lon="5.24867">
        <ele>122</ele>
        <extensions>
          <gpxtpx:TrackPointExtension xmlns:gpxtpx="http://www.garmin.com/xmlschemas/TrackPointExtension/v1">
            <gpxtpx:hr>134</gpxtpx:hr>
          </gpxtpx:TrackPointExtension>
        </extensions>
      </trkpt>
      <trkpt lat="50.6512" lon="5.24882">
        <ele>122.40000152588</ele>
        <extensions>
          <gpxtpx:TrackPointExtension xmlns:gpxtpx="http://www.garmin.com/xmlschemas/TrackPointExtension/v1">
            <gpxtpx:hr>135</gpxtpx:hr>
          </gpxtpx:TrackPointExtension>
        </extensions>
      </trkpt>
      <trkpt lat="50.65112" lon="5.24899">
        <ele>122.80000305176</ele>
        <extensions>
          <gpxtpx:TrackPointExtension xmlns:gpxtpx="http://www.garmin.com/xmlschemas/TrackPointExtension/v1">
            <gpxtpx:hr>137</gpxtpx:hr>
          </gpxtpx:TrackPointExtension>
        </extensions>
      </trkpt>
      <trkpt lat="50.65092" lon="5.24955">
        <ele>123.19999694824</ele>
        <extensions>
          <gpxtpx:TrackPointExtension xmlns:gpxtpx="http://www.garmin.com/xmlschemas/TrackPointExtension/v1">
            <gpxtpx:hr>139</gpxtpx:hr>
          </gpxtpx:TrackPointExtension>
        </extensions>
      </trkpt>
      <trkpt lat="50.65088" lon="5.24964">
        <ele>123.19999694824</ele>
        <extensions>
          <gpxtpx:TrackPointExtension xmlns:gpxtpx="http://www.garmin.com/xmlschemas/TrackPointExtension/v1">
            <gpxtpx:hr>140</gpxtpx:hr>
          </gpxtpx:TrackPointExtension>
        </extensions>
      </trkpt>
      <trkpt lat="50.65066" lon="5.25019">
        <ele>124.19999694824</ele>
        <extensions>
          <gpxtpx:TrackPointExtension xmlns:gpxtpx="http://www.garmin.com/xmlschemas/TrackPointExtension/v1">
            <gpxtpx:hr>141</gpxtpx:hr>
          </gpxtpx:TrackPointExtension>
        </extensions>
      </trkpt>
      <trkpt lat="50.65051" lon="5.25056">
        <ele>125</ele>
        <extensions>
          <gpxtpx:TrackPointExtension xmlns:gpxtpx="http://www.garmin.com/xmlschemas/TrackPointExtension/v1">
            <gpxtpx:hr>142</gpxtpx:hr>
          </gpxtpx:TrackPointExtension>
        </extensions>
      </trkpt>
      <trkpt lat="50.65027" lon="5.2511">
        <ele>143.2</ele>
      </trkpt>
      <trkpt lat="50.65015" lon="5.25122">
        <ele>143.1</ele>
      </trkpt>
      <trkpt lat="50.64981" lon="5.25163">
        <ele>143.5</ele>
      </trkpt>
      <trkpt lat="50.64934" lon="5.25205">
        <ele>124.19999694824</ele>
        <extensions>
          <gpxtpx:TrackPointExtension xmlns:gpxtpx="http://www.garmin.com/xmlschemas/TrackPointExtension/v1">
            <gpxtpx:hr>143</gpxtpx:hr>
          </gpxtpx:TrackPointExtension>
        </extensions>
      </trkpt>
      <trkpt lat="50.64894" lon="5.25236">
        <ele>124</ele>
        <extensions>
          <gpxtpx:TrackPointExtension xmlns:gpxtpx="http://www.garmin.com/xmlschemas/TrackPointExtension/v1">
            <gpxtpx:hr>140</gpxtpx:hr>
          </gpxtpx:TrackPointExtension>
        </extensions>
      </trkpt>
      <trkpt lat="50.64869" lon="5.25258">
        <ele>124.19999694824</ele>
        <extensions>
          <gpxtpx:TrackPointExtension xmlns:gpxtpx="http://www.garmin.com/xmlschemas/TrackPointExtension/v1">
            <gpxtpx:hr>139</gpxtpx:hr>
          </gpxtpx:TrackPointExtension>
        </extensions>
      </trkpt>
      <trkpt lat="50.6485" lon="5.25276">
        <ele>143</ele>
      </trkpt>
      <trkpt lat="50.64828" lon="5.25305">
        <ele>124.40000152588</ele>
        <extensions>
          <gpxtpx:TrackPointExtension xmlns:gpxtpx="http://www.garmin.com/xmlschemas/TrackPointExtension/v1">
            <gpxtpx:hr>138</gpxtpx:hr>
          </gpxtpx:TrackPointExtension>
        </extensions>
      </trkpt>
      <trkpt lat="50.64789" lon="5.25367">
        <ele>124.80000305176</ele>
        <extensions>
          <gpxtpx:TrackPointExtension xmlns:gpxtpx="http://www.garmin.com/xmlschemas/TrackPointExtension/v1">
            <gpxtpx:hr>140</gpxtpx:hr>
          </gpxtpx:TrackPointExtension>
        </extensions>
      </trkpt>
      <trkpt lat="50.6477" lon="5.25398">
        <ele>125</ele>
        <extensions>
          <gpxtpx:TrackPointExtension xmlns:gpxtpx="http://www.garmin.com/xmlschemas/TrackPointExtension/v1">
            <gpxtpx:hr>141</gpxtpx:hr>
          </gpxtpx:TrackPointExtension>
        </extensions>
      </trkpt>
      <trkpt lat="50.64756" lon="5.25421">
        <ele>126.19999694824</ele>
        <extensions>
          <gpxtpx:TrackPointExtension xmlns:gpxtpx="http://www.garmin.com/xmlschemas/TrackPointExtension/v1">
            <gpxtpx:hr>142</gpxtpx:hr>
          </gpxtpx:TrackPointExtension>
        </extensions>
      </trkpt>
      <trkpt lat="50.64733" lon="5.25458">
        <ele>127.19999694824</ele>
        <extensions>
          <gpxtpx:TrackPointExtension xmlns:gpxtpx="http://www.garmin.com/xmlschemas/TrackPointExtension/v1">
            <gpxtpx:hr>144</gpxtpx:hr>
          </gpxtpx:TrackPointExtension>
        </extensions>
      </trkpt>
      <trkpt lat="50.64723" lon="5.25474">
        <ele>127.80000305176</ele>
        <extensions>
          <gpxtpx:TrackPointExtension xmlns:gpxtpx="http://www.garmin.com/xmlschemas/TrackPointExtension/v1">
            <gpxtpx:hr>145</gpxtpx:hr>
          </gpxtpx:TrackPointExtension>
        </extensions>
      </trkpt>
      <trkpt lat="50.64709" lon="5.25497">
        <ele>128.39999389648</ele>
        <extensions>
          <gpxtpx:TrackPointExtension xmlns:gpxtpx="http://www.garmin.com/xmlschemas/TrackPointExtension/v1">
            <gpxtpx:hr>146</gpxtpx:hr>
          </gpxtpx:TrackPointExtension>
        </extensions>
      </trkpt>
      <trkpt lat="50.64685" lon="5.25535">
        <ele>129.60000610352</ele>
        <extensions>
          <gpxtpx:TrackPointExtension xmlns:gpxtpx="http://www.garmin.com/xmlschemas/TrackPointExtension/v1">
            <gpxtpx:hr>148</gpxtpx:hr>
          </gpxtpx:TrackPointExtension>
        </extensions>
      </trkpt>
      <trkpt lat="50.64676" lon="5.25551">
        <ele>130</ele>
        <extensions>
          <gpxtpx:TrackPointExtension xmlns:gpxtpx="http://www.garmin.com/xmlschemas/TrackPointExtension/v1">
            <gpxtpx:hr>148</gpxtpx:hr>
          </gpxtpx:TrackPointExtension>
        </extensions>
      </trkpt>
      <trkpt lat="50.64657" lon="5.25581">
        <ele>130.80000305176</ele>
        <extensions>
          <gpxtpx:TrackPointExtension xmlns:gpxtpx="http://www.garmin.com/xmlschemas/TrackPointExtension/v1">
            <gpxtpx:hr>149</gpxtpx:hr>
          </gpxtpx:TrackPointExtension>
        </extensions>
      </trkpt>
      <trkpt lat="50.64633" lon="5.2562">
        <ele>131.80000305176</ele>
        <extensions>
          <gpxtpx:TrackPointExtension xmlns:gpxtpx="http://www.garmin.com/xmlschemas/TrackPointExtension/v1">
            <gpxtpx:hr>151</gpxtpx:hr>
          </gpxtpx:TrackPointExtension>
        </extensions>
      </trkpt>
      <trkpt lat="50.64623" lon="5.25635">
        <ele>132.39999389648</ele>
        <extensions>
          <gpxtpx:TrackPointExtension xmlns:gpxtpx="http://www.garmin.com/xmlschemas/TrackPointExtension/v1">
            <gpxtpx:hr>152</gpxtpx:hr>
          </gpxtpx:TrackPointExtension>
        </extensions>
      </trkpt>
      <trkpt lat="50.64609" lon="5.25658">
        <ele>133</ele>
        <extensions>
          <gpxtpx:TrackPointExtension xmlns:gpxtpx="http://www.garmin.com/xmlschemas/TrackPointExtension/v1">
            <gpxtpx:hr>153</gpxtpx:hr>
          </gpxtpx:TrackPointExtension>
        </extensions>
      </trkpt>
      <trkpt lat="50.6459" lon="5.25688">
        <ele>134.19999694824</ele>
        <extensions>
          <gpxtpx:TrackPointExtension xmlns:gpxtpx="http://www.garmin.com/xmlschemas/TrackPointExtension/v1">
            <gpxtpx:hr>154</gpxtpx:hr>
          </gpxtpx:TrackPointExtension>
        </extensions>
      </trkpt>
      <trkpt lat="50.64573" lon="5.25718">
        <ele>135</ele>
        <extensions>
          <gpxtpx:TrackPointExtension xmlns:gpxtpx="http://www.garmin.com/xmlschemas/TrackPointExtension/v1">
            <gpxtpx:hr>155</gpxtpx:hr>
          </gpxtpx:TrackPointExtension>
        </extensions>
      </trkpt>
      <trkpt lat="50.64565" lon="5.25734">
        <ele>135.39999389648</ele>
        <extensions>
          <gpxtpx:TrackPointExtension xmlns:gpxtpx="http://www.garmin.com/xmlschemas/TrackPointExtension/v1">
            <gpxtpx:hr>155</gpxtpx:hr>
          </gpxtpx:TrackPointExtension>
        </extensions>
      </trkpt>
      <trkpt lat="50.6455" lon="5.2577">
        <ele>135.80000305176</ele>
        <extensions>
          <gpxtpx:TrackPointExtension xmlns:gpxtpx="http://www.garmin.com/xmlschemas/TrackPointExtension/v1">
            <gpxtpx:hr>155</gpxtpx:hr>
          </gpxtpx:TrackPointExtension>
        </extensions>
      </trkpt>
      <trkpt lat="50.64521" lon="5.25847">
        <ele>136</ele>
        <extensions>
          <gpxtpx:TrackPointExtension xmlns:gpxtpx="http://www.garmin.com/xmlschemas/TrackPointExtension/v1">
            <gpxtpx:hr>153</gpxtpx:hr>
          </gpxtpx:TrackPointExtension>
        </extensions>
      </trkpt>
      <trkpt lat="50.64514" lon="5.25867">
        <ele>136</ele>
        <extensions>
          <gpxtpx:TrackPointExtension xmlns:gpxtpx="http://www.garmin.com/xmlschemas/TrackPointExtension/v1">
            <gpxtpx:hr>152</gpxtpx:hr>
          </gpxtpx:TrackPointExtension>
        </extensions>
      </trkpt>
      <trkpt lat="50.64486" lon="5.25943">
        <ele>135</ele>
        <extensions>
          <gpxtpx:TrackPointExtension xmlns:gpxtpx="http://www.garmin.com/xmlschemas/TrackPointExtension/v1">
            <gpxtpx:hr>150</gpxtpx:hr>
          </gpxtpx:TrackPointExtension>
        </extensions>
      </trkpt>
      <trkpt lat="50.64481" lon="5.25955">
        <ele>135</ele>
        <extensions>
          <gpxtpx:TrackPointExtension xmlns:gpxtpx="http://www.garmin.com/xmlschemas/TrackPointExtension/v1">
            <gpxtpx:hr>149</gpxtpx:hr>
          </gpxtpx:TrackPointExtension>
        </extensions>
      </trkpt>
      <trkpt lat="50.64468" lon="5.2599">
        <ele>134.39999389648</ele>
        <extensions>
          <gpxtpx:TrackPointExtension xmlns:gpxtpx="http://www.garmin.com/xmlschemas/TrackPointExtension/v1">
            <gpxtpx:hr>149</gpxtpx:hr>
          </gpxtpx:TrackPointExtension>
        </extensions>
      </trkpt>
      <trkpt lat="50.6445" lon="5.26038">
        <ele>133.60000610352</ele>
        <extensions>
          <gpxtpx:TrackPointExtension xmlns:gpxtpx="http://www.garmin.com/xmlschemas/TrackPointExtension/v1">
            <gpxtpx:hr>146</gpxtpx:hr>
          </gpxtpx:TrackPointExtension>
        </extensions>
      </trkpt>
      <trkpt lat="50.64446" lon="5.26049">
        <ele>133.39999389648</ele>
        <extensions>
          <gpxtpx:TrackPointExtension xmlns:gpxtpx="http://www.garmin.com/xmlschemas/TrackPointExtension/v1">
            <gpxtpx:hr>145</gpxtpx:hr>
          </gpxtpx:TrackPointExtension>
        </extensions>
      </trkpt>
      <trkpt lat="50.64437" lon="5.26072">
        <ele>132.80000305176</ele>
        <extensions>
          <gpxtpx:TrackPointExtension xmlns:gpxtpx="http://www.garmin.com/xmlschemas/TrackPointExtension/v1">
            <gpxtpx:hr>143</gpxtpx:hr>
          </gpxtpx:TrackPointExtension>
        </extensions>
      </trkpt>
      <trkpt lat="50.64416" lon="5.26128">
        <ele>132</ele>
        <extensions>
          <gpxtpx:TrackPointExtension xmlns:gpxtpx="http://www.garmin.com/xmlschemas/TrackPointExtension/v1">
            <gpxtpx:hr>140</gpxtpx:hr>
          </gpxtpx:TrackPointExtension>
        </extensions>
      </trkpt>
      <trkpt lat="50.64408" lon="5.2615">
        <ele>132</ele>
        <extensions>
          <gpxtpx:TrackPointExtension xmlns:gpxtpx="http://www.garmin.com/xmlschemas/TrackPointExtension/v1">
            <gpxtpx:hr>139</gpxtpx:hr>
          </gpxtpx:TrackPointExtension>
        </extensions>
      </trkpt>
      <trkpt lat="50.64387" lon="5.26201">
        <ele>132</ele>
        <extensions>
          <gpxtpx:TrackPointExtension xmlns:gpxtpx="http://www.garmin.com/xmlschemas/TrackPointExtension/v1">
            <gpxtpx:hr>136</gpxtpx:hr>
          </gpxtpx:TrackPointExtension>
        </extensions>
      </trkpt>
      <trkpt lat="50.64377" lon="5.2622">
        <ele>132.19999694824</ele>
        <extensions>
          <gpxtpx:TrackPointExtension xmlns:gpxtpx="http://www.garmin.com/xmlschemas/TrackPointExtension/v1">
            <gpxtpx:hr>136</gpxtpx:hr>
          </gpxtpx:TrackPointExtension>
        </extensions>
      </trkpt>
      <trkpt lat="50.64345" lon="5.26268">
        <ele>132.60000610352</ele>
        <extensions>
          <gpxtpx:TrackPointExtension xmlns:gpxtpx="http://www.garmin.com/xmlschemas/TrackPointExtension/v1">
            <gpxtpx:hr>136</gpxtpx:hr>
          </gpxtpx:TrackPointExtension>
        </extensions>
      </trkpt>
      <trkpt lat="50.64321" lon="5.26318">
        <ele>132.80000305176</ele>
        <extensions>
          <gpxtpx:TrackPointExtension xmlns:gpxtpx="http://www.garmin.com/xmlschemas/TrackPointExtension/v1">
            <gpxtpx:hr>135</gpxtpx:hr>
          </gpxtpx:TrackPointExtension>
        </extensions>
      </trkpt>
      <trkpt lat="50.64307" lon="5.26376">
        <ele>132.80000305176</ele>
        <extensions>
          <gpxtpx:TrackPointExtension xmlns:gpxtpx="http://www.garmin.com/xmlschemas/TrackPointExtension/v1">
            <gpxtpx:hr>134</gpxtpx:hr>
          </gpxtpx:TrackPointExtension>
        </extensions>
      </trkpt>
      <trkpt lat="50.64294" lon="5.2646">
        <ele>132</ele>
        <extensions>
          <gpxtpx:TrackPointExtension xmlns:gpxtpx="http://www.garmin.com/xmlschemas/TrackPointExtension/v1">
            <gpxtpx:hr>132</gpxtpx:hr>
          </gpxtpx:TrackPointExtension>
        </extensions>
      </trkpt>
      <trkpt lat="50.64293" lon="5.26479">
        <ele>149.7</ele>
      </trkpt>
      <trkpt lat="50.64286" lon="5.26526">
        <ele>149.5</ele>
      </trkpt>
      <trkpt lat="50.64278" lon="5.26554">
        <ele>150</ele>
      </trkpt>
      <trkpt lat="50.64271" lon="5.26578">
        <ele>131.60000610352</ele>
        <extensions>
          <gpxtpx:TrackPointExtension xmlns:gpxtpx="http://www.garmin.com/xmlschemas/TrackPointExtension/v1">
            <gpxtpx:hr>128</gpxtpx:hr>
          </gpxtpx:TrackPointExtension>
        </extensions>
      </trkpt>
      <trkpt lat="50.64259" lon="5.26608">
        <ele>131.60000610352</ele>
        <extensions>
          <gpxtpx:TrackPointExtension xmlns:gpxtpx="http://www.garmin.com/xmlschemas/TrackPointExtension/v1">
            <gpxtpx:hr>126</gpxtpx:hr>
          </gpxtpx:TrackPointExtension>
        </extensions>
      </trkpt>
      <trkpt lat="50.64239" lon="5.26658">
        <ele>131.60000610352</ele>
        <extensions>
          <gpxtpx:TrackPointExtension xmlns:gpxtpx="http://www.garmin.com/xmlschemas/TrackPointExtension/v1">
            <gpxtpx:hr>125</gpxtpx:hr>
          </gpxtpx:TrackPointExtension>
        </extensions>
      </trkpt>
      <trkpt lat="50.6421" lon="5.26721">
        <ele>152.6</ele>
      </trkpt>
      <trkpt lat="50.64194" lon="5.26755">
        <ele>154.4</ele>
      </trkpt>
      <trkpt lat="50.64169" lon="5.26802">
        <ele>132</ele>
        <extensions>
          <gpxtpx:TrackPointExtension xmlns:gpxtpx="http://www.garmin.com/xmlschemas/TrackPointExtension/v1">
            <gpxtpx:hr>133</gpxtpx:hr>
          </gpxtpx:TrackPointExtension>
        </extensions>
      </trkpt>
      <trkpt lat="50.64161" lon="5.26816">
        <ele>132.39999389648</ele>
        <extensions>
          <gpxtpx:TrackPointExtension xmlns:gpxtpx="http://www.garmin.com/xmlschemas/TrackPointExtension/v1">
            <gpxtpx:hr>134</gpxtpx:hr>
          </gpxtpx:TrackPointExtension>
        </extensions>
      </trkpt>
      <trkpt lat="50.64157" lon="5.26823">
        <ele>132.80000305176</ele>
        <extensions>
          <gpxtpx:TrackPointExtension xmlns:gpxtpx="http://www.garmin.com/xmlschemas/TrackPointExtension/v1">
            <gpxtpx:hr>134</gpxtpx:hr>
          </gpxtpx:TrackPointExtension>
        </extensions>
      </trkpt>
      <trkpt lat="50.64142" lon="5.26849">
        <ele>133.60000610352</ele>
        <extensions>
          <gpxtpx:TrackPointExtension xmlns:gpxtpx="http://www.garmin.com/xmlschemas/TrackPointExtension/v1">
            <gpxtpx:hr>137</gpxtpx:hr>
          </gpxtpx:TrackPointExtension>
        </extensions>
      </trkpt>
      <trkpt lat="50.64135" lon="5.26864">
        <ele>157.1</ele>
      </trkpt>
      <trkpt lat="50.64126" lon="5.26883">
        <ele>135.19999694824</ele>
        <extensions>
          <gpxtpx:TrackPointExtension xmlns:gpxtpx="http://www.garmin.com/xmlschemas/TrackPointExtension/v1">
            <gpxtpx:hr>138</gpxtpx:hr>
          </gpxtpx:TrackPointExtension>
        </extensions>
      </trkpt>
      <trkpt lat="50.64123" lon="5.2689">
        <ele>157.4</ele>
      </trkpt>
      <trkpt lat="50.64122" lon="5.26902">
        <ele>157</ele>
      </trkpt>
      <trkpt lat="50.64125" lon="5.26913">
        <ele>136.19999694824</ele>
        <extensions>
          <gpxtpx:TrackPointExtension xmlns:gpxtpx="http://www.garmin.com/xmlschemas/TrackPointExtension/v1">
            <gpxtpx:hr>140</gpxtpx:hr>
          </gpxtpx:TrackPointExtension>
        </extensions>
      </trkpt>
      <trkpt lat="50.64128" lon="5.26921">
        <ele>136.19999694824</ele>
        <extensions>
          <gpxtpx:TrackPointExtension xmlns:gpxtpx="http://www.garmin.com/xmlschemas/TrackPointExtension/v1">
            <gpxtpx:hr>140</gpxtpx:hr>
          </gpxtpx:TrackPointExtension>
        </extensions>
      </trkpt>
      <trkpt lat="50.64131" lon="5.26928">
        <ele>136.39999389648</ele>
        <extensions>
          <gpxtpx:TrackPointExtension xmlns:gpxtpx="http://www.garmin.com/xmlschemas/TrackPointExtension/v1">
            <gpxtpx:hr>140</gpxtpx:hr>
          </gpxtpx:TrackPointExtension>
        </extensions>
      </trkpt>
      <trkpt lat="50.64135" lon="5.26936">
        <ele>136.60000610352</ele>
        <extensions>
          <gpxtpx:TrackPointExtension xmlns:gpxtpx="http://www.garmin.com/xmlschemas/TrackPointExtension/v1">
            <gpxtpx:hr>140</gpxtpx:hr>
          </gpxtpx:TrackPointExtension>
        </extensions>
      </trkpt>
      <trkpt lat="50.64138" lon="5.26945">
        <ele>136.60000610352</ele>
        <extensions>
          <gpxtpx:TrackPointExtension xmlns:gpxtpx="http://www.garmin.com/xmlschemas/TrackPointExtension/v1">
            <gpxtpx:hr>141</gpxtpx:hr>
          </gpxtpx:TrackPointExtension>
        </extensions>
      </trkpt>
      <trkpt lat="50.64146" lon="5.26972">
        <ele>137.19999694824</ele>
        <extensions>
          <gpxtpx:TrackPointExtension xmlns:gpxtpx="http://www.garmin.com/xmlschemas/TrackPointExtension/v1">
            <gpxtpx:hr>142</gpxtpx:hr>
          </gpxtpx:TrackPointExtension>
        </extensions>
      </trkpt>
      <trkpt lat="50.64153" lon="5.27005">
        <ele>159.2</ele>
      </trkpt>
      <trkpt lat="50.64167" lon="5.27068">
        <ele>159.2</ele>
      </trkpt>
      <trkpt lat="50.64184" lon="5.27149">
        <ele>159.2</ele>
      </trkpt>
      <trkpt lat="50.6419" lon="5.27185">
        <ele>159.5</ele>
      </trkpt>
      <trkpt lat="50.642" lon="5.27243">
        <ele>159.6</ele>
      </trkpt>
      <trkpt lat="50.64206" lon="5.2727">
        <ele>160</ele>
      </trkpt>
      <trkpt lat="50.64214" lon="5.27299">
        <ele>159.4</ele>
      </trkpt>
      <trkpt lat="50.64226" lon="5.27336">
        <ele>159</ele>
      </trkpt>
      <trkpt lat="50.6424" lon="5.27366">
        <ele>140.60000610352</ele>
        <extensions>
          <gpxtpx:TrackPointExtension xmlns:gpxtpx="http://www.garmin.com/xmlschemas/TrackPointExtension/v1">
            <gpxtpx:hr>146</gpxtpx:hr>
          </gpxtpx:TrackPointExtension>
        </extensions>
      </trkpt>
      <trkpt lat="50.64265" lon="5.27424">
        <ele>140.39999389648</ele>
        <extensions>
          <gpxtpx:TrackPointExtension xmlns:gpxtpx="http://www.garmin.com/xmlschemas/TrackPointExtension/v1">
            <gpxtpx:hr>145</gpxtpx:hr>
          </gpxtpx:TrackPointExtension>
        </extensions>
      </trkpt>
      <trkpt lat="50.64285" lon="5.27472">
        <ele>139.80000305176</ele>
        <extensions>
          <gpxtpx:TrackPointExtension xmlns:gpxtpx="http://www.garmin.com/xmlschemas/TrackPointExtension/v1">
            <gpxtpx:hr>142</gpxtpx:hr>
          </gpxtpx:TrackPointExtension>
        </extensions>
      </trkpt>
      <trkpt lat="50.64294" lon="5.27492">
        <ele>139.19999694824</ele>
        <extensions>
          <gpxtpx:TrackPointExtension xmlns:gpxtpx="http://www.garmin.com/xmlschemas/TrackPointExtension/v1">
            <gpxtpx:hr>141</gpxtpx:hr>
          </gpxtpx:TrackPointExtension>
        </extensions>
      </trkpt>
      <trkpt lat="50.64298" lon="5.27502">
        <ele>139</ele>
        <extensions>
          <gpxtpx:TrackPointExtension xmlns:gpxtpx="http://www.garmin.com/xmlschemas/TrackPointExtension/v1">
            <gpxtpx:hr>141</gpxtpx:hr>
          </gpxtpx:TrackPointExtension>
        </extensions>
      </trkpt>
      <trkpt lat="50.64314" lon="5.27542">
        <ele>138.80000305176</ele>
        <extensions>
          <gpxtpx:TrackPointExtension xmlns:gpxtpx="http://www.garmin.com/xmlschemas/TrackPointExtension/v1">
            <gpxtpx:hr>138</gpxtpx:hr>
          </gpxtpx:TrackPointExtension>
        </extensions>
      </trkpt>
      <trkpt lat="50.64326" lon="5.2757">
        <ele>138.60000610352</ele>
        <extensions>
          <gpxtpx:TrackPointExtension xmlns:gpxtpx="http://www.garmin.com/xmlschemas/TrackPointExtension/v1">
            <gpxtpx:hr>136</gpxtpx:hr>
          </gpxtpx:TrackPointExtension>
        </extensions>
      </trkpt>
      <trkpt lat="50.6435" lon="5.27625">
        <ele>138.60000610352</ele>
        <extensions>
          <gpxtpx:TrackPointExtension xmlns:gpxtpx="http://www.garmin.com/xmlschemas/TrackPointExtension/v1">
            <gpxtpx:hr>134</gpxtpx:hr>
          </gpxtpx:TrackPointExtension>
        </extensions>
      </trkpt>
      <trkpt lat="50.64383" lon="5.27703">
        <ele>138.80000305176</ele>
        <extensions>
          <gpxtpx:TrackPointExtension xmlns:gpxtpx="http://www.garmin.com/xmlschemas/TrackPointExtension/v1">
            <gpxtpx:hr>136</gpxtpx:hr>
          </gpxtpx:TrackPointExtension>
        </extensions>
      </trkpt>
      <trkpt lat="50.64413" lon="5.27773">
        <ele>139.60000610352</ele>
        <extensions>
          <gpxtpx:TrackPointExtension xmlns:gpxtpx="http://www.garmin.com/xmlschemas/TrackPointExtension/v1">
            <gpxtpx:hr>138</gpxtpx:hr>
          </gpxtpx:TrackPointExtension>
        </extensions>
      </trkpt>
      <trkpt lat="50.64441" lon="5.27851">
        <ele>155</ele>
      </trkpt>
      <trkpt lat="50.64463" lon="5.27928">
        <ele>139.80000305176</ele>
        <extensions>
          <gpxtpx:TrackPointExtension xmlns:gpxtpx="http://www.garmin.com/xmlschemas/TrackPointExtension/v1">
            <gpxtpx:hr>135</gpxtpx:hr>
          </gpxtpx:TrackPointExtension>
        </extensions>
      </trkpt>
      <trkpt lat="50.64469" lon="5.27948">
        <ele>139.39999389648</ele>
        <extensions>
          <gpxtpx:TrackPointExtension xmlns:gpxtpx="http://www.garmin.com/xmlschemas/TrackPointExtension/v1">
            <gpxtpx:hr>135</gpxtpx:hr>
          </gpxtpx:TrackPointExtension>
        </extensions>
      </trkpt>
      <trkpt lat="50.64492" lon="5.28034">
        <ele>138.60000610352</ele>
        <extensions>
          <gpxtpx:TrackPointExtension xmlns:gpxtpx="http://www.garmin.com/xmlschemas/TrackPointExtension/v1">
            <gpxtpx:hr>134</gpxtpx:hr>
          </gpxtpx:TrackPointExtension>
        </extensions>
      </trkpt>
      <trkpt lat="50.64494" lon="5.28045">
        <ele>138.39999389648</ele>
        <extensions>
          <gpxtpx:TrackPointExtension xmlns:gpxtpx="http://www.garmin.com/xmlschemas/TrackPointExtension/v1">
            <gpxtpx:hr>134</gpxtpx:hr>
          </gpxtpx:TrackPointExtension>
        </extensions>
      </trkpt>
      <trkpt lat="50.64506" lon="5.28089">
        <ele>138.19999694824</ele>
        <extensions>
          <gpxtpx:TrackPointExtension xmlns:gpxtpx="http://www.garmin.com/xmlschemas/TrackPointExtension/v1">
            <gpxtpx:hr>134</gpxtpx:hr>
          </gpxtpx:TrackPointExtension>
        </extensions>
      </trkpt>
      <trkpt lat="50.64527" lon="5.28167">
        <ele>137.39999389648</ele>
        <extensions>
          <gpxtpx:TrackPointExtension xmlns:gpxtpx="http://www.garmin.com/xmlschemas/TrackPointExtension/v1">
            <gpxtpx:hr>133</gpxtpx:hr>
          </gpxtpx:TrackPointExtension>
        </extensions>
      </trkpt>
      <trkpt lat="50.6453" lon="5.28178">
        <ele>137.19999694824</ele>
        <extensions>
          <gpxtpx:TrackPointExtension xmlns:gpxtpx="http://www.garmin.com/xmlschemas/TrackPointExtension/v1">
            <gpxtpx:hr>132</gpxtpx:hr>
          </gpxtpx:TrackPointExtension>
        </extensions>
      </trkpt>
      <trkpt lat="50.64547" lon="5.28245">
        <ele>152.1</ele>
      </trkpt>
      <trkpt lat="50.64557" lon="5.28283">
        <ele>151.1</ele>
      </trkpt>
      <trkpt lat="50.64572" lon="5.2834">
        <ele>149.4</ele>
      </trkpt>
      <trkpt lat="50.64579" lon="5.28365">
        <ele>149.5</ele>
      </trkpt>
      <trkpt lat="50.64597" lon="5.28448">
        <ele>149</ele>
      </trkpt>
      <trkpt lat="50.64601" lon="5.28496">
        <ele>149.1</ele>
      </trkpt>
      <trkpt lat="50.64602" lon="5.28534">
        <ele>149.6</ele>
      </trkpt>
      <trkpt lat="50.64603" lon="5.28566">
        <ele>149.8</ele>
      </trkpt>
      <trkpt lat="50.64601" lon="5.28611">
        <ele>150.9</ele>
      </trkpt>
      <trkpt lat="50.64598" lon="5.28674">
        <ele>152.5</ele>
      </trkpt>
      <trkpt lat="50.64597" lon="5.28712">
        <ele>133.80000305176</ele>
        <extensions>
          <gpxtpx:TrackPointExtension xmlns:gpxtpx="http://www.garmin.com/xmlschemas/TrackPointExtension/v1">
            <gpxtpx:hr>131</gpxtpx:hr>
          </gpxtpx:TrackPointExtension>
        </extensions>
      </trkpt>
      <trkpt lat="50.64596" lon="5.28733">
        <ele>134.19999694824</ele>
        <extensions>
          <gpxtpx:TrackPointExtension xmlns:gpxtpx="http://www.garmin.com/xmlschemas/TrackPointExtension/v1">
            <gpxtpx:hr>133</gpxtpx:hr>
          </gpxtpx:TrackPointExtension>
        </extensions>
      </trkpt>
      <trkpt lat="50.64593" lon="5.28795">
        <ele>135</ele>
        <extensions>
          <gpxtpx:TrackPointExtension xmlns:gpxtpx="http://www.garmin.com/xmlschemas/TrackPointExtension/v1">
            <gpxtpx:hr>136</gpxtpx:hr>
          </gpxtpx:TrackPointExtension>
        </extensions>
      </trkpt>
      <trkpt lat="50.6459" lon="5.28847">
        <ele>135.80000305176</ele>
        <extensions>
          <gpxtpx:TrackPointExtension xmlns:gpxtpx="http://www.garmin.com/xmlschemas/TrackPointExtension/v1">
            <gpxtpx:hr>139</gpxtpx:hr>
          </gpxtpx:TrackPointExtension>
        </extensions>
      </trkpt>
      <trkpt lat="50.6459" lon="5.28857">
        <ele>135.80000305176</ele>
        <extensions>
          <gpxtpx:TrackPointExtension xmlns:gpxtpx="http://www.garmin.com/xmlschemas/TrackPointExtension/v1">
            <gpxtpx:hr>139</gpxtpx:hr>
          </gpxtpx:TrackPointExtension>
        </extensions>
      </trkpt>
      <trkpt lat="50.64589" lon="5.28877">
        <ele>136</ele>
        <extensions>
          <gpxtpx:TrackPointExtension xmlns:gpxtpx="http://www.garmin.com/xmlschemas/TrackPointExtension/v1">
            <gpxtpx:hr>140</gpxtpx:hr>
          </gpxtpx:TrackPointExtension>
        </extensions>
      </trkpt>
      <trkpt lat="50.64586" lon="5.28929">
        <ele>137.19999694824</ele>
        <extensions>
          <gpxtpx:TrackPointExtension xmlns:gpxtpx="http://www.garmin.com/xmlschemas/TrackPointExtension/v1">
            <gpxtpx:hr>142</gpxtpx:hr>
          </gpxtpx:TrackPointExtension>
        </extensions>
      </trkpt>
      <trkpt lat="50.64585" lon="5.28949">
        <ele>137.60000610352</ele>
        <extensions>
          <gpxtpx:TrackPointExtension xmlns:gpxtpx="http://www.garmin.com/xmlschemas/TrackPointExtension/v1">
            <gpxtpx:hr>142</gpxtpx:hr>
          </gpxtpx:TrackPointExtension>
        </extensions>
      </trkpt>
      <trkpt lat="50.64583" lon="5.2899">
        <ele>138.19999694824</ele>
        <extensions>
          <gpxtpx:TrackPointExtension xmlns:gpxtpx="http://www.garmin.com/xmlschemas/TrackPointExtension/v1">
            <gpxtpx:hr>144</gpxtpx:hr>
          </gpxtpx:TrackPointExtension>
        </extensions>
      </trkpt>
      <trkpt lat="50.64579" lon="5.29062">
        <ele>139.39999389648</ele>
        <extensions>
          <gpxtpx:TrackPointExtension xmlns:gpxtpx="http://www.garmin.com/xmlschemas/TrackPointExtension/v1">
            <gpxtpx:hr>147</gpxtpx:hr>
          </gpxtpx:TrackPointExtension>
        </extensions>
      </trkpt>
      <trkpt lat="50.64578" lon="5.29073">
        <ele>139.60000610352</ele>
        <extensions>
          <gpxtpx:TrackPointExtension xmlns:gpxtpx="http://www.garmin.com/xmlschemas/TrackPointExtension/v1">
            <gpxtpx:hr>147</gpxtpx:hr>
          </gpxtpx:TrackPointExtension>
        </extensions>
      </trkpt>
      <trkpt lat="50.64577" lon="5.29083">
        <ele>139.80000305176</ele>
        <extensions>
          <gpxtpx:TrackPointExtension xmlns:gpxtpx="http://www.garmin.com/xmlschemas/TrackPointExtension/v1">
            <gpxtpx:hr>147</gpxtpx:hr>
          </gpxtpx:TrackPointExtension>
        </extensions>
      </trkpt>
      <trkpt lat="50.64566" lon="5.29123">
        <ele>140</ele>
        <extensions>
          <gpxtpx:TrackPointExtension xmlns:gpxtpx="http://www.garmin.com/xmlschemas/TrackPointExtension/v1">
            <gpxtpx:hr>148</gpxtpx:hr>
          </gpxtpx:TrackPointExtension>
        </extensions>
      </trkpt>
      <trkpt lat="50.6456" lon="5.29143">
        <ele>140.39999389648</ele>
        <extensions>
          <gpxtpx:TrackPointExtension xmlns:gpxtpx="http://www.garmin.com/xmlschemas/TrackPointExtension/v1">
            <gpxtpx:hr>149</gpxtpx:hr>
          </gpxtpx:TrackPointExtension>
        </extensions>
      </trkpt>
      <trkpt lat="50.6454" lon="5.292">
        <ele>158.8</ele>
      </trkpt>
      <trkpt lat="50.64508" lon="5.29288">
        <ele>158.5</ele>
      </trkpt>
      <trkpt lat="50.64476" lon="5.2937">
        <ele>159.8</ele>
      </trkpt>
      <trkpt lat="50.64462" lon="5.29404">
        <ele>159.9</ele>
      </trkpt>
      <trkpt lat="50.64435" lon="5.2947">
        <ele>160.3</ele>
      </trkpt>
      <trkpt lat="50.64423" lon="5.29501">
        <ele>160.7</ele>
      </trkpt>
      <trkpt lat="50.64405" lon="5.29547">
        <ele>159.4</ele>
      </trkpt>
      <trkpt lat="50.64388" lon="5.29591">
        <ele>158.5</ele>
      </trkpt>
      <trkpt lat="50.6437" lon="5.2964">
        <ele>158.2</ele>
      </trkpt>
      <trkpt lat="50.64354" lon="5.2968">
        <ele>157.7</ele>
      </trkpt>
      <trkpt lat="50.64346" lon="5.29714">
        <ele>140.19999694824</ele>
        <extensions>
          <gpxtpx:TrackPointExtension xmlns:gpxtpx="http://www.garmin.com/xmlschemas/TrackPointExtension/v1">
            <gpxtpx:hr>128</gpxtpx:hr>
          </gpxtpx:TrackPointExtension>
        </extensions>
      </trkpt>
      <trkpt lat="50.64323" lon="5.29768">
        <ele>139</ele>
        <extensions>
          <gpxtpx:TrackPointExtension xmlns:gpxtpx="http://www.garmin.com/xmlschemas/TrackPointExtension/v1">
            <gpxtpx:hr>126</gpxtpx:hr>
          </gpxtpx:TrackPointExtension>
        </extensions>
      </trkpt>
      <trkpt lat="50.6431" lon="5.298">
        <ele>139</ele>
        <extensions>
          <gpxtpx:TrackPointExtension xmlns:gpxtpx="http://www.garmin.com/xmlschemas/TrackPointExtension/v1">
            <gpxtpx:hr>126</gpxtpx:hr>
          </gpxtpx:TrackPointExtension>
        </extensions>
      </trkpt>
      <trkpt lat="50.6428" lon="5.29872">
        <ele>139.19999694824</ele>
        <extensions>
          <gpxtpx:TrackPointExtension xmlns:gpxtpx="http://www.garmin.com/xmlschemas/TrackPointExtension/v1">
            <gpxtpx:hr>125</gpxtpx:hr>
          </gpxtpx:TrackPointExtension>
        </extensions>
      </trkpt>
      <trkpt lat="50.64277" lon="5.29882">
        <ele>139.19999694824</ele>
        <extensions>
          <gpxtpx:TrackPointExtension xmlns:gpxtpx="http://www.garmin.com/xmlschemas/TrackPointExtension/v1">
            <gpxtpx:hr>125</gpxtpx:hr>
          </gpxtpx:TrackPointExtension>
        </extensions>
      </trkpt>
      <trkpt lat="50.64259" lon="5.29935">
        <ele>139.60000610352</ele>
        <extensions>
          <gpxtpx:TrackPointExtension xmlns:gpxtpx="http://www.garmin.com/xmlschemas/TrackPointExtension/v1">
            <gpxtpx:hr>128</gpxtpx:hr>
          </gpxtpx:TrackPointExtension>
        </extensions>
      </trkpt>
      <trkpt lat="50.64253" lon="5.29957">
        <ele>139.80000305176</ele>
        <extensions>
          <gpxtpx:TrackPointExtension xmlns:gpxtpx="http://www.garmin.com/xmlschemas/TrackPointExtension/v1">
            <gpxtpx:hr>129</gpxtpx:hr>
          </gpxtpx:TrackPointExtension>
        </extensions>
      </trkpt>
      <trkpt lat="50.64248" lon="5.29981">
        <ele>140.19999694824</ele>
        <extensions>
          <gpxtpx:TrackPointExtension xmlns:gpxtpx="http://www.garmin.com/xmlschemas/TrackPointExtension/v1">
            <gpxtpx:hr>131</gpxtpx:hr>
          </gpxtpx:TrackPointExtension>
        </extensions>
      </trkpt>
      <trkpt lat="50.64239" lon="5.30029">
        <ele>140.39999389648</ele>
        <extensions>
          <gpxtpx:TrackPointExtension xmlns:gpxtpx="http://www.garmin.com/xmlschemas/TrackPointExtension/v1">
            <gpxtpx:hr>132</gpxtpx:hr>
          </gpxtpx:TrackPointExtension>
        </extensions>
      </trkpt>
      <trkpt lat="50.64228" lon="5.30105">
        <ele>140.39999389648</ele>
        <extensions>
          <gpxtpx:TrackPointExtension xmlns:gpxtpx="http://www.garmin.com/xmlschemas/TrackPointExtension/v1">
            <gpxtpx:hr>131</gpxtpx:hr>
          </gpxtpx:TrackPointExtension>
        </extensions>
      </trkpt>
      <trkpt lat="50.64214" lon="5.30183">
        <ele>139.39999389648</ele>
        <extensions>
          <gpxtpx:TrackPointExtension xmlns:gpxtpx="http://www.garmin.com/xmlschemas/TrackPointExtension/v1">
            <gpxtpx:hr>128</gpxtpx:hr>
          </gpxtpx:TrackPointExtension>
        </extensions>
      </trkpt>
      <trkpt lat="50.6421" lon="5.30209">
        <ele>139</ele>
        <extensions>
          <gpxtpx:TrackPointExtension xmlns:gpxtpx="http://www.garmin.com/xmlschemas/TrackPointExtension/v1">
            <gpxtpx:hr>127</gpxtpx:hr>
          </gpxtpx:TrackPointExtension>
        </extensions>
      </trkpt>
      <trkpt lat="50.64208" lon="5.30223">
        <ele>138.80000305176</ele>
        <extensions>
          <gpxtpx:TrackPointExtension xmlns:gpxtpx="http://www.garmin.com/xmlschemas/TrackPointExtension/v1">
            <gpxtpx:hr>126</gpxtpx:hr>
          </gpxtpx:TrackPointExtension>
        </extensions>
      </trkpt>
      <trkpt lat="50.64196" lon="5.30302">
        <ele>138</ele>
        <extensions>
          <gpxtpx:TrackPointExtension xmlns:gpxtpx="http://www.garmin.com/xmlschemas/TrackPointExtension/v1">
            <gpxtpx:hr>123</gpxtpx:hr>
          </gpxtpx:TrackPointExtension>
        </extensions>
      </trkpt>
      <trkpt lat="50.64185" lon="5.30352">
        <ele>154.3</ele>
      </trkpt>
      <trkpt lat="50.6418" lon="5.30405">
        <ele>154.5</ele>
      </trkpt>
      <trkpt lat="50.64176" lon="5.30455">
        <ele>155.1</ele>
      </trkpt>
      <trkpt lat="50.64171" lon="5.30547">
        <ele>137.60000610352</ele>
        <extensions>
          <gpxtpx:TrackPointExtension xmlns:gpxtpx="http://www.garmin.com/xmlschemas/TrackPointExtension/v1">
            <gpxtpx:hr>124</gpxtpx:hr>
          </gpxtpx:TrackPointExtension>
        </extensions>
      </trkpt>
      <trkpt lat="50.64168" lon="5.30593">
        <ele>137.60000610352</ele>
        <extensions>
          <gpxtpx:TrackPointExtension xmlns:gpxtpx="http://www.garmin.com/xmlschemas/TrackPointExtension/v1">
            <gpxtpx:hr>127</gpxtpx:hr>
          </gpxtpx:TrackPointExtension>
        </extensions>
      </trkpt>
      <trkpt lat="50.64165" lon="5.30628">
        <ele>137.60000610352</ele>
        <extensions>
          <gpxtpx:TrackPointExtension xmlns:gpxtpx="http://www.garmin.com/xmlschemas/TrackPointExtension/v1">
            <gpxtpx:hr>130</gpxtpx:hr>
          </gpxtpx:TrackPointExtension>
        </extensions>
      </trkpt>
      <trkpt lat="50.64164" lon="5.30639">
        <ele>137.80000305176</ele>
        <extensions>
          <gpxtpx:TrackPointExtension xmlns:gpxtpx="http://www.garmin.com/xmlschemas/TrackPointExtension/v1">
            <gpxtpx:hr>130</gpxtpx:hr>
          </gpxtpx:TrackPointExtension>
        </extensions>
      </trkpt>
      <trkpt lat="50.64161" lon="5.30675">
        <ele>137.80000305176</ele>
        <extensions>
          <gpxtpx:TrackPointExtension xmlns:gpxtpx="http://www.garmin.com/xmlschemas/TrackPointExtension/v1">
            <gpxtpx:hr>133</gpxtpx:hr>
          </gpxtpx:TrackPointExtension>
        </extensions>
      </trkpt>
      <trkpt lat="50.64158" lon="5.30722">
        <ele>138</ele>
        <extensions>
          <gpxtpx:TrackPointExtension xmlns:gpxtpx="http://www.garmin.com/xmlschemas/TrackPointExtension/v1">
            <gpxtpx:hr>136</gpxtpx:hr>
          </gpxtpx:TrackPointExtension>
        </extensions>
      </trkpt>
      <trkpt lat="50.64156" lon="5.30746">
        <ele>138.19999694824</ele>
        <extensions>
          <gpxtpx:TrackPointExtension xmlns:gpxtpx="http://www.garmin.com/xmlschemas/TrackPointExtension/v1">
            <gpxtpx:hr>137</gpxtpx:hr>
          </gpxtpx:TrackPointExtension>
        </extensions>
      </trkpt>
      <trkpt lat="50.64152" lon="5.30794">
        <ele>139</ele>
        <extensions>
          <gpxtpx:TrackPointExtension xmlns:gpxtpx="http://www.garmin.com/xmlschemas/TrackPointExtension/v1">
            <gpxtpx:hr>140</gpxtpx:hr>
          </gpxtpx:TrackPointExtension>
        </extensions>
      </trkpt>
      <trkpt lat="50.64151" lon="5.30805">
        <ele>139</ele>
        <extensions>
          <gpxtpx:TrackPointExtension xmlns:gpxtpx="http://www.garmin.com/xmlschemas/TrackPointExtension/v1">
            <gpxtpx:hr>141</gpxtpx:hr>
          </gpxtpx:TrackPointExtension>
        </extensions>
      </trkpt>
      <trkpt lat="50.6415" lon="5.30828">
        <ele>139.39999389648</ele>
        <extensions>
          <gpxtpx:TrackPointExtension xmlns:gpxtpx="http://www.garmin.com/xmlschemas/TrackPointExtension/v1">
            <gpxtpx:hr>141</gpxtpx:hr>
          </gpxtpx:TrackPointExtension>
        </extensions>
      </trkpt>
      <trkpt lat="50.6414" lon="5.30901">
        <ele>140</ele>
        <extensions>
          <gpxtpx:TrackPointExtension xmlns:gpxtpx="http://www.garmin.com/xmlschemas/TrackPointExtension/v1">
            <gpxtpx:hr>142</gpxtpx:hr>
          </gpxtpx:TrackPointExtension>
        </extensions>
      </trkpt>
      <trkpt lat="50.64122" lon="5.30987">
        <ele>140.60000610352</ele>
        <extensions>
          <gpxtpx:TrackPointExtension xmlns:gpxtpx="http://www.garmin.com/xmlschemas/TrackPointExtension/v1">
            <gpxtpx:hr>140</gpxtpx:hr>
          </gpxtpx:TrackPointExtension>
        </extensions>
      </trkpt>
      <trkpt lat="50.64102" lon="5.31069">
        <ele>140.39999389648</ele>
        <extensions>
          <gpxtpx:TrackPointExtension xmlns:gpxtpx="http://www.garmin.com/xmlschemas/TrackPointExtension/v1">
            <gpxtpx:hr>139</gpxtpx:hr>
          </gpxtpx:TrackPointExtension>
        </extensions>
      </trkpt>
      <trkpt lat="50.64097" lon="5.31094">
        <ele>140.19999694824</ele>
        <extensions>
          <gpxtpx:TrackPointExtension xmlns:gpxtpx="http://www.garmin.com/xmlschemas/TrackPointExtension/v1">
            <gpxtpx:hr>138</gpxtpx:hr>
          </gpxtpx:TrackPointExtension>
        </extensions>
      </trkpt>
      <trkpt lat="50.64077" lon="5.31182">
        <ele>139</ele>
        <extensions>
          <gpxtpx:TrackPointExtension xmlns:gpxtpx="http://www.garmin.com/xmlschemas/TrackPointExtension/v1">
            <gpxtpx:hr>135</gpxtpx:hr>
          </gpxtpx:TrackPointExtension>
        </extensions>
      </trkpt>
      <trkpt lat="50.64074" lon="5.31195">
        <ele>138.80000305176</ele>
        <extensions>
          <gpxtpx:TrackPointExtension xmlns:gpxtpx="http://www.garmin.com/xmlschemas/TrackPointExtension/v1">
            <gpxtpx:hr>134</gpxtpx:hr>
          </gpxtpx:TrackPointExtension>
        </extensions>
      </trkpt>
      <trkpt lat="50.64062" lon="5.31248">
        <ele>137.60000610352</ele>
        <extensions>
          <gpxtpx:TrackPointExtension xmlns:gpxtpx="http://www.garmin.com/xmlschemas/TrackPointExtension/v1">
            <gpxtpx:hr>131</gpxtpx:hr>
          </gpxtpx:TrackPointExtension>
        </extensions>
      </trkpt>
      <trkpt lat="50.64053" lon="5.31288">
        <ele>136.80000305176</ele>
        <extensions>
          <gpxtpx:TrackPointExtension xmlns:gpxtpx="http://www.garmin.com/xmlschemas/TrackPointExtension/v1">
            <gpxtpx:hr>130</gpxtpx:hr>
          </gpxtpx:TrackPointExtension>
        </extensions>
      </trkpt>
      <trkpt lat="50.64047" lon="5.31314">
        <ele>136.60000610352</ele>
        <extensions>
          <gpxtpx:TrackPointExtension xmlns:gpxtpx="http://www.garmin.com/xmlschemas/TrackPointExtension/v1">
            <gpxtpx:hr>129</gpxtpx:hr>
          </gpxtpx:TrackPointExtension>
        </extensions>
      </trkpt>
      <trkpt lat="50.64036" lon="5.31368">
        <ele>135.60000610352</ele>
        <extensions>
          <gpxtpx:TrackPointExtension xmlns:gpxtpx="http://www.garmin.com/xmlschemas/TrackPointExtension/v1">
            <gpxtpx:hr>126</gpxtpx:hr>
          </gpxtpx:TrackPointExtension>
        </extensions>
      </trkpt>
      <trkpt lat="50.64032" lon="5.31381">
        <ele>135.39999389648</ele>
        <extensions>
          <gpxtpx:TrackPointExtension xmlns:gpxtpx="http://www.garmin.com/xmlschemas/TrackPointExtension/v1">
            <gpxtpx:hr>125</gpxtpx:hr>
          </gpxtpx:TrackPointExtension>
        </extensions>
      </trkpt>
      <trkpt lat="50.64029" lon="5.31395">
        <ele>135.39999389648</ele>
        <extensions>
          <gpxtpx:TrackPointExtension xmlns:gpxtpx="http://www.garmin.com/xmlschemas/TrackPointExtension/v1">
            <gpxtpx:hr>125</gpxtpx:hr>
          </gpxtpx:TrackPointExtension>
        </extensions>
      </trkpt>
      <trkpt lat="50.64021" lon="5.31437">
        <ele>135</ele>
        <extensions>
          <gpxtpx:TrackPointExtension xmlns:gpxtpx="http://www.garmin.com/xmlschemas/TrackPointExtension/v1">
            <gpxtpx:hr>122</gpxtpx:hr>
          </gpxtpx:TrackPointExtension>
        </extensions>
      </trkpt>
      <trkpt lat="50.64012" lon="5.3148">
        <ele>134.19999694824</ele>
        <extensions>
          <gpxtpx:TrackPointExtension xmlns:gpxtpx="http://www.garmin.com/xmlschemas/TrackPointExtension/v1">
            <gpxtpx:hr>118</gpxtpx:hr>
          </gpxtpx:TrackPointExtension>
        </extensions>
      </trkpt>
      <trkpt lat="50.64009" lon="5.31495">
        <ele>134</ele>
        <extensions>
          <gpxtpx:TrackPointExtension xmlns:gpxtpx="http://www.garmin.com/xmlschemas/TrackPointExtension/v1">
            <gpxtpx:hr>118</gpxtpx:hr>
          </gpxtpx:TrackPointExtension>
        </extensions>
      </trkpt>
      <trkpt lat="50.64005" lon="5.31525">
        <ele>133</ele>
        <extensions>
          <gpxtpx:TrackPointExtension xmlns:gpxtpx="http://www.garmin.com/xmlschemas/TrackPointExtension/v1">
            <gpxtpx:hr>117</gpxtpx:hr>
          </gpxtpx:TrackPointExtension>
        </extensions>
      </trkpt>
      <trkpt lat="50.64004" lon="5.3154">
        <ele>132.80000305176</ele>
        <extensions>
          <gpxtpx:TrackPointExtension xmlns:gpxtpx="http://www.garmin.com/xmlschemas/TrackPointExtension/v1">
            <gpxtpx:hr>117</gpxtpx:hr>
          </gpxtpx:TrackPointExtension>
        </extensions>
      </trkpt>
      <trkpt lat="50.64002" lon="5.31601">
        <ele>131.80000305176</ele>
        <extensions>
          <gpxtpx:TrackPointExtension xmlns:gpxtpx="http://www.garmin.com/xmlschemas/TrackPointExtension/v1">
            <gpxtpx:hr>114</gpxtpx:hr>
          </gpxtpx:TrackPointExtension>
        </extensions>
      </trkpt>
      <trkpt lat="50.64001" lon="5.31646">
        <ele>131</ele>
        <extensions>
          <gpxtpx:TrackPointExtension xmlns:gpxtpx="http://www.garmin.com/xmlschemas/TrackPointExtension/v1">
            <gpxtpx:hr>112</gpxtpx:hr>
          </gpxtpx:TrackPointExtension>
        </extensions>
      </trkpt>
      <trkpt lat="50.64" lon="5.3169">
        <ele>130.60000610352</ele>
        <extensions>
          <gpxtpx:TrackPointExtension xmlns:gpxtpx="http://www.garmin.com/xmlschemas/TrackPointExtension/v1">
            <gpxtpx:hr>110</gpxtpx:hr>
          </gpxtpx:TrackPointExtension>
        </extensions>
      </trkpt>
      <trkpt lat="50.63998" lon="5.31705">
        <ele>130.19999694824</ele>
        <extensions>
          <gpxtpx:TrackPointExtension xmlns:gpxtpx="http://www.garmin.com/xmlschemas/TrackPointExtension/v1">
            <gpxtpx:hr>110</gpxtpx:hr>
          </gpxtpx:TrackPointExtension>
        </extensions>
      </trkpt>
      <trkpt lat="50.63994" lon="5.31736">
        <ele>147.2</ele>
      </trkpt>
      <trkpt lat="50.63984" lon="5.31757">
        <ele>129.39999389648</ele>
        <extensions>
          <gpxtpx:TrackPointExtension xmlns:gpxtpx="http://www.garmin.com/xmlschemas/TrackPointExtension/v1">
            <gpxtpx:hr>109</gpxtpx:hr>
          </gpxtpx:TrackPointExtension>
        </extensions>
      </trkpt>
      <trkpt lat="50.63973" lon="5.31778">
        <ele>129.19999694824</ele>
        <extensions>
          <gpxtpx:TrackPointExtension xmlns:gpxtpx="http://www.garmin.com/xmlschemas/TrackPointExtension/v1">
            <gpxtpx:hr>108</gpxtpx:hr>
          </gpxtpx:TrackPointExtension>
        </extensions>
      </trkpt>
      <trkpt lat="50.63944" lon="5.31828">
        <ele>128.39999389648</ele>
        <extensions>
          <gpxtpx:TrackPointExtension xmlns:gpxtpx="http://www.garmin.com/xmlschemas/TrackPointExtension/v1">
            <gpxtpx:hr>108</gpxtpx:hr>
          </gpxtpx:TrackPointExtension>
        </extensions>
      </trkpt>
      <trkpt lat="50.63922" lon="5.31863">
        <ele>148.2</ele>
      </trkpt>
      <trkpt lat="50.63885" lon="5.3193">
        <ele>146.7</ele>
      </trkpt>
      <trkpt lat="50.63878" lon="5.31945">
        <ele>127.19999694824</ele>
        <extensions>
          <gpxtpx:TrackPointExtension xmlns:gpxtpx="http://www.garmin.com/xmlschemas/TrackPointExtension/v1">
            <gpxtpx:hr>109</gpxtpx:hr>
          </gpxtpx:TrackPointExtension>
        </extensions>
      </trkpt>
      <trkpt lat="50.63867" lon="5.31964">
        <ele>126.80000305176</ele>
        <extensions>
          <gpxtpx:TrackPointExtension xmlns:gpxtpx="http://www.garmin.com/xmlschemas/TrackPointExtension/v1">
            <gpxtpx:hr>109</gpxtpx:hr>
          </gpxtpx:TrackPointExtension>
        </extensions>
      </trkpt>
      <trkpt lat="50.6385" lon="5.31992">
        <ele>126.40000152588</ele>
        <extensions>
          <gpxtpx:TrackPointExtension xmlns:gpxtpx="http://www.garmin.com/xmlschemas/TrackPointExtension/v1">
            <gpxtpx:hr>110</gpxtpx:hr>
          </gpxtpx:TrackPointExtension>
        </extensions>
      </trkpt>
      <trkpt lat="50.63843" lon="5.32006">
        <ele>146</ele>
      </trkpt>
      <trkpt lat="50.63845" lon="5.32024">
        <ele>146</ele>
      </trkpt>
      <trkpt lat="50.63846" lon="5.32036">
        <ele>126</ele>
        <extensions>
          <gpxtpx:TrackPointExtension xmlns:gpxtpx="http://www.garmin.com/xmlschemas/TrackPointExtension/v1">
            <gpxtpx:hr>111</gpxtpx:hr>
          </gpxtpx:TrackPointExtension>
        </extensions>
      </trkpt>
      <trkpt lat="50.6385" lon="5.3207">
        <ele>125.80000305176</ele>
        <extensions>
          <gpxtpx:TrackPointExtension xmlns:gpxtpx="http://www.garmin.com/xmlschemas/TrackPointExtension/v1">
            <gpxtpx:hr>112</gpxtpx:hr>
          </gpxtpx:TrackPointExtension>
        </extensions>
      </trkpt>
      <trkpt lat="50.63853" lon="5.32093">
        <ele>125.80000305176</ele>
        <extensions>
          <gpxtpx:TrackPointExtension xmlns:gpxtpx="http://www.garmin.com/xmlschemas/TrackPointExtension/v1">
            <gpxtpx:hr>114</gpxtpx:hr>
          </gpxtpx:TrackPointExtension>
        </extensions>
      </trkpt>
      <trkpt lat="50.63857" lon="5.32127">
        <ele>125.80000305176</ele>
        <extensions>
          <gpxtpx:TrackPointExtension xmlns:gpxtpx="http://www.garmin.com/xmlschemas/TrackPointExtension/v1">
            <gpxtpx:hr>116</gpxtpx:hr>
          </gpxtpx:TrackPointExtension>
        </extensions>
      </trkpt>
      <trkpt lat="50.6386" lon="5.32161">
        <ele>125.80000305176</ele>
        <extensions>
          <gpxtpx:TrackPointExtension xmlns:gpxtpx="http://www.garmin.com/xmlschemas/TrackPointExtension/v1">
            <gpxtpx:hr>115</gpxtpx:hr>
          </gpxtpx:TrackPointExtension>
        </extensions>
      </trkpt>
      <trkpt lat="50.63864" lon="5.32203">
        <ele>146</ele>
      </trkpt>
      <trkpt lat="50.63867" lon="5.32233">
        <ele>126.40000152588</ele>
        <extensions>
          <gpxtpx:TrackPointExtension xmlns:gpxtpx="http://www.garmin.com/xmlschemas/TrackPointExtension/v1">
            <gpxtpx:hr>118</gpxtpx:hr>
          </gpxtpx:TrackPointExtension>
        </extensions>
      </trkpt>
      <trkpt lat="50.63876" lon="5.32267">
        <ele>147</ele>
      </trkpt>
      <trkpt lat="50.63888" lon="5.32304">
        <ele>127</ele>
        <extensions>
          <gpxtpx:TrackPointExtension xmlns:gpxtpx="http://www.garmin.com/xmlschemas/TrackPointExtension/v1">
            <gpxtpx:hr>123</gpxtpx:hr>
          </gpxtpx:TrackPointExtension>
        </extensions>
      </trkpt>
      <trkpt lat="50.6389" lon="5.32312">
        <ele>127</ele>
        <extensions>
          <gpxtpx:TrackPointExtension xmlns:gpxtpx="http://www.garmin.com/xmlschemas/TrackPointExtension/v1">
            <gpxtpx:hr>123</gpxtpx:hr>
          </gpxtpx:TrackPointExtension>
        </extensions>
      </trkpt>
      <trkpt lat="50.63888" lon="5.32345">
        <ele>148.7</ele>
      </trkpt>
      <trkpt lat="50.63886" lon="5.3236">
        <ele>148.9</ele>
      </trkpt>
      <trkpt lat="50.63877" lon="5.32402">
        <ele>149.3</ele>
      </trkpt>
      <trkpt lat="50.63863" lon="5.32449">
        <ele>151.6</ele>
      </trkpt>
      <trkpt lat="50.63854" lon="5.32497">
        <ele>152.2</ele>
      </trkpt>
      <trkpt lat="50.63853" lon="5.32518">
        <ele>154</ele>
      </trkpt>
      <trkpt lat="50.63854" lon="5.32549">
        <ele>130.19999694824</ele>
        <extensions>
          <gpxtpx:TrackPointExtension xmlns:gpxtpx="http://www.garmin.com/xmlschemas/TrackPointExtension/v1">
            <gpxtpx:hr>131</gpxtpx:hr>
          </gpxtpx:TrackPointExtension>
        </extensions>
      </trkpt>
      <trkpt lat="50.63854" lon="5.32556">
        <ele>130.39999389648</ele>
        <extensions>
          <gpxtpx:TrackPointExtension xmlns:gpxtpx="http://www.garmin.com/xmlschemas/TrackPointExtension/v1">
            <gpxtpx:hr>131</gpxtpx:hr>
          </gpxtpx:TrackPointExtension>
        </extensions>
      </trkpt>
      <trkpt lat="50.63856" lon="5.32572">
        <ele>130.60000610352</ele>
        <extensions>
          <gpxtpx:TrackPointExtension xmlns:gpxtpx="http://www.garmin.com/xmlschemas/TrackPointExtension/v1">
            <gpxtpx:hr>132</gpxtpx:hr>
          </gpxtpx:TrackPointExtension>
        </extensions>
      </trkpt>
      <trkpt lat="50.6386" lon="5.3261">
        <ele>131.39999389648</ele>
        <extensions>
          <gpxtpx:TrackPointExtension xmlns:gpxtpx="http://www.garmin.com/xmlschemas/TrackPointExtension/v1">
            <gpxtpx:hr>134</gpxtpx:hr>
          </gpxtpx:TrackPointExtension>
        </extensions>
      </trkpt>
      <trkpt lat="50.63864" lon="5.32632">
        <ele>132</ele>
        <extensions>
          <gpxtpx:TrackPointExtension xmlns:gpxtpx="http://www.garmin.com/xmlschemas/TrackPointExtension/v1">
            <gpxtpx:hr>136</gpxtpx:hr>
          </gpxtpx:TrackPointExtension>
        </extensions>
      </trkpt>
      <trkpt lat="50.63866" lon="5.32647">
        <ele>132.60000610352</ele>
        <extensions>
          <gpxtpx:TrackPointExtension xmlns:gpxtpx="http://www.garmin.com/xmlschemas/TrackPointExtension/v1">
            <gpxtpx:hr>137</gpxtpx:hr>
          </gpxtpx:TrackPointExtension>
        </extensions>
      </trkpt>
      <trkpt lat="50.63869" lon="5.3267">
        <ele>133.60000610352</ele>
        <extensions>
          <gpxtpx:TrackPointExtension xmlns:gpxtpx="http://www.garmin.com/xmlschemas/TrackPointExtension/v1">
            <gpxtpx:hr>139</gpxtpx:hr>
          </gpxtpx:TrackPointExtension>
        </extensions>
      </trkpt>
      <trkpt lat="50.63873" lon="5.32699">
        <ele>134.60000610352</ele>
        <extensions>
          <gpxtpx:TrackPointExtension xmlns:gpxtpx="http://www.garmin.com/xmlschemas/TrackPointExtension/v1">
            <gpxtpx:hr>141</gpxtpx:hr>
          </gpxtpx:TrackPointExtension>
        </extensions>
      </trkpt>
      <trkpt lat="50.63874" lon="5.32706">
        <ele>135</ele>
        <extensions>
          <gpxtpx:TrackPointExtension xmlns:gpxtpx="http://www.garmin.com/xmlschemas/TrackPointExtension/v1">
            <gpxtpx:hr>141</gpxtpx:hr>
          </gpxtpx:TrackPointExtension>
        </extensions>
      </trkpt>
      <trkpt lat="50.63878" lon="5.32729">
        <ele>135.60000610352</ele>
        <extensions>
          <gpxtpx:TrackPointExtension xmlns:gpxtpx="http://www.garmin.com/xmlschemas/TrackPointExtension/v1">
            <gpxtpx:hr>143</gpxtpx:hr>
          </gpxtpx:TrackPointExtension>
        </extensions>
      </trkpt>
      <trkpt lat="50.63884" lon="5.32765">
        <ele>136.80000305176</ele>
        <extensions>
          <gpxtpx:TrackPointExtension xmlns:gpxtpx="http://www.garmin.com/xmlschemas/TrackPointExtension/v1">
            <gpxtpx:hr>145</gpxtpx:hr>
          </gpxtpx:TrackPointExtension>
        </extensions>
      </trkpt>
      <trkpt lat="50.63887" lon="5.32787">
        <ele>137.19999694824</ele>
        <extensions>
          <gpxtpx:TrackPointExtension xmlns:gpxtpx="http://www.garmin.com/xmlschemas/TrackPointExtension/v1">
            <gpxtpx:hr>146</gpxtpx:hr>
          </gpxtpx:TrackPointExtension>
        </extensions>
      </trkpt>
      <trkpt lat="50.6389" lon="5.3281">
        <ele>138</ele>
        <extensions>
          <gpxtpx:TrackPointExtension xmlns:gpxtpx="http://www.garmin.com/xmlschemas/TrackPointExtension/v1">
            <gpxtpx:hr>146</gpxtpx:hr>
          </gpxtpx:TrackPointExtension>
        </extensions>
      </trkpt>
      <trkpt lat="50.63895" lon="5.32848">
        <ele>139</ele>
        <extensions>
          <gpxtpx:TrackPointExtension xmlns:gpxtpx="http://www.garmin.com/xmlschemas/TrackPointExtension/v1">
            <gpxtpx:hr>148</gpxtpx:hr>
          </gpxtpx:TrackPointExtension>
        </extensions>
      </trkpt>
      <trkpt lat="50.63901" lon="5.32887">
        <ele>140.19999694824</ele>
        <extensions>
          <gpxtpx:TrackPointExtension xmlns:gpxtpx="http://www.garmin.com/xmlschemas/TrackPointExtension/v1">
            <gpxtpx:hr>149</gpxtpx:hr>
          </gpxtpx:TrackPointExtension>
        </extensions>
      </trkpt>
      <trkpt lat="50.63907" lon="5.32935">
        <ele>141.19999694824</ele>
        <extensions>
          <gpxtpx:TrackPointExtension xmlns:gpxtpx="http://www.garmin.com/xmlschemas/TrackPointExtension/v1">
            <gpxtpx:hr>150</gpxtpx:hr>
          </gpxtpx:TrackPointExtension>
        </extensions>
      </trkpt>
      <trkpt lat="50.63914" lon="5.32984">
        <ele>142.60000610352</ele>
        <extensions>
          <gpxtpx:TrackPointExtension xmlns:gpxtpx="http://www.garmin.com/xmlschemas/TrackPointExtension/v1">
            <gpxtpx:hr>151</gpxtpx:hr>
          </gpxtpx:TrackPointExtension>
        </extensions>
      </trkpt>
      <trkpt lat="50.63917" lon="5.33009">
        <ele>143</ele>
        <extensions>
          <gpxtpx:TrackPointExtension xmlns:gpxtpx="http://www.garmin.com/xmlschemas/TrackPointExtension/v1">
            <gpxtpx:hr>151</gpxtpx:hr>
          </gpxtpx:TrackPointExtension>
        </extensions>
      </trkpt>
      <trkpt lat="50.63923" lon="5.33034">
        <ele>143.60000610352</ele>
        <extensions>
          <gpxtpx:TrackPointExtension xmlns:gpxtpx="http://www.garmin.com/xmlschemas/TrackPointExtension/v1">
            <gpxtpx:hr>152</gpxtpx:hr>
          </gpxtpx:TrackPointExtension>
        </extensions>
      </trkpt>
      <trkpt lat="50.63932" lon="5.33067">
        <ele>143.80000305176</ele>
        <extensions>
          <gpxtpx:TrackPointExtension xmlns:gpxtpx="http://www.garmin.com/xmlschemas/TrackPointExtension/v1">
            <gpxtpx:hr>152</gpxtpx:hr>
          </gpxtpx:TrackPointExtension>
        </extensions>
      </trkpt>
      <trkpt lat="50.63941" lon="5.33101">
        <ele>144.60000610352</ele>
        <extensions>
          <gpxtpx:TrackPointExtension xmlns:gpxtpx="http://www.garmin.com/xmlschemas/TrackPointExtension/v1">
            <gpxtpx:hr>152</gpxtpx:hr>
          </gpxtpx:TrackPointExtension>
        </extensions>
      </trkpt>
      <trkpt lat="50.63955" lon="5.33151">
        <ele>145.39999389648</ele>
        <extensions>
          <gpxtpx:TrackPointExtension xmlns:gpxtpx="http://www.garmin.com/xmlschemas/TrackPointExtension/v1">
            <gpxtpx:hr>153</gpxtpx:hr>
          </gpxtpx:TrackPointExtension>
        </extensions>
      </trkpt>
      <trkpt lat="50.6396" lon="5.33168">
        <ele>145.80000305176</ele>
        <extensions>
          <gpxtpx:TrackPointExtension xmlns:gpxtpx="http://www.garmin.com/xmlschemas/TrackPointExtension/v1">
            <gpxtpx:hr>153</gpxtpx:hr>
          </gpxtpx:TrackPointExtension>
        </extensions>
      </trkpt>
      <trkpt lat="50.63973" lon="5.3322">
        <ele>146.80000305176</ele>
        <extensions>
          <gpxtpx:TrackPointExtension xmlns:gpxtpx="http://www.garmin.com/xmlschemas/TrackPointExtension/v1">
            <gpxtpx:hr>154</gpxtpx:hr>
          </gpxtpx:TrackPointExtension>
        </extensions>
      </trkpt>
      <trkpt lat="50.63976" lon="5.33229">
        <ele>146.80000305176</ele>
        <extensions>
          <gpxtpx:TrackPointExtension xmlns:gpxtpx="http://www.garmin.com/xmlschemas/TrackPointExtension/v1">
            <gpxtpx:hr>154</gpxtpx:hr>
          </gpxtpx:TrackPointExtension>
        </extensions>
      </trkpt>
      <trkpt lat="50.63998" lon="5.33311">
        <ele>147.60000610352</ele>
        <extensions>
          <gpxtpx:TrackPointExtension xmlns:gpxtpx="http://www.garmin.com/xmlschemas/TrackPointExtension/v1">
            <gpxtpx:hr>154</gpxtpx:hr>
          </gpxtpx:TrackPointExtension>
        </extensions>
      </trkpt>
      <trkpt lat="50.64003" lon="5.33329">
        <ele>147.80000305176</ele>
        <extensions>
          <gpxtpx:TrackPointExtension xmlns:gpxtpx="http://www.garmin.com/xmlschemas/TrackPointExtension/v1">
            <gpxtpx:hr>153</gpxtpx:hr>
          </gpxtpx:TrackPointExtension>
        </extensions>
      </trkpt>
      <trkpt lat="50.64006" lon="5.33339">
        <ele>147.80000305176</ele>
        <extensions>
          <gpxtpx:TrackPointExtension xmlns:gpxtpx="http://www.garmin.com/xmlschemas/TrackPointExtension/v1">
            <gpxtpx:hr>154</gpxtpx:hr>
          </gpxtpx:TrackPointExtension>
        </extensions>
      </trkpt>
      <trkpt lat="50.64028" lon="5.33422">
        <ele>148.60000610352</ele>
        <extensions>
          <gpxtpx:TrackPointExtension xmlns:gpxtpx="http://www.garmin.com/xmlschemas/TrackPointExtension/v1">
            <gpxtpx:hr>153</gpxtpx:hr>
          </gpxtpx:TrackPointExtension>
        </extensions>
      </trkpt>
      <trkpt lat="50.64031" lon="5.33431">
        <ele>148.80000305176</ele>
        <extensions>
          <gpxtpx:TrackPointExtension xmlns:gpxtpx="http://www.garmin.com/xmlschemas/TrackPointExtension/v1">
            <gpxtpx:hr>152</gpxtpx:hr>
          </gpxtpx:TrackPointExtension>
        </extensions>
      </trkpt>
      <trkpt lat="50.64033" lon="5.33441">
        <ele>149</ele>
        <extensions>
          <gpxtpx:TrackPointExtension xmlns:gpxtpx="http://www.garmin.com/xmlschemas/TrackPointExtension/v1">
            <gpxtpx:hr>152</gpxtpx:hr>
          </gpxtpx:TrackPointExtension>
        </extensions>
      </trkpt>
      <trkpt lat="50.64056" lon="5.33525">
        <ele>149.80000305176</ele>
        <extensions>
          <gpxtpx:TrackPointExtension xmlns:gpxtpx="http://www.garmin.com/xmlschemas/TrackPointExtension/v1">
            <gpxtpx:hr>152</gpxtpx:hr>
          </gpxtpx:TrackPointExtension>
        </extensions>
      </trkpt>
      <trkpt lat="50.64059" lon="5.33535">
        <ele>150</ele>
        <extensions>
          <gpxtpx:TrackPointExtension xmlns:gpxtpx="http://www.garmin.com/xmlschemas/TrackPointExtension/v1">
            <gpxtpx:hr>152</gpxtpx:hr>
          </gpxtpx:TrackPointExtension>
        </extensions>
      </trkpt>
      <trkpt lat="50.64082" lon="5.3362">
        <ele>150.39999389648</ele>
        <extensions>
          <gpxtpx:TrackPointExtension xmlns:gpxtpx="http://www.garmin.com/xmlschemas/TrackPointExtension/v1">
            <gpxtpx:hr>151</gpxtpx:hr>
          </gpxtpx:TrackPointExtension>
        </extensions>
      </trkpt>
      <trkpt lat="50.64092" lon="5.33657">
        <ele>151</ele>
        <extensions>
          <gpxtpx:TrackPointExtension xmlns:gpxtpx="http://www.garmin.com/xmlschemas/TrackPointExtension/v1">
            <gpxtpx:hr>151</gpxtpx:hr>
          </gpxtpx:TrackPointExtension>
        </extensions>
      </trkpt>
      <trkpt lat="50.64094" lon="5.33667">
        <ele>151</ele>
        <extensions>
          <gpxtpx:TrackPointExtension xmlns:gpxtpx="http://www.garmin.com/xmlschemas/TrackPointExtension/v1">
            <gpxtpx:hr>151</gpxtpx:hr>
          </gpxtpx:TrackPointExtension>
        </extensions>
      </trkpt>
      <trkpt lat="50.64108" lon="5.33712">
        <ele>168</ele>
      </trkpt>
      <trkpt lat="50.64122" lon="5.33751">
        <ele>151.80000305176</ele>
        <extensions>
          <gpxtpx:TrackPointExtension xmlns:gpxtpx="http://www.garmin.com/xmlschemas/TrackPointExtension/v1">
            <gpxtpx:hr>149</gpxtpx:hr>
          </gpxtpx:TrackPointExtension>
        </extensions>
      </trkpt>
      <trkpt lat="50.64129" lon="5.33769">
        <ele>152</ele>
        <extensions>
          <gpxtpx:TrackPointExtension xmlns:gpxtpx="http://www.garmin.com/xmlschemas/TrackPointExtension/v1">
            <gpxtpx:hr>149</gpxtpx:hr>
          </gpxtpx:TrackPointExtension>
        </extensions>
      </trkpt>
      <trkpt lat="50.64151" lon="5.33813">
        <ele>152.19999694824</ele>
        <extensions>
          <gpxtpx:TrackPointExtension xmlns:gpxtpx="http://www.garmin.com/xmlschemas/TrackPointExtension/v1">
            <gpxtpx:hr>147</gpxtpx:hr>
          </gpxtpx:TrackPointExtension>
        </extensions>
      </trkpt>
      <trkpt lat="50.64176" lon="5.33862">
        <ele>152.19999694824</ele>
        <extensions>
          <gpxtpx:TrackPointExtension xmlns:gpxtpx="http://www.garmin.com/xmlschemas/TrackPointExtension/v1">
            <gpxtpx:hr>144</gpxtpx:hr>
          </gpxtpx:TrackPointExtension>
        </extensions>
      </trkpt>
      <trkpt lat="50.64187" lon="5.33883">
        <ele>151.80000305176</ele>
        <extensions>
          <gpxtpx:TrackPointExtension xmlns:gpxtpx="http://www.garmin.com/xmlschemas/TrackPointExtension/v1">
            <gpxtpx:hr>144</gpxtpx:hr>
          </gpxtpx:TrackPointExtension>
        </extensions>
      </trkpt>
      <trkpt lat="50.64204" lon="5.33916">
        <ele>151.19999694824</ele>
        <extensions>
          <gpxtpx:TrackPointExtension xmlns:gpxtpx="http://www.garmin.com/xmlschemas/TrackPointExtension/v1">
            <gpxtpx:hr>141</gpxtpx:hr>
          </gpxtpx:TrackPointExtension>
        </extensions>
      </trkpt>
      <trkpt lat="50.6421" lon="5.33928">
        <ele>150.80000305176</ele>
        <extensions>
          <gpxtpx:TrackPointExtension xmlns:gpxtpx="http://www.garmin.com/xmlschemas/TrackPointExtension/v1">
            <gpxtpx:hr>141</gpxtpx:hr>
          </gpxtpx:TrackPointExtension>
        </extensions>
      </trkpt>
      <trkpt lat="50.64221" lon="5.33951">
        <ele>149.80000305176</ele>
        <extensions>
          <gpxtpx:TrackPointExtension xmlns:gpxtpx="http://www.garmin.com/xmlschemas/TrackPointExtension/v1">
            <gpxtpx:hr>139</gpxtpx:hr>
          </gpxtpx:TrackPointExtension>
        </extensions>
      </trkpt>
      <trkpt lat="50.64233" lon="5.33974">
        <ele>149.19999694824</ele>
        <extensions>
          <gpxtpx:TrackPointExtension xmlns:gpxtpx="http://www.garmin.com/xmlschemas/TrackPointExtension/v1">
            <gpxtpx:hr>137</gpxtpx:hr>
          </gpxtpx:TrackPointExtension>
        </extensions>
      </trkpt>
      <trkpt lat="50.64245" lon="5.33998">
        <ele>148.60000610352</ele>
        <extensions>
          <gpxtpx:TrackPointExtension xmlns:gpxtpx="http://www.garmin.com/xmlschemas/TrackPointExtension/v1">
            <gpxtpx:hr>134</gpxtpx:hr>
          </gpxtpx:TrackPointExtension>
        </extensions>
      </trkpt>
      <trkpt lat="50.6426" lon="5.34036">
        <ele>148</ele>
        <extensions>
          <gpxtpx:TrackPointExtension xmlns:gpxtpx="http://www.garmin.com/xmlschemas/TrackPointExtension/v1">
            <gpxtpx:hr>131</gpxtpx:hr>
          </gpxtpx:TrackPointExtension>
        </extensions>
      </trkpt>
      <trkpt lat="50.64269" lon="5.3406">
        <ele>147.80000305176</ele>
        <extensions>
          <gpxtpx:TrackPointExtension xmlns:gpxtpx="http://www.garmin.com/xmlschemas/TrackPointExtension/v1">
            <gpxtpx:hr>129</gpxtpx:hr>
          </gpxtpx:TrackPointExtension>
        </extensions>
      </trkpt>
      <trkpt lat="50.64287" lon="5.34108">
        <ele>147.39999389648</ele>
        <extensions>
          <gpxtpx:TrackPointExtension xmlns:gpxtpx="http://www.garmin.com/xmlschemas/TrackPointExtension/v1">
            <gpxtpx:hr>129</gpxtpx:hr>
          </gpxtpx:TrackPointExtension>
        </extensions>
      </trkpt>
      <trkpt lat="50.64312" lon="5.3418">
        <ele>146.19999694824</ele>
        <extensions>
          <gpxtpx:TrackPointExtension xmlns:gpxtpx="http://www.garmin.com/xmlschemas/TrackPointExtension/v1">
            <gpxtpx:hr>128</gpxtpx:hr>
          </gpxtpx:TrackPointExtension>
        </extensions>
      </trkpt>
      <trkpt lat="50.64333" lon="5.34237">
        <ele>145.19999694824</ele>
        <extensions>
          <gpxtpx:TrackPointExtension xmlns:gpxtpx="http://www.garmin.com/xmlschemas/TrackPointExtension/v1">
            <gpxtpx:hr>128</gpxtpx:hr>
          </gpxtpx:TrackPointExtension>
        </extensions>
      </trkpt>
      <trkpt lat="50.64348" lon="5.34282">
        <ele>144.80000305176</ele>
        <extensions>
          <gpxtpx:TrackPointExtension xmlns:gpxtpx="http://www.garmin.com/xmlschemas/TrackPointExtension/v1">
            <gpxtpx:hr>129</gpxtpx:hr>
          </gpxtpx:TrackPointExtension>
        </extensions>
      </trkpt>
      <trkpt lat="50.64368" lon="5.34336">
        <ele>144.80000305176</ele>
        <extensions>
          <gpxtpx:TrackPointExtension xmlns:gpxtpx="http://www.garmin.com/xmlschemas/TrackPointExtension/v1">
            <gpxtpx:hr>132</gpxtpx:hr>
          </gpxtpx:TrackPointExtension>
        </extensions>
      </trkpt>
      <trkpt lat="50.64391" lon="5.34399">
        <ele>145.19999694824</ele>
        <extensions>
          <gpxtpx:TrackPointExtension xmlns:gpxtpx="http://www.garmin.com/xmlschemas/TrackPointExtension/v1">
            <gpxtpx:hr>134</gpxtpx:hr>
          </gpxtpx:TrackPointExtension>
        </extensions>
      </trkpt>
      <trkpt lat="50.64418" lon="5.3447">
        <ele>145.80000305176</ele>
        <extensions>
          <gpxtpx:TrackPointExtension xmlns:gpxtpx="http://www.garmin.com/xmlschemas/TrackPointExtension/v1">
            <gpxtpx:hr>137</gpxtpx:hr>
          </gpxtpx:TrackPointExtension>
        </extensions>
      </trkpt>
      <trkpt lat="50.64431" lon="5.34499">
        <ele>146.19999694824</ele>
        <extensions>
          <gpxtpx:TrackPointExtension xmlns:gpxtpx="http://www.garmin.com/xmlschemas/TrackPointExtension/v1">
            <gpxtpx:hr>138</gpxtpx:hr>
          </gpxtpx:TrackPointExtension>
        </extensions>
      </trkpt>
      <trkpt lat="50.64436" lon="5.34508">
        <ele>146.39999389648</ele>
        <extensions>
          <gpxtpx:TrackPointExtension xmlns:gpxtpx="http://www.garmin.com/xmlschemas/TrackPointExtension/v1">
            <gpxtpx:hr>137</gpxtpx:hr>
          </gpxtpx:TrackPointExtension>
        </extensions>
      </trkpt>
      <trkpt lat="50.64471" lon="5.34584">
        <ele>146.60000610352</ele>
        <extensions>
          <gpxtpx:TrackPointExtension xmlns:gpxtpx="http://www.garmin.com/xmlschemas/TrackPointExtension/v1">
            <gpxtpx:hr>138</gpxtpx:hr>
          </gpxtpx:TrackPointExtension>
        </extensions>
      </trkpt>
      <trkpt lat="50.64506" lon="5.34662">
        <ele>145.39999389648</ele>
        <extensions>
          <gpxtpx:TrackPointExtension xmlns:gpxtpx="http://www.garmin.com/xmlschemas/TrackPointExtension/v1">
            <gpxtpx:hr>138</gpxtpx:hr>
          </gpxtpx:TrackPointExtension>
        </extensions>
      </trkpt>
      <trkpt lat="50.64516" lon="5.34682">
        <ele>145</ele>
        <extensions>
          <gpxtpx:TrackPointExtension xmlns:gpxtpx="http://www.garmin.com/xmlschemas/TrackPointExtension/v1">
            <gpxtpx:hr>138</gpxtpx:hr>
          </gpxtpx:TrackPointExtension>
        </extensions>
      </trkpt>
      <trkpt lat="50.6453" lon="5.34712">
        <ele>144.19999694824</ele>
        <extensions>
          <gpxtpx:TrackPointExtension xmlns:gpxtpx="http://www.garmin.com/xmlschemas/TrackPointExtension/v1">
            <gpxtpx:hr>138</gpxtpx:hr>
          </gpxtpx:TrackPointExtension>
        </extensions>
      </trkpt>
      <trkpt lat="50.64558" lon="5.34774">
        <ele>143.19999694824</ele>
        <extensions>
          <gpxtpx:TrackPointExtension xmlns:gpxtpx="http://www.garmin.com/xmlschemas/TrackPointExtension/v1">
            <gpxtpx:hr>135</gpxtpx:hr>
          </gpxtpx:TrackPointExtension>
        </extensions>
      </trkpt>
      <trkpt lat="50.64572" lon="5.34806">
        <ele>142.80000305176</ele>
        <extensions>
          <gpxtpx:TrackPointExtension xmlns:gpxtpx="http://www.garmin.com/xmlschemas/TrackPointExtension/v1">
            <gpxtpx:hr>132</gpxtpx:hr>
          </gpxtpx:TrackPointExtension>
        </extensions>
      </trkpt>
      <trkpt lat="50.64582" lon="5.34827">
        <ele>142.19999694824</ele>
        <extensions>
          <gpxtpx:TrackPointExtension xmlns:gpxtpx="http://www.garmin.com/xmlschemas/TrackPointExtension/v1">
            <gpxtpx:hr>131</gpxtpx:hr>
          </gpxtpx:TrackPointExtension>
        </extensions>
      </trkpt>
      <trkpt lat="50.64597" lon="5.34859">
        <ele>141.39999389648</ele>
        <extensions>
          <gpxtpx:TrackPointExtension xmlns:gpxtpx="http://www.garmin.com/xmlschemas/TrackPointExtension/v1">
            <gpxtpx:hr>128</gpxtpx:hr>
          </gpxtpx:TrackPointExtension>
        </extensions>
      </trkpt>
      <trkpt lat="50.64612" lon="5.34891">
        <ele>141</ele>
        <extensions>
          <gpxtpx:TrackPointExtension xmlns:gpxtpx="http://www.garmin.com/xmlschemas/TrackPointExtension/v1">
            <gpxtpx:hr>125</gpxtpx:hr>
          </gpxtpx:TrackPointExtension>
        </extensions>
      </trkpt>
      <trkpt lat="50.64649" lon="5.34957">
        <ele>140.19999694824</ele>
        <extensions>
          <gpxtpx:TrackPointExtension xmlns:gpxtpx="http://www.garmin.com/xmlschemas/TrackPointExtension/v1">
            <gpxtpx:hr>123</gpxtpx:hr>
          </gpxtpx:TrackPointExtension>
        </extensions>
      </trkpt>
      <trkpt lat="50.64681" lon="5.35009">
        <ele>139.60000610352</ele>
        <extensions>
          <gpxtpx:TrackPointExtension xmlns:gpxtpx="http://www.garmin.com/xmlschemas/TrackPointExtension/v1">
            <gpxtpx:hr>120</gpxtpx:hr>
          </gpxtpx:TrackPointExtension>
        </extensions>
      </trkpt>
      <trkpt lat="50.64692" lon="5.35025">
        <ele>139.60000610352</ele>
        <extensions>
          <gpxtpx:TrackPointExtension xmlns:gpxtpx="http://www.garmin.com/xmlschemas/TrackPointExtension/v1">
            <gpxtpx:hr>119</gpxtpx:hr>
          </gpxtpx:TrackPointExtension>
        </extensions>
      </trkpt>
      <trkpt lat="50.64709" lon="5.35054">
        <ele>156.4</ele>
      </trkpt>
      <trkpt lat="50.64731" lon="5.35088">
        <ele>139.80000305176</ele>
        <extensions>
          <gpxtpx:TrackPointExtension xmlns:gpxtpx="http://www.garmin.com/xmlschemas/TrackPointExtension/v1">
            <gpxtpx:hr>122</gpxtpx:hr>
          </gpxtpx:TrackPointExtension>
        </extensions>
      </trkpt>
      <trkpt lat="50.64741" lon="5.35104">
        <ele>139.80000305176</ele>
        <extensions>
          <gpxtpx:TrackPointExtension xmlns:gpxtpx="http://www.garmin.com/xmlschemas/TrackPointExtension/v1">
            <gpxtpx:hr>123</gpxtpx:hr>
          </gpxtpx:TrackPointExtension>
        </extensions>
      </trkpt>
      <trkpt lat="50.6476" lon="5.35133">
        <ele>140</ele>
        <extensions>
          <gpxtpx:TrackPointExtension xmlns:gpxtpx="http://www.garmin.com/xmlschemas/TrackPointExtension/v1">
            <gpxtpx:hr>126</gpxtpx:hr>
          </gpxtpx:TrackPointExtension>
        </extensions>
      </trkpt>
      <trkpt lat="50.64774" lon="5.35152">
        <ele>140.39999389648</ele>
        <extensions>
          <gpxtpx:TrackPointExtension xmlns:gpxtpx="http://www.garmin.com/xmlschemas/TrackPointExtension/v1">
            <gpxtpx:hr>128</gpxtpx:hr>
          </gpxtpx:TrackPointExtension>
        </extensions>
      </trkpt>
      <trkpt lat="50.64791" lon="5.35181">
        <ele>141.19999694824</ele>
        <extensions>
          <gpxtpx:TrackPointExtension xmlns:gpxtpx="http://www.garmin.com/xmlschemas/TrackPointExtension/v1">
            <gpxtpx:hr>130</gpxtpx:hr>
          </gpxtpx:TrackPointExtension>
        </extensions>
      </trkpt>
      <trkpt lat="50.64804" lon="5.35202">
        <ele>141.39999389648</ele>
        <extensions>
          <gpxtpx:TrackPointExtension xmlns:gpxtpx="http://www.garmin.com/xmlschemas/TrackPointExtension/v1">
            <gpxtpx:hr>132</gpxtpx:hr>
          </gpxtpx:TrackPointExtension>
        </extensions>
      </trkpt>
      <trkpt lat="50.64821" lon="5.3523">
        <ele>141.60000610352</ele>
        <extensions>
          <gpxtpx:TrackPointExtension xmlns:gpxtpx="http://www.garmin.com/xmlschemas/TrackPointExtension/v1">
            <gpxtpx:hr>135</gpxtpx:hr>
          </gpxtpx:TrackPointExtension>
        </extensions>
      </trkpt>
      <trkpt lat="50.64836" lon="5.35252">
        <ele>141.80000305176</ele>
        <extensions>
          <gpxtpx:TrackPointExtension xmlns:gpxtpx="http://www.garmin.com/xmlschemas/TrackPointExtension/v1">
            <gpxtpx:hr>136</gpxtpx:hr>
          </gpxtpx:TrackPointExtension>
        </extensions>
      </trkpt>
      <trkpt lat="50.64864" lon="5.35297">
        <ele>142.39999389648</ele>
        <extensions>
          <gpxtpx:TrackPointExtension xmlns:gpxtpx="http://www.garmin.com/xmlschemas/TrackPointExtension/v1">
            <gpxtpx:hr>139</gpxtpx:hr>
          </gpxtpx:TrackPointExtension>
        </extensions>
      </trkpt>
      <trkpt lat="50.64873" lon="5.35312">
        <ele>142.60000610352</ele>
        <extensions>
          <gpxtpx:TrackPointExtension xmlns:gpxtpx="http://www.garmin.com/xmlschemas/TrackPointExtension/v1">
            <gpxtpx:hr>139</gpxtpx:hr>
          </gpxtpx:TrackPointExtension>
        </extensions>
      </trkpt>
      <trkpt lat="50.64891" lon="5.3534">
        <ele>162</ele>
      </trkpt>
      <trkpt lat="50.64908" lon="5.35362">
        <ele>143</ele>
        <extensions>
          <gpxtpx:TrackPointExtension xmlns:gpxtpx="http://www.garmin.com/xmlschemas/TrackPointExtension/v1">
            <gpxtpx:hr>141</gpxtpx:hr>
          </gpxtpx:TrackPointExtension>
        </extensions>
      </trkpt>
      <trkpt lat="50.64935" lon="5.35386">
        <ele>162.2</ele>
      </trkpt>
      <trkpt lat="50.64944" lon="5.35394">
        <ele>162.3</ele>
      </trkpt>
      <trkpt lat="50.64982" lon="5.3541">
        <ele>163.5</ele>
      </trkpt>
      <trkpt lat="50.6503" lon="5.35421">
        <ele>164</ele>
      </trkpt>
      <trkpt lat="50.65084" lon="5.35432">
        <ele>162.3</ele>
      </trkpt>
      <trkpt lat="50.65111" lon="5.35438">
        <ele>162.4</ele>
      </trkpt>
      <trkpt lat="50.65109" lon="5.35449">
        <ele>162.5</ele>
      </trkpt>
      <trkpt lat="50.65104" lon="5.35469">
        <ele>162.5</ele>
      </trkpt>
      <trkpt lat="50.65096" lon="5.35502">
        <ele>162.8</ele>
      </trkpt>
      <trkpt lat="50.6509" lon="5.35538">
        <ele>162.8</ele>
      </trkpt>
      <trkpt lat="50.65082" lon="5.35589">
        <ele>164.2</ele>
      </trkpt>
      <trkpt lat="50.65079" lon="5.35612">
        <ele>164.8</ele>
      </trkpt>
      <trkpt lat="50.65074" lon="5.35701">
        <ele>165.3</ele>
      </trkpt>
      <trkpt lat="50.65072" lon="5.35769">
        <ele>143.19999694824</ele>
        <extensions>
          <gpxtpx:TrackPointExtension xmlns:gpxtpx="http://www.garmin.com/xmlschemas/TrackPointExtension/v1">
            <gpxtpx:hr>127</gpxtpx:hr>
          </gpxtpx:TrackPointExtension>
        </extensions>
      </trkpt>
      <trkpt lat="50.65066" lon="5.35861">
        <ele>143</ele>
        <extensions>
          <gpxtpx:TrackPointExtension xmlns:gpxtpx="http://www.garmin.com/xmlschemas/TrackPointExtension/v1">
            <gpxtpx:hr>126</gpxtpx:hr>
          </gpxtpx:TrackPointExtension>
        </extensions>
      </trkpt>
      <trkpt lat="50.65062" lon="5.35897">
        <ele>162.2</ele>
      </trkpt>
      <trkpt lat="50.65056" lon="5.35919">
        <ele>160.8</ele>
      </trkpt>
      <trkpt lat="50.6504" lon="5.35947">
        <ele>160.6</ele>
      </trkpt>
      <trkpt lat="50.65029" lon="5.35962">
        <ele>160.6</ele>
      </trkpt>
      <trkpt lat="50.65017" lon="5.35979">
        <ele>160.6</ele>
      </trkpt>
      <trkpt lat="50.65001" lon="5.36">
        <ele>160.9</ele>
      </trkpt>
      <trkpt lat="50.64992" lon="5.36015">
        <ele>161.1</ele>
      </trkpt>
      <trkpt lat="50.64987" lon="5.36036">
        <ele>161.2</ele>
      </trkpt>
      <trkpt lat="50.64985" lon="5.36054">
        <ele>161.2</ele>
      </trkpt>
      <trkpt lat="50.64975" lon="5.36108">
        <ele>161.6</ele>
      </trkpt>
      <trkpt lat="50.64964" lon="5.36174">
        <ele>162.1</ele>
      </trkpt>
      <trkpt lat="50.64952" lon="5.36231">
        <ele>162.4</ele>
      </trkpt>
      <trkpt lat="50.64929" lon="5.36312">
        <ele>163.2</ele>
      </trkpt>
      <trkpt lat="50.64923" lon="5.36364">
        <ele>163.1</ele>
      </trkpt>
      <trkpt lat="50.64924" lon="5.36395">
        <ele>162.9</ele>
      </trkpt>
      <trkpt lat="50.64927" lon="5.36427">
        <ele>163.1</ele>
      </trkpt>
      <trkpt lat="50.64929" lon="5.36482">
        <ele>163.6</ele>
      </trkpt>
      <trkpt lat="50.64933" lon="5.36519">
        <ele>164.3</ele>
      </trkpt>
      <trkpt lat="50.64936" lon="5.36581">
        <ele>164.8</ele>
      </trkpt>
      <trkpt lat="50.64938" lon="5.36618">
        <ele>165</ele>
      </trkpt>
      <trkpt lat="50.64939" lon="5.3664">
        <ele>165</ele>
      </trkpt>
      <trkpt lat="50.64933" lon="5.36689">
        <ele>164.9</ele>
      </trkpt>
      <trkpt lat="50.64928" lon="5.36714">
        <ele>164.8</ele>
      </trkpt>
      <trkpt lat="50.64918" lon="5.36762">
        <ele>164.7</ele>
      </trkpt>
      <trkpt lat="50.64904" lon="5.36835">
        <ele>164.9</ele>
      </trkpt>
      <trkpt lat="50.64896" lon="5.36877">
        <ele>165</ele>
      </trkpt>
      <trkpt lat="50.64892" lon="5.36915">
        <ele>164.5</ele>
      </trkpt>
      <trkpt lat="50.6489" lon="5.36947">
        <ele>164</ele>
      </trkpt>
      <trkpt lat="50.64893" lon="5.3699">
        <ele>163.9</ele>
      </trkpt>
      <trkpt lat="50.64898" lon="5.37012">
        <ele>163</ele>
      </trkpt>
      <trkpt lat="50.64903" lon="5.37036">
        <ele>163.5</ele>
      </trkpt>
      <trkpt lat="50.64909" lon="5.37072">
        <ele>163.3</ele>
      </trkpt>
      <trkpt lat="50.64912" lon="5.371">
        <ele>163.3</ele>
      </trkpt>
      <trkpt lat="50.64912" lon="5.37133">
        <ele>163</ele>
      </trkpt>
      <trkpt lat="50.64913" lon="5.37166">
        <ele>163.1</ele>
      </trkpt>
      <trkpt lat="50.64912" lon="5.37185">
        <ele>144</ele>
        <extensions>
          <gpxtpx:TrackPointExtension xmlns:gpxtpx="http://www.garmin.com/xmlschemas/TrackPointExtension/v1">
            <gpxtpx:hr>119</gpxtpx:hr>
          </gpxtpx:TrackPointExtension>
        </extensions>
      </trkpt>
      <trkpt lat="50.6491" lon="5.3721">
        <ele>164.2</ele>
      </trkpt>
      <trkpt lat="50.64908" lon="5.3723">
        <ele>164.2</ele>
      </trkpt>
      <trkpt lat="50.64893" lon="5.37222">
        <ele>144</ele>
        <extensions>
          <gpxtpx:TrackPointExtension xmlns:gpxtpx="http://www.garmin.com/xmlschemas/TrackPointExtension/v1">
            <gpxtpx:hr>118</gpxtpx:hr>
          </gpxtpx:TrackPointExtension>
        </extensions>
      </trkpt>
      <trkpt lat="50.64851" lon="5.37196">
        <ele>144.80000305176</ele>
        <extensions>
          <gpxtpx:TrackPointExtension xmlns:gpxtpx="http://www.garmin.com/xmlschemas/TrackPointExtension/v1">
            <gpxtpx:hr>120</gpxtpx:hr>
          </gpxtpx:TrackPointExtension>
        </extensions>
      </trkpt>
      <trkpt lat="50.64828" lon="5.37181">
        <ele>145.39999389648</ele>
        <extensions>
          <gpxtpx:TrackPointExtension xmlns:gpxtpx="http://www.garmin.com/xmlschemas/TrackPointExtension/v1">
            <gpxtpx:hr>119</gpxtpx:hr>
          </gpxtpx:TrackPointExtension>
        </extensions>
      </trkpt>
      <trkpt lat="50.64804" lon="5.37167">
        <ele>145.60000610352</ele>
        <extensions>
          <gpxtpx:TrackPointExtension xmlns:gpxtpx="http://www.garmin.com/xmlschemas/TrackPointExtension/v1">
            <gpxtpx:hr>120</gpxtpx:hr>
          </gpxtpx:TrackPointExtension>
        </extensions>
      </trkpt>
      <trkpt lat="50.64766" lon="5.37145">
        <ele>145.80000305176</ele>
        <extensions>
          <gpxtpx:TrackPointExtension xmlns:gpxtpx="http://www.garmin.com/xmlschemas/TrackPointExtension/v1">
            <gpxtpx:hr>123</gpxtpx:hr>
          </gpxtpx:TrackPointExtension>
        </extensions>
      </trkpt>
      <trkpt lat="50.64747" lon="5.37135">
        <ele>145.80000305176</ele>
        <extensions>
          <gpxtpx:TrackPointExtension xmlns:gpxtpx="http://www.garmin.com/xmlschemas/TrackPointExtension/v1">
            <gpxtpx:hr>125</gpxtpx:hr>
          </gpxtpx:TrackPointExtension>
        </extensions>
      </trkpt>
      <trkpt lat="50.64733" lon="5.37127">
        <ele>165.1</ele>
      </trkpt>
      <trkpt lat="50.64722" lon="5.3716">
        <ele>146.19999694824</ele>
        <extensions>
          <gpxtpx:TrackPointExtension xmlns:gpxtpx="http://www.garmin.com/xmlschemas/TrackPointExtension/v1">
            <gpxtpx:hr>128</gpxtpx:hr>
          </gpxtpx:TrackPointExtension>
        </extensions>
      </trkpt>
      <trkpt lat="50.64715" lon="5.37177">
        <ele>146.39999389648</ele>
        <extensions>
          <gpxtpx:TrackPointExtension xmlns:gpxtpx="http://www.garmin.com/xmlschemas/TrackPointExtension/v1">
            <gpxtpx:hr>128</gpxtpx:hr>
          </gpxtpx:TrackPointExtension>
        </extensions>
      </trkpt>
      <trkpt lat="50.64702" lon="5.3721">
        <ele>146.60000610352</ele>
        <extensions>
          <gpxtpx:TrackPointExtension xmlns:gpxtpx="http://www.garmin.com/xmlschemas/TrackPointExtension/v1">
            <gpxtpx:hr>129</gpxtpx:hr>
          </gpxtpx:TrackPointExtension>
        </extensions>
      </trkpt>
      <trkpt lat="50.64672" lon="5.37284">
        <ele>147.39999389648</ele>
        <extensions>
          <gpxtpx:TrackPointExtension xmlns:gpxtpx="http://www.garmin.com/xmlschemas/TrackPointExtension/v1">
            <gpxtpx:hr>132</gpxtpx:hr>
          </gpxtpx:TrackPointExtension>
        </extensions>
      </trkpt>
      <trkpt lat="50.64666" lon="5.37301">
        <ele>147.60000610352</ele>
        <extensions>
          <gpxtpx:TrackPointExtension xmlns:gpxtpx="http://www.garmin.com/xmlschemas/TrackPointExtension/v1">
            <gpxtpx:hr>133</gpxtpx:hr>
          </gpxtpx:TrackPointExtension>
        </extensions>
      </trkpt>
      <trkpt lat="50.64645" lon="5.37353">
        <ele>148.39999389648</ele>
        <extensions>
          <gpxtpx:TrackPointExtension xmlns:gpxtpx="http://www.garmin.com/xmlschemas/TrackPointExtension/v1">
            <gpxtpx:hr>134</gpxtpx:hr>
          </gpxtpx:TrackPointExtension>
        </extensions>
      </trkpt>
      <trkpt lat="50.64631" lon="5.3739">
        <ele>148.80000305176</ele>
        <extensions>
          <gpxtpx:TrackPointExtension xmlns:gpxtpx="http://www.garmin.com/xmlschemas/TrackPointExtension/v1">
            <gpxtpx:hr>135</gpxtpx:hr>
          </gpxtpx:TrackPointExtension>
        </extensions>
      </trkpt>
      <trkpt lat="50.64609" lon="5.37445">
        <ele>149.19999694824</ele>
        <extensions>
          <gpxtpx:TrackPointExtension xmlns:gpxtpx="http://www.garmin.com/xmlschemas/TrackPointExtension/v1">
            <gpxtpx:hr>136</gpxtpx:hr>
          </gpxtpx:TrackPointExtension>
        </extensions>
      </trkpt>
      <trkpt lat="50.64587" lon="5.37501">
        <ele>150</ele>
        <extensions>
          <gpxtpx:TrackPointExtension xmlns:gpxtpx="http://www.garmin.com/xmlschemas/TrackPointExtension/v1">
            <gpxtpx:hr>137</gpxtpx:hr>
          </gpxtpx:TrackPointExtension>
        </extensions>
      </trkpt>
      <trkpt lat="50.64573" lon="5.37538">
        <ele>150.39999389648</ele>
        <extensions>
          <gpxtpx:TrackPointExtension xmlns:gpxtpx="http://www.garmin.com/xmlschemas/TrackPointExtension/v1">
            <gpxtpx:hr>137</gpxtpx:hr>
          </gpxtpx:TrackPointExtension>
        </extensions>
      </trkpt>
      <trkpt lat="50.64542" lon="5.37615">
        <ele>150.60000610352</ele>
        <extensions>
          <gpxtpx:TrackPointExtension xmlns:gpxtpx="http://www.garmin.com/xmlschemas/TrackPointExtension/v1">
            <gpxtpx:hr>135</gpxtpx:hr>
          </gpxtpx:TrackPointExtension>
        </extensions>
      </trkpt>
      <trkpt lat="50.64515" lon="5.37684">
        <ele>150.19999694824</ele>
        <extensions>
          <gpxtpx:TrackPointExtension xmlns:gpxtpx="http://www.garmin.com/xmlschemas/TrackPointExtension/v1">
            <gpxtpx:hr>132</gpxtpx:hr>
          </gpxtpx:TrackPointExtension>
        </extensions>
      </trkpt>
      <trkpt lat="50.64483" lon="5.37766">
        <ele>149.19999694824</ele>
        <extensions>
          <gpxtpx:TrackPointExtension xmlns:gpxtpx="http://www.garmin.com/xmlschemas/TrackPointExtension/v1">
            <gpxtpx:hr>129</gpxtpx:hr>
          </gpxtpx:TrackPointExtension>
        </extensions>
      </trkpt>
      <trkpt lat="50.64472" lon="5.37792">
        <ele>148</ele>
        <extensions>
          <gpxtpx:TrackPointExtension xmlns:gpxtpx="http://www.garmin.com/xmlschemas/TrackPointExtension/v1">
            <gpxtpx:hr>129</gpxtpx:hr>
          </gpxtpx:TrackPointExtension>
        </extensions>
      </trkpt>
      <trkpt lat="50.64457" lon="5.3783">
        <ele>146.60000610352</ele>
        <extensions>
          <gpxtpx:TrackPointExtension xmlns:gpxtpx="http://www.garmin.com/xmlschemas/TrackPointExtension/v1">
            <gpxtpx:hr>127</gpxtpx:hr>
          </gpxtpx:TrackPointExtension>
        </extensions>
      </trkpt>
      <trkpt lat="50.64442" lon="5.37863">
        <ele>145.60000610352</ele>
        <extensions>
          <gpxtpx:TrackPointExtension xmlns:gpxtpx="http://www.garmin.com/xmlschemas/TrackPointExtension/v1">
            <gpxtpx:hr>126</gpxtpx:hr>
          </gpxtpx:TrackPointExtension>
        </extensions>
      </trkpt>
      <trkpt lat="50.64433" lon="5.37884">
        <ele>145.60000610352</ele>
        <extensions>
          <gpxtpx:TrackPointExtension xmlns:gpxtpx="http://www.garmin.com/xmlschemas/TrackPointExtension/v1">
            <gpxtpx:hr>126</gpxtpx:hr>
          </gpxtpx:TrackPointExtension>
        </extensions>
      </trkpt>
      <trkpt lat="50.64407" lon="5.37932">
        <ele>145.60000610352</ele>
        <extensions>
          <gpxtpx:TrackPointExtension xmlns:gpxtpx="http://www.garmin.com/xmlschemas/TrackPointExtension/v1">
            <gpxtpx:hr>123</gpxtpx:hr>
          </gpxtpx:TrackPointExtension>
        </extensions>
      </trkpt>
      <trkpt lat="50.64402" lon="5.37942">
        <ele>145.60000610352</ele>
        <extensions>
          <gpxtpx:TrackPointExtension xmlns:gpxtpx="http://www.garmin.com/xmlschemas/TrackPointExtension/v1">
            <gpxtpx:hr>123</gpxtpx:hr>
          </gpxtpx:TrackPointExtension>
        </extensions>
      </trkpt>
      <trkpt lat="50.64364" lon="5.3801">
        <ele>146</ele>
        <extensions>
          <gpxtpx:TrackPointExtension xmlns:gpxtpx="http://www.garmin.com/xmlschemas/TrackPointExtension/v1">
            <gpxtpx:hr>122</gpxtpx:hr>
          </gpxtpx:TrackPointExtension>
        </extensions>
      </trkpt>
      <trkpt lat="50.64347" lon="5.38041">
        <ele>146</ele>
        <extensions>
          <gpxtpx:TrackPointExtension xmlns:gpxtpx="http://www.garmin.com/xmlschemas/TrackPointExtension/v1">
            <gpxtpx:hr>121</gpxtpx:hr>
          </gpxtpx:TrackPointExtension>
        </extensions>
      </trkpt>
      <trkpt lat="50.64309" lon="5.3811">
        <ele>145.80000305176</ele>
        <extensions>
          <gpxtpx:TrackPointExtension xmlns:gpxtpx="http://www.garmin.com/xmlschemas/TrackPointExtension/v1">
            <gpxtpx:hr>121</gpxtpx:hr>
          </gpxtpx:TrackPointExtension>
        </extensions>
      </trkpt>
      <trkpt lat="50.64294" lon="5.38138">
        <ele>145.60000610352</ele>
        <extensions>
          <gpxtpx:TrackPointExtension xmlns:gpxtpx="http://www.garmin.com/xmlschemas/TrackPointExtension/v1">
            <gpxtpx:hr>122</gpxtpx:hr>
          </gpxtpx:TrackPointExtension>
        </extensions>
      </trkpt>
      <trkpt lat="50.64261" lon="5.38197">
        <ele>145.39999389648</ele>
        <extensions>
          <gpxtpx:TrackPointExtension xmlns:gpxtpx="http://www.garmin.com/xmlschemas/TrackPointExtension/v1">
            <gpxtpx:hr>124</gpxtpx:hr>
          </gpxtpx:TrackPointExtension>
        </extensions>
      </trkpt>
      <trkpt lat="50.64239" lon="5.38245">
        <ele>146.60000610352</ele>
        <extensions>
          <gpxtpx:TrackPointExtension xmlns:gpxtpx="http://www.garmin.com/xmlschemas/TrackPointExtension/v1">
            <gpxtpx:hr>126</gpxtpx:hr>
          </gpxtpx:TrackPointExtension>
        </extensions>
      </trkpt>
      <trkpt lat="50.64228" lon="5.38269">
        <ele>147.39999389648</ele>
        <extensions>
          <gpxtpx:TrackPointExtension xmlns:gpxtpx="http://www.garmin.com/xmlschemas/TrackPointExtension/v1">
            <gpxtpx:hr>127</gpxtpx:hr>
          </gpxtpx:TrackPointExtension>
        </extensions>
      </trkpt>
      <trkpt lat="50.64221" lon="5.38287">
        <ele>147.80000305176</ele>
        <extensions>
          <gpxtpx:TrackPointExtension xmlns:gpxtpx="http://www.garmin.com/xmlschemas/TrackPointExtension/v1">
            <gpxtpx:hr>129</gpxtpx:hr>
          </gpxtpx:TrackPointExtension>
        </extensions>
      </trkpt>
      <trkpt lat="50.64204" lon="5.38335">
        <ele>149</ele>
        <extensions>
          <gpxtpx:TrackPointExtension xmlns:gpxtpx="http://www.garmin.com/xmlschemas/TrackPointExtension/v1">
            <gpxtpx:hr>131</gpxtpx:hr>
          </gpxtpx:TrackPointExtension>
        </extensions>
      </trkpt>
      <trkpt lat="50.64201" lon="5.38345">
        <ele>149.19999694824</ele>
        <extensions>
          <gpxtpx:TrackPointExtension xmlns:gpxtpx="http://www.garmin.com/xmlschemas/TrackPointExtension/v1">
            <gpxtpx:hr>131</gpxtpx:hr>
          </gpxtpx:TrackPointExtension>
        </extensions>
      </trkpt>
      <trkpt lat="50.64177" lon="5.38423">
        <ele>149.60000610352</ele>
        <extensions>
          <gpxtpx:TrackPointExtension xmlns:gpxtpx="http://www.garmin.com/xmlschemas/TrackPointExtension/v1">
            <gpxtpx:hr>131</gpxtpx:hr>
          </gpxtpx:TrackPointExtension>
        </extensions>
      </trkpt>
      <trkpt lat="50.6417" lon="5.38446">
        <ele>149.60000610352</ele>
        <extensions>
          <gpxtpx:TrackPointExtension xmlns:gpxtpx="http://www.garmin.com/xmlschemas/TrackPointExtension/v1">
            <gpxtpx:hr>131</gpxtpx:hr>
          </gpxtpx:TrackPointExtension>
        </extensions>
      </trkpt>
      <trkpt lat="50.64146" lon="5.38525">
        <ele>148.80000305176</ele>
        <extensions>
          <gpxtpx:TrackPointExtension xmlns:gpxtpx="http://www.garmin.com/xmlschemas/TrackPointExtension/v1">
            <gpxtpx:hr>130</gpxtpx:hr>
          </gpxtpx:TrackPointExtension>
        </extensions>
      </trkpt>
      <trkpt lat="50.64138" lon="5.38547">
        <ele>148.60000610352</ele>
        <extensions>
          <gpxtpx:TrackPointExtension xmlns:gpxtpx="http://www.garmin.com/xmlschemas/TrackPointExtension/v1">
            <gpxtpx:hr>129</gpxtpx:hr>
          </gpxtpx:TrackPointExtension>
        </extensions>
      </trkpt>
      <trkpt lat="50.64114" lon="5.38627">
        <ele>148.19999694824</ele>
        <extensions>
          <gpxtpx:TrackPointExtension xmlns:gpxtpx="http://www.garmin.com/xmlschemas/TrackPointExtension/v1">
            <gpxtpx:hr>127</gpxtpx:hr>
          </gpxtpx:TrackPointExtension>
        </extensions>
      </trkpt>
      <trkpt lat="50.64107" lon="5.3865">
        <ele>148.19999694824</ele>
        <extensions>
          <gpxtpx:TrackPointExtension xmlns:gpxtpx="http://www.garmin.com/xmlschemas/TrackPointExtension/v1">
            <gpxtpx:hr>127</gpxtpx:hr>
          </gpxtpx:TrackPointExtension>
        </extensions>
      </trkpt>
      <trkpt lat="50.64083" lon="5.38727">
        <ele>148.19999694824</ele>
        <extensions>
          <gpxtpx:TrackPointExtension xmlns:gpxtpx="http://www.garmin.com/xmlschemas/TrackPointExtension/v1">
            <gpxtpx:hr>127</gpxtpx:hr>
          </gpxtpx:TrackPointExtension>
        </extensions>
      </trkpt>
      <trkpt lat="50.64069" lon="5.38771">
        <ele>148.39999389648</ele>
        <extensions>
          <gpxtpx:TrackPointExtension xmlns:gpxtpx="http://www.garmin.com/xmlschemas/TrackPointExtension/v1">
            <gpxtpx:hr>127</gpxtpx:hr>
          </gpxtpx:TrackPointExtension>
        </extensions>
      </trkpt>
      <trkpt lat="50.64049" lon="5.38836">
        <ele>148.80000305176</ele>
        <extensions>
          <gpxtpx:TrackPointExtension xmlns:gpxtpx="http://www.garmin.com/xmlschemas/TrackPointExtension/v1">
            <gpxtpx:hr>130</gpxtpx:hr>
          </gpxtpx:TrackPointExtension>
        </extensions>
      </trkpt>
      <trkpt lat="50.64033" lon="5.38888">
        <ele>149.39999389648</ele>
        <extensions>
          <gpxtpx:TrackPointExtension xmlns:gpxtpx="http://www.garmin.com/xmlschemas/TrackPointExtension/v1">
            <gpxtpx:hr>132</gpxtpx:hr>
          </gpxtpx:TrackPointExtension>
        </extensions>
      </trkpt>
      <trkpt lat="50.64013" lon="5.38944">
        <ele>150.19999694824</ele>
        <extensions>
          <gpxtpx:TrackPointExtension xmlns:gpxtpx="http://www.garmin.com/xmlschemas/TrackPointExtension/v1">
            <gpxtpx:hr>135</gpxtpx:hr>
          </gpxtpx:TrackPointExtension>
        </extensions>
      </trkpt>
      <trkpt lat="50.64001" lon="5.38971">
        <ele>151.19999694824</ele>
        <extensions>
          <gpxtpx:TrackPointExtension xmlns:gpxtpx="http://www.garmin.com/xmlschemas/TrackPointExtension/v1">
            <gpxtpx:hr>135</gpxtpx:hr>
          </gpxtpx:TrackPointExtension>
        </extensions>
      </trkpt>
      <trkpt lat="50.63972" lon="5.39031">
        <ele>173.1</ele>
      </trkpt>
      <trkpt lat="50.63964" lon="5.39044">
        <ele>173</ele>
      </trkpt>
      <trkpt lat="50.63928" lon="5.39089">
        <ele>172.3</ele>
      </trkpt>
      <trkpt lat="50.63885" lon="5.39143">
        <ele>152.19999694824</ele>
        <extensions>
          <gpxtpx:TrackPointExtension xmlns:gpxtpx="http://www.garmin.com/xmlschemas/TrackPointExtension/v1">
            <gpxtpx:hr>136</gpxtpx:hr>
          </gpxtpx:TrackPointExtension>
        </extensions>
      </trkpt>
      <trkpt lat="50.63859" lon="5.39177">
        <ele>151.39999389648</ele>
        <extensions>
          <gpxtpx:TrackPointExtension xmlns:gpxtpx="http://www.garmin.com/xmlschemas/TrackPointExtension/v1">
            <gpxtpx:hr>135</gpxtpx:hr>
          </gpxtpx:TrackPointExtension>
        </extensions>
      </trkpt>
      <trkpt lat="50.63825" lon="5.3922">
        <ele>150.19999694824</ele>
        <extensions>
          <gpxtpx:TrackPointExtension xmlns:gpxtpx="http://www.garmin.com/xmlschemas/TrackPointExtension/v1">
            <gpxtpx:hr>132</gpxtpx:hr>
          </gpxtpx:TrackPointExtension>
        </extensions>
      </trkpt>
      <trkpt lat="50.63798" lon="5.39256">
        <ele>150</ele>
        <extensions>
          <gpxtpx:TrackPointExtension xmlns:gpxtpx="http://www.garmin.com/xmlschemas/TrackPointExtension/v1">
            <gpxtpx:hr>129</gpxtpx:hr>
          </gpxtpx:TrackPointExtension>
        </extensions>
      </trkpt>
      <trkpt lat="50.63777" lon="5.39282">
        <ele>149.39999389648</ele>
        <extensions>
          <gpxtpx:TrackPointExtension xmlns:gpxtpx="http://www.garmin.com/xmlschemas/TrackPointExtension/v1">
            <gpxtpx:hr>126</gpxtpx:hr>
          </gpxtpx:TrackPointExtension>
        </extensions>
      </trkpt>
      <trkpt lat="50.63757" lon="5.39309">
        <ele>148.80000305176</ele>
        <extensions>
          <gpxtpx:TrackPointExtension xmlns:gpxtpx="http://www.garmin.com/xmlschemas/TrackPointExtension/v1">
            <gpxtpx:hr>123</gpxtpx:hr>
          </gpxtpx:TrackPointExtension>
        </extensions>
      </trkpt>
      <trkpt lat="50.63743" lon="5.39327">
        <ele>148.39999389648</ele>
        <extensions>
          <gpxtpx:TrackPointExtension xmlns:gpxtpx="http://www.garmin.com/xmlschemas/TrackPointExtension/v1">
            <gpxtpx:hr>120</gpxtpx:hr>
          </gpxtpx:TrackPointExtension>
        </extensions>
      </trkpt>
      <trkpt lat="50.63729" lon="5.39344">
        <ele>148.19999694824</ele>
        <extensions>
          <gpxtpx:TrackPointExtension xmlns:gpxtpx="http://www.garmin.com/xmlschemas/TrackPointExtension/v1">
            <gpxtpx:hr>117</gpxtpx:hr>
          </gpxtpx:TrackPointExtension>
        </extensions>
      </trkpt>
      <trkpt lat="50.63715" lon="5.39362">
        <ele>148</ele>
        <extensions>
          <gpxtpx:TrackPointExtension xmlns:gpxtpx="http://www.garmin.com/xmlschemas/TrackPointExtension/v1">
            <gpxtpx:hr>115</gpxtpx:hr>
          </gpxtpx:TrackPointExtension>
        </extensions>
      </trkpt>
      <trkpt lat="50.63688" lon="5.39397">
        <ele>147.60000610352</ele>
        <extensions>
          <gpxtpx:TrackPointExtension xmlns:gpxtpx="http://www.garmin.com/xmlschemas/TrackPointExtension/v1">
            <gpxtpx:hr>112</gpxtpx:hr>
          </gpxtpx:TrackPointExtension>
        </extensions>
      </trkpt>
      <trkpt lat="50.63653" lon="5.39442">
        <ele>146.80000305176</ele>
        <extensions>
          <gpxtpx:TrackPointExtension xmlns:gpxtpx="http://www.garmin.com/xmlschemas/TrackPointExtension/v1">
            <gpxtpx:hr>109</gpxtpx:hr>
          </gpxtpx:TrackPointExtension>
        </extensions>
      </trkpt>
      <trkpt lat="50.63626" lon="5.39478">
        <ele>146</ele>
        <extensions>
          <gpxtpx:TrackPointExtension xmlns:gpxtpx="http://www.garmin.com/xmlschemas/TrackPointExtension/v1">
            <gpxtpx:hr>109</gpxtpx:hr>
          </gpxtpx:TrackPointExtension>
        </extensions>
      </trkpt>
      <trkpt lat="50.63613" lon="5.39495">
        <ele>145.80000305176</ele>
        <extensions>
          <gpxtpx:TrackPointExtension xmlns:gpxtpx="http://www.garmin.com/xmlschemas/TrackPointExtension/v1">
            <gpxtpx:hr>108</gpxtpx:hr>
          </gpxtpx:TrackPointExtension>
        </extensions>
      </trkpt>
      <trkpt lat="50.63567" lon="5.39554">
        <ele>145.19999694824</ele>
        <extensions>
          <gpxtpx:TrackPointExtension xmlns:gpxtpx="http://www.garmin.com/xmlschemas/TrackPointExtension/v1">
            <gpxtpx:hr>106</gpxtpx:hr>
          </gpxtpx:TrackPointExtension>
        </extensions>
      </trkpt>
      <trkpt lat="50.63555" lon="5.3957">
        <ele>144.80000305176</ele>
        <extensions>
          <gpxtpx:TrackPointExtension xmlns:gpxtpx="http://www.garmin.com/xmlschemas/TrackPointExtension/v1">
            <gpxtpx:hr>107</gpxtpx:hr>
          </gpxtpx:TrackPointExtension>
        </extensions>
      </trkpt>
      <trkpt lat="50.63549" lon="5.39578">
        <ele>144.80000305176</ele>
        <extensions>
          <gpxtpx:TrackPointExtension xmlns:gpxtpx="http://www.garmin.com/xmlschemas/TrackPointExtension/v1">
            <gpxtpx:hr>107</gpxtpx:hr>
          </gpxtpx:TrackPointExtension>
        </extensions>
      </trkpt>
      <trkpt lat="50.63527" lon="5.39604">
        <ele>144</ele>
        <extensions>
          <gpxtpx:TrackPointExtension xmlns:gpxtpx="http://www.garmin.com/xmlschemas/TrackPointExtension/v1">
            <gpxtpx:hr>108</gpxtpx:hr>
          </gpxtpx:TrackPointExtension>
        </extensions>
      </trkpt>
      <trkpt lat="50.63521" lon="5.39628">
        <ele>166.1</ele>
      </trkpt>
      <trkpt lat="50.63508" lon="5.39631">
        <ele>166.1</ele>
      </trkpt>
      <trkpt lat="50.63485" lon="5.39658">
        <ele>166.6</ele>
      </trkpt>
      <trkpt lat="50.63452" lon="5.397">
        <ele>166.1</ele>
      </trkpt>
      <trkpt lat="50.63412" lon="5.39753">
        <ele>163.9</ele>
      </trkpt>
      <trkpt lat="50.63371" lon="5.39805">
        <ele>163.9</ele>
      </trkpt>
      <trkpt lat="50.63353" lon="5.39829">
        <ele>164.3</ele>
      </trkpt>
      <trkpt lat="50.6331" lon="5.39886">
        <ele>163.1</ele>
      </trkpt>
      <trkpt lat="50.63254" lon="5.39956">
        <ele>162.2</ele>
      </trkpt>
      <trkpt lat="50.63227" lon="5.39992">
        <ele>161.2</ele>
      </trkpt>
      <trkpt lat="50.63189" lon="5.40043">
        <ele>159.4</ele>
      </trkpt>
      <trkpt lat="50.63153" lon="5.40091">
        <ele>138.80000305176</ele>
        <extensions>
          <gpxtpx:TrackPointExtension xmlns:gpxtpx="http://www.garmin.com/xmlschemas/TrackPointExtension/v1">
            <gpxtpx:hr>120</gpxtpx:hr>
          </gpxtpx:TrackPointExtension>
        </extensions>
      </trkpt>
      <trkpt lat="50.63134" lon="5.40113">
        <ele>158.8</ele>
      </trkpt>
      <trkpt lat="50.6311" lon="5.40146">
        <ele>137.80000305176</ele>
        <extensions>
          <gpxtpx:TrackPointExtension xmlns:gpxtpx="http://www.garmin.com/xmlschemas/TrackPointExtension/v1">
            <gpxtpx:hr>118</gpxtpx:hr>
          </gpxtpx:TrackPointExtension>
        </extensions>
      </trkpt>
      <trkpt lat="50.63098" lon="5.40161">
        <ele>159.5</ele>
      </trkpt>
      <trkpt lat="50.63077" lon="5.40186">
        <ele>159.5</ele>
      </trkpt>
      <trkpt lat="50.63057" lon="5.40214">
        <ele>159</ele>
      </trkpt>
      <trkpt lat="50.63038" lon="5.40238">
        <ele>159</ele>
      </trkpt>
      <trkpt lat="50.63014" lon="5.4027">
        <ele>158.1</ele>
      </trkpt>
      <trkpt lat="50.62999" lon="5.40289">
        <ele>161.1</ele>
      </trkpt>
      <trkpt lat="50.62986" lon="5.40303">
        <ele>161.1</ele>
      </trkpt>
      <trkpt lat="50.62965" lon="5.40331">
        <ele>161.8</ele>
      </trkpt>
      <trkpt lat="50.62938" lon="5.40368">
        <ele>162.9</ele>
      </trkpt>
      <trkpt lat="50.62905" lon="5.40411">
        <ele>135.19999694824</ele>
        <extensions>
          <gpxtpx:TrackPointExtension xmlns:gpxtpx="http://www.garmin.com/xmlschemas/TrackPointExtension/v1">
            <gpxtpx:hr>112</gpxtpx:hr>
          </gpxtpx:TrackPointExtension>
        </extensions>
      </trkpt>
      <trkpt lat="50.62887" lon="5.40434">
        <ele>135</ele>
        <extensions>
          <gpxtpx:TrackPointExtension xmlns:gpxtpx="http://www.garmin.com/xmlschemas/TrackPointExtension/v1">
            <gpxtpx:hr>113</gpxtpx:hr>
          </gpxtpx:TrackPointExtension>
        </extensions>
      </trkpt>
      <trkpt lat="50.62841" lon="5.40495">
        <ele>134.60000610352</ele>
        <extensions>
          <gpxtpx:TrackPointExtension xmlns:gpxtpx="http://www.garmin.com/xmlschemas/TrackPointExtension/v1">
            <gpxtpx:hr>113</gpxtpx:hr>
          </gpxtpx:TrackPointExtension>
        </extensions>
      </trkpt>
      <trkpt lat="50.62824" lon="5.40514">
        <ele>155.4</ele>
      </trkpt>
      <trkpt lat="50.62811" lon="5.40535">
        <ele>134.60000610352</ele>
        <extensions>
          <gpxtpx:TrackPointExtension xmlns:gpxtpx="http://www.garmin.com/xmlschemas/TrackPointExtension/v1">
            <gpxtpx:hr>116</gpxtpx:hr>
          </gpxtpx:TrackPointExtension>
        </extensions>
      </trkpt>
      <trkpt lat="50.62797" lon="5.40551">
        <ele>155.9</ele>
      </trkpt>
      <trkpt lat="50.62782" lon="5.40569">
        <ele>156.3</ele>
      </trkpt>
      <trkpt lat="50.62766" lon="5.40592">
        <ele>156.8</ele>
      </trkpt>
      <trkpt lat="50.6275" lon="5.40608">
        <ele>135.80000305176</ele>
        <extensions>
          <gpxtpx:TrackPointExtension xmlns:gpxtpx="http://www.garmin.com/xmlschemas/TrackPointExtension/v1">
            <gpxtpx:hr>126</gpxtpx:hr>
          </gpxtpx:TrackPointExtension>
        </extensions>
      </trkpt>
      <trkpt lat="50.62732" lon="5.40631">
        <ele>136.19999694824</ele>
        <extensions>
          <gpxtpx:TrackPointExtension xmlns:gpxtpx="http://www.garmin.com/xmlschemas/TrackPointExtension/v1">
            <gpxtpx:hr>129</gpxtpx:hr>
          </gpxtpx:TrackPointExtension>
        </extensions>
      </trkpt>
      <trkpt lat="50.62719" lon="5.40647">
        <ele>136.60000610352</ele>
        <extensions>
          <gpxtpx:TrackPointExtension xmlns:gpxtpx="http://www.garmin.com/xmlschemas/TrackPointExtension/v1">
            <gpxtpx:hr>130</gpxtpx:hr>
          </gpxtpx:TrackPointExtension>
        </extensions>
      </trkpt>
      <trkpt lat="50.62707" lon="5.40664">
        <ele>137.60000610352</ele>
        <extensions>
          <gpxtpx:TrackPointExtension xmlns:gpxtpx="http://www.garmin.com/xmlschemas/TrackPointExtension/v1">
            <gpxtpx:hr>133</gpxtpx:hr>
          </gpxtpx:TrackPointExtension>
        </extensions>
      </trkpt>
      <trkpt lat="50.62702" lon="5.4067">
        <ele>138</ele>
        <extensions>
          <gpxtpx:TrackPointExtension xmlns:gpxtpx="http://www.garmin.com/xmlschemas/TrackPointExtension/v1">
            <gpxtpx:hr>133</gpxtpx:hr>
          </gpxtpx:TrackPointExtension>
        </extensions>
      </trkpt>
      <trkpt lat="50.62694" lon="5.40681">
        <ele>138.39999389648</ele>
        <extensions>
          <gpxtpx:TrackPointExtension xmlns:gpxtpx="http://www.garmin.com/xmlschemas/TrackPointExtension/v1">
            <gpxtpx:hr>135</gpxtpx:hr>
          </gpxtpx:TrackPointExtension>
        </extensions>
      </trkpt>
      <trkpt lat="50.62677" lon="5.40702">
        <ele>139.19999694824</ele>
        <extensions>
          <gpxtpx:TrackPointExtension xmlns:gpxtpx="http://www.garmin.com/xmlschemas/TrackPointExtension/v1">
            <gpxtpx:hr>137</gpxtpx:hr>
          </gpxtpx:TrackPointExtension>
        </extensions>
      </trkpt>
      <trkpt lat="50.62657" lon="5.40728">
        <ele>139.60000610352</ele>
        <extensions>
          <gpxtpx:TrackPointExtension xmlns:gpxtpx="http://www.garmin.com/xmlschemas/TrackPointExtension/v1">
            <gpxtpx:hr>138</gpxtpx:hr>
          </gpxtpx:TrackPointExtension>
        </extensions>
      </trkpt>
      <trkpt lat="50.62645" lon="5.40743">
        <ele>140</ele>
        <extensions>
          <gpxtpx:TrackPointExtension xmlns:gpxtpx="http://www.garmin.com/xmlschemas/TrackPointExtension/v1">
            <gpxtpx:hr>138</gpxtpx:hr>
          </gpxtpx:TrackPointExtension>
        </extensions>
      </trkpt>
      <trkpt lat="50.62613" lon="5.40785">
        <ele>141</ele>
        <extensions>
          <gpxtpx:TrackPointExtension xmlns:gpxtpx="http://www.garmin.com/xmlschemas/TrackPointExtension/v1">
            <gpxtpx:hr>139</gpxtpx:hr>
          </gpxtpx:TrackPointExtension>
        </extensions>
      </trkpt>
      <trkpt lat="50.62609" lon="5.4079">
        <ele>141.19999694824</ele>
        <extensions>
          <gpxtpx:TrackPointExtension xmlns:gpxtpx="http://www.garmin.com/xmlschemas/TrackPointExtension/v1">
            <gpxtpx:hr>139</gpxtpx:hr>
          </gpxtpx:TrackPointExtension>
        </extensions>
      </trkpt>
      <trkpt lat="50.62586" lon="5.40821">
        <ele>142.19999694824</ele>
        <extensions>
          <gpxtpx:TrackPointExtension xmlns:gpxtpx="http://www.garmin.com/xmlschemas/TrackPointExtension/v1">
            <gpxtpx:hr>141</gpxtpx:hr>
          </gpxtpx:TrackPointExtension>
        </extensions>
      </trkpt>
      <trkpt lat="50.62566" lon="5.40846">
        <ele>143.39999389648</ele>
        <extensions>
          <gpxtpx:TrackPointExtension xmlns:gpxtpx="http://www.garmin.com/xmlschemas/TrackPointExtension/v1">
            <gpxtpx:hr>142</gpxtpx:hr>
          </gpxtpx:TrackPointExtension>
        </extensions>
      </trkpt>
      <trkpt lat="50.62562" lon="5.40852">
        <ele>143.60000610352</ele>
        <extensions>
          <gpxtpx:TrackPointExtension xmlns:gpxtpx="http://www.garmin.com/xmlschemas/TrackPointExtension/v1">
            <gpxtpx:hr>142</gpxtpx:hr>
          </gpxtpx:TrackPointExtension>
        </extensions>
      </trkpt>
      <trkpt lat="50.62538" lon="5.40883">
        <ele>144.60000610352</ele>
        <extensions>
          <gpxtpx:TrackPointExtension xmlns:gpxtpx="http://www.garmin.com/xmlschemas/TrackPointExtension/v1">
            <gpxtpx:hr>143</gpxtpx:hr>
          </gpxtpx:TrackPointExtension>
        </extensions>
      </trkpt>
      <trkpt lat="50.62518" lon="5.40909">
        <ele>145.39999389648</ele>
        <extensions>
          <gpxtpx:TrackPointExtension xmlns:gpxtpx="http://www.garmin.com/xmlschemas/TrackPointExtension/v1">
            <gpxtpx:hr>144</gpxtpx:hr>
          </gpxtpx:TrackPointExtension>
        </extensions>
      </trkpt>
      <trkpt lat="50.6251" lon="5.40919">
        <ele>145.60000610352</ele>
        <extensions>
          <gpxtpx:TrackPointExtension xmlns:gpxtpx="http://www.garmin.com/xmlschemas/TrackPointExtension/v1">
            <gpxtpx:hr>144</gpxtpx:hr>
          </gpxtpx:TrackPointExtension>
        </extensions>
      </trkpt>
      <trkpt lat="50.62487" lon="5.4095">
        <ele>146.60000610352</ele>
        <extensions>
          <gpxtpx:TrackPointExtension xmlns:gpxtpx="http://www.garmin.com/xmlschemas/TrackPointExtension/v1">
            <gpxtpx:hr>145</gpxtpx:hr>
          </gpxtpx:TrackPointExtension>
        </extensions>
      </trkpt>
      <trkpt lat="50.62475" lon="5.40965">
        <ele>147.19999694824</ele>
        <extensions>
          <gpxtpx:TrackPointExtension xmlns:gpxtpx="http://www.garmin.com/xmlschemas/TrackPointExtension/v1">
            <gpxtpx:hr>145</gpxtpx:hr>
          </gpxtpx:TrackPointExtension>
        </extensions>
      </trkpt>
      <trkpt lat="50.6246" lon="5.40985">
        <ele>147.80000305176</ele>
        <extensions>
          <gpxtpx:TrackPointExtension xmlns:gpxtpx="http://www.garmin.com/xmlschemas/TrackPointExtension/v1">
            <gpxtpx:hr>145</gpxtpx:hr>
          </gpxtpx:TrackPointExtension>
        </extensions>
      </trkpt>
      <trkpt lat="50.62434" lon="5.41019">
        <ele>148.60000610352</ele>
        <extensions>
          <gpxtpx:TrackPointExtension xmlns:gpxtpx="http://www.garmin.com/xmlschemas/TrackPointExtension/v1">
            <gpxtpx:hr>145</gpxtpx:hr>
          </gpxtpx:TrackPointExtension>
        </extensions>
      </trkpt>
      <trkpt lat="50.6243" lon="5.41024">
        <ele>148.80000305176</ele>
        <extensions>
          <gpxtpx:TrackPointExtension xmlns:gpxtpx="http://www.garmin.com/xmlschemas/TrackPointExtension/v1">
            <gpxtpx:hr>145</gpxtpx:hr>
          </gpxtpx:TrackPointExtension>
        </extensions>
      </trkpt>
      <trkpt lat="50.62398" lon="5.41065">
        <ele>150</ele>
        <extensions>
          <gpxtpx:TrackPointExtension xmlns:gpxtpx="http://www.garmin.com/xmlschemas/TrackPointExtension/v1">
            <gpxtpx:hr>145</gpxtpx:hr>
          </gpxtpx:TrackPointExtension>
        </extensions>
      </trkpt>
      <trkpt lat="50.62368" lon="5.41105">
        <ele>151</ele>
        <extensions>
          <gpxtpx:TrackPointExtension xmlns:gpxtpx="http://www.garmin.com/xmlschemas/TrackPointExtension/v1">
            <gpxtpx:hr>145</gpxtpx:hr>
          </gpxtpx:TrackPointExtension>
        </extensions>
      </trkpt>
      <trkpt lat="50.6235" lon="5.41129">
        <ele>151.60000610352</ele>
        <extensions>
          <gpxtpx:TrackPointExtension xmlns:gpxtpx="http://www.garmin.com/xmlschemas/TrackPointExtension/v1">
            <gpxtpx:hr>146</gpxtpx:hr>
          </gpxtpx:TrackPointExtension>
        </extensions>
      </trkpt>
      <trkpt lat="50.62322" lon="5.41165">
        <ele>152.19999694824</ele>
        <extensions>
          <gpxtpx:TrackPointExtension xmlns:gpxtpx="http://www.garmin.com/xmlschemas/TrackPointExtension/v1">
            <gpxtpx:hr>146</gpxtpx:hr>
          </gpxtpx:TrackPointExtension>
        </extensions>
      </trkpt>
      <trkpt lat="50.62299" lon="5.41194">
        <ele>152.60000610352</ele>
        <extensions>
          <gpxtpx:TrackPointExtension xmlns:gpxtpx="http://www.garmin.com/xmlschemas/TrackPointExtension/v1">
            <gpxtpx:hr>145</gpxtpx:hr>
          </gpxtpx:TrackPointExtension>
        </extensions>
      </trkpt>
      <trkpt lat="50.62273" lon="5.41228">
        <ele>153.19999694824</ele>
        <extensions>
          <gpxtpx:TrackPointExtension xmlns:gpxtpx="http://www.garmin.com/xmlschemas/TrackPointExtension/v1">
            <gpxtpx:hr>145</gpxtpx:hr>
          </gpxtpx:TrackPointExtension>
        </extensions>
      </trkpt>
      <trkpt lat="50.62255" lon="5.41251">
        <ele>154.19999694824</ele>
        <extensions>
          <gpxtpx:TrackPointExtension xmlns:gpxtpx="http://www.garmin.com/xmlschemas/TrackPointExtension/v1">
            <gpxtpx:hr>145</gpxtpx:hr>
          </gpxtpx:TrackPointExtension>
        </extensions>
      </trkpt>
      <trkpt lat="50.62247" lon="5.41262">
        <ele>154.39999389648</ele>
        <extensions>
          <gpxtpx:TrackPointExtension xmlns:gpxtpx="http://www.garmin.com/xmlschemas/TrackPointExtension/v1">
            <gpxtpx:hr>144</gpxtpx:hr>
          </gpxtpx:TrackPointExtension>
        </extensions>
      </trkpt>
      <trkpt lat="50.62234" lon="5.41279">
        <ele>155.19999694824</ele>
        <extensions>
          <gpxtpx:TrackPointExtension xmlns:gpxtpx="http://www.garmin.com/xmlschemas/TrackPointExtension/v1">
            <gpxtpx:hr>144</gpxtpx:hr>
          </gpxtpx:TrackPointExtension>
        </extensions>
      </trkpt>
      <trkpt lat="50.62203" lon="5.41319">
        <ele>156.60000610352</ele>
        <extensions>
          <gpxtpx:TrackPointExtension xmlns:gpxtpx="http://www.garmin.com/xmlschemas/TrackPointExtension/v1">
            <gpxtpx:hr>145</gpxtpx:hr>
          </gpxtpx:TrackPointExtension>
        </extensions>
      </trkpt>
      <trkpt lat="50.62181" lon="5.41348">
        <ele>157.60000610352</ele>
        <extensions>
          <gpxtpx:TrackPointExtension xmlns:gpxtpx="http://www.garmin.com/xmlschemas/TrackPointExtension/v1">
            <gpxtpx:hr>146</gpxtpx:hr>
          </gpxtpx:TrackPointExtension>
        </extensions>
      </trkpt>
      <trkpt lat="50.62176" lon="5.41354">
        <ele>157.60000610352</ele>
        <extensions>
          <gpxtpx:TrackPointExtension xmlns:gpxtpx="http://www.garmin.com/xmlschemas/TrackPointExtension/v1">
            <gpxtpx:hr>146</gpxtpx:hr>
          </gpxtpx:TrackPointExtension>
        </extensions>
      </trkpt>
      <trkpt lat="50.6214" lon="5.414">
        <ele>158.80000305176</ele>
        <extensions>
          <gpxtpx:TrackPointExtension xmlns:gpxtpx="http://www.garmin.com/xmlschemas/TrackPointExtension/v1">
            <gpxtpx:hr>146</gpxtpx:hr>
          </gpxtpx:TrackPointExtension>
        </extensions>
      </trkpt>
      <trkpt lat="50.62127" lon="5.41417">
        <ele>159.39999389648</ele>
        <extensions>
          <gpxtpx:TrackPointExtension xmlns:gpxtpx="http://www.garmin.com/xmlschemas/TrackPointExtension/v1">
            <gpxtpx:hr>147</gpxtpx:hr>
          </gpxtpx:TrackPointExtension>
        </extensions>
      </trkpt>
      <trkpt lat="50.62114" lon="5.41435">
        <ele>159.80000305176</ele>
        <extensions>
          <gpxtpx:TrackPointExtension xmlns:gpxtpx="http://www.garmin.com/xmlschemas/TrackPointExtension/v1">
            <gpxtpx:hr>147</gpxtpx:hr>
          </gpxtpx:TrackPointExtension>
        </extensions>
      </trkpt>
      <trkpt lat="50.62062" lon="5.41501">
        <ele>162</ele>
        <extensions>
          <gpxtpx:TrackPointExtension xmlns:gpxtpx="http://www.garmin.com/xmlschemas/TrackPointExtension/v1">
            <gpxtpx:hr>148</gpxtpx:hr>
          </gpxtpx:TrackPointExtension>
        </extensions>
      </trkpt>
      <trkpt lat="50.62048" lon="5.41519">
        <ele>162.39999389648</ele>
        <extensions>
          <gpxtpx:TrackPointExtension xmlns:gpxtpx="http://www.garmin.com/xmlschemas/TrackPointExtension/v1">
            <gpxtpx:hr>148</gpxtpx:hr>
          </gpxtpx:TrackPointExtension>
        </extensions>
      </trkpt>
      <trkpt lat="50.62004" lon="5.41576">
        <ele>163</ele>
        <extensions>
          <gpxtpx:TrackPointExtension xmlns:gpxtpx="http://www.garmin.com/xmlschemas/TrackPointExtension/v1">
            <gpxtpx:hr>148</gpxtpx:hr>
          </gpxtpx:TrackPointExtension>
        </extensions>
      </trkpt>
      <trkpt lat="50.61959" lon="5.41635">
        <ele>164</ele>
        <extensions>
          <gpxtpx:TrackPointExtension xmlns:gpxtpx="http://www.garmin.com/xmlschemas/TrackPointExtension/v1">
            <gpxtpx:hr>147</gpxtpx:hr>
          </gpxtpx:TrackPointExtension>
        </extensions>
      </trkpt>
      <trkpt lat="50.61954" lon="5.41642">
        <ele>164</ele>
        <extensions>
          <gpxtpx:TrackPointExtension xmlns:gpxtpx="http://www.garmin.com/xmlschemas/TrackPointExtension/v1">
            <gpxtpx:hr>147</gpxtpx:hr>
          </gpxtpx:TrackPointExtension>
        </extensions>
      </trkpt>
      <trkpt lat="50.6195" lon="5.41648">
        <ele>164.19999694824</ele>
        <extensions>
          <gpxtpx:TrackPointExtension xmlns:gpxtpx="http://www.garmin.com/xmlschemas/TrackPointExtension/v1">
            <gpxtpx:hr>147</gpxtpx:hr>
          </gpxtpx:TrackPointExtension>
        </extensions>
      </trkpt>
      <trkpt lat="50.61922" lon="5.41689">
        <ele>164.60000610352</ele>
        <extensions>
          <gpxtpx:TrackPointExtension xmlns:gpxtpx="http://www.garmin.com/xmlschemas/TrackPointExtension/v1">
            <gpxtpx:hr>147</gpxtpx:hr>
          </gpxtpx:TrackPointExtension>
        </extensions>
      </trkpt>
      <trkpt lat="50.61913" lon="5.41706">
        <ele>186</ele>
      </trkpt>
      <trkpt lat="50.61905" lon="5.41734">
        <ele>164.80000305176</ele>
        <extensions>
          <gpxtpx:TrackPointExtension xmlns:gpxtpx="http://www.garmin.com/xmlschemas/TrackPointExtension/v1">
            <gpxtpx:hr>146</gpxtpx:hr>
          </gpxtpx:TrackPointExtension>
        </extensions>
      </trkpt>
      <trkpt lat="50.61901" lon="5.41758">
        <ele>187</ele>
      </trkpt>
      <trkpt lat="50.61899" lon="5.41787">
        <ele>165</ele>
        <extensions>
          <gpxtpx:TrackPointExtension xmlns:gpxtpx="http://www.garmin.com/xmlschemas/TrackPointExtension/v1">
            <gpxtpx:hr>146</gpxtpx:hr>
          </gpxtpx:TrackPointExtension>
        </extensions>
      </trkpt>
      <trkpt lat="50.61898" lon="5.41798">
        <ele>165.39999389648</ele>
        <extensions>
          <gpxtpx:TrackPointExtension xmlns:gpxtpx="http://www.garmin.com/xmlschemas/TrackPointExtension/v1">
            <gpxtpx:hr>146</gpxtpx:hr>
          </gpxtpx:TrackPointExtension>
        </extensions>
      </trkpt>
      <trkpt lat="50.6189" lon="5.41886">
        <ele>186.6</ele>
      </trkpt>
      <trkpt lat="50.61885" lon="5.41969">
        <ele>186.1</ele>
      </trkpt>
      <trkpt lat="50.61894" lon="5.42054">
        <ele>184.9</ele>
      </trkpt>
      <trkpt lat="50.61901" lon="5.42145">
        <ele>185.5</ele>
      </trkpt>
      <trkpt lat="50.61904" lon="5.42232">
        <ele>165.39999389648</ele>
        <extensions>
          <gpxtpx:TrackPointExtension xmlns:gpxtpx="http://www.garmin.com/xmlschemas/TrackPointExtension/v1">
            <gpxtpx:hr>141</gpxtpx:hr>
          </gpxtpx:TrackPointExtension>
        </extensions>
      </trkpt>
      <trkpt lat="50.61902" lon="5.42262">
        <ele>165.39999389648</ele>
        <extensions>
          <gpxtpx:TrackPointExtension xmlns:gpxtpx="http://www.garmin.com/xmlschemas/TrackPointExtension/v1">
            <gpxtpx:hr>140</gpxtpx:hr>
          </gpxtpx:TrackPointExtension>
        </extensions>
      </trkpt>
      <trkpt lat="50.61898" lon="5.42281">
        <ele>165.60000610352</ele>
        <extensions>
          <gpxtpx:TrackPointExtension xmlns:gpxtpx="http://www.garmin.com/xmlschemas/TrackPointExtension/v1">
            <gpxtpx:hr>141</gpxtpx:hr>
          </gpxtpx:TrackPointExtension>
        </extensions>
      </trkpt>
      <trkpt lat="50.61878" lon="5.42332">
        <ele>166.19999694824</ele>
        <extensions>
          <gpxtpx:TrackPointExtension xmlns:gpxtpx="http://www.garmin.com/xmlschemas/TrackPointExtension/v1">
            <gpxtpx:hr>142</gpxtpx:hr>
          </gpxtpx:TrackPointExtension>
        </extensions>
      </trkpt>
      <trkpt lat="50.61855" lon="5.42387">
        <ele>167.19999694824</ele>
        <extensions>
          <gpxtpx:TrackPointExtension xmlns:gpxtpx="http://www.garmin.com/xmlschemas/TrackPointExtension/v1">
            <gpxtpx:hr>143</gpxtpx:hr>
          </gpxtpx:TrackPointExtension>
        </extensions>
      </trkpt>
      <trkpt lat="50.61845" lon="5.4241">
        <ele>168</ele>
        <extensions>
          <gpxtpx:TrackPointExtension xmlns:gpxtpx="http://www.garmin.com/xmlschemas/TrackPointExtension/v1">
            <gpxtpx:hr>143</gpxtpx:hr>
          </gpxtpx:TrackPointExtension>
        </extensions>
      </trkpt>
      <trkpt lat="50.61839" lon="5.42425">
        <ele>168.39999389648</ele>
        <extensions>
          <gpxtpx:TrackPointExtension xmlns:gpxtpx="http://www.garmin.com/xmlschemas/TrackPointExtension/v1">
            <gpxtpx:hr>144</gpxtpx:hr>
          </gpxtpx:TrackPointExtension>
        </extensions>
      </trkpt>
      <trkpt lat="50.61825" lon="5.42458">
        <ele>169.39999389648</ele>
        <extensions>
          <gpxtpx:TrackPointExtension xmlns:gpxtpx="http://www.garmin.com/xmlschemas/TrackPointExtension/v1">
            <gpxtpx:hr>144</gpxtpx:hr>
          </gpxtpx:TrackPointExtension>
        </extensions>
      </trkpt>
      <trkpt lat="50.61823" lon="5.42465">
        <ele>169.60000610352</ele>
        <extensions>
          <gpxtpx:TrackPointExtension xmlns:gpxtpx="http://www.garmin.com/xmlschemas/TrackPointExtension/v1">
            <gpxtpx:hr>144</gpxtpx:hr>
          </gpxtpx:TrackPointExtension>
        </extensions>
      </trkpt>
      <trkpt lat="50.61813" lon="5.42516">
        <ele>169.60000610352</ele>
        <extensions>
          <gpxtpx:TrackPointExtension xmlns:gpxtpx="http://www.garmin.com/xmlschemas/TrackPointExtension/v1">
            <gpxtpx:hr>143</gpxtpx:hr>
          </gpxtpx:TrackPointExtension>
        </extensions>
      </trkpt>
      <trkpt lat="50.61809" lon="5.42568">
        <ele>169.60000610352</ele>
        <extensions>
          <gpxtpx:TrackPointExtension xmlns:gpxtpx="http://www.garmin.com/xmlschemas/TrackPointExtension/v1">
            <gpxtpx:hr>142</gpxtpx:hr>
          </gpxtpx:TrackPointExtension>
        </extensions>
      </trkpt>
      <trkpt lat="50.6181" lon="5.4258">
        <ele>169.60000610352</ele>
        <extensions>
          <gpxtpx:TrackPointExtension xmlns:gpxtpx="http://www.garmin.com/xmlschemas/TrackPointExtension/v1">
            <gpxtpx:hr>142</gpxtpx:hr>
          </gpxtpx:TrackPointExtension>
        </extensions>
      </trkpt>
      <trkpt lat="50.61812" lon="5.42603">
        <ele>169.39999389648</ele>
        <extensions>
          <gpxtpx:TrackPointExtension xmlns:gpxtpx="http://www.garmin.com/xmlschemas/TrackPointExtension/v1">
            <gpxtpx:hr>142</gpxtpx:hr>
          </gpxtpx:TrackPointExtension>
        </extensions>
      </trkpt>
      <trkpt lat="50.61814" lon="5.42615">
        <ele>169.19999694824</ele>
        <extensions>
          <gpxtpx:TrackPointExtension xmlns:gpxtpx="http://www.garmin.com/xmlschemas/TrackPointExtension/v1">
            <gpxtpx:hr>142</gpxtpx:hr>
          </gpxtpx:TrackPointExtension>
        </extensions>
      </trkpt>
      <trkpt lat="50.61819" lon="5.42641">
        <ele>169</ele>
        <extensions>
          <gpxtpx:TrackPointExtension xmlns:gpxtpx="http://www.garmin.com/xmlschemas/TrackPointExtension/v1">
            <gpxtpx:hr>141</gpxtpx:hr>
          </gpxtpx:TrackPointExtension>
        </extensions>
      </trkpt>
      <trkpt lat="50.61818" lon="5.42668">
        <ele>168.39999389648</ele>
        <extensions>
          <gpxtpx:TrackPointExtension xmlns:gpxtpx="http://www.garmin.com/xmlschemas/TrackPointExtension/v1">
            <gpxtpx:hr>140</gpxtpx:hr>
          </gpxtpx:TrackPointExtension>
        </extensions>
      </trkpt>
      <trkpt lat="50.61816" lon="5.42681">
        <ele>168.19999694824</ele>
        <extensions>
          <gpxtpx:TrackPointExtension xmlns:gpxtpx="http://www.garmin.com/xmlschemas/TrackPointExtension/v1">
            <gpxtpx:hr>139</gpxtpx:hr>
          </gpxtpx:TrackPointExtension>
        </extensions>
      </trkpt>
      <trkpt lat="50.61814" lon="5.42695">
        <ele>167.80000305176</ele>
        <extensions>
          <gpxtpx:TrackPointExtension xmlns:gpxtpx="http://www.garmin.com/xmlschemas/TrackPointExtension/v1">
            <gpxtpx:hr>138</gpxtpx:hr>
          </gpxtpx:TrackPointExtension>
        </extensions>
      </trkpt>
      <trkpt lat="50.61809" lon="5.42723">
        <ele>167.19999694824</ele>
        <extensions>
          <gpxtpx:TrackPointExtension xmlns:gpxtpx="http://www.garmin.com/xmlschemas/TrackPointExtension/v1">
            <gpxtpx:hr>136</gpxtpx:hr>
          </gpxtpx:TrackPointExtension>
        </extensions>
      </trkpt>
      <trkpt lat="50.61806" lon="5.42736">
        <ele>167.19999694824</ele>
        <extensions>
          <gpxtpx:TrackPointExtension xmlns:gpxtpx="http://www.garmin.com/xmlschemas/TrackPointExtension/v1">
            <gpxtpx:hr>135</gpxtpx:hr>
          </gpxtpx:TrackPointExtension>
        </extensions>
      </trkpt>
      <trkpt lat="50.618" lon="5.42764">
        <ele>166.80000305176</ele>
        <extensions>
          <gpxtpx:TrackPointExtension xmlns:gpxtpx="http://www.garmin.com/xmlschemas/TrackPointExtension/v1">
            <gpxtpx:hr>132</gpxtpx:hr>
          </gpxtpx:TrackPointExtension>
        </extensions>
      </trkpt>
      <trkpt lat="50.61793" lon="5.42788">
        <ele>166.39999389648</ele>
        <extensions>
          <gpxtpx:TrackPointExtension xmlns:gpxtpx="http://www.garmin.com/xmlschemas/TrackPointExtension/v1">
            <gpxtpx:hr>130</gpxtpx:hr>
          </gpxtpx:TrackPointExtension>
        </extensions>
      </trkpt>
      <trkpt lat="50.61788" lon="5.42798">
        <ele>166</ele>
        <extensions>
          <gpxtpx:TrackPointExtension xmlns:gpxtpx="http://www.garmin.com/xmlschemas/TrackPointExtension/v1">
            <gpxtpx:hr>130</gpxtpx:hr>
          </gpxtpx:TrackPointExtension>
        </extensions>
      </trkpt>
      <trkpt lat="50.61776" lon="5.42826">
        <ele>165</ele>
        <extensions>
          <gpxtpx:TrackPointExtension xmlns:gpxtpx="http://www.garmin.com/xmlschemas/TrackPointExtension/v1">
            <gpxtpx:hr>129</gpxtpx:hr>
          </gpxtpx:TrackPointExtension>
        </extensions>
      </trkpt>
      <trkpt lat="50.61772" lon="5.42835">
        <ele>164.80000305176</ele>
        <extensions>
          <gpxtpx:TrackPointExtension xmlns:gpxtpx="http://www.garmin.com/xmlschemas/TrackPointExtension/v1">
            <gpxtpx:hr>130</gpxtpx:hr>
          </gpxtpx:TrackPointExtension>
        </extensions>
      </trkpt>
      <trkpt lat="50.61767" lon="5.42854">
        <ele>186.4</ele>
      </trkpt>
      <trkpt lat="50.61766" lon="5.42872">
        <ele>187</ele>
      </trkpt>
      <trkpt lat="50.61771" lon="5.42888">
        <ele>187</ele>
      </trkpt>
      <trkpt lat="50.61782" lon="5.42906">
        <ele>164.60000610352</ele>
        <extensions>
          <gpxtpx:TrackPointExtension xmlns:gpxtpx="http://www.garmin.com/xmlschemas/TrackPointExtension/v1">
            <gpxtpx:hr>130</gpxtpx:hr>
          </gpxtpx:TrackPointExtension>
        </extensions>
      </trkpt>
      <trkpt lat="50.61786" lon="5.42913">
        <ele>164.80000305176</ele>
        <extensions>
          <gpxtpx:TrackPointExtension xmlns:gpxtpx="http://www.garmin.com/xmlschemas/TrackPointExtension/v1">
            <gpxtpx:hr>129</gpxtpx:hr>
          </gpxtpx:TrackPointExtension>
        </extensions>
      </trkpt>
      <trkpt lat="50.61791" lon="5.42919">
        <ele>165.19999694824</ele>
        <extensions>
          <gpxtpx:TrackPointExtension xmlns:gpxtpx="http://www.garmin.com/xmlschemas/TrackPointExtension/v1">
            <gpxtpx:hr>130</gpxtpx:hr>
          </gpxtpx:TrackPointExtension>
        </extensions>
      </trkpt>
      <trkpt lat="50.61801" lon="5.42928">
        <ele>188.7</ele>
      </trkpt>
      <trkpt lat="50.61811" lon="5.42938">
        <ele>189.1</ele>
      </trkpt>
      <trkpt lat="50.61834" lon="5.42961">
        <ele>167</ele>
        <extensions>
          <gpxtpx:TrackPointExtension xmlns:gpxtpx="http://www.garmin.com/xmlschemas/TrackPointExtension/v1">
            <gpxtpx:hr>135</gpxtpx:hr>
          </gpxtpx:TrackPointExtension>
        </extensions>
      </trkpt>
      <trkpt lat="50.61854" lon="5.42985">
        <ele>167.80000305176</ele>
        <extensions>
          <gpxtpx:TrackPointExtension xmlns:gpxtpx="http://www.garmin.com/xmlschemas/TrackPointExtension/v1">
            <gpxtpx:hr>137</gpxtpx:hr>
          </gpxtpx:TrackPointExtension>
        </extensions>
      </trkpt>
      <trkpt lat="50.61864" lon="5.42999">
        <ele>168.19999694824</ele>
        <extensions>
          <gpxtpx:TrackPointExtension xmlns:gpxtpx="http://www.garmin.com/xmlschemas/TrackPointExtension/v1">
            <gpxtpx:hr>138</gpxtpx:hr>
          </gpxtpx:TrackPointExtension>
        </extensions>
      </trkpt>
      <trkpt lat="50.61885" lon="5.4303">
        <ele>189.6</ele>
      </trkpt>
      <trkpt lat="50.619" lon="5.43052">
        <ele>189.2</ele>
      </trkpt>
      <trkpt lat="50.61937" lon="5.43103">
        <ele>189.7</ele>
      </trkpt>
      <trkpt lat="50.61949" lon="5.43122">
        <ele>189.8</ele>
      </trkpt>
      <trkpt lat="50.61973" lon="5.43147">
        <ele>170</ele>
        <extensions>
          <gpxtpx:TrackPointExtension xmlns:gpxtpx="http://www.garmin.com/xmlschemas/TrackPointExtension/v1">
            <gpxtpx:hr>144</gpxtpx:hr>
          </gpxtpx:TrackPointExtension>
        </extensions>
      </trkpt>
      <trkpt lat="50.61985" lon="5.43157">
        <ele>170.19999694824</ele>
        <extensions>
          <gpxtpx:TrackPointExtension xmlns:gpxtpx="http://www.garmin.com/xmlschemas/TrackPointExtension/v1">
            <gpxtpx:hr>145</gpxtpx:hr>
          </gpxtpx:TrackPointExtension>
        </extensions>
      </trkpt>
      <trkpt lat="50.62004" lon="5.43169">
        <ele>170.39999389648</ele>
        <extensions>
          <gpxtpx:TrackPointExtension xmlns:gpxtpx="http://www.garmin.com/xmlschemas/TrackPointExtension/v1">
            <gpxtpx:hr>146</gpxtpx:hr>
          </gpxtpx:TrackPointExtension>
        </extensions>
      </trkpt>
      <trkpt lat="50.62024" lon="5.4318">
        <ele>170.60000610352</ele>
        <extensions>
          <gpxtpx:TrackPointExtension xmlns:gpxtpx="http://www.garmin.com/xmlschemas/TrackPointExtension/v1">
            <gpxtpx:hr>146</gpxtpx:hr>
          </gpxtpx:TrackPointExtension>
        </extensions>
      </trkpt>
      <trkpt lat="50.62063" lon="5.43211">
        <ele>190.1</ele>
      </trkpt>
      <trkpt lat="50.62096" lon="5.43249">
        <ele>191.4</ele>
      </trkpt>
      <trkpt lat="50.62135" lon="5.43292">
        <ele>170.39999389648</ele>
        <extensions>
          <gpxtpx:TrackPointExtension xmlns:gpxtpx="http://www.garmin.com/xmlschemas/TrackPointExtension/v1">
            <gpxtpx:hr>149</gpxtpx:hr>
          </gpxtpx:TrackPointExtension>
        </extensions>
      </trkpt>
      <trkpt lat="50.6215" lon="5.43312">
        <ele>171.19999694824</ele>
        <extensions>
          <gpxtpx:TrackPointExtension xmlns:gpxtpx="http://www.garmin.com/xmlschemas/TrackPointExtension/v1">
            <gpxtpx:hr>148</gpxtpx:hr>
          </gpxtpx:TrackPointExtension>
        </extensions>
      </trkpt>
      <trkpt lat="50.62155" lon="5.4332">
        <ele>171.19999694824</ele>
        <extensions>
          <gpxtpx:TrackPointExtension xmlns:gpxtpx="http://www.garmin.com/xmlschemas/TrackPointExtension/v1">
            <gpxtpx:hr>148</gpxtpx:hr>
          </gpxtpx:TrackPointExtension>
        </extensions>
      </trkpt>
      <trkpt lat="50.62176" lon="5.43379">
        <ele>171.19999694824</ele>
        <extensions>
          <gpxtpx:TrackPointExtension xmlns:gpxtpx="http://www.garmin.com/xmlschemas/TrackPointExtension/v1">
            <gpxtpx:hr>146</gpxtpx:hr>
          </gpxtpx:TrackPointExtension>
        </extensions>
      </trkpt>
      <trkpt lat="50.62202" lon="5.43449">
        <ele>170.39999389648</ele>
        <extensions>
          <gpxtpx:TrackPointExtension xmlns:gpxtpx="http://www.garmin.com/xmlschemas/TrackPointExtension/v1">
            <gpxtpx:hr>143</gpxtpx:hr>
          </gpxtpx:TrackPointExtension>
        </extensions>
      </trkpt>
      <trkpt lat="50.62205" lon="5.43457">
        <ele>170</ele>
        <extensions>
          <gpxtpx:TrackPointExtension xmlns:gpxtpx="http://www.garmin.com/xmlschemas/TrackPointExtension/v1">
            <gpxtpx:hr>142</gpxtpx:hr>
          </gpxtpx:TrackPointExtension>
        </extensions>
      </trkpt>
      <trkpt lat="50.62208" lon="5.43466">
        <ele>169.80000305176</ele>
        <extensions>
          <gpxtpx:TrackPointExtension xmlns:gpxtpx="http://www.garmin.com/xmlschemas/TrackPointExtension/v1">
            <gpxtpx:hr>142</gpxtpx:hr>
          </gpxtpx:TrackPointExtension>
        </extensions>
      </trkpt>
      <trkpt lat="50.62205" lon="5.43483">
        <ele>188.8</ele>
      </trkpt>
      <trkpt lat="50.62205" lon="5.435">
        <ele>187.4</ele>
      </trkpt>
      <trkpt lat="50.62212" lon="5.43512">
        <ele>187.6</ele>
      </trkpt>
      <trkpt lat="50.6222" lon="5.43515">
        <ele>168.19999694824</ele>
        <extensions>
          <gpxtpx:TrackPointExtension xmlns:gpxtpx="http://www.garmin.com/xmlschemas/TrackPointExtension/v1">
            <gpxtpx:hr>137</gpxtpx:hr>
          </gpxtpx:TrackPointExtension>
        </extensions>
      </trkpt>
      <trkpt lat="50.62226" lon="5.43512">
        <ele>188.4</ele>
      </trkpt>
      <trkpt lat="50.62235" lon="5.43534">
        <ele>167.80000305176</ele>
        <extensions>
          <gpxtpx:TrackPointExtension xmlns:gpxtpx="http://www.garmin.com/xmlschemas/TrackPointExtension/v1">
            <gpxtpx:hr>135</gpxtpx:hr>
          </gpxtpx:TrackPointExtension>
        </extensions>
      </trkpt>
      <trkpt lat="50.62242" lon="5.43554">
        <ele>187.8</ele>
      </trkpt>
      <trkpt lat="50.62258" lon="5.43591">
        <ele>167.19999694824</ele>
        <extensions>
          <gpxtpx:TrackPointExtension xmlns:gpxtpx="http://www.garmin.com/xmlschemas/TrackPointExtension/v1">
            <gpxtpx:hr>133</gpxtpx:hr>
          </gpxtpx:TrackPointExtension>
        </extensions>
      </trkpt>
      <trkpt lat="50.62281" lon="5.43652">
        <ele>186.1</ele>
      </trkpt>
      <trkpt lat="50.62306" lon="5.43719">
        <ele>183.2</ele>
      </trkpt>
      <trkpt lat="50.62326" lon="5.43775">
        <ele>181.5</ele>
      </trkpt>
      <trkpt lat="50.62334" lon="5.4381">
        <ele>183.6</ele>
      </trkpt>
      <trkpt lat="50.62344" lon="5.43856">
        <ele>183.5</ele>
      </trkpt>
      <trkpt lat="50.62355" lon="5.43903">
        <ele>184.1</ele>
      </trkpt>
      <trkpt lat="50.62363" lon="5.43944">
        <ele>185</ele>
      </trkpt>
      <trkpt lat="50.62369" lon="5.43981">
        <ele>185.4</ele>
      </trkpt>
      <trkpt lat="50.62367" lon="5.44009">
        <ele>186</ele>
      </trkpt>
      <trkpt lat="50.62357" lon="5.44028">
        <ele>185.9</ele>
      </trkpt>
      <trkpt lat="50.62331" lon="5.44076">
        <ele>184.9</ele>
      </trkpt>
      <trkpt lat="50.62311" lon="5.44114">
        <ele>185.2</ele>
      </trkpt>
      <trkpt lat="50.62305" lon="5.44131">
        <ele>185.3</ele>
      </trkpt>
      <trkpt lat="50.62302" lon="5.44149">
        <ele>185.4</ele>
      </trkpt>
      <trkpt lat="50.62301" lon="5.44183">
        <ele>185.9</ele>
      </trkpt>
      <trkpt lat="50.6231" lon="5.44224">
        <ele>186.2</ele>
      </trkpt>
      <trkpt lat="50.62321" lon="5.44267">
        <ele>186.7</ele>
      </trkpt>
      <trkpt lat="50.62331" lon="5.44312">
        <ele>186.3</ele>
      </trkpt>
      <trkpt lat="50.62337" lon="5.44351">
        <ele>186.3</ele>
      </trkpt>
      <trkpt lat="50.62344" lon="5.44403">
        <ele>185.4</ele>
      </trkpt>
      <trkpt lat="50.62347" lon="5.44432">
        <ele>185.6</ele>
      </trkpt>
      <trkpt lat="50.6235" lon="5.44495">
        <ele>186.4</ele>
      </trkpt>
      <trkpt lat="50.62351" lon="5.44531">
        <ele>187.8</ele>
      </trkpt>
      <trkpt lat="50.6235" lon="5.44554">
        <ele>188.1</ele>
      </trkpt>
      <trkpt lat="50.6235" lon="5.44594">
        <ele>188.7</ele>
      </trkpt>
      <trkpt lat="50.62345" lon="5.44637">
        <ele>189.1</ele>
      </trkpt>
      <trkpt lat="50.62338" lon="5.44702">
        <ele>188.7</ele>
      </trkpt>
      <trkpt lat="50.62331" lon="5.44781">
        <ele>187.1</ele>
      </trkpt>
      <trkpt lat="50.62327" lon="5.44824">
        <ele>187.5</ele>
      </trkpt>
      <trkpt lat="50.62321" lon="5.44888">
        <ele>187.7</ele>
      </trkpt>
      <trkpt lat="50.62317" lon="5.44957">
        <ele>187.7</ele>
      </trkpt>
      <trkpt lat="50.62314" lon="5.45016">
        <ele>187</ele>
      </trkpt>
      <trkpt lat="50.62315" lon="5.45066">
        <ele>186.6</ele>
      </trkpt>
      <trkpt lat="50.62316" lon="5.45123">
        <ele>186.2</ele>
      </trkpt>
      <trkpt lat="50.62318" lon="5.45187">
        <ele>185.9</ele>
      </trkpt>
      <trkpt lat="50.62321" lon="5.45254">
        <ele>186</ele>
      </trkpt>
      <trkpt lat="50.62324" lon="5.45318">
        <ele>187.3</ele>
      </trkpt>
      <trkpt lat="50.62326" lon="5.45377">
        <ele>186</ele>
      </trkpt>
      <trkpt lat="50.62327" lon="5.45417">
        <ele>186.1</ele>
      </trkpt>
      <trkpt lat="50.6233" lon="5.45481">
        <ele>184.1</ele>
      </trkpt>
      <trkpt lat="50.62332" lon="5.45526">
        <ele>183</ele>
      </trkpt>
      <trkpt lat="50.62334" lon="5.45573">
        <ele>184.2</ele>
      </trkpt>
      <trkpt lat="50.62335" lon="5.45593">
        <ele>184</ele>
      </trkpt>
      <trkpt lat="50.62328" lon="5.45615">
        <ele>182.3</ele>
      </trkpt>
      <trkpt lat="50.62319" lon="5.4565">
        <ele>182.4</ele>
      </trkpt>
      <trkpt lat="50.62311" lon="5.45682">
        <ele>182.5</ele>
      </trkpt>
      <trkpt lat="50.62305" lon="5.45706">
        <ele>182.3</ele>
      </trkpt>
      <trkpt lat="50.62295" lon="5.45749">
        <ele>182.3</ele>
      </trkpt>
      <trkpt lat="50.62288" lon="5.45779">
        <ele>182.7</ele>
      </trkpt>
      <trkpt lat="50.62281" lon="5.4581">
        <ele>182.6</ele>
      </trkpt>
      <trkpt lat="50.62271" lon="5.45854">
        <ele>182.4</ele>
      </trkpt>
      <trkpt lat="50.62256" lon="5.45906">
        <ele>182.2</ele>
      </trkpt>
      <trkpt lat="50.62251" lon="5.45922">
        <ele>181.9</ele>
      </trkpt>
      <trkpt lat="50.62244" lon="5.45943">
        <ele>181</ele>
      </trkpt>
      <trkpt lat="50.62234" lon="5.45988">
        <ele>180.8</ele>
      </trkpt>
      <trkpt lat="50.62225" lon="5.46042">
        <ele>181.7</ele>
      </trkpt>
      <trkpt lat="50.62206" lon="5.4614">
        <ele>182.5</ele>
      </trkpt>
      <trkpt lat="50.62195" lon="5.46241">
        <ele>181.9</ele>
      </trkpt>
      <trkpt lat="50.62187" lon="5.46323">
        <ele>181.7</ele>
      </trkpt>
      <trkpt lat="50.62204" lon="5.46439">
        <ele>181</ele>
      </trkpt>
      <trkpt lat="50.62204" lon="5.46468">
        <ele>181</ele>
      </trkpt>
      <trkpt lat="50.62177" lon="5.46787">
        <ele>175.6</ele>
      </trkpt>
      <trkpt lat="50.62145" lon="5.47143">
        <ele>167.9</ele>
      </trkpt>
      <trkpt lat="50.62137" lon="5.47202">
        <ele>166.2</ele>
      </trkpt>
      <trkpt lat="50.62058" lon="5.47518">
        <ele>159</ele>
      </trkpt>
      <trkpt lat="50.62042" lon="5.4755">
        <ele>158.1</ele>
      </trkpt>
      <trkpt lat="50.62029" lon="5.47565">
        <ele>157.5</ele>
      </trkpt>
      <trkpt lat="50.61994" lon="5.47589">
        <ele>153.4</ele>
      </trkpt>
      <trkpt lat="50.61978" lon="5.47604">
        <ele>151.1</ele>
      </trkpt>
      <trkpt lat="50.61967" lon="5.4762">
        <ele>150</ele>
      </trkpt>
      <trkpt lat="50.6191" lon="5.47845">
        <ele>139.8</ele>
      </trkpt>
      <trkpt lat="50.6188" lon="5.47959">
        <ele>138.1</ele>
      </trkpt>
      <trkpt lat="50.61853" lon="5.48059">
        <ele>135.1</ele>
      </trkpt>
      <trkpt lat="50.61839" lon="5.4808">
        <ele>132</ele>
      </trkpt>
      <trkpt lat="50.61827" lon="5.48098">
        <ele>130.1</ele>
      </trkpt>
      <trkpt lat="50.61773" lon="5.48134">
        <ele>128.5</ele>
      </trkpt>
      <trkpt lat="50.61762" lon="5.48141">
        <ele>128</ele>
      </trkpt>
      <trkpt lat="50.61795" lon="5.48445">
        <ele>122.7</ele>
      </trkpt>
      <trkpt lat="50.61799" lon="5.48484">
        <ele>122.2</ele>
      </trkpt>
      <trkpt lat="50.61804" lon="5.48518">
        <ele>120.5</ele>
      </trkpt>
      <trkpt lat="50.61849" lon="5.48722">
        <ele>113.3</ele>
      </trkpt>
      <trkpt lat="50.61864" lon="5.48821">
        <ele>112.1</ele>
      </trkpt>
      <trkpt lat="50.61871" lon="5.48847">
        <ele>111.2</ele>
      </trkpt>
      <trkpt lat="50.61884" lon="5.48878">
        <ele>110.4</ele>
      </trkpt>
      <trkpt lat="50.61967" lon="5.49116">
        <ele>98.6</ele>
      </trkpt>
      <trkpt lat="50.61966" lon="5.49176">
        <ele>94.9</ele>
      </trkpt>
      <trkpt lat="50.61951" lon="5.49221">
        <ele>94.4</ele>
      </trkpt>
      <trkpt lat="50.61927" lon="5.49247">
        <ele>94.2</ele>
      </trkpt>
      <trkpt lat="50.61847" lon="5.49273">
        <ele>91.8</ele>
      </trkpt>
      <trkpt lat="50.61775" lon="5.493">
        <ele>88.6</ele>
      </trkpt>
      <trkpt lat="50.61751" lon="5.49325">
        <ele>86.2</ele>
      </trkpt>
      <trkpt lat="50.61736" lon="5.49358">
        <ele>81.5</ele>
      </trkpt>
      <trkpt lat="50.61727" lon="5.49402">
        <ele>79.9</ele>
      </trkpt>
      <trkpt lat="50.61728" lon="5.4944">
        <ele>77.6</ele>
      </trkpt>
      <trkpt lat="50.61744" lon="5.49498">
        <ele>76.9</ele>
      </trkpt>
      <trkpt lat="50.6179" lon="5.49583">
        <ele>75.4</ele>
      </trkpt>
      <trkpt lat="50.61823" lon="5.49644">
        <ele>72.6</ele>
      </trkpt>
      <trkpt lat="50.61859" lon="5.49734">
        <ele>71.1</ele>
      </trkpt>
      <trkpt lat="50.61812" lon="5.49782">
        <ele>69.2</ele>
      </trkpt>
      <trkpt lat="50.61783" lon="5.49805">
        <ele>68.9</ele>
      </trkpt>
      <trkpt lat="50.6174" lon="5.49828">
        <ele>67.6</ele>
      </trkpt>
      <trkpt lat="50.61689" lon="5.49861">
        <ele>66.2</ele>
      </trkpt>
      <trkpt lat="50.61631" lon="5.49931">
        <ele>65.6</ele>
      </trkpt>
      <trkpt lat="50.61582" lon="5.49986">
        <ele>64</ele>
      </trkpt>
      <trkpt lat="50.61551" lon="5.50011">
        <ele>63.5</ele>
      </trkpt>
      <trkpt lat="50.6151" lon="5.50045">
        <ele>63.3</ele>
      </trkpt>
      <trkpt lat="50.61487" lon="5.50069">
        <ele>63.3</ele>
      </trkpt>
      <trkpt lat="50.61465" lon="5.50094">
        <ele>63.3</ele>
      </trkpt>
      <trkpt lat="50.61417" lon="5.50009">
        <ele>63.2</ele>
      </trkpt>
      <trkpt lat="50.61336" lon="5.49871">
        <ele>61.4</ele>
      </trkpt>
      <trkpt lat="50.61255" lon="5.4973">
        <ele>63.8</ele>
      </trkpt>
      <trkpt lat="50.61213" lon="5.49665">
        <ele>68</ele>
      </trkpt>
      <trkpt lat="50.61117" lon="5.49519">
        <ele>65.1</ele>
      </trkpt>
      <trkpt lat="50.60989" lon="5.49327">
        <ele>65.3</ele>
      </trkpt>
      <trkpt lat="50.60904" lon="5.49197">
        <ele>65.3</ele>
      </trkpt>
      <trkpt lat="50.60815" lon="5.49053">
        <ele>65.8</ele>
      </trkpt>
      <trkpt lat="50.60755" lon="5.48938">
        <ele>64.3</ele>
      </trkpt>
      <trkpt lat="50.60692" lon="5.48812">
        <ele>64.2</ele>
      </trkpt>
      <trkpt lat="50.60641" lon="5.48708">
        <ele>64.3</ele>
      </trkpt>
      <trkpt lat="50.60605" lon="5.48629">
        <ele>64.2</ele>
      </trkpt>
      <trkpt lat="50.6057" lon="5.48548">
        <ele>64.7</ele>
      </trkpt>
      <trkpt lat="50.60535" lon="5.48467">
        <ele>66.4</ele>
      </trkpt>
      <trkpt lat="50.60502" lon="5.48395">
        <ele>67.3</ele>
      </trkpt>
      <trkpt lat="50.605" lon="5.48372">
        <ele>67.5</ele>
      </trkpt>
      <trkpt lat="50.60495" lon="5.48366">
        <ele>67</ele>
      </trkpt>
      <trkpt lat="50.60488" lon="5.48371">
        <ele>66.8</ele>
      </trkpt>
      <trkpt lat="50.60485" lon="5.48379">
        <ele>66.8</ele>
      </trkpt>
      <trkpt lat="50.60486" lon="5.48388">
        <ele>66.7</ele>
      </trkpt>
      <trkpt lat="50.60483" lon="5.48396">
        <ele>66.7</ele>
      </trkpt>
      <trkpt lat="50.60453" lon="5.48431">
        <ele>65.6</ele>
      </trkpt>
      <trkpt lat="50.60422" lon="5.48468">
        <ele>65</ele>
      </trkpt>
      <trkpt lat="50.60404" lon="5.48439">
        <ele>64.7</ele>
      </trkpt>
      <trkpt lat="50.60421" lon="5.48429">
        <ele>65.2</ele>
      </trkpt>
    </trkseg>
  </trk>
</gpx>